<?xml version='1.0' encoding='UTF-8'?><gpx version="1.1" creator="JPX - https://github.com/jenetics/jpx" xmlns="http://www.topografix.com/GPX/1/1"><trk><trkseg><trkpt lat="44.12324361019199" lon="9.844331381288535"><ele>13.666666666666668</ele><time>2026-04-06T07:48:06.999Z</time></trkpt><trkpt lat="44.12317973934072" lon="9.844331592072773"><ele>13.333333333333334</ele><time>2026-04-06T07:48:18.999Z</time></trkpt><trkpt lat="44.12311113332346" lon="9.844343716608067"><ele>13.0</ele><time>2026-04-06T07:48:28.999Z</time></trkpt><trkpt lat="44.123090703354386" lon="9.844470050160105"><ele>12.666666666666668</ele><time>2026-04-06T07:48:30.999Z</time></trkpt><trkpt lat="44.12317698017176" lon="9.844533704584713"><ele>12.333333333333334</ele><time>2026-04-06T07:49:15.999Z</time></trkpt><trkpt lat="44.123169809441606" lon="9.844623313042455"><ele>12.0</ele><time>2026-04-06T07:49:16.999Z</time></trkpt><trkpt lat="44.12315258352599" lon="9.844766996910415"><ele>12.0</ele><time>2026-04-06T07:49:17.999Z</time></trkpt><trkpt lat="44.12312146779307" lon="9.844939344576874"><ele>12.0</ele><time>2026-04-06T07:49:18.999Z</time></trkpt><trkpt lat="44.123098094452914" lon="9.845126133041633"><ele>12.0</ele><time>2026-04-06T07:49:19.999Z</time></trkpt><trkpt lat="44.12306518271857" lon="9.845353197612804"><ele>12.0</ele><time>2026-04-06T07:49:20.999Z</time></trkpt><trkpt lat="44.123037598169795" lon="9.845594622644185"><ele>12.6</ele><time>2026-04-06T07:49:21.999Z</time></trkpt><trkpt lat="44.12300370892005" lon="9.845759406446799"><ele>13.2</ele><time>2026-04-06T07:49:22.999Z</time></trkpt><trkpt lat="44.12300028452827" lon="9.84591030848719"><ele>13.8</ele><time>2026-04-06T07:49:23.999Z</time></trkpt><trkpt lat="44.12298138633981" lon="9.84603889183528"><ele>14.4</ele><time>2026-04-06T07:49:24.999Z</time></trkpt><trkpt lat="44.12296018775616" lon="9.846150860217046"><ele>15.0</ele><time>2026-04-06T07:49:25.999Z</time></trkpt><trkpt lat="44.12294887035963" lon="9.846260103175103"><ele>15.0</ele><time>2026-04-06T07:49:26.999Z</time></trkpt><trkpt lat="44.12293608485141" lon="9.846393506503853"><ele>15.0</ele><time>2026-04-06T07:49:28.999Z</time></trkpt><trkpt lat="44.12296563512016" lon="9.846630951804881"><ele>15.0</ele><time>2026-04-06T07:51:00.999Z</time></trkpt><trkpt lat="44.122935371900596" lon="9.84671304045424"><ele>15.0</ele><time>2026-04-06T07:51:01.999Z</time></trkpt><trkpt lat="44.12296468514375" lon="9.846820952096719"><ele>15.0</ele><time>2026-04-06T07:51:03.999Z</time></trkpt><trkpt lat="44.12303248575424" lon="9.846853532131153"><ele>15.0</ele><time>2026-04-06T07:51:04.999Z</time></trkpt><trkpt lat="44.123125908886074" lon="9.84684286324916"><ele>15.0</ele><time>2026-04-06T07:51:05.999Z</time></trkpt><trkpt lat="44.123240749981804" lon="9.846828361647713"><ele>15.0</ele><time>2026-04-06T07:51:06.999Z</time></trkpt><trkpt lat="44.1233862972521" lon="9.84681252857719"><ele>15.0</ele><time>2026-04-06T07:51:07.999Z</time></trkpt><trkpt lat="44.12352711724701" lon="9.846816725080394"><ele>15.666666666666668</ele><time>2026-04-06T07:51:08.999Z</time></trkpt><trkpt lat="44.12367108777028" lon="9.846815059006024"><ele>16.333333333333336</ele><time>2026-04-06T07:51:09.999Z</time></trkpt><trkpt lat="44.123825613697534" lon="9.846818957129816"><ele>17.0</ele><time>2026-04-06T07:51:10.999Z</time></trkpt><trkpt lat="44.12399284441181" lon="9.846800129057538"><ele>17.25</ele><time>2026-04-06T07:51:11.999Z</time></trkpt><trkpt lat="44.124121205732244" lon="9.846825015114227"><ele>17.5</ele><time>2026-04-06T07:51:12.999Z</time></trkpt><trkpt lat="44.12426842648659" lon="9.846783820615054"><ele>17.75</ele><time>2026-04-06T07:51:13.999Z</time></trkpt><trkpt lat="44.12439558923075" lon="9.846757476233085"><ele>18.0</ele><time>2026-04-06T07:51:14.999Z</time></trkpt><trkpt lat="44.12452186314698" lon="9.84672608483707"><ele>18.25</ele><time>2026-04-06T07:51:15.999Z</time></trkpt><trkpt lat="44.124658474307225" lon="9.84671185708548"><ele>18.5</ele><time>2026-04-06T07:51:16.999Z</time></trkpt><trkpt lat="44.12480554107417" lon="9.846674561867037"><ele>18.75</ele><time>2026-04-06T07:51:17.999Z</time></trkpt><trkpt lat="44.124952492800574" lon="9.846636544502465"><ele>19.0</ele><time>2026-04-06T07:51:18.999Z</time></trkpt><trkpt lat="44.12509617317074" lon="9.846599373457776"><ele>19.0</ele><time>2026-04-06T07:51:19.999Z</time></trkpt><trkpt lat="44.12523491714252" lon="9.84656169365183"><ele>19.0</ele><time>2026-04-06T07:51:20.999Z</time></trkpt><trkpt lat="44.12535465324899" lon="9.846526431608257"><ele>19.0</ele><time>2026-04-06T07:51:21.999Z</time></trkpt><trkpt lat="44.125456367203064" lon="9.84649570940724"><ele>19.0</ele><time>2026-04-06T07:51:22.999Z</time></trkpt><trkpt lat="44.125556678798105" lon="9.846460558236867"><ele>19.0</ele><time>2026-04-06T07:51:23.999Z</time></trkpt><trkpt lat="44.125657807352646" lon="9.84642286846187"><ele>19.0</ele><time>2026-04-06T07:51:24.999Z</time></trkpt><trkpt lat="44.12574095447858" lon="9.846376397213795"><ele>19.0</ele><time>2026-04-06T07:51:25.999Z</time></trkpt><trkpt lat="44.12584148814175" lon="9.846341433231151"><ele>19.0</ele><time>2026-04-06T07:51:27.999Z</time></trkpt><trkpt lat="44.12595779226473" lon="9.846272866028682"><ele>19.0</ele><time>2026-04-06T07:51:29.999Z</time></trkpt><trkpt lat="44.126055718415465" lon="9.846227657610862"><ele>19.5</ele><time>2026-04-06T07:51:30.999Z</time></trkpt><trkpt lat="44.1261763171192" lon="9.846211099382723"><ele>20.0</ele><time>2026-04-06T07:51:31.999Z</time></trkpt><trkpt lat="44.12629989972432" lon="9.84616926758398"><ele>20.5</ele><time>2026-04-06T07:51:32.999Z</time></trkpt><trkpt lat="44.12641312522728" lon="9.846105885702277"><ele>21.0</ele><time>2026-04-06T07:51:33.999Z</time></trkpt><trkpt lat="44.12653875153125" lon="9.846067842476929"><ele>21.0</ele><time>2026-04-06T07:51:34.999Z</time></trkpt><trkpt lat="44.126670475853416" lon="9.846027742055405"><ele>21.0</ele><time>2026-04-06T07:51:35.999Z</time></trkpt><trkpt lat="44.12680703681133" lon="9.846019172858878"><ele>21.0</ele><time>2026-04-06T07:51:36.999Z</time></trkpt><trkpt lat="44.12693058002635" lon="9.845995499002"><ele>21.0</ele><time>2026-04-06T07:51:37.999Z</time></trkpt><trkpt lat="44.12706266229876" lon="9.845972258030258"><ele>21.25</ele><time>2026-04-06T07:51:38.999Z</time></trkpt><trkpt lat="44.127200048699976" lon="9.845936484097736"><ele>21.5</ele><time>2026-04-06T07:51:39.999Z</time></trkpt><trkpt lat="44.127344003789695" lon="9.845919429477796"><ele>21.75</ele><time>2026-04-06T07:51:40.999Z</time></trkpt><trkpt lat="44.1274947555177" lon="9.845897730824865"><ele>22.0</ele><time>2026-04-06T07:51:41.999Z</time></trkpt><trkpt lat="44.1276456780199" lon="9.845871862122937"><ele>22.333333333333332</ele><time>2026-04-06T07:51:42.999Z</time></trkpt><trkpt lat="44.1277990584448" lon="9.845843522506016"><ele>22.666666666666668</ele><time>2026-04-06T07:51:43.999Z</time></trkpt><trkpt lat="44.127952937956934" lon="9.845840487037144"><ele>23.0</ele><time>2026-04-06T07:51:44.999Z</time></trkpt><trkpt lat="44.128100405288926" lon="9.845818695922219"><ele>24.0</ele><time>2026-04-06T07:51:45.999Z</time></trkpt><trkpt lat="44.12823797855527" lon="9.845776043689316"><ele>25.0</ele><time>2026-04-06T07:51:46.999Z</time></trkpt><trkpt lat="44.12838751554076" lon="9.845776352078783"><ele>26.0</ele><time>2026-04-06T07:51:47.999Z</time></trkpt><trkpt lat="44.12852466634215" lon="9.845756124683804"><ele>27.0</ele><time>2026-04-06T07:51:48.999Z</time></trkpt><trkpt lat="44.12865246002624" lon="9.845737277304455"><ele>27.0</ele><time>2026-04-06T07:51:49.999Z</time></trkpt><trkpt lat="44.128762426025546" lon="9.845721059204587"><ele>27.000000000000004</ele><time>2026-04-06T07:51:50.999Z</time></trkpt><trkpt lat="44.12886354799126" lon="9.84570616687575"><ele>27.000000000000004</ele><time>2026-04-06T07:51:51.999Z</time></trkpt><trkpt lat="44.128961485860714" lon="9.845691780084334"><ele>27.0</ele><time>2026-04-06T07:51:52.999Z</time></trkpt><trkpt lat="44.12904322428592" lon="9.845657110842147"><ele>27.0</ele><time>2026-04-06T07:51:53.999Z</time></trkpt><trkpt lat="44.12912171842467" lon="9.845677863502875"><ele>27.166666666666668</ele><time>2026-04-06T07:51:54.999Z</time></trkpt><trkpt lat="44.12918948900163" lon="9.845737575710807"><ele>27.333333333333336</ele><time>2026-04-06T07:51:55.999Z</time></trkpt><trkpt lat="44.12925306032802" lon="9.84582193106217"><ele>27.5</ele><time>2026-04-06T07:51:56.999Z</time></trkpt><trkpt lat="44.129308047056135" lon="9.84589340967871"><ele>27.666666666666668</ele><time>2026-04-06T07:51:57.999Z</time></trkpt><trkpt lat="44.12936813381755" lon="9.845956663596237"><ele>27.833333333333336</ele><time>2026-04-06T07:51:58.999Z</time></trkpt><trkpt lat="44.12943592158589" lon="9.846022130919863"><ele>28.0</ele><time>2026-04-06T07:51:59.999Z</time></trkpt><trkpt lat="44.129509937833916" lon="9.846092359360936"><ele>28.000000000000004</ele><time>2026-04-06T07:52:00.999Z</time></trkpt><trkpt lat="44.12958042143959" lon="9.846172911783707"><ele>28.0</ele><time>2026-04-06T07:52:01.999Z</time></trkpt><trkpt lat="44.12962698037176" lon="9.846268380125231"><ele>28.0</ele><time>2026-04-06T07:52:02.999Z</time></trkpt><trkpt lat="44.12965889275511" lon="9.846363012484083"><ele>28.0</ele><time>2026-04-06T07:52:03.999Z</time></trkpt><trkpt lat="44.1297013088547" lon="9.846443604695503"><ele>28.000000000000004</ele><time>2026-04-06T07:52:04.999Z</time></trkpt><trkpt lat="44.12977963178437" lon="9.846518288277057"><ele>28.0</ele><time>2026-04-06T07:52:05.999Z</time></trkpt><trkpt lat="44.12989301314623" lon="9.846620558593147"><ele>28.5</ele><time>2026-04-06T07:52:06.999Z</time></trkpt><trkpt lat="44.130030861735406" lon="9.846726261710618"><ele>29.0</ele><time>2026-04-06T07:52:07.999Z</time></trkpt><trkpt lat="44.13015246691713" lon="9.846819509296166"><ele>29.5</ele><time>2026-04-06T07:52:08.999Z</time></trkpt><trkpt lat="44.13026312214107" lon="9.846881006023464"><ele>30.0</ele><time>2026-04-06T07:52:09.999Z</time></trkpt><trkpt lat="44.130349356969006" lon="9.846950652183144"><ele>30.0</ele><time>2026-04-06T07:52:10.999Z</time></trkpt><trkpt lat="44.13042084569835" lon="9.847003054011832"><ele>30.0</ele><time>2026-04-06T07:52:11.999Z</time></trkpt><trkpt lat="44.13047929387314" lon="9.847050132017355"><ele>30.0</ele><time>2026-04-06T07:52:12.999Z</time></trkpt><trkpt lat="44.13056902521053" lon="9.847113485990702"><ele>30.0</ele><time>2026-04-06T07:52:14.999Z</time></trkpt><trkpt lat="44.13065593632067" lon="9.847186182764483"><ele>30.0</ele><time>2026-04-06T07:52:16.999Z</time></trkpt><trkpt lat="44.130769988920996" lon="9.84728058289491"><ele>30.5</ele><time>2026-04-06T07:52:18.999Z</time></trkpt><trkpt lat="44.130836749802256" lon="9.84733153855146"><ele>31.0</ele><time>2026-04-06T07:52:19.999Z</time></trkpt><trkpt lat="44.13090768283082" lon="9.847380352220108"><ele>31.5</ele><time>2026-04-06T07:52:20.999Z</time></trkpt><trkpt lat="44.1309787228477" lon="9.847429759057679"><ele>32.0</ele><time>2026-04-06T07:52:21.999Z</time></trkpt><trkpt lat="44.13105585118245" lon="9.84748681907385"><ele>32.5</ele><time>2026-04-06T07:52:22.999Z</time></trkpt><trkpt lat="44.131135083057714" lon="9.847549885020593"><ele>33.0</ele><time>2026-04-06T07:52:23.999Z</time></trkpt><trkpt lat="44.131214279253015" lon="9.84761073974844"><ele>33.199999999999996</ele><time>2026-04-06T07:52:24.999Z</time></trkpt><trkpt lat="44.13128980495923" lon="9.847666796956918"><ele>33.4</ele><time>2026-04-06T07:52:25.999Z</time></trkpt><trkpt lat="44.131368613173905" lon="9.84772698169002"><ele>33.599999999999994</ele><time>2026-04-06T07:52:26.999Z</time></trkpt><trkpt lat="44.13144980872188" lon="9.847789078077078"><ele>33.8</ele><time>2026-04-06T07:52:27.999Z</time></trkpt><trkpt lat="44.13153880430785" lon="9.84785651686829"><ele>34.0</ele><time>2026-04-06T07:52:28.999Z</time></trkpt><trkpt lat="44.13161252211177" lon="9.847913266734542"><ele>35.0</ele><time>2026-04-06T07:52:29.999Z</time></trkpt><trkpt lat="44.13169086328901" lon="9.84797550309739"><ele>36.0</ele><time>2026-04-06T07:52:30.999Z</time></trkpt><trkpt lat="44.131776491267146" lon="9.848031783969684"><ele>37.0</ele><time>2026-04-06T07:52:31.999Z</time></trkpt><trkpt lat="44.13187069118892" lon="9.848073711778124"><ele>38.0</ele><time>2026-04-06T07:52:32.999Z</time></trkpt><trkpt lat="44.13197020377405" lon="9.848096818390317"><ele>39.0</ele><time>2026-04-06T07:52:33.999Z</time></trkpt><trkpt lat="44.13208118950428" lon="9.848106031321224"><ele>39.0</ele><time>2026-04-06T07:52:34.999Z</time></trkpt><trkpt lat="44.1321923920299" lon="9.848116455431231"><ele>39.0</ele><time>2026-04-06T07:52:35.999Z</time></trkpt><trkpt lat="44.132307611137456" lon="9.848130709234557"><ele>39.0</ele><time>2026-04-06T07:52:36.999Z</time></trkpt><trkpt lat="44.13241945913393" lon="9.848143757298867"><ele>39.0</ele><time>2026-04-06T07:52:37.999Z</time></trkpt><trkpt lat="44.132529129157234" lon="9.848152252097838"><ele>39.0</ele><time>2026-04-06T07:52:38.999Z</time></trkpt><trkpt lat="44.13263192582379" lon="9.84818680427612"><ele>39.2</ele><time>2026-04-06T07:52:39.999Z</time></trkpt><trkpt lat="44.13273486315628" lon="9.848178283219905"><ele>39.4</ele><time>2026-04-06T07:52:40.999Z</time></trkpt><trkpt lat="44.1328373709581" lon="9.848190738055008"><ele>39.6</ele><time>2026-04-06T07:52:41.999Z</time></trkpt><trkpt lat="44.13293557036961" lon="9.848214183071292"><ele>39.8</ele><time>2026-04-06T07:52:42.999Z</time></trkpt><trkpt lat="44.133034951671924" lon="9.848255978882738"><ele>40.0</ele><time>2026-04-06T07:52:43.999Z</time></trkpt><trkpt lat="44.133137177345134" lon="9.848304963170307"><ele>41.4</ele><time>2026-04-06T07:52:44.999Z</time></trkpt><trkpt lat="44.133235058418535" lon="9.848359840542448"><ele>42.8</ele><time>2026-04-06T07:52:45.999Z</time></trkpt><trkpt lat="44.133332518754145" lon="9.848412881705732"><ele>44.2</ele><time>2026-04-06T07:52:46.999Z</time></trkpt><trkpt lat="44.13341831833597" lon="9.848463876644313"><ele>45.6</ele><time>2026-04-06T07:52:47.999Z</time></trkpt><trkpt lat="44.133517784109856" lon="9.848519857482017"><ele>47.0</ele><time>2026-04-06T07:52:48.999Z</time></trkpt><trkpt lat="44.13360902631199" lon="9.848574643003793"><ele>51.75</ele><time>2026-04-06T07:52:49.999Z</time></trkpt><trkpt lat="44.133700109071576" lon="9.848627408473616"><ele>56.5</ele><time>2026-04-06T07:52:50.999Z</time></trkpt><trkpt lat="44.13381008089957" lon="9.848692034033778"><ele>61.25</ele><time>2026-04-06T07:52:51.999Z</time></trkpt><trkpt lat="44.13392192032457" lon="9.848754970592953"><ele>66.0</ele><time>2026-04-06T07:52:52.999Z</time></trkpt><trkpt lat="44.13403571639777" lon="9.848819219589606"><ele>63.0</ele><time>2026-04-06T07:52:53.999Z</time></trkpt><trkpt lat="44.13415009560242" lon="9.848897016198059"><ele>60.0</ele><time>2026-04-06T07:52:54.999Z</time></trkpt><trkpt lat="44.134283493140074" lon="9.848982707512697"><ele>57.0</ele><time>2026-04-06T07:52:55.999Z</time></trkpt><trkpt lat="44.13443330818648" lon="9.849107958942092"><ele>54.0</ele><time>2026-04-06T07:52:56.999Z</time></trkpt><trkpt lat="44.13460789668056" lon="9.849222358623173"><ele>56.33333333333333</ele><time>2026-04-06T07:52:58Z</time></trkpt><trkpt lat="44.1347819999667" lon="9.849311231678668"><ele>58.666666666666664</ele><time>2026-04-06T07:52:59Z</time></trkpt><trkpt lat="44.13493774046524" lon="9.849410772855796"><ele>61.0</ele><time>2026-04-06T07:53:00Z</time></trkpt><trkpt lat="44.135104129103595" lon="9.849500126940136"><ele>61.0</ele><time>2026-04-06T07:53:01Z</time></trkpt><trkpt lat="44.135253279780045" lon="9.849587666954708"><ele>61.0</ele><time>2026-04-06T07:53:02Z</time></trkpt><trkpt lat="44.13540783342327" lon="9.849680423727671"><ele>61.0</ele><time>2026-04-06T07:53:03Z</time></trkpt><trkpt lat="44.13554885383156" lon="9.849774064064258"><ele>61.0</ele><time>2026-04-06T07:53:04Z</time></trkpt><trkpt lat="44.13568785443075" lon="9.84986966518595"><ele>61.0</ele><time>2026-04-06T07:53:05Z</time></trkpt><trkpt lat="44.13584678999395" lon="9.849959646343889"><ele>61.0</ele><time>2026-04-06T07:53:06Z</time></trkpt><trkpt lat="44.13599079869572" lon="9.850021527378782"><ele>63.0</ele><time>2026-04-06T07:53:07Z</time></trkpt><trkpt lat="44.136135141796" lon="9.850089328392412"><ele>65.0</ele><time>2026-04-06T07:53:08Z</time></trkpt><trkpt lat="44.136272385690546" lon="9.850149443819538"><ele>67.0</ele><time>2026-04-06T07:53:09Z</time></trkpt><trkpt lat="44.13640781164928" lon="9.85020703623884"><ele>69.0</ele><time>2026-04-06T07:53:10Z</time></trkpt><trkpt lat="44.13654038196584" lon="9.850256650500532"><ele>71.25</ele><time>2026-04-06T07:53:11Z</time></trkpt><trkpt lat="44.1366620086913" lon="9.850299413465052"><ele>73.5</ele><time>2026-04-06T07:53:12Z</time></trkpt><trkpt lat="44.13677543090886" lon="9.850367688391957"><ele>75.75</ele><time>2026-04-06T07:53:13Z</time></trkpt><trkpt lat="44.13687532737672" lon="9.850475796179992"><ele>78.0</ele><time>2026-04-06T07:53:14Z</time></trkpt><trkpt lat="44.13696602094791" lon="9.850605197958373"><ele>78.0</ele><time>2026-04-06T07:53:15Z</time></trkpt><trkpt lat="44.13704179473361" lon="9.850734070638342"><ele>78.0</ele><time>2026-04-06T07:53:16Z</time></trkpt><trkpt lat="44.13711596059081" lon="9.850863146029532"><ele>78.0</ele><time>2026-04-06T07:53:17Z</time></trkpt><trkpt lat="44.137182145403735" lon="9.850988415828247"><ele>78.0</ele><time>2026-04-06T07:53:18Z</time></trkpt><trkpt lat="44.137246527370195" lon="9.851127990949845"><ele>79.0</ele><time>2026-04-06T07:53:19Z</time></trkpt><trkpt lat="44.13729980500926" lon="9.851270879293581"><ele>80.0</ele><time>2026-04-06T07:53:20Z</time></trkpt><trkpt lat="44.13735177352675" lon="9.851416037909523"><ele>81.0</ele><time>2026-04-06T07:53:21Z</time></trkpt><trkpt lat="44.137389939005224" lon="9.851546521274656"><ele>82.0</ele><time>2026-04-06T07:53:21.999Z</time></trkpt><trkpt lat="44.1374220249226" lon="9.851675098868643"><ele>83.0</ele><time>2026-04-06T07:53:23Z</time></trkpt><trkpt lat="44.13745352330372" lon="9.851813473026638"><ele>87.5</ele><time>2026-04-06T07:53:23.999Z</time></trkpt><trkpt lat="44.137481100391945" lon="9.851957963313003"><ele>92.0</ele><time>2026-04-06T07:53:24.999Z</time></trkpt><trkpt lat="44.137508520438494" lon="9.852105855277179"><ele>96.5</ele><time>2026-04-06T07:53:25.999Z</time></trkpt><trkpt lat="44.13751275981002" lon="9.852245094412828"><ele>101.0</ele><time>2026-04-06T07:53:26.999Z</time></trkpt><trkpt lat="44.1376246311231" lon="9.852372975411418"><ele>101.0</ele><time>2026-04-06T07:53:27.999Z</time></trkpt><trkpt lat="44.13771328034034" lon="9.85249002889868"><ele>101.0</ele><time>2026-04-06T07:53:28.999Z</time></trkpt><trkpt lat="44.13779583281896" lon="9.852615587606477"><ele>101.0</ele><time>2026-04-06T07:53:29.999Z</time></trkpt><trkpt lat="44.137875760490786" lon="9.852743363662"><ele>101.0</ele><time>2026-04-06T07:53:30.999Z</time></trkpt><trkpt lat="44.137954978439424" lon="9.852870676783773"><ele>103.0</ele><time>2026-04-06T07:53:31.999Z</time></trkpt><trkpt lat="44.1380328322605" lon="9.852996101740557"><ele>105.0</ele><time>2026-04-06T07:53:32.999Z</time></trkpt><trkpt lat="44.138110494823295" lon="9.853121502978288"><ele>107.0</ele><time>2026-04-06T07:53:33.999Z</time></trkpt><trkpt lat="44.1381847644446" lon="9.853248504151285"><ele>109.0</ele><time>2026-04-06T07:53:34.999Z</time></trkpt><trkpt lat="44.13825611982776" lon="9.853371348385826"><ele>109.75</ele><time>2026-04-06T07:53:35.999Z</time></trkpt><trkpt lat="44.13832712422692" lon="9.853490807654865"><ele>110.5</ele><time>2026-04-06T07:53:36.999Z</time></trkpt><trkpt lat="44.13839825886673" lon="9.853606525581663"><ele>111.25</ele><time>2026-04-06T07:53:37.999Z</time></trkpt><trkpt lat="44.13846713759237" lon="9.853730156680719"><ele>112.0</ele><time>2026-04-06T07:53:38.999Z</time></trkpt><trkpt lat="44.13854247577569" lon="9.853863324805516"><ele>112.0</ele><time>2026-04-06T07:53:39.999Z</time></trkpt><trkpt lat="44.13861617533428" lon="9.853996751900665"><ele>112.0</ele><time>2026-04-06T07:53:40.999Z</time></trkpt><trkpt lat="44.13869771807633" lon="9.854122762626064"><ele>112.0</ele><time>2026-04-06T07:53:41.999Z</time></trkpt><trkpt lat="44.13877120795769" lon="9.85424833601542"><ele>112.0</ele><time>2026-04-06T07:53:42.999Z</time></trkpt><trkpt lat="44.13884968307684" lon="9.85437431712431"><ele>113.25</ele><time>2026-04-06T07:53:43.999Z</time></trkpt><trkpt lat="44.138927358452875" lon="9.854502938832061"><ele>114.5</ele><time>2026-04-06T07:53:44.999Z</time></trkpt><trkpt lat="44.13900401780436" lon="9.85463574136882"><ele>115.75</ele><time>2026-04-06T07:53:45.999Z</time></trkpt><trkpt lat="44.139082070781846" lon="9.854769598040257"><ele>117.0</ele><time>2026-04-06T07:53:46.999Z</time></trkpt><trkpt lat="44.139162828169454" lon="9.854901365962123"><ele>113.25</ele><time>2026-04-06T07:53:47.999Z</time></trkpt><trkpt lat="44.139248309464975" lon="9.855024870388185"><ele>109.5</ele><time>2026-04-06T07:53:48.999Z</time></trkpt><trkpt lat="44.1393384092194" lon="9.855128235567182"><ele>105.75</ele><time>2026-04-06T07:53:49.999Z</time></trkpt><trkpt lat="44.139437427215654" lon="9.855212564780723"><ele>102.0</ele><time>2026-04-06T07:53:50.999Z</time></trkpt><trkpt lat="44.139541049502654" lon="9.855278712325743"><ele>101.25</ele><time>2026-04-06T07:53:51.999Z</time></trkpt><trkpt lat="44.13964926979902" lon="9.855334879602974"><ele>100.5</ele><time>2026-04-06T07:53:52.999Z</time></trkpt><trkpt lat="44.13975846994083" lon="9.85538762111927"><ele>99.75</ele><time>2026-04-06T07:53:53.999Z</time></trkpt><trkpt lat="44.13986677463344" lon="9.855430497521604"><ele>99.0</ele><time>2026-04-06T07:53:54.999Z</time></trkpt><trkpt lat="44.13997493783891" lon="9.855469861248167"><ele>99.0</ele><time>2026-04-06T07:53:55.999Z</time></trkpt><trkpt lat="44.1400757592071" lon="9.855534988954144"><ele>99.0</ele><time>2026-04-06T07:53:56.999Z</time></trkpt><trkpt lat="44.14018137640723" lon="9.855575050018235"><ele>99.0</ele><time>2026-04-06T07:53:57.999Z</time></trkpt><trkpt lat="44.1402962726809" lon="9.855600332620782"><ele>99.0</ele><time>2026-04-06T07:53:58.999Z</time></trkpt><trkpt lat="44.14039935439437" lon="9.8556008992675"><ele>99.0</ele><time>2026-04-06T07:53:59.999Z</time></trkpt><trkpt lat="44.140484133507194" lon="9.855597112364949"><ele>99.0</ele><time>2026-04-06T07:54:00.999Z</time></trkpt><trkpt lat="44.14056612749039" lon="9.855589973585968"><ele>99.0</ele><time>2026-04-06T07:54:01.999Z</time></trkpt><trkpt lat="44.140649668360005" lon="9.855581727044177"><ele>99.0</ele><time>2026-04-06T07:54:02.999Z</time></trkpt><trkpt lat="44.14078149395813" lon="9.85555503570494"><ele>99.0</ele><time>2026-04-06T07:54:04.999Z</time></trkpt><trkpt lat="44.14087178290862" lon="9.855547701069819"><ele>99.0</ele><time>2026-04-06T07:54:05.999Z</time></trkpt><trkpt lat="44.14097125961633" lon="9.855537975374881"><ele>98.6</ele><time>2026-04-06T07:54:06.999Z</time></trkpt><trkpt lat="44.14107019043818" lon="9.855533022332187"><ele>98.2</ele><time>2026-04-06T07:54:07.999Z</time></trkpt><trkpt lat="44.14116889383572" lon="9.855523266196277"><ele>97.8</ele><time>2026-04-06T07:54:08.999Z</time></trkpt><trkpt lat="44.141270977947585" lon="9.855518534656337"><ele>97.39999999999999</ele><time>2026-04-06T07:54:09.999Z</time></trkpt><trkpt lat="44.14135930950668" lon="9.855548685021017"><ele>97.0</ele><time>2026-04-06T07:54:10.999Z</time></trkpt><trkpt lat="44.14143104384189" lon="9.85564040949202"><ele>97.0</ele><time>2026-04-06T07:54:11.999Z</time></trkpt><trkpt lat="44.141502254975116" lon="9.855726783677087"><ele>97.0</ele><time>2026-04-06T07:54:12.999Z</time></trkpt><trkpt lat="44.14158436539002" lon="9.855812486141744"><ele>97.0</ele><time>2026-04-06T07:54:13.999Z</time></trkpt><trkpt lat="44.14164928410075" lon="9.855931975660145"><ele>97.0</ele><time>2026-04-06T07:54:14.999Z</time></trkpt><trkpt lat="44.141711009982664" lon="9.856036706804995"><ele>97.0</ele><time>2026-04-06T07:54:15.999Z</time></trkpt><trkpt lat="44.141780447408095" lon="9.856136288062588"><ele>97.0</ele><time>2026-04-06T07:54:16.999Z</time></trkpt><trkpt lat="44.1418521075543" lon="9.856232350317557"><ele>97.0</ele><time>2026-04-06T07:54:17.999Z</time></trkpt><trkpt lat="44.141926311578224" lon="9.856336480664421"><ele>97.0</ele><time>2026-04-06T07:54:18.999Z</time></trkpt><trkpt lat="44.14200800906778" lon="9.856446475402535"><ele>97.0</ele><time>2026-04-06T07:54:19.999Z</time></trkpt><trkpt lat="44.14210928863462" lon="9.856529153078212"><ele>97.0</ele><time>2026-04-06T07:54:20.999Z</time></trkpt><trkpt lat="44.14222747736832" lon="9.856590013590708"><ele>97.0</ele><time>2026-04-06T07:54:21.999Z</time></trkpt><trkpt lat="44.1423364502773" lon="9.856624214399261"><ele>97.0</ele><time>2026-04-06T07:54:22.999Z</time></trkpt><trkpt lat="44.14243261929572" lon="9.856670010867138"><ele>97.0</ele><time>2026-04-06T07:54:23.999Z</time></trkpt><trkpt lat="44.142530319147276" lon="9.856712513057664"><ele>97.0</ele><time>2026-04-06T07:54:24.999Z</time></trkpt><trkpt lat="44.142621944495794" lon="9.856764322656632"><ele>97.0</ele><time>2026-04-06T07:54:25.999Z</time></trkpt><trkpt lat="44.14272041827067" lon="9.856813814221846"><ele>95.8</ele><time>2026-04-06T07:54:26.999Z</time></trkpt><trkpt lat="44.14282056714379" lon="9.856860169067524"><ele>94.6</ele><time>2026-04-06T07:54:27.999Z</time></trkpt><trkpt lat="44.14292319018968" lon="9.856910946912949"><ele>93.39999999999999</ele><time>2026-04-06T07:54:28.999Z</time></trkpt><trkpt lat="44.143026074899076" lon="9.856960352625618"><ele>92.19999999999999</ele><time>2026-04-06T07:54:29.999Z</time></trkpt><trkpt lat="44.143132444675516" lon="9.857012138199103"><ele>91.0</ele><time>2026-04-06T07:54:30.999Z</time></trkpt><trkpt lat="44.14323894732928" lon="9.857066089813381"><ele>89.0</ele><time>2026-04-06T07:54:31.999Z</time></trkpt><trkpt lat="44.143342369047026" lon="9.857129508452033"><ele>87.0</ele><time>2026-04-06T07:54:32.999Z</time></trkpt><trkpt lat="44.1434351845418" lon="9.857213863843874"><ele>85.0</ele><time>2026-04-06T07:54:33.999Z</time></trkpt><trkpt lat="44.14351515703336" lon="9.857319308674613"><ele>83.0</ele><time>2026-04-06T07:54:34.999Z</time></trkpt><trkpt lat="44.143576902905984" lon="9.857429123114427"><ele>81.0</ele><time>2026-04-06T07:54:35.999Z</time></trkpt><trkpt lat="44.14363286526154" lon="9.85753628018959"><ele>81.8</ele><time>2026-04-06T07:54:36.999Z</time></trkpt><trkpt lat="44.14369587693687" lon="9.857647763905907"><ele>82.6</ele><time>2026-04-06T07:54:37.999Z</time></trkpt><trkpt lat="44.14377004283197" lon="9.857762069030667"><ele>83.4</ele><time>2026-04-06T07:54:38.999Z</time></trkpt><trkpt lat="44.14384594968097" lon="9.857879115883204"><ele>84.2</ele><time>2026-04-06T07:54:39.999Z</time></trkpt><trkpt lat="44.14392181741133" lon="9.857999958093021"><ele>85.0</ele><time>2026-04-06T07:54:40.999Z</time></trkpt><trkpt lat="44.143990962088836" lon="9.85812377930337"><ele>83.6</ele><time>2026-04-06T07:54:41.999Z</time></trkpt><trkpt lat="44.14406112822735" lon="9.858240343017643"><ele>82.2</ele><time>2026-04-06T07:54:43Z</time></trkpt><trkpt lat="44.14412664652387" lon="9.858361953314176"><ele>80.8</ele><time>2026-04-06T07:54:44Z</time></trkpt><trkpt lat="44.14419200397206" lon="9.858490102297964"><ele>79.4</ele><time>2026-04-06T07:54:45Z</time></trkpt><trkpt lat="44.14424928743238" lon="9.85862810269073"><ele>78.0</ele><time>2026-04-06T07:54:46Z</time></trkpt><trkpt lat="44.14429790659537" lon="9.85878064880625"><ele>77.4</ele><time>2026-04-06T07:54:47Z</time></trkpt><trkpt lat="44.144339843535484" lon="9.858923729316258"><ele>76.8</ele><time>2026-04-06T07:54:48Z</time></trkpt><trkpt lat="44.14437702138976" lon="9.859049058270427"><ele>76.2</ele><time>2026-04-06T07:54:49Z</time></trkpt><trkpt lat="44.14441467967121" lon="9.859171152157137"><ele>75.6</ele><time>2026-04-06T07:54:50Z</time></trkpt><trkpt lat="44.14445804874121" lon="9.859311735066607"><ele>75.0</ele><time>2026-04-06T07:54:51Z</time></trkpt><trkpt lat="44.144499890771385" lon="9.85945574565465"><ele>76.6</ele><time>2026-04-06T07:54:52Z</time></trkpt><trkpt lat="44.14454060241721" lon="9.859591589266774"><ele>78.2</ele><time>2026-04-06T07:54:53Z</time></trkpt><trkpt lat="44.144583675932054" lon="9.859723318009564"><ele>79.80000000000001</ele><time>2026-04-06T07:54:54Z</time></trkpt><trkpt lat="44.14462062086719" lon="9.859843754318028"><ele>81.4</ele><time>2026-04-06T07:54:55Z</time></trkpt><trkpt lat="44.1446560087376" lon="9.859961179975494"><ele>83.0</ele><time>2026-04-06T07:54:56Z</time></trkpt><trkpt lat="44.14468654450443" lon="9.860087877728635"><ele>84.60000000000001</ele><time>2026-04-06T07:54:57Z</time></trkpt><trkpt lat="44.14469687023549" lon="9.860229432938192"><ele>86.2</ele><time>2026-04-06T07:54:58Z</time></trkpt><trkpt lat="44.14469171354035" lon="9.86037442544892"><ele>87.8</ele><time>2026-04-06T07:54:59Z</time></trkpt><trkpt lat="44.14468124386266" lon="9.860498862139915"><ele>89.4</ele><time>2026-04-06T07:55:00Z</time></trkpt><trkpt lat="44.144682064593354" lon="9.860626549748996"><ele>91.0</ele><time>2026-04-06T07:55:01Z</time></trkpt><trkpt lat="44.144711559782934" lon="9.860747050128818"><ele>91.0</ele><time>2026-04-06T07:55:02Z</time></trkpt><trkpt lat="44.14477011945149" lon="9.860859127859337"><ele>91.0</ele><time>2026-04-06T07:55:03Z</time></trkpt><trkpt lat="44.144858824975145" lon="9.860971306311518"><ele>91.0</ele><time>2026-04-06T07:55:04Z</time></trkpt><trkpt lat="44.14494924132726" lon="9.861082567782985"><ele>91.0</ele><time>2026-04-06T07:55:05Z</time></trkpt><trkpt lat="44.14503105745052" lon="9.861193706007937"><ele>86.2</ele><time>2026-04-06T07:55:06Z</time></trkpt><trkpt lat="44.14510588651556" lon="9.861294815103552"><ele>81.39999999999999</ele><time>2026-04-06T07:55:07Z</time></trkpt><trkpt lat="44.145178830501976" lon="9.861388497721665"><ele>76.6</ele><time>2026-04-06T07:55:08Z</time></trkpt><trkpt lat="44.145249949393374" lon="9.861487671070499"><ele>71.8</ele><time>2026-04-06T07:55:09Z</time></trkpt><trkpt lat="44.14531849841314" lon="9.861589036813085"><ele>67.0</ele><time>2026-04-06T07:55:10Z</time></trkpt><trkpt lat="44.14537730314714" lon="9.861707389760396"><ele>69.4</ele><time>2026-04-06T07:55:11Z</time></trkpt><trkpt lat="44.14542365829667" lon="9.861842364846114"><ele>71.80000000000001</ele><time>2026-04-06T07:55:12Z</time></trkpt><trkpt lat="44.14545561398814" lon="9.861987532825427"><ele>74.2</ele><time>2026-04-06T07:55:13Z</time></trkpt><trkpt lat="44.14547940133524" lon="9.862134029631992"><ele>76.60000000000001</ele><time>2026-04-06T07:55:14Z</time></trkpt><trkpt lat="44.14550944261078" lon="9.862280639257694"><ele>79.0</ele><time>2026-04-06T07:55:15Z</time></trkpt><trkpt lat="44.145547513261214" lon="9.862424430351503"><ele>79.0</ele><time>2026-04-06T07:55:16Z</time></trkpt><trkpt lat="44.14560827798835" lon="9.862573709299834"><ele>79.0</ele><time>2026-04-06T07:55:17Z</time></trkpt><trkpt lat="44.14569439999529" lon="9.862719828561293"><ele>79.0</ele><time>2026-04-06T07:55:18Z</time></trkpt><trkpt lat="44.145808681137545" lon="9.862848584324938"><ele>79.0</ele><time>2026-04-06T07:55:19Z</time></trkpt><trkpt lat="44.14592242489257" lon="9.8629576278876"><ele>79.0</ele><time>2026-04-06T07:55:20Z</time></trkpt><trkpt lat="44.14602731443912" lon="9.863070158336024"><ele>79.0</ele><time>2026-04-06T07:55:21Z</time></trkpt><trkpt lat="44.146105956471445" lon="9.8632057381509"><ele>79.0</ele><time>2026-04-06T07:55:22Z</time></trkpt><trkpt lat="44.14616432166119" lon="9.863355164551077"><ele>79.0</ele><time>2026-04-06T07:55:23Z</time></trkpt><trkpt lat="44.14619737858716" lon="9.86351226836633"><ele>79.0</ele><time>2026-04-06T07:55:24Z</time></trkpt><trkpt lat="44.1462232600016" lon="9.863666475513673"><ele>79.0</ele><time>2026-04-06T07:55:25Z</time></trkpt><trkpt lat="44.1462488510232" lon="9.863818678202296"><ele>79.0</ele><time>2026-04-06T07:55:26Z</time></trkpt><trkpt lat="44.14629060785142" lon="9.863964398639286"><ele>79.0</ele><time>2026-04-06T07:55:27Z</time></trkpt><trkpt lat="44.1463699835709" lon="9.864085612749607"><ele>79.0</ele><time>2026-04-06T07:55:28Z</time></trkpt><trkpt lat="44.146465006571276" lon="9.864190376233195"><ele>79.0</ele><time>2026-04-06T07:55:28.999Z</time></trkpt><trkpt lat="44.146562895926586" lon="9.864301585795205"><ele>79.0</ele><time>2026-04-06T07:55:29.999Z</time></trkpt><trkpt lat="44.14664342539369" lon="9.864430298179714"><ele>79.0</ele><time>2026-04-06T07:55:30.999Z</time></trkpt><trkpt lat="44.14670925255983" lon="9.864572827909763"><ele>77.5</ele><time>2026-04-06T07:55:31.999Z</time></trkpt><trkpt lat="44.14675419062597" lon="9.86472794082361"><ele>76.0</ele><time>2026-04-06T07:55:32.999Z</time></trkpt><trkpt lat="44.146791148144125" lon="9.864886725343679"><ele>74.5</ele><time>2026-04-06T07:55:33.999Z</time></trkpt><trkpt lat="44.14681265568572" lon="9.865057058054315"><ele>73.0</ele><time>2026-04-06T07:55:34.999Z</time></trkpt><trkpt lat="44.14682647689326" lon="9.865229720866937"><ele>73.0</ele><time>2026-04-06T07:55:35.999Z</time></trkpt><trkpt lat="44.14683888911959" lon="9.865398071681202"><ele>73.0</ele><time>2026-04-06T07:55:36.999Z</time></trkpt><trkpt lat="44.14686184211993" lon="9.865558363273243"><ele>73.0</ele><time>2026-04-06T07:55:37.999Z</time></trkpt><trkpt lat="44.14689670604402" lon="9.865715184089396"><ele>73.0</ele><time>2026-04-06T07:55:38.999Z</time></trkpt><trkpt lat="44.146944840187366" lon="9.865873430840841"><ele>73.0</ele><time>2026-04-06T07:55:39.999Z</time></trkpt><trkpt lat="44.14700282752508" lon="9.866027491390494"><ele>73.0</ele><time>2026-04-06T07:55:40.999Z</time></trkpt><trkpt lat="44.147067366306004" lon="9.866183881403225"><ele>73.0</ele><time>2026-04-06T07:55:41.999Z</time></trkpt><trkpt lat="44.147124413177984" lon="9.866342271378505"><ele>73.0</ele><time>2026-04-06T07:55:42.999Z</time></trkpt><trkpt lat="44.14717870805711" lon="9.866498949644082"><ele>73.0</ele><time>2026-04-06T07:55:43.999Z</time></trkpt><trkpt lat="44.14723208668777" lon="9.866648746214286"><ele>73.0</ele><time>2026-04-06T07:55:44.999Z</time></trkpt><trkpt lat="44.14728087658634" lon="9.866790395318032"><ele>73.0</ele><time>2026-04-06T07:55:45.999Z</time></trkpt><trkpt lat="44.1473236112672" lon="9.866938222824633"><ele>73.0</ele><time>2026-04-06T07:55:46.999Z</time></trkpt><trkpt lat="44.14735685595866" lon="9.86709716703115"><ele>72.0</ele><time>2026-04-06T07:55:47.999Z</time></trkpt><trkpt lat="44.14737094945612" lon="9.867264627632927"><ele>71.0</ele><time>2026-04-06T07:55:48.999Z</time></trkpt><trkpt lat="44.14737504030827" lon="9.86743351266371"><ele>70.0</ele><time>2026-04-06T07:55:49.999Z</time></trkpt><trkpt lat="44.14738270247152" lon="9.867606676144922"><ele>69.0</ele><time>2026-04-06T07:55:50.999Z</time></trkpt><trkpt lat="44.14739387232297" lon="9.867772743776408"><ele>65.0</ele><time>2026-04-06T07:55:51.999Z</time></trkpt><trkpt lat="44.147405415898334" lon="9.867934262045576"><ele>61.00000000000001</ele><time>2026-04-06T07:55:52.999Z</time></trkpt><trkpt lat="44.1474154347092" lon="9.868081699312501"><ele>57.0</ele><time>2026-04-06T07:55:53.999Z</time></trkpt><trkpt lat="44.147424448751124" lon="9.8682146274241"><ele>53.0</ele><time>2026-04-06T07:55:54.999Z</time></trkpt><trkpt lat="44.147439888191585" lon="9.868338528018144"><ele>49.0</ele><time>2026-04-06T07:55:55.999Z</time></trkpt><trkpt lat="44.147484482866105" lon="9.868437074610913"><ele>51.75</ele><time>2026-04-06T07:55:56.999Z</time></trkpt><trkpt lat="44.14756021553388" lon="9.868511335965449"><ele>54.5</ele><time>2026-04-06T07:55:57.999Z</time></trkpt><trkpt lat="44.14767055735661" lon="9.868544559715096"><ele>57.25</ele><time>2026-04-06T07:55:58.999Z</time></trkpt><trkpt lat="44.14779381203094" lon="9.868552333434108"><ele>60.0</ele><time>2026-04-06T07:55:59.999Z</time></trkpt><trkpt lat="44.147927944080216" lon="9.868551193542077"><ele>60.0</ele><time>2026-04-06T07:56:00.999Z</time></trkpt><trkpt lat="44.14805776539926" lon="9.86856904891045"><ele>60.0</ele><time>2026-04-06T07:56:01.999Z</time></trkpt><trkpt lat="44.148178584772765" lon="9.868608066491682"><ele>60.0</ele><time>2026-04-06T07:56:02.999Z</time></trkpt><trkpt lat="44.14829103011746" lon="9.868667219084731"><ele>60.0</ele><time>2026-04-06T07:56:03.999Z</time></trkpt><trkpt lat="44.148398924625525" lon="9.868748401758776"><ele>57.25</ele><time>2026-04-06T07:56:04.999Z</time></trkpt><trkpt lat="44.14850983993931" lon="9.86883620879365"><ele>54.5</ele><time>2026-04-06T07:56:05.999Z</time></trkpt><trkpt lat="44.14861804743992" lon="9.868931586852193"><ele>51.75</ele><time>2026-04-06T07:56:06.999Z</time></trkpt><trkpt lat="44.148731280242295" lon="9.869025801161555"><ele>49.0</ele><time>2026-04-06T07:56:07.999Z</time></trkpt><trkpt lat="44.148850822442625" lon="9.869125864042152"><ele>49.0</ele><time>2026-04-06T07:56:08.999Z</time></trkpt><trkpt lat="44.148981153328755" lon="9.869230903406754"><ele>49.0</ele><time>2026-04-06T07:56:09.999Z</time></trkpt><trkpt lat="44.14910967776328" lon="9.869336432976223"><ele>49.0</ele><time>2026-04-06T07:56:10.999Z</time></trkpt><trkpt lat="44.14921858501224" lon="9.869454723831518"><ele>49.0</ele><time>2026-04-06T07:56:11.999Z</time></trkpt><trkpt lat="44.14930443715588" lon="9.869595603657631"><ele>50.25</ele><time>2026-04-06T07:56:12.999Z</time></trkpt><trkpt lat="44.149370975341924" lon="9.869756705941526"><ele>51.5</ele><time>2026-04-06T07:56:13.999Z</time></trkpt><trkpt lat="44.14942919958759" lon="9.869930608988124"><ele>52.75</ele><time>2026-04-06T07:56:14.999Z</time></trkpt><trkpt lat="44.14950185132231" lon="9.870099009784317"><ele>54.0</ele><time>2026-04-06T07:56:15.999Z</time></trkpt><trkpt lat="44.149581560220554" lon="9.870254449871762"><ele>51.75</ele><time>2026-04-06T07:56:16.999Z</time></trkpt><trkpt lat="44.14966786597731" lon="9.87040234666781"><ele>49.5</ele><time>2026-04-06T07:56:17.999Z</time></trkpt><trkpt lat="44.149783815961115" lon="9.870530741200543"><ele>47.25</ele><time>2026-04-06T07:56:18.999Z</time></trkpt><trkpt lat="44.14991814648334" lon="9.870647259484377"><ele>45.0</ele><time>2026-04-06T07:56:19.999Z</time></trkpt><trkpt lat="44.15005329827592" lon="9.870762361436485"><ele>45.0</ele><time>2026-04-06T07:56:20.999Z</time></trkpt><trkpt lat="44.15017966014247" lon="9.870883584689793"><ele>45.0</ele><time>2026-04-06T07:56:21.999Z</time></trkpt><trkpt lat="44.150303309785606" lon="9.871011023032432"><ele>45.0</ele><time>2026-04-06T07:56:22.999Z</time></trkpt><trkpt lat="44.150422442139835" lon="9.871141235372443"><ele>44.333333333333336</ele><time>2026-04-06T07:56:23.999Z</time></trkpt><trkpt lat="44.15054115466476" lon="9.871271820177503"><ele>43.66666666666667</ele><time>2026-04-06T07:56:24.999Z</time></trkpt><trkpt lat="44.15065793903742" lon="9.871404653520617"><ele>43.0</ele><time>2026-04-06T07:56:25.999Z</time></trkpt><trkpt lat="44.15077666058104" lon="9.871534284768861"><ele>43.0</ele><time>2026-04-06T07:56:26.999Z</time></trkpt><trkpt lat="44.1508974482248" lon="9.8716656590157"><ele>43.0</ele><time>2026-04-06T07:56:27.999Z</time></trkpt><trkpt lat="44.15101902650216" lon="9.87179879491045"><ele>43.0</ele><time>2026-04-06T07:56:28.999Z</time></trkpt><trkpt lat="44.1511421860089" lon="9.871934257204735"><ele>45.66666666666667</ele><time>2026-04-06T07:56:29.999Z</time></trkpt><trkpt lat="44.15126109994533" lon="9.872068208802109"><ele>48.333333333333336</ele><time>2026-04-06T07:56:30.999Z</time></trkpt><trkpt lat="44.15137050253494" lon="9.872208559073194"><ele>51.0</ele><time>2026-04-06T07:56:31.999Z</time></trkpt><trkpt lat="44.15145183555534" lon="9.872386027904538"><ele>51.0</ele><time>2026-04-06T07:56:32.999Z</time></trkpt><trkpt lat="44.15150785167082" lon="9.872585087458894"><ele>51.0</ele><time>2026-04-06T07:56:33.999Z</time></trkpt><trkpt lat="44.151564250563425" lon="9.872785522150131"><ele>51.0</ele><time>2026-04-06T07:56:34.999Z</time></trkpt><trkpt lat="44.15161575343586" lon="9.872964341335141"><ele>51.0</ele><time>2026-04-06T07:56:35.999Z</time></trkpt><trkpt lat="44.1516633604747" lon="9.873129019737247"><ele>47.0</ele><time>2026-04-06T07:56:36.999Z</time></trkpt><trkpt lat="44.15171335834112" lon="9.87328843589861"><ele>43.0</ele><time>2026-04-06T07:56:37.999Z</time></trkpt><trkpt lat="44.15176302704" lon="9.87344785422448"><ele>39.0</ele><time>2026-04-06T07:56:38.999Z</time></trkpt><trkpt lat="44.15181294421616" lon="9.873608194919765"><ele>35.0</ele><time>2026-04-06T07:56:39.999Z</time></trkpt><trkpt lat="44.151864738985616" lon="9.873768921012841"><ele>34.6</ele><time>2026-04-06T07:56:40.999Z</time></trkpt><trkpt lat="44.15190525221046" lon="9.873928718881327"><ele>34.2</ele><time>2026-04-06T07:56:41.999Z</time></trkpt><trkpt lat="44.15194670828266" lon="9.874070413960355"><ele>33.8</ele><time>2026-04-06T07:56:42.999Z</time></trkpt><trkpt lat="44.15198912795833" lon="9.87419588439985"><ele>33.4</ele><time>2026-04-06T07:56:43.999Z</time></trkpt><trkpt lat="44.15204334560728" lon="9.874309079063359"><ele>33.0</ele><time>2026-04-06T07:56:44.999Z</time></trkpt><trkpt lat="44.15210687936288" lon="9.874424669194058"><ele>33.0</ele><time>2026-04-06T07:56:45.999Z</time></trkpt><trkpt lat="44.15217939592123" lon="9.874528803741834"><ele>33.0</ele><time>2026-04-06T07:56:46.999Z</time></trkpt><trkpt lat="44.15225647211164" lon="9.874636136369412"><ele>33.0</ele><time>2026-04-06T07:56:47.999Z</time></trkpt><trkpt lat="44.15233371339133" lon="9.874742964805684"><ele>33.0</ele><time>2026-04-06T07:56:49Z</time></trkpt><trkpt lat="44.15240824051809" lon="9.874851582302124"><ele>33.0</ele><time>2026-04-06T07:56:50Z</time></trkpt><trkpt lat="44.15247785411977" lon="9.874942225878874"><ele>32.5</ele><time>2026-04-06T07:56:51Z</time></trkpt><trkpt lat="44.15254461283052" lon="9.875025569662427"><ele>32.0</ele><time>2026-04-06T07:56:52Z</time></trkpt><trkpt lat="44.152603106549215" lon="9.87510848853512"><ele>31.5</ele><time>2026-04-06T07:56:53Z</time></trkpt><trkpt lat="44.15265980246606" lon="9.875181935444246"><ele>31.0</ele><time>2026-04-06T07:56:54Z</time></trkpt><trkpt lat="44.15271606535097" lon="9.875284932797227"><ele>30.5</ele><time>2026-04-06T07:56:55Z</time></trkpt><trkpt lat="44.15277311839914" lon="9.875387893408071"><ele>30.0</ele><time>2026-04-06T07:56:56Z</time></trkpt><trkpt lat="44.152831493746646" lon="9.875504946284696"><ele>30.0</ele><time>2026-04-06T07:56:57Z</time></trkpt><trkpt lat="44.152888039821256" lon="9.875639653926925"><ele>30.0</ele><time>2026-04-06T07:56:58Z</time></trkpt><trkpt lat="44.1529338818256" lon="9.875757670629937"><ele>30.0</ele><time>2026-04-06T07:56:59Z</time></trkpt><trkpt lat="44.152977724702964" lon="9.875885612721127"><ele>30.0</ele><time>2026-04-06T07:57:00Z</time></trkpt><trkpt lat="44.15302069555211" lon="9.876023432995506"><ele>30.0</ele><time>2026-04-06T07:57:01Z</time></trkpt><trkpt lat="44.15306119516579" lon="9.876146301824901"><ele>29.833333333333332</ele><time>2026-04-06T07:57:02Z</time></trkpt><trkpt lat="44.15309624811712" lon="9.876271343275151"><ele>29.666666666666664</ele><time>2026-04-06T07:57:03Z</time></trkpt><trkpt lat="44.15312812725736" lon="9.876372045894692"><ele>29.5</ele><time>2026-04-06T07:57:04Z</time></trkpt><trkpt lat="44.15316546036278" lon="9.876489832319958"><ele>29.333333333333332</ele><time>2026-04-06T07:57:05Z</time></trkpt><trkpt lat="44.15320046287141" lon="9.876602915312208"><ele>29.166666666666664</ele><time>2026-04-06T07:57:06Z</time></trkpt><trkpt lat="44.15323388961914" lon="9.876707321354623"><ele>29.0</ele><time>2026-04-06T07:57:07Z</time></trkpt><trkpt lat="44.15326411985651" lon="9.87680993015457"><ele>29.0</ele><time>2026-04-06T07:57:08Z</time></trkpt><trkpt lat="44.15329892228467" lon="9.876929214312502"><ele>29.0</ele><time>2026-04-06T07:57:09Z</time></trkpt><trkpt lat="44.15334374771" lon="9.877052964460502"><ele>29.0</ele><time>2026-04-06T07:57:10Z</time></trkpt><trkpt lat="44.15339032833612" lon="9.877189127382572"><ele>29.0</ele><time>2026-04-06T07:57:11Z</time></trkpt><trkpt lat="44.15343296500984" lon="9.877324087742403"><ele>29.0</ele><time>2026-04-06T07:57:12Z</time></trkpt><trkpt lat="44.15346953075204" lon="9.877447660115296"><ele>29.0</ele><time>2026-04-06T07:57:13Z</time></trkpt><trkpt lat="44.15351098327962" lon="9.877568834809034"><ele>29.0</ele><time>2026-04-06T07:57:14Z</time></trkpt><trkpt lat="44.15355436592376" lon="9.877698836207502"><ele>29.0</ele><time>2026-04-06T07:57:15Z</time></trkpt><trkpt lat="44.15359955864534" lon="9.877835179316742"><ele>29.0</ele><time>2026-04-06T07:57:16Z</time></trkpt><trkpt lat="44.1536488262609" lon="9.87797285381155"><ele>29.0</ele><time>2026-04-06T07:57:17Z</time></trkpt><trkpt lat="44.15371695436732" lon="9.878111884997693"><ele>28.5</ele><time>2026-04-06T07:57:18Z</time></trkpt><trkpt lat="44.15380602391391" lon="9.878242023713248"><ele>28.0</ele><time>2026-04-06T07:57:19Z</time></trkpt><trkpt lat="44.15390701535374" lon="9.878398700809646"><ele>27.5</ele><time>2026-04-06T07:57:20Z</time></trkpt><trkpt lat="44.15401270906269" lon="9.878535850204118"><ele>27.0</ele><time>2026-04-06T07:57:21Z</time></trkpt><trkpt lat="44.15416840850863" lon="9.878734491156145"><ele>25.75</ele><time>2026-04-06T07:57:22Z</time></trkpt><trkpt lat="44.154300098155396" lon="9.87890250610606"><ele>24.5</ele><time>2026-04-06T07:57:23Z</time></trkpt><trkpt lat="44.15441278591465" lon="9.87902302040447"><ele>23.25</ele><time>2026-04-06T07:57:24Z</time></trkpt><trkpt lat="44.15447785786074" lon="9.879131751190174"><ele>22.0</ele><time>2026-04-06T07:57:25Z</time></trkpt><trkpt lat="44.15453501310274" lon="9.879205518251814"><ele>22.0</ele><time>2026-04-06T07:57:26Z</time></trkpt><trkpt lat="44.15459425714037" lon="9.879281981211367"><ele>22.0</ele><time>2026-04-06T07:57:28Z</time></trkpt><trkpt lat="44.15467851596562" lon="9.879378033214818"><ele>22.0</ele><time>2026-04-06T07:57:31Z</time></trkpt><trkpt lat="44.154799544402344" lon="9.87933013587643"><ele>22.0</ele><time>2026-04-06T07:57:33Z</time></trkpt><trkpt lat="44.15485596116283" lon="9.87923935023503"><ele>22.0</ele><time>2026-04-06T07:57:34Z</time></trkpt><trkpt lat="44.15493617167496" lon="9.879142560360634"><ele>21.75</ele><time>2026-04-06T07:57:36Z</time></trkpt><trkpt lat="44.155050342987394" lon="9.879012039995029"><ele>21.5</ele><time>2026-04-06T07:57:38Z</time></trkpt><trkpt lat="44.155130106198904" lon="9.878920854669326"><ele>21.25</ele><time>2026-04-06T07:57:39Z</time></trkpt><trkpt lat="44.15521781766149" lon="9.878820247963905"><ele>21.0</ele><time>2026-04-06T07:57:40Z</time></trkpt><trkpt lat="44.1553186667508" lon="9.878704815349952"><ele>21.0</ele><time>2026-04-06T07:57:40.999Z</time></trkpt><trkpt lat="44.15543521096831" lon="9.878571497894606"><ele>21.0</ele><time>2026-04-06T07:57:41.999Z</time></trkpt><trkpt lat="44.15555645607785" lon="9.878432391365678"><ele>21.0</ele><time>2026-04-06T07:57:42.999Z</time></trkpt><trkpt lat="44.1556614131931" lon="9.878270228143299"><ele>22.0</ele><time>2026-04-06T07:57:43.999Z</time></trkpt><trkpt lat="44.15578980335928" lon="9.878123138460051"><ele>23.0</ele><time>2026-04-06T07:57:44.999Z</time></trkpt><trkpt lat="44.155918286501176" lon="9.877980297100494"><ele>24.0</ele><time>2026-04-06T07:57:45.999Z</time></trkpt><trkpt lat="44.156036306616286" lon="9.877843769790571"><ele>24.0</ele><time>2026-04-06T07:57:46.999Z</time></trkpt><trkpt lat="44.15615047420136" lon="9.877711480202281"><ele>24.0</ele><time>2026-04-06T07:57:47.999Z</time></trkpt><trkpt lat="44.15626603305556" lon="9.877580140800086"><ele>24.0</ele><time>2026-04-06T07:57:48.999Z</time></trkpt><trkpt lat="44.15638099085316" lon="9.877444556829564"><ele>24.0</ele><time>2026-04-06T07:57:49.999Z</time></trkpt><trkpt lat="44.15651832679734" lon="9.877323405220292"><ele>23.0</ele><time>2026-04-06T07:57:50.999Z</time></trkpt><trkpt lat="44.15665579531245" lon="9.877166056065251"><ele>22.0</ele><time>2026-04-06T07:57:51.999Z</time></trkpt><trkpt lat="44.156814916854906" lon="9.876982970271131"><ele>21.0</ele><time>2026-04-06T07:57:52.999Z</time></trkpt><trkpt lat="44.15699162965625" lon="9.87677867115066"><ele>21.333333333333332</ele><time>2026-04-06T07:57:53.999Z</time></trkpt><trkpt lat="44.157151888605654" lon="9.876592449100334"><ele>21.666666666666664</ele><time>2026-04-06T07:57:54.999Z</time></trkpt><trkpt lat="44.157298500503465" lon="9.876421849164714"><ele>22.0</ele><time>2026-04-06T07:57:55.999Z</time></trkpt><trkpt lat="44.15743945766898" lon="9.876258429887843"><ele>22.0</ele><time>2026-04-06T07:57:56.999Z</time></trkpt><trkpt lat="44.157588351435955" lon="9.876085864131774"><ele>22.0</ele><time>2026-04-06T07:57:57.999Z</time></trkpt><trkpt lat="44.15773561648201" lon="9.875915185958908"><ele>22.0</ele><time>2026-04-06T07:57:58.999Z</time></trkpt><trkpt lat="44.157865783532934" lon="9.875765190291638"><ele>22.0</ele><time>2026-04-06T07:57:59.999Z</time></trkpt><trkpt lat="44.15797671611567" lon="9.875637407669762"><ele>22.0</ele><time>2026-04-06T07:58:00.999Z</time></trkpt><trkpt lat="44.15807274712026" lon="9.875526790201869"><ele>22.0</ele><time>2026-04-06T07:58:01.999Z</time></trkpt><trkpt lat="44.15815948867372" lon="9.875426848220553"><ele>22.0</ele><time>2026-04-06T07:58:02.999Z</time></trkpt><trkpt lat="44.15824124319993" lon="9.875331742780583"><ele>22.0</ele><time>2026-04-06T07:58:03.999Z</time></trkpt><trkpt lat="44.15832078870056" lon="9.875238550021074"><ele>22.0</ele><time>2026-04-06T07:58:04.999Z</time></trkpt><trkpt lat="44.15840425260285" lon="9.875140630543012"><ele>22.0</ele><time>2026-04-06T07:58:05.999Z</time></trkpt><trkpt lat="44.15847058317139" lon="9.875035403787773"><ele>22.0</ele><time>2026-04-06T07:58:06.999Z</time></trkpt><trkpt lat="44.158548371776575" lon="9.874947230288418"><ele>22.0</ele><time>2026-04-06T07:58:07.999Z</time></trkpt><trkpt lat="44.15862557435383" lon="9.874859954799735"><ele>22.166666666666664</ele><time>2026-04-06T07:58:08.999Z</time></trkpt><trkpt lat="44.158693739284054" lon="9.87478345416032"><ele>22.333333333333332</ele><time>2026-04-06T07:58:09.999Z</time></trkpt><trkpt lat="44.15875722761693" lon="9.874713343855527"><ele>22.5</ele><time>2026-04-06T07:58:10.999Z</time></trkpt><trkpt lat="44.15881860586438" lon="9.8746422349755"><ele>22.666666666666668</ele><time>2026-04-06T07:58:11.999Z</time></trkpt><trkpt lat="44.15888518780301" lon="9.874572073344865"><ele>22.833333333333336</ele><time>2026-04-06T07:58:12.999Z</time></trkpt><trkpt lat="44.158958259786665" lon="9.874511082322016"><ele>23.0</ele><time>2026-04-06T07:58:13.999Z</time></trkpt><trkpt lat="44.15903098007504" lon="9.87446322476818"><ele>23.5</ele><time>2026-04-06T07:58:14.999Z</time></trkpt><trkpt lat="44.15909585866372" lon="9.874432491083805"><ele>24.0</ele><time>2026-04-06T07:58:15.999Z</time></trkpt><trkpt lat="44.159167102336596" lon="9.874417121439963"><ele>24.5</ele><time>2026-04-06T07:58:16.999Z</time></trkpt><trkpt lat="44.159243772849976" lon="9.87443285927943"><ele>25.0</ele><time>2026-04-06T07:58:17.999Z</time></trkpt><trkpt lat="44.159321933322104" lon="9.874465679626475"><ele>25.499999999999996</ele><time>2026-04-06T07:58:18.999Z</time></trkpt><trkpt lat="44.15939641196135" lon="9.874526654215494"><ele>26.0</ele><time>2026-04-06T07:58:19.999Z</time></trkpt><trkpt lat="44.15946776134676" lon="9.874603651307565"><ele>26.0</ele><time>2026-04-06T07:58:20.999Z</time></trkpt><trkpt lat="44.15953890721671" lon="9.874703657822336"><ele>26.0</ele><time>2026-04-06T07:58:21.999Z</time></trkpt><trkpt lat="44.15960999957081" lon="9.874821258247096"><ele>26.0</ele><time>2026-04-06T07:58:22.999Z</time></trkpt><trkpt lat="44.15968722559765" lon="9.874940334938048"><ele>26.0</ele><time>2026-04-06T07:58:23.999Z</time></trkpt><trkpt lat="44.15975704511557" lon="9.875062043035665"><ele>26.0</ele><time>2026-04-06T07:58:24.999Z</time></trkpt><trkpt lat="44.15982131214381" lon="9.875181558086494"><ele>25.25</ele><time>2026-04-06T07:58:25.999Z</time></trkpt><trkpt lat="44.159889022832395" lon="9.875293780900682"><ele>24.5</ele><time>2026-04-06T07:58:26.999Z</time></trkpt><trkpt lat="44.15995962995509" lon="9.875410413505543"><ele>23.75</ele><time>2026-04-06T07:58:27.999Z</time></trkpt><trkpt lat="44.16003429223046" lon="9.875533338279627"><ele>23.0</ele><time>2026-04-06T07:58:28.999Z</time></trkpt><trkpt lat="44.16010756051351" lon="9.875665849642568"><ele>23.0</ele><time>2026-04-06T07:58:29.999Z</time></trkpt><trkpt lat="44.160186289770024" lon="9.875795547171752"><ele>23.0</ele><time>2026-04-06T07:58:30.999Z</time></trkpt><trkpt lat="44.160268382219286" lon="9.875935659878762"><ele>23.0</ele><time>2026-04-06T07:58:31.999Z</time></trkpt><trkpt lat="44.160356507840646" lon="9.876082961316747"><ele>23.0</ele><time>2026-04-06T07:58:32.999Z</time></trkpt><trkpt lat="44.160451976988206" lon="9.876238715087183"><ele>22.666666666666668</ele><time>2026-04-06T07:58:33.999Z</time></trkpt><trkpt lat="44.16056283285468" lon="9.876407639802581"><ele>22.333333333333332</ele><time>2026-04-06T07:58:34.999Z</time></trkpt><trkpt lat="44.16066964321355" lon="9.876618943385099"><ele>22.0</ele><time>2026-04-06T07:58:35.999Z</time></trkpt><trkpt lat="44.160803822108974" lon="9.876845561123702"><ele>21.0</ele><time>2026-04-06T07:58:36.999Z</time></trkpt><trkpt lat="44.160928815040876" lon="9.877036947368937"><ele>20.0</ele><time>2026-04-06T07:58:37.999Z</time></trkpt><trkpt lat="44.16102173544401" lon="9.877202893080629"><ele>19.0</ele><time>2026-04-06T07:58:38.999Z</time></trkpt><trkpt lat="44.16110739086067" lon="9.877347578512827"><ele>19.0</ele><time>2026-04-06T07:58:39.999Z</time></trkpt><trkpt lat="44.1611886332445" lon="9.877484391237216"><ele>19.0</ele><time>2026-04-06T07:58:40.999Z</time></trkpt><trkpt lat="44.161266769588785" lon="9.877620000091015"><ele>19.0</ele><time>2026-04-06T07:58:41.999Z</time></trkpt><trkpt lat="44.16134652798794" lon="9.87774961663821"><ele>19.0</ele><time>2026-04-06T07:58:42.999Z</time></trkpt><trkpt lat="44.1614243897187" lon="9.877880283676019"><ele>18.75</ele><time>2026-04-06T07:58:43.999Z</time></trkpt><trkpt lat="44.161498203838235" lon="9.878009549652923"><ele>18.5</ele><time>2026-04-06T07:58:44.999Z</time></trkpt><trkpt lat="44.161574137032645" lon="9.878138846264905"><ele>18.25</ele><time>2026-04-06T07:58:45.999Z</time></trkpt><trkpt lat="44.161650129951184" lon="9.878266801518889"><ele>18.0</ele><time>2026-04-06T07:58:46.999Z</time></trkpt><trkpt lat="44.161728095869236" lon="9.878395306142213"><ele>19.0</ele><time>2026-04-06T07:58:47.999Z</time></trkpt><trkpt lat="44.16181248542184" lon="9.878533143022336"><ele>20.0</ele><time>2026-04-06T07:58:48.999Z</time></trkpt><trkpt lat="44.16189571979763" lon="9.878675417037764"><ele>21.0</ele><time>2026-04-06T07:58:49.999Z</time></trkpt><trkpt lat="44.16197370079685" lon="9.878808174563593"><ele>22.0</ele><time>2026-04-06T07:58:50.999Z</time></trkpt><trkpt lat="44.16204715086897" lon="9.87893415156168"><ele>22.0</ele><time>2026-04-06T07:58:51.999Z</time></trkpt><trkpt lat="44.162119772521656" lon="9.879056059242984"><ele>22.0</ele><time>2026-04-06T07:58:52.999Z</time></trkpt><trkpt lat="44.16218285068336" lon="9.879163585488971"><ele>22.0</ele><time>2026-04-06T07:58:53.999Z</time></trkpt><trkpt lat="44.16224739002048" lon="9.879270271662383"><ele>22.0</ele><time>2026-04-06T07:58:55Z</time></trkpt><trkpt lat="44.1623090795615" lon="9.87937550385899"><ele>22.0</ele><time>2026-04-06T07:58:56Z</time></trkpt><trkpt lat="44.16237172955707" lon="9.879480320626069"><ele>22.200000000000003</ele><time>2026-04-06T07:58:57Z</time></trkpt><trkpt lat="44.16243406554382" lon="9.87958183723764"><ele>22.4</ele><time>2026-04-06T07:58:58Z</time></trkpt><trkpt lat="44.162493342487366" lon="9.87967869554066"><ele>22.6</ele><time>2026-04-06T07:58:59Z</time></trkpt><trkpt lat="44.16255471734265" lon="9.879781979829378"><ele>22.799999999999997</ele><time>2026-04-06T07:59:00Z</time></trkpt><trkpt lat="44.162617074884544" lon="9.879884702735225"><ele>23.0</ele><time>2026-04-06T07:59:01Z</time></trkpt><trkpt lat="44.16268301128548" lon="9.8799956180776"><ele>23.0</ele><time>2026-04-06T07:59:02Z</time></trkpt><trkpt lat="44.162753167855975" lon="9.880110876657586"><ele>23.0</ele><time>2026-04-06T07:59:03Z</time></trkpt><trkpt lat="44.16283029814095" lon="9.880233253142258"><ele>23.0</ele><time>2026-04-06T07:59:04Z</time></trkpt><trkpt lat="44.16291234980609" lon="9.880372005413411"><ele>23.0</ele><time>2026-04-06T07:59:05Z</time></trkpt><trkpt lat="44.162996210177866" lon="9.8805140898171"><ele>23.0</ele><time>2026-04-06T07:59:06Z</time></trkpt><trkpt lat="44.163074727097275" lon="9.880646653279634"><ele>23.0</ele><time>2026-04-06T07:59:07Z</time></trkpt><trkpt lat="44.16315307772295" lon="9.880778226477407"><ele>23.0</ele><time>2026-04-06T07:59:08Z</time></trkpt><trkpt lat="44.16323199001692" lon="9.880911571133836"><ele>23.0</ele><time>2026-04-06T07:59:09Z</time></trkpt><trkpt lat="44.163313586737765" lon="9.881048629131612"><ele>23.0</ele><time>2026-04-06T07:59:10Z</time></trkpt><trkpt lat="44.16340432589941" lon="9.881199902595949"><ele>23.0</ele><time>2026-04-06T07:59:11Z</time></trkpt><trkpt lat="44.16349472565942" lon="9.881348811727555"><ele>23.0</ele><time>2026-04-06T07:59:12Z</time></trkpt><trkpt lat="44.16357232885735" lon="9.881485956712533"><ele>23.0</ele><time>2026-04-06T07:59:13Z</time></trkpt><trkpt lat="44.16363716749928" lon="9.881614908369924"><ele>23.0</ele><time>2026-04-06T07:59:14Z</time></trkpt><trkpt lat="44.16368037996403" lon="9.881748968133357"><ele>23.0</ele><time>2026-04-06T07:59:15Z</time></trkpt><trkpt lat="44.163694777366594" lon="9.881901955561693"><ele>23.0</ele><time>2026-04-06T07:59:16Z</time></trkpt><trkpt lat="44.16370384146325" lon="9.882051308499012"><ele>23.0</ele><time>2026-04-06T07:59:17Z</time></trkpt><trkpt lat="44.16374130771941" lon="9.882167868614008"><ele>23.0</ele><time>2026-04-06T07:59:18Z</time></trkpt><trkpt lat="44.16380117314177" lon="9.882256084366924"><ele>23.0</ele><time>2026-04-06T07:59:19Z</time></trkpt><trkpt lat="44.16388256818175" lon="9.88231825504287"><ele>23.0</ele><time>2026-04-06T07:59:20Z</time></trkpt><trkpt lat="44.16398610161558" lon="9.882359026716209"><ele>23.0</ele><time>2026-04-06T07:59:21Z</time></trkpt><trkpt lat="44.164092022471" lon="9.88238221861937"><ele>23.0</ele><time>2026-04-06T07:59:22Z</time></trkpt><trkpt lat="44.16418284234864" lon="9.882503387946526"><ele>23.0</ele><time>2026-04-06T07:59:23Z</time></trkpt><trkpt lat="44.16426546885896" lon="9.882676165446343"><ele>23.666666666666668</ele><time>2026-04-06T07:59:24Z</time></trkpt><trkpt lat="44.16438219990822" lon="9.882855045629958"><ele>24.333333333333336</ele><time>2026-04-06T07:59:25Z</time></trkpt><trkpt lat="44.164495861999164" lon="9.883054721516823"><ele>25.0</ele><time>2026-04-06T07:59:26Z</time></trkpt><trkpt lat="44.16460413703407" lon="9.883231934174432"><ele>25.0</ele><time>2026-04-06T07:59:27Z</time></trkpt><trkpt lat="44.16470975343192" lon="9.883416637690091"><ele>25.0</ele><time>2026-04-06T07:59:28Z</time></trkpt><trkpt lat="44.16482139742057" lon="9.883604891911501"><ele>25.0</ele><time>2026-04-06T07:59:29Z</time></trkpt><trkpt lat="44.16493581322392" lon="9.883798669466703"><ele>25.666666666666668</ele><time>2026-04-06T07:59:30Z</time></trkpt><trkpt lat="44.16504743093702" lon="9.88398948439601"><ele>26.333333333333336</ele><time>2026-04-06T07:59:31Z</time></trkpt><trkpt lat="44.165155465878" lon="9.884167724563607"><ele>27.0</ele><time>2026-04-06T07:59:32Z</time></trkpt><trkpt lat="44.16525884958972" lon="9.884342735189882"><ele>27.0</ele><time>2026-04-06T07:59:33Z</time></trkpt><trkpt lat="44.16535493964667" lon="9.884498547441115"><ele>27.0</ele><time>2026-04-06T07:59:34Z</time></trkpt><trkpt lat="44.16544420840973" lon="9.884649463813057"><ele>27.0</ele><time>2026-04-06T07:59:35Z</time></trkpt><trkpt lat="44.165535917958834" lon="9.884791269516974"><ele>27.0</ele><time>2026-04-06T07:59:36Z</time></trkpt><trkpt lat="44.16562222926966" lon="9.884933106538124"><ele>27.400000000000002</ele><time>2026-04-06T07:59:37Z</time></trkpt><trkpt lat="44.16570223921786" lon="9.885063207255252"><ele>27.800000000000004</ele><time>2026-04-06T07:59:38Z</time></trkpt><trkpt lat="44.16576810707972" lon="9.88517735033959"><ele>28.2</ele><time>2026-04-06T07:59:39Z</time></trkpt><trkpt lat="44.16582444546872" lon="9.885273662439046"><ele>28.6</ele><time>2026-04-06T07:59:40Z</time></trkpt><trkpt lat="44.16587761667739" lon="9.885365684222226"><ele>29.0</ele><time>2026-04-06T07:59:40.999Z</time></trkpt><trkpt lat="44.1659369516916" lon="9.885466142606266"><ele>29.0</ele><time>2026-04-06T07:59:41.999Z</time></trkpt><trkpt lat="44.16599792479603" lon="9.885571575678304"><ele>29.0</ele><time>2026-04-06T07:59:42.999Z</time></trkpt><trkpt lat="44.166060520705685" lon="9.885681249793686"><ele>29.0</ele><time>2026-04-06T07:59:43.999Z</time></trkpt><trkpt lat="44.16613123599647" lon="9.885790752801924"><ele>29.0</ele><time>2026-04-06T07:59:44.999Z</time></trkpt><trkpt lat="44.166198030644125" lon="9.885895540510909"><ele>29.0</ele><time>2026-04-06T07:59:45.999Z</time></trkpt><trkpt lat="44.16625307964364" lon="9.885992283145754"><ele>28.999999999999996</ele><time>2026-04-06T07:59:46.999Z</time></trkpt><trkpt lat="44.16630352069594" lon="9.886078811991016"><ele>29.0</ele><time>2026-04-06T07:59:47.999Z</time></trkpt><trkpt lat="44.16635548969422" lon="9.886160755427625"><ele>29.0</ele><time>2026-04-06T07:59:48.999Z</time></trkpt><trkpt lat="44.166410303553874" lon="9.886249903407784"><ele>29.0</ele><time>2026-04-06T07:59:49.999Z</time></trkpt><trkpt lat="44.16646664495678" lon="9.88634712658943"><ele>28.999999999999996</ele><time>2026-04-06T07:59:50.999Z</time></trkpt><trkpt lat="44.16652969153659" lon="9.886441100698907"><ele>29.0</ele><time>2026-04-06T07:59:51.999Z</time></trkpt><trkpt lat="44.16660228845083" lon="9.886526706198902"><ele>29.166666666666664</ele><time>2026-04-06T07:59:52.999Z</time></trkpt><trkpt lat="44.16667109311017" lon="9.886596274485038"><ele>29.333333333333332</ele><time>2026-04-06T07:59:53.999Z</time></trkpt><trkpt lat="44.16673024073295" lon="9.886657981268176"><ele>29.5</ele><time>2026-04-06T07:59:54.999Z</time></trkpt><trkpt lat="44.166789000829965" lon="9.886732974329442"><ele>29.666666666666664</ele><time>2026-04-06T07:59:55.999Z</time></trkpt><trkpt lat="44.166842671391294" lon="9.886813199554123"><ele>29.833333333333332</ele><time>2026-04-06T07:59:56.999Z</time></trkpt><trkpt lat="44.166887571205386" lon="9.886905417854322"><ele>30.0</ele><time>2026-04-06T07:59:57.999Z</time></trkpt><trkpt lat="44.166929757188" lon="9.887002503833392"><ele>30.0</ele><time>2026-04-06T07:59:58.999Z</time></trkpt><trkpt lat="44.16697239486364" lon="9.887099389905726"><ele>30.0</ele><time>2026-04-06T07:59:59.999Z</time></trkpt><trkpt lat="44.167017398264754" lon="9.887200456904612"><ele>30.0</ele><time>2026-04-06T08:00:00.999Z</time></trkpt><trkpt lat="44.167056910832336" lon="9.887289773397796"><ele>30.0</ele><time>2026-04-06T08:00:01.999Z</time></trkpt><trkpt lat="44.1670986689889" lon="9.887378815228791"><ele>30.0</ele><time>2026-04-06T08:00:02.999Z</time></trkpt><trkpt lat="44.167134852397055" lon="9.887458072656242"><ele>30.0</ele><time>2026-04-06T08:00:03.999Z</time></trkpt><trkpt lat="44.16717173513359" lon="9.887542674483942"><ele>30.0</ele><time>2026-04-06T08:00:04.999Z</time></trkpt><trkpt lat="44.16720763433056" lon="9.887630397788607"><ele>30.0</ele><time>2026-04-06T08:00:05.999Z</time></trkpt><trkpt lat="44.167245241572694" lon="9.887710381599591"><ele>30.0</ele><time>2026-04-06T08:00:06.999Z</time></trkpt><trkpt lat="44.167299455548836" lon="9.887840897221865"><ele>30.0</ele><time>2026-04-06T08:00:08.999Z</time></trkpt><trkpt lat="44.1673440316605" lon="9.887943552079314"><ele>30.0</ele><time>2026-04-06T08:00:10.999Z</time></trkpt><trkpt lat="44.16738092143741" lon="9.888072374715943"><ele>30.0</ele><time>2026-04-06T08:00:12.999Z</time></trkpt><trkpt lat="44.16742388082566" lon="9.888210279060486"><ele>30.166666666666668</ele><time>2026-04-06T08:00:14.999Z</time></trkpt><trkpt lat="44.16747035582836" lon="9.888270889304305"><ele>30.333333333333336</ele><time>2026-04-06T08:00:15.999Z</time></trkpt><trkpt lat="44.16752224682129" lon="9.888335749493313"><ele>30.5</ele><time>2026-04-06T08:00:16.999Z</time></trkpt><trkpt lat="44.167575204746115" lon="9.888426168646948"><ele>30.666666666666668</ele><time>2026-04-06T08:00:17.999Z</time></trkpt><trkpt lat="44.16762396261862" lon="9.888530890000872"><ele>30.833333333333336</ele><time>2026-04-06T08:00:18.999Z</time></trkpt><trkpt lat="44.16766579219235" lon="9.888632606819229"><ele>31.0</ele><time>2026-04-06T08:00:19.999Z</time></trkpt><trkpt lat="44.16771305552012" lon="9.888734591037688"><ele>31.0</ele><time>2026-04-06T08:00:20.999Z</time></trkpt><trkpt lat="44.16776164724085" lon="9.888850883984393"><ele>31.0</ele><time>2026-04-06T08:00:21.999Z</time></trkpt><trkpt lat="44.167818401087914" lon="9.888970197023712"><ele>31.0</ele><time>2026-04-06T08:00:22.999Z</time></trkpt><trkpt lat="44.167871560015044" lon="9.889104111912616"><ele>31.0</ele><time>2026-04-06T08:00:23.999Z</time></trkpt><trkpt lat="44.16790702107746" lon="9.889246651537757"><ele>31.0</ele><time>2026-04-06T08:00:24.999Z</time></trkpt><trkpt lat="44.16792906151669" lon="9.889385080414218"><ele>30.0</ele><time>2026-04-06T08:00:25.999Z</time></trkpt><trkpt lat="44.16793621179479" lon="9.889506569902096"><ele>29.0</ele><time>2026-04-06T08:00:26.999Z</time></trkpt><trkpt lat="44.16794012150168" lon="9.88961036660228"><ele>28.0</ele><time>2026-04-06T08:00:27.999Z</time></trkpt><trkpt lat="44.167939644261175" lon="9.889704335663444"><ele>27.0</ele><time>2026-04-06T08:00:28.999Z</time></trkpt><trkpt lat="44.16792249705526" lon="9.889874366239717"><ele>26.0</ele><time>2026-04-06T08:00:30.999Z</time></trkpt><trkpt lat="44.16787217107158" lon="9.890026513070243"><ele>25.999999999999996</ele><time>2026-04-06T08:00:32.999Z</time></trkpt><trkpt lat="44.16784975480188" lon="9.890144610554234"><ele>26.0</ele><time>2026-04-06T08:00:34.999Z</time></trkpt><trkpt lat="44.16790159409036" lon="9.890275130094523"><ele>26.0</ele><time>2026-04-06T08:00:36.999Z</time></trkpt><trkpt lat="44.16793891643455" lon="9.890350255040532"><ele>26.0</ele><time>2026-04-06T08:00:37.999Z</time></trkpt><trkpt lat="44.167954701336015" lon="9.89044741700765"><ele>25.999999999999996</ele><time>2026-04-06T08:00:38.999Z</time></trkpt><trkpt lat="44.16795272867185" lon="9.890553428897437"><ele>26.0</ele><time>2026-04-06T08:00:39.999Z</time></trkpt><trkpt lat="44.1679568858711" lon="9.890683638842267"><ele>26.0</ele><time>2026-04-06T08:00:40.999Z</time></trkpt><trkpt lat="44.16795664720054" lon="9.890897137151963"><ele>26.0</ele><time>2026-04-06T08:00:41.999Z</time></trkpt><trkpt lat="44.167974338172485" lon="9.891135330494523"><ele>26.0</ele><time>2026-04-06T08:00:42.999Z</time></trkpt><trkpt lat="44.16796720096678" lon="9.89138450141824"><ele>26.0</ele><time>2026-04-06T08:00:43.999Z</time></trkpt><trkpt lat="44.167963950035904" lon="9.8916111810662"><ele>26.0</ele><time>2026-04-06T08:00:44.999Z</time></trkpt><trkpt lat="44.1679666678275" lon="9.89185928110539"><ele>26.0</ele><time>2026-04-06T08:00:45.999Z</time></trkpt><trkpt lat="44.16797010039453" lon="9.8921023363056"><ele>25.333333333333332</ele><time>2026-04-06T08:00:46.999Z</time></trkpt><trkpt lat="44.16797231813448" lon="9.892327371746498"><ele>24.666666666666664</ele><time>2026-04-06T08:00:47.999Z</time></trkpt><trkpt lat="44.16797554851045" lon="9.892551232952712"><ele>24.0</ele><time>2026-04-06T08:00:48.999Z</time></trkpt><trkpt lat="44.16797714458345" lon="9.892780508549961"><ele>24.0</ele><time>2026-04-06T08:00:49.999Z</time></trkpt><trkpt lat="44.167978820600084" lon="9.893000623991759"><ele>24.0</ele><time>2026-04-06T08:00:50.999Z</time></trkpt><trkpt lat="44.167982661252964" lon="9.893226328699065"><ele>24.0</ele><time>2026-04-06T08:00:51.999Z</time></trkpt><trkpt lat="44.167988063154816" lon="9.893456695079864"><ele>23.666666666666668</ele><time>2026-04-06T08:00:52.999Z</time></trkpt><trkpt lat="44.16799344347719" lon="9.893696441775212"><ele>23.333333333333336</ele><time>2026-04-06T08:00:53.999Z</time></trkpt><trkpt lat="44.16800611685227" lon="9.893956900335812"><ele>23.0</ele><time>2026-04-06T08:00:54.999Z</time></trkpt><trkpt lat="44.16802604926384" lon="9.894224340991563"><ele>23.333333333333336</ele><time>2026-04-06T08:00:55.999Z</time></trkpt><trkpt lat="44.168053545158884" lon="9.894473924857154"><ele>23.666666666666668</ele><time>2026-04-06T08:00:56.999Z</time></trkpt><trkpt lat="44.16808446836226" lon="9.894717885605102"><ele>24.0</ele><time>2026-04-06T08:00:57.999Z</time></trkpt><trkpt lat="44.16812045518577" lon="9.894965171045834"><ele>25.333333333333336</ele><time>2026-04-06T08:00:58.999Z</time></trkpt><trkpt lat="44.168177418445154" lon="9.895214250559398"><ele>26.666666666666668</ele><time>2026-04-06T08:00:59.999Z</time></trkpt><trkpt lat="44.168258532221486" lon="9.895463948307631"><ele>28.0</ele><time>2026-04-06T08:01:01Z</time></trkpt><trkpt lat="44.168355467703485" lon="9.895708492344212"><ele>28.0</ele><time>2026-04-06T08:01:02Z</time></trkpt><trkpt lat="44.16844412146398" lon="9.895943814480734"><ele>28.0</ele><time>2026-04-06T08:01:03Z</time></trkpt><trkpt lat="44.16852240300709" lon="9.896165955341933"><ele>28.0</ele><time>2026-04-06T08:01:04Z</time></trkpt><trkpt lat="44.16858059795724" lon="9.896390035455816"><ele>28.0</ele><time>2026-04-06T08:01:05Z</time></trkpt><trkpt lat="44.16861498554441" lon="9.896635920870853"><ele>28.0</ele><time>2026-04-06T08:01:06Z</time></trkpt><trkpt lat="44.168629589749386" lon="9.896886088275995"><ele>28.0</ele><time>2026-04-06T08:01:07Z</time></trkpt><trkpt lat="44.16863337408593" lon="9.897142098809528"><ele>28.333333333333336</ele><time>2026-04-06T08:01:08Z</time></trkpt><trkpt lat="44.16865153348856" lon="9.897388058236274"><ele>28.666666666666664</ele><time>2026-04-06T08:01:09Z</time></trkpt><trkpt lat="44.16870180210695" lon="9.897632084380271"><ele>29.0</ele><time>2026-04-06T08:01:10Z</time></trkpt><trkpt lat="44.168779631298385" lon="9.897870198847938"><ele>29.0</ele><time>2026-04-06T08:01:11Z</time></trkpt><trkpt lat="44.168868524279766" lon="9.898102147842675"><ele>29.0</ele><time>2026-04-06T08:01:12Z</time></trkpt><trkpt lat="44.16897254310156" lon="9.898320045592556"><ele>29.0</ele><time>2026-04-06T08:01:13Z</time></trkpt><trkpt lat="44.16909253807927" lon="9.89851882258989"><ele>31.333333333333332</ele><time>2026-04-06T08:01:14Z</time></trkpt><trkpt lat="44.169223122377836" lon="9.898707644783547"><ele>33.666666666666664</ele><time>2026-04-06T08:01:15Z</time></trkpt><trkpt lat="44.16935556180425" lon="9.898886314773318"><ele>36.0</ele><time>2026-04-06T08:01:16Z</time></trkpt><trkpt lat="44.16948081478148" lon="9.899059158305361"><ele>36.0</ele><time>2026-04-06T08:01:17Z</time></trkpt><trkpt lat="44.16961994742988" lon="9.89921116784963"><ele>36.0</ele><time>2026-04-06T08:01:18Z</time></trkpt><trkpt lat="44.1697741280316" lon="9.899330708248701"><ele>36.0</ele><time>2026-04-06T08:01:19Z</time></trkpt><trkpt lat="44.16994053396595" lon="9.899443237551004"><ele>35.0</ele><time>2026-04-06T08:01:20Z</time></trkpt><trkpt lat="44.17009088393255" lon="9.89956676970098"><ele>34.0</ele><time>2026-04-06T08:01:21Z</time></trkpt><trkpt lat="44.17021671271691" lon="9.899719171715077"><ele>33.0</ele><time>2026-04-06T08:01:22Z</time></trkpt><trkpt lat="44.17032295360997" lon="9.899891027579852"><ele>30.666666666666664</ele><time>2026-04-06T08:01:23Z</time></trkpt><trkpt lat="44.170414493067256" lon="9.900084162131552"><ele>28.333333333333332</ele><time>2026-04-06T08:01:24Z</time></trkpt><trkpt lat="44.170480238568686" lon="9.900291204069017"><ele>26.0</ele><time>2026-04-06T08:01:25Z</time></trkpt><trkpt lat="44.170537996073456" lon="9.900480388580348"><ele>26.0</ele><time>2026-04-06T08:01:26Z</time></trkpt><trkpt lat="44.170624751406656" lon="9.900646471274378"><ele>26.0</ele><time>2026-04-06T08:01:27Z</time></trkpt><trkpt lat="44.170735336115136" lon="9.900786837836993"><ele>26.0</ele><time>2026-04-06T08:01:28Z</time></trkpt><trkpt lat="44.170863988134336" lon="9.900911561483428"><ele>27.0</ele><time>2026-04-06T08:01:29Z</time></trkpt><trkpt lat="44.17098929081015" lon="9.901036738921205"><ele>28.0</ele><time>2026-04-06T08:01:30Z</time></trkpt><trkpt lat="44.171103605217446" lon="9.901153809634271"><ele>29.0</ele><time>2026-04-06T08:01:31Z</time></trkpt><trkpt lat="44.17122179840975" lon="9.901229759036411"><ele>30.0</ele><time>2026-04-06T08:01:32Z</time></trkpt><trkpt lat="44.17134806865007" lon="9.90126387489084"><ele>30.0</ele><time>2026-04-06T08:01:33Z</time></trkpt><trkpt lat="44.17147418492817" lon="9.901274964170488"><ele>30.0</ele><time>2026-04-06T08:01:34Z</time></trkpt><trkpt lat="44.17158441461463" lon="9.901306328029897"><ele>30.0</ele><time>2026-04-06T08:01:35Z</time></trkpt><trkpt lat="44.171676613543546" lon="9.901387927084523"><ele>30.0</ele><time>2026-04-06T08:01:36Z</time></trkpt><trkpt lat="44.17172403319846" lon="9.901537939882934"><ele>30.75</ele><time>2026-04-06T08:01:37Z</time></trkpt><trkpt lat="44.171752501776155" lon="9.901707354546227"><ele>31.5</ele><time>2026-04-06T08:01:37.999Z</time></trkpt><trkpt lat="44.17179227589047" lon="9.901903504223242"><ele>32.25</ele><time>2026-04-06T08:01:38.999Z</time></trkpt><trkpt lat="44.17180486292231" lon="9.902128565241911"><ele>33.0</ele><time>2026-04-06T08:01:39.999Z</time></trkpt><trkpt lat="44.17180894871231" lon="9.902375953245269"><ele>31.666666666666664</ele><time>2026-04-06T08:01:40.999Z</time></trkpt><trkpt lat="44.17180842819099" lon="9.902608409220608"><ele>30.333333333333332</ele><time>2026-04-06T08:01:41.999Z</time></trkpt><trkpt lat="44.171818480599235" lon="9.902842221298169"><ele>29.0</ele><time>2026-04-06T08:01:42.999Z</time></trkpt><trkpt lat="44.17184682135615" lon="9.903078639383342"><ele>29.0</ele><time>2026-04-06T08:01:43.999Z</time></trkpt><trkpt lat="44.17188203619923" lon="9.903317882064943"><ele>29.0</ele><time>2026-04-06T08:01:44.999Z</time></trkpt><trkpt lat="44.17190291193991" lon="9.90357024696158"><ele>29.0</ele><time>2026-04-06T08:01:45.999Z</time></trkpt><trkpt lat="44.17189943801898" lon="9.903803664090871"><ele>29.333333333333332</ele><time>2026-04-06T08:01:46.999Z</time></trkpt><trkpt lat="44.171878311208836" lon="9.904033534029232"><ele>29.666666666666664</ele><time>2026-04-06T08:01:47.999Z</time></trkpt><trkpt lat="44.17187408519283" lon="9.904247581701368"><ele>30.0</ele><time>2026-04-06T08:01:48.999Z</time></trkpt><trkpt lat="44.171904450442035" lon="9.904473664609508"><ele>29.333333333333336</ele><time>2026-04-06T08:01:49.999Z</time></trkpt><trkpt lat="44.171963959476855" lon="9.904704143055254"><ele>28.666666666666668</ele><time>2026-04-06T08:01:50.999Z</time></trkpt><trkpt lat="44.17203828317144" lon="9.904934954833248"><ele>28.0</ele><time>2026-04-06T08:01:51.999Z</time></trkpt><trkpt lat="44.17212152740827" lon="9.905170497120338"><ele>28.0</ele><time>2026-04-06T08:01:52.999Z</time></trkpt><trkpt lat="44.17219763660758" lon="9.905407716247037"><ele>28.0</ele><time>2026-04-06T08:01:53.999Z</time></trkpt><trkpt lat="44.172264979964254" lon="9.905648130060591"><ele>28.0</ele><time>2026-04-06T08:01:54.999Z</time></trkpt><trkpt lat="44.17234005164854" lon="9.905891173236492"><ele>29.333333333333336</ele><time>2026-04-06T08:01:55.999Z</time></trkpt><trkpt lat="44.1724218089982" lon="9.906124632037734"><ele>30.666666666666664</ele><time>2026-04-06T08:01:56.999Z</time></trkpt><trkpt lat="44.172514273168154" lon="9.906351317459203"><ele>32.0</ele><time>2026-04-06T08:01:57.999Z</time></trkpt><trkpt lat="44.17262777830865" lon="9.906573426832924"><ele>31.666666666666664</ele><time>2026-04-06T08:01:58.999Z</time></trkpt><trkpt lat="44.17275193191876" lon="9.906785828554797"><ele>31.333333333333336</ele><time>2026-04-06T08:01:59.999Z</time></trkpt><trkpt lat="44.17287382928632" lon="9.906970913172808"><ele>31.0</ele><time>2026-04-06T08:02:00.999Z</time></trkpt><trkpt lat="44.172984679544506" lon="9.907143916936812"><ele>31.0</ele><time>2026-04-06T08:02:01.999Z</time></trkpt><trkpt lat="44.173071452287836" lon="9.907308647222616"><ele>31.0</ele><time>2026-04-06T08:02:02.999Z</time></trkpt><trkpt lat="44.17312499186586" lon="9.907477148714676"><ele>31.0</ele><time>2026-04-06T08:02:03.999Z</time></trkpt><trkpt lat="44.173143036632375" lon="9.90766466959439"><ele>31.0</ele><time>2026-04-06T08:02:04.999Z</time></trkpt><trkpt lat="44.17314961321224" lon="9.907877765386539"><ele>31.0</ele><time>2026-04-06T08:02:05.999Z</time></trkpt><trkpt lat="44.17315481041048" lon="9.908113911439626"><ele>31.0</ele><time>2026-04-06T08:02:06.999Z</time></trkpt><trkpt lat="44.17316964806823" lon="9.908349166067893"><ele>31.0</ele><time>2026-04-06T08:02:07.999Z</time></trkpt><trkpt lat="44.17320980603031" lon="9.908584697764109"><ele>32.333333333333336</ele><time>2026-04-06T08:02:08.999Z</time></trkpt><trkpt lat="44.173278119098256" lon="9.908801838722344"><ele>33.666666666666664</ele><time>2026-04-06T08:02:09.999Z</time></trkpt><trkpt lat="44.17337185963865" lon="9.909005321477277"><ele>35.0</ele><time>2026-04-06T08:02:10.999Z</time></trkpt><trkpt lat="44.173490316148985" lon="9.909190917099975"><ele>34.33333333333333</ele><time>2026-04-06T08:02:11.999Z</time></trkpt><trkpt lat="44.173628274370586" lon="9.909362980184296"><ele>33.666666666666664</ele><time>2026-04-06T08:02:12.999Z</time></trkpt><trkpt lat="44.173762484921234" lon="9.909537494400526"><ele>33.0</ele><time>2026-04-06T08:02:13.999Z</time></trkpt><trkpt lat="44.17389245170532" lon="9.909717377911932"><ele>33.0</ele><time>2026-04-06T08:02:14.999Z</time></trkpt><trkpt lat="44.17401870670712" lon="9.909893595427182"><ele>33.0</ele><time>2026-04-06T08:02:15.999Z</time></trkpt><trkpt lat="44.17414136561367" lon="9.910068532777043"><ele>33.0</ele><time>2026-04-06T08:02:16.999Z</time></trkpt><trkpt lat="44.17425748474167" lon="9.91025607778302"><ele>33.0</ele><time>2026-04-06T08:02:17.999Z</time></trkpt><trkpt lat="44.17436834350737" lon="9.910464166586925"><ele>33.0</ele><time>2026-04-06T08:02:18.999Z</time></trkpt><trkpt lat="44.174469439800426" lon="9.910694622233295"><ele>33.0</ele><time>2026-04-06T08:02:19.999Z</time></trkpt><trkpt lat="44.174559019947935" lon="9.910936319318095"><ele>33.0</ele><time>2026-04-06T08:02:20.999Z</time></trkpt><trkpt lat="44.174629628047164" lon="9.91119292596386"><ele>33.0</ele><time>2026-04-06T08:02:21.999Z</time></trkpt><trkpt lat="44.17470283298038" lon="9.911450794889832"><ele>33.0</ele><time>2026-04-06T08:02:22.999Z</time></trkpt><trkpt lat="44.17475240419467" lon="9.911709815144"><ele>32.333333333333336</ele><time>2026-04-06T08:02:23.999Z</time></trkpt><trkpt lat="44.17478584107288" lon="9.911954788898163"><ele>31.666666666666668</ele><time>2026-04-06T08:02:24.999Z</time></trkpt><trkpt lat="44.174807701418494" lon="9.912196214266046"><ele>31.0</ele><time>2026-04-06T08:02:25.999Z</time></trkpt><trkpt lat="44.174836272313215" lon="9.912435216806085"><ele>32.333333333333336</ele><time>2026-04-06T08:02:26.999Z</time></trkpt><trkpt lat="44.1748576520838" lon="9.912681513305097"><ele>33.666666666666664</ele><time>2026-04-06T08:02:27.999Z</time></trkpt><trkpt lat="44.17487700662948" lon="9.912907807300497"><ele>35.0</ele><time>2026-04-06T08:02:28.999Z</time></trkpt><trkpt lat="44.17489561859297" lon="9.913117742284065"><ele>35.0</ele><time>2026-04-06T08:02:29.999Z</time></trkpt><trkpt lat="44.174912481027086" lon="9.913305937287832"><ele>35.0</ele><time>2026-04-06T08:02:30.999Z</time></trkpt><trkpt lat="44.174926855294075" lon="9.913473740564545"><ele>35.0</ele><time>2026-04-06T08:02:31.999Z</time></trkpt><trkpt lat="44.17494598008734" lon="9.913626955639561"><ele>35.0</ele><time>2026-04-06T08:02:32.999Z</time></trkpt><trkpt lat="44.17496311138175" lon="9.913766930871802"><ele>35.25</ele><time>2026-04-06T08:02:33.999Z</time></trkpt><trkpt lat="44.174978525678114" lon="9.913903678041798"><ele>35.5</ele><time>2026-04-06T08:02:34.999Z</time></trkpt><trkpt lat="44.1749901312904" lon="9.914046019261978"><ele>35.75</ele><time>2026-04-06T08:02:35.999Z</time></trkpt><trkpt lat="44.175006632308936" lon="9.914206979406721"><ele>36.0</ele><time>2026-04-06T08:02:36.999Z</time></trkpt><trkpt lat="44.17502957292766" lon="9.914387243120576"><ele>36.25</ele><time>2026-04-06T08:02:37.999Z</time></trkpt><trkpt lat="44.17505215429217" lon="9.914576781076667"><ele>36.5</ele><time>2026-04-06T08:02:38.999Z</time></trkpt><trkpt lat="44.17507192709195" lon="9.914778766455846"><ele>36.75</ele><time>2026-04-06T08:02:39.999Z</time></trkpt><trkpt lat="44.175097962109554" lon="9.915004572662214"><ele>37.0</ele><time>2026-04-06T08:02:40.999Z</time></trkpt><trkpt lat="44.17512138340579" lon="9.915244997422121"><ele>37.25</ele><time>2026-04-06T08:02:41.999Z</time></trkpt><trkpt lat="44.175135042042214" lon="9.915469936305568"><ele>37.5</ele><time>2026-04-06T08:02:42.999Z</time></trkpt><trkpt lat="44.17513184538983" lon="9.915671308107651"><ele>37.75</ele><time>2026-04-06T08:02:43.999Z</time></trkpt><trkpt lat="44.17511880709202" lon="9.915863945778536"><ele>38.0</ele><time>2026-04-06T08:02:44.999Z</time></trkpt><trkpt lat="44.17510186009874" lon="9.916038957102352"><ele>37.5</ele><time>2026-04-06T08:02:45.999Z</time></trkpt><trkpt lat="44.17508816205035" lon="9.91620856972692"><ele>37.0</ele><time>2026-04-06T08:02:46.999Z</time></trkpt><trkpt lat="44.17507406163494" lon="9.916376570242615"><ele>36.5</ele><time>2026-04-06T08:02:47.999Z</time></trkpt><trkpt lat="44.17506261826333" lon="9.916539389464722"><ele>36.0</ele><time>2026-04-06T08:02:48.999Z</time></trkpt><trkpt lat="44.17505530864756" lon="9.91669366440316"><ele>35.5</ele><time>2026-04-06T08:02:49.999Z</time></trkpt><trkpt lat="44.17504190750389" lon="9.91684173745364"><ele>35.0</ele><time>2026-04-06T08:02:50.999Z</time></trkpt><trkpt lat="44.17503127083626" lon="9.917002045116233"><ele>34.5</ele><time>2026-04-06T08:02:51.999Z</time></trkpt><trkpt lat="44.17501892355697" lon="9.91717290153068"><ele>34.0</ele><time>2026-04-06T08:02:52.999Z</time></trkpt><trkpt lat="44.1750065610516" lon="9.917343181985183"><ele>34.0</ele><time>2026-04-06T08:02:53.999Z</time></trkpt><trkpt lat="44.17499419524934" lon="9.917518595929858"><ele>34.0</ele><time>2026-04-06T08:02:54.999Z</time></trkpt><trkpt lat="44.17497945810258" lon="9.917707204605613"><ele>34.0</ele><time>2026-04-06T08:02:55.999Z</time></trkpt><trkpt lat="44.17496512919656" lon="9.917912594058773"><ele>34.0</ele><time>2026-04-06T08:02:56.999Z</time></trkpt><trkpt lat="44.17495012032911" lon="9.918124621007824"><ele>33.75</ele><time>2026-04-06T08:02:57.999Z</time></trkpt><trkpt lat="44.17494020618992" lon="9.91832637751193"><ele>33.5</ele><time>2026-04-06T08:02:58.999Z</time></trkpt><trkpt lat="44.174920827058614" lon="9.91853153039739"><ele>33.25</ele><time>2026-04-06T08:02:59.999Z</time></trkpt><trkpt lat="44.17490850516823" lon="9.918747691845782"><ele>33.0</ele><time>2026-04-06T08:03:00.999Z</time></trkpt><trkpt lat="44.17489559380714" lon="9.918966359602749"><ele>33.0</ele><time>2026-04-06T08:03:01.999Z</time></trkpt><trkpt lat="44.17487950077919" lon="9.919181718210933"><ele>33.0</ele><time>2026-04-06T08:03:02.999Z</time></trkpt><trkpt lat="44.17486044273536" lon="9.919398757129896"><ele>33.0</ele><time>2026-04-06T08:03:03.999Z</time></trkpt><trkpt lat="44.17484324952966" lon="9.919618090353383"><ele>33.333333333333336</ele><time>2026-04-06T08:03:04.999Z</time></trkpt><trkpt lat="44.17482655855881" lon="9.919833169576831"><ele>33.66666666666667</ele><time>2026-04-06T08:03:06Z</time></trkpt><trkpt lat="44.174811287533636" lon="9.920051297995691"><ele>34.0</ele><time>2026-04-06T08:03:07Z</time></trkpt><trkpt lat="44.17479575507532" lon="9.92025750894422"><ele>34.25</ele><time>2026-04-06T08:03:08Z</time></trkpt><trkpt lat="44.17478128920857" lon="9.92046186480283"><ele>34.5</ele><time>2026-04-06T08:03:09Z</time></trkpt><trkpt lat="44.17476374730667" lon="9.920667541779274"><ele>34.75</ele><time>2026-04-06T08:03:10Z</time></trkpt><trkpt lat="44.1747472485548" lon="9.920863888431837"><ele>35.0</ele><time>2026-04-06T08:03:11Z</time></trkpt><trkpt lat="44.174733726815965" lon="9.921060406115943"><ele>35.5</ele><time>2026-04-06T08:03:12Z</time></trkpt><trkpt lat="44.17472163710556" lon="9.921273161509957"><ele>36.0</ele><time>2026-04-06T08:03:13Z</time></trkpt><trkpt lat="44.174705068121234" lon="9.921463578361585"><ele>36.5</ele><time>2026-04-06T08:03:14Z</time></trkpt><trkpt lat="44.17468988632515" lon="9.921660897693146"><ele>37.0</ele><time>2026-04-06T08:03:15Z</time></trkpt><trkpt lat="44.174676110057746" lon="9.92185249164819"><ele>37.0</ele><time>2026-04-06T08:03:16Z</time></trkpt><trkpt lat="44.174666337245164" lon="9.922047935918002"><ele>37.0</ele><time>2026-04-06T08:03:17Z</time></trkpt><trkpt lat="44.17465098992562" lon="9.922240839248262"><ele>37.0</ele><time>2026-04-06T08:03:18Z</time></trkpt><trkpt lat="44.174638236961535" lon="9.922434723935485"><ele>37.0</ele><time>2026-04-06T08:03:19Z</time></trkpt><trkpt lat="44.17462591879183" lon="9.922630509818289"><ele>36.333333333333336</ele><time>2026-04-06T08:03:20Z</time></trkpt><trkpt lat="44.174611090879196" lon="9.922848981923472"><ele>35.666666666666664</ele><time>2026-04-06T08:03:21Z</time></trkpt><trkpt lat="44.174595896517694" lon="9.923083546963218"><ele>35.0</ele><time>2026-04-06T08:03:22Z</time></trkpt><trkpt lat="44.17458025354043" lon="9.923338710230144"><ele>34.33333333333333</ele><time>2026-04-06T08:03:23Z</time></trkpt><trkpt lat="44.17456189810155" lon="9.923612425194923"><ele>33.666666666666664</ele><time>2026-04-06T08:03:24Z</time></trkpt><trkpt lat="44.17453375790168" lon="9.923920479381318"><ele>33.0</ele><time>2026-04-06T08:03:25Z</time></trkpt><trkpt lat="44.17450766910988" lon="9.924219758501948"><ele>32.666666666666664</ele><time>2026-04-06T08:03:26Z</time></trkpt><trkpt lat="44.17448116591316" lon="9.924516623371852"><ele>32.33333333333333</ele><time>2026-04-06T08:03:27Z</time></trkpt><trkpt lat="44.17445564976527" lon="9.92479874433372"><ele>32.0</ele><time>2026-04-06T08:03:28Z</time></trkpt><trkpt lat="44.17443469386303" lon="9.925064142438478"><ele>32.0</ele><time>2026-04-06T08:03:29Z</time></trkpt><trkpt lat="44.17441420772858" lon="9.925314373234112"><ele>32.0</ele><time>2026-04-06T08:03:30Z</time></trkpt><trkpt lat="44.174394098886964" lon="9.9255476771099"><ele>32.0</ele><time>2026-04-06T08:03:31Z</time></trkpt><trkpt lat="44.174373652599854" lon="9.925778305794854"><ele>32.5</ele><time>2026-04-06T08:03:32Z</time></trkpt><trkpt lat="44.17435330208698" lon="9.92600252745074"><ele>33.0</ele><time>2026-04-06T08:03:33Z</time></trkpt><trkpt lat="44.17433693596703" lon="9.926203944865804"><ele>33.5</ele><time>2026-04-06T08:03:34Z</time></trkpt><trkpt lat="44.17432292196142" lon="9.926393291829651"><ele>34.0</ele><time>2026-04-06T08:03:34.999Z</time></trkpt><trkpt lat="44.17431134137896" lon="9.926569066992958"><ele>36.0</ele><time>2026-04-06T08:03:35.999Z</time></trkpt><trkpt lat="44.17429970753958" lon="9.926737600433004"><ele>38.0</ele><time>2026-04-06T08:03:36.999Z</time></trkpt><trkpt lat="44.17428635414568" lon="9.926901729946298"><ele>40.0</ele><time>2026-04-06T08:03:37.999Z</time></trkpt><trkpt lat="44.174274010540216" lon="9.927065006741303"><ele>42.0</ele><time>2026-04-06T08:03:38.999Z</time></trkpt><trkpt lat="44.174260361349184" lon="9.927213516621338"><ele>42.0</ele><time>2026-04-06T08:03:39.999Z</time></trkpt><trkpt lat="44.17424597662525" lon="9.927349581609782"><ele>42.0</ele><time>2026-04-06T08:03:40.999Z</time></trkpt><trkpt lat="44.17422683393476" lon="9.927463851214148"><ele>42.0</ele><time>2026-04-06T08:03:41.999Z</time></trkpt><trkpt lat="44.17419786296122" lon="9.927543829466694"><ele>42.0</ele><time>2026-04-06T08:03:42.999Z</time></trkpt><trkpt lat="44.1741335668453" lon="9.92768090633429"><ele>42.0</ele><time>2026-04-06T08:03:44.999Z</time></trkpt><trkpt lat="44.174154068355705" lon="9.927841549123498"><ele>44.5</ele><time>2026-04-06T08:03:46.999Z</time></trkpt><trkpt lat="44.17428081292706" lon="9.927903700133253"><ele>47.0</ele><time>2026-04-06T08:03:48.999Z</time></trkpt><trkpt lat="44.17438105780017" lon="9.927909737493037"><ele>49.5</ele><time>2026-04-06T08:03:49.999Z</time></trkpt><trkpt lat="44.174502518659" lon="9.927949920499398"><ele>52.0</ele><time>2026-04-06T08:03:50.999Z</time></trkpt><trkpt lat="44.174619089723684" lon="9.927986563221117"><ele>52.0</ele><time>2026-04-06T08:03:51.999Z</time></trkpt><trkpt lat="44.174707621559676" lon="9.928110380011434"><ele>52.0</ele><time>2026-04-06T08:03:52.999Z</time></trkpt><trkpt lat="44.17479702135916" lon="9.928189365086558"><ele>52.0</ele><time>2026-04-06T08:03:53.999Z</time></trkpt><trkpt lat="44.1748834718698" lon="9.928271570171322"><ele>52.0</ele><time>2026-04-06T08:03:54.999Z</time></trkpt><trkpt lat="44.17497634046749" lon="9.928355341853019"><ele>52.0</ele><time>2026-04-06T08:03:55.999Z</time></trkpt><trkpt lat="44.175071514643975" lon="9.928422144066152"><ele>55.400000000000006</ele><time>2026-04-06T08:03:56.999Z</time></trkpt><trkpt lat="44.175168303083424" lon="9.928468261635418"><ele>58.800000000000004</ele><time>2026-04-06T08:03:57.999Z</time></trkpt><trkpt lat="44.17526920581321" lon="9.92848991665328"><ele>62.2</ele><time>2026-04-06T08:03:58.999Z</time></trkpt><trkpt lat="44.17537507964201" lon="9.928494737387442"><ele>65.60000000000001</ele><time>2026-04-06T08:03:59.999Z</time></trkpt><trkpt lat="44.17547642624355" lon="9.928502222373952"><ele>69.0</ele><time>2026-04-06T08:04:00.999Z</time></trkpt><trkpt lat="44.175581531478194" lon="9.928517808505664"><ele>69.0</ele><time>2026-04-06T08:04:01.999Z</time></trkpt><trkpt lat="44.1756863148288" lon="9.928544584150089"><ele>69.0</ele><time>2026-04-06T08:04:02.999Z</time></trkpt><trkpt lat="44.17578803279019" lon="9.928592754385612"><ele>69.0</ele><time>2026-04-06T08:04:03.999Z</time></trkpt><trkpt lat="44.175880521249645" lon="9.92865693888864"><ele>69.0</ele><time>2026-04-06T08:04:04.999Z</time></trkpt><trkpt lat="44.17596226063944" lon="9.928729702556751"><ele>69.0</ele><time>2026-04-06T08:04:05.999Z</time></trkpt><trkpt lat="44.1760401923313" lon="9.92880865315835"><ele>68.2</ele><time>2026-04-06T08:04:06.999Z</time></trkpt><trkpt lat="44.176117310456505" lon="9.928890430391707"><ele>67.4</ele><time>2026-04-06T08:04:07.999Z</time></trkpt><trkpt lat="44.1762033323354" lon="9.928964986777363"><ele>66.6</ele><time>2026-04-06T08:04:08.999Z</time></trkpt><trkpt lat="44.176302506906644" lon="9.92901809429746"><ele>65.8</ele><time>2026-04-06T08:04:09.999Z</time></trkpt><trkpt lat="44.176410289679495" lon="9.929053343225437"><ele>65.0</ele><time>2026-04-06T08:04:10.999Z</time></trkpt><trkpt lat="44.17652279259893" lon="9.929055976920607"><ele>61.00000000000001</ele><time>2026-04-06T08:04:11.999Z</time></trkpt><trkpt lat="44.1766205317393" lon="9.929031803203795"><ele>57.0</ele><time>2026-04-06T08:04:12.999Z</time></trkpt><trkpt lat="44.176704580777354" lon="9.92901045081598"><ele>53.0</ele><time>2026-04-06T08:04:13.999Z</time></trkpt><trkpt lat="44.176782034410095" lon="9.928989001223401"><ele>49.0</ele><time>2026-04-06T08:04:14.999Z</time></trkpt><trkpt lat="44.176862357272874" lon="9.9289678123807"><ele>45.0</ele><time>2026-04-06T08:04:15.999Z</time></trkpt><trkpt lat="44.17692696768939" lon="9.92896514096051"><ele>41.0</ele><time>2026-04-06T08:04:16.999Z</time></trkpt><trkpt lat="44.17699554839884" lon="9.928965052337574"><ele>41.0</ele><time>2026-04-06T08:04:18.999Z</time></trkpt><trkpt lat="44.17705626590664" lon="9.928915156418498"><ele>41.0</ele><time>2026-04-06T08:06:28Z</time></trkpt><trkpt lat="44.17714123074609" lon="9.928893783679989"><ele>41.0</ele><time>2026-04-06T08:06:29Z</time></trkpt><trkpt lat="44.177249543913895" lon="9.928871847604915"><ele>41.0</ele><time>2026-04-06T08:06:30Z</time></trkpt><trkpt lat="44.17735126269083" lon="9.928844672704436"><ele>41.0</ele><time>2026-04-06T08:06:31Z</time></trkpt><trkpt lat="44.17746469230298" lon="9.92881504835228"><ele>41.5</ele><time>2026-04-06T08:06:32Z</time></trkpt><trkpt lat="44.17758997648496" lon="9.928781476908384"><ele>42.0</ele><time>2026-04-06T08:06:33Z</time></trkpt><trkpt lat="44.177714179843136" lon="9.928745822668679"><ele>42.5</ele><time>2026-04-06T08:06:34Z</time></trkpt><trkpt lat="44.177840378941966" lon="9.928706505816638"><ele>43.0</ele><time>2026-04-06T08:06:35Z</time></trkpt><trkpt lat="44.17797428278622" lon="9.92866797436138"><ele>43.0</ele><time>2026-04-06T08:06:36Z</time></trkpt><trkpt lat="44.17811703824007" lon="9.928622525841094"><ele>43.0</ele><time>2026-04-06T08:06:37Z</time></trkpt><trkpt lat="44.17827289136568" lon="9.928570466496392"><ele>43.0</ele><time>2026-04-06T08:06:38Z</time></trkpt><trkpt lat="44.17842263686088" lon="9.928527614038275"><ele>43.0</ele><time>2026-04-06T08:06:39Z</time></trkpt><trkpt lat="44.17857627531112" lon="9.928513721986997"><ele>43.0</ele><time>2026-04-06T08:06:40Z</time></trkpt><trkpt lat="44.17873690254755" lon="9.928438507210446"><ele>43.0</ele><time>2026-04-06T08:06:41Z</time></trkpt><trkpt lat="44.17887872721213" lon="9.928347765385112"><ele>43.0</ele><time>2026-04-06T08:06:42Z</time></trkpt><trkpt lat="44.17900549136291" lon="9.928246070773053"><ele>43.0</ele><time>2026-04-06T08:06:43Z</time></trkpt><trkpt lat="44.179148651129886" lon="9.928209276395672"><ele>43.0</ele><time>2026-04-06T08:06:44Z</time></trkpt><trkpt lat="44.17929575655332" lon="9.928212717985748"><ele>43.0</ele><time>2026-04-06T08:06:45Z</time></trkpt><trkpt lat="44.1794429020955" lon="9.92821370569644"><ele>47.333333333333336</ele><time>2026-04-06T08:06:46Z</time></trkpt><trkpt lat="44.179590397126326" lon="9.928177840241247"><ele>51.66666666666667</ele><time>2026-04-06T08:06:47Z</time></trkpt><trkpt lat="44.17973663479918" lon="9.928126932303261"><ele>56.0</ele><time>2026-04-06T08:06:48Z</time></trkpt><trkpt lat="44.17988159139608" lon="9.928070435848491"><ele>59.0</ele><time>2026-04-06T08:06:49Z</time></trkpt><trkpt lat="44.18002701492024" lon="9.928000315602944"><ele>62.0</ele><time>2026-04-06T08:06:50Z</time></trkpt><trkpt lat="44.180173559790845" lon="9.927924606429812"><ele>65.0</ele><time>2026-04-06T08:06:51Z</time></trkpt><trkpt lat="44.18032146128547" lon="9.92784818036852"><ele>65.0</ele><time>2026-04-06T08:06:52Z</time></trkpt><trkpt lat="44.18047712861073" lon="9.927781357538237"><ele>65.0</ele><time>2026-04-06T08:06:53Z</time></trkpt><trkpt lat="44.180620400313316" lon="9.92768403205968"><ele>65.0</ele><time>2026-04-06T08:06:54Z</time></trkpt><trkpt lat="44.180762036846396" lon="9.92757333566259"><ele>61.0</ele><time>2026-04-06T08:06:55Z</time></trkpt><trkpt lat="44.18090708471589" lon="9.927463712437136"><ele>57.0</ele><time>2026-04-06T08:06:56Z</time></trkpt><trkpt lat="44.181061098626486" lon="9.927360302281892"><ele>53.0</ele><time>2026-04-06T08:06:57Z</time></trkpt><trkpt lat="44.181216301105025" lon="9.927252130321484"><ele>53.0</ele><time>2026-04-06T08:06:58Z</time></trkpt><trkpt lat="44.18139249797127" lon="9.927180645981256"><ele>53.0</ele><time>2026-04-06T08:06:59Z</time></trkpt><trkpt lat="44.18158330035813" lon="9.927117395153388"><ele>53.0</ele><time>2026-04-06T08:07:00Z</time></trkpt><trkpt lat="44.181779956174125" lon="9.927058803905162"><ele>59.333333333333336</ele><time>2026-04-06T08:07:01Z</time></trkpt><trkpt lat="44.18197890577068" lon="9.926992191255835"><ele>65.66666666666667</ele><time>2026-04-06T08:07:02Z</time></trkpt><trkpt lat="44.182172907434555" lon="9.926914514007628"><ele>72.0</ele><time>2026-04-06T08:07:03Z</time></trkpt><trkpt lat="44.18237261657594" lon="9.926818010898922"><ele>68.66666666666667</ele><time>2026-04-06T08:07:04Z</time></trkpt><trkpt lat="44.18256299944043" lon="9.926716078256218"><ele>65.33333333333334</ele><time>2026-04-06T08:07:05Z</time></trkpt><trkpt lat="44.18273823701684" lon="9.926612482326581"><ele>62.0</ele><time>2026-04-06T08:07:06Z</time></trkpt><trkpt lat="44.18293254476646" lon="9.926506613550105"><ele>62.0</ele><time>2026-04-06T08:07:07Z</time></trkpt><trkpt lat="44.1831161385824" lon="9.926354492018095"><ele>62.0</ele><time>2026-04-06T08:07:07.999Z</time></trkpt><trkpt lat="44.18330725487578" lon="9.926221620672447"><ele>62.0</ele><time>2026-04-06T08:07:08.999Z</time></trkpt><trkpt lat="44.1835036663054" lon="9.926127090506979"><ele>59.0</ele><time>2026-04-06T08:07:09.999Z</time></trkpt><trkpt lat="44.183695183807956" lon="9.926016218975795"><ele>56.0</ele><time>2026-04-06T08:07:10.999Z</time></trkpt><trkpt lat="44.183820664427955" lon="9.925948006845138"><ele>53.0</ele><time>2026-04-06T08:07:11.999Z</time></trkpt><trkpt lat="44.183977945102995" lon="9.925863793564897"><ele>54.5</ele><time>2026-04-06T08:07:12.999Z</time></trkpt><trkpt lat="44.18411907482761" lon="9.925785469264225"><ele>56.0</ele><time>2026-04-06T08:07:13.999Z</time></trkpt><trkpt lat="44.18425218376019" lon="9.925724427041777"><ele>57.5</ele><time>2026-04-06T08:07:14.999Z</time></trkpt><trkpt lat="44.1843759736216" lon="9.92572033276339"><ele>59.0</ele><time>2026-04-06T08:07:15.999Z</time></trkpt><trkpt lat="44.18450101782468" lon="9.925762640010598"><ele>59.0</ele><time>2026-04-06T08:07:17.001Z</time></trkpt><trkpt lat="44.18460832933932" lon="9.925845790630902"><ele>59.0</ele><time>2026-04-06T08:07:18.001Z</time></trkpt><trkpt lat="44.184706755311865" lon="9.9259657025549"><ele>59.0</ele><time>2026-04-06T08:07:19.001Z</time></trkpt><trkpt lat="44.18478221550586" lon="9.926123627296596"><ele>59.0</ele><time>2026-04-06T08:07:20.001Z</time></trkpt><trkpt lat="44.1848382250188" lon="9.926287205343943"><ele>63.75</ele><time>2026-04-06T08:07:21.001Z</time></trkpt><trkpt lat="44.18484596961113" lon="9.926478285770825"><ele>68.5</ele><time>2026-04-06T08:07:22.001Z</time></trkpt><trkpt lat="44.184815685078675" lon="9.92667561038975"><ele>73.25</ele><time>2026-04-06T08:07:23.001Z</time></trkpt><trkpt lat="44.18474592319542" lon="9.926860887064137"><ele>78.0</ele><time>2026-04-06T08:07:24.001Z</time></trkpt><trkpt lat="44.18462384228109" lon="9.92700860701611"><ele>75.66666666666667</ele><time>2026-04-06T08:07:25.001Z</time></trkpt><trkpt lat="44.18454130982381" lon="9.927208617669052"><ele>73.33333333333334</ele><time>2026-04-06T08:07:26.001Z</time></trkpt><trkpt lat="44.18444723195264" lon="9.927391101271581"><ele>71.0</ele><time>2026-04-06T08:07:27.001Z</time></trkpt><trkpt lat="44.184362956920694" lon="9.927599123231438"><ele>71.0</ele><time>2026-04-06T08:07:28.001Z</time></trkpt><trkpt lat="44.18428930299337" lon="9.927814208642243"><ele>71.0</ele><time>2026-04-06T08:07:29.001Z</time></trkpt><trkpt lat="44.18423435423157" lon="9.92803557648789"><ele>71.0</ele><time>2026-04-06T08:07:30.001Z</time></trkpt><trkpt lat="44.18418771685257" lon="9.928267625496568"><ele>66.66666666666667</ele><time>2026-04-06T08:07:31.001Z</time></trkpt><trkpt lat="44.18415330864747" lon="9.928500844210788"><ele>62.33333333333333</ele><time>2026-04-06T08:07:32.001Z</time></trkpt><trkpt lat="44.18413040121584" lon="9.928740067598996"><ele>58.0</ele><time>2026-04-06T08:07:33.001Z</time></trkpt><trkpt lat="44.184106768182154" lon="9.928984123959584"><ele>55.666666666666664</ele><time>2026-04-06T08:07:34Z</time></trkpt><trkpt lat="44.18407493255675" lon="9.929232294399515"><ele>53.33333333333333</ele><time>2026-04-06T08:07:35Z</time></trkpt><trkpt lat="44.184034785782714" lon="9.929468247131219"><ele>51.0</ele><time>2026-04-06T08:07:36Z</time></trkpt><trkpt lat="44.18398677648001" lon="9.929706585282801"><ele>69.33333333333334</ele><time>2026-04-06T08:07:37Z</time></trkpt><trkpt lat="44.183937184007014" lon="9.929946192061962"><ele>87.66666666666667</ele><time>2026-04-06T08:07:38Z</time></trkpt><trkpt lat="44.18388518297336" lon="9.930173216182206"><ele>106.0</ele><time>2026-04-06T08:07:39Z</time></trkpt><trkpt lat="44.18384104903406" lon="9.930394082563394"><ele>106.0</ele><time>2026-04-06T08:07:40Z</time></trkpt><trkpt lat="44.1838044415177" lon="9.930623976000616"><ele>106.0</ele><time>2026-04-06T08:07:41Z</time></trkpt><trkpt lat="44.183770484464105" lon="9.93084584303321"><ele>106.0</ele><time>2026-04-06T08:07:42Z</time></trkpt><trkpt lat="44.18373996106227" lon="9.93106856765988"><ele>103.33333333333334</ele><time>2026-04-06T08:07:43Z</time></trkpt><trkpt lat="44.183712265495764" lon="9.931293353529371"><ele>100.66666666666666</ele><time>2026-04-06T08:07:44Z</time></trkpt><trkpt lat="44.183685671435356" lon="9.931523373170728"><ele>98.0</ele><time>2026-04-06T08:07:45Z</time></trkpt><trkpt lat="44.183657153820576" lon="9.931760062801677"><ele>96.5</ele><time>2026-04-06T08:07:46Z</time></trkpt><trkpt lat="44.18362368023189" lon="9.931979910975995"><ele>95.0</ele><time>2026-04-06T08:07:47Z</time></trkpt><trkpt lat="44.18358195563399" lon="9.932179732174156"><ele>93.5</ele><time>2026-04-06T08:07:48Z</time></trkpt><trkpt lat="44.18354587678797" lon="9.9323497522283"><ele>92.0</ele><time>2026-04-06T08:07:49Z</time></trkpt><trkpt lat="44.18353521696306" lon="9.932505172129465"><ele>89.75</ele><time>2026-04-06T08:07:50Z</time></trkpt><trkpt lat="44.18355663665334" lon="9.932642859039117"><ele>87.5</ele><time>2026-04-06T08:07:51Z</time></trkpt><trkpt lat="44.18362796373604" lon="9.932768359250218"><ele>85.25</ele><time>2026-04-06T08:07:52Z</time></trkpt><trkpt lat="44.183732997549605" lon="9.932876210762089"><ele>83.0</ele><time>2026-04-06T08:07:53Z</time></trkpt><trkpt lat="44.183857741265385" lon="9.932966013030482"><ele>83.0</ele><time>2026-04-06T08:07:54Z</time></trkpt><trkpt lat="44.18399676822349" lon="9.933073862371646"><ele>83.0</ele><time>2026-04-06T08:07:55Z</time></trkpt><trkpt lat="44.184122723246254" lon="9.933218764080985"><ele>83.0</ele><time>2026-04-06T08:07:56Z</time></trkpt><trkpt lat="44.18422073987481" lon="9.933400180175271"><ele>74.66666666666667</ele><time>2026-04-06T08:07:57Z</time></trkpt><trkpt lat="44.184292663711446" lon="9.933593015493825"><ele>66.33333333333333</ele><time>2026-04-06T08:07:58Z</time></trkpt><trkpt lat="44.18435132506866" lon="9.933801494590277"><ele>58.0</ele><time>2026-04-06T08:07:59Z</time></trkpt><trkpt lat="44.184410761589" lon="9.934009430357568"><ele>58.0</ele><time>2026-04-06T08:08:00Z</time></trkpt><trkpt lat="44.184478703741725" lon="9.934220934467215"><ele>58.0</ele><time>2026-04-06T08:08:01Z</time></trkpt><trkpt lat="44.18454374107089" lon="9.934433098843375"><ele>58.0</ele><time>2026-04-06T08:08:02Z</time></trkpt><trkpt lat="44.184613505756026" lon="9.934646263826137"><ele>62.33333333333333</ele><time>2026-04-06T08:08:03Z</time></trkpt><trkpt lat="44.18468124573842" lon="9.934862048248686"><ele>66.66666666666667</ele><time>2026-04-06T08:08:04Z</time></trkpt><trkpt lat="44.184747034485845" lon="9.935079505351121"><ele>71.0</ele><time>2026-04-06T08:08:05Z</time></trkpt><trkpt lat="44.18481970622461" lon="9.935299475145099"><ele>71.0</ele><time>2026-04-06T08:08:06Z</time></trkpt><trkpt lat="44.18489965706726" lon="9.93551804554289"><ele>71.0</ele><time>2026-04-06T08:08:07Z</time></trkpt><trkpt lat="44.184992505645916" lon="9.935727858973403"><ele>71.0</ele><time>2026-04-06T08:08:08Z</time></trkpt><trkpt lat="44.18509561277729" lon="9.935934324137747"><ele>71.0</ele><time>2026-04-06T08:08:09Z</time></trkpt><trkpt lat="44.185201140277236" lon="9.936137785934719"><ele>71.0</ele><time>2026-04-06T08:08:10Z</time></trkpt><trkpt lat="44.18530618964005" lon="9.936344697638583"><ele>71.0</ele><time>2026-04-06T08:08:11Z</time></trkpt><trkpt lat="44.18541499677222" lon="9.936549510093064"><ele>70.66666666666667</ele><time>2026-04-06T08:08:12Z</time></trkpt><trkpt lat="44.18553226249989" lon="9.936748107521652"><ele>70.33333333333333</ele><time>2026-04-06T08:08:13Z</time></trkpt><trkpt lat="44.18565104311129" lon="9.93694674750293"><ele>70.0</ele><time>2026-04-06T08:08:14Z</time></trkpt><trkpt lat="44.18577028302172" lon="9.937140689549294"><ele>70.0</ele><time>2026-04-06T08:08:15Z</time></trkpt><trkpt lat="44.18589632371566" lon="9.937331034231697"><ele>70.0</ele><time>2026-04-06T08:08:16Z</time></trkpt><trkpt lat="44.1860303317015" lon="9.937506468550053"><ele>70.0</ele><time>2026-04-06T08:08:17Z</time></trkpt><trkpt lat="44.186168344089495" lon="9.937663159669682"><ele>71.66666666666666</ele><time>2026-04-06T08:08:18Z</time></trkpt><trkpt lat="44.18632032693568" lon="9.93780768549378"><ele>73.33333333333333</ele><time>2026-04-06T08:08:19Z</time></trkpt><trkpt lat="44.186476563616324" lon="9.937939369301604"><ele>75.0</ele><time>2026-04-06T08:08:20Z</time></trkpt><trkpt lat="44.186628200386934" lon="9.938079228925455"><ele>75.0</ele><time>2026-04-06T08:08:21Z</time></trkpt><trkpt lat="44.18676969416398" lon="9.93824443416119"><ele>75.0</ele><time>2026-04-06T08:08:22Z</time></trkpt><trkpt lat="44.186909657670114" lon="9.938415763413166"><ele>75.0</ele><time>2026-04-06T08:08:23Z</time></trkpt><trkpt lat="44.18705614573501" lon="9.938569775640532"><ele>73.0</ele><time>2026-04-06T08:08:24Z</time></trkpt><trkpt lat="44.18721551981209" lon="9.938695989885652"><ele>71.0</ele><time>2026-04-06T08:08:25Z</time></trkpt><trkpt lat="44.187379272052155" lon="9.938823867613552"><ele>69.0</ele><time>2026-04-06T08:08:26Z</time></trkpt><trkpt lat="44.18753693655545" lon="9.93897425394052"><ele>69.0</ele><time>2026-04-06T08:08:27Z</time></trkpt><trkpt lat="44.1876977124058" lon="9.939135865419404"><ele>69.0</ele><time>2026-04-06T08:08:28Z</time></trkpt><trkpt lat="44.1878544471296" lon="9.939282515397858"><ele>69.0</ele><time>2026-04-06T08:08:29Z</time></trkpt><trkpt lat="44.18802176332141" lon="9.939416526505315"><ele>72.0</ele><time>2026-04-06T08:08:30Z</time></trkpt><trkpt lat="44.18818108649767" lon="9.939547827840974"><ele>75.0</ele><time>2026-04-06T08:08:31Z</time></trkpt><trkpt lat="44.18833042192444" lon="9.939700634253187"><ele>78.0</ele><time>2026-04-06T08:08:32Z</time></trkpt><trkpt lat="44.188469998271565" lon="9.939866309762046"><ele>78.0</ele><time>2026-04-06T08:08:33Z</time></trkpt><trkpt lat="44.18861749882364" lon="9.940046017310863"><ele>78.0</ele><time>2026-04-06T08:08:34Z</time></trkpt><trkpt lat="44.188766380441315" lon="9.940219665803918"><ele>78.0</ele><time>2026-04-06T08:08:35Z</time></trkpt><trkpt lat="44.18892522234825" lon="9.940400012473852"><ele>79.66666666666667</ele><time>2026-04-06T08:08:36Z</time></trkpt><trkpt lat="44.18908554862444" lon="9.94057870293794"><ele>81.33333333333334</ele><time>2026-04-06T08:08:37Z</time></trkpt><trkpt lat="44.189244196923184" lon="9.940759913118201"><ele>83.0</ele><time>2026-04-06T08:08:38Z</time></trkpt><trkpt lat="44.18939223437607" lon="9.940924527068685"><ele>82.66666666666667</ele><time>2026-04-06T08:08:39Z</time></trkpt><trkpt lat="44.18953412462033" lon="9.941072963360133"><ele>82.33333333333333</ele><time>2026-04-06T08:08:40Z</time></trkpt><trkpt lat="44.1896935427072" lon="9.941206176727256"><ele>82.0</ele><time>2026-04-06T08:08:41Z</time></trkpt><trkpt lat="44.18985825601911" lon="9.941312957575489"><ele>82.0</ele><time>2026-04-06T08:08:42Z</time></trkpt><trkpt lat="44.19004518302574" lon="9.941395059787004"><ele>82.0</ele><time>2026-04-06T08:08:43Z</time></trkpt><trkpt lat="44.19023358181657" lon="9.941468138513653"><ele>82.0</ele><time>2026-04-06T08:08:44Z</time></trkpt><trkpt lat="44.19042357884302" lon="9.94155457580327"><ele>82.0</ele><time>2026-04-06T08:08:45Z</time></trkpt><trkpt lat="44.190608078981924" lon="9.941658162072219"><ele>82.0</ele><time>2026-04-06T08:08:46Z</time></trkpt><trkpt lat="44.19078997901017" lon="9.941769274904964"><ele>82.0</ele><time>2026-04-06T08:08:47Z</time></trkpt><trkpt lat="44.190972888443795" lon="9.94187063880628"><ele>91.66666666666666</ele><time>2026-04-06T08:08:48Z</time></trkpt><trkpt lat="44.19113891968135" lon="9.941960235318335"><ele>101.33333333333333</ele><time>2026-04-06T08:08:49Z</time></trkpt><trkpt lat="44.19130602532717" lon="9.942030805919911"><ele>111.0</ele><time>2026-04-06T08:08:50Z</time></trkpt><trkpt lat="44.191484369551326" lon="9.942076350282516"><ele>103.66666666666667</ele><time>2026-04-06T08:08:51Z</time></trkpt><trkpt lat="44.19167278073919" lon="9.942093912708643"><ele>96.33333333333334</ele><time>2026-04-06T08:08:52Z</time></trkpt><trkpt lat="44.191856391045654" lon="9.942095536658234"><ele>89.0</ele><time>2026-04-06T08:08:53Z</time></trkpt><trkpt lat="44.1920274855732" lon="9.942083434336753"><ele>89.0</ele><time>2026-04-06T08:08:54Z</time></trkpt><trkpt lat="44.192188716835936" lon="9.942070117736547"><ele>89.0</ele><time>2026-04-06T08:08:55Z</time></trkpt><trkpt lat="44.19235806288752" lon="9.942076308465316"><ele>89.0</ele><time>2026-04-06T08:08:56Z</time></trkpt><trkpt lat="44.192515716970746" lon="9.942109485309572"><ele>84.33333333333334</ele><time>2026-04-06T08:08:56.999Z</time></trkpt><trkpt lat="44.19266046270318" lon="9.942182816183298"><ele>79.66666666666667</ele><time>2026-04-06T08:08:57.999Z</time></trkpt><trkpt lat="44.19280057841046" lon="9.942281691435499"><ele>75.0</ele><time>2026-04-06T08:08:58.999Z</time></trkpt><trkpt lat="44.19293487376906" lon="9.94238174532233"><ele>75.0</ele><time>2026-04-06T08:08:59.999Z</time></trkpt><trkpt lat="44.19305297795264" lon="9.942480640128235"><ele>75.0</ele><time>2026-04-06T08:09:00.999Z</time></trkpt><trkpt lat="44.19316348884707" lon="9.942570485705618"><ele>75.0</ele><time>2026-04-06T08:09:01.999Z</time></trkpt><trkpt lat="44.19327368840503" lon="9.94265545961464"><ele>75.0</ele><time>2026-04-06T08:09:02.999Z</time></trkpt><trkpt lat="44.19337943911" lon="9.942738233566624"><ele>79.0</ele><time>2026-04-06T08:09:03.999Z</time></trkpt><trkpt lat="44.193488646721676" lon="9.942824795800115"><ele>83.0</ele><time>2026-04-06T08:09:04.999Z</time></trkpt><trkpt lat="44.193597912138245" lon="9.942911873848944"><ele>87.0</ele><time>2026-04-06T08:09:05.999Z</time></trkpt><trkpt lat="44.19370535884396" lon="9.942996747931018"><ele>91.0</ele><time>2026-04-06T08:09:06.999Z</time></trkpt><trkpt lat="44.1938119978122" lon="9.943071796594799"><ele>91.0</ele><time>2026-04-06T08:09:07.999Z</time></trkpt><trkpt lat="44.1939289965155" lon="9.943172850527954"><ele>91.0</ele><time>2026-04-06T08:09:08.999Z</time></trkpt><trkpt lat="44.19405195205418" lon="9.943268040510125"><ele>91.0</ele><time>2026-04-06T08:09:09.999Z</time></trkpt><trkpt lat="44.19418094397829" lon="9.943368680131769"><ele>91.0</ele><time>2026-04-06T08:09:10.999Z</time></trkpt><trkpt lat="44.19431020215809" lon="9.943469173150222"><ele>91.75</ele><time>2026-04-06T08:09:11.999Z</time></trkpt><trkpt lat="44.19443734152957" lon="9.943575350630482"><ele>92.5</ele><time>2026-04-06T08:09:12.999Z</time></trkpt><trkpt lat="44.19454656088252" lon="9.94368130904444"><ele>93.25</ele><time>2026-04-06T08:09:13.999Z</time></trkpt><trkpt lat="44.19465126313519" lon="9.943790179665598"><ele>94.0</ele><time>2026-04-06T08:09:14.999Z</time></trkpt><trkpt lat="44.1947423439654" lon="9.943912871904338"><ele>94.0</ele><time>2026-04-06T08:09:15.999Z</time></trkpt><trkpt lat="44.19481658075607" lon="9.944048332900302"><ele>94.0</ele><time>2026-04-06T08:09:16.999Z</time></trkpt><trkpt lat="44.19484989555014" lon="9.944207746781771"><ele>94.0</ele><time>2026-04-06T08:09:17.999Z</time></trkpt><trkpt lat="44.1948447036501" lon="9.944381377414912"><ele>94.0</ele><time>2026-04-06T08:09:18.999Z</time></trkpt><trkpt lat="44.19480007480594" lon="9.94456554953876"><ele>93.33333333333333</ele><time>2026-04-06T08:09:19.999Z</time></trkpt><trkpt lat="44.19472070679874" lon="9.944734864775167"><ele>92.66666666666667</ele><time>2026-04-06T08:09:20.999Z</time></trkpt><trkpt lat="44.19463513714116" lon="9.944916693926055"><ele>92.0</ele><time>2026-04-06T08:09:21.999Z</time></trkpt><trkpt lat="44.19455468350053" lon="9.945104596656764"><ele>92.0</ele><time>2026-04-06T08:09:23.001Z</time></trkpt><trkpt lat="44.194488679012" lon="9.945288115119938"><ele>92.0</ele><time>2026-04-06T08:09:24.001Z</time></trkpt><trkpt lat="44.19443309825106" lon="9.94546194719986"><ele>92.0</ele><time>2026-04-06T08:09:25Z</time></trkpt><trkpt lat="44.19438435439105" lon="9.94562434518766"><ele>92.0</ele><time>2026-04-06T08:09:26.001Z</time></trkpt><trkpt lat="44.19434387515757" lon="9.945776339799218"><ele>91.25</ele><time>2026-04-06T08:09:27.001Z</time></trkpt><trkpt lat="44.194314100768466" lon="9.945926368169385"><ele>90.5</ele><time>2026-04-06T08:09:28.001Z</time></trkpt><trkpt lat="44.19428777863806" lon="9.94608773716075"><ele>89.75</ele><time>2026-04-06T08:09:29.001Z</time></trkpt><trkpt lat="44.1942647338502" lon="9.946256435823972"><ele>89.0</ele><time>2026-04-06T08:09:30.001Z</time></trkpt><trkpt lat="44.19423974238991" lon="9.946425509228126"><ele>89.0</ele><time>2026-04-06T08:09:31.001Z</time></trkpt><trkpt lat="44.19421743572228" lon="9.946585182150752"><ele>89.0</ele><time>2026-04-06T08:09:32.001Z</time></trkpt><trkpt lat="44.19420833940738" lon="9.946736474959945"><ele>89.0</ele><time>2026-04-06T08:09:33.001Z</time></trkpt><trkpt lat="44.194209265230654" lon="9.946890959460818"><ele>89.0</ele><time>2026-04-06T08:09:34.001Z</time></trkpt><trkpt lat="44.1942222002586" lon="9.94706556977299"><ele>88.0</ele><time>2026-04-06T08:09:35.001Z</time></trkpt><trkpt lat="44.19424000206944" lon="9.947249357198423"><ele>87.0</ele><time>2026-04-06T08:09:36.001Z</time></trkpt><trkpt lat="44.19426697798185" lon="9.947435816555233"><ele>86.0</ele><time>2026-04-06T08:09:37.001Z</time></trkpt><trkpt lat="44.194314326235876" lon="9.947654169852488"><ele>85.0</ele><time>2026-04-06T08:09:38Z</time></trkpt><trkpt lat="44.19440125662965" lon="9.947928073250814"><ele>87.66666666666666</ele><time>2026-04-06T08:09:39Z</time></trkpt><trkpt lat="44.1945049207617" lon="9.94820110903249"><ele>90.33333333333333</ele><time>2026-04-06T08:09:40Z</time></trkpt><trkpt lat="44.19460655766879" lon="9.948441251798274"><ele>93.0</ele><time>2026-04-06T08:09:41Z</time></trkpt><trkpt lat="44.19469542114458" lon="9.948674815013597"><ele>88.0</ele><time>2026-04-06T08:09:42Z</time></trkpt><trkpt lat="44.194769952979" lon="9.948910934034297"><ele>83.0</ele><time>2026-04-06T08:09:43Z</time></trkpt><trkpt lat="44.19484531811912" lon="9.949172074143224"><ele>78.0</ele><time>2026-04-06T08:09:44Z</time></trkpt><trkpt lat="44.194910299802835" lon="9.949475091044869"><ele>78.0</ele><time>2026-04-06T08:09:45Z</time></trkpt><trkpt lat="44.195003428352415" lon="9.94976943596757"><ele>78.0</ele><time>2026-04-06T08:09:46Z</time></trkpt><trkpt lat="44.1950635666632" lon="9.950036287932267"><ele>78.0</ele><time>2026-04-06T08:09:47Z</time></trkpt><trkpt lat="44.1951178090251" lon="9.950273213740523"><ele>78.25</ele><time>2026-04-06T08:09:48Z</time></trkpt><trkpt lat="44.19516411015194" lon="9.950466014674737"><ele>78.5</ele><time>2026-04-06T08:09:49Z</time></trkpt><trkpt lat="44.19520165865882" lon="9.950645465781717"><ele>78.75</ele><time>2026-04-06T08:09:50Z</time></trkpt><trkpt lat="44.19523656030913" lon="9.950817598301441"><ele>79.0</ele><time>2026-04-06T08:09:51Z</time></trkpt><trkpt lat="44.19527927069955" lon="9.950978928262934"><ele>79.0</ele><time>2026-04-06T08:09:52Z</time></trkpt><trkpt lat="44.19533415163201" lon="9.951125912155186"><ele>79.0</ele><time>2026-04-06T08:09:53Z</time></trkpt><trkpt lat="44.1954110732369" lon="9.951264977684795"><ele>79.0</ele><time>2026-04-06T08:09:54Z</time></trkpt><trkpt lat="44.195494538842354" lon="9.951369143796489"><ele>79.0</ele><time>2026-04-06T08:09:55Z</time></trkpt><trkpt lat="44.19559477075404" lon="9.951476371921627"><ele>76.75</ele><time>2026-04-06T08:09:56Z</time></trkpt><trkpt lat="44.19570420159873" lon="9.951588016330682"><ele>74.5</ele><time>2026-04-06T08:09:57Z</time></trkpt><trkpt lat="44.19581019773393" lon="9.95170494503221"><ele>72.25</ele><time>2026-04-06T08:09:58Z</time></trkpt><trkpt lat="44.19590890701429" lon="9.951816567373605"><ele>70.0</ele><time>2026-04-06T08:09:59Z</time></trkpt><trkpt lat="44.1960002214888" lon="9.9519156499317"><ele>70.0</ele><time>2026-04-06T08:10:00Z</time></trkpt><trkpt lat="44.19608856679504" lon="9.9520089409582"><ele>70.0</ele><time>2026-04-06T08:10:01Z</time></trkpt><trkpt lat="44.196182058945816" lon="9.952091292877531"><ele>70.0</ele><time>2026-04-06T08:10:02Z</time></trkpt><trkpt lat="44.19624154523724" lon="9.95217045095834"><ele>70.0</ele><time>2026-04-06T08:10:03Z</time></trkpt><trkpt lat="44.196368552780946" lon="9.952229441903068"><ele>70.0</ele><time>2026-04-06T08:10:04Z</time></trkpt><trkpt lat="44.19648085693264" lon="9.952246477733784"><ele>70.5</ele><time>2026-04-06T08:10:05Z</time></trkpt><trkpt lat="44.19659686436003" lon="9.95222185041196"><ele>71.0</ele><time>2026-04-06T08:10:06Z</time></trkpt><trkpt lat="44.19671694085605" lon="9.952158091044726"><ele>71.5</ele><time>2026-04-06T08:10:07Z</time></trkpt><trkpt lat="44.196837989870765" lon="9.952076032098502"><ele>72.0</ele><time>2026-04-06T08:10:08Z</time></trkpt><trkpt lat="44.19696989459116" lon="9.952046611602833"><ele>72.0</ele><time>2026-04-06T08:10:09Z</time></trkpt><trkpt lat="44.19706683966783" lon="9.952025755973041"><ele>72.0</ele><time>2026-04-06T08:10:10Z</time></trkpt><trkpt lat="44.197217326979" lon="9.952010217365627"><ele>72.0</ele><time>2026-04-06T08:10:11Z</time></trkpt><trkpt lat="44.19734743215287" lon="9.95200028373443"><ele>72.0</ele><time>2026-04-06T08:10:12Z</time></trkpt><trkpt lat="44.197472599512835" lon="9.95199664195695"><ele>72.5</ele><time>2026-04-06T08:10:13Z</time></trkpt><trkpt lat="44.19759657844447" lon="9.952008439536199"><ele>73.0</ele><time>2026-04-06T08:10:14Z</time></trkpt><trkpt lat="44.19773018111393" lon="9.95204857533618"><ele>73.5</ele><time>2026-04-06T08:10:15Z</time></trkpt><trkpt lat="44.19785447827223" lon="9.95210004854128"><ele>74.0</ele><time>2026-04-06T08:10:16Z</time></trkpt><trkpt lat="44.197981613028986" lon="9.952150165204223"><ele>74.0</ele><time>2026-04-06T08:10:17Z</time></trkpt><trkpt lat="44.19810438861969" lon="9.952195821668395"><ele>74.0</ele><time>2026-04-06T08:10:18Z</time></trkpt><trkpt lat="44.198225232075984" lon="9.952220650406092"><ele>74.0</ele><time>2026-04-06T08:10:19Z</time></trkpt><trkpt lat="44.19833418689092" lon="9.95226776279293"><ele>74.0</ele><time>2026-04-06T08:10:20Z</time></trkpt><trkpt lat="44.19843679295698" lon="9.952304396227174"><ele>71.75</ele><time>2026-04-06T08:10:21Z</time></trkpt><trkpt lat="44.19853403164664" lon="9.952374438670802"><ele>69.5</ele><time>2026-04-06T08:10:22Z</time></trkpt><trkpt lat="44.19863759385823" lon="9.952443885596422"><ele>67.25</ele><time>2026-04-06T08:10:23Z</time></trkpt><trkpt lat="44.19869873820405" lon="9.952591213799273"><ele>65.0</ele><time>2026-04-06T08:10:24Z</time></trkpt><trkpt lat="44.198757581591565" lon="9.952743497450024"><ele>69.5</ele><time>2026-04-06T08:10:25Z</time></trkpt><trkpt lat="44.19879848399293" lon="9.952924535140637"><ele>74.0</ele><time>2026-04-06T08:10:26Z</time></trkpt><trkpt lat="44.19883091402098" lon="9.953117155959697"><ele>78.5</ele><time>2026-04-06T08:10:27Z</time></trkpt><trkpt lat="44.1988616256957" lon="9.95331389582092"><ele>83.0</ele><time>2026-04-06T08:10:28Z</time></trkpt><trkpt lat="44.198891083854136" lon="9.95350260601032"><ele>84.75</ele><time>2026-04-06T08:10:29Z</time></trkpt><trkpt lat="44.198939591669415" lon="9.953694245537456"><ele>86.5</ele><time>2026-04-06T08:10:30Z</time></trkpt><trkpt lat="44.198975636992294" lon="9.953880605640345"><ele>88.25</ele><time>2026-04-06T08:10:31Z</time></trkpt><trkpt lat="44.199021026922495" lon="9.95406678085688"><ele>90.0</ele><time>2026-04-06T08:10:32Z</time></trkpt><trkpt lat="44.19908782295023" lon="9.954266180720225"><ele>84.75</ele><time>2026-04-06T08:10:33Z</time></trkpt><trkpt lat="44.199161934473004" lon="9.954438908714039"><ele>79.5</ele><time>2026-04-06T08:10:34Z</time></trkpt><trkpt lat="44.1992364747971" lon="9.954584428915014"><ele>74.25</ele><time>2026-04-06T08:10:35Z</time></trkpt><trkpt lat="44.1993123341281" lon="9.954717230374433"><ele>69.0</ele><time>2026-04-06T08:10:36Z</time></trkpt><trkpt lat="44.19938615488631" lon="9.954854893203438"><ele>69.0</ele><time>2026-04-06T08:10:37Z</time></trkpt><trkpt lat="44.19945983922021" lon="9.954987724536425"><ele>69.0</ele><time>2026-04-06T08:10:38Z</time></trkpt><trkpt lat="44.199529684147436" lon="9.955115905641764"><ele>69.0</ele><time>2026-04-06T08:10:39Z</time></trkpt><trkpt lat="44.19958335131066" lon="9.95524924831377"><ele>69.0</ele><time>2026-04-06T08:10:40Z</time></trkpt><trkpt lat="44.199599705701544" lon="9.955404076642697"><ele>71.0</ele><time>2026-04-06T08:10:41Z</time></trkpt><trkpt lat="44.199596237163355" lon="9.955567526809352"><ele>73.0</ele><time>2026-04-06T08:10:42Z</time></trkpt><trkpt lat="44.19957244571784" lon="9.955745155246913"><ele>75.0</ele><time>2026-04-06T08:10:43Z</time></trkpt><trkpt lat="44.199539810750316" lon="9.955919510483861"><ele>77.0</ele><time>2026-04-06T08:10:44Z</time></trkpt><trkpt lat="44.19950303402798" lon="9.956093639912913"><ele>77.0</ele><time>2026-04-06T08:10:45Z</time></trkpt><trkpt lat="44.199468472486984" lon="9.95626100850874"><ele>77.0</ele><time>2026-04-06T08:10:46Z</time></trkpt><trkpt lat="44.19943633794991" lon="9.956430060312664"><ele>77.0</ele><time>2026-04-06T08:10:47Z</time></trkpt><trkpt lat="44.19940576541755" lon="9.956593342099973"><ele>77.0</ele><time>2026-04-06T08:10:48Z</time></trkpt><trkpt lat="44.19938324511051" lon="9.956762307405043"><ele>76.33333333333334</ele><time>2026-04-06T08:10:49Z</time></trkpt><trkpt lat="44.19937838723305" lon="9.956961237042458"><ele>75.66666666666667</ele><time>2026-04-06T08:10:50Z</time></trkpt><trkpt lat="44.19939243605886" lon="9.957211516696086"><ele>75.0</ele><time>2026-04-06T08:10:51Z</time></trkpt><trkpt lat="44.19939145994348" lon="9.957514093981626"><ele>77.5</ele><time>2026-04-06T08:10:52Z</time></trkpt><trkpt lat="44.19941985787418" lon="9.957845998229987"><ele>80.0</ele><time>2026-04-06T08:10:53Z</time></trkpt><trkpt lat="44.19941945289823" lon="9.958151292929758"><ele>82.0</ele><time>2026-04-06T08:10:54Z</time></trkpt><trkpt lat="44.19942844375615" lon="9.958426526068003"><ele>84.0</ele><time>2026-04-06T08:10:55Z</time></trkpt><trkpt lat="44.19944871707192" lon="9.958685012173577"><ele>86.0</ele><time>2026-04-06T08:10:56Z</time></trkpt><trkpt lat="44.1994773913578" lon="9.958933509056076"><ele>86.0</ele><time>2026-04-06T08:10:57Z</time></trkpt><trkpt lat="44.199517248426865" lon="9.959173068543267"><ele>86.0</ele><time>2026-04-06T08:10:58Z</time></trkpt><trkpt lat="44.19955888832165" lon="9.95940383237176"><ele>86.0</ele><time>2026-04-06T08:10:59Z</time></trkpt><trkpt lat="44.19960366485341" lon="9.959627768582642"><ele>91.33333333333334</ele><time>2026-04-06T08:11:00Z</time></trkpt><trkpt lat="44.19965925695974" lon="9.959846516773096"><ele>96.66666666666667</ele><time>2026-04-06T08:11:01Z</time></trkpt><trkpt lat="44.19973282759597" lon="9.960068482473792"><ele>102.0</ele><time>2026-04-06T08:11:01.999Z</time></trkpt><trkpt lat="44.19981884023718" lon="9.96028205410637"><ele>93.66666666666667</ele><time>2026-04-06T08:11:02.999Z</time></trkpt><trkpt lat="44.19991520968474" lon="9.96048134694946"><ele>85.33333333333334</ele><time>2026-04-06T08:11:03.999Z</time></trkpt><trkpt lat="44.20001289441072" lon="9.96066926307454"><ele>77.0</ele><time>2026-04-06T08:11:04.999Z</time></trkpt><trkpt lat="44.20010636827912" lon="9.96084726487653"><ele>81.25</ele><time>2026-04-06T08:11:05.999Z</time></trkpt><trkpt lat="44.2001926270095" lon="9.961009412662579"><ele>85.5</ele><time>2026-04-06T08:11:06.999Z</time></trkpt><trkpt lat="44.20026235399704" lon="9.961175309678097"><ele>89.75</ele><time>2026-04-06T08:11:07.999Z</time></trkpt><trkpt lat="44.20032441761968" lon="9.96133978982387"><ele>94.0</ele><time>2026-04-06T08:11:08.999Z</time></trkpt><trkpt lat="44.200385460890935" lon="9.961504057697528"><ele>94.0</ele><time>2026-04-06T08:11:09.999Z</time></trkpt><trkpt lat="44.200454278418505" lon="9.961664915889264"><ele>94.0</ele><time>2026-04-06T08:11:10.999Z</time></trkpt><trkpt lat="44.2005366756837" lon="9.961815932064578"><ele>94.0</ele><time>2026-04-06T08:11:11.999Z</time></trkpt><trkpt lat="44.20062759198885" lon="9.961958463734453"><ele>94.0</ele><time>2026-04-06T08:11:12.999Z</time></trkpt><trkpt lat="44.200723864599425" lon="9.962101838680184"><ele>91.75</ele><time>2026-04-06T08:11:13.999Z</time></trkpt><trkpt lat="44.20081835573311" lon="9.962231546668344"><ele>89.5</ele><time>2026-04-06T08:11:14.999Z</time></trkpt><trkpt lat="44.20090982139953" lon="9.962350171830945"><ele>87.25</ele><time>2026-04-06T08:11:15.999Z</time></trkpt><trkpt lat="44.20099693267718" lon="9.962477668182977"><ele>85.0</ele><time>2026-04-06T08:11:16.999Z</time></trkpt><trkpt lat="44.20108912791794" lon="9.962603036604442"><ele>85.0</ele><time>2026-04-06T08:11:17.999Z</time></trkpt><trkpt lat="44.20118923701183" lon="9.962722959909252"><ele>85.0</ele><time>2026-04-06T08:11:18.999Z</time></trkpt><trkpt lat="44.20129226087458" lon="9.962836401761416"><ele>85.0</ele><time>2026-04-06T08:11:19.999Z</time></trkpt><trkpt lat="44.20139799342063" lon="9.962946898666598"><ele>85.0</ele><time>2026-04-06T08:11:20.999Z</time></trkpt><trkpt lat="44.20150238841614" lon="9.963043189051815"><ele>83.5</ele><time>2026-04-06T08:11:21.999Z</time></trkpt><trkpt lat="44.201600272213646" lon="9.963141242408964"><ele>82.0</ele><time>2026-04-06T08:11:22.999Z</time></trkpt><trkpt lat="44.2016812719501" lon="9.963260921413397"><ele>80.5</ele><time>2026-04-06T08:11:23.999Z</time></trkpt><trkpt lat="44.20174763797731" lon="9.963400883334202"><ele>79.0</ele><time>2026-04-06T08:11:24.999Z</time></trkpt><trkpt lat="44.20181252166614" lon="9.963535424463997"><ele>79.0</ele><time>2026-04-06T08:11:25.999Z</time></trkpt><trkpt lat="44.201888939816264" lon="9.963647960920278"><ele>79.0</ele><time>2026-04-06T08:11:26.999Z</time></trkpt><trkpt lat="44.201985953228096" lon="9.963735220716197"><ele>79.0</ele><time>2026-04-06T08:11:27.999Z</time></trkpt><trkpt lat="44.20209288175266" lon="9.96380132372234"><ele>79.0</ele><time>2026-04-06T08:11:29.001Z</time></trkpt><trkpt lat="44.20219767150311" lon="9.963864772574704"><ele>79.0</ele><time>2026-04-06T08:11:30.001Z</time></trkpt><trkpt lat="44.20229664914234" lon="9.963944441589804"><ele>79.0</ele><time>2026-04-06T08:11:31.001Z</time></trkpt><trkpt lat="44.20239600842442" lon="9.964038693636347"><ele>79.0</ele><time>2026-04-06T08:11:32.001Z</time></trkpt><trkpt lat="44.202502836437404" lon="9.964135767514572"><ele>79.0</ele><time>2026-04-06T08:11:33.001Z</time></trkpt><trkpt lat="44.20261301127076" lon="9.964235199778074"><ele>78.0</ele><time>2026-04-06T08:11:34.001Z</time></trkpt><trkpt lat="44.20272076671447" lon="9.964332915496014"><ele>77.0</ele><time>2026-04-06T08:11:35.001Z</time></trkpt><trkpt lat="44.20281899020726" lon="9.964425840050938"><ele>76.0</ele><time>2026-04-06T08:11:36.001Z</time></trkpt><trkpt lat="44.20291008591008" lon="9.964512990050098"><ele>75.0</ele><time>2026-04-06T08:11:37.001Z</time></trkpt><trkpt lat="44.20299059075604" lon="9.964605008958552"><ele>75.0</ele><time>2026-04-06T08:11:38.001Z</time></trkpt><trkpt lat="44.203063081157325" lon="9.964725469662172"><ele>75.0</ele><time>2026-04-06T08:11:39.001Z</time></trkpt><trkpt lat="44.20312588010613" lon="9.96486974811392"><ele>75.0</ele><time>2026-04-06T08:11:40.001Z</time></trkpt><trkpt lat="44.20317831325886" lon="9.96504098103439"><ele>75.0</ele><time>2026-04-06T08:11:41.001Z</time></trkpt><trkpt lat="44.20323482573557" lon="9.96521057692402"><ele>73.0</ele><time>2026-04-06T08:11:42.001Z</time></trkpt><trkpt lat="44.203295053887175" lon="9.965365958905709"><ele>71.0</ele><time>2026-04-06T08:11:43.001Z</time></trkpt><trkpt lat="44.20335986058713" lon="9.965517325778196"><ele>69.0</ele><time>2026-04-06T08:11:44.001Z</time></trkpt><trkpt lat="44.203431064021636" lon="9.965670354640704"><ele>67.0</ele><time>2026-04-06T08:11:45.001Z</time></trkpt><trkpt lat="44.203507693912876" lon="9.965822816320271"><ele>66.5</ele><time>2026-04-06T08:11:46.001Z</time></trkpt><trkpt lat="44.20359015954923" lon="9.965963021798911"><ele>66.0</ele><time>2026-04-06T08:11:47.001Z</time></trkpt><trkpt lat="44.20367364798832" lon="9.966087464245732"><ele>65.5</ele><time>2026-04-06T08:11:48Z</time></trkpt><trkpt lat="44.203752062199385" lon="9.966206500791298"><ele>65.0</ele><time>2026-04-06T08:11:49Z</time></trkpt><trkpt lat="44.203813972109934" lon="9.966336293232382"><ele>65.0</ele><time>2026-04-06T08:11:50Z</time></trkpt><trkpt lat="44.203853791841304" lon="9.966481437734346"><ele>65.0</ele><time>2026-04-06T08:11:51Z</time></trkpt><trkpt lat="44.20387393935651" lon="9.966642070215984"><ele>65.0</ele><time>2026-04-06T08:11:52Z</time></trkpt><trkpt lat="44.203899460598635" lon="9.966792411579107"><ele>65.0</ele><time>2026-04-06T08:11:53Z</time></trkpt><trkpt lat="44.203934735584454" lon="9.966936615037474"><ele>65.0</ele><time>2026-04-06T08:11:54Z</time></trkpt><trkpt lat="44.20399030968796" lon="9.967085865781447"><ele>64.25</ele><time>2026-04-06T08:11:55Z</time></trkpt><trkpt lat="44.2040556081087" lon="9.967240981784284"><ele>63.5</ele><time>2026-04-06T08:11:56Z</time></trkpt><trkpt lat="44.204129973022425" lon="9.96739801407551"><ele>62.75</ele><time>2026-04-06T08:11:57Z</time></trkpt><trkpt lat="44.204205972566626" lon="9.967552921622978"><ele>62.0</ele><time>2026-04-06T08:11:58Z</time></trkpt><trkpt lat="44.2042784705823" lon="9.9676998509344"><ele>62.0</ele><time>2026-04-06T08:11:59Z</time></trkpt><trkpt lat="44.204351374418444" lon="9.967836533754156"><ele>62.0</ele><time>2026-04-06T08:12:00Z</time></trkpt><trkpt lat="44.204427144577615" lon="9.967967243720068"><ele>62.0</ele><time>2026-04-06T08:12:01Z</time></trkpt><trkpt lat="44.20449894700176" lon="9.96809619678039"><ele>62.0</ele><time>2026-04-06T08:12:02Z</time></trkpt><trkpt lat="44.20456951278248" lon="9.968227727201018"><ele>62.0</ele><time>2026-04-06T08:12:03Z</time></trkpt><trkpt lat="44.20463825835934" lon="9.968354228882815"><ele>62.0</ele><time>2026-04-06T08:12:04Z</time></trkpt><trkpt lat="44.204708790778085" lon="9.96848142089108"><ele>62.0</ele><time>2026-04-06T08:12:05Z</time></trkpt><trkpt lat="44.204776482140375" lon="9.968606693387503"><ele>62.0</ele><time>2026-04-06T08:12:06Z</time></trkpt><trkpt lat="44.204845972918235" lon="9.968732254192865"><ele>61.75</ele><time>2026-04-06T08:12:07Z</time></trkpt><trkpt lat="44.20491676386262" lon="9.968858703999718"><ele>61.5</ele><time>2026-04-06T08:12:08Z</time></trkpt><trkpt lat="44.2049886752566" lon="9.968988387574344"><ele>61.25</ele><time>2026-04-06T08:12:09Z</time></trkpt><trkpt lat="44.20506002726426" lon="9.96912342701064"><ele>61.0</ele><time>2026-04-06T08:12:10Z</time></trkpt><trkpt lat="44.205135967866006" lon="9.969261916231577"><ele>61.75</ele><time>2026-04-06T08:12:11Z</time></trkpt><trkpt lat="44.20521219210377" lon="9.969402633328366"><ele>62.5</ele><time>2026-04-06T08:12:12Z</time></trkpt><trkpt lat="44.20528736425798" lon="9.969535962229994"><ele>63.25</ele><time>2026-04-06T08:12:13Z</time></trkpt><trkpt lat="44.20535505030566" lon="9.969654628197386"><ele>64.0</ele><time>2026-04-06T08:12:14Z</time></trkpt><trkpt lat="44.20541430309006" lon="9.969758216187076"><ele>64.0</ele><time>2026-04-06T08:12:15Z</time></trkpt><trkpt lat="44.205475269630874" lon="9.969849533071327"><ele>64.0</ele><time>2026-04-06T08:12:16Z</time></trkpt><trkpt lat="44.20555515773044" lon="9.969928060054622"><ele>64.0</ele><time>2026-04-06T08:12:17Z</time></trkpt><trkpt lat="44.20565041784791" lon="9.96999136530689"><ele>64.0</ele><time>2026-04-06T08:12:18Z</time></trkpt><trkpt lat="44.20576762707254" lon="9.970038139513509"><ele>64.0</ele><time>2026-04-06T08:12:19Z</time></trkpt><trkpt lat="44.205897154458825" lon="9.970070094121233"><ele>65.25</ele><time>2026-04-06T08:12:20Z</time></trkpt><trkpt lat="44.20602609284385" lon="9.970093080520776"><ele>66.5</ele><time>2026-04-06T08:12:21Z</time></trkpt><trkpt lat="44.20613878098764" lon="9.970101731917588"><ele>67.75</ele><time>2026-04-06T08:12:22Z</time></trkpt><trkpt lat="44.206262508017495" lon="9.970114218022818"><ele>69.0</ele><time>2026-04-06T08:12:23Z</time></trkpt><trkpt lat="44.20641183651571" lon="9.970165198919243"><ele>63.66666666666667</ele><time>2026-04-06T08:12:24Z</time></trkpt><trkpt lat="44.206573139953726" lon="9.970196113573452"><ele>58.333333333333336</ele><time>2026-04-06T08:12:25Z</time></trkpt><trkpt lat="44.20673422118907" lon="9.970227001153384"><ele>53.0</ele><time>2026-04-06T08:12:26Z</time></trkpt><trkpt lat="44.20687085611383" lon="9.970233087567498"><ele>53.0</ele><time>2026-04-06T08:12:27Z</time></trkpt><trkpt lat="44.20699108408947" lon="9.97026153056786"><ele>53.0</ele><time>2026-04-06T08:12:28Z</time></trkpt><trkpt lat="44.20709625649942" lon="9.970283051286112"><ele>53.0</ele><time>2026-04-06T08:12:29Z</time></trkpt><trkpt lat="44.20718504552689" lon="9.97030217039945"><ele>53.0</ele><time>2026-04-06T08:12:30Z</time></trkpt><trkpt lat="44.2072734579926" lon="9.970319345456378"><ele>53.0</ele><time>2026-04-06T08:12:31Z</time></trkpt><trkpt lat="44.2073663224645" lon="9.970338729058001"><ele>54.2</ele><time>2026-04-06T08:12:32Z</time></trkpt><trkpt lat="44.207463906415654" lon="9.970360817172985"><ele>55.4</ele><time>2026-04-06T08:12:33Z</time></trkpt><trkpt lat="44.20756575431806" lon="9.970381097688346"><ele>56.60000000000001</ele><time>2026-04-06T08:12:34Z</time></trkpt><trkpt lat="44.20765985637368" lon="9.97039929320728"><ele>57.800000000000004</ele><time>2026-04-06T08:12:35Z</time></trkpt><trkpt lat="44.20776092245087" lon="9.970420958156675"><ele>59.0</ele><time>2026-04-06T08:12:37Z</time></trkpt><trkpt lat="44.20782979850418" lon="9.970430548929164"><ele>59.0</ele><time>2026-04-06T08:12:39Z</time></trkpt><trkpt lat="44.207950641353946" lon="9.970443397641343"><ele>59.00000000000001</ele><time>2026-04-06T08:12:41Z</time></trkpt><trkpt lat="44.20801360448949" lon="9.970441209570302"><ele>59.00000000000001</ele><time>2026-04-06T08:12:42Z</time></trkpt><trkpt lat="44.20810647175442" lon="9.97048274577523"><ele>59.0</ele><time>2026-04-06T08:12:44Z</time></trkpt><trkpt lat="44.20810185650078" lon="9.97061858656274"><ele>59.0</ele><time>2026-04-06T08:12:46Z</time></trkpt><trkpt lat="44.20807215178822" lon="9.970734556777051"><ele>59.800000000000004</ele><time>2026-04-06T08:12:47Z</time></trkpt><trkpt lat="44.2080283594436" lon="9.970873112521373"><ele>60.60000000000001</ele><time>2026-04-06T08:12:48Z</time></trkpt><trkpt lat="44.2079828902763" lon="9.971005466125385"><ele>61.4</ele><time>2026-04-06T08:12:49Z</time></trkpt><trkpt lat="44.20794253616584" lon="9.971130831716009"><ele>62.2</ele><time>2026-04-06T08:12:50Z</time></trkpt><trkpt lat="44.20789236975741" lon="9.971277510156016"><ele>63.0</ele><time>2026-04-06T08:12:51Z</time></trkpt><trkpt lat="44.20782734040586" lon="9.971462481203469"><ele>63.0</ele><time>2026-04-06T08:12:52Z</time></trkpt><trkpt lat="44.207764765186695" lon="9.97164529508564"><ele>63.0</ele><time>2026-04-06T08:12:53Z</time></trkpt><trkpt lat="44.20770223589245" lon="9.971840068149222"><ele>63.0</ele><time>2026-04-06T08:12:54Z</time></trkpt><trkpt lat="44.207645976728934" lon="9.972027611116433"><ele>63.0</ele><time>2026-04-06T08:12:55Z</time></trkpt><trkpt lat="44.20759703697521" lon="9.97218126906849"><ele>63.75</ele><time>2026-04-06T08:12:56Z</time></trkpt><trkpt lat="44.20756279572074" lon="9.972312420834356"><ele>64.5</ele><time>2026-04-06T08:12:57Z</time></trkpt><trkpt lat="44.207546341608435" lon="9.972457957510724"><ele>65.25</ele><time>2026-04-06T08:12:58Z</time></trkpt><trkpt lat="44.20754677156941" lon="9.972623738282591"><ele>66.0</ele><time>2026-04-06T08:12:59Z</time></trkpt><trkpt lat="44.207569596056715" lon="9.972799440767938"><ele>66.0</ele><time>2026-04-06T08:13:00Z</time></trkpt><trkpt lat="44.20760639274645" lon="9.972993583176548"><ele>66.0</ele><time>2026-04-06T08:13:01Z</time></trkpt><trkpt lat="44.2076398273484" lon="9.97317886604185"><ele>66.0</ele><time>2026-04-06T08:13:02Z</time></trkpt><trkpt lat="44.20765495452641" lon="9.973338187126515"><ele>66.0</ele><time>2026-04-06T08:13:03Z</time></trkpt><trkpt lat="44.20766359678871" lon="9.97346478807856"><ele>64.39999999999999</ele><time>2026-04-06T08:13:04Z</time></trkpt><trkpt lat="44.20768974174249" lon="9.973583650310946"><ele>62.8</ele><time>2026-04-06T08:13:05Z</time></trkpt><trkpt lat="44.20774772198608" lon="9.973705542630762"><ele>61.199999999999996</ele><time>2026-04-06T08:13:06Z</time></trkpt><trkpt lat="44.20782478333206" lon="9.973822739442216"><ele>59.599999999999994</ele><time>2026-04-06T08:13:07Z</time></trkpt><trkpt lat="44.20788627896896" lon="9.973924980422064"><ele>58.0</ele><time>2026-04-06T08:13:07.999Z</time></trkpt><trkpt lat="44.207930072621146" lon="9.97401912587278"><ele>58.0</ele><time>2026-04-06T08:13:08.999Z</time></trkpt><trkpt lat="44.2079920156017" lon="9.974114966171177"><ele>58.0</ele><time>2026-04-06T08:13:09.999Z</time></trkpt><trkpt lat="44.20807023012962" lon="9.974207253616912"><ele>58.0</ele><time>2026-04-06T08:13:10.999Z</time></trkpt><trkpt lat="44.20814980175493" lon="9.97429416041838"><ele>58.0</ele><time>2026-04-06T08:13:11.999Z</time></trkpt><trkpt lat="44.208225450394664" lon="9.974380278642295"><ele>58.0</ele><time>2026-04-06T08:13:12.999Z</time></trkpt><trkpt lat="44.20829315603437" lon="9.974470475080382"><ele>58.8</ele><time>2026-04-06T08:13:13.999Z</time></trkpt><trkpt lat="44.20835528507505" lon="9.97458874869283"><ele>59.599999999999994</ele><time>2026-04-06T08:13:14.999Z</time></trkpt><trkpt lat="44.20841841103368" lon="9.97471920110826"><ele>60.400000000000006</ele><time>2026-04-06T08:13:15.999Z</time></trkpt><trkpt lat="44.20848062163897" lon="9.974838032199468"><ele>61.2</ele><time>2026-04-06T08:13:16.999Z</time></trkpt><trkpt lat="44.20853013513932" lon="9.974952018312749"><ele>62.0</ele><time>2026-04-06T08:13:17.999Z</time></trkpt><trkpt lat="44.208555024149085" lon="9.975069894478024"><ele>62.0</ele><time>2026-04-06T08:13:18.999Z</time></trkpt><trkpt lat="44.20856331245703" lon="9.975197162510105"><ele>62.0</ele><time>2026-04-06T08:13:19.999Z</time></trkpt><trkpt lat="44.20854137710609" lon="9.975312695477202"><ele>62.0</ele><time>2026-04-06T08:13:20.999Z</time></trkpt><trkpt lat="44.20851259671433" lon="9.975440802913775"><ele>62.0</ele><time>2026-04-06T08:13:21.999Z</time></trkpt><trkpt lat="44.20849558167507" lon="9.975579936717034"><ele>62.0</ele><time>2026-04-06T08:13:22.999Z</time></trkpt><trkpt lat="44.208476857440154" lon="9.975726699064172"><ele>62.2</ele><time>2026-04-06T08:13:23.999Z</time></trkpt><trkpt lat="44.208453330000836" lon="9.975864566740078"><ele>62.400000000000006</ele><time>2026-04-06T08:13:24.999Z</time></trkpt><trkpt lat="44.20842785853309" lon="9.975992188300886"><ele>62.599999999999994</ele><time>2026-04-06T08:13:25.999Z</time></trkpt><trkpt lat="44.208409920528645" lon="9.976117636007947"><ele>62.8</ele><time>2026-04-06T08:13:26.999Z</time></trkpt><trkpt lat="44.20840606460914" lon="9.976244902620836"><ele>63.0</ele><time>2026-04-06T08:13:27.999Z</time></trkpt><trkpt lat="44.208414271403086" lon="9.976360119403857"><ele>63.0</ele><time>2026-04-06T08:13:28.999Z</time></trkpt><trkpt lat="44.20845726022714" lon="9.976511028564582"><ele>63.0</ele><time>2026-04-06T08:13:30.999Z</time></trkpt><trkpt lat="44.20845470822295" lon="9.976642341884356"><ele>63.0</ele><time>2026-04-06T08:13:31.999Z</time></trkpt><trkpt lat="44.20846668259355" lon="9.976758853813402"><ele>63.0</ele><time>2026-04-06T08:13:33.999Z</time></trkpt><trkpt lat="44.20856268910006" lon="9.976836621275952"><ele>63.0</ele><time>2026-04-06T08:13:36.001Z</time></trkpt><trkpt lat="44.20864811711719" lon="9.976836078754108"><ele>64.4</ele><time>2026-04-06T08:13:37.001Z</time></trkpt><trkpt lat="44.20875106819735" lon="9.976810048832851"><ele>65.8</ele><time>2026-04-06T08:13:38.001Z</time></trkpt><trkpt lat="44.208841948025196" lon="9.97679063547952"><ele>67.2</ele><time>2026-04-06T08:13:39.001Z</time></trkpt><trkpt lat="44.20894757516271" lon="9.976796356961847"><ele>68.6</ele><time>2026-04-06T08:13:40.001Z</time></trkpt><trkpt lat="44.209072282261396" lon="9.976807029501764"><ele>70.0</ele><time>2026-04-06T08:13:41.001Z</time></trkpt><trkpt lat="44.209191449087136" lon="9.976827582397332"><ele>73.0</ele><time>2026-04-06T08:13:42.001Z</time></trkpt><trkpt lat="44.20931211243669" lon="9.976855355292885"><ele>76.0</ele><time>2026-04-06T08:13:43.001Z</time></trkpt><trkpt lat="44.20943973275864" lon="9.976888734258825"><ele>79.0</ele><time>2026-04-06T08:13:44.001Z</time></trkpt><trkpt lat="44.20957146909796" lon="9.976928235511282"><ele>82.0</ele><time>2026-04-06T08:13:45.001Z</time></trkpt><trkpt lat="44.20970866721796" lon="9.976964465504178"><ele>81.5</ele><time>2026-04-06T08:13:46.001Z</time></trkpt><trkpt lat="44.20984925697964" lon="9.977004461679206"><ele>81.0</ele><time>2026-04-06T08:13:47.001Z</time></trkpt><trkpt lat="44.20998625983924" lon="9.977045461015685"><ele>80.5</ele><time>2026-04-06T08:13:48.001Z</time></trkpt><trkpt lat="44.21011021410686" lon="9.977076459868071"><ele>80.0</ele><time>2026-04-06T08:13:49.001Z</time></trkpt><trkpt lat="44.21022504659452" lon="9.977104880606934"><ele>80.0</ele><time>2026-04-06T08:13:50.001Z</time></trkpt><trkpt lat="44.21034518473264" lon="9.977132542807857"><ele>80.0</ele><time>2026-04-06T08:13:51Z</time></trkpt><trkpt lat="44.21046257759016" lon="9.977189315224049"><ele>80.0</ele><time>2026-04-06T08:13:52Z</time></trkpt><trkpt lat="44.21056715257822" lon="9.977285013543248"><ele>80.0</ele><time>2026-04-06T08:13:53Z</time></trkpt><trkpt lat="44.21065488964657" lon="9.977423965035692"><ele>80.2</ele><time>2026-04-06T08:13:54Z</time></trkpt><trkpt lat="44.210757283008405" lon="9.977527784488439"><ele>80.4</ele><time>2026-04-06T08:13:55Z</time></trkpt><trkpt lat="44.21084097081616" lon="9.97762372013747"><ele>80.6</ele><time>2026-04-06T08:13:56Z</time></trkpt><trkpt lat="44.2109296312299" lon="9.977662780750833"><ele>80.8</ele><time>2026-04-06T08:13:57Z</time></trkpt><trkpt lat="44.21102194561736" lon="9.977653963696497"><ele>81.0</ele><time>2026-04-06T08:13:58Z</time></trkpt><trkpt lat="44.2111298116336" lon="9.977611167333452"><ele>81.0</ele><time>2026-04-06T08:13:59Z</time></trkpt><trkpt lat="44.21125441855264" lon="9.9775580003741"><ele>81.0</ele><time>2026-04-06T08:14:00Z</time></trkpt><trkpt lat="44.21139718664753" lon="9.977537081690269"><ele>81.0</ele><time>2026-04-06T08:14:01Z</time></trkpt><trkpt lat="44.21153911399806" lon="9.977600716295262"><ele>81.0</ele><time>2026-04-06T08:14:02Z</time></trkpt><trkpt lat="44.21169381732565" lon="9.977661938967099"><ele>78.66666666666667</ele><time>2026-04-06T08:14:03Z</time></trkpt><trkpt lat="44.21186238996332" lon="9.977693340236687"><ele>76.33333333333334</ele><time>2026-04-06T08:14:04Z</time></trkpt><trkpt lat="44.21203752968069" lon="9.97770714579961"><ele>74.0</ele><time>2026-04-06T08:14:05Z</time></trkpt><trkpt lat="44.21222722782056" lon="9.977702451334123"><ele>72.66666666666667</ele><time>2026-04-06T08:14:06Z</time></trkpt><trkpt lat="44.212411477785146" lon="9.977689935704834"><ele>71.33333333333333</ele><time>2026-04-06T08:14:07Z</time></trkpt><trkpt lat="44.212578879463656" lon="9.977680858915235"><ele>70.0</ele><time>2026-04-06T08:14:08Z</time></trkpt><trkpt lat="44.212747940906766" lon="9.977679560453815"><ele>70.0</ele><time>2026-04-06T08:14:09Z</time></trkpt><trkpt lat="44.21291993911039" lon="9.977676073134399"><ele>70.0</ele><time>2026-04-06T08:14:10Z</time></trkpt><trkpt lat="44.213096970710566" lon="9.977676562848188"><ele>70.0</ele><time>2026-04-06T08:14:11Z</time></trkpt><trkpt lat="44.213270795167105" lon="9.977676183771022"><ele>69.0</ele><time>2026-04-06T08:14:12Z</time></trkpt><trkpt lat="44.21342840473035" lon="9.977674281930023"><ele>68.0</ele><time>2026-04-06T08:14:13Z</time></trkpt><trkpt lat="44.21357644267748" lon="9.977671027589327"><ele>67.0</ele><time>2026-04-06T08:14:14Z</time></trkpt><trkpt lat="44.21371048565864" lon="9.977666934367441"><ele>66.0</ele><time>2026-04-06T08:14:15Z</time></trkpt><trkpt lat="44.213840731389325" lon="9.97761898926681"><ele>66.0</ele><time>2026-04-06T08:14:16Z</time></trkpt><trkpt lat="44.21396961071043" lon="9.977554763032636"><ele>66.0</ele><time>2026-04-06T08:14:17Z</time></trkpt><trkpt lat="44.214099376343675" lon="9.977490313615096"><ele>66.0</ele><time>2026-04-06T08:14:18Z</time></trkpt><trkpt lat="44.21423267404746" lon="9.977444298179883"><ele>66.0</ele><time>2026-04-06T08:14:19Z</time></trkpt><trkpt lat="44.214368055035095" lon="9.977406919605775"><ele>66.5</ele><time>2026-04-06T08:14:20Z</time></trkpt><trkpt lat="44.214511206257576" lon="9.977376018453414"><ele>67.0</ele><time>2026-04-06T08:14:21Z</time></trkpt><trkpt lat="44.21465951146413" lon="9.977362935031145"><ele>67.5</ele><time>2026-04-06T08:14:22Z</time></trkpt><trkpt lat="44.21481443922517" lon="9.977369310640382"><ele>68.0</ele><time>2026-04-06T08:14:23Z</time></trkpt><trkpt lat="44.21497661549388" lon="9.977374803783814"><ele>68.0</ele><time>2026-04-06T08:14:24Z</time></trkpt><trkpt lat="44.215135432877" lon="9.977392875534349"><ele>68.0</ele><time>2026-04-06T08:14:25Z</time></trkpt><trkpt lat="44.21528872004635" lon="9.97739187465763"><ele>68.0</ele><time>2026-04-06T08:14:26Z</time></trkpt><trkpt lat="44.21544309829321" lon="9.977383048005388"><ele>68.0</ele><time>2026-04-06T08:14:27Z</time></trkpt><trkpt lat="44.21557802666214" lon="9.977359702202495"><ele>68.0</ele><time>2026-04-06T08:14:28Z</time></trkpt><trkpt lat="44.215694514751526" lon="9.977331150997871"><ele>68.0</ele><time>2026-04-06T08:14:29Z</time></trkpt><trkpt lat="44.215781822698894" lon="9.977313423801949"><ele>68.0</ele><time>2026-04-06T08:14:30Z</time></trkpt><trkpt lat="44.215860292492515" lon="9.977293552212796"><ele>68.0</ele><time>2026-04-06T08:14:31Z</time></trkpt><trkpt lat="44.215939410729135" lon="9.977270388894455"><ele>68.4</ele><time>2026-04-06T08:14:32Z</time></trkpt><trkpt lat="44.21602760490406" lon="9.9772416865016"><ele>68.8</ele><time>2026-04-06T08:14:33Z</time></trkpt><trkpt lat="44.21612096554642" lon="9.977210030843167"><ele>69.2</ele><time>2026-04-06T08:14:34Z</time></trkpt><trkpt lat="44.21622498476992" lon="9.977174409943025"><ele>69.6</ele><time>2026-04-06T08:14:35Z</time></trkpt><trkpt lat="44.21633813160455" lon="9.977139156014465"><ele>70.0</ele><time>2026-04-06T08:14:36Z</time></trkpt><trkpt lat="44.216454186408846" lon="9.97710008429954"><ele>70.5</ele><time>2026-04-06T08:14:37Z</time></trkpt><trkpt lat="44.21656600348592" lon="9.977065803647035"><ele>71.0</ele><time>2026-04-06T08:14:38Z</time></trkpt><trkpt lat="44.216682468684645" lon="9.97702850356814"><ele>71.5</ele><time>2026-04-06T08:14:39Z</time></trkpt><trkpt lat="44.21679778801653" lon="9.976994477924274"><ele>72.0</ele><time>2026-04-06T08:14:40Z</time></trkpt><trkpt lat="44.216915728214644" lon="9.976955162217305"><ele>72.0</ele><time>2026-04-06T08:14:41Z</time></trkpt><trkpt lat="44.217031617566775" lon="9.976919629857823"><ele>72.0</ele><time>2026-04-06T08:14:42Z</time></trkpt><trkpt lat="44.217144674542254" lon="9.976883213203442"><ele>72.0</ele><time>2026-04-06T08:14:43Z</time></trkpt><trkpt lat="44.21725186053133" lon="9.976850693886096"><ele>72.0</ele><time>2026-04-06T08:14:44Z</time></trkpt><trkpt lat="44.21736470699131" lon="9.97681893162165"><ele>72.0</ele><time>2026-04-06T08:14:45Z</time></trkpt><trkpt lat="44.217478862203606" lon="9.976785493183334"><ele>72.0</ele><time>2026-04-06T08:14:46Z</time></trkpt><trkpt lat="44.21759524813477" lon="9.976749288366735"><ele>72.0</ele><time>2026-04-06T08:14:47Z</time></trkpt><trkpt lat="44.21770052794634" lon="9.976712861143822"><ele>72.0</ele><time>2026-04-06T08:14:48Z</time></trkpt><trkpt lat="44.217811035541715" lon="9.976676619626472"><ele>73.0</ele><time>2026-04-06T08:14:49Z</time></trkpt><trkpt lat="44.217919420694486" lon="9.976638777750264"><ele>74.0</ele><time>2026-04-06T08:14:50Z</time></trkpt><trkpt lat="44.21802876484674" lon="9.976603243564623"><ele>75.0</ele><time>2026-04-06T08:14:51Z</time></trkpt><trkpt lat="44.218147302035334" lon="9.976559595554908"><ele>76.0</ele><time>2026-04-06T08:14:52Z</time></trkpt><trkpt lat="44.21826474894169" lon="9.976516434880484"><ele>76.39999999999999</ele><time>2026-04-06T08:14:53Z</time></trkpt><trkpt lat="44.218382184783415" lon="9.97647466032437"><ele>76.8</ele><time>2026-04-06T08:14:54Z</time></trkpt><trkpt lat="44.21849443105429" lon="9.976442052092287"><ele>77.19999999999999</ele><time>2026-04-06T08:14:55Z</time></trkpt><trkpt lat="44.218594249224445" lon="9.976418899018547"><ele>77.6</ele><time>2026-04-06T08:14:56Z</time></trkpt><trkpt lat="44.218701797353084" lon="9.976380097185011"><ele>78.0</ele><time>2026-04-06T08:14:57Z</time></trkpt><trkpt lat="44.21881003219604" lon="9.976344701396735"><ele>78.0</ele><time>2026-04-06T08:14:58Z</time></trkpt><trkpt lat="44.21891391721265" lon="9.976309540838658"><ele>78.0</ele><time>2026-04-06T08:14:59Z</time></trkpt><trkpt lat="44.21899905651884" lon="9.976285587128174"><ele>78.0</ele><time>2026-04-06T08:15:00Z</time></trkpt><trkpt lat="44.21908486786486" lon="9.976259657879119"><ele>78.0</ele><time>2026-04-06T08:15:01Z</time></trkpt><trkpt lat="44.21915864850034" lon="9.976233238900004"><ele>78.0</ele><time>2026-04-06T08:15:02Z</time></trkpt><trkpt lat="44.21923745563876" lon="9.976210172210576"><ele>78.0</ele><time>2026-04-06T08:15:03Z</time></trkpt><trkpt lat="44.21932471112773" lon="9.976190187784553"><ele>78.25</ele><time>2026-04-06T08:15:03.999Z</time></trkpt><trkpt lat="44.21943251027693" lon="9.97615308083679"><ele>78.5</ele><time>2026-04-06T08:15:04.999Z</time></trkpt><trkpt lat="44.219553159120444" lon="9.976109443710767"><ele>78.75</ele><time>2026-04-06T08:15:05.999Z</time></trkpt><trkpt lat="44.21968602786048" lon="9.976069956385478"><ele>79.0</ele><time>2026-04-06T08:15:06.999Z</time></trkpt><trkpt lat="44.219815563192185" lon="9.976031710055413"><ele>76.5</ele><time>2026-04-06T08:15:07.999Z</time></trkpt><trkpt lat="44.21994602863906" lon="9.975992236073624"><ele>74.0</ele><time>2026-04-06T08:15:08.999Z</time></trkpt><trkpt lat="44.22008919659007" lon="9.97595151072311"><ele>71.5</ele><time>2026-04-06T08:15:09.999Z</time></trkpt><trkpt lat="44.220237965186826" lon="9.975912644034645"><ele>69.0</ele><time>2026-04-06T08:15:10.999Z</time></trkpt><trkpt lat="44.22038758276271" lon="9.975886211141136"><ele>69.0</ele><time>2026-04-06T08:15:11.999Z</time></trkpt><trkpt lat="44.2205430299045" lon="9.975854978160159"><ele>69.0</ele><time>2026-04-06T08:15:12.999Z</time></trkpt><trkpt lat="44.22070906422288" lon="9.97583312542133"><ele>69.0</ele><time>2026-04-06T08:15:13.999Z</time></trkpt><trkpt lat="44.22088038093582" lon="9.975810484178076"><ele>69.0</ele><time>2026-04-06T08:15:14.999Z</time></trkpt><trkpt lat="44.22105485709151" lon="9.975797729127878"><ele>69.0</ele><time>2026-04-06T08:15:15.999Z</time></trkpt><trkpt lat="44.22123240339392" lon="9.975772784687026"><ele>69.0</ele><time>2026-04-06T08:15:16.999Z</time></trkpt><trkpt lat="44.22141660751225" lon="9.975725505206224"><ele>71.66666666666667</ele><time>2026-04-06T08:15:17.999Z</time></trkpt><trkpt lat="44.22158402380754" lon="9.975664345074808"><ele>74.33333333333334</ele><time>2026-04-06T08:15:18.999Z</time></trkpt><trkpt lat="44.22176527040788" lon="9.975580316319729"><ele>77.0</ele><time>2026-04-06T08:15:19.999Z</time></trkpt><trkpt lat="44.22194240264961" lon="9.975488750583244"><ele>77.0</ele><time>2026-04-06T08:15:20.999Z</time></trkpt><trkpt lat="44.22213047787598" lon="9.975389762608106"><ele>77.0</ele><time>2026-04-06T08:15:21.999Z</time></trkpt><trkpt lat="44.22230811379227" lon="9.97529689502651"><ele>77.0</ele><time>2026-04-06T08:15:22.999Z</time></trkpt><trkpt lat="44.22248437399396" lon="9.975204030376256"><ele>78.66666666666667</ele><time>2026-04-06T08:15:23.999Z</time></trkpt><trkpt lat="44.22265580649512" lon="9.97511606119767"><ele>80.33333333333333</ele><time>2026-04-06T08:15:24.999Z</time></trkpt><trkpt lat="44.222826667886444" lon="9.975019243048585"><ele>82.0</ele><time>2026-04-06T08:15:25.999Z</time></trkpt><trkpt lat="44.22298696820041" lon="9.974935777091341"><ele>77.33333333333333</ele><time>2026-04-06T08:15:26.999Z</time></trkpt><trkpt lat="44.22313642805459" lon="9.974852167144412"><ele>72.66666666666667</ele><time>2026-04-06T08:15:27.999Z</time></trkpt><trkpt lat="44.22329861929925" lon="9.9747574340517"><ele>68.0</ele><time>2026-04-06T08:15:28.999Z</time></trkpt><trkpt lat="44.22345154360967" lon="9.9746622226578"><ele>67.75</ele><time>2026-04-06T08:15:29.999Z</time></trkpt><trkpt lat="44.223595916177715" lon="9.974567836989298"><ele>67.5</ele><time>2026-04-06T08:15:30.999Z</time></trkpt><trkpt lat="44.22372669018367" lon="9.974487369746372"><ele>67.25</ele><time>2026-04-06T08:15:31.999Z</time></trkpt><trkpt lat="44.223848022340675" lon="9.974410998780092"><ele>67.0</ele><time>2026-04-06T08:15:32.999Z</time></trkpt><trkpt lat="44.22395121814321" lon="9.97434713782459"><ele>67.4</ele><time>2026-04-06T08:15:33.999Z</time></trkpt><trkpt lat="44.22404420947542" lon="9.974286283186265"><ele>67.80000000000001</ele><time>2026-04-06T08:15:34.999Z</time></trkpt><trkpt lat="44.22412131132378" lon="9.974234077192781"><ele>68.2</ele><time>2026-04-06T08:15:35.999Z</time></trkpt><trkpt lat="44.22418594923182" lon="9.974197917809862"><ele>68.60000000000001</ele><time>2026-04-06T08:15:36.999Z</time></trkpt><trkpt lat="44.22427452020199" lon="9.974190429246422"><ele>69.0</ele><time>2026-04-06T08:15:38.999Z</time></trkpt><trkpt lat="44.22436826310345" lon="9.974310516506039"><ele>69.0</ele><time>2026-04-06T08:15:53Z</time></trkpt><trkpt lat="44.22440328401155" lon="9.974469458920618"><ele>69.0</ele><time>2026-04-06T08:15:54Z</time></trkpt><trkpt lat="44.224433961581425" lon="9.974645545620564"><ele>69.0</ele><time>2026-04-06T08:15:55Z</time></trkpt><trkpt lat="44.22447157342932" lon="9.974849470946634"><ele>69.0</ele><time>2026-04-06T08:15:56Z</time></trkpt><trkpt lat="44.224503726545976" lon="9.975064973784727"><ele>70.25</ele><time>2026-04-06T08:15:57Z</time></trkpt><trkpt lat="44.22452677040574" lon="9.975273954286653"><ele>71.5</ele><time>2026-04-06T08:15:58Z</time></trkpt><trkpt lat="44.22454771917395" lon="9.975475615438144"><ele>72.75</ele><time>2026-04-06T08:15:59Z</time></trkpt><trkpt lat="44.22457249238017" lon="9.975669103305918"><ele>74.0</ele><time>2026-04-06T08:16:00Z</time></trkpt><trkpt lat="44.22459214970866" lon="9.975855344534077"><ele>76.75</ele><time>2026-04-06T08:16:01Z</time></trkpt><trkpt lat="44.22461047115962" lon="9.976043373670233"><ele>79.5</ele><time>2026-04-06T08:16:02Z</time></trkpt><trkpt lat="44.2246345504646" lon="9.976220561845706"><ele>82.25</ele><time>2026-04-06T08:16:03Z</time></trkpt><trkpt lat="44.224665378164325" lon="9.976393908709277"><ele>85.0</ele><time>2026-04-06T08:16:04Z</time></trkpt><trkpt lat="44.22471123439159" lon="9.97656084218184"><ele>83.75</ele><time>2026-04-06T08:16:05Z</time></trkpt><trkpt lat="44.22477194607819" lon="9.97672342926899"><ele>82.5</ele><time>2026-04-06T08:16:06Z</time></trkpt><trkpt lat="44.22483267635305" lon="9.976888437618122"><ele>81.25</ele><time>2026-04-06T08:16:07Z</time></trkpt><trkpt lat="44.224888471835875" lon="9.977057127482889"><ele>80.0</ele><time>2026-04-06T08:16:08Z</time></trkpt><trkpt lat="44.22494251247773" lon="9.977228708421652"><ele>80.0</ele><time>2026-04-06T08:16:09Z</time></trkpt><trkpt lat="44.22499662944716" lon="9.977400881059307"><ele>80.0</ele><time>2026-04-06T08:16:10Z</time></trkpt><trkpt lat="44.22504715285955" lon="9.977555983953442"><ele>80.0</ele><time>2026-04-06T08:16:11Z</time></trkpt><trkpt lat="44.22509089158782" lon="9.97769203740116"><ele>80.0</ele><time>2026-04-06T08:16:12Z</time></trkpt><trkpt lat="44.225135218022416" lon="9.977826885025783"><ele>82.5</ele><time>2026-04-06T08:16:13Z</time></trkpt><trkpt lat="44.2251875984501" lon="9.977939768157809"><ele>85.0</ele><time>2026-04-06T08:16:14Z</time></trkpt><trkpt lat="44.225252838866226" lon="9.978026352404036"><ele>87.5</ele><time>2026-04-06T08:16:15Z</time></trkpt><trkpt lat="44.225336541505534" lon="9.978073697634297"><ele>90.0</ele><time>2026-04-06T08:16:16Z</time></trkpt><trkpt lat="44.22542092157925" lon="9.97809765360115"><ele>92.5</ele><time>2026-04-06T08:16:17Z</time></trkpt><trkpt lat="44.225502541724246" lon="9.978121314887575"><ele>95.0</ele><time>2026-04-06T08:16:18Z</time></trkpt><trkpt lat="44.22558554295624" lon="9.978155607982444"><ele>93.6</ele><time>2026-04-06T08:16:19Z</time></trkpt><trkpt lat="44.22566627703302" lon="9.978203666185346"><ele>92.2</ele><time>2026-04-06T08:16:20Z</time></trkpt><trkpt lat="44.22575574168879" lon="9.97827100464068"><ele>90.80000000000001</ele><time>2026-04-06T08:16:21Z</time></trkpt><trkpt lat="44.22585222291605" lon="9.978367221914723"><ele>89.4</ele><time>2026-04-06T08:16:22Z</time></trkpt><trkpt lat="44.225951924469655" lon="9.978472381681236"><ele>88.0</ele><time>2026-04-06T08:16:23Z</time></trkpt><trkpt lat="44.22603920799782" lon="9.978564949889593"><ele>91.2</ele><time>2026-04-06T08:16:24Z</time></trkpt><trkpt lat="44.22611484685111" lon="9.978647360497199"><ele>94.4</ele><time>2026-04-06T08:16:25Z</time></trkpt><trkpt lat="44.226190381807285" lon="9.9787241152935"><ele>97.60000000000001</ele><time>2026-04-06T08:16:26Z</time></trkpt><trkpt lat="44.22626289340905" lon="9.97880671439999"><ele>100.80000000000001</ele><time>2026-04-06T08:16:27Z</time></trkpt><trkpt lat="44.22631469723271" lon="9.978898537351139"><ele>104.0</ele><time>2026-04-06T08:16:28Z</time></trkpt><trkpt lat="44.226348430076975" lon="9.979005715887343"><ele>104.0</ele><time>2026-04-06T08:16:29Z</time></trkpt><trkpt lat="44.226346967678396" lon="9.97913196602165"><ele>104.0</ele><time>2026-04-06T08:16:30Z</time></trkpt><trkpt lat="44.226332698546685" lon="9.979266518840175"><ele>104.0</ele><time>2026-04-06T08:16:31Z</time></trkpt><trkpt lat="44.22631106386166" lon="9.979403652043544"><ele>104.0</ele><time>2026-04-06T08:16:32Z</time></trkpt><trkpt lat="44.226298596629846" lon="9.979538929159133"><ele>104.0</ele><time>2026-04-06T08:16:33Z</time></trkpt><trkpt lat="44.22629696251581" lon="9.979671385316454"><ele>106.0</ele><time>2026-04-06T08:16:34Z</time></trkpt><trkpt lat="44.22630928488384" lon="9.979804310709962"><ele>108.0</ele><time>2026-04-06T08:16:35Z</time></trkpt><trkpt lat="44.22632556213742" lon="9.979946897125547"><ele>110.0</ele><time>2026-04-06T08:16:36Z</time></trkpt><trkpt lat="44.22634580093793" lon="9.980109782913772"><ele>112.0</ele><time>2026-04-06T08:16:37Z</time></trkpt><trkpt lat="44.2263650168673" lon="9.980298178961085"><ele>113.5</ele><time>2026-04-06T08:16:38Z</time></trkpt><trkpt lat="44.226375387892176" lon="9.980479931832239"><ele>115.0</ele><time>2026-04-06T08:16:39Z</time></trkpt><trkpt lat="44.22637812743004" lon="9.980651703149537"><ele>116.5</ele><time>2026-04-06T08:16:40Z</time></trkpt><trkpt lat="44.2263696856144" lon="9.98083188392716"><ele>118.0</ele><time>2026-04-06T08:16:41Z</time></trkpt><trkpt lat="44.22636029470327" lon="9.981014649286855"><ele>118.0</ele><time>2026-04-06T08:16:42Z</time></trkpt><trkpt lat="44.22635125392881" lon="9.981185283245228"><ele>118.0</ele><time>2026-04-06T08:16:43Z</time></trkpt><trkpt lat="44.22634181666162" lon="9.981341076472157"><ele>118.0</ele><time>2026-04-06T08:16:44Z</time></trkpt><trkpt lat="44.226334964785956" lon="9.98149214346423"><ele>118.0</ele><time>2026-04-06T08:16:45Z</time></trkpt><trkpt lat="44.226325852910186" lon="9.981650130354724"><ele>117.75</ele><time>2026-04-06T08:16:46Z</time></trkpt><trkpt lat="44.22632278198369" lon="9.98180571292152"><ele>117.5</ele><time>2026-04-06T08:16:47Z</time></trkpt><trkpt lat="44.226339200020625" lon="9.981964945294607"><ele>117.25</ele><time>2026-04-06T08:16:48Z</time></trkpt><trkpt lat="44.226387802502806" lon="9.982131072077427"><ele>117.0</ele><time>2026-04-06T08:16:49Z</time></trkpt><trkpt lat="44.226474898774335" lon="9.982322023109182"><ele>111.0</ele><time>2026-04-06T08:16:50Z</time></trkpt><trkpt lat="44.22657296240527" lon="9.982572755882844"><ele>105.0</ele><time>2026-04-06T08:16:51Z</time></trkpt><trkpt lat="44.226696810850065" lon="9.982845447984833"><ele>99.0</ele><time>2026-04-06T08:16:52Z</time></trkpt><trkpt lat="44.22682199099247" lon="9.983125987590304"><ele>103.0</ele><time>2026-04-06T08:16:53Z</time></trkpt><trkpt lat="44.226953069502784" lon="9.983404927847365"><ele>107.0</ele><time>2026-04-06T08:16:54Z</time></trkpt><trkpt lat="44.227068136357126" lon="9.983648878695215"><ele>111.0</ele><time>2026-04-06T08:16:55Z</time></trkpt><trkpt lat="44.227163770980255" lon="9.98385977631362"><ele>111.0</ele><time>2026-04-06T08:16:56Z</time></trkpt><trkpt lat="44.22725808699419" lon="9.984034809727468"><ele>111.0</ele><time>2026-04-06T08:16:57Z</time></trkpt><trkpt lat="44.22733449896668" lon="9.984212011083995"><ele>111.0</ele><time>2026-04-06T08:16:58Z</time></trkpt><trkpt lat="44.22741228073001" lon="9.984383375070426"><ele>107.75</ele><time>2026-04-06T08:16:59Z</time></trkpt><trkpt lat="44.227484598453955" lon="9.984554872898418"><ele>104.5</ele><time>2026-04-06T08:17:00Z</time></trkpt><trkpt lat="44.22755758339171" lon="9.98472771805891"><ele>101.25</ele><time>2026-04-06T08:17:01Z</time></trkpt><trkpt lat="44.2276413567419" lon="9.984891506266546"><ele>98.0</ele><time>2026-04-06T08:17:02Z</time></trkpt><trkpt lat="44.227744435000254" lon="9.985046209628113"><ele>98.0</ele><time>2026-04-06T08:17:03Z</time></trkpt><trkpt lat="44.22786230124099" lon="9.9851936389597"><ele>98.0</ele><time>2026-04-06T08:17:04Z</time></trkpt><trkpt lat="44.22798250594634" lon="9.985333325481554"><ele>98.0</ele><time>2026-04-06T08:17:05Z</time></trkpt><trkpt lat="44.228097112137654" lon="9.98546395613283"><ele>97.25</ele><time>2026-04-06T08:17:06Z</time></trkpt><trkpt lat="44.228208126677835" lon="9.985589228076774"><ele>96.5</ele><time>2026-04-06T08:17:06.999Z</time></trkpt><trkpt lat="44.228306931286184" lon="9.985702557534667"><ele>95.75</ele><time>2026-04-06T08:17:07.999Z</time></trkpt><trkpt lat="44.22839463911531" lon="9.985801081683407"><ele>95.0</ele><time>2026-04-06T08:17:08.999Z</time></trkpt><trkpt lat="44.22846954939227" lon="9.985889195708035"><ele>95.0</ele><time>2026-04-06T08:17:09.999Z</time></trkpt><trkpt lat="44.228539774311066" lon="9.985963347058172"><ele>95.0</ele><time>2026-04-06T08:17:10.999Z</time></trkpt><trkpt lat="44.2286056776797" lon="9.986038428708806"><ele>95.0</ele><time>2026-04-06T08:17:11.999Z</time></trkpt><trkpt lat="44.22871768459245" lon="9.986006526218794"><ele>95.0</ele><time>2026-04-06T08:17:12.999Z</time></trkpt><trkpt lat="44.22881012079993" lon="9.98597432681004"><ele>95.0</ele><time>2026-04-06T08:17:13.999Z</time></trkpt><trkpt lat="44.22888894342235" lon="9.985905660883494"><ele>95.0</ele><time>2026-04-06T08:17:14.999Z</time></trkpt><trkpt lat="44.2289671196857" lon="9.985853367187824"><ele>95.0</ele><time>2026-04-06T08:17:15.999Z</time></trkpt><trkpt lat="44.229023519724606" lon="9.985769225305537"><ele>95.0</ele><time>2026-04-06T08:17:16.999Z</time></trkpt><trkpt lat="44.22910925486096" lon="9.98573382649564"><ele>95.0</ele><time>2026-04-06T08:17:17.999Z</time></trkpt><trkpt lat="44.22920965800952" lon="9.985760273827708"><ele>95.0</ele><time>2026-04-06T08:17:18.999Z</time></trkpt><trkpt lat="44.229319700538205" lon="9.9857939693765"><ele>96.0</ele><time>2026-04-06T08:17:19.999Z</time></trkpt><trkpt lat="44.22944380677776" lon="9.98583655755429"><ele>97.0</ele><time>2026-04-06T08:17:20.999Z</time></trkpt><trkpt lat="44.22960339482709" lon="9.985888696090479"><ele>98.0</ele><time>2026-04-06T08:17:21.999Z</time></trkpt><trkpt lat="44.22978754585733" lon="9.985946494747228"><ele>99.33333333333333</ele><time>2026-04-06T08:17:22.999Z</time></trkpt><trkpt lat="44.22995100369808" lon="9.985994026492799"><ele>100.66666666666666</ele><time>2026-04-06T08:17:23.999Z</time></trkpt><trkpt lat="44.2301038922906" lon="9.986017027367266"><ele>102.0</ele><time>2026-04-06T08:17:24.999Z</time></trkpt><trkpt lat="44.230233616011695" lon="9.98606757974853"><ele>102.0</ele><time>2026-04-06T08:17:25.999Z</time></trkpt><trkpt lat="44.23034150785987" lon="9.986138109475418"><ele>102.0</ele><time>2026-04-06T08:17:26.999Z</time></trkpt><trkpt lat="44.230437000412806" lon="9.986246420434895"><ele>102.0</ele><time>2026-04-06T08:17:27.999Z</time></trkpt><trkpt lat="44.23053579596809" lon="9.986397205134145"><ele>102.0</ele><time>2026-04-06T08:17:28.999Z</time></trkpt><trkpt lat="44.230652448494965" lon="9.98656603591708"><ele>103.0</ele><time>2026-04-06T08:17:29.999Z</time></trkpt><trkpt lat="44.23078073487524" lon="9.986744266567051"><ele>104.0</ele><time>2026-04-06T08:17:30.999Z</time></trkpt><trkpt lat="44.230908689685336" lon="9.986927334087234"><ele>105.0</ele><time>2026-04-06T08:17:31.999Z</time></trkpt><trkpt lat="44.23102907263158" lon="9.987097689780123"><ele>105.0</ele><time>2026-04-06T08:17:32.999Z</time></trkpt><trkpt lat="44.23113394664565" lon="9.987245237276804"><ele>105.0</ele><time>2026-04-06T08:17:33.999Z</time></trkpt><trkpt lat="44.23124980228856" lon="9.987405696997618"><ele>105.0</ele><time>2026-04-06T08:17:34.999Z</time></trkpt><trkpt lat="44.23139504011018" lon="9.987587278777111"><ele>106.0</ele><time>2026-04-06T08:17:35.999Z</time></trkpt><trkpt lat="44.231537392617646" lon="9.98781684587801"><ele>107.0</ele><time>2026-04-06T08:17:36.999Z</time></trkpt><trkpt lat="44.231713233617434" lon="9.988033276346687"><ele>107.0</ele><time>2026-04-06T08:17:37.999Z</time></trkpt><trkpt lat="44.23190953878038" lon="9.988262000632133"><ele>107.0</ele><time>2026-04-06T08:17:38.999Z</time></trkpt><trkpt lat="44.23208909305778" lon="9.988459318293884"><ele>107.0</ele><time>2026-04-06T08:17:39.999Z</time></trkpt><trkpt lat="44.23223924004869" lon="9.98865725671812"><ele>107.0</ele><time>2026-04-06T08:17:40.999Z</time></trkpt><trkpt lat="44.23237324011879" lon="9.988838575779868"><ele>107.0</ele><time>2026-04-06T08:17:41.999Z</time></trkpt><trkpt lat="44.232495793250436" lon="9.98903297952177"><ele>107.66666666666666</ele><time>2026-04-06T08:17:42.999Z</time></trkpt><trkpt lat="44.232618833785764" lon="9.989225584194827"><ele>108.33333333333334</ele><time>2026-04-06T08:17:43.999Z</time></trkpt><trkpt lat="44.23273998021613" lon="9.989414906578558"><ele>109.0</ele><time>2026-04-06T08:17:44.999Z</time></trkpt><trkpt lat="44.23285939372542" lon="9.989607533736747"><ele>109.0</ele><time>2026-04-06T08:17:45.999Z</time></trkpt><trkpt lat="44.23296935398142" lon="9.989796744895406"><ele>109.0</ele><time>2026-04-06T08:17:47Z</time></trkpt><trkpt lat="44.23307445280126" lon="9.989979324032248"><ele>109.0</ele><time>2026-04-06T08:17:48Z</time></trkpt><trkpt lat="44.23318467834736" lon="9.99017000174121"><ele>110.33333333333334</ele><time>2026-04-06T08:17:49Z</time></trkpt><trkpt lat="44.233318371895386" lon="9.990344973679624"><ele>111.66666666666666</ele><time>2026-04-06T08:17:50Z</time></trkpt><trkpt lat="44.23342238415936" lon="9.990508435400871"><ele>113.0</ele><time>2026-04-06T08:17:51Z</time></trkpt><trkpt lat="44.23352566391334" lon="9.990671119707805"><ele>113.0</ele><time>2026-04-06T08:17:52Z</time></trkpt><trkpt lat="44.23362881991385" lon="9.990837447562747"><ele>113.0</ele><time>2026-04-06T08:17:53Z</time></trkpt><trkpt lat="44.233736724045535" lon="9.991006061231479"><ele>113.0</ele><time>2026-04-06T08:17:54Z</time></trkpt><trkpt lat="44.233852623912945" lon="9.991178490258038"><ele>113.66666666666666</ele><time>2026-04-06T08:17:55Z</time></trkpt><trkpt lat="44.2339737690853" lon="9.991358919026542"><ele>114.33333333333334</ele><time>2026-04-06T08:17:56Z</time></trkpt><trkpt lat="44.234076615636326" lon="9.991559084201265"><ele>115.0</ele><time>2026-04-06T08:17:57Z</time></trkpt><trkpt lat="44.23418938225135" lon="9.99173976262536"><ele>115.0</ele><time>2026-04-06T08:17:58Z</time></trkpt><trkpt lat="44.234301584271755" lon="9.991912193240076"><ele>115.0</ele><time>2026-04-06T08:17:59Z</time></trkpt><trkpt lat="44.234418341023954" lon="9.992090305252914"><ele>115.0</ele><time>2026-04-06T08:18:00Z</time></trkpt><trkpt lat="44.23452409195701" lon="9.992242170232727"><ele>115.0</ele><time>2026-04-06T08:18:01Z</time></trkpt><trkpt lat="44.2346337644037" lon="9.992392231380135"><ele>115.0</ele><time>2026-04-06T08:18:02Z</time></trkpt><trkpt lat="44.23472605785086" lon="9.992560957696078"><ele>115.0</ele><time>2026-04-06T08:18:03Z</time></trkpt><trkpt lat="44.23481867601677" lon="9.992749945698442"><ele>115.33333333333334</ele><time>2026-04-06T08:18:04Z</time></trkpt><trkpt lat="44.23490854762713" lon="9.99295881959421"><ele>115.66666666666666</ele><time>2026-04-06T08:18:05Z</time></trkpt><trkpt lat="44.234996327165625" lon="9.993185784070416"><ele>116.0</ele><time>2026-04-06T08:18:06Z</time></trkpt><trkpt lat="44.235087333098406" lon="9.99341704182065"><ele>116.0</ele><time>2026-04-06T08:18:07Z</time></trkpt><trkpt lat="44.235178733815" lon="9.993651885456417"><ele>116.0</ele><time>2026-04-06T08:18:08Z</time></trkpt><trkpt lat="44.23527231802833" lon="9.993895156144367"><ele>116.0</ele><time>2026-04-06T08:18:09Z</time></trkpt><trkpt lat="44.235359202657776" lon="9.99412652695875"><ele>117.0</ele><time>2026-04-06T08:18:10Z</time></trkpt><trkpt lat="44.23544269816059" lon="9.994339810930317"><ele>118.0</ele><time>2026-04-06T08:18:11Z</time></trkpt><trkpt lat="44.23552839435012" lon="9.994533270238803"><ele>119.0</ele><time>2026-04-06T08:18:12Z</time></trkpt><trkpt lat="44.2356419461371" lon="9.994712542087774"><ele>118.66666666666666</ele><time>2026-04-06T08:18:13Z</time></trkpt><trkpt lat="44.235778036243175" lon="9.994861526436901"><ele>118.33333333333334</ele><time>2026-04-06T08:18:14Z</time></trkpt><trkpt lat="44.2359401103358" lon="9.994978855314828"><ele>118.0</ele><time>2026-04-06T08:18:15Z</time></trkpt><trkpt lat="44.23609352316432" lon="9.995087223478226"><ele>118.0</ele><time>2026-04-06T08:18:16Z</time></trkpt><trkpt lat="44.23621400927449" lon="9.995214130901472"><ele>118.0</ele><time>2026-04-06T08:18:17Z</time></trkpt><trkpt lat="44.23630113693124" lon="9.995392988415222"><ele>118.0</ele><time>2026-04-06T08:18:18Z</time></trkpt><trkpt lat="44.236400330591806" lon="9.995560838330151"><ele>117.33333333333334</ele><time>2026-04-06T08:18:19Z</time></trkpt><trkpt lat="44.23648617793058" lon="9.995742957418619"><ele>116.66666666666666</ele><time>2026-04-06T08:18:20Z</time></trkpt><trkpt lat="44.23659898834058" lon="9.995888471793627"><ele>116.0</ele><time>2026-04-06T08:18:21Z</time></trkpt><trkpt lat="44.23672691912047" lon="9.996035015429811"><ele>117.66666666666666</ele><time>2026-04-06T08:18:22Z</time></trkpt><trkpt lat="44.2368739784282" lon="9.996170327498545"><ele>119.33333333333334</ele><time>2026-04-06T08:18:23Z</time></trkpt><trkpt lat="44.23702752643711" lon="9.99630737248896"><ele>121.0</ele><time>2026-04-06T08:18:24Z</time></trkpt><trkpt lat="44.23718217153352" lon="9.996449497534067"><ele>121.0</ele><time>2026-04-06T08:18:25Z</time></trkpt><trkpt lat="44.23734172991751" lon="9.996598326695494"><ele>121.0</ele><time>2026-04-06T08:18:26Z</time></trkpt><trkpt lat="44.23748329638393" lon="9.996730213744273"><ele>121.0</ele><time>2026-04-06T08:18:27Z</time></trkpt><trkpt lat="44.23762562469469" lon="9.996862932929165"><ele>121.66666666666667</ele><time>2026-04-06T08:18:28Z</time></trkpt><trkpt lat="44.23777404838735" lon="9.996998685558117"><ele>122.33333333333334</ele><time>2026-04-06T08:18:29Z</time></trkpt><trkpt lat="44.23792350421132" lon="9.99714209016441"><ele>123.0</ele><time>2026-04-06T08:18:30Z</time></trkpt><trkpt lat="44.23807820345353" lon="9.997298240965053"><ele>123.33333333333334</ele><time>2026-04-06T08:18:31Z</time></trkpt><trkpt lat="44.23821894228553" lon="9.997440025027219"><ele>123.66666666666667</ele><time>2026-04-06T08:18:32Z</time></trkpt><trkpt lat="44.238351729222074" lon="9.997568856930094"><ele>124.0</ele><time>2026-04-06T08:18:33Z</time></trkpt><trkpt lat="44.23847328692341" lon="9.997719241333055"><ele>124.0</ele><time>2026-04-06T08:18:34Z</time></trkpt><trkpt lat="44.23856556413535" lon="9.997924060461063"><ele>124.0</ele><time>2026-04-06T08:18:35Z</time></trkpt><trkpt lat="44.23867433823592" lon="9.998139112477796"><ele>124.0</ele><time>2026-04-06T08:18:36Z</time></trkpt><trkpt lat="44.23878274254262" lon="9.998369434277954"><ele>124.33333333333334</ele><time>2026-04-06T08:18:37Z</time></trkpt><trkpt lat="44.238908398557356" lon="9.998612799183626"><ele>124.66666666666666</ele><time>2026-04-06T08:18:38Z</time></trkpt><trkpt lat="44.23904421359906" lon="9.998864049467102"><ele>125.0</ele><time>2026-04-06T08:18:39Z</time></trkpt><trkpt lat="44.23918213048969" lon="9.999112729608246"><ele>126.0</ele><time>2026-04-06T08:18:40Z</time></trkpt><trkpt lat="44.23930701421024" lon="9.999350801992927"><ele>127.0</ele><time>2026-04-06T08:18:41Z</time></trkpt><trkpt lat="44.23943242906997" lon="9.999584971093984"><ele>128.0</ele><time>2026-04-06T08:18:42Z</time></trkpt><trkpt lat="44.23955974802506" lon="9.999819923360795"><ele>128.0</ele><time>2026-04-06T08:18:43Z</time></trkpt><trkpt lat="44.23968816513496" lon="10.000056188220253"><ele>128.0</ele><time>2026-04-06T08:18:44Z</time></trkpt><trkpt lat="44.2398166891523" lon="10.000290987630251"><ele>128.0</ele><time>2026-04-06T08:18:45Z</time></trkpt><trkpt lat="44.23994320672726" lon="10.000520964728775"><ele>128.33333333333331</ele><time>2026-04-06T08:18:46Z</time></trkpt><trkpt lat="44.24006294866008" lon="10.000741524681755"><ele>128.66666666666666</ele><time>2026-04-06T08:18:47Z</time></trkpt><trkpt lat="44.240176830521705" lon="10.00094270714792"><ele>129.0</ele><time>2026-04-06T08:18:48Z</time></trkpt><trkpt lat="44.24028503666017" lon="10.001127600235447"><ele>129.0</ele><time>2026-04-06T08:18:49Z</time></trkpt><trkpt lat="44.24038867548094" lon="10.001303282599025"><ele>129.0</ele><time>2026-04-06T08:18:50Z</time></trkpt><trkpt lat="44.240486072011066" lon="10.001468563081678"><ele>129.0</ele><time>2026-04-06T08:18:51Z</time></trkpt><trkpt lat="44.2405853880279" lon="10.001641566403563"><ele>128.0</ele><time>2026-04-06T08:18:52Z</time></trkpt><trkpt lat="44.2406831481678" lon="10.001828038862117"><ele>127.0</ele><time>2026-04-06T08:18:53Z</time></trkpt><trkpt lat="44.240783045808776" lon="10.002029025537489"><ele>126.0</ele><time>2026-04-06T08:18:54Z</time></trkpt><trkpt lat="44.24088817380349" lon="10.002232286128123"><ele>126.0</ele><time>2026-04-06T08:18:55Z</time></trkpt><trkpt lat="44.2409968161246" lon="10.002435910835434"><ele>126.0</ele><time>2026-04-06T08:18:56Z</time></trkpt><trkpt lat="44.24109161041444" lon="10.002622819010885"><ele>126.0</ele><time>2026-04-06T08:18:57Z</time></trkpt><trkpt lat="44.24117853565639" lon="10.002791836617678"><ele>127.0</ele><time>2026-04-06T08:18:58Z</time></trkpt><trkpt lat="44.24126726789903" lon="10.002940125703491"><ele>128.0</ele><time>2026-04-06T08:18:59Z</time></trkpt><trkpt lat="44.24136716891594" lon="10.00306548747762"><ele>129.0</ele><time>2026-04-06T08:19:00Z</time></trkpt><trkpt lat="44.24147957209249" lon="10.003163421785054"><ele>130.0</ele><time>2026-04-06T08:19:01Z</time></trkpt><trkpt lat="44.24161862790873" lon="10.003231011347786"><ele>127.66666666666667</ele><time>2026-04-06T08:19:02Z</time></trkpt><trkpt lat="44.24177469667918" lon="10.003267911189845"><ele>125.33333333333334</ele><time>2026-04-06T08:19:03Z</time></trkpt><trkpt lat="44.24193970648041" lon="10.003299680436559"><ele>123.0</ele><time>2026-04-06T08:19:04Z</time></trkpt><trkpt lat="44.24211537099644" lon="10.003334151383086"><ele>123.0</ele><time>2026-04-06T08:19:05Z</time></trkpt><trkpt lat="44.24229531294629" lon="10.003377208501329"><ele>123.0</ele><time>2026-04-06T08:19:06Z</time></trkpt><trkpt lat="44.24247322159114" lon="10.003413602319396"><ele>123.0</ele><time>2026-04-06T08:19:07Z</time></trkpt><trkpt lat="44.242632382246896" lon="10.003446594049496"><ele>122.0</ele><time>2026-04-06T08:19:07.999Z</time></trkpt><trkpt lat="44.242773431993704" lon="10.003483769412306"><ele>121.0</ele><time>2026-04-06T08:19:08.999Z</time></trkpt><trkpt lat="44.24289531518865" lon="10.003536723131718"><ele>120.0</ele><time>2026-04-06T08:19:09.999Z</time></trkpt><trkpt lat="44.24300440688991" lon="10.003615883764484"><ele>119.0</ele><time>2026-04-06T08:19:10.999Z</time></trkpt><trkpt lat="44.24310993177175" lon="10.003731109401022"><ele>120.0</ele><time>2026-04-06T08:19:11.999Z</time></trkpt><trkpt lat="44.24321142585055" lon="10.00388186373283"><ele>121.0</ele><time>2026-04-06T08:19:12.999Z</time></trkpt><trkpt lat="44.24330579884252" lon="10.00406046085045"><ele>122.0</ele><time>2026-04-06T08:19:13.999Z</time></trkpt><trkpt lat="44.24339357508959" lon="10.004267411420008"><ele>122.0</ele><time>2026-04-06T08:19:14.999Z</time></trkpt><trkpt lat="44.24347478786597" lon="10.00447687895985"><ele>122.0</ele><time>2026-04-06T08:19:15.999Z</time></trkpt><trkpt lat="44.24357536573818" lon="10.004705859859337"><ele>122.0</ele><time>2026-04-06T08:19:16.999Z</time></trkpt><trkpt lat="44.243675963423065" lon="10.004929569898746"><ele>122.33333333333333</ele><time>2026-04-06T08:19:17.999Z</time></trkpt><trkpt lat="44.243766155669434" lon="10.0051262503438"><ele>122.66666666666666</ele><time>2026-04-06T08:19:18.999Z</time></trkpt><trkpt lat="44.243846848566236" lon="10.005328086905616"><ele>123.0</ele><time>2026-04-06T08:19:19.999Z</time></trkpt><trkpt lat="44.243897899178855" lon="10.005539869893523"><ele>123.0</ele><time>2026-04-06T08:19:20.999Z</time></trkpt><trkpt lat="44.243920118025855" lon="10.005775893886668"><ele>123.0</ele><time>2026-04-06T08:19:21.999Z</time></trkpt><trkpt lat="44.2439300379061" lon="10.006024358599076"><ele>123.0</ele><time>2026-04-06T08:19:22.999Z</time></trkpt><trkpt lat="44.243942141194104" lon="10.006277231770659"><ele>123.0</ele><time>2026-04-06T08:19:23.999Z</time></trkpt><trkpt lat="44.24395761937632" lon="10.006525773891772"><ele>123.0</ele><time>2026-04-06T08:19:24.999Z</time></trkpt><trkpt lat="44.24397290961549" lon="10.006772633536887"><ele>123.0</ele><time>2026-04-06T08:19:25.999Z</time></trkpt><trkpt lat="44.243978541634235" lon="10.006998815432247"><ele>123.5</ele><time>2026-04-06T08:19:26.999Z</time></trkpt><trkpt lat="44.24397037876087" lon="10.007192140807021"><ele>124.0</ele><time>2026-04-06T08:19:27.999Z</time></trkpt><trkpt lat="44.24395641003901" lon="10.007373807594531"><ele>124.5</ele><time>2026-04-06T08:19:28.999Z</time></trkpt><trkpt lat="44.24395634959024" lon="10.007527302027738"><ele>125.0</ele><time>2026-04-06T08:19:29.999Z</time></trkpt><trkpt lat="44.243996700909214" lon="10.007671475886667"><ele>128.5</ele><time>2026-04-06T08:19:30.999Z</time></trkpt><trkpt lat="44.244075904863095" lon="10.00782068957376"><ele>132.0</ele><time>2026-04-06T08:19:31.999Z</time></trkpt><trkpt lat="44.24418530651646" lon="10.007966533514827"><ele>135.5</ele><time>2026-04-06T08:19:32.999Z</time></trkpt><trkpt lat="44.24428545388542" lon="10.008140118852241"><ele>139.0</ele><time>2026-04-06T08:19:33.999Z</time></trkpt><trkpt lat="44.24439562575595" lon="10.008331422364668"><ele>140.33333333333334</ele><time>2026-04-06T08:19:34.999Z</time></trkpt><trkpt lat="44.24451521553232" lon="10.008539078987127"><ele>141.66666666666666</ele><time>2026-04-06T08:19:35.999Z</time></trkpt><trkpt lat="44.24462424348265" lon="10.00872929172706"><ele>143.0</ele><time>2026-04-06T08:19:36.999Z</time></trkpt><trkpt lat="44.24473450459182" lon="10.008919217804904"><ele>143.0</ele><time>2026-04-06T08:19:37.999Z</time></trkpt><trkpt lat="44.244844951189506" lon="10.009106791646621"><ele>143.0</ele><time>2026-04-06T08:19:38.999Z</time></trkpt><trkpt lat="44.24496681516997" lon="10.009288208316415"><ele>143.0</ele><time>2026-04-06T08:19:39.999Z</time></trkpt><trkpt lat="44.24507928802937" lon="10.009489786629443"><ele>143.66666666666666</ele><time>2026-04-06T08:19:40.999Z</time></trkpt><trkpt lat="44.245187376539455" lon="10.009682293493473"><ele>144.33333333333334</ele><time>2026-04-06T08:19:41.999Z</time></trkpt><trkpt lat="44.24530031047485" lon="10.009876296652031"><ele>145.0</ele><time>2026-04-06T08:19:42.999Z</time></trkpt><trkpt lat="44.24541204343684" lon="10.010067252387309"><ele>145.33333333333334</ele><time>2026-04-06T08:19:43.999Z</time></trkpt><trkpt lat="44.24552573369186" lon="10.010263540029438"><ele>145.66666666666666</ele><time>2026-04-06T08:19:44.999Z</time></trkpt><trkpt lat="44.2456391181819" lon="10.010461781269688"><ele>146.0</ele><time>2026-04-06T08:19:45.999Z</time></trkpt><trkpt lat="44.24575414216621" lon="10.010658502948498"><ele>146.66666666666666</ele><time>2026-04-06T08:19:46.999Z</time></trkpt><trkpt lat="44.24587076155855" lon="10.010855581095798"><ele>147.33333333333334</ele><time>2026-04-06T08:19:47.999Z</time></trkpt><trkpt lat="44.245986703148546" lon="10.011051401340671"><ele>148.0</ele><time>2026-04-06T08:19:48.999Z</time></trkpt><trkpt lat="44.24610060091957" lon="10.011248478090126"><ele>148.0</ele><time>2026-04-06T08:19:49.999Z</time></trkpt><trkpt lat="44.24620899939933" lon="10.011431489465814"><ele>148.0</ele><time>2026-04-06T08:19:50.999Z</time></trkpt><trkpt lat="44.246310975432856" lon="10.011604608152146"><ele>148.0</ele><time>2026-04-06T08:19:51.999Z</time></trkpt><trkpt lat="44.24640343632774" lon="10.011772553863695"><ele>148.5</ele><time>2026-04-06T08:19:53Z</time></trkpt><trkpt lat="44.24648928635586" lon="10.01194018316538"><ele>149.0</ele><time>2026-04-06T08:19:54Z</time></trkpt><trkpt lat="44.246566844107846" lon="10.012093617866899"><ele>149.5</ele><time>2026-04-06T08:19:55Z</time></trkpt><trkpt lat="44.24664229689226" lon="10.012244781677042"><ele>150.0</ele><time>2026-04-06T08:19:56Z</time></trkpt><trkpt lat="44.24671125909084" lon="10.01236812983063"><ele>150.0</ele><time>2026-04-06T08:19:57Z</time></trkpt><trkpt lat="44.246799727574654" lon="10.012480590360651"><ele>150.0</ele><time>2026-04-06T08:19:58Z</time></trkpt><trkpt lat="44.24692852800149" lon="10.012580057037901"><ele>150.0</ele><time>2026-04-06T08:19:59Z</time></trkpt><trkpt lat="44.247096798851736" lon="10.012654722081468"><ele>150.0</ele><time>2026-04-06T08:20:00Z</time></trkpt><trkpt lat="44.24729151044634" lon="10.012713553275795"><ele>151.66666666666666</ele><time>2026-04-06T08:20:01Z</time></trkpt><trkpt lat="44.247471338893426" lon="10.012779447491607"><ele>153.33333333333331</ele><time>2026-04-06T08:20:02Z</time></trkpt><trkpt lat="44.24763876529336" lon="10.012850118483874"><ele>155.0</ele><time>2026-04-06T08:20:03Z</time></trkpt><trkpt lat="44.247790002772504" lon="10.012911926706357"><ele>155.0</ele><time>2026-04-06T08:20:04Z</time></trkpt><trkpt lat="44.24792714272192" lon="10.01297069921164"><ele>155.0</ele><time>2026-04-06T08:20:05Z</time></trkpt><trkpt lat="44.24803597226512" lon="10.013045627892728"><ele>155.0</ele><time>2026-04-06T08:20:06Z</time></trkpt><trkpt lat="44.24813489686409" lon="10.013172439276072"><ele>155.0</ele><time>2026-04-06T08:20:07Z</time></trkpt><trkpt lat="44.24823041998927" lon="10.01333567811179"><ele>155.75</ele><time>2026-04-06T08:20:08Z</time></trkpt><trkpt lat="44.24831783308903" lon="10.013483493579562"><ele>156.5</ele><time>2026-04-06T08:20:09Z</time></trkpt><trkpt lat="44.248404126783655" lon="10.013600096280301"><ele>157.25</ele><time>2026-04-06T08:20:10Z</time></trkpt><trkpt lat="44.248495738368455" lon="10.013679241145466"><ele>158.0</ele><time>2026-04-06T08:20:11Z</time></trkpt><trkpt lat="44.24860233825382" lon="10.013712228495427"><ele>158.0</ele><time>2026-04-06T08:20:11.999Z</time></trkpt><trkpt lat="44.248726369297266" lon="10.013699123996131"><ele>158.0</ele><time>2026-04-06T08:20:12.999Z</time></trkpt><trkpt lat="44.248857082886765" lon="10.01364870539622"><ele>158.0</ele><time>2026-04-06T08:20:13.999Z</time></trkpt><trkpt lat="44.24900128850045" lon="10.013575999186498"><ele>158.0</ele><time>2026-04-06T08:20:14.999Z</time></trkpt><trkpt lat="44.249159963665434" lon="10.013507533966685"><ele>158.5</ele><time>2026-04-06T08:20:15.999Z</time></trkpt><trkpt lat="44.249300064889866" lon="10.013437503420676"><ele>159.0</ele><time>2026-04-06T08:20:16.999Z</time></trkpt><trkpt lat="44.24942814622499" lon="10.01335001814445"><ele>159.5</ele><time>2026-04-06T08:20:17.999Z</time></trkpt><trkpt lat="44.24954797958173" lon="10.013273750095077"><ele>160.0</ele><time>2026-04-06T08:20:18.999Z</time></trkpt><trkpt lat="44.24966052524148" lon="10.013217523400282"><ele>160.0</ele><time>2026-04-06T08:20:19.998Z</time></trkpt><trkpt lat="44.2497534605753" lon="10.013174940246078"><ele>160.0</ele><time>2026-04-06T08:20:20.998Z</time></trkpt><trkpt lat="44.249833713678214" lon="10.013155529903274"><ele>160.0</ele><time>2026-04-06T08:20:21.998Z</time></trkpt><trkpt lat="44.24993625638153" lon="10.013206073228535"><ele>160.0</ele><time>2026-04-06T08:20:23.998Z</time></trkpt><trkpt lat="44.2500391870289" lon="10.013356970555742"><ele>160.0</ele><time>2026-04-06T08:20:25.998Z</time></trkpt><trkpt lat="44.25009690483825" lon="10.013524483949586"><ele>161.0</ele><time>2026-04-06T08:20:26.998Z</time></trkpt><trkpt lat="44.250157352398936" lon="10.013741526789193"><ele>162.0</ele><time>2026-04-06T08:20:27.998Z</time></trkpt><trkpt lat="44.250218683525446" lon="10.013943902461829"><ele>163.0</ele><time>2026-04-06T08:20:28.998Z</time></trkpt><trkpt lat="44.25028586311399" lon="10.014142523415162"><ele>163.33333333333334</ele><time>2026-04-06T08:20:29.998Z</time></trkpt><trkpt lat="44.25035094066112" lon="10.01434472624546"><ele>163.66666666666666</ele><time>2026-04-06T08:20:30.998Z</time></trkpt><trkpt lat="44.25041410311959" lon="10.014548421242663"><ele>164.0</ele><time>2026-04-06T08:20:31.998Z</time></trkpt><trkpt lat="44.250471811819125" lon="10.014750857849263"><ele>164.0</ele><time>2026-04-06T08:20:32.997Z</time></trkpt><trkpt lat="44.25052062183114" lon="10.014940109333454"><ele>164.0</ele><time>2026-04-06T08:20:33.997Z</time></trkpt><trkpt lat="44.250556170824964" lon="10.015107587126883"><ele>164.0</ele><time>2026-04-06T08:20:34.997Z</time></trkpt><trkpt lat="44.250586545459015" lon="10.01526594904509"><ele>164.0</ele><time>2026-04-06T08:20:35.997Z</time></trkpt><trkpt lat="44.25061860319548" lon="10.015417835604818"><ele>164.5</ele><time>2026-04-06T08:20:36.997Z</time></trkpt><trkpt lat="44.25065986239481" lon="10.015586261255482"><ele>165.0</ele><time>2026-04-06T08:20:37.997Z</time></trkpt><trkpt lat="44.25070495889753" lon="10.015765183038873"><ele>165.5</ele><time>2026-04-06T08:20:38.997Z</time></trkpt><trkpt lat="44.25076085308525" lon="10.015968434074848"><ele>166.0</ele><time>2026-04-06T08:20:39.997Z</time></trkpt><trkpt lat="44.250822604056815" lon="10.016169706451306"><ele>166.0</ele><time>2026-04-06T08:20:40.997Z</time></trkpt><trkpt lat="44.25088746883286" lon="10.016361059485853"><ele>166.0</ele><time>2026-04-06T08:20:41.997Z</time></trkpt><trkpt lat="44.25096489331752" lon="10.01655133025513"><ele>166.0</ele><time>2026-04-06T08:20:42.997Z</time></trkpt><trkpt lat="44.25105319259401" lon="10.016740824094697"><ele>166.0</ele><time>2026-04-06T08:20:43.997Z</time></trkpt><trkpt lat="44.25115355641838" lon="10.016923515979823"><ele>166.0</ele><time>2026-04-06T08:20:44.997Z</time></trkpt><trkpt lat="44.2512673942829" lon="10.017116074855464"><ele>166.0</ele><time>2026-04-06T08:20:45.997Z</time></trkpt><trkpt lat="44.251374808153344" lon="10.017315383395708"><ele>167.33333333333334</ele><time>2026-04-06T08:20:46.997Z</time></trkpt><trkpt lat="44.25147075486721" lon="10.01749418374763"><ele>168.66666666666666</ele><time>2026-04-06T08:20:47.997Z</time></trkpt><trkpt lat="44.25156826776921" lon="10.017671433300098"><ele>170.0</ele><time>2026-04-06T08:20:48.997Z</time></trkpt><trkpt lat="44.251666947403734" lon="10.017848430057159"><ele>170.0</ele><time>2026-04-06T08:20:49.997Z</time></trkpt><trkpt lat="44.25176741434827" lon="10.018023047083767"><ele>170.0</ele><time>2026-04-06T08:20:50.997Z</time></trkpt><trkpt lat="44.25187074629167" lon="10.018193598783395"><ele>170.0</ele><time>2026-04-06T08:20:51.997Z</time></trkpt><trkpt lat="44.25196595618514" lon="10.018354208645343"><ele>169.75</ele><time>2026-04-06T08:20:52.997Z</time></trkpt><trkpt lat="44.25205320938153" lon="10.018499280173268"><ele>169.5</ele><time>2026-04-06T08:20:53.997Z</time></trkpt><trkpt lat="44.25213844546018" lon="10.018636014627004"><ele>169.25</ele><time>2026-04-06T08:20:54.997Z</time></trkpt><trkpt lat="44.25221868328817" lon="10.01876284317273"><ele>169.0</ele><time>2026-04-06T08:20:55.997Z</time></trkpt><trkpt lat="44.252297441215305" lon="10.018881244064469"><ele>170.0</ele><time>2026-04-06T08:20:56.997Z</time></trkpt><trkpt lat="44.252377974001185" lon="10.018993696129467"><ele>171.0</ele><time>2026-04-06T08:20:57.997Z</time></trkpt><trkpt lat="44.25245658006801" lon="10.019100886279974"><ele>172.0</ele><time>2026-04-06T08:20:58.997Z</time></trkpt><trkpt lat="44.25253783672504" lon="10.019199873305995"><ele>173.0</ele><time>2026-04-06T08:20:59.997Z</time></trkpt><trkpt lat="44.25262374281293" lon="10.019298241314633"><ele>174.0</ele><time>2026-04-06T08:21:00.997Z</time></trkpt><trkpt lat="44.25271250288697" lon="10.019393606269793"><ele>174.0</ele><time>2026-04-06T08:21:01.997Z</time></trkpt><trkpt lat="44.252805890060415" lon="10.019494363307004"><ele>174.0</ele><time>2026-04-06T08:21:02.997Z</time></trkpt><trkpt lat="44.25289887448604" lon="10.019607816757132"><ele>174.0</ele><time>2026-04-06T08:21:03.997Z</time></trkpt><trkpt lat="44.252982269667726" lon="10.019724625237423"><ele>174.0</ele><time>2026-04-06T08:21:04.997Z</time></trkpt><trkpt lat="44.2530575522971" lon="10.019858100756222"><ele>173.5</ele><time>2026-04-06T08:21:05.997Z</time></trkpt><trkpt lat="44.25312057567799" lon="10.02000009704603"><ele>173.0</ele><time>2026-04-06T08:21:06.996Z</time></trkpt><trkpt lat="44.25317753316563" lon="10.020149637460817"><ele>172.5</ele><time>2026-04-06T08:21:07.996Z</time></trkpt><trkpt lat="44.25323548612773" lon="10.020296155173646"><ele>172.0</ele><time>2026-04-06T08:21:08.996Z</time></trkpt><trkpt lat="44.25328916866883" lon="10.020438012747428"><ele>173.2</ele><time>2026-04-06T08:21:09.996Z</time></trkpt><trkpt lat="44.25333937870126" lon="10.02057714788986"><ele>174.39999999999998</ele><time>2026-04-06T08:21:10.996Z</time></trkpt><trkpt lat="44.25338701317276" lon="10.020705031588511"><ele>175.60000000000002</ele><time>2026-04-06T08:21:11.996Z</time></trkpt><trkpt lat="44.25343177349357" lon="10.020818876743062"><ele>176.8</ele><time>2026-04-06T08:21:12.996Z</time></trkpt><trkpt lat="44.25348436703694" lon="10.020930482673473"><ele>178.0</ele><time>2026-04-06T08:21:13.996Z</time></trkpt><trkpt lat="44.25355512796816" lon="10.021034794309971"><ele>178.0</ele><time>2026-04-06T08:21:14.996Z</time></trkpt><trkpt lat="44.25364736134707" lon="10.02113551949512"><ele>178.0</ele><time>2026-04-06T08:21:15.996Z</time></trkpt><trkpt lat="44.25375553974102" lon="10.021217277144668"><ele>178.0</ele><time>2026-04-06T08:21:16.996Z</time></trkpt><trkpt lat="44.253866498177736" lon="10.021275371571303"><ele>178.0</ele><time>2026-04-06T08:21:17.996Z</time></trkpt><trkpt lat="44.253973105723304" lon="10.021321550323988"><ele>181.0</ele><time>2026-04-06T08:21:18.996Z</time></trkpt><trkpt lat="44.254072073770786" lon="10.021366095640275"><ele>184.0</ele><time>2026-04-06T08:21:19.996Z</time></trkpt><trkpt lat="44.254167033095065" lon="10.021415334223855"><ele>187.0</ele><time>2026-04-06T08:21:20.996Z</time></trkpt><trkpt lat="44.25430590750431" lon="10.021358937467767"><ele>190.0</ele><time>2026-04-06T08:21:21.996Z</time></trkpt><trkpt lat="44.254413171896914" lon="10.02142118093881"><ele>190.0</ele><time>2026-04-06T08:21:22.996Z</time></trkpt><trkpt lat="44.25451572922456" lon="10.021507213977653"><ele>190.0</ele><time>2026-04-06T08:21:23.996Z</time></trkpt><trkpt lat="44.25460921410348" lon="10.021622761167729"><ele>190.0</ele><time>2026-04-06T08:21:24.996Z</time></trkpt><trkpt lat="44.25469577535737" lon="10.021769300975603"><ele>190.0</ele><time>2026-04-06T08:21:25.996Z</time></trkpt><trkpt lat="44.25481723127612" lon="10.02192546621353"><ele>190.66666666666669</ele><time>2026-04-06T08:21:26.996Z</time></trkpt><trkpt lat="44.25496882983813" lon="10.0220950687822"><ele>191.33333333333334</ele><time>2026-04-06T08:21:27.996Z</time></trkpt><trkpt lat="44.255096486353764" lon="10.022238001446887"><ele>192.0</ele><time>2026-04-06T08:21:28.996Z</time></trkpt><trkpt lat="44.25520628215161" lon="10.02234110695127"><ele>192.0</ele><time>2026-04-06T08:21:29.996Z</time></trkpt><trkpt lat="44.25529320429381" lon="10.02245495203182"><ele>192.0</ele><time>2026-04-06T08:21:30.996Z</time></trkpt><trkpt lat="44.25535238785655" lon="10.022594842921094"><ele>192.0</ele><time>2026-04-06T08:21:31.996Z</time></trkpt><trkpt lat="44.255411177932196" lon="10.022719355932495"><ele>192.0</ele><time>2026-04-06T08:21:32.996Z</time></trkpt><trkpt lat="44.255426439021356" lon="10.022885635746876"><ele>192.2</ele><time>2026-04-06T08:21:33.996Z</time></trkpt><trkpt lat="44.25541780295977" lon="10.023063565374784"><ele>192.39999999999998</ele><time>2026-04-06T08:21:34.996Z</time></trkpt><trkpt lat="44.255408547317195" lon="10.023222791444384"><ele>192.60000000000002</ele><time>2026-04-06T08:21:35.996Z</time></trkpt><trkpt lat="44.255402940697365" lon="10.02337173944803"><ele>192.8</ele><time>2026-04-06T08:21:36.996Z</time></trkpt><trkpt lat="44.255404468218956" lon="10.023510004107171"><ele>193.0</ele><time>2026-04-06T08:21:37.996Z</time></trkpt><trkpt lat="44.25541316785712" lon="10.023634745105351"><ele>193.5</ele><time>2026-04-06T08:21:38.996Z</time></trkpt><trkpt lat="44.255440235472015" lon="10.023779807585532"><ele>194.0</ele><time>2026-04-06T08:21:39.996Z</time></trkpt><trkpt lat="44.25548945148994" lon="10.023941994125654"><ele>194.5</ele><time>2026-04-06T08:21:40.996Z</time></trkpt><trkpt lat="44.25555213341387" lon="10.024134853280957"><ele>195.0</ele><time>2026-04-06T08:21:41.996Z</time></trkpt><trkpt lat="44.25563508435496" lon="10.024374506617988"><ele>195.0</ele><time>2026-04-06T08:21:42.996Z</time></trkpt><trkpt lat="44.25573127300589" lon="10.024652403584486"><ele>195.0</ele><time>2026-04-06T08:21:43.996Z</time></trkpt><trkpt lat="44.25584419199132" lon="10.024943854814326"><ele>194.33333333333331</ele><time>2026-04-06T08:21:44.996Z</time></trkpt><trkpt lat="44.25593389709384" lon="10.02520789783306"><ele>193.66666666666666</ele><time>2026-04-06T08:21:45.996Z</time></trkpt><trkpt lat="44.256026150282246" lon="10.025456239029294"><ele>193.0</ele><time>2026-04-06T08:21:46.996Z</time></trkpt><trkpt lat="44.25611104038234" lon="10.025690447992353"><ele>192.0</ele><time>2026-04-06T08:21:47.996Z</time></trkpt><trkpt lat="44.25618830693236" lon="10.025911510072719"><ele>191.0</ele><time>2026-04-06T08:21:48.996Z</time></trkpt><trkpt lat="44.25626242102706" lon="10.026123204809123"><ele>190.0</ele><time>2026-04-06T08:21:49.996Z</time></trkpt><trkpt lat="44.256334982884106" lon="10.026325873202559"><ele>190.0</ele><time>2026-04-06T08:21:50.996Z</time></trkpt><trkpt lat="44.25640142580841" lon="10.026511295580457"><ele>190.0</ele><time>2026-04-06T08:21:51.996Z</time></trkpt><trkpt lat="44.256471711762465" lon="10.02668794608023"><ele>190.0</ele><time>2026-04-06T08:21:52.996Z</time></trkpt><trkpt lat="44.25656850649055" lon="10.026856175738446"><ele>190.0</ele><time>2026-04-06T08:21:53.996Z</time></trkpt><trkpt lat="44.2566913592603" lon="10.02701050174607"><ele>188.66666666666669</ele><time>2026-04-06T08:21:54.996Z</time></trkpt><trkpt lat="44.256822341915594" lon="10.027164713987966"><ele>187.33333333333334</ele><time>2026-04-06T08:21:55.996Z</time></trkpt><trkpt lat="44.25696494310705" lon="10.027327582194113"><ele>186.0</ele><time>2026-04-06T08:21:56.996Z</time></trkpt><trkpt lat="44.2571072855986" lon="10.027499126838725"><ele>186.0</ele><time>2026-04-06T08:21:57.996Z</time></trkpt><trkpt lat="44.25725790110759" lon="10.02768533976363"><ele>186.0</ele><time>2026-04-06T08:21:58.997Z</time></trkpt><trkpt lat="44.2573974581915" lon="10.027863601016112"><ele>186.0</ele><time>2026-04-06T08:21:59.997Z</time></trkpt><trkpt lat="44.25753823675845" lon="10.028027001865302"><ele>187.33333333333334</ele><time>2026-04-06T08:22:00.997Z</time></trkpt><trkpt lat="44.257691701272414" lon="10.028182260435551"><ele>188.66666666666669</ele><time>2026-04-06T08:22:01.997Z</time></trkpt><trkpt lat="44.25784694209024" lon="10.028342820682314"><ele>190.0</ele><time>2026-04-06T08:22:02.997Z</time></trkpt><trkpt lat="44.2579974748767" lon="10.028512091781685"><ele>195.66666666666669</ele><time>2026-04-06T08:22:03.998Z</time></trkpt><trkpt lat="44.25815115405284" lon="10.028683184922313"><ele>201.33333333333334</ele><time>2026-04-06T08:22:04.998Z</time></trkpt><trkpt lat="44.258294974852795" lon="10.028872271965692"><ele>207.0</ele><time>2026-04-06T08:22:05.998Z</time></trkpt><trkpt lat="44.25843344840852" lon="10.029068083072778"><ele>201.66666666666666</ele><time>2026-04-06T08:22:06.998Z</time></trkpt><trkpt lat="44.258570979844045" lon="10.029264481003464"><ele>196.33333333333331</ele><time>2026-04-06T08:22:07.998Z</time></trkpt><trkpt lat="44.25870240916326" lon="10.029448839347793"><ele>191.0</ele><time>2026-04-06T08:22:08.998Z</time></trkpt><trkpt lat="44.25884568458191" lon="10.029631063468392"><ele>193.33333333333331</ele><time>2026-04-06T08:22:09.999Z</time></trkpt><trkpt lat="44.258994390844144" lon="10.029809624607818"><ele>195.66666666666666</ele><time>2026-04-06T08:22:10.999Z</time></trkpt><trkpt lat="44.25914588137473" lon="10.029989386286514"><ele>198.0</ele><time>2026-04-06T08:22:11.999Z</time></trkpt><trkpt lat="44.25930171508239" lon="10.030168323578081"><ele>198.0</ele><time>2026-04-06T08:22:12.999Z</time></trkpt><trkpt lat="44.259456841591216" lon="10.030336953058942"><ele>198.0</ele><time>2026-04-06T08:22:13.999Z</time></trkpt><trkpt lat="44.25961691965052" lon="10.030497886347256"><ele>198.0</ele><time>2026-04-06T08:22:14.999Z</time></trkpt><trkpt lat="44.259780897205395" lon="10.030657674878933"><ele>198.66666666666669</ele><time>2026-04-06T08:22:15.999Z</time></trkpt><trkpt lat="44.2599440081849" lon="10.03081665284626"><ele>199.33333333333334</ele><time>2026-04-06T08:22:16.999Z</time></trkpt><trkpt lat="44.260100789941646" lon="10.03097786245956"><ele>200.0</ele><time>2026-04-06T08:22:17.999Z</time></trkpt><trkpt lat="44.260258682001066" lon="10.031135950496585"><ele>200.0</ele><time>2026-04-06T08:22:18.999Z</time></trkpt><trkpt lat="44.26041019165114" lon="10.031287257666616"><ele>200.0</ele><time>2026-04-06T08:22:19.999Z</time></trkpt><trkpt lat="44.26055648569855" lon="10.031432567844995"><ele>200.0</ele><time>2026-04-06T08:22:20.999Z</time></trkpt><trkpt lat="44.26069646733237" lon="10.03156992471685"><ele>199.0</ele><time>2026-04-06T08:22:21.999Z</time></trkpt><trkpt lat="44.260850915679164" lon="10.031695767507479"><ele>198.0</ele><time>2026-04-06T08:22:23Z</time></trkpt><trkpt lat="44.261018151929434" lon="10.03179380092256"><ele>197.0</ele><time>2026-04-06T08:22:24Z</time></trkpt><trkpt lat="44.26119105617448" lon="10.03189111147706"><ele>197.0</ele><time>2026-04-06T08:22:25Z</time></trkpt><trkpt lat="44.26134471883989" lon="10.031993941123808"><ele>197.0</ele><time>2026-04-06T08:22:26Z</time></trkpt><trkpt lat="44.26148651694355" lon="10.032104507563922"><ele>197.0</ele><time>2026-04-06T08:22:27Z</time></trkpt><trkpt lat="44.2616162468415" lon="10.032212124463468"><ele>198.5</ele><time>2026-04-06T08:22:28Z</time></trkpt><trkpt lat="44.26174123016418" lon="10.032313546447872"><ele>200.0</ele><time>2026-04-06T08:22:29Z</time></trkpt><trkpt lat="44.26185289406703" lon="10.032417518702125"><ele>201.5</ele><time>2026-04-06T08:22:30Z</time></trkpt><trkpt lat="44.261948893406796" lon="10.032536690565257"><ele>203.0</ele><time>2026-04-06T08:22:31Z</time></trkpt><trkpt lat="44.26202812219992" lon="10.032678886620698"><ele>203.0</ele><time>2026-04-06T08:22:32Z</time></trkpt><trkpt lat="44.262090617226335" lon="10.03285390120805"><ele>203.0</ele><time>2026-04-06T08:22:33Z</time></trkpt><trkpt lat="44.2621282696417" lon="10.033062268964194"><ele>203.0</ele><time>2026-04-06T08:22:34Z</time></trkpt><trkpt lat="44.26216508466008" lon="10.033281725040945"><ele>204.0</ele><time>2026-04-06T08:22:35Z</time></trkpt><trkpt lat="44.262222933277265" lon="10.033486454843148"><ele>205.0</ele><time>2026-04-06T08:22:36Z</time></trkpt><trkpt lat="44.26229528412426" lon="10.03366983859945"><ele>206.0</ele><time>2026-04-06T08:22:37Z</time></trkpt><trkpt lat="44.26239163383518" lon="10.033824793179217"><ele>206.0</ele><time>2026-04-06T08:22:38Z</time></trkpt><trkpt lat="44.262512542667096" lon="10.033965773686807"><ele>206.0</ele><time>2026-04-06T08:22:39Z</time></trkpt><trkpt lat="44.26264043534167" lon="10.034097859371354"><ele>206.0</ele><time>2026-04-06T08:22:40Z</time></trkpt><trkpt lat="44.26276690118822" lon="10.034247612924432"><ele>206.66666666666669</ele><time>2026-04-06T08:22:41Z</time></trkpt><trkpt lat="44.262890956269885" lon="10.034403850715528"><ele>207.33333333333331</ele><time>2026-04-06T08:22:42Z</time></trkpt><trkpt lat="44.26301873272332" lon="10.034564371135435"><ele>208.0</ele><time>2026-04-06T08:22:43Z</time></trkpt><trkpt lat="44.263143842824384" lon="10.034727820055416"><ele>208.0</ele><time>2026-04-06T08:22:44Z</time></trkpt><trkpt lat="44.26327456840776" lon="10.034890611430686"><ele>208.0</ele><time>2026-04-06T08:22:45Z</time></trkpt><trkpt lat="44.26340330978612" lon="10.035049786412705"><ele>208.0</ele><time>2026-04-06T08:22:46Z</time></trkpt><trkpt lat="44.2635280469171" lon="10.03520356653751"><ele>206.0</ele><time>2026-04-06T08:22:47Z</time></trkpt><trkpt lat="44.26364730642214" lon="10.035361267060294"><ele>204.0</ele><time>2026-04-06T08:22:48Z</time></trkpt><trkpt lat="44.26375975414673" lon="10.035519837161079"><ele>202.0</ele><time>2026-04-06T08:22:49Z</time></trkpt><trkpt lat="44.26387776231471" lon="10.035675843836406"><ele>203.33333333333331</ele><time>2026-04-06T08:22:50Z</time></trkpt><trkpt lat="44.26399610755391" lon="10.035810400361827"><ele>204.66666666666669</ele><time>2026-04-06T08:22:51Z</time></trkpt><trkpt lat="44.26413633660818" lon="10.035935386109248"><ele>206.0</ele><time>2026-04-06T08:22:52Z</time></trkpt><trkpt lat="44.26428811989559" lon="10.036040982684861"><ele>206.0</ele><time>2026-04-06T08:22:53Z</time></trkpt><trkpt lat="44.264442649236095" lon="10.036137409954165"><ele>206.0</ele><time>2026-04-06T08:22:54Z</time></trkpt><trkpt lat="44.26458472770265" lon="10.03624016194431"><ele>206.0</ele><time>2026-04-06T08:22:55Z</time></trkpt><trkpt lat="44.2647023781765" lon="10.036355359180936"><ele>208.0</ele><time>2026-04-06T08:22:56Z</time></trkpt><trkpt lat="44.264813439687124" lon="10.036499734138696"><ele>210.0</ele><time>2026-04-06T08:22:57Z</time></trkpt><trkpt lat="44.26490891693227" lon="10.036668629642737"><ele>212.0</ele><time>2026-04-06T08:22:58Z</time></trkpt><trkpt lat="44.26498679642098" lon="10.036857545494234"><ele>212.0</ele><time>2026-04-06T08:22:59Z</time></trkpt><trkpt lat="44.26504915989473" lon="10.037065933485318"><ele>212.0</ele><time>2026-04-06T08:23:00Z</time></trkpt><trkpt lat="44.26507025503022" lon="10.03728817778879"><ele>212.0</ele><time>2026-04-06T08:23:01Z</time></trkpt><trkpt lat="44.2651146729277" lon="10.03750707857912"><ele>211.33333333333334</ele><time>2026-04-06T08:23:02Z</time></trkpt><trkpt lat="44.26515054793224" lon="10.037725210665098"><ele>210.66666666666669</ele><time>2026-04-06T08:23:03Z</time></trkpt><trkpt lat="44.265206684958784" lon="10.037933175473471"><ele>210.0</ele><time>2026-04-06T08:23:04Z</time></trkpt><trkpt lat="44.265275576579874" lon="10.038135311617864"><ele>209.75</ele><time>2026-04-06T08:23:05Z</time></trkpt><trkpt lat="44.265337601604195" lon="10.038324599140282"><ele>209.5</ele><time>2026-04-06T08:23:06Z</time></trkpt><trkpt lat="44.265388648903" lon="10.038487850762223"><ele>209.25</ele><time>2026-04-06T08:23:07Z</time></trkpt><trkpt lat="44.2654364259034" lon="10.038635855700043"><ele>209.0</ele><time>2026-04-06T08:23:08Z</time></trkpt><trkpt lat="44.265487779925444" lon="10.038789503689815"><ele>209.0</ele><time>2026-04-06T08:23:09Z</time></trkpt><trkpt lat="44.26554900573016" lon="10.03895338285001"><ele>209.0</ele><time>2026-04-06T08:23:10Z</time></trkpt><trkpt lat="44.26562329447589" lon="10.039115733486193"><ele>209.0</ele><time>2026-04-06T08:23:11Z</time></trkpt><trkpt lat="44.26571463780263" lon="10.03927019064936"><ele>209.0</ele><time>2026-04-06T08:23:12Z</time></trkpt><trkpt lat="44.26581142709109" lon="10.039431885784039"><ele>214.66666666666669</ele><time>2026-04-06T08:23:13Z</time></trkpt><trkpt lat="44.2659185131172" lon="10.03959764307298"><ele>220.33333333333331</ele><time>2026-04-06T08:23:14Z</time></trkpt><trkpt lat="44.26603235372939" lon="10.03976487251309"><ele>226.0</ele><time>2026-04-06T08:23:15Z</time></trkpt><trkpt lat="44.26615448316251" lon="10.039936225275042"><ele>228.0</ele><time>2026-04-06T08:23:16Z</time></trkpt><trkpt lat="44.266281504172696" lon="10.040107810507166"><ele>230.0</ele><time>2026-04-06T08:23:17Z</time></trkpt><trkpt lat="44.26640631725165" lon="10.040256856024733"><ele>232.0</ele><time>2026-04-06T08:23:18Z</time></trkpt><trkpt lat="44.26653502190455" lon="10.04039404261836"><ele>232.0</ele><time>2026-04-06T08:23:19Z</time></trkpt><trkpt lat="44.266670011664" lon="10.04053190127346"><ele>232.0</ele><time>2026-04-06T08:23:20Z</time></trkpt><trkpt lat="44.26681387234452" lon="10.04066850357399"><ele>232.0</ele><time>2026-04-06T08:23:21Z</time></trkpt><trkpt lat="44.26695874718773" lon="10.040804074058642"><ele>231.66666666666666</ele><time>2026-04-06T08:23:22Z</time></trkpt><trkpt lat="44.26709825304419" lon="10.040941161527067"><ele>231.33333333333331</ele><time>2026-04-06T08:23:23Z</time></trkpt><trkpt lat="44.26723691304792" lon="10.041077929848262"><ele>231.0</ele><time>2026-04-06T08:23:24Z</time></trkpt><trkpt lat="44.26737415641887" lon="10.041208514322754"><ele>231.0</ele><time>2026-04-06T08:23:24.999Z</time></trkpt><trkpt lat="44.26750633460068" lon="10.041337244467812"><ele>231.0</ele><time>2026-04-06T08:23:25.999Z</time></trkpt><trkpt lat="44.2676371222792" lon="10.041470207067027"><ele>231.0</ele><time>2026-04-06T08:23:26.999Z</time></trkpt><trkpt lat="44.26777092523189" lon="10.041603100639415"><ele>233.33333333333331</ele><time>2026-04-06T08:23:27.999Z</time></trkpt><trkpt lat="44.26791202081113" lon="10.041735518041813"><ele>235.66666666666666</ele><time>2026-04-06T08:23:28.999Z</time></trkpt><trkpt lat="44.268053014185455" lon="10.04187503454831"><ele>238.0</ele><time>2026-04-06T08:23:29.999Z</time></trkpt><trkpt lat="44.268193166457465" lon="10.042013108951462"><ele>238.0</ele><time>2026-04-06T08:23:30.999Z</time></trkpt><trkpt lat="44.26833448710664" lon="10.04214869439124"><ele>238.0</ele><time>2026-04-06T08:23:31.999Z</time></trkpt><trkpt lat="44.26847836856161" lon="10.042285051872556"><ele>238.0</ele><time>2026-04-06T08:23:32.999Z</time></trkpt><trkpt lat="44.268619449829394" lon="10.042422276944492"><ele>238.0</ele><time>2026-04-06T08:23:33.999Z</time></trkpt><trkpt lat="44.268757857988696" lon="10.04255587984559"><ele>238.0</ele><time>2026-04-06T08:23:34.999Z</time></trkpt><trkpt lat="44.26889407668133" lon="10.042690813552367"><ele>238.0</ele><time>2026-04-06T08:23:35.999Z</time></trkpt><trkpt lat="44.26902396527463" lon="10.042828862200926"><ele>238.0</ele><time>2026-04-06T08:23:36.999Z</time></trkpt><trkpt lat="44.26916607836568" lon="10.042992991005955"><ele>238.0</ele><time>2026-04-06T08:23:37.999Z</time></trkpt><trkpt lat="44.26930112645649" lon="10.043152142898741"><ele>238.0</ele><time>2026-04-06T08:23:38.999Z</time></trkpt><trkpt lat="44.269428361775304" lon="10.043300759054159"><ele>240.0</ele><time>2026-04-06T08:23:39.999Z</time></trkpt><trkpt lat="44.26954658280541" lon="10.043463636135373"><ele>242.0</ele><time>2026-04-06T08:23:40.999Z</time></trkpt><trkpt lat="44.269679832223765" lon="10.04362299495263"><ele>244.0</ele><time>2026-04-06T08:23:41.999Z</time></trkpt><trkpt lat="44.26980976234329" lon="10.043776640249405"><ele>244.0</ele><time>2026-04-06T08:23:42.999Z</time></trkpt><trkpt lat="44.26993834167161" lon="10.043927388851017"><ele>244.0</ele><time>2026-04-06T08:23:43.999Z</time></trkpt><trkpt lat="44.27007283077089" lon="10.044078654784132"><ele>244.0</ele><time>2026-04-06T08:23:44.999Z</time></trkpt><trkpt lat="44.27018046203878" lon="10.044274983783504"><ele>238.0</ele><time>2026-04-06T08:23:45.999Z</time></trkpt><trkpt lat="44.2702756469786" lon="10.044511705323771"><ele>232.0</ele><time>2026-04-06T08:23:46.999Z</time></trkpt><trkpt lat="44.2704047073715" lon="10.044741506952533"><ele>226.0</ele><time>2026-04-06T08:23:47.999Z</time></trkpt><trkpt lat="44.27052316354371" lon="10.044983439155938"><ele>233.33333333333331</ele><time>2026-04-06T08:23:48.999Z</time></trkpt><trkpt lat="44.27062963400283" lon="10.045204927651657"><ele>240.66666666666669</ele><time>2026-04-06T08:23:49.999Z</time></trkpt><trkpt lat="44.27072470365926" lon="10.045408088683512"><ele>248.0</ele><time>2026-04-06T08:23:50.999Z</time></trkpt><trkpt lat="44.270819101018425" lon="10.045601155651166"><ele>248.0</ele><time>2026-04-06T08:23:51.999Z</time></trkpt><trkpt lat="44.27090172177745" lon="10.045778610333366"><ele>248.0</ele><time>2026-04-06T08:23:52.999Z</time></trkpt><trkpt lat="44.27094984229373" lon="10.045948031793134"><ele>248.0</ele><time>2026-04-06T08:23:53.999Z</time></trkpt><trkpt lat="44.27099775566345" lon="10.046084224405236"><ele>248.0</ele><time>2026-04-06T08:23:54.999Z</time></trkpt><trkpt lat="44.270980451570836" lon="10.046246058354926"><ele>243.5</ele><time>2026-04-06T08:23:55.999Z</time></trkpt><trkpt lat="44.27096944012756" lon="10.046430032512353"><ele>239.0</ele><time>2026-04-06T08:23:56.999Z</time></trkpt><trkpt lat="44.27095047737434" lon="10.046619252706215"><ele>234.5</ele><time>2026-04-06T08:23:57.999Z</time></trkpt><trkpt lat="44.270968029292376" lon="10.046798676688908"><ele>230.0</ele><time>2026-04-06T08:23:58.999Z</time></trkpt><trkpt lat="44.27101557827921" lon="10.04696895064984"><ele>227.75</ele><time>2026-04-06T08:23:59.999Z</time></trkpt><trkpt lat="44.27109041437338" lon="10.047122232154411"><ele>225.5</ele><time>2026-04-06T08:24:00.999Z</time></trkpt><trkpt lat="44.27119015433113" lon="10.047245820050852"><ele>223.25</ele><time>2026-04-06T08:24:01.999Z</time></trkpt><trkpt lat="44.271322727375946" lon="10.047338756878947"><ele>221.0</ele><time>2026-04-06T08:24:02.999Z</time></trkpt><trkpt lat="44.271472879038654" lon="10.047413718124803"><ele>227.0</ele><time>2026-04-06T08:24:03.999Z</time></trkpt><trkpt lat="44.271616132479025" lon="10.047544336846777"><ele>233.0</ele><time>2026-04-06T08:24:05Z</time></trkpt><trkpt lat="44.271755725362866" lon="10.04769255058878"><ele>239.0</ele><time>2026-04-06T08:24:06Z</time></trkpt><trkpt lat="44.2718969766536" lon="10.047875379483097"><ele>239.0</ele><time>2026-04-06T08:24:07Z</time></trkpt><trkpt lat="44.27204357325961" lon="10.048056990815756"><ele>239.0</ele><time>2026-04-06T08:24:08Z</time></trkpt><trkpt lat="44.27216431394712" lon="10.048235595618738"><ele>239.0</ele><time>2026-04-06T08:24:09Z</time></trkpt><trkpt lat="44.272309809400085" lon="10.048392356585543"><ele>239.33333333333334</ele><time>2026-04-06T08:24:10Z</time></trkpt><trkpt lat="44.27247688240239" lon="10.04851969170238"><ele>239.66666666666669</ele><time>2026-04-06T08:24:11Z</time></trkpt><trkpt lat="44.27264962611897" lon="10.048648530686707"><ele>240.0</ele><time>2026-04-06T08:24:12Z</time></trkpt><trkpt lat="44.272819561702406" lon="10.048808773481701"><ele>240.0</ele><time>2026-04-06T08:24:13Z</time></trkpt><trkpt lat="44.27298191550607" lon="10.048991538070387"><ele>240.0</ele><time>2026-04-06T08:24:14Z</time></trkpt><trkpt lat="44.27312042686152" lon="10.049195970877706"><ele>240.0</ele><time>2026-04-06T08:24:15Z</time></trkpt><trkpt lat="44.27326459394678" lon="10.049345156526764"><ele>239.66666666666669</ele><time>2026-04-06T08:24:16Z</time></trkpt><trkpt lat="44.27338990929839" lon="10.049507400754907"><ele>239.33333333333334</ele><time>2026-04-06T08:24:17Z</time></trkpt><trkpt lat="44.27350492878662" lon="10.049668996880921"><ele>239.0</ele><time>2026-04-06T08:24:18Z</time></trkpt><trkpt lat="44.273611614228976" lon="10.049858064590863"><ele>235.0</ele><time>2026-04-06T08:24:19Z</time></trkpt><trkpt lat="44.27369314453003" lon="10.050059829491"><ele>231.0</ele><time>2026-04-06T08:24:20Z</time></trkpt><trkpt lat="44.2737700225664" lon="10.050240990315427"><ele>227.0</ele><time>2026-04-06T08:24:21Z</time></trkpt><trkpt lat="44.27386959961589" lon="10.050400455010763"><ele>230.33333333333334</ele><time>2026-04-06T08:24:22Z</time></trkpt><trkpt lat="44.27400405984508" lon="10.0505561576894"><ele>233.66666666666669</ele><time>2026-04-06T08:24:23Z</time></trkpt><trkpt lat="44.27415053493161" lon="10.050711464254787"><ele>237.0</ele><time>2026-04-06T08:24:24Z</time></trkpt><trkpt lat="44.274298195716995" lon="10.050880284560073"><ele>237.0</ele><time>2026-04-06T08:24:25Z</time></trkpt><trkpt lat="44.27444698738403" lon="10.051079933123413"><ele>237.0</ele><time>2026-04-06T08:24:26Z</time></trkpt><trkpt lat="44.27458215337858" lon="10.051264358733857"><ele>237.0</ele><time>2026-04-06T08:24:27Z</time></trkpt><trkpt lat="44.27472637299546" lon="10.051414334524656"><ele>239.0</ele><time>2026-04-06T08:24:28Z</time></trkpt><trkpt lat="44.27487976972021" lon="10.05153429004268"><ele>241.0</ele><time>2026-04-06T08:24:29Z</time></trkpt><trkpt lat="44.27502400343648" lon="10.051659327413958"><ele>243.0</ele><time>2026-04-06T08:24:30Z</time></trkpt><trkpt lat="44.2751033280716" lon="10.05177329969165"><ele>243.0</ele><time>2026-04-06T08:24:31Z</time></trkpt><trkpt lat="44.27519169873602" lon="10.051934529004305"><ele>243.0</ele><time>2026-04-06T08:24:32Z</time></trkpt><trkpt lat="44.275261373651595" lon="10.052114974386406"><ele>243.0</ele><time>2026-04-06T08:24:33Z</time></trkpt><trkpt lat="44.27529762113852" lon="10.052308307231387"><ele>243.0</ele><time>2026-04-06T08:24:34Z</time></trkpt><trkpt lat="44.27532989296668" lon="10.052525250787792"><ele>238.0</ele><time>2026-04-06T08:24:35Z</time></trkpt><trkpt lat="44.2753637343259" lon="10.05275220154932"><ele>233.0</ele><time>2026-04-06T08:24:36Z</time></trkpt><trkpt lat="44.2754142487358" lon="10.05298442197139"><ele>228.0</ele><time>2026-04-06T08:24:37Z</time></trkpt><trkpt lat="44.27550495478253" lon="10.05320319920427"><ele>235.66666666666669</ele><time>2026-04-06T08:24:38Z</time></trkpt><trkpt lat="44.27562665662782" lon="10.053411628667458"><ele>243.33333333333334</ele><time>2026-04-06T08:24:39Z</time></trkpt><trkpt lat="44.27573431630896" lon="10.053650839438447"><ele>251.0</ele><time>2026-04-06T08:24:40Z</time></trkpt><trkpt lat="44.27581339079008" lon="10.053906332610197"><ele>248.66666666666669</ele><time>2026-04-06T08:24:41Z</time></trkpt><trkpt lat="44.27587874058406" lon="10.054128395782838"><ele>246.33333333333331</ele><time>2026-04-06T08:24:42Z</time></trkpt><trkpt lat="44.27595624681511" lon="10.054339704872929"><ele>244.0</ele><time>2026-04-06T08:24:43Z</time></trkpt><trkpt lat="44.27605349522004" lon="10.054536509409518"><ele>244.0</ele><time>2026-04-06T08:24:44Z</time></trkpt><trkpt lat="44.27617869812831" lon="10.054724187595534"><ele>244.0</ele><time>2026-04-06T08:24:45Z</time></trkpt><trkpt lat="44.27631696803418" lon="10.054913723825527"><ele>244.0</ele><time>2026-04-06T08:24:46Z</time></trkpt><trkpt lat="44.276458450710805" lon="10.055085584325546"><ele>246.0</ele><time>2026-04-06T08:24:47Z</time></trkpt><trkpt lat="44.27659866953767" lon="10.05524448373595"><ele>248.0</ele><time>2026-04-06T08:24:48Z</time></trkpt><trkpt lat="44.27674544060607" lon="10.055400813886237"><ele>250.0</ele><time>2026-04-06T08:24:49Z</time></trkpt><trkpt lat="44.27689707222575" lon="10.055560701971315"><ele>250.0</ele><time>2026-04-06T08:24:50Z</time></trkpt><trkpt lat="44.27703810677614" lon="10.055718570256335"><ele>250.0</ele><time>2026-04-06T08:24:51Z</time></trkpt><trkpt lat="44.277167379712765" lon="10.055861857222705"><ele>250.0</ele><time>2026-04-06T08:24:52Z</time></trkpt><trkpt lat="44.27727619866141" lon="10.056004881358492"><ele>251.75</ele><time>2026-04-06T08:24:53Z</time></trkpt><trkpt lat="44.27738989375479" lon="10.05612051969912"><ele>253.5</ele><time>2026-04-06T08:24:54Z</time></trkpt><trkpt lat="44.27752362456736" lon="10.056189969734687"><ele>255.25</ele><time>2026-04-06T08:24:55Z</time></trkpt><trkpt lat="44.27766974527447" lon="10.056226718182277"><ele>257.0</ele><time>2026-04-06T08:24:56Z</time></trkpt><trkpt lat="44.27779433191216" lon="10.056255127645798"><ele>257.0</ele><time>2026-04-06T08:24:57Z</time></trkpt><trkpt lat="44.27789535982917" lon="10.056340397943865"><ele>257.0</ele><time>2026-04-06T08:24:58Z</time></trkpt><trkpt lat="44.277933970393065" lon="10.056521945931783"><ele>257.0</ele><time>2026-04-06T08:24:59Z</time></trkpt><trkpt lat="44.27799740806228" lon="10.056703501826565"><ele>257.0</ele><time>2026-04-06T08:25:00Z</time></trkpt><trkpt lat="44.27807006955744" lon="10.056888962656647"><ele>257.33333333333337</ele><time>2026-04-06T08:25:01Z</time></trkpt><trkpt lat="44.27816092382068" lon="10.057067985681623"><ele>257.6666666666667</ele><time>2026-04-06T08:25:02Z</time></trkpt><trkpt lat="44.27828342378207" lon="10.05720697582886"><ele>258.0</ele><time>2026-04-06T08:25:03Z</time></trkpt><trkpt lat="44.278386959987394" lon="10.057327690276809"><ele>255.0</ele><time>2026-04-06T08:25:04Z</time></trkpt><trkpt lat="44.27842175861207" lon="10.057509529144951"><ele>252.0</ele><time>2026-04-06T08:25:05Z</time></trkpt><trkpt lat="44.27846125555497" lon="10.057736825077454"><ele>249.0</ele><time>2026-04-06T08:25:06Z</time></trkpt><trkpt lat="44.2785157711101" lon="10.05801229302747"><ele>249.0</ele><time>2026-04-06T08:25:07Z</time></trkpt><trkpt lat="44.278566285336616" lon="10.05827437532837"><ele>249.0</ele><time>2026-04-06T08:25:08Z</time></trkpt><trkpt lat="44.278625438959" lon="10.058526756929878"><ele>249.0</ele><time>2026-04-06T08:25:09Z</time></trkpt><trkpt lat="44.2787023741391" lon="10.05876295615271"><ele>248.66666666666669</ele><time>2026-04-06T08:25:10Z</time></trkpt><trkpt lat="44.27879674775909" lon="10.058988773903403"><ele>248.33333333333334</ele><time>2026-04-06T08:25:11Z</time></trkpt><trkpt lat="44.278893637589604" lon="10.059210984170425"><ele>248.0</ele><time>2026-04-06T08:25:12Z</time></trkpt><trkpt lat="44.278999939495506" lon="10.059443414118311"><ele>249.33333333333334</ele><time>2026-04-06T08:25:13Z</time></trkpt><trkpt lat="44.279108076045674" lon="10.059659500034376"><ele>250.66666666666669</ele><time>2026-04-06T08:25:14Z</time></trkpt><trkpt lat="44.27922633549814" lon="10.059865284643049"><ele>252.0</ele><time>2026-04-06T08:25:15Z</time></trkpt><trkpt lat="44.2793454266929" lon="10.06007306779486"><ele>252.0</ele><time>2026-04-06T08:25:16Z</time></trkpt><trkpt lat="44.279461362807055" lon="10.060287554103274"><ele>252.0</ele><time>2026-04-06T08:25:17Z</time></trkpt><trkpt lat="44.27957644210369" lon="10.060501798445165"><ele>252.0</ele><time>2026-04-06T08:25:18Z</time></trkpt><trkpt lat="44.27968949725291" lon="10.060715097921438"><ele>258.6666666666667</ele><time>2026-04-06T08:25:19Z</time></trkpt><trkpt lat="44.27979982142721" lon="10.060936834158165"><ele>265.33333333333337</ele><time>2026-04-06T08:25:20Z</time></trkpt><trkpt lat="44.279904649859304" lon="10.061159418191851"><ele>272.0</ele><time>2026-04-06T08:25:20.999Z</time></trkpt><trkpt lat="44.280008088669064" lon="10.061391320130234"><ele>267.6666666666667</ele><time>2026-04-06T08:25:21.999Z</time></trkpt><trkpt lat="44.28010413882855" lon="10.061623621732226"><ele>263.3333333333333</ele><time>2026-04-06T08:25:22.999Z</time></trkpt><trkpt lat="44.28021030911693" lon="10.061851447627957"><ele>259.0</ele><time>2026-04-06T08:25:23.999Z</time></trkpt><trkpt lat="44.28031881691904" lon="10.062075411319285"><ele>259.0</ele><time>2026-04-06T08:25:24.999Z</time></trkpt><trkpt lat="44.28041969378425" lon="10.062312356216662"><ele>259.0</ele><time>2026-04-06T08:25:25.999Z</time></trkpt><trkpt lat="44.28050950881109" lon="10.062526325602663"><ele>259.0</ele><time>2026-04-06T08:25:26.999Z</time></trkpt><trkpt lat="44.280594640182045" lon="10.062719067634294"><ele>264.0</ele><time>2026-04-06T08:25:27.999Z</time></trkpt><trkpt lat="44.280671730527004" lon="10.062891835193842"><ele>269.0</ele><time>2026-04-06T08:25:28.999Z</time></trkpt><trkpt lat="44.28076061535837" lon="10.063057629588647"><ele>274.0</ele><time>2026-04-06T08:25:29.999Z</time></trkpt><trkpt lat="44.280865798349645" lon="10.063219292180131"><ele>271.66666666666663</ele><time>2026-04-06T08:25:30.999Z</time></trkpt><trkpt lat="44.280977348079375" lon="10.06340015865448"><ele>269.3333333333333</ele><time>2026-04-06T08:25:31.999Z</time></trkpt><trkpt lat="44.28109166349667" lon="10.063592652399972"><ele>267.0</ele><time>2026-04-06T08:25:32.999Z</time></trkpt><trkpt lat="44.28120922461182" lon="10.063796188961295"><ele>267.0</ele><time>2026-04-06T08:25:33.999Z</time></trkpt><trkpt lat="44.281336574072576" lon="10.06402048426982"><ele>267.0</ele><time>2026-04-06T08:25:34.999Z</time></trkpt><trkpt lat="44.281499211322874" lon="10.064262597556471"><ele>267.0</ele><time>2026-04-06T08:25:35.999Z</time></trkpt><trkpt lat="44.28166916876821" lon="10.064495519310503"><ele>265.0</ele><time>2026-04-06T08:25:36.999Z</time></trkpt><trkpt lat="44.28182386552153" lon="10.06470182223927"><ele>263.0</ele><time>2026-04-06T08:25:37.999Z</time></trkpt><trkpt lat="44.281959307943644" lon="10.06489709239811"><ele>261.0</ele><time>2026-04-06T08:25:38.999Z</time></trkpt><trkpt lat="44.28207675169292" lon="10.065082274469319"><ele>261.0</ele><time>2026-04-06T08:25:39.999Z</time></trkpt><trkpt lat="44.282181924106524" lon="10.065260341832763"><ele>261.0</ele><time>2026-04-06T08:25:40.999Z</time></trkpt><trkpt lat="44.282274447253734" lon="10.06545089396085"><ele>261.0</ele><time>2026-04-06T08:25:41.999Z</time></trkpt><trkpt lat="44.28236101948607" lon="10.065665718301215"><ele>266.0</ele><time>2026-04-06T08:25:42.999Z</time></trkpt><trkpt lat="44.28244589636611" lon="10.065908779467286"><ele>271.0</ele><time>2026-04-06T08:25:43.999Z</time></trkpt><trkpt lat="44.282528020833" lon="10.066161033880507"><ele>276.0</ele><time>2026-04-06T08:25:44.999Z</time></trkpt><trkpt lat="44.282613493914305" lon="10.066403976529422"><ele>271.0</ele><time>2026-04-06T08:25:45.999Z</time></trkpt><trkpt lat="44.28268997834426" lon="10.066620350122177"><ele>266.0</ele><time>2026-04-06T08:25:46.999Z</time></trkpt><trkpt lat="44.28275428586442" lon="10.066822945603638"><ele>261.0</ele><time>2026-04-06T08:25:47.999Z</time></trkpt><trkpt lat="44.282804220979465" lon="10.067020908821817"><ele>261.0</ele><time>2026-04-06T08:25:48.999Z</time></trkpt><trkpt lat="44.28283017928921" lon="10.067201803138666"><ele>261.0</ele><time>2026-04-06T08:25:49.999Z</time></trkpt><trkpt lat="44.28286423089683" lon="10.067351129924344"><ele>261.0</ele><time>2026-04-06T08:25:50.999Z</time></trkpt><trkpt lat="44.28294467768685" lon="10.06747810468723"><ele>261.0</ele><time>2026-04-06T08:25:51.999Z</time></trkpt><trkpt lat="44.283061776536414" lon="10.067577492432406"><ele>266.75</ele><time>2026-04-06T08:25:52.999Z</time></trkpt><trkpt lat="44.28319705429196" lon="10.067639079303211"><ele>272.5</ele><time>2026-04-06T08:25:53.999Z</time></trkpt><trkpt lat="44.28334052546969" lon="10.067666536436828"><ele>278.25</ele><time>2026-04-06T08:25:54.999Z</time></trkpt><trkpt lat="44.283462615799685" lon="10.067763024297772"><ele>284.0</ele><time>2026-04-06T08:25:55.999Z</time></trkpt><trkpt lat="44.283565436117875" lon="10.067881911525387"><ele>284.0</ele><time>2026-04-06T08:25:56.999Z</time></trkpt><trkpt lat="44.28363936095465" lon="10.068010162297313"><ele>284.0</ele><time>2026-04-06T08:25:57.999Z</time></trkpt><trkpt lat="44.28369156135326" lon="10.068158538277288"><ele>284.0</ele><time>2026-04-06T08:25:58.999Z</time></trkpt><trkpt lat="44.28373918159424" lon="10.068318110085196"><ele>284.0</ele><time>2026-04-06T08:25:59.999Z</time></trkpt><trkpt lat="44.28375417592063" lon="10.068483500696892"><ele>283.0</ele><time>2026-04-06T08:26:00.999Z</time></trkpt><trkpt lat="44.28373646382533" lon="10.06860566978828"><ele>282.0</ele><time>2026-04-06T08:26:01.999Z</time></trkpt><trkpt lat="44.283686175444636" lon="10.068695550426439"><ele>281.0</ele><time>2026-04-06T08:26:02.999Z</time></trkpt><trkpt lat="44.283603397719446" lon="10.068768066441393"><ele>280.0</ele><time>2026-04-06T08:26:03.999Z</time></trkpt><trkpt lat="44.283492564103284" lon="10.068812662320362"><ele>279.0</ele><time>2026-04-06T08:26:04.999Z</time></trkpt><trkpt lat="44.283381971644374" lon="10.06884095570054"><ele>279.0</ele><time>2026-04-06T08:26:05.999Z</time></trkpt><trkpt lat="44.28330597118919" lon="10.068904501288815"><ele>279.0</ele><time>2026-04-06T08:26:06.999Z</time></trkpt><trkpt lat="44.28326090928243" lon="10.069004199554097"><ele>279.0</ele><time>2026-04-06T08:26:07.999Z</time></trkpt><trkpt lat="44.28324263461789" lon="10.06913326299806"><ele>279.0</ele><time>2026-04-06T08:26:08.999Z</time></trkpt><trkpt lat="44.28326533731451" lon="10.069286124529661"><ele>279.0</ele><time>2026-04-06T08:26:09.999Z</time></trkpt><trkpt lat="44.28332610308583" lon="10.069465848896979"><ele>281.0</ele><time>2026-04-06T08:26:11Z</time></trkpt><trkpt lat="44.28339456716684" lon="10.069651835906727"><ele>283.0</ele><time>2026-04-06T08:26:12Z</time></trkpt><trkpt lat="44.28345175876452" lon="10.069849572851153"><ele>285.0</ele><time>2026-04-06T08:26:13Z</time></trkpt><trkpt lat="44.283486197479974" lon="10.070037411564348"><ele>287.0</ele><time>2026-04-06T08:26:14Z</time></trkpt><trkpt lat="44.283458610151115" lon="10.070204487988416"><ele>287.75</ele><time>2026-04-06T08:26:15Z</time></trkpt><trkpt lat="44.28344408881345" lon="10.070376409968459"><ele>288.5</ele><time>2026-04-06T08:26:16Z</time></trkpt><trkpt lat="44.28342753537759" lon="10.070531342012307"><ele>289.25</ele><time>2026-04-06T08:26:17Z</time></trkpt><trkpt lat="44.28345686371595" lon="10.070695081353742"><ele>290.0</ele><time>2026-04-06T08:26:18Z</time></trkpt><trkpt lat="44.283530150871826" lon="10.070873324979742"><ele>290.0</ele><time>2026-04-06T08:26:19Z</time></trkpt><trkpt lat="44.283625230603164" lon="10.071065987993299"><ele>290.0</ele><time>2026-04-06T08:26:20Z</time></trkpt><trkpt lat="44.28371481068111" lon="10.071268998803507"><ele>290.0</ele><time>2026-04-06T08:26:21Z</time></trkpt><trkpt lat="44.28377757935201" lon="10.071468964598782"><ele>289.0</ele><time>2026-04-06T08:26:22Z</time></trkpt><trkpt lat="44.28382422513241" lon="10.0716808185476"><ele>288.0</ele><time>2026-04-06T08:26:23Z</time></trkpt><trkpt lat="44.28387826352541" lon="10.071895372634613"><ele>287.0</ele><time>2026-04-06T08:26:24Z</time></trkpt><trkpt lat="44.2839506834396" lon="10.072095991581774"><ele>290.75</ele><time>2026-04-06T08:26:25Z</time></trkpt><trkpt lat="44.284035507328134" lon="10.072270952650063"><ele>294.5</ele><time>2026-04-06T08:26:26Z</time></trkpt><trkpt lat="44.28411070124088" lon="10.072432382542125"><ele>298.25</ele><time>2026-04-06T08:26:27Z</time></trkpt><trkpt lat="44.284162937291285" lon="10.072620422836732"><ele>302.0</ele><time>2026-04-06T08:26:28Z</time></trkpt><trkpt lat="44.284184012418045" lon="10.072842818233667"><ele>302.0</ele><time>2026-04-06T08:26:29Z</time></trkpt><trkpt lat="44.28419452942112" lon="10.073079472595465"><ele>302.0</ele><time>2026-04-06T08:26:30Z</time></trkpt><trkpt lat="44.284197090693425" lon="10.0733152263579"><ele>302.0</ele><time>2026-04-06T08:26:31Z</time></trkpt><trkpt lat="44.28419849735034" lon="10.073520497578878"><ele>301.75</ele><time>2026-04-06T08:26:32Z</time></trkpt><trkpt lat="44.28418700732875" lon="10.07371875127715"><ele>301.5</ele><time>2026-04-06T08:26:33Z</time></trkpt><trkpt lat="44.28414190066256" lon="10.07391901107675"><ele>301.25</ele><time>2026-04-06T08:26:34Z</time></trkpt><trkpt lat="44.284065386983826" lon="10.074105658513378"><ele>301.0</ele><time>2026-04-06T08:26:35Z</time></trkpt><trkpt lat="44.28397454189868" lon="10.074280272507568"><ele>297.5</ele><time>2026-04-06T08:26:36Z</time></trkpt><trkpt lat="44.283912480830324" lon="10.074437149325746"><ele>294.0</ele><time>2026-04-06T08:26:37Z</time></trkpt><trkpt lat="44.283882502348966" lon="10.07459428769146"><ele>290.5</ele><time>2026-04-06T08:26:38Z</time></trkpt><trkpt lat="44.28388505078846" lon="10.074765896893114"><ele>287.0</ele><time>2026-04-06T08:26:39Z</time></trkpt><trkpt lat="44.2839280518023" lon="10.074949786906267"><ele>291.5</ele><time>2026-04-06T08:26:40Z</time></trkpt><trkpt lat="44.283993976965576" lon="10.075128385840666"><ele>296.0</ele><time>2026-04-06T08:26:41Z</time></trkpt><trkpt lat="44.28408137051413" lon="10.075291474113174"><ele>300.5</ele><time>2026-04-06T08:26:42Z</time></trkpt><trkpt lat="44.284174315849185" lon="10.075421713497585"><ele>305.0</ele><time>2026-04-06T08:26:43Z</time></trkpt><trkpt lat="44.284254613429376" lon="10.07553698984283"><ele>305.0</ele><time>2026-04-06T08:26:44Z</time></trkpt><trkpt lat="44.284302324161786" lon="10.075680028787206"><ele>305.0</ele><time>2026-04-06T08:26:45Z</time></trkpt><trkpt lat="44.28431032887633" lon="10.075878514525497"><ele>305.0</ele><time>2026-04-06T08:26:46Z</time></trkpt><trkpt lat="44.284315158252944" lon="10.076114003253915"><ele>305.0</ele><time>2026-04-06T08:26:47Z</time></trkpt><trkpt lat="44.28433006461037" lon="10.076373227900769"><ele>301.6666666666667</ele><time>2026-04-06T08:26:48Z</time></trkpt><trkpt lat="44.28436488965452" lon="10.07661060983204"><ele>298.3333333333333</ele><time>2026-04-06T08:26:49Z</time></trkpt><trkpt lat="44.28441642951581" lon="10.076844278248803"><ele>295.0</ele><time>2026-04-06T08:26:50Z</time></trkpt><trkpt lat="44.28448615930888" lon="10.077078924435854"><ele>295.0</ele><time>2026-04-06T08:26:51Z</time></trkpt><trkpt lat="44.284574743708845" lon="10.077308329158074"><ele>295.0</ele><time>2026-04-06T08:26:52Z</time></trkpt><trkpt lat="44.284676280565" lon="10.077531980451695"><ele>295.0</ele><time>2026-04-06T08:26:53Z</time></trkpt><trkpt lat="44.28478211524188" lon="10.07773377350794"><ele>301.3333333333333</ele><time>2026-04-06T08:26:54Z</time></trkpt><trkpt lat="44.284892322966265" lon="10.077906826664977"><ele>307.6666666666667</ele><time>2026-04-06T08:26:55Z</time></trkpt><trkpt lat="44.28502084847403" lon="10.078062328708928"><ele>314.0</ele><time>2026-04-06T08:26:56Z</time></trkpt><trkpt lat="44.28517018011353" lon="10.07818704857885"><ele>309.5</ele><time>2026-04-06T08:26:57Z</time></trkpt><trkpt lat="44.28530438997714" lon="10.078301115226742"><ele>305.0</ele><time>2026-04-06T08:26:58Z</time></trkpt><trkpt lat="44.28539875475325" lon="10.078461853382032"><ele>300.5</ele><time>2026-04-06T08:26:59Z</time></trkpt><trkpt lat="44.2854977631111" lon="10.078592874474026"><ele>296.0</ele><time>2026-04-06T08:27:00Z</time></trkpt><trkpt lat="44.2855945105408" lon="10.078718655319392"><ele>303.25</ele><time>2026-04-06T08:27:01Z</time></trkpt><trkpt lat="44.28571534127485" lon="10.078795666640591"><ele>310.5</ele><time>2026-04-06T08:27:02Z</time></trkpt><trkpt lat="44.28585911108031" lon="10.078828383930116"><ele>317.75</ele><time>2026-04-06T08:27:03Z</time></trkpt><trkpt lat="44.28601507685373" lon="10.078815889092285"><ele>325.0</ele><time>2026-04-06T08:27:04Z</time></trkpt><trkpt lat="44.28617432802356" lon="10.078775272466153"><ele>325.0</ele><time>2026-04-06T08:27:05Z</time></trkpt><trkpt lat="44.28634282716375" lon="10.078709247528664"><ele>325.0</ele><time>2026-04-06T08:27:06Z</time></trkpt><trkpt lat="44.28651156603544" lon="10.078647238954384"><ele>325.0</ele><time>2026-04-06T08:27:07Z</time></trkpt><trkpt lat="44.286680535934636" lon="10.078591569454137"><ele>327.0</ele><time>2026-04-06T08:27:08Z</time></trkpt><trkpt lat="44.28685194571608" lon="10.078527580207274"><ele>329.0</ele><time>2026-04-06T08:27:09Z</time></trkpt><trkpt lat="44.28702073789311" lon="10.07846671545077"><ele>331.0</ele><time>2026-04-06T08:27:10Z</time></trkpt><trkpt lat="44.28719265640182" lon="10.07841044960697"><ele>329.0</ele><time>2026-04-06T08:27:11Z</time></trkpt><trkpt lat="44.28736627556876" lon="10.078352264351572"><ele>327.0</ele><time>2026-04-06T08:27:12Z</time></trkpt><trkpt lat="44.28754450152046" lon="10.078288697866673"><ele>325.0</ele><time>2026-04-06T08:27:13Z</time></trkpt><trkpt lat="44.28772547098393" lon="10.078224130519159"><ele>332.0</ele><time>2026-04-06T08:27:14Z</time></trkpt><trkpt lat="44.28790546775754" lon="10.078162955691804"><ele>339.0</ele><time>2026-04-06T08:27:15Z</time></trkpt><trkpt lat="44.28808762014408" lon="10.078099207856782"><ele>346.0</ele><time>2026-04-06T08:27:16Z</time></trkpt><trkpt lat="44.28826579314932" lon="10.078033169274592"><ele>346.0</ele><time>2026-04-06T08:27:17Z</time></trkpt><trkpt lat="44.288438650241794" lon="10.077962038736862"><ele>346.0</ele><time>2026-04-06T08:27:18Z</time></trkpt><trkpt lat="44.28861488044977" lon="10.077909485224447"><ele>346.0</ele><time>2026-04-06T08:27:19Z</time></trkpt><trkpt lat="44.288777845002656" lon="10.07781396647928"><ele>342.3333333333333</ele><time>2026-04-06T08:27:20Z</time></trkpt><trkpt lat="44.28894373442928" lon="10.077736067125352"><ele>338.6666666666667</ele><time>2026-04-06T08:27:21Z</time></trkpt><trkpt lat="44.2891044831859" lon="10.077644825361192"><ele>335.0</ele><time>2026-04-06T08:27:22Z</time></trkpt><trkpt lat="44.28926766741097" lon="10.077527485219893"><ele>346.6666666666667</ele><time>2026-04-06T08:27:23Z</time></trkpt><trkpt lat="44.289432544434355" lon="10.077395271378473"><ele>358.3333333333333</ele><time>2026-04-06T08:27:24Z</time></trkpt><trkpt lat="44.28957888079703" lon="10.07727867820732"><ele>370.0</ele><time>2026-04-06T08:27:25Z</time></trkpt><trkpt lat="44.28973018976565" lon="10.077151925320523"><ele>364.5</ele><time>2026-04-06T08:27:26Z</time></trkpt><trkpt lat="44.28986772584807" lon="10.07705602432752"><ele>359.0</ele><time>2026-04-06T08:27:27Z</time></trkpt><trkpt lat="44.289990980311785" lon="10.076993160520496"><ele>353.5</ele><time>2026-04-06T08:27:27.999Z</time></trkpt><trkpt lat="44.29010006242509" lon="10.07696672315801"><ele>348.0</ele><time>2026-04-06T08:27:28.999Z</time></trkpt><trkpt lat="44.290215667187475" lon="10.076972569802276"><ele>348.0</ele><time>2026-04-06T08:27:29.999Z</time></trkpt><trkpt lat="44.290316811715" lon="10.077061158322527"><ele>348.0</ele><time>2026-04-06T08:27:30.999Z</time></trkpt><trkpt lat="44.29044614420458" lon="10.077177422983521"><ele>348.0</ele><time>2026-04-06T08:27:31.999Z</time></trkpt><trkpt lat="44.29058811543401" lon="10.077275536162468"><ele>348.0</ele><time>2026-04-06T08:27:32.999Z</time></trkpt><trkpt lat="44.29074659633321" lon="10.077344583142313"><ele>344.6666666666667</ele><time>2026-04-06T08:27:33.999Z</time></trkpt><trkpt lat="44.290939216716225" lon="10.077377917883476"><ele>341.33333333333337</ele><time>2026-04-06T08:27:34.999Z</time></trkpt><trkpt lat="44.29110823670531" lon="10.077409534224081"><ele>338.0</ele><time>2026-04-06T08:27:35.999Z</time></trkpt><trkpt lat="44.29125961985083" lon="10.07746569327382"><ele>338.75</ele><time>2026-04-06T08:27:36.999Z</time></trkpt><trkpt lat="44.291392975323575" lon="10.077511811013741"><ele>339.5</ele><time>2026-04-06T08:27:37.999Z</time></trkpt><trkpt lat="44.29151867087903" lon="10.077520519434804"><ele>340.25</ele><time>2026-04-06T08:27:38.999Z</time></trkpt><trkpt lat="44.291646155906946" lon="10.07748274752151"><ele>341.0</ele><time>2026-04-06T08:27:39.999Z</time></trkpt><trkpt lat="44.291784682380644" lon="10.077400791247557"><ele>341.0</ele><time>2026-04-06T08:27:40.999Z</time></trkpt><trkpt lat="44.291935461510725" lon="10.07729351679928"><ele>341.0</ele><time>2026-04-06T08:27:41.999Z</time></trkpt><trkpt lat="44.29210008072217" lon="10.077174547649978"><ele>341.0</ele><time>2026-04-06T08:27:42.999Z</time></trkpt><trkpt lat="44.2922445235573" lon="10.077070429609236"><ele>340.0</ele><time>2026-04-06T08:27:43.999Z</time></trkpt><trkpt lat="44.292383255922616" lon="10.076969240591849"><ele>339.0</ele><time>2026-04-06T08:27:44.999Z</time></trkpt><trkpt lat="44.29251639231852" lon="10.076857595016344"><ele>338.0</ele><time>2026-04-06T08:27:45.999Z</time></trkpt><trkpt lat="44.29263139675569" lon="10.076726422788049"><ele>341.33333333333337</ele><time>2026-04-06T08:27:46.999Z</time></trkpt><trkpt lat="44.29273961469489" lon="10.076574047897326"><ele>344.6666666666667</ele><time>2026-04-06T08:27:47.999Z</time></trkpt><trkpt lat="44.29283387021809" lon="10.076406161548572"><ele>348.0</ele><time>2026-04-06T08:27:48.999Z</time></trkpt><trkpt lat="44.292916082805355" lon="10.076217696908198"><ele>348.0</ele><time>2026-04-06T08:27:49.999Z</time></trkpt><trkpt lat="44.2929809691273" lon="10.076009846836316"><ele>348.0</ele><time>2026-04-06T08:27:50.999Z</time></trkpt><trkpt lat="44.2930730444949" lon="10.075855323099015"><ele>348.0</ele><time>2026-04-06T08:27:51.999Z</time></trkpt><trkpt lat="44.293169205088894" lon="10.075743855988046"><ele>348.0</ele><time>2026-04-06T08:27:52.999Z</time></trkpt><trkpt lat="44.29327558801369" lon="10.075665952869267"><ele>352.0</ele><time>2026-04-06T08:27:53.999Z</time></trkpt><trkpt lat="44.293410338454215" lon="10.075618171884303"><ele>356.0</ele><time>2026-04-06T08:27:54.999Z</time></trkpt><trkpt lat="44.293562515799024" lon="10.075595127708214"><ele>360.0</ele><time>2026-04-06T08:27:55.999Z</time></trkpt><trkpt lat="44.29373084274993" lon="10.075581753371896"><ele>360.0</ele><time>2026-04-06T08:27:56.999Z</time></trkpt><trkpt lat="44.293913156151646" lon="10.075570794523138"><ele>360.0</ele><time>2026-04-06T08:27:57.999Z</time></trkpt><trkpt lat="44.29409808107035" lon="10.075573910729425"><ele>360.0</ele><time>2026-04-06T08:27:58.999Z</time></trkpt><trkpt lat="44.29428632222067" lon="10.075601537978875"><ele>362.0</ele><time>2026-04-06T08:27:59.999Z</time></trkpt><trkpt lat="44.29445035766185" lon="10.075601227451942"><ele>364.0</ele><time>2026-04-06T08:28:00.999Z</time></trkpt><trkpt lat="44.29459660771133" lon="10.075593394227688"><ele>366.0</ele><time>2026-04-06T08:28:01.999Z</time></trkpt><trkpt lat="44.294740119552934" lon="10.075523690436036"><ele>367.6666666666667</ele><time>2026-04-06T08:28:02.999Z</time></trkpt><trkpt lat="44.29489431603841" lon="10.075427045717397"><ele>369.33333333333337</ele><time>2026-04-06T08:28:03.999Z</time></trkpt><trkpt lat="44.295052098365986" lon="10.075324527504396"><ele>371.0</ele><time>2026-04-06T08:28:04.999Z</time></trkpt><trkpt lat="44.29521827286759" lon="10.075218598892864"><ele>371.0</ele><time>2026-04-06T08:28:05.999Z</time></trkpt><trkpt lat="44.29539252665409" lon="10.075142587370012"><ele>371.0</ele><time>2026-04-06T08:28:06.999Z</time></trkpt><trkpt lat="44.29556014263884" lon="10.075024846826446"><ele>371.0</ele><time>2026-04-06T08:28:07.999Z</time></trkpt><trkpt lat="44.295721024732615" lon="10.074930183999793"><ele>376.6666666666667</ele><time>2026-04-06T08:28:08.999Z</time></trkpt><trkpt lat="44.295872561118564" lon="10.074865622738098"><ele>382.33333333333337</ele><time>2026-04-06T08:28:09.999Z</time></trkpt><trkpt lat="44.29600980674405" lon="10.07474935947923"><ele>388.0</ele><time>2026-04-06T08:28:10.999Z</time></trkpt><trkpt lat="44.29614945131997" lon="10.074625525423091"><ele>388.0</ele><time>2026-04-06T08:28:11.999Z</time></trkpt><trkpt lat="44.29628227706946" lon="10.074479053499312"><ele>388.0</ele><time>2026-04-06T08:28:12.999Z</time></trkpt><trkpt lat="44.29641283858806" lon="10.074316518122608"><ele>388.0</ele><time>2026-04-06T08:28:13.999Z</time></trkpt><trkpt lat="44.29655028450988" lon="10.074153180797584"><ele>389.0</ele><time>2026-04-06T08:28:14.999Z</time></trkpt><trkpt lat="44.29667659113979" lon="10.073976185721815"><ele>390.0</ele><time>2026-04-06T08:28:15.999Z</time></trkpt><trkpt lat="44.29679183192679" lon="10.073836117568296"><ele>391.0</ele><time>2026-04-06T08:28:17Z</time></trkpt><trkpt lat="44.29690281496871" lon="10.073725423204172"><ele>391.0</ele><time>2026-04-06T08:28:18Z</time></trkpt><trkpt lat="44.297013055078324" lon="10.073648666477043"><ele>391.0</ele><time>2026-04-06T08:28:19Z</time></trkpt><trkpt lat="44.29711936216364" lon="10.073599742106367"><ele>391.0</ele><time>2026-04-06T08:28:20Z</time></trkpt><trkpt lat="44.297241375505145" lon="10.073683016493256"><ele>391.0</ele><time>2026-04-06T08:28:21Z</time></trkpt><trkpt lat="44.29738582441406" lon="10.073741403266478"><ele>386.0</ele><time>2026-04-06T08:28:22Z</time></trkpt><trkpt lat="44.29754538504705" lon="10.073756482901532"><ele>381.0</ele><time>2026-04-06T08:28:23Z</time></trkpt><trkpt lat="44.29771461328217" lon="10.073761762748505"><ele>376.0</ele><time>2026-04-06T08:28:24Z</time></trkpt><trkpt lat="44.29786314212536" lon="10.073764347467424"><ele>376.0</ele><time>2026-04-06T08:28:25Z</time></trkpt><trkpt lat="44.2979809076264" lon="10.073750365315998"><ele>376.0</ele><time>2026-04-06T08:28:26Z</time></trkpt><trkpt lat="44.29810202644255" lon="10.07369423799295"><ele>376.0</ele><time>2026-04-06T08:28:27Z</time></trkpt><trkpt lat="44.29823370647771" lon="10.073576725099555"><ele>376.0</ele><time>2026-04-06T08:28:28Z</time></trkpt><trkpt lat="44.29837181314724" lon="10.073493352427564"><ele>376.0</ele><time>2026-04-06T08:28:29Z</time></trkpt><trkpt lat="44.29849046070265" lon="10.073435829503829"><ele>376.0</ele><time>2026-04-06T08:28:30Z</time></trkpt><trkpt lat="44.29858535537487" lon="10.07341409855474"><ele>376.0</ele><time>2026-04-06T08:28:31Z</time></trkpt><trkpt lat="44.29865984203066" lon="10.073361651139843"><ele>376.0</ele><time>2026-04-06T08:28:32Z</time></trkpt><trkpt lat="44.29868527632724" lon="10.073240865086488"><ele>376.0</ele><time>2026-04-06T08:28:33Z</time></trkpt><trkpt lat="44.298696560046906" lon="10.07312164288037"><ele>379.5</ele><time>2026-04-06T08:28:34Z</time></trkpt><trkpt lat="44.29861871340553" lon="10.073006176919518"><ele>383.0</ele><time>2026-04-06T08:28:35Z</time></trkpt><trkpt lat="44.29858884794278" lon="10.072882890215924"><ele>386.5</ele><time>2026-04-06T08:28:36Z</time></trkpt><trkpt lat="44.29858714942148" lon="10.072792294542163"><ele>390.0</ele><time>2026-04-06T08:28:37Z</time></trkpt><trkpt lat="44.29864992787167" lon="10.072722292052298"><ele>393.50000000000006</ele><time>2026-04-06T08:28:38Z</time></trkpt><trkpt lat="44.29871728491773" lon="10.07265693432993"><ele>397.0</ele><time>2026-04-06T08:28:39Z</time></trkpt><trkpt lat="44.29882005265605" lon="10.072690124903204"><ele>397.0</ele><time>2026-04-06T08:28:40Z</time></trkpt><trkpt lat="44.29890846934353" lon="10.07278362788759"><ele>397.0</ele><time>2026-04-06T08:28:41Z</time></trkpt><trkpt lat="44.2990118083682" lon="10.072794336914443"><ele>397.0</ele><time>2026-04-06T08:28:42Z</time></trkpt><trkpt lat="44.299107713527626" lon="10.072756232080026"><ele>397.0</ele><time>2026-04-06T08:28:43Z</time></trkpt><trkpt lat="44.299197224873026" lon="10.072643081274485"><ele>397.0</ele><time>2026-04-06T08:28:44Z</time></trkpt><trkpt lat="44.29928968259132" lon="10.072507155916918"><ele>401.0</ele><time>2026-04-06T08:28:45Z</time></trkpt><trkpt lat="44.29938603872945" lon="10.072347146732765"><ele>405.0</ele><time>2026-04-06T08:28:46Z</time></trkpt><trkpt lat="44.29947378274175" lon="10.072205220105374"><ele>409.0</ele><time>2026-04-06T08:28:47Z</time></trkpt><trkpt lat="44.29954896300991" lon="10.072101929034417"><ele>413.0</ele><time>2026-04-06T08:28:48Z</time></trkpt><trkpt lat="44.29961033558517" lon="10.072040369607613"><ele>413.0</ele><time>2026-04-06T08:28:49Z</time></trkpt><trkpt lat="44.299675904410165" lon="10.072031275423384"><ele>413.0</ele><time>2026-04-06T08:28:50Z</time></trkpt><trkpt lat="44.2997739619011" lon="10.072065450432078"><ele>413.0</ele><time>2026-04-06T08:28:51Z</time></trkpt><trkpt lat="44.2998927390464" lon="10.072083394984594"><ele>413.0</ele><time>2026-04-06T08:28:52Z</time></trkpt><trkpt lat="44.29998593119954" lon="10.072134822006268"><ele>413.0</ele><time>2026-04-06T08:28:53Z</time></trkpt><trkpt lat="44.30006646287632" lon="10.072253053523713"><ele>413.5</ele><time>2026-04-06T08:28:54Z</time></trkpt><trkpt lat="44.30015984283798" lon="10.072390640162423"><ele>414.0</ele><time>2026-04-06T08:28:55Z</time></trkpt><trkpt lat="44.30022200116901" lon="10.072533579776241"><ele>414.5</ele><time>2026-04-06T08:28:56Z</time></trkpt><trkpt lat="44.300266610220326" lon="10.072685212773619"><ele>415.0</ele><time>2026-04-06T08:28:57Z</time></trkpt><trkpt lat="44.30028790118908" lon="10.072858534337112"><ele>408.5</ele><time>2026-04-06T08:28:58Z</time></trkpt><trkpt lat="44.30029035705752" lon="10.073060465999854"><ele>402.0</ele><time>2026-04-06T08:28:59Z</time></trkpt><trkpt lat="44.30028956085402" lon="10.073255727087712"><ele>395.5</ele><time>2026-04-06T08:29:00Z</time></trkpt><trkpt lat="44.300296874252844" lon="10.07341531034908"><ele>389.0</ele><time>2026-04-06T08:29:01Z</time></trkpt><trkpt lat="44.30032593984223" lon="10.073554514903671"><ele>388.25</ele><time>2026-04-06T08:29:02Z</time></trkpt><trkpt lat="44.30039293690695" lon="10.073683547621387"><ele>387.5</ele><time>2026-04-06T08:29:03Z</time></trkpt><trkpt lat="44.30050016114674" lon="10.073804841525238"><ele>386.75</ele><time>2026-04-06T08:29:04Z</time></trkpt><trkpt lat="44.30063140689261" lon="10.073921039679464"><ele>386.0</ele><time>2026-04-06T08:29:05Z</time></trkpt><trkpt lat="44.30076344804494" lon="10.07403472417028"><ele>387.5</ele><time>2026-04-06T08:29:06Z</time></trkpt><trkpt lat="44.30087367072512" lon="10.074137400303975"><ele>389.0</ele><time>2026-04-06T08:29:07Z</time></trkpt><trkpt lat="44.30097225612261" lon="10.074240109863306"><ele>390.5</ele><time>2026-04-06T08:29:08Z</time></trkpt><trkpt lat="44.301077486818485" lon="10.074339939745332"><ele>392.0</ele><time>2026-04-06T08:29:09Z</time></trkpt><trkpt lat="44.301182771208225" lon="10.074438121450672"><ele>392.0</ele><time>2026-04-06T08:29:10Z</time></trkpt><trkpt lat="44.301284560013656" lon="10.074530788083228"><ele>392.0</ele><time>2026-04-06T08:29:11Z</time></trkpt><trkpt lat="44.30138418306936" lon="10.074624406610184"><ele>392.0</ele><time>2026-04-06T08:29:12Z</time></trkpt><trkpt lat="44.30148470666489" lon="10.074712414265958"><ele>392.0</ele><time>2026-04-06T08:29:13Z</time></trkpt><trkpt lat="44.301584073814254" lon="10.074804772849193"><ele>395.5</ele><time>2026-04-06T08:29:14Z</time></trkpt><trkpt lat="44.30168847940567" lon="10.074905284092134"><ele>399.0</ele><time>2026-04-06T08:29:15Z</time></trkpt><trkpt lat="44.30178806972757" lon="10.075024597158048"><ele>402.5</ele><time>2026-04-06T08:29:16Z</time></trkpt><trkpt lat="44.30190606417812" lon="10.075117320333009"><ele>406.0</ele><time>2026-04-06T08:29:17Z</time></trkpt><trkpt lat="44.30201712418671" lon="10.075229699424366"><ele>406.0</ele><time>2026-04-06T08:29:18Z</time></trkpt><trkpt lat="44.30212825821797" lon="10.075338656670331"><ele>406.0</ele><time>2026-04-06T08:29:19Z</time></trkpt><trkpt lat="44.30223810318437" lon="10.075454897858448"><ele>406.0</ele><time>2026-04-06T08:29:20Z</time></trkpt><trkpt lat="44.302356380673416" lon="10.075560281809455"><ele>406.0</ele><time>2026-04-06T08:29:21Z</time></trkpt><trkpt lat="44.30246507333836" lon="10.07568485084042"><ele>406.6666666666667</ele><time>2026-04-06T08:29:22Z</time></trkpt><trkpt lat="44.30259266488981" lon="10.075808358505983"><ele>407.33333333333337</ele><time>2026-04-06T08:29:23Z</time></trkpt><trkpt lat="44.302726558948066" lon="10.075937967492408"><ele>408.0</ele><time>2026-04-06T08:29:24Z</time></trkpt><trkpt lat="44.30285889376448" lon="10.076041374589328"><ele>408.0</ele><time>2026-04-06T08:29:25Z</time></trkpt><trkpt lat="44.30298032241001" lon="10.076164338983268"><ele>408.0</ele><time>2026-04-06T08:29:26Z</time></trkpt><trkpt lat="44.30310132411758" lon="10.076289439560298"><ele>408.0</ele><time>2026-04-06T08:29:27Z</time></trkpt><trkpt lat="44.30321868217922" lon="10.07641673711486"><ele>408.0</ele><time>2026-04-06T08:29:28Z</time></trkpt><trkpt lat="44.30334146937955" lon="10.076548243325952"><ele>410.66666666666663</ele><time>2026-04-06T08:29:28.999Z</time></trkpt><trkpt lat="44.3034614958124" lon="10.076680777912383"><ele>413.3333333333333</ele><time>2026-04-06T08:29:29.999Z</time></trkpt><trkpt lat="44.303582306197335" lon="10.076811801849512"><ele>416.0</ele><time>2026-04-06T08:29:30.999Z</time></trkpt><trkpt lat="44.30369137807171" lon="10.076962107871601"><ele>416.0</ele><time>2026-04-06T08:29:31.999Z</time></trkpt><trkpt lat="44.30381013104501" lon="10.077065657706497"><ele>416.0</ele><time>2026-04-06T08:29:32.999Z</time></trkpt><trkpt lat="44.30390548522535" lon="10.077166279146054"><ele>416.0</ele><time>2026-04-06T08:29:33.999Z</time></trkpt><trkpt lat="44.303989434476996" lon="10.077252156158702"><ele>416.0</ele><time>2026-04-06T08:29:34.999Z</time></trkpt><trkpt lat="44.30405964757725" lon="10.077344627974695"><ele>417.0</ele><time>2026-04-06T08:29:35.999Z</time></trkpt><trkpt lat="44.30415117470306" lon="10.07741153527564"><ele>418.0</ele><time>2026-04-06T08:29:36.999Z</time></trkpt><trkpt lat="44.30424466824478" lon="10.077502775429982"><ele>419.0</ele><time>2026-04-06T08:29:37.999Z</time></trkpt><trkpt lat="44.30437603151331" lon="10.077579257187123"><ele>420.0</ele><time>2026-04-06T08:29:38.999Z</time></trkpt><trkpt lat="44.30453259764932" lon="10.077642143887132"><ele>420.0</ele><time>2026-04-06T08:29:39.999Z</time></trkpt><trkpt lat="44.3046896262896" lon="10.077691017870757"><ele>420.0</ele><time>2026-04-06T08:29:40.999Z</time></trkpt><trkpt lat="44.30484428540936" lon="10.077742308842401"><ele>420.0</ele><time>2026-04-06T08:29:41.999Z</time></trkpt><trkpt lat="44.30500794525065" lon="10.077781631573787"><ele>421.66666666666663</ele><time>2026-04-06T08:29:42.999Z</time></trkpt><trkpt lat="44.305164653069745" lon="10.077807085596573"><ele>423.3333333333333</ele><time>2026-04-06T08:29:43.999Z</time></trkpt><trkpt lat="44.305318639056075" lon="10.077817579591045"><ele>425.0</ele><time>2026-04-06T08:29:44.999Z</time></trkpt><trkpt lat="44.30546639379101" lon="10.077813076617709"><ele>422.5</ele><time>2026-04-06T08:29:45.999Z</time></trkpt><trkpt lat="44.3056155846782" lon="10.077791636574782"><ele>420.0</ele><time>2026-04-06T08:29:46.999Z</time></trkpt><trkpt lat="44.3057595122398" lon="10.07773586849204"><ele>417.5</ele><time>2026-04-06T08:29:47.999Z</time></trkpt><trkpt lat="44.305888816080234" lon="10.077662694153432"><ele>415.0</ele><time>2026-04-06T08:29:48.999Z</time></trkpt><trkpt lat="44.30599628549484" lon="10.077594329322528"><ele>415.00000000000006</ele><time>2026-04-06T08:29:49.999Z</time></trkpt><trkpt lat="44.30607745092996" lon="10.077562336042568"><ele>415.0</ele><time>2026-04-06T08:29:50.999Z</time></trkpt><trkpt lat="44.306151592497336" lon="10.077578048700191"><ele>415.0</ele><time>2026-04-06T08:29:51.999Z</time></trkpt><trkpt lat="44.30620828524599" lon="10.077648083529539"><ele>415.0</ele><time>2026-04-06T08:29:52.999Z</time></trkpt><trkpt lat="44.30623345110909" lon="10.077782030944295"><ele>415.00000000000006</ele><time>2026-04-06T08:29:53.999Z</time></trkpt><trkpt lat="44.30624943360952" lon="10.077931574636844"><ele>415.0</ele><time>2026-04-06T08:29:54.999Z</time></trkpt><trkpt lat="44.30627802820109" lon="10.078080699098393"><ele>415.0</ele><time>2026-04-06T08:29:55.999Z</time></trkpt><trkpt lat="44.30627736098779" lon="10.078215041323586"><ele>415.0</ele><time>2026-04-06T08:29:56.999Z</time></trkpt><trkpt lat="44.30625948869371" lon="10.078344295447186"><ele>415.0</ele><time>2026-04-06T08:29:57.999Z</time></trkpt><trkpt lat="44.306225478095556" lon="10.078467569740404"><ele>415.0</ele><time>2026-04-06T08:29:58.999Z</time></trkpt><trkpt lat="44.30618646052411" lon="10.078586454878366"><ele>415.0</ele><time>2026-04-06T08:29:59.999Z</time></trkpt><trkpt lat="44.30614983040736" lon="10.078714097661734"><ele>416.4</ele><time>2026-04-06T08:30:00.999Z</time></trkpt><trkpt lat="44.30610886519416" lon="10.078848223513372"><ele>417.8</ele><time>2026-04-06T08:30:01.999Z</time></trkpt><trkpt lat="44.30606367780131" lon="10.078961249434503"><ele>419.20000000000005</ele><time>2026-04-06T08:30:02.999Z</time></trkpt><trkpt lat="44.306013932271036" lon="10.079055146717403"><ele>420.6</ele><time>2026-04-06T08:30:03.999Z</time></trkpt><trkpt lat="44.30594761331037" lon="10.079142512747383"><ele>422.0</ele><time>2026-04-06T08:30:04.999Z</time></trkpt><trkpt lat="44.305867973599796" lon="10.079215548969922"><ele>422.0</ele><time>2026-04-06T08:30:05.999Z</time></trkpt><trkpt lat="44.305770689224445" lon="10.07924859821242"><ele>422.0</ele><time>2026-04-06T08:30:06.999Z</time></trkpt><trkpt lat="44.305661453758994" lon="10.079243058173287"><ele>422.0</ele><time>2026-04-06T08:30:07.999Z</time></trkpt><trkpt lat="44.305547006093114" lon="10.079211102902187"><ele>422.0</ele><time>2026-04-06T08:30:08.999Z</time></trkpt><trkpt lat="44.30546313745989" lon="10.079202946561825"><ele>422.0</ele><time>2026-04-06T08:30:09.999Z</time></trkpt><trkpt lat="44.305382267809414" lon="10.079230081072687"><ele>420.20000000000005</ele><time>2026-04-06T08:30:10.999Z</time></trkpt><trkpt lat="44.305303676559454" lon="10.079295607577533"><ele>418.4</ele><time>2026-04-06T08:30:11.999Z</time></trkpt><trkpt lat="44.305250201046384" lon="10.079404086317835"><ele>416.6</ele><time>2026-04-06T08:30:12.999Z</time></trkpt><trkpt lat="44.30522123389969" lon="10.079539686216188"><ele>414.79999999999995</ele><time>2026-04-06T08:30:13.999Z</time></trkpt><trkpt lat="44.30521599935692" lon="10.079672328685032"><ele>413.0</ele><time>2026-04-06T08:30:14.999Z</time></trkpt><trkpt lat="44.30524771792535" lon="10.079816243867306"><ele>414.0</ele><time>2026-04-06T08:30:15.999Z</time></trkpt><trkpt lat="44.305318825927635" lon="10.079960145094843"><ele>415.0</ele><time>2026-04-06T08:30:16.999Z</time></trkpt><trkpt lat="44.305398412811144" lon="10.080076786015418"><ele>416.0</ele><time>2026-04-06T08:30:17.999Z</time></trkpt><trkpt lat="44.305476010689794" lon="10.080198711074695"><ele>417.0</ele><time>2026-04-06T08:30:18.999Z</time></trkpt><trkpt lat="44.305558842110244" lon="10.080335267868122"><ele>417.8</ele><time>2026-04-06T08:30:19.999Z</time></trkpt><trkpt lat="44.30564405598937" lon="10.080470730652838"><ele>418.6</ele><time>2026-04-06T08:30:20.999Z</time></trkpt><trkpt lat="44.305714380637106" lon="10.080591026567607"><ele>419.40000000000003</ele><time>2026-04-06T08:30:21.999Z</time></trkpt><trkpt lat="44.30577945385916" lon="10.08070196763599"><ele>420.20000000000005</ele><time>2026-04-06T08:30:22.999Z</time></trkpt><trkpt lat="44.30583775634825" lon="10.080796880404863"><ele>421.0</ele><time>2026-04-06T08:30:23.999Z</time></trkpt><trkpt lat="44.305902301491365" lon="10.080856626646618"><ele>421.00000000000006</ele><time>2026-04-06T08:30:24.999Z</time></trkpt><trkpt lat="44.30597697940279" lon="10.080867973224887"><ele>421.0</ele><time>2026-04-06T08:30:25.999Z</time></trkpt><trkpt lat="44.30605224450023" lon="10.080837259252661"><ele>421.0</ele><time>2026-04-06T08:30:26.999Z</time></trkpt><trkpt lat="44.306107909828164" lon="10.080751448868853"><ele>421.0</ele><time>2026-04-06T08:30:27.999Z</time></trkpt><trkpt lat="44.306128013439896" lon="10.080645688199764"><ele>421.00000000000006</ele><time>2026-04-06T08:30:28.999Z</time></trkpt><trkpt lat="44.306107638353" lon="10.080533015167688"><ele>421.0</ele><time>2026-04-06T08:30:29.999Z</time></trkpt><trkpt lat="44.30604655456613" lon="10.080440734181714"><ele>422.8</ele><time>2026-04-06T08:30:30.999Z</time></trkpt><trkpt lat="44.30595961674807" lon="10.080376955655813"><ele>424.6</ele><time>2026-04-06T08:30:31.999Z</time></trkpt><trkpt lat="44.30587290658172" lon="10.080308155834917"><ele>426.4</ele><time>2026-04-06T08:30:32.999Z</time></trkpt><trkpt lat="44.3057954091506" lon="10.080217294161914"><ele>428.2</ele><time>2026-04-06T08:30:33.999Z</time></trkpt><trkpt lat="44.30572445892235" lon="10.080127903214638"><ele>430.0</ele><time>2026-04-06T08:30:34.999Z</time></trkpt><trkpt lat="44.30566773092552" lon="10.08004835964752"><ele>430.00000000000006</ele><time>2026-04-06T08:30:35.999Z</time></trkpt><trkpt lat="44.30561865153133" lon="10.079976516300164"><ele>430.0</ele><time>2026-04-06T08:30:36.999Z</time></trkpt><trkpt lat="44.305595397638484" lon="10.079887476862012"><ele>430.0</ele><time>2026-04-06T08:30:37.999Z</time></trkpt><trkpt lat="44.305592610737015" lon="10.079721893526754"><ele>430.0</ele><time>2026-04-06T08:30:39.999Z</time></trkpt><trkpt lat="44.30564640221026" lon="10.079656936542923"><ele>430.00000000000006</ele><time>2026-04-06T08:30:40.999Z</time></trkpt><trkpt lat="44.305715553453396" lon="10.07962934962788"><ele>430.0</ele><time>2026-04-06T08:30:41.999Z</time></trkpt><trkpt lat="44.30579388972153" lon="10.079655163807304"><ele>430.0</ele><time>2026-04-06T08:30:42.999Z</time></trkpt><trkpt lat="44.30585686989928" lon="10.079738044142283"><ele>430.0</ele><time>2026-04-06T08:30:43.999Z</time></trkpt><trkpt lat="44.305890971026756" lon="10.079859077104794"><ele>430.0</ele><time>2026-04-06T08:30:44.999Z</time></trkpt><trkpt lat="44.3059227552769" lon="10.080007321394481"><ele>430.0</ele><time>2026-04-06T08:30:45.999Z</time></trkpt><trkpt lat="44.30598082225062" lon="10.080144140343695"><ele>430.0</ele><time>2026-04-06T08:30:46.999Z</time></trkpt><trkpt lat="44.30605610354279" lon="10.080319666218852"><ele>430.0</ele><time>2026-04-06T08:30:47.999Z</time></trkpt><trkpt lat="44.30617530180183" lon="10.080507824861911"><ele>430.0</ele><time>2026-04-06T08:30:48.999Z</time></trkpt><trkpt lat="44.30630485991757" lon="10.080667607961548"><ele>430.0</ele><time>2026-04-06T08:30:49.999Z</time></trkpt><trkpt lat="44.306433675839266" lon="10.08087731993946"><ele>432.6666666666667</ele><time>2026-04-06T08:30:50.999Z</time></trkpt><trkpt lat="44.30656778990268" lon="10.081094704932607"><ele>435.33333333333337</ele><time>2026-04-06T08:30:51.999Z</time></trkpt><trkpt lat="44.306686423725345" lon="10.0813477299113"><ele>438.0</ele><time>2026-04-06T08:30:52.999Z</time></trkpt><trkpt lat="44.30678926330829" lon="10.081624762705465"><ele>438.0</ele><time>2026-04-06T08:30:53.999Z</time></trkpt><trkpt lat="44.30687201843315" lon="10.081848834099263"><ele>438.0</ele><time>2026-04-06T08:30:54.999Z</time></trkpt><trkpt lat="44.306934965095614" lon="10.082031795987934"><ele>438.0</ele><time>2026-04-06T08:30:55.999Z</time></trkpt><trkpt lat="44.30697615336257" lon="10.082186305008264"><ele>438.0</ele><time>2026-04-06T08:30:56.999Z</time></trkpt><trkpt lat="44.30701873756785" lon="10.082319124827386"><ele>438.0</ele><time>2026-04-06T08:30:57.999Z</time></trkpt><trkpt lat="44.30706741251504" lon="10.082426154001867"><ele>438.0</ele><time>2026-04-06T08:30:58.999Z</time></trkpt><trkpt lat="44.30713384890391" lon="10.082479898617308"><ele>438.0</ele><time>2026-04-06T08:30:59.999Z</time></trkpt><trkpt lat="44.3072061602984" lon="10.082473722241154"><ele>438.0</ele><time>2026-04-06T08:31:00.999Z</time></trkpt><trkpt lat="44.30727164690487" lon="10.082395713864768"><ele>438.0</ele><time>2026-04-06T08:31:01.999Z</time></trkpt><trkpt lat="44.30731633754905" lon="10.082318162497566"><ele>438.0</ele><time>2026-04-06T08:31:02.999Z</time></trkpt><trkpt lat="44.30730428898821" lon="10.082197450383681"><ele>438.0</ele><time>2026-04-06T08:31:03.999Z</time></trkpt><trkpt lat="44.30724114822668" lon="10.082081601903067"><ele>438.0</ele><time>2026-04-06T08:31:04.999Z</time></trkpt><trkpt lat="44.30713759626452" lon="10.081984381215422"><ele>438.0</ele><time>2026-04-06T08:31:05.999Z</time></trkpt><trkpt lat="44.30705550246301" lon="10.08187524892409"><ele>438.0</ele><time>2026-04-06T08:31:06.999Z</time></trkpt><trkpt lat="44.30700438471228" lon="10.081732110334077"><ele>440.25</ele><time>2026-04-06T08:31:07.999Z</time></trkpt><trkpt lat="44.307003602468214" lon="10.081557107346377"><ele>442.5</ele><time>2026-04-06T08:31:08.999Z</time></trkpt><trkpt lat="44.307005940429704" lon="10.081395089024408"><ele>444.75</ele><time>2026-04-06T08:31:09.999Z</time></trkpt><trkpt lat="44.307042555751785" lon="10.08125798096756"><ele>447.0</ele><time>2026-04-06T08:31:10.999Z</time></trkpt><trkpt lat="44.30709608810042" lon="10.081120223779086"><ele>447.0</ele><time>2026-04-06T08:31:11.999Z</time></trkpt><trkpt lat="44.30718333524982" lon="10.081015045405838"><ele>447.0</ele><time>2026-04-06T08:31:12.999Z</time></trkpt><trkpt lat="44.30728337988696" lon="10.080973295164977"><ele>447.0</ele><time>2026-04-06T08:31:13.999Z</time></trkpt><trkpt lat="44.307398459604364" lon="10.080935749812484"><ele>447.0</ele><time>2026-04-06T08:31:14.999Z</time></trkpt><trkpt lat="44.307514001240484" lon="10.080925482573905"><ele>451.0</ele><time>2026-04-06T08:31:15.999Z</time></trkpt><trkpt lat="44.30762305088528" lon="10.080971995436197"><ele>455.0</ele><time>2026-04-06T08:31:16.999Z</time></trkpt><trkpt lat="44.30771059912904" lon="10.081067582024655"><ele>459.0</ele><time>2026-04-06T08:31:17.999Z</time></trkpt><trkpt lat="44.307802590909084" lon="10.08119351352798"><ele>463.0</ele><time>2026-04-06T08:31:18.999Z</time></trkpt><trkpt lat="44.30782848191631" lon="10.081388293222563"><ele>463.0</ele><time>2026-04-06T08:31:19.999Z</time></trkpt><trkpt lat="44.30788435584258" lon="10.081557011589883"><ele>463.0</ele><time>2026-04-06T08:31:20.999Z</time></trkpt><trkpt lat="44.307914826691444" lon="10.081715261088313"><ele>463.0</ele><time>2026-04-06T08:31:21.999Z</time></trkpt><trkpt lat="44.30795918740233" lon="10.08187468675332"><ele>463.0</ele><time>2026-04-06T08:31:22.999Z</time></trkpt><trkpt lat="44.30799656083794" lon="10.082043519865609"><ele>462.75</ele><time>2026-04-06T08:31:23.999Z</time></trkpt><trkpt lat="44.308043086723835" lon="10.082202606163687"><ele>462.5</ele><time>2026-04-06T08:31:24.999Z</time></trkpt><trkpt lat="44.30808813243826" lon="10.082369555030866"><ele>462.25</ele><time>2026-04-06T08:31:25.999Z</time></trkpt><trkpt lat="44.30814130808741" lon="10.08254792958888"><ele>462.0</ele><time>2026-04-06T08:31:26.999Z</time></trkpt><trkpt lat="44.30819777332559" lon="10.08275430361408"><ele>467.33333333333337</ele><time>2026-04-06T08:31:27.999Z</time></trkpt><trkpt lat="44.3082622860461" lon="10.08300142647733"><ele>472.6666666666667</ele><time>2026-04-06T08:31:28.999Z</time></trkpt><trkpt lat="44.30833724561331" lon="10.083278618774003"><ele>478.0</ele><time>2026-04-06T08:31:29.999Z</time></trkpt><trkpt lat="44.308411344606704" lon="10.08354677818021"><ele>478.0</ele><time>2026-04-06T08:31:30.999Z</time></trkpt><trkpt lat="44.30848794545076" lon="10.083816309093091"><ele>478.0</ele><time>2026-04-06T08:31:31.999Z</time></trkpt><trkpt lat="44.30856078299327" lon="10.084086894465702"><ele>478.0</ele><time>2026-04-06T08:31:32.999Z</time></trkpt><trkpt lat="44.30862275948524" lon="10.084328971236019"><ele>477.5</ele><time>2026-04-06T08:31:33.999Z</time></trkpt><trkpt lat="44.308672815454095" lon="10.084542385105403"><ele>477.0</ele><time>2026-04-06T08:31:34.999Z</time></trkpt><trkpt lat="44.30871943599068" lon="10.084735956647481"><ele>476.5</ele><time>2026-04-06T08:31:35.999Z</time></trkpt><trkpt lat="44.30877881583601" lon="10.084904703868506"><ele>476.0</ele><time>2026-04-06T08:31:36.999Z</time></trkpt><trkpt lat="44.30886014159454" lon="10.085051293666803"><ele>481.0</ele><time>2026-04-06T08:31:37.999Z</time></trkpt><trkpt lat="44.30899894636875" lon="10.085193310252883"><ele>486.0</ele><time>2026-04-06T08:31:38.999Z</time></trkpt><trkpt lat="44.30914143322762" lon="10.085308532047781"><ele>491.0</ele><time>2026-04-06T08:31:39.999Z</time></trkpt><trkpt lat="44.30929459050941" lon="10.085449926485204"><ele>491.0</ele><time>2026-04-06T08:31:40.999Z</time></trkpt><trkpt lat="44.30944344237523" lon="10.085640406544972"><ele>491.0</ele><time>2026-04-06T08:31:41.999Z</time></trkpt><trkpt lat="44.30959534846326" lon="10.085854185991286"><ele>491.0</ele><time>2026-04-06T08:31:42.999Z</time></trkpt><trkpt lat="44.30973020186479" lon="10.086053794019366"><ele>494.3333333333333</ele><time>2026-04-06T08:31:43.999Z</time></trkpt><trkpt lat="44.30984230875664" lon="10.086227862650864"><ele>497.66666666666663</ele><time>2026-04-06T08:31:44.999Z</time></trkpt><trkpt lat="44.30993492309392" lon="10.086405040301253"><ele>501.0</ele><time>2026-04-06T08:31:45.999Z</time></trkpt><trkpt lat="44.309976388687964" lon="10.086614515348774"><ele>501.0</ele><time>2026-04-06T08:31:46.999Z</time></trkpt><trkpt lat="44.30999875695595" lon="10.086799127017773"><ele>501.0</ele><time>2026-04-06T08:31:47.999Z</time></trkpt><trkpt lat="44.309984552380335" lon="10.086967289463384"><ele>501.0</ele><time>2026-04-06T08:31:48.999Z</time></trkpt><trkpt lat="44.309998375238514" lon="10.087134196317608"><ele>501.0</ele><time>2026-04-06T08:31:49.999Z</time></trkpt><trkpt lat="44.31000839741844" lon="10.08725068557601"><ele>501.0</ele><time>2026-04-06T08:31:50.999Z</time></trkpt><trkpt lat="44.310072530824755" lon="10.087316869196401"><ele>501.0</ele><time>2026-04-06T08:31:51.999Z</time></trkpt><trkpt lat="44.310166181803645" lon="10.087349295049522"><ele>501.0</ele><time>2026-04-06T08:31:52.999Z</time></trkpt><trkpt lat="44.31027720337914" lon="10.087314175999198"><ele>501.0</ele><time>2026-04-06T08:31:53.999Z</time></trkpt><trkpt lat="44.31036133766047" lon="10.087218284811618"><ele>501.0</ele><time>2026-04-06T08:31:54.999Z</time></trkpt><trkpt lat="44.310403987428586" lon="10.087100981999967"><ele>501.0</ele><time>2026-04-06T08:31:55.999Z</time></trkpt><trkpt lat="44.310391648416896" lon="10.086966334321636"><ele>501.0</ele><time>2026-04-06T08:31:56.999Z</time></trkpt><trkpt lat="44.31033233088608" lon="10.086833321543827"><ele>501.0</ele><time>2026-04-06T08:31:57.999Z</time></trkpt><trkpt lat="44.31023541583688" lon="10.086706489259633"><ele>501.0</ele><time>2026-04-06T08:31:58.999Z</time></trkpt><trkpt lat="44.310147623507966" lon="10.08655282676017"><ele>501.66666666666663</ele><time>2026-04-06T08:31:59.999Z</time></trkpt><trkpt lat="44.31008671709872" lon="10.086341540664472"><ele>502.3333333333333</ele><time>2026-04-06T08:32:00.999Z</time></trkpt><trkpt lat="44.31008097784585" lon="10.086119684695815"><ele>503.0</ele><time>2026-04-06T08:32:01.999Z</time></trkpt><trkpt lat="44.31008316796575" lon="10.085912304674636"><ele>503.4</ele><time>2026-04-06T08:32:02.999Z</time></trkpt><trkpt lat="44.31010065219052" lon="10.085701513496005"><ele>503.79999999999995</ele><time>2026-04-06T08:32:03.999Z</time></trkpt><trkpt lat="44.31012995703907" lon="10.085531749941609"><ele>504.2</ele><time>2026-04-06T08:32:04.999Z</time></trkpt><trkpt lat="44.310176614356735" lon="10.085430536252316"><ele>504.6</ele><time>2026-04-06T08:32:05.999Z</time></trkpt><trkpt lat="44.310230627323016" lon="10.085374717118189"><ele>505.0</ele><time>2026-04-06T08:32:06.999Z</time></trkpt><trkpt lat="44.31029449254969" lon="10.085386495172175"><ele>505.0</ele><time>2026-04-06T08:32:07.999Z</time></trkpt><trkpt lat="44.31037305279541" lon="10.085429595287403"><ele>505.0</ele><time>2026-04-06T08:32:08.999Z</time></trkpt><trkpt lat="44.31042450268714" lon="10.085525820546001"><ele>505.0</ele><time>2026-04-06T08:32:09.999Z</time></trkpt><trkpt lat="44.31043557281968" lon="10.08565251157626"><ele>505.0</ele><time>2026-04-06T08:32:10.999Z</time></trkpt><trkpt lat="44.310395297930484" lon="10.085795292694689"><ele>505.0</ele><time>2026-04-06T08:32:11.999Z</time></trkpt><trkpt lat="44.31035801712842" lon="10.085980500975213"><ele>504.5</ele><time>2026-04-06T08:32:12.999Z</time></trkpt><trkpt lat="44.31032239359139" lon="10.086168869974342"><ele>504.0</ele><time>2026-04-06T08:32:13.999Z</time></trkpt><trkpt lat="44.31032933769532" lon="10.086340699301848"><ele>503.5</ele><time>2026-04-06T08:32:14.999Z</time></trkpt><trkpt lat="44.310371908417565" lon="10.086510482177088"><ele>503.0</ele><time>2026-04-06T08:32:15.999Z</time></trkpt><trkpt lat="44.310451080287955" lon="10.086671019535585"><ele>502.3333333333333</ele><time>2026-04-06T08:32:16.999Z</time></trkpt><trkpt lat="44.31055832646925" lon="10.086827279073258"><ele>501.66666666666663</ele><time>2026-04-06T08:32:17.999Z</time></trkpt><trkpt lat="44.31068201803827" lon="10.086960917454562"><ele>501.0</ele><time>2026-04-06T08:32:18.999Z</time></trkpt><trkpt lat="44.310860462390366" lon="10.08707450499209"><ele>508.33333333333337</ele><time>2026-04-06T08:32:19.999Z</time></trkpt><trkpt lat="44.311037623573625" lon="10.087178908790186"><ele>515.6666666666667</ele><time>2026-04-06T08:32:20.999Z</time></trkpt><trkpt lat="44.31120472873575" lon="10.08725607327903"><ele>523.0</ele><time>2026-04-06T08:32:21.999Z</time></trkpt><trkpt lat="44.31136443628742" lon="10.087341508228057"><ele>523.75</ele><time>2026-04-06T08:32:22.999Z</time></trkpt><trkpt lat="44.3115123053837" lon="10.087426570315293"><ele>524.5</ele><time>2026-04-06T08:32:23.999Z</time></trkpt><trkpt lat="44.311636588749046" lon="10.087503006021958"><ele>525.25</ele><time>2026-04-06T08:32:24.999Z</time></trkpt><trkpt lat="44.311760186023164" lon="10.087547817577946"><ele>526.0</ele><time>2026-04-06T08:32:25.999Z</time></trkpt><trkpt lat="44.31188516839616" lon="10.087548161445739"><ele>526.0</ele><time>2026-04-06T08:32:26.999Z</time></trkpt><trkpt lat="44.31202736385355" lon="10.08750165010657"><ele>526.0</ele><time>2026-04-06T08:32:27.999Z</time></trkpt><trkpt lat="44.31217241016902" lon="10.087415188589338"><ele>526.0</ele><time>2026-04-06T08:32:28.999Z</time></trkpt><trkpt lat="44.31232300495231" lon="10.087303767997152"><ele>534.6666666666667</ele><time>2026-04-06T08:32:29.999Z</time></trkpt><trkpt lat="44.3124749016183" lon="10.087170880230936"><ele>543.3333333333334</ele><time>2026-04-06T08:32:30.999Z</time></trkpt><trkpt lat="44.3126325052663" lon="10.087029795857369"><ele>552.0</ele><time>2026-04-06T08:32:31.999Z</time></trkpt><trkpt lat="44.31280547524351" lon="10.086955889567697"><ele>552.0</ele><time>2026-04-06T08:32:32.999Z</time></trkpt><trkpt lat="44.312974461879485" lon="10.086903313214632"><ele>552.0</ele><time>2026-04-06T08:32:33.999Z</time></trkpt><trkpt lat="44.31312500623123" lon="10.086864181218509"><ele>552.0</ele><time>2026-04-06T08:32:34.999Z</time></trkpt><trkpt lat="44.313258790753224" lon="10.08683550848445"><ele>552.5</ele><time>2026-04-06T08:32:35.999Z</time></trkpt><trkpt lat="44.31337921274995" lon="10.086813930295024"><ele>553.0</ele><time>2026-04-06T08:32:36.999Z</time></trkpt><trkpt lat="44.3134875027402" lon="10.086867157191573"><ele>553.5</ele><time>2026-04-06T08:32:37.999Z</time></trkpt><trkpt lat="44.313558269752846" lon="10.087002168254516"><ele>554.0</ele><time>2026-04-06T08:32:39Z</time></trkpt><trkpt lat="44.31361688320297" lon="10.08712211495536"><ele>554.0</ele><time>2026-04-06T08:32:40Z</time></trkpt><trkpt lat="44.31361708686022" lon="10.087286563327986"><ele>554.0</ele><time>2026-04-06T08:32:41Z</time></trkpt><trkpt lat="44.31363577098746" lon="10.087490233497977"><ele>554.0</ele><time>2026-04-06T08:32:42Z</time></trkpt><trkpt lat="44.313635729747354" lon="10.087707375544246"><ele>554.0</ele><time>2026-04-06T08:32:43Z</time></trkpt><trkpt lat="44.313647477463064" lon="10.08792630424398"><ele>550.0</ele><time>2026-04-06T08:32:44Z</time></trkpt><trkpt lat="44.31363271602991" lon="10.088127145222483"><ele>546.0</ele><time>2026-04-06T08:32:45Z</time></trkpt><trkpt lat="44.31357270936921" lon="10.088316207240474"><ele>542.0</ele><time>2026-04-06T08:32:46Z</time></trkpt><trkpt lat="44.31349566854001" lon="10.088501913574067"><ele>538.0</ele><time>2026-04-06T08:32:47Z</time></trkpt><trkpt lat="44.31345152046346" lon="10.088676589119318"><ele>537.1999999999999</ele><time>2026-04-06T08:32:48Z</time></trkpt><trkpt lat="44.313435971464926" lon="10.088837597686785"><ele>536.4</ele><time>2026-04-06T08:32:49Z</time></trkpt><trkpt lat="44.31345967353037" lon="10.088973381237071"><ele>535.5999999999999</ele><time>2026-04-06T08:32:50Z</time></trkpt><trkpt lat="44.31352364616901" lon="10.089090485766432"><ele>534.8</ele><time>2026-04-06T08:32:51Z</time></trkpt><trkpt lat="44.3136206527755" lon="10.089178633626375"><ele>534.0</ele><time>2026-04-06T08:32:52Z</time></trkpt><trkpt lat="44.313761904491166" lon="10.089216966329444"><ele>543.3333333333334</ele><time>2026-04-06T08:32:53Z</time></trkpt><trkpt lat="44.31392458544027" lon="10.089223628429528"><ele>552.6666666666667</ele><time>2026-04-06T08:32:54Z</time></trkpt><trkpt lat="44.31411117039953" lon="10.089233286993874"><ele>562.0</ele><time>2026-04-06T08:32:55Z</time></trkpt><trkpt lat="44.31430007116967" lon="10.089314351308614"><ele>562.0</ele><time>2026-04-06T08:32:56Z</time></trkpt><trkpt lat="44.31447746254227" lon="10.089392923819597"><ele>562.0</ele><time>2026-04-06T08:32:57Z</time></trkpt><trkpt lat="44.31463947114607" lon="10.089484420358248"><ele>562.0</ele><time>2026-04-06T08:32:58Z</time></trkpt><trkpt lat="44.314770190969725" lon="10.089597630973806"><ele>569.0</ele><time>2026-04-06T08:32:59Z</time></trkpt><trkpt lat="44.3149030015479" lon="10.089726897654572"><ele>576.0</ele><time>2026-04-06T08:33:00Z</time></trkpt><trkpt lat="44.31502149431383" lon="10.089832411135772"><ele>583.0</ele><time>2026-04-06T08:33:01Z</time></trkpt><trkpt lat="44.315139365364416" lon="10.089900100956124"><ele>590.0</ele><time>2026-04-06T08:33:02Z</time></trkpt><trkpt lat="44.31527983647871" lon="10.089914512413882"><ele>590.0</ele><time>2026-04-06T08:33:03Z</time></trkpt><trkpt lat="44.31543045634749" lon="10.089889769066728"><ele>590.0</ele><time>2026-04-06T08:33:04Z</time></trkpt><trkpt lat="44.315575542868935" lon="10.089932843661016"><ele>590.0</ele><time>2026-04-06T08:33:05Z</time></trkpt><trkpt lat="44.31571379593876" lon="10.090020912462082"><ele>585.6666666666666</ele><time>2026-04-06T08:33:05.999Z</time></trkpt><trkpt lat="44.3158867912833" lon="10.090122037937967"><ele>581.3333333333334</ele><time>2026-04-06T08:33:06.999Z</time></trkpt><trkpt lat="44.31604686079365" lon="10.090238854850146"><ele>577.0</ele><time>2026-04-06T08:33:07.999Z</time></trkpt><trkpt lat="44.31617871155038" lon="10.090344127294115"><ele>577.0</ele><time>2026-04-06T08:33:08.999Z</time></trkpt><trkpt lat="44.31630468520576" lon="10.090429327419617"><ele>577.0</ele><time>2026-04-06T08:33:09.999Z</time></trkpt><trkpt lat="44.31648114791518" lon="10.090373053931717"><ele>577.0</ele><time>2026-04-06T08:33:10.999Z</time></trkpt><trkpt lat="44.31665398873574" lon="10.090353667623774"><ele>586.0</ele><time>2026-04-06T08:33:11.999Z</time></trkpt><trkpt lat="44.31681480876348" lon="10.09036086537212"><ele>595.0</ele><time>2026-04-06T08:33:12.999Z</time></trkpt><trkpt lat="44.316969439911176" lon="10.090369706220333"><ele>604.0</ele><time>2026-04-06T08:33:13.999Z</time></trkpt><trkpt lat="44.31711744469428" lon="10.09036348353495"><ele>610.25</ele><time>2026-04-06T08:33:14.999Z</time></trkpt><trkpt lat="44.31724778244662" lon="10.090363831492684"><ele>616.5</ele><time>2026-04-06T08:33:15.999Z</time></trkpt><trkpt lat="44.31736983651313" lon="10.090401462915919"><ele>622.75</ele><time>2026-04-06T08:33:16.999Z</time></trkpt><trkpt lat="44.31748072725959" lon="10.090492600294741"><ele>629.0</ele><time>2026-04-06T08:33:17.999Z</time></trkpt><trkpt lat="44.31758729892303" lon="10.09063367737703"><ele>617.5</ele><time>2026-04-06T08:33:18.999Z</time></trkpt><trkpt lat="44.31768931849473" lon="10.090801690639193"><ele>606.0</ele><time>2026-04-06T08:33:19.999Z</time></trkpt><trkpt lat="44.317797219322124" lon="10.090952757042233"><ele>594.5</ele><time>2026-04-06T08:33:20.999Z</time></trkpt><trkpt lat="44.31789637135824" lon="10.09108844569068"><ele>583.0</ele><time>2026-04-06T08:33:21.999Z</time></trkpt><trkpt lat="44.31799482882589" lon="10.091198616538268"><ele>590.5</ele><time>2026-04-06T08:33:22.999Z</time></trkpt><trkpt lat="44.31810539227094" lon="10.091271175691475"><ele>598.0</ele><time>2026-04-06T08:33:23.999Z</time></trkpt><trkpt lat="44.31822448562785" lon="10.091315013012025"><ele>605.5</ele><time>2026-04-06T08:33:24.999Z</time></trkpt><trkpt lat="44.31833165778409" lon="10.091347757971642"><ele>613.0</ele><time>2026-04-06T08:33:25.999Z</time></trkpt><trkpt lat="44.31843103411433" lon="10.09138653030219"><ele>613.0</ele><time>2026-04-06T08:33:26.999Z</time></trkpt><trkpt lat="44.318532897284854" lon="10.091420702908175"><ele>613.0</ele><time>2026-04-06T08:33:27.999Z</time></trkpt><trkpt lat="44.31863312939184" lon="10.091430815537343"><ele>613.0</ele><time>2026-04-06T08:33:28.999Z</time></trkpt><trkpt lat="44.31873325130555" lon="10.091415342917566"><ele>613.0</ele><time>2026-04-06T08:33:29.999Z</time></trkpt><trkpt lat="44.31883607976986" lon="10.091388678858975"><ele>613.0</ele><time>2026-04-06T08:33:30.999Z</time></trkpt><trkpt lat="44.31894208064245" lon="10.09140910793203"><ele>608.25</ele><time>2026-04-06T08:33:31.999Z</time></trkpt><trkpt lat="44.31903937557341" lon="10.091495343517055"><ele>603.5</ele><time>2026-04-06T08:33:32.999Z</time></trkpt><trkpt lat="44.31913192674367" lon="10.0915974549427"><ele>598.75</ele><time>2026-04-06T08:33:33.999Z</time></trkpt><trkpt lat="44.319236089169785" lon="10.091660107799758"><ele>594.0</ele><time>2026-04-06T08:33:34.999Z</time></trkpt><trkpt lat="44.31934743582715" lon="10.091674226088811"><ele>594.0</ele><time>2026-04-06T08:33:35.999Z</time></trkpt><trkpt lat="44.31945254793734" lon="10.091650170465373"><ele>594.0</ele><time>2026-04-06T08:33:36.999Z</time></trkpt><trkpt lat="44.31955124050815" lon="10.091609579861505"><ele>594.0</ele><time>2026-04-06T08:33:37.999Z</time></trkpt><trkpt lat="44.31964135623884" lon="10.091563581537072"><ele>594.0</ele><time>2026-04-06T08:33:38.999Z</time></trkpt><trkpt lat="44.31972985778682" lon="10.091530647254729"><ele>594.0</ele><time>2026-04-06T08:33:39.999Z</time></trkpt><trkpt lat="44.31980262927538" lon="10.091510263587004"><ele>597.8333333333334</ele><time>2026-04-06T08:33:40.999Z</time></trkpt><trkpt lat="44.319865568488275" lon="10.091505491093736"><ele>601.6666666666666</ele><time>2026-04-06T08:33:41.999Z</time></trkpt><trkpt lat="44.319934482402026" lon="10.091539657919595"><ele>605.5</ele><time>2026-04-06T08:33:42.999Z</time></trkpt><trkpt lat="44.31999733078725" lon="10.09163005632596"><ele>609.3333333333333</ele><time>2026-04-06T08:33:43.999Z</time></trkpt><trkpt lat="44.320009188942834" lon="10.091761831591317"><ele>613.1666666666666</ele><time>2026-04-06T08:33:44.999Z</time></trkpt><trkpt lat="44.31997444229836" lon="10.091896774092833"><ele>617.0</ele><time>2026-04-06T08:33:45.999Z</time></trkpt><trkpt lat="44.319897135236076" lon="10.091995771262091"><ele>617.0</ele><time>2026-04-06T08:33:46.999Z</time></trkpt><trkpt lat="44.31981365728478" lon="10.092100771611548"><ele>617.0</ele><time>2026-04-06T08:33:47.999Z</time></trkpt><trkpt lat="44.31975345999874" lon="10.09221782640998"><ele>617.0</ele><time>2026-04-06T08:33:48.999Z</time></trkpt><trkpt lat="44.31973721937844" lon="10.09235192804463"><ele>617.0</ele><time>2026-04-06T08:33:49.999Z</time></trkpt><trkpt lat="44.31975403784106" lon="10.092500696977755"><ele>617.0</ele><time>2026-04-06T08:33:50.999Z</time></trkpt><trkpt lat="44.319783063225046" lon="10.09270251607056"><ele>616.5</ele><time>2026-04-06T08:33:51.999Z</time></trkpt><trkpt lat="44.31982771566321" lon="10.09290437237336"><ele>616.0</ele><time>2026-04-06T08:33:52.999Z</time></trkpt><trkpt lat="44.3198823821149" lon="10.093085171008182"><ele>615.5</ele><time>2026-04-06T08:33:53.999Z</time></trkpt><trkpt lat="44.31990873734295" lon="10.093208403076439"><ele>615.0</ele><time>2026-04-06T08:33:54.999Z</time></trkpt><trkpt lat="44.3199145661242" lon="10.093371742123402"><ele>614.8</ele><time>2026-04-06T08:33:55.999Z</time></trkpt><trkpt lat="44.31991161480566" lon="10.093534231717848"><ele>614.6</ele><time>2026-04-06T08:33:56.999Z</time></trkpt><trkpt lat="44.31992400317435" lon="10.09368500024253"><ele>614.4</ele><time>2026-04-06T08:33:57.999Z</time></trkpt><trkpt lat="44.319950806349254" lon="10.093816953642072"><ele>614.2</ele><time>2026-04-06T08:33:58.999Z</time></trkpt><trkpt lat="44.31997178903628" lon="10.09395095501256"><ele>614.0</ele><time>2026-04-06T08:33:59.999Z</time></trkpt><trkpt lat="44.319974403646476" lon="10.094089030853068"><ele>611.8</ele><time>2026-04-06T08:34:00.999Z</time></trkpt><trkpt lat="44.31997868554246" lon="10.094232923081199"><ele>609.5999999999999</ele><time>2026-04-06T08:34:01.999Z</time></trkpt><trkpt lat="44.31999442890927" lon="10.094368181482615"><ele>607.4</ele><time>2026-04-06T08:34:02.999Z</time></trkpt><trkpt lat="44.320034004214406" lon="10.094502646955203"><ele>605.1999999999999</ele><time>2026-04-06T08:34:03.999Z</time></trkpt><trkpt lat="44.32009839881288" lon="10.094632697375266"><ele>603.0</ele><time>2026-04-06T08:34:04.999Z</time></trkpt><trkpt lat="44.320176413154904" lon="10.094754712633643"><ele>603.0</ele><time>2026-04-06T08:34:05.999Z</time></trkpt><trkpt lat="44.32027210417423" lon="10.094865116973944"><ele>603.0</ele><time>2026-04-06T08:34:06.999Z</time></trkpt><trkpt lat="44.32038516003759" lon="10.09494838678745"><ele>603.0</ele><time>2026-04-06T08:34:07.999Z</time></trkpt><trkpt lat="44.320507526488875" lon="10.094999574158543"><ele>603.0</ele><time>2026-04-06T08:34:08.999Z</time></trkpt><trkpt lat="44.32064138875336" lon="10.095003546930661"><ele>607.1999999999999</ele><time>2026-04-06T08:34:09.999Z</time></trkpt><trkpt lat="44.3207617583021" lon="10.094978619717923"><ele>611.4</ele><time>2026-04-06T08:34:10.999Z</time></trkpt><trkpt lat="44.32086222972478" lon="10.094945653798145"><ele>615.5999999999999</ele><time>2026-04-06T08:34:11.999Z</time></trkpt><trkpt lat="44.32095177085973" lon="10.094973934076526"><ele>619.8</ele><time>2026-04-06T08:34:12.999Z</time></trkpt><trkpt lat="44.321025495321976" lon="10.09505424872474"><ele>624.0</ele><time>2026-04-06T08:34:13.999Z</time></trkpt><trkpt lat="44.321084665817644" lon="10.095140851481208"><ele>624.0</ele><time>2026-04-06T08:34:14.999Z</time></trkpt><trkpt lat="44.32112068664119" lon="10.095222424473455"><ele>624.0</ele><time>2026-04-06T08:34:15.999Z</time></trkpt><trkpt lat="44.32112323742552" lon="10.095330048379557"><ele>624.0</ele><time>2026-04-06T08:34:16.999Z</time></trkpt><trkpt lat="44.32110194644813" lon="10.09545437381587"><ele>624.0</ele><time>2026-04-06T08:34:17.999Z</time></trkpt><trkpt lat="44.321099455441306" lon="10.095572257294615"><ele>624.0</ele><time>2026-04-06T08:34:18.999Z</time></trkpt><trkpt lat="44.321141736022966" lon="10.095666615264628"><ele>624.0</ele><time>2026-04-06T08:34:19.999Z</time></trkpt><trkpt lat="44.3212232300235" lon="10.095759587097023"><ele>618.75</ele><time>2026-04-06T08:34:20.999Z</time></trkpt><trkpt lat="44.32133084794398" lon="10.095857522493619"><ele>613.5</ele><time>2026-04-06T08:34:21.999Z</time></trkpt><trkpt lat="44.32145669438958" lon="10.095942899607515"><ele>608.25</ele><time>2026-04-06T08:34:22.999Z</time></trkpt><trkpt lat="44.3215868708843" lon="10.096013960145736"><ele>603.0</ele><time>2026-04-06T08:34:23.999Z</time></trkpt><trkpt lat="44.32172521108799" lon="10.096120233318485"><ele>607.6666666666666</ele><time>2026-04-06T08:34:24.999Z</time></trkpt><trkpt lat="44.32186161360392" lon="10.096261262697116"><ele>612.3333333333333</ele><time>2026-04-06T08:34:25.999Z</time></trkpt><trkpt lat="44.32201160148648" lon="10.096426887025581"><ele>617.0</ele><time>2026-04-06T08:34:26.999Z</time></trkpt><trkpt lat="44.32214558127572" lon="10.09663434124629"><ele>631.0</ele><time>2026-04-06T08:34:27.999Z</time></trkpt><trkpt lat="44.322268072454115" lon="10.09687197492145"><ele>645.0</ele><time>2026-04-06T08:34:28.999Z</time></trkpt><trkpt lat="44.322370436222826" lon="10.097074328248175"><ele>659.0</ele><time>2026-04-06T08:34:29.999Z</time></trkpt><trkpt lat="44.32246608722829" lon="10.097233208233558"><ele>659.0</ele><time>2026-04-06T08:34:30.999Z</time></trkpt><trkpt lat="44.32255265228807" lon="10.097362525876099"><ele>659.0</ele><time>2026-04-06T08:34:31.999Z</time></trkpt><trkpt lat="44.3226601721995" lon="10.097452277750593"><ele>659.0</ele><time>2026-04-06T08:34:32.999Z</time></trkpt><trkpt lat="44.32274744788491" lon="10.097526859919432"><ele>659.0</ele><time>2026-04-06T08:34:33.999Z</time></trkpt><trkpt lat="44.32280020214671" lon="10.09762389767666"><ele>659.0</ele><time>2026-04-06T08:34:34.999Z</time></trkpt><trkpt lat="44.322824358381624" lon="10.097736702672718"><ele>655.0</ele><time>2026-04-06T08:34:35.999Z</time></trkpt><trkpt lat="44.32282216494983" lon="10.097850672164567"><ele>651.0</ele><time>2026-04-06T08:34:36.999Z</time></trkpt><trkpt lat="44.32278637994278" lon="10.097970796845104"><ele>647.0</ele><time>2026-04-06T08:34:37.999Z</time></trkpt><trkpt lat="44.322721680529455" lon="10.098088417324286"><ele>643.0</ele><time>2026-04-06T08:34:38.999Z</time></trkpt><trkpt lat="44.322653925166996" lon="10.09820343288844"><ele>639.0</ele><time>2026-04-06T08:34:39.999Z</time></trkpt><trkpt lat="44.32263024203739" lon="10.098332251087356"><ele>638.0</ele><time>2026-04-06T08:34:40.999Z</time></trkpt><trkpt lat="44.32263853532408" lon="10.098483539161053"><ele>637.0</ele><time>2026-04-06T08:34:41.999Z</time></trkpt><trkpt lat="44.322670727725125" lon="10.098664794266917"><ele>636.0</ele><time>2026-04-06T08:34:42.999Z</time></trkpt><trkpt lat="44.32270243169894" lon="10.098859365555022"><ele>635.0</ele><time>2026-04-06T08:34:43.999Z</time></trkpt><trkpt lat="44.32273851234783" lon="10.099067035653807"><ele>635.3333333333333</ele><time>2026-04-06T08:34:44.999Z</time></trkpt><trkpt lat="44.32279443273351" lon="10.099267986776066"><ele>635.6666666666666</ele><time>2026-04-06T08:34:45.999Z</time></trkpt><trkpt lat="44.3228681802479" lon="10.09944630113471"><ele>636.0</ele><time>2026-04-06T08:34:46.999Z</time></trkpt><trkpt lat="44.322964591549066" lon="10.099611694774142"><ele>636.0</ele><time>2026-04-06T08:34:47.999Z</time></trkpt><trkpt lat="44.323053510573445" lon="10.099755804752629"><ele>636.0</ele><time>2026-04-06T08:34:48.999Z</time></trkpt><trkpt lat="44.32309958014322" lon="10.099899528718993"><ele>636.0</ele><time>2026-04-06T08:34:49.999Z</time></trkpt><trkpt lat="44.32310241817973" lon="10.100052800811385"><ele>636.0</ele><time>2026-04-06T08:34:50.999Z</time></trkpt><trkpt lat="44.323065935150716" lon="10.100223637468066"><ele>635.25</ele><time>2026-04-06T08:34:51.999Z</time></trkpt><trkpt lat="44.32306162934564" lon="10.100365895567691"><ele>634.5</ele><time>2026-04-06T08:34:52.999Z</time></trkpt><trkpt lat="44.32310999992067" lon="10.100507305262157"><ele>633.75</ele><time>2026-04-06T08:34:53.999Z</time></trkpt><trkpt lat="44.3231923875571" lon="10.100633629703038"><ele>633.0</ele><time>2026-04-06T08:34:54.999Z</time></trkpt><trkpt lat="44.32330795475687" lon="10.100740514831706"><ele>644.0</ele><time>2026-04-06T08:34:55.999Z</time></trkpt><trkpt lat="44.323433772568116" lon="10.100861446494926"><ele>655.0</ele><time>2026-04-06T08:34:56.999Z</time></trkpt><trkpt lat="44.32353864527338" lon="10.101013081288286"><ele>666.0</ele><time>2026-04-06T08:34:57.999Z</time></trkpt><trkpt lat="44.323649623378245" lon="10.101213609714357"><ele>666.0</ele><time>2026-04-06T08:34:58.999Z</time></trkpt><trkpt lat="44.32375476791316" lon="10.101449717015466"><ele>666.0</ele><time>2026-04-06T08:34:59.999Z</time></trkpt><trkpt lat="44.3238417702617" lon="10.101685186285554"><ele>666.0</ele><time>2026-04-06T08:35:00.999Z</time></trkpt><trkpt lat="44.323938008021024" lon="10.101878873606319"><ele>666.6666666666666</ele><time>2026-04-06T08:35:01.999Z</time></trkpt><trkpt lat="44.32404106533212" lon="10.102045963182675"><ele>667.3333333333333</ele><time>2026-04-06T08:35:02.999Z</time></trkpt><trkpt lat="44.32415512191373" lon="10.102222995124238"><ele>668.0</ele><time>2026-04-06T08:35:03.999Z</time></trkpt><trkpt lat="44.32423408225155" lon="10.102423400102827"><ele>668.0</ele><time>2026-04-06T08:35:04.999Z</time></trkpt><trkpt lat="44.324321460914476" lon="10.102590236137143"><ele>668.0</ele><time>2026-04-06T08:35:05.999Z</time></trkpt><trkpt lat="44.324463549922" lon="10.102740443773808"><ele>668.0</ele><time>2026-04-06T08:35:06.999Z</time></trkpt><trkpt lat="44.324609287879476" lon="10.1028596239793"><ele>683.3333333333333</ele><time>2026-04-06T08:35:07.999Z</time></trkpt><trkpt lat="44.324765662145" lon="10.102951244742982"><ele>698.6666666666666</ele><time>2026-04-06T08:35:08.999Z</time></trkpt><trkpt lat="44.32493796066906" lon="10.103029584365162"><ele>714.0</ele><time>2026-04-06T08:35:09.999Z</time></trkpt><trkpt lat="44.325114892871916" lon="10.103125281343097"><ele>714.0</ele><time>2026-04-06T08:35:10.999Z</time></trkpt><trkpt lat="44.325285681876146" lon="10.103228855592263"><ele>714.0</ele><time>2026-04-06T08:35:11.999Z</time></trkpt><trkpt lat="44.3254287036966" lon="10.103338463897211"><ele>714.0</ele><time>2026-04-06T08:35:12.999Z</time></trkpt><trkpt lat="44.325548408876685" lon="10.103483259648714"><ele>715.5</ele><time>2026-04-06T08:35:13.999Z</time></trkpt><trkpt lat="44.32564412149526" lon="10.103667052874162"><ele>717.0</ele><time>2026-04-06T08:35:14.999Z</time></trkpt><trkpt lat="44.3257346820412" lon="10.103832951918013"><ele>718.5</ele><time>2026-04-06T08:35:15.999Z</time></trkpt><trkpt lat="44.32575833854447" lon="10.10392750640145"><ele>720.0</ele><time>2026-04-06T08:35:16.999Z</time></trkpt><trkpt lat="44.32571008160399" lon="10.104057861598301"><ele>711.25</ele><time>2026-04-06T08:35:17.999Z</time></trkpt><trkpt lat="44.32563043201262" lon="10.104153483533231"><ele>702.5</ele><time>2026-04-06T08:35:18.999Z</time></trkpt><trkpt lat="44.32553891568224" lon="10.104290436701135"><ele>693.75</ele><time>2026-04-06T08:35:19.999Z</time></trkpt><trkpt lat="44.325460154306576" lon="10.104466217466989"><ele>685.0</ele><time>2026-04-06T08:35:20.999Z</time></trkpt><trkpt lat="44.32539175816633" lon="10.104658868698678"><ele>687.0</ele><time>2026-04-06T08:35:21.999Z</time></trkpt><trkpt lat="44.32532448156408" lon="10.104827974815082"><ele>689.0</ele><time>2026-04-06T08:35:22.999Z</time></trkpt><trkpt lat="44.325251140902466" lon="10.104944888562835"><ele>691.0</ele><time>2026-04-06T08:35:23.999Z</time></trkpt><trkpt lat="44.32515734286508" lon="10.105012975494601"><ele>693.0</ele><time>2026-04-06T08:35:24.999Z</time></trkpt><trkpt lat="44.32503013677268" lon="10.105043604748465"><ele>693.0</ele><time>2026-04-06T08:35:25.999Z</time></trkpt><trkpt lat="44.324879308288786" lon="10.105036911673455"><ele>693.0</ele><time>2026-04-06T08:35:26.999Z</time></trkpt><trkpt lat="44.32471338660199" lon="10.10501118142311"><ele>693.0</ele><time>2026-04-06T08:35:27.999Z</time></trkpt><trkpt lat="44.32453523620876" lon="10.104970056272869"><ele>685.3333333333334</ele><time>2026-04-06T08:35:28.999Z</time></trkpt><trkpt lat="44.324362720394475" lon="10.104881820139914"><ele>677.6666666666667</ele><time>2026-04-06T08:35:29.999Z</time></trkpt><trkpt lat="44.324215714425385" lon="10.104760022996842"><ele>670.0</ele><time>2026-04-06T08:35:30.999Z</time></trkpt><trkpt lat="44.324070987037096" lon="10.10468503088574"><ele>670.0</ele><time>2026-04-06T08:35:31.999Z</time></trkpt><trkpt lat="44.32392258863969" lon="10.104670865318749"><ele>670.0</ele><time>2026-04-06T08:35:32.999Z</time></trkpt><trkpt lat="44.32379432886856" lon="10.104636288107285"><ele>670.0</ele><time>2026-04-06T08:35:33.999Z</time></trkpt><trkpt lat="44.32367772001129" lon="10.104534774658735"><ele>670.0</ele><time>2026-04-06T08:35:34.999Z</time></trkpt><trkpt lat="44.32354747780897" lon="10.104409116186556"><ele>668.0</ele><time>2026-04-06T08:35:35.999Z</time></trkpt><trkpt lat="44.323394691444406" lon="10.104289007534584"><ele>666.0</ele><time>2026-04-06T08:35:36.999Z</time></trkpt><trkpt lat="44.32323696447055" lon="10.104172057337893"><ele>664.0</ele><time>2026-04-06T08:35:37.999Z</time></trkpt><trkpt lat="44.32307803835623" lon="10.10404415293968"><ele>674.3333333333334</ele><time>2026-04-06T08:35:38.999Z</time></trkpt><trkpt lat="44.32291928958165" lon="10.10390502418403"><ele>684.6666666666666</ele><time>2026-04-06T08:35:39.999Z</time></trkpt><trkpt lat="44.32278629921053" lon="10.103764668694867"><ele>695.0</ele><time>2026-04-06T08:35:40.999Z</time></trkpt><trkpt lat="44.32267294563909" lon="10.103624065693886"><ele>695.0</ele><time>2026-04-06T08:35:41.999Z</time></trkpt><trkpt lat="44.322572577625735" lon="10.10351647053552"><ele>695.0</ele><time>2026-04-06T08:35:42.999Z</time></trkpt><trkpt lat="44.32245192543318" lon="10.103442958596043"><ele>695.0</ele><time>2026-04-06T08:35:43.999Z</time></trkpt><trkpt lat="44.32232326540779" lon="10.103408227192961"><ele>695.0</ele><time>2026-04-06T08:35:44.999Z</time></trkpt><trkpt lat="44.32218429370779" lon="10.103405776496142"><ele>699.0</ele><time>2026-04-06T08:35:45.999Z</time></trkpt><trkpt lat="44.322038562938346" lon="10.103442520434664"><ele>703.0</ele><time>2026-04-06T08:35:46.999Z</time></trkpt><trkpt lat="44.32187852603666" lon="10.103513323552882"><ele>707.0</ele><time>2026-04-06T08:35:47.999Z</time></trkpt><trkpt lat="44.32170589843275" lon="10.103587030463185"><ele>707.0</ele><time>2026-04-06T08:35:48.999Z</time></trkpt><trkpt lat="44.32154786278104" lon="10.103651678640743"><ele>707.0</ele><time>2026-04-06T08:35:49.999Z</time></trkpt><trkpt lat="44.32139844482039" lon="10.103731528445577"><ele>707.0</ele><time>2026-04-06T08:35:50.999Z</time></trkpt><trkpt lat="44.32124318591042" lon="10.103842225637692"><ele>712.0</ele><time>2026-04-06T08:35:51.999Z</time></trkpt><trkpt lat="44.32111481218869" lon="10.10394139163324"><ele>717.0</ele><time>2026-04-06T08:35:52.999Z</time></trkpt><trkpt lat="44.32101393906111" lon="10.104000024607307"><ele>722.0</ele><time>2026-04-06T08:35:53.999Z</time></trkpt><trkpt lat="44.32092458594905" lon="10.104003141134275"><ele>727.0</ele><time>2026-04-06T08:35:54.999Z</time></trkpt><trkpt lat="44.32084356786549" lon="10.103944700139612"><ele>732.0</ele><time>2026-04-06T08:35:55.999Z</time></trkpt><trkpt lat="44.32078797798022" lon="10.103854076101815"><ele>732.0</ele><time>2026-04-06T08:35:56.999Z</time></trkpt><trkpt lat="44.3207609514282" lon="10.103711400260787"><ele>732.0</ele><time>2026-04-06T08:35:57.999Z</time></trkpt><trkpt lat="44.32077168692799" lon="10.103538711739109"><ele>732.0</ele><time>2026-04-06T08:35:58.999Z</time></trkpt><trkpt lat="44.32081514401855" lon="10.103380528105877"><ele>732.0</ele><time>2026-04-06T08:35:59.999Z</time></trkpt><trkpt lat="44.32083598100492" lon="10.103239078682954"><ele>728.75</ele><time>2026-04-06T08:36:00.999Z</time></trkpt><trkpt lat="44.320805957357884" lon="10.10310841975689"><ele>725.5</ele><time>2026-04-06T08:36:01.999Z</time></trkpt><trkpt lat="44.3207194342807" lon="10.102984703004834"><ele>722.25</ele><time>2026-04-06T08:36:02.999Z</time></trkpt><trkpt lat="44.32059937667141" lon="10.102862965364904"><ele>719.0</ele><time>2026-04-06T08:36:03.999Z</time></trkpt><trkpt lat="44.32050443855858" lon="10.10271515708282"><ele>725.0</ele><time>2026-04-06T08:36:04.999Z</time></trkpt><trkpt lat="44.32040340834854" lon="10.102517156462419"><ele>731.0</ele><time>2026-04-06T08:36:05.999Z</time></trkpt><trkpt lat="44.320333798525205" lon="10.102310214116333"><ele>737.0</ele><time>2026-04-06T08:36:06.999Z</time></trkpt><trkpt lat="44.32028726497969" lon="10.102126527484847"><ele>737.0</ele><time>2026-04-06T08:36:07.999Z</time></trkpt><trkpt lat="44.32025819918743" lon="10.102000448361883"><ele>737.0</ele><time>2026-04-06T08:36:08.999Z</time></trkpt><trkpt lat="44.32022443966842" lon="10.101922997921783"><ele>737.0</ele><time>2026-04-06T08:36:09.999Z</time></trkpt><trkpt lat="44.32016099654816" lon="10.101890335689044"><ele>737.0</ele><time>2026-04-06T08:36:10.999Z</time></trkpt><trkpt lat="44.32008130618753" lon="10.101928710264469"><ele>737.0</ele><time>2026-04-06T08:36:11.999Z</time></trkpt><trkpt lat="44.320030767295066" lon="10.102027317172181"><ele>737.0</ele><time>2026-04-06T08:36:12.999Z</time></trkpt><trkpt lat="44.320035883167755" lon="10.10214330390648"><ele>737.0</ele><time>2026-04-06T08:36:13.999Z</time></trkpt><trkpt lat="44.32007489853445" lon="10.10225357167115"><ele>737.0</ele><time>2026-04-06T08:36:14.999Z</time></trkpt><trkpt lat="44.320172700368595" lon="10.102370537422276"><ele>737.0</ele><time>2026-04-06T08:36:15.999Z</time></trkpt><trkpt lat="44.3202837488605" lon="10.102522570218785"><ele>737.0</ele><time>2026-04-06T08:36:16.999Z</time></trkpt><trkpt lat="44.32037131108082" lon="10.102712680935424"><ele>742.25</ele><time>2026-04-06T08:36:17.999Z</time></trkpt><trkpt lat="44.32044277794878" lon="10.102909952729286"><ele>747.5</ele><time>2026-04-06T08:36:18.999Z</time></trkpt><trkpt lat="44.32049839041646" lon="10.103081140828396"><ele>752.75</ele><time>2026-04-06T08:36:19.999Z</time></trkpt><trkpt lat="44.32053666394252" lon="10.103220937318452"><ele>758.0</ele><time>2026-04-06T08:36:20.999Z</time></trkpt><trkpt lat="44.3205490033588" lon="10.103383223641728"><ele>765.0</ele><time>2026-04-06T08:36:21.999Z</time></trkpt><trkpt lat="44.32052113967027" lon="10.103570463196647"><ele>772.0</ele><time>2026-04-06T08:36:22.999Z</time></trkpt><trkpt lat="44.32047173851414" lon="10.103776429618483"><ele>779.0</ele><time>2026-04-06T08:36:23.999Z</time></trkpt><trkpt lat="44.320418999035816" lon="10.103987308958851"><ele>780.4000000000001</ele><time>2026-04-06T08:36:24.999Z</time></trkpt><trkpt lat="44.32039156086315" lon="10.104153524623518"><ele>781.8</ele><time>2026-04-06T08:36:25.999Z</time></trkpt><trkpt lat="44.32038637690259" lon="10.104283822833631"><ele>783.2</ele><time>2026-04-06T08:36:26.999Z</time></trkpt><trkpt lat="44.320400996290886" lon="10.104399719652285"><ele>784.5999999999999</ele><time>2026-04-06T08:36:27.999Z</time></trkpt><trkpt lat="44.32047500986423" lon="10.104498018693503"><ele>786.0</ele><time>2026-04-06T08:36:28.999Z</time></trkpt><trkpt lat="44.3205815646516" lon="10.104556777765222"><ele>775.25</ele><time>2026-04-06T08:36:29.999Z</time></trkpt><trkpt lat="44.32070790269512" lon="10.10457828499153"><ele>764.5</ele><time>2026-04-06T08:36:30.999Z</time></trkpt><trkpt lat="44.32084137738596" lon="10.104601405314314"><ele>753.75</ele><time>2026-04-06T08:36:31.999Z</time></trkpt><trkpt lat="44.320961292951566" lon="10.104655371315202"><ele>743.0</ele><time>2026-04-06T08:36:32.999Z</time></trkpt><trkpt lat="44.321055287311104" lon="10.104682845372173"><ele>743.0</ele><time>2026-04-06T08:36:33.999Z</time></trkpt><trkpt lat="44.321152351722134" lon="10.10462594793095"><ele>743.0</ele><time>2026-04-06T08:36:34.999Z</time></trkpt><trkpt lat="44.321244831863105" lon="10.10452139126796"><ele>743.0</ele><time>2026-04-06T08:36:35.999Z</time></trkpt><trkpt lat="44.321338940992135" lon="10.104466912199511"><ele>743.0</ele><time>2026-04-06T08:36:36.999Z</time></trkpt><trkpt lat="44.321457687597785" lon="10.104470617191051"><ele>743.0</ele><time>2026-04-06T08:36:37.999Z</time></trkpt><trkpt lat="44.32160036020566" lon="10.10450046928366"><ele>741.75</ele><time>2026-04-06T08:36:38.999Z</time></trkpt><trkpt lat="44.321748471882394" lon="10.10451905851253"><ele>740.5</ele><time>2026-04-06T08:36:39.999Z</time></trkpt><trkpt lat="44.32186319188658" lon="10.10453579964967"><ele>739.25</ele><time>2026-04-06T08:36:40.999Z</time></trkpt><trkpt lat="44.32195028564365" lon="10.104585303581242"><ele>738.0</ele><time>2026-04-06T08:36:41.999Z</time></trkpt><trkpt lat="44.32202964812944" lon="10.10470221736931"><ele>738.0</ele><time>2026-04-06T08:36:42.999Z</time></trkpt><trkpt lat="44.32210836576812" lon="10.104855927279173"><ele>738.0</ele><time>2026-04-06T08:36:43.999Z</time></trkpt><trkpt lat="44.32216952670487" lon="10.10500429181201"><ele>738.0</ele><time>2026-04-06T08:36:44.999Z</time></trkpt><trkpt lat="44.322207093194876" lon="10.105177369768"><ele>738.0</ele><time>2026-04-06T08:36:45.999Z</time></trkpt><trkpt lat="44.32223203623736" lon="10.105398669224279"><ele>741.6666666666666</ele><time>2026-04-06T08:36:46.999Z</time></trkpt><trkpt lat="44.32227033534642" lon="10.105638670721701"><ele>745.3333333333333</ele><time>2026-04-06T08:36:47.999Z</time></trkpt><trkpt lat="44.32233775503655" lon="10.105873604296136"><ele>749.0</ele><time>2026-04-06T08:36:48.999Z</time></trkpt><trkpt lat="44.32238989833012" lon="10.106124514841108"><ele>754.0</ele><time>2026-04-06T08:36:49.999Z</time></trkpt><trkpt lat="44.32240799868704" lon="10.106402293307005"><ele>759.0</ele><time>2026-04-06T08:36:50.999Z</time></trkpt><trkpt lat="44.32240687049024" lon="10.106663304866387"><ele>764.0</ele><time>2026-04-06T08:36:51.999Z</time></trkpt><trkpt lat="44.32241337922948" lon="10.106888016964401"><ele>767.8000000000001</ele><time>2026-04-06T08:36:52.999Z</time></trkpt><trkpt lat="44.32242251130712" lon="10.10707803094322"><ele>771.6</ele><time>2026-04-06T08:36:53.999Z</time></trkpt><trkpt lat="44.32243452219237" lon="10.1072259968501"><ele>775.4</ele><time>2026-04-06T08:36:54.999Z</time></trkpt><trkpt lat="44.32245201914283" lon="10.107346216442188"><ele>779.2</ele><time>2026-04-06T08:36:55.999Z</time></trkpt><trkpt lat="44.322495159196826" lon="10.107430465645672"><ele>783.0</ele><time>2026-04-06T08:36:56.999Z</time></trkpt><trkpt lat="44.3225601161018" lon="10.107487545814374"><ele>783.0</ele><time>2026-04-06T08:36:57.999Z</time></trkpt><trkpt lat="44.322636635364546" lon="10.107490657900625"><ele>783.0</ele><time>2026-04-06T08:36:58.999Z</time></trkpt><trkpt lat="44.32271608416763" lon="10.107427052056968"><ele>783.0</ele><time>2026-04-06T08:36:59.999Z</time></trkpt><trkpt lat="44.322781723118176" lon="10.107322176316224"><ele>783.0</ele><time>2026-04-06T08:37:00.999Z</time></trkpt><trkpt lat="44.32285233381136" lon="10.107197086110975"><ele>783.0</ele><time>2026-04-06T08:37:01.999Z</time></trkpt><trkpt lat="44.32294186507247" lon="10.107110455846039"><ele>783.0</ele><time>2026-04-06T08:37:02.999Z</time></trkpt><trkpt lat="44.3230440089798" lon="10.107086045233387"><ele>783.0</ele><time>2026-04-06T08:37:03.999Z</time></trkpt><trkpt lat="44.32315529895239" lon="10.107116284568702"><ele>783.0</ele><time>2026-04-06T08:37:04.999Z</time></trkpt><trkpt lat="44.32327961448691" lon="10.107204874871583"><ele>783.0</ele><time>2026-04-06T08:37:05.999Z</time></trkpt><trkpt lat="44.32341390363039" lon="10.107309370115772"><ele>785.6666666666667</ele><time>2026-04-06T08:37:06.999Z</time></trkpt><trkpt lat="44.32357657338821" lon="10.1073790176273"><ele>788.3333333333334</ele><time>2026-04-06T08:37:07.999Z</time></trkpt><trkpt lat="44.323777750118516" lon="10.107405875022561"><ele>791.0</ele><time>2026-04-06T08:37:08.999Z</time></trkpt><trkpt lat="44.32396725566861" lon="10.107413593815812"><ele>782.3333333333334</ele><time>2026-04-06T08:37:09.999Z</time></trkpt><trkpt lat="44.324124273529755" lon="10.107378428195545"><ele>773.6666666666667</ele><time>2026-04-06T08:37:10.999Z</time></trkpt><trkpt lat="44.32427538852778" lon="10.10729986525013"><ele>765.0</ele><time>2026-04-06T08:37:11.999Z</time></trkpt><trkpt lat="44.32442356786168" lon="10.107247239766075"><ele>765.0</ele><time>2026-04-06T08:37:12.999Z</time></trkpt><trkpt lat="44.32455663922852" lon="10.107231688413473"><ele>765.0</ele><time>2026-04-06T08:37:13.999Z</time></trkpt><trkpt lat="44.32469759191631" lon="10.107259322927373"><ele>765.0</ele><time>2026-04-06T08:37:14.999Z</time></trkpt><trkpt lat="44.32482656730471" lon="10.107321537206767"><ele>765.0</ele><time>2026-04-06T08:37:15.999Z</time></trkpt><trkpt lat="44.32492920879433" lon="10.107412870589826"><ele>772.25</ele><time>2026-04-06T08:37:16.999Z</time></trkpt><trkpt lat="44.32501786242442" lon="10.10753274521441"><ele>779.5</ele><time>2026-04-06T08:37:17.999Z</time></trkpt><trkpt lat="44.32510551074823" lon="10.107684419246839"><ele>786.75</ele><time>2026-04-06T08:37:18.999Z</time></trkpt><trkpt lat="44.325195094885935" lon="10.107863512318184"><ele>794.0</ele><time>2026-04-06T08:37:19.999Z</time></trkpt><trkpt lat="44.32528500787228" lon="10.108017029354372"><ele>794.0000000000001</ele><time>2026-04-06T08:37:20.999Z</time></trkpt><trkpt lat="44.32536851848225" lon="10.108141052523472"><ele>794.0</ele><time>2026-04-06T08:37:21.999Z</time></trkpt><trkpt lat="44.325437823079994" lon="10.108240192990323"><ele>794.0</ele><time>2026-04-06T08:37:22.999Z</time></trkpt><trkpt lat="44.325499798641516" lon="10.108320929706352"><ele>794.0</ele><time>2026-04-06T08:37:23.999Z</time></trkpt><trkpt lat="44.32554558708463" lon="10.108398962438057"><ele>794.0000000000001</ele><time>2026-04-06T08:37:24.999Z</time></trkpt><trkpt lat="44.32555701347613" lon="10.108492134927719"><ele>794.0</ele><time>2026-04-06T08:37:25.999Z</time></trkpt><trkpt lat="44.32552643623138" lon="10.108591194434252"><ele>797.8000000000001</ele><time>2026-04-06T08:37:26.999Z</time></trkpt><trkpt lat="44.32544903785851" lon="10.10864349809344"><ele>801.6</ele><time>2026-04-06T08:37:27.999Z</time></trkpt><trkpt lat="44.32536316828273" lon="10.10863203971472"><ele>805.4</ele><time>2026-04-06T08:37:28.999Z</time></trkpt><trkpt lat="44.32528534763571" lon="10.108555939032277"><ele>809.2</ele><time>2026-04-06T08:37:29.999Z</time></trkpt><trkpt lat="44.325227925560576" lon="10.108401684866386"><ele>813.0</ele><time>2026-04-06T08:37:30.999Z</time></trkpt><trkpt lat="44.32515403958804" lon="10.108271350417677"><ele>808.25</ele><time>2026-04-06T08:37:31.999Z</time></trkpt><trkpt lat="44.32506311624595" lon="10.10813870644381"><ele>803.5</ele><time>2026-04-06T08:37:32.999Z</time></trkpt><trkpt lat="44.32498231651245" lon="10.108024450293788"><ele>798.75</ele><time>2026-04-06T08:37:33.999Z</time></trkpt><trkpt lat="44.32487914833015" lon="10.107927912761985"><ele>794.0</ele><time>2026-04-06T08:37:34.999Z</time></trkpt><trkpt lat="44.3247694063376" lon="10.107853145040993"><ele>793.25</ele><time>2026-04-06T08:37:35.999Z</time></trkpt><trkpt lat="44.32465554693319" lon="10.107805896515965"><ele>792.5</ele><time>2026-04-06T08:37:36.999Z</time></trkpt><trkpt lat="44.324536379613505" lon="10.10778867748655"><ele>791.75</ele><time>2026-04-06T08:37:37.999Z</time></trkpt><trkpt lat="44.3244137403834" lon="10.107800956359892"><ele>791.0</ele><time>2026-04-06T08:37:38.999Z</time></trkpt><trkpt lat="44.32429023918299" lon="10.10784036736417"><ele>791.0</ele><time>2026-04-06T08:37:39.999Z</time></trkpt><trkpt lat="44.32417472430654" lon="10.107891669292716"><ele>791.0</ele><time>2026-04-06T08:37:40.999Z</time></trkpt><trkpt lat="44.32405488538959" lon="10.107936376204023"><ele>791.0</ele><time>2026-04-06T08:37:41.999Z</time></trkpt><trkpt lat="44.32392866602942" lon="10.107951204066222"><ele>791.0</ele><time>2026-04-06T08:37:42.999Z</time></trkpt><trkpt lat="44.32379880667276" lon="10.10793991514173"><ele>791.0</ele><time>2026-04-06T08:37:43.999Z</time></trkpt><trkpt lat="44.323677259575916" lon="10.107924869677833"><ele>791.0</ele><time>2026-04-06T08:37:44.999Z</time></trkpt><trkpt lat="44.32355897628161" lon="10.107909778533994"><ele>791.0</ele><time>2026-04-06T08:37:45.999Z</time></trkpt><trkpt lat="44.32343663248338" lon="10.107900530798279"><ele>791.0</ele><time>2026-04-06T08:37:46.999Z</time></trkpt><trkpt lat="44.32331237864833" lon="10.107889332761967"><ele>791.0</ele><time>2026-04-06T08:37:47.999Z</time></trkpt><trkpt lat="44.3232019911007" lon="10.107879562869963"><ele>791.0</ele><time>2026-04-06T08:37:48.999Z</time></trkpt><trkpt lat="44.32312170376734" lon="10.107873021480708"><ele>791.0</ele><time>2026-04-06T08:37:49.999Z</time></trkpt><trkpt lat="44.32305833894378" lon="10.107887817075607"><ele>791.0</ele><time>2026-04-06T08:37:50.999Z</time></trkpt><trkpt lat="44.32298583144049" lon="10.108031021741029"><ele>791.0</ele><time>2026-04-06T08:37:52.999Z</time></trkpt><trkpt lat="44.32299356273307" lon="10.108138407321775"><ele>791.0</ele><time>2026-04-06T08:37:53.999Z</time></trkpt><trkpt lat="44.323036678150224" lon="10.108225019335167"><ele>791.0</ele><time>2026-04-06T08:37:54.999Z</time></trkpt><trkpt lat="44.32310238373282" lon="10.108277642069933"><ele>791.0</ele><time>2026-04-06T08:37:55.999Z</time></trkpt><trkpt lat="44.32319136703605" lon="10.108269527409186"><ele>791.0</ele><time>2026-04-06T08:37:56.999Z</time></trkpt><trkpt lat="44.32329249635018" lon="10.108232819203204"><ele>791.0</ele><time>2026-04-06T08:37:57.999Z</time></trkpt><trkpt lat="44.323404868198324" lon="10.108192124601828"><ele>791.0</ele><time>2026-04-06T08:37:58.999Z</time></trkpt><trkpt lat="44.323513482480074" lon="10.10818204323325"><ele>791.0</ele><time>2026-04-06T08:37:59.999Z</time></trkpt><trkpt lat="44.323618204295116" lon="10.10820752825386"><ele>791.0</ele><time>2026-04-06T08:38:00.999Z</time></trkpt><trkpt lat="44.32373395385915" lon="10.108282316489"><ele>791.0</ele><time>2026-04-06T08:38:01.999Z</time></trkpt><trkpt lat="44.32384500071053" lon="10.108389470549753"><ele>797.8</ele><time>2026-04-06T08:38:02.999Z</time></trkpt><trkpt lat="44.32393628224657" lon="10.108482903874764"><ele>804.5999999999999</ele><time>2026-04-06T08:38:03.999Z</time></trkpt><trkpt lat="44.324020572993625" lon="10.108553386475691"><ele>811.4</ele><time>2026-04-06T08:38:04.999Z</time></trkpt><trkpt lat="44.324112684576725" lon="10.108614429123197"><ele>818.2</ele><time>2026-04-06T08:38:05.999Z</time></trkpt><trkpt lat="44.32421141486443" lon="10.108666057649486"><ele>825.0</ele><time>2026-04-06T08:38:06.999Z</time></trkpt><trkpt lat="44.32431151950036" lon="10.108717664533584"><ele>825.0</ele><time>2026-04-06T08:38:07.999Z</time></trkpt><trkpt lat="44.32443266346774" lon="10.108714869134666"><ele>825.0</ele><time>2026-04-06T08:38:08.999Z</time></trkpt><trkpt lat="44.32455658937603" lon="10.108737171954282"><ele>825.0</ele><time>2026-04-06T08:38:09.999Z</time></trkpt><trkpt lat="44.324674175665436" lon="10.108779002953147"><ele>825.0</ele><time>2026-04-06T08:38:10.999Z</time></trkpt><trkpt lat="44.32477476355647" lon="10.108857436083076"><ele>822.0</ele><time>2026-04-06T08:38:11.999Z</time></trkpt><trkpt lat="44.32486591895453" lon="10.108959508149669"><ele>819.0</ele><time>2026-04-06T08:38:12.999Z</time></trkpt><trkpt lat="44.324942457218455" lon="10.109075949436816"><ele>816.0</ele><time>2026-04-06T08:38:13.999Z</time></trkpt><trkpt lat="44.32501347268797" lon="10.109208611702746"><ele>813.0</ele><time>2026-04-06T08:38:14.999Z</time></trkpt><trkpt lat="44.3250802236067" lon="10.109357723243948"><ele>821.0</ele><time>2026-04-06T08:38:15.999Z</time></trkpt><trkpt lat="44.325137854050084" lon="10.10950767763621"><ele>829.0</ele><time>2026-04-06T08:38:16.999Z</time></trkpt><trkpt lat="44.32518731348572" lon="10.109655755415629"><ele>837.0</ele><time>2026-04-06T08:38:17.999Z</time></trkpt><trkpt lat="44.32522919648244" lon="10.109796125341358"><ele>845.0</ele><time>2026-04-06T08:38:18.999Z</time></trkpt><trkpt lat="44.32526763812714" lon="10.109939624253268"><ele>849.2</ele><time>2026-04-06T08:38:19.999Z</time></trkpt><trkpt lat="44.32528901077549" lon="10.110083579148764"><ele>853.4</ele><time>2026-04-06T08:38:20.999Z</time></trkpt><trkpt lat="44.32529561664925" lon="10.110232962239088"><ele>857.5999999999999</ele><time>2026-04-06T08:38:21.999Z</time></trkpt><trkpt lat="44.32528264114419" lon="10.110385061936647"><ele>861.8</ele><time>2026-04-06T08:38:22.999Z</time></trkpt><trkpt lat="44.3252461952997" lon="10.11052634682141"><ele>866.0</ele><time>2026-04-06T08:38:23.999Z</time></trkpt><trkpt lat="44.325196551358765" lon="10.11064901190438"><ele>866.0000000000001</ele><time>2026-04-06T08:38:24.999Z</time></trkpt><trkpt lat="44.325135195475" lon="10.110731981578654"><ele>866.0</ele><time>2026-04-06T08:38:25.999Z</time></trkpt><trkpt lat="44.32507806799202" lon="10.110798063685888"><ele>866.0</ele><time>2026-04-06T08:38:26.999Z</time></trkpt><trkpt lat="44.32504000409009" lon="10.110884260939066"><ele>866.0</ele><time>2026-04-06T08:38:27.999Z</time></trkpt><trkpt lat="44.325028364350594" lon="10.110975659028487"><ele>866.0000000000001</ele><time>2026-04-06T08:38:28.999Z</time></trkpt><trkpt lat="44.32504521347892" lon="10.111069807556905"><ele>866.0</ele><time>2026-04-06T08:38:29.999Z</time></trkpt><trkpt lat="44.32511050827061" lon="10.111145528959732"><ele>866.1999999999999</ele><time>2026-04-06T08:38:30.999Z</time></trkpt><trkpt lat="44.32518474141434" lon="10.11118378493406"><ele>866.3999999999999</ele><time>2026-04-06T08:38:31.999Z</time></trkpt><trkpt lat="44.32527321846891" lon="10.11117252615569"><ele>866.6</ele><time>2026-04-06T08:38:32.999Z</time></trkpt><trkpt lat="44.325362197988895" lon="10.111114635680789"><ele>866.8</ele><time>2026-04-06T08:38:33.999Z</time></trkpt><trkpt lat="44.3254690294719" lon="10.111010641682258"><ele>867.0</ele><time>2026-04-06T08:38:34.999Z</time></trkpt><trkpt lat="44.32560096748192" lon="10.110913552550182"><ele>867.0</ele><time>2026-04-06T08:38:35.999Z</time></trkpt><trkpt lat="44.32575374857291" lon="10.110863086155087"><ele>867.0</ele><time>2026-04-06T08:38:36.999Z</time></trkpt><trkpt lat="44.32588758566335" lon="10.110845172826878"><ele>867.0</ele><time>2026-04-06T08:38:37.999Z</time></trkpt><trkpt lat="44.3259933378371" lon="10.110785231366252"><ele>867.0</ele><time>2026-04-06T08:38:38.999Z</time></trkpt><trkpt lat="44.3260878800412" lon="10.110641802250045"><ele>864.6666666666667</ele><time>2026-04-06T08:38:39.999Z</time></trkpt><trkpt lat="44.326195761325415" lon="10.110461903974924"><ele>862.3333333333334</ele><time>2026-04-06T08:38:40.999Z</time></trkpt><trkpt lat="44.32631543026484" lon="10.110292226382066"><ele>860.0</ele><time>2026-04-06T08:38:41.999Z</time></trkpt><trkpt lat="44.32643523981816" lon="10.110164497787874"><ele>860.0</ele><time>2026-04-06T08:38:42.999Z</time></trkpt><trkpt lat="44.32655190517239" lon="10.110088767697905"><ele>860.0</ele><time>2026-04-06T08:38:43.999Z</time></trkpt><trkpt lat="44.326677016672086" lon="10.11003626922975"><ele>860.0</ele><time>2026-04-06T08:38:44.999Z</time></trkpt><trkpt lat="44.32681939761681" lon="10.109996950057369"><ele>860.0</ele><time>2026-04-06T08:38:46Z</time></trkpt><trkpt lat="44.32698170833517" lon="10.109957868204642"><ele>860.0</ele><time>2026-04-06T08:38:47Z</time></trkpt><trkpt lat="44.32716042525967" lon="10.109920203007938"><ele>860.0</ele><time>2026-04-06T08:38:48Z</time></trkpt><trkpt lat="44.327325677626305" lon="10.109888798423029"><ele>860.0</ele><time>2026-04-06T08:38:49Z</time></trkpt><trkpt lat="44.32747295220205" lon="10.10987371951928"><ele>862.5</ele><time>2026-04-06T08:38:50Z</time></trkpt><trkpt lat="44.32760429808737" lon="10.109894579382521"><ele>865.0</ele><time>2026-04-06T08:38:51Z</time></trkpt><trkpt lat="44.32773445307851" lon="10.109941199146641"><ele>867.5</ele><time>2026-04-06T08:38:52Z</time></trkpt><trkpt lat="44.32787009513395" lon="10.110016148115518"><ele>870.0</ele><time>2026-04-06T08:38:53Z</time></trkpt><trkpt lat="44.32799846945571" lon="10.110112028419145"><ele>866.6666666666667</ele><time>2026-04-06T08:38:54Z</time></trkpt><trkpt lat="44.32812625359123" lon="10.110255091632707"><ele>863.3333333333334</ele><time>2026-04-06T08:38:55Z</time></trkpt><trkpt lat="44.32826048923461" lon="10.110422887316036"><ele>860.0</ele><time>2026-04-06T08:38:56Z</time></trkpt><trkpt lat="44.328410062313935" lon="10.110598116083727"><ele>870.3333333333334</ele><time>2026-04-06T08:38:57Z</time></trkpt><trkpt lat="44.3285672757526" lon="10.110779166320187"><ele>880.6666666666667</ele><time>2026-04-06T08:38:58Z</time></trkpt><trkpt lat="44.328702272489785" lon="10.110945381893202"><ele>891.0</ele><time>2026-04-06T08:38:59Z</time></trkpt><trkpt lat="44.3288160597532" lon="10.111091122144277"><ele>885.75</ele><time>2026-04-06T08:39:00Z</time></trkpt><trkpt lat="44.32891959631371" lon="10.111233925161983"><ele>880.5</ele><time>2026-04-06T08:39:01Z</time></trkpt><trkpt lat="44.32901910571205" lon="10.111359877095536"><ele>875.25</ele><time>2026-04-06T08:39:02Z</time></trkpt><trkpt lat="44.329127906855184" lon="10.111446872607578"><ele>870.0</ele><time>2026-04-06T08:39:03Z</time></trkpt><trkpt lat="44.329248981260555" lon="10.111493150194987"><ele>870.0</ele><time>2026-04-06T08:39:04Z</time></trkpt><trkpt lat="44.329366481720626" lon="10.11154342293702"><ele>870.0</ele><time>2026-04-06T08:39:05Z</time></trkpt><trkpt lat="44.32945938400757" lon="10.111602933098972"><ele>870.0</ele><time>2026-04-06T08:39:06Z</time></trkpt><trkpt lat="44.32954161262053" lon="10.111690066461867"><ele>870.0</ele><time>2026-04-06T08:39:07Z</time></trkpt><trkpt lat="44.32962244269129" lon="10.111817520103944"><ele>871.0</ele><time>2026-04-06T08:39:08Z</time></trkpt><trkpt lat="44.3297109024562" lon="10.11197691576799"><ele>872.0</ele><time>2026-04-06T08:39:09Z</time></trkpt><trkpt lat="44.329793345346154" lon="10.11216304196022"><ele>873.0</ele><time>2026-04-06T08:39:10Z</time></trkpt><trkpt lat="44.32986850650935" lon="10.112345394917522"><ele>876.8</ele><time>2026-04-06T08:39:11Z</time></trkpt><trkpt lat="44.32992690719133" lon="10.112494759636865"><ele>880.5999999999999</ele><time>2026-04-06T08:39:12Z</time></trkpt><trkpt lat="44.32997892274022" lon="10.112619049288513"><ele>884.4000000000001</ele><time>2026-04-06T08:39:13Z</time></trkpt><trkpt lat="44.3300284394893" lon="10.112730172065453"><ele>888.2</ele><time>2026-04-06T08:39:14Z</time></trkpt><trkpt lat="44.33006248654585" lon="10.112839138239304"><ele>892.0</ele><time>2026-04-06T08:39:15Z</time></trkpt><trkpt lat="44.33005966850402" lon="10.112946277661877"><ele>892.0</ele><time>2026-04-06T08:39:16Z</time></trkpt><trkpt lat="44.33001457729337" lon="10.113030806739427"><ele>892.0</ele><time>2026-04-06T08:39:17Z</time></trkpt><trkpt lat="44.32994108607583" lon="10.113058744530045"><ele>892.0</ele><time>2026-04-06T08:39:18Z</time></trkpt><trkpt lat="44.32985702407207" lon="10.113029415155212"><ele>892.0</ele><time>2026-04-06T08:39:19Z</time></trkpt><trkpt lat="44.32978014232898" lon="10.112941061496938"><ele>892.0</ele><time>2026-04-06T08:39:20Z</time></trkpt><trkpt lat="44.32972523354095" lon="10.112785764144718"><ele>894.0</ele><time>2026-04-06T08:39:21Z</time></trkpt><trkpt lat="44.329689745115665" lon="10.112579758950003"><ele>896.0</ele><time>2026-04-06T08:39:22Z</time></trkpt><trkpt lat="44.32968516116716" lon="10.112365782391157"><ele>898.0</ele><time>2026-04-06T08:39:23Z</time></trkpt><trkpt lat="44.329661729230814" lon="10.112213146996154"><ele>900.0</ele><time>2026-04-06T08:39:24Z</time></trkpt><trkpt lat="44.32959720255778" lon="10.112088391213586"><ele>900.0</ele><time>2026-04-06T08:39:25Z</time></trkpt><trkpt lat="44.32950871970341" lon="10.111983873493829"><ele>900.0</ele><time>2026-04-06T08:39:26Z</time></trkpt><trkpt lat="44.32939270711207" lon="10.111924870213"><ele>900.0</ele><time>2026-04-06T08:39:27Z</time></trkpt><trkpt lat="44.32925081424749" lon="10.111904703457347"><ele>900.0</ele><time>2026-04-06T08:39:28Z</time></trkpt><trkpt lat="44.32908718580486" lon="10.111913432831352"><ele>900.0</ele><time>2026-04-06T08:39:29Z</time></trkpt><trkpt lat="44.328905400941544" lon="10.111896637576352"><ele>900.0</ele><time>2026-04-06T08:39:30Z</time></trkpt><trkpt lat="44.32871147697877" lon="10.111846240066974"><ele>900.0</ele><time>2026-04-06T08:39:31Z</time></trkpt><trkpt lat="44.32853726202515" lon="10.11176254284632"><ele>902.6666666666667</ele><time>2026-04-06T08:39:32Z</time></trkpt><trkpt lat="44.32838411701734" lon="10.111635046822968"><ele>905.3333333333334</ele><time>2026-04-06T08:39:33Z</time></trkpt><trkpt lat="44.32822692069846" lon="10.111484301868224"><ele>908.0</ele><time>2026-04-06T08:39:34Z</time></trkpt><trkpt lat="44.328051747381075" lon="10.111356835836661"><ele>908.0</ele><time>2026-04-06T08:39:35Z</time></trkpt><trkpt lat="44.32787185561943" lon="10.111267070858108"><ele>908.0</ele><time>2026-04-06T08:39:36Z</time></trkpt><trkpt lat="44.32770934857247" lon="10.111203790204625"><ele>908.0</ele><time>2026-04-06T08:39:37Z</time></trkpt><trkpt lat="44.32755294538048" lon="10.111162457126852"><ele>908.0</ele><time>2026-04-06T08:39:38Z</time></trkpt><trkpt lat="44.32739145659911" lon="10.111155052726073"><ele>908.0</ele><time>2026-04-06T08:39:39Z</time></trkpt><trkpt lat="44.32721994329629" lon="10.111168707278646"><ele>908.0</ele><time>2026-04-06T08:39:40Z</time></trkpt><trkpt lat="44.327048535909015" lon="10.11119760160223"><ele>905.5</ele><time>2026-04-06T08:39:41Z</time></trkpt><trkpt lat="44.32690427119104" lon="10.111234810874764"><ele>903.0</ele><time>2026-04-06T08:39:42Z</time></trkpt><trkpt lat="44.326765523833394" lon="10.11129154662025"><ele>900.5</ele><time>2026-04-06T08:39:43Z</time></trkpt><trkpt lat="44.32664212833608" lon="10.11138625184862"><ele>898.0</ele><time>2026-04-06T08:39:44Z</time></trkpt><trkpt lat="44.32652328622614" lon="10.111530219899432"><ele>900.75</ele><time>2026-04-06T08:39:45Z</time></trkpt><trkpt lat="44.32640196694462" lon="10.11169676104518"><ele>903.5</ele><time>2026-04-06T08:39:46Z</time></trkpt><trkpt lat="44.32630969308489" lon="10.111865208661383"><ele>906.25</ele><time>2026-04-06T08:39:47Z</time></trkpt><trkpt lat="44.32623394909793" lon="10.111989277649199"><ele>909.0</ele><time>2026-04-06T08:39:48Z</time></trkpt><trkpt lat="44.32614660002678" lon="10.112042429460704"><ele>909.0</ele><time>2026-04-06T08:39:49Z</time></trkpt><trkpt lat="44.326042506954124" lon="10.112047878344438"><ele>909.0</ele><time>2026-04-06T08:39:50Z</time></trkpt><trkpt lat="44.32594636897962" lon="10.11203466737266"><ele>909.0</ele><time>2026-04-06T08:39:51Z</time></trkpt><trkpt lat="44.32587012670897" lon="10.112059575168638"><ele>909.0</ele><time>2026-04-06T08:39:52Z</time></trkpt><trkpt lat="44.32581365822006" lon="10.112139705916496"><ele>909.0</ele><time>2026-04-06T08:39:53Z</time></trkpt><trkpt lat="44.32578852247829" lon="10.112253203873129"><ele>909.0</ele><time>2026-04-06T08:39:54Z</time></trkpt><trkpt lat="44.32579844437882" lon="10.112370865147824"><ele>909.0</ele><time>2026-04-06T08:39:55Z</time></trkpt><trkpt lat="44.325846353440575" lon="10.11245615444173"><ele>909.0000000000001</ele><time>2026-04-06T08:39:56Z</time></trkpt><trkpt lat="44.32593180700983" lon="10.112502519370707"><ele>909.0000000000001</ele><time>2026-04-06T08:39:57Z</time></trkpt><trkpt lat="44.326026281687966" lon="10.112477600471202"><ele>909.0</ele><time>2026-04-06T08:39:58Z</time></trkpt><trkpt lat="44.32612699843066" lon="10.112399609214322"><ele>909.0</ele><time>2026-04-06T08:39:59Z</time></trkpt><trkpt lat="44.3262231643405" lon="10.112307106984133"><ele>909.0</ele><time>2026-04-06T08:40:00Z</time></trkpt><trkpt lat="44.32635277016112" lon="10.112204608060809"><ele>909.0</ele><time>2026-04-06T08:40:01Z</time></trkpt><trkpt lat="44.32648830626798" lon="10.112088120853933"><ele>909.0</ele><time>2026-04-06T08:40:02Z</time></trkpt><trkpt lat="44.32661453132886" lon="10.11196624959041"><ele>915.75</ele><time>2026-04-06T08:40:03Z</time></trkpt><trkpt lat="44.326734152150095" lon="10.111882802520734"><ele>922.5</ele><time>2026-04-06T08:40:04Z</time></trkpt><trkpt lat="44.32686303655102" lon="10.111818219745459"><ele>929.25</ele><time>2026-04-06T08:40:05Z</time></trkpt><trkpt lat="44.32701401281181" lon="10.111863089764315"><ele>936.0</ele><time>2026-04-06T08:40:06Z</time></trkpt><trkpt lat="44.32718437972057" lon="10.11189372900258"><ele>937.25</ele><time>2026-04-06T08:40:07Z</time></trkpt><trkpt lat="44.32732628770214" lon="10.111919750550957"><ele>938.5</ele><time>2026-04-06T08:40:08Z</time></trkpt><trkpt lat="44.32746542806592" lon="10.11198046536177"><ele>939.75</ele><time>2026-04-06T08:40:09Z</time></trkpt><trkpt lat="44.32759753988706" lon="10.112095783982866"><ele>941.0</ele><time>2026-04-06T08:40:10Z</time></trkpt><trkpt lat="44.32773518748324" lon="10.112245765097995"><ele>944.6666666666667</ele><time>2026-04-06T08:40:11Z</time></trkpt><trkpt lat="44.32787646326896" lon="10.112415735888678"><ele>948.3333333333333</ele><time>2026-04-06T08:40:12Z</time></trkpt><trkpt lat="44.32802897671031" lon="10.11260988974967"><ele>952.0</ele><time>2026-04-06T08:40:13Z</time></trkpt><trkpt lat="44.32819349885479" lon="10.11277822010041"><ele>952.0</ele><time>2026-04-06T08:40:14Z</time></trkpt><trkpt lat="44.32835066805885" lon="10.112928367732183"><ele>952.0</ele><time>2026-04-06T08:40:15Z</time></trkpt><trkpt lat="44.32847823124448" lon="10.113044789587049"><ele>952.0</ele><time>2026-04-06T08:40:16Z</time></trkpt><trkpt lat="44.32858335261039" lon="10.113169910161417"><ele>961.0</ele><time>2026-04-06T08:40:17Z</time></trkpt><trkpt lat="44.32867717987012" lon="10.113349400601626"><ele>970.0</ele><time>2026-04-06T08:40:18Z</time></trkpt><trkpt lat="44.32876382310328" lon="10.113565130366599"><ele>979.0</ele><time>2026-04-06T08:40:19Z</time></trkpt><trkpt lat="44.32886417927491" lon="10.113785085201775"><ele>979.3333333333333</ele><time>2026-04-06T08:40:20Z</time></trkpt><trkpt lat="44.32899490032242" lon="10.11396239907296"><ele>979.6666666666667</ele><time>2026-04-06T08:40:21Z</time></trkpt><trkpt lat="44.32915173634415" lon="10.114133387892"><ele>980.0</ele><time>2026-04-06T08:40:22Z</time></trkpt><trkpt lat="44.32929875808521" lon="10.114297374030473"><ele>980.0</ele><time>2026-04-06T08:40:23Z</time></trkpt><trkpt lat="44.329436488118006" lon="10.114450880874431"><ele>980.0</ele><time>2026-04-06T08:40:24Z</time></trkpt><trkpt lat="44.329551157361806" lon="10.114586343207915"><ele>980.0</ele><time>2026-04-06T08:40:25Z</time></trkpt><trkpt lat="44.329647923767155" lon="10.114710074583554"><ele>980.0</ele><time>2026-04-06T08:40:26Z</time></trkpt><trkpt lat="44.329719471945985" lon="10.11482402766106"><ele>980.0</ele><time>2026-04-06T08:40:27Z</time></trkpt><trkpt lat="44.32976996404134" lon="10.114942520360048"><ele>980.0</ele><time>2026-04-06T08:40:28Z</time></trkpt><trkpt lat="44.32979366780788" lon="10.115082992268917"><ele>980.0</ele><time>2026-04-06T08:40:29Z</time></trkpt><trkpt lat="44.32978543255305" lon="10.115238442987929"><ele>980.0</ele><time>2026-04-06T08:40:30Z</time></trkpt><trkpt lat="44.32977301417812" lon="10.115362401642885"><ele>978.2</ele><time>2026-04-06T08:40:31Z</time></trkpt><trkpt lat="44.329800549828576" lon="10.115469495949853"><ele>976.4</ele><time>2026-04-06T08:40:32Z</time></trkpt><trkpt lat="44.32987427913757" lon="10.115553566677088"><ele>974.5999999999999</ele><time>2026-04-06T08:40:32.999Z</time></trkpt><trkpt lat="44.329975336085425" lon="10.115607556575338"><ele>972.8</ele><time>2026-04-06T08:40:33.999Z</time></trkpt><trkpt lat="44.330100208158825" lon="10.115607834250783"><ele>971.0</ele><time>2026-04-06T08:40:34.999Z</time></trkpt><trkpt lat="44.33021908941485" lon="10.115590124841555"><ele>971.0</ele><time>2026-04-06T08:40:35.999Z</time></trkpt><trkpt lat="44.33032053941078" lon="10.115625692559147"><ele>971.0</ele><time>2026-04-06T08:40:36.999Z</time></trkpt><trkpt lat="44.33041071301737" lon="10.115704197937282"><ele>971.0</ele><time>2026-04-06T08:40:37.999Z</time></trkpt><trkpt lat="44.33050779147083" lon="10.11584462863788"><ele>971.0</ele><time>2026-04-06T08:40:38.999Z</time></trkpt><trkpt lat="44.330624337704975" lon="10.116008047535786"><ele>973.6666666666667</ele><time>2026-04-06T08:40:39.999Z</time></trkpt><trkpt lat="44.330772538471756" lon="10.116182589795802"><ele>976.3333333333333</ele><time>2026-04-06T08:40:40.999Z</time></trkpt><trkpt lat="44.33093938614126" lon="10.116351017718568"><ele>979.0</ele><time>2026-04-06T08:40:41.999Z</time></trkpt><trkpt lat="44.331109016859166" lon="10.116503472883151"><ele>982.0</ele><time>2026-04-06T08:40:42.999Z</time></trkpt><trkpt lat="44.33127337664904" lon="10.116622938808291"><ele>985.0</ele><time>2026-04-06T08:40:43.999Z</time></trkpt><trkpt lat="44.33141477102217" lon="10.116713922924111"><ele>988.0</ele><time>2026-04-06T08:40:44.999Z</time></trkpt><trkpt lat="44.33153301123443" lon="10.116801168629385"><ele>988.0</ele><time>2026-04-06T08:40:45.999Z</time></trkpt><trkpt lat="44.331642582568705" lon="10.116915126377851"><ele>988.0</ele><time>2026-04-06T08:40:46.999Z</time></trkpt><trkpt lat="44.331749599194545" lon="10.117059073447468"><ele>988.0</ele><time>2026-04-06T08:40:47.999Z</time></trkpt><trkpt lat="44.33187306060614" lon="10.117198599800226"><ele>988.0</ele><time>2026-04-06T08:40:48.999Z</time></trkpt><trkpt lat="44.33199651981575" lon="10.117312061403975"><ele>988.6666666666666</ele><time>2026-04-06T08:40:49.999Z</time></trkpt><trkpt lat="44.33210319992444" lon="10.117432328554383"><ele>989.3333333333333</ele><time>2026-04-06T08:40:50.999Z</time></trkpt><trkpt lat="44.33219596411562" lon="10.117599850805254"><ele>990.0</ele><time>2026-04-06T08:40:52.001Z</time></trkpt><trkpt lat="44.33228332867766" lon="10.11780434060848"><ele>990.0</ele><time>2026-04-06T08:40:53.001Z</time></trkpt><trkpt lat="44.33238566991485" lon="10.11802051208275"><ele>990.0</ele><time>2026-04-06T08:40:54.001Z</time></trkpt><trkpt lat="44.33251749738156" lon="10.118209727092944"><ele>990.0</ele><time>2026-04-06T08:40:55.001Z</time></trkpt><trkpt lat="44.3326803743614" lon="10.11839739696713"><ele>1008.0</ele><time>2026-04-06T08:40:56.001Z</time></trkpt><trkpt lat="44.33285724879511" lon="10.118607588658092"><ele>1026.0</ele><time>2026-04-06T08:40:57.001Z</time></trkpt><trkpt lat="44.33302910475141" lon="10.118846496918001"><ele>1023.5</ele><time>2026-04-06T08:40:58.001Z</time></trkpt><trkpt lat="44.33321236305925" lon="10.119085314259843"><ele>1021.0</ele><time>2026-04-06T08:40:59.001Z</time></trkpt><trkpt lat="44.33339077622164" lon="10.119301260579325"><ele>1021.0</ele><time>2026-04-06T08:41:00.001Z</time></trkpt><trkpt lat="44.3335498072588" lon="10.119495860438207"><ele>1021.0</ele><time>2026-04-06T08:41:01.001Z</time></trkpt><trkpt lat="44.3337057140108" lon="10.119701036739654"><ele>1021.0</ele><time>2026-04-06T08:41:02.001Z</time></trkpt><trkpt lat="44.33385241194572" lon="10.119909437705774"><ele>1020.3333333333333</ele><time>2026-04-06T08:41:03.001Z</time></trkpt><trkpt lat="44.33398638936358" lon="10.120106204930662"><ele>1019.6666666666667</ele><time>2026-04-06T08:41:04.001Z</time></trkpt><trkpt lat="44.33410153712167" lon="10.120303158833703"><ele>1019.0</ele><time>2026-04-06T08:41:05.001Z</time></trkpt><trkpt lat="44.334200832733906" lon="10.120502578665796"><ele>1019.0</ele><time>2026-04-06T08:41:06.001Z</time></trkpt><trkpt lat="44.33428558831257" lon="10.120705422751433"><ele>1019.0</ele><time>2026-04-06T08:41:07.001Z</time></trkpt><trkpt lat="44.334351293287106" lon="10.12089961263571"><ele>1019.0</ele><time>2026-04-06T08:41:08.001Z</time></trkpt><trkpt lat="44.33439655627548" lon="10.121091467936903"><ele>1027.0</ele><time>2026-04-06T08:41:09.001Z</time></trkpt><trkpt lat="44.33442678075264" lon="10.12131498591668"><ele>1035.0</ele><time>2026-04-06T08:41:10.001Z</time></trkpt><trkpt lat="44.334450193314886" lon="10.121540345832068"><ele>1043.0</ele><time>2026-04-06T08:41:11.001Z</time></trkpt><trkpt lat="44.334501530015025" lon="10.121745575462448"><ele>1036.0</ele><time>2026-04-06T08:41:12.001Z</time></trkpt><trkpt lat="44.33458361596297" lon="10.121927393021378"><ele>1029.0</ele><time>2026-04-06T08:41:13.001Z</time></trkpt><trkpt lat="44.334688841304256" lon="10.122097925249859"><ele>1022.0</ele><time>2026-04-06T08:41:14.001Z</time></trkpt><trkpt lat="44.33479727913929" lon="10.122260212837032"><ele>1027.25</ele><time>2026-04-06T08:41:15.001Z</time></trkpt><trkpt lat="44.334875313688116" lon="10.122414776611036"><ele>1032.5</ele><time>2026-04-06T08:41:16.001Z</time></trkpt><trkpt lat="44.334922773309096" lon="10.122573886362458"><ele>1037.75</ele><time>2026-04-06T08:41:17Z</time></trkpt><trkpt lat="44.334948798922355" lon="10.122764895303796"><ele>1043.0</ele><time>2026-04-06T08:41:18Z</time></trkpt><trkpt lat="44.33495890535396" lon="10.122979153157031"><ele>1043.0</ele><time>2026-04-06T08:41:19Z</time></trkpt><trkpt lat="44.33498562360062" lon="10.123197795272771"><ele>1043.0</ele><time>2026-04-06T08:41:20Z</time></trkpt><trkpt lat="44.335029022143196" lon="10.123431318608091"><ele>1043.0</ele><time>2026-04-06T08:41:21Z</time></trkpt><trkpt lat="44.33506417695124" lon="10.123680518348165"><ele>1048.0</ele><time>2026-04-06T08:41:22Z</time></trkpt><trkpt lat="44.335076165599816" lon="10.123946599500854"><ele>1053.0</ele><time>2026-04-06T08:41:23Z</time></trkpt><trkpt lat="44.33507221187809" lon="10.12418776439295"><ele>1058.0</ele><time>2026-04-06T08:41:24Z</time></trkpt><trkpt lat="44.33507635739259" lon="10.124404509284178"><ele>1059.0</ele><time>2026-04-06T08:41:25Z</time></trkpt><trkpt lat="44.335091649445154" lon="10.124556736585612"><ele>1060.0</ele><time>2026-04-06T08:41:26Z</time></trkpt><trkpt lat="44.33512419439146" lon="10.124724898704589"><ele>1061.0</ele><time>2026-04-06T08:41:27Z</time></trkpt><trkpt lat="44.335171560681246" lon="10.124923126859024"><ele>1062.0</ele><time>2026-04-06T08:41:28Z</time></trkpt><trkpt lat="44.33521876819978" lon="10.125113017794947"><ele>1062.8</ele><time>2026-04-06T08:41:29Z</time></trkpt><trkpt lat="44.33526601372732" lon="10.125281584757932"><ele>1063.6</ele><time>2026-04-06T08:41:30Z</time></trkpt><trkpt lat="44.33530700119069" lon="10.125420954964122"><ele>1064.3999999999999</ele><time>2026-04-06T08:41:31Z</time></trkpt><trkpt lat="44.335344842241916" lon="10.125539627278215"><ele>1065.2</ele><time>2026-04-06T08:41:32Z</time></trkpt><trkpt lat="44.33540587109222" lon="10.125651769081237"><ele>1066.0</ele><time>2026-04-06T08:41:33Z</time></trkpt><trkpt lat="44.33548813508144" lon="10.125767748467622"><ele>1064.25</ele><time>2026-04-06T08:41:34Z</time></trkpt><trkpt lat="44.335588608198925" lon="10.12589967030926"><ele>1062.5</ele><time>2026-04-06T08:41:35Z</time></trkpt><trkpt lat="44.335694359967924" lon="10.126043055674861"><ele>1060.75</ele><time>2026-04-06T08:41:36Z</time></trkpt><trkpt lat="44.33580404319521" lon="10.126144156003518"><ele>1059.0</ele><time>2026-04-06T08:41:37Z</time></trkpt><trkpt lat="44.335941167822526" lon="10.1262161064198"><ele>1059.0</ele><time>2026-04-06T08:41:38Z</time></trkpt><trkpt lat="44.33609262933368" lon="10.126274528908096"><ele>1059.0</ele><time>2026-04-06T08:41:39Z</time></trkpt><trkpt lat="44.33621626880168" lon="10.126320567294782"><ele>1059.0</ele><time>2026-04-06T08:41:40Z</time></trkpt><trkpt lat="44.33630941581961" lon="10.126406443853663"><ele>1059.0</ele><time>2026-04-06T08:41:41Z</time></trkpt><trkpt lat="44.336362878093055" lon="10.126522423324626"><ele>1058.4</ele><time>2026-04-06T08:41:42Z</time></trkpt><trkpt lat="44.336416386223895" lon="10.126596953432276"><ele>1057.8000000000002</ele><time>2026-04-06T08:41:43Z</time></trkpt><trkpt lat="44.33650052734245" lon="10.12661311118796"><ele>1057.1999999999998</ele><time>2026-04-06T08:41:44Z</time></trkpt><trkpt lat="44.33660428990162" lon="10.126569929247704"><ele>1056.6</ele><time>2026-04-06T08:41:45Z</time></trkpt><trkpt lat="44.336710929135364" lon="10.126483062140238"><ele>1056.0</ele><time>2026-04-06T08:41:46Z</time></trkpt><trkpt lat="44.33683502687406" lon="10.126378476553876"><ele>1056.0</ele><time>2026-04-06T08:41:47Z</time></trkpt><trkpt lat="44.33695582481229" lon="10.126311113376008"><ele>1056.0</ele><time>2026-04-06T08:41:48Z</time></trkpt><trkpt lat="44.337057446130075" lon="10.126282808166872"><ele>1056.0</ele><time>2026-04-06T08:41:49Z</time></trkpt><trkpt lat="44.33718011360385" lon="10.12628370255786"><ele>1056.0</ele><time>2026-04-06T08:41:50Z</time></trkpt><trkpt lat="44.33731815245356" lon="10.12630617483857"><ele>1058.5</ele><time>2026-04-06T08:41:51Z</time></trkpt><trkpt lat="44.33745664212866" lon="10.12631695697853"><ele>1061.0</ele><time>2026-04-06T08:41:52Z</time></trkpt><trkpt lat="44.33758827577194" lon="10.126292818068748"><ele>1063.5</ele><time>2026-04-06T08:41:53Z</time></trkpt><trkpt lat="44.33770875703585" lon="10.126262518270616"><ele>1066.0</ele><time>2026-04-06T08:41:54Z</time></trkpt><trkpt lat="44.337824442463834" lon="10.126231451255096"><ele>1066.0</ele><time>2026-04-06T08:41:55Z</time></trkpt><trkpt lat="44.33794105981885" lon="10.126203106981896"><ele>1066.0</ele><time>2026-04-06T08:41:56Z</time></trkpt><trkpt lat="44.338038913931655" lon="10.12619914515204"><ele>1066.0</ele><time>2026-04-06T08:41:57Z</time></trkpt><trkpt lat="44.33812981811504" lon="10.126223974789502"><ele>1066.0</ele><time>2026-04-06T08:41:58Z</time></trkpt><trkpt lat="44.33822820289229" lon="10.126290494610993"><ele>1066.0</ele><time>2026-04-06T08:41:59Z</time></trkpt><trkpt lat="44.33832772845268" lon="10.126390900704285"><ele>1068.75</ele><time>2026-04-06T08:42:00Z</time></trkpt><trkpt lat="44.33842876575379" lon="10.126484649468068"><ele>1071.5</ele><time>2026-04-06T08:42:01Z</time></trkpt><trkpt lat="44.33853763971297" lon="10.126521086720505"><ele>1074.25</ele><time>2026-04-06T08:42:02Z</time></trkpt><trkpt lat="44.338664663515885" lon="10.126489574777613"><ele>1077.0</ele><time>2026-04-06T08:42:03Z</time></trkpt><trkpt lat="44.33880497611625" lon="10.126404483609374"><ele>1079.5</ele><time>2026-04-06T08:42:04Z</time></trkpt><trkpt lat="44.3389617536442" lon="10.126286643528614"><ele>1082.0</ele><time>2026-04-06T08:42:05Z</time></trkpt><trkpt lat="44.33909037898057" lon="10.126199875047107"><ele>1084.5</ele><time>2026-04-06T08:42:06Z</time></trkpt><trkpt lat="44.33917729442917" lon="10.12615184967858"><ele>1087.0</ele><time>2026-04-06T08:42:07Z</time></trkpt><trkpt lat="44.3392448937097" lon="10.12613214598313"><ele>1087.0</ele><time>2026-04-06T08:42:08Z</time></trkpt><trkpt lat="44.339308950535056" lon="10.1261631723034"><ele>1087.0</ele><time>2026-04-06T08:42:09Z</time></trkpt><trkpt lat="44.33935309189391" lon="10.126255133198079"><ele>1087.0</ele><time>2026-04-06T08:42:10Z</time></trkpt><trkpt lat="44.339366796939906" lon="10.126378638728703"><ele>1087.0</ele><time>2026-04-06T08:42:11Z</time></trkpt><trkpt lat="44.339329688235" lon="10.126499935910084"><ele>1087.0</ele><time>2026-04-06T08:42:12Z</time></trkpt><trkpt lat="44.33924674050834" lon="10.126583107673827"><ele>1087.0</ele><time>2026-04-06T08:42:13Z</time></trkpt><trkpt lat="44.33912267778886" lon="10.126645861649893"><ele>1089.3333333333333</ele><time>2026-04-06T08:42:14Z</time></trkpt><trkpt lat="44.338952307790365" lon="10.126710106750888"><ele>1091.6666666666667</ele><time>2026-04-06T08:42:15Z</time></trkpt><trkpt lat="44.33877969959778" lon="10.126798737017355"><ele>1094.0</ele><time>2026-04-06T08:42:16Z</time></trkpt><trkpt lat="44.33861412795506" lon="10.12689354859691"><ele>1094.0</ele><time>2026-04-06T08:42:17Z</time></trkpt><trkpt lat="44.3384674779684" lon="10.126964342130597"><ele>1094.0</ele><time>2026-04-06T08:42:18Z</time></trkpt><trkpt lat="44.338333637809505" lon="10.126993661957998"><ele>1094.0</ele><time>2026-04-06T08:42:19Z</time></trkpt><trkpt lat="44.33820622312593" lon="10.12700664667085"><ele>1094.0</ele><time>2026-04-06T08:42:20Z</time></trkpt><trkpt lat="44.33808969767076" lon="10.126993617382336"><ele>1093.3333333333335</ele><time>2026-04-06T08:42:21Z</time></trkpt><trkpt lat="44.33798518284131" lon="10.126968485619127"><ele>1092.6666666666667</ele><time>2026-04-06T08:42:22Z</time></trkpt><trkpt lat="44.337904355680735" lon="10.12699673574928"><ele>1092.0</ele><time>2026-04-06T08:42:23Z</time></trkpt><trkpt lat="44.33785597476441" lon="10.127068574512622"><ele>1091.3333333333333</ele><time>2026-04-06T08:42:24Z</time></trkpt><trkpt lat="44.337839283037326" lon="10.12717740194043"><ele>1090.6666666666665</ele><time>2026-04-06T08:42:25Z</time></trkpt><trkpt lat="44.337856817966745" lon="10.127285097268262"><ele>1090.0</ele><time>2026-04-06T08:42:26Z</time></trkpt><trkpt lat="44.337919282879504" lon="10.127368131324106"><ele>1090.0</ele><time>2026-04-06T08:42:27Z</time></trkpt><trkpt lat="44.33800473152845" lon="10.127383689496446"><ele>1090.0</ele><time>2026-04-06T08:42:28Z</time></trkpt><trkpt lat="44.338091369609096" lon="10.127342822456455"><ele>1090.0</ele><time>2026-04-06T08:42:29Z</time></trkpt><trkpt lat="44.33817596850368" lon="10.127250981126496"><ele>1090.0</ele><time>2026-04-06T08:42:30Z</time></trkpt><trkpt lat="44.33825712192361" lon="10.127188151048022"><ele>1090.0</ele><time>2026-04-06T08:42:31Z</time></trkpt><trkpt lat="44.338346480055655" lon="10.12717942445817"><ele>1091.0</ele><time>2026-04-06T08:42:32Z</time></trkpt><trkpt lat="44.33845599767971" lon="10.127221590788992"><ele>1092.0</ele><time>2026-04-06T08:42:33Z</time></trkpt><trkpt lat="44.33859849825725" lon="10.12727729139462"><ele>1093.0</ele><time>2026-04-06T08:42:34Z</time></trkpt><trkpt lat="44.338738199987105" lon="10.12730971498116"><ele>1094.0</ele><time>2026-04-06T08:42:35Z</time></trkpt><trkpt lat="44.3388668538173" lon="10.127315490280347"><ele>1097.0</ele><time>2026-04-06T08:42:36Z</time></trkpt><trkpt lat="44.33900487074214" lon="10.127291794258763"><ele>1100.0</ele><time>2026-04-06T08:42:37Z</time></trkpt><trkpt lat="44.33915327871445" lon="10.127267795856168"><ele>1103.0</ele><time>2026-04-06T08:42:38Z</time></trkpt><trkpt lat="44.339300502673645" lon="10.127237498483305"><ele>1106.0</ele><time>2026-04-06T08:42:39Z</time></trkpt><trkpt lat="44.339438475772816" lon="10.127168748991437"><ele>1106.0</ele><time>2026-04-06T08:42:40Z</time></trkpt><trkpt lat="44.339582162151004" lon="10.127036839211996"><ele>1106.0</ele><time>2026-04-06T08:42:41Z</time></trkpt><trkpt lat="44.339716371252855" lon="10.126857366132516"><ele>1106.0</ele><time>2026-04-06T08:42:42Z</time></trkpt><trkpt lat="44.339832790396656" lon="10.126669490584677"><ele>1107.25</ele><time>2026-04-06T08:42:43Z</time></trkpt><trkpt lat="44.33994112734685" lon="10.126503589878345"><ele>1108.5</ele><time>2026-04-06T08:42:44Z</time></trkpt><trkpt lat="44.3400536804744" lon="10.126361465382873"><ele>1109.75</ele><time>2026-04-06T08:42:45Z</time></trkpt><trkpt lat="44.34016107930928" lon="10.12624864904895"><ele>1111.0</ele><time>2026-04-06T08:42:46Z</time></trkpt><trkpt lat="44.3402593283517" lon="10.126167425506411"><ele>1111.0</ele><time>2026-04-06T08:42:47Z</time></trkpt><trkpt lat="44.34036230149854" lon="10.126124309621737"><ele>1111.0</ele><time>2026-04-06T08:42:48Z</time></trkpt><trkpt lat="44.34047242627696" lon="10.12611650012153"><ele>1111.0</ele><time>2026-04-06T08:42:49Z</time></trkpt><trkpt lat="44.340595496907746" lon="10.126143984893163"><ele>1111.0</ele><time>2026-04-06T08:42:50Z</time></trkpt><trkpt lat="44.34073220788278" lon="10.126190777421126"><ele>1116.0</ele><time>2026-04-06T08:42:51Z</time></trkpt><trkpt lat="44.34088414177091" lon="10.12623840165278"><ele>1121.0</ele><time>2026-04-06T08:42:52Z</time></trkpt><trkpt lat="44.34104555390518" lon="10.126286385732339"><ele>1126.0</ele><time>2026-04-06T08:42:53Z</time></trkpt><trkpt lat="44.34121652992037" lon="10.12633285431349"><ele>1126.0</ele><time>2026-04-06T08:42:54Z</time></trkpt><trkpt lat="44.34136587099233" lon="10.126358262845164"><ele>1126.0</ele><time>2026-04-06T08:42:55Z</time></trkpt><trkpt lat="44.341504257503935" lon="10.126366166109358"><ele>1126.0</ele><time>2026-04-06T08:42:56Z</time></trkpt><trkpt lat="44.341638174992774" lon="10.126341040707644"><ele>1126.0</ele><time>2026-04-06T08:42:57Z</time></trkpt><trkpt lat="44.34178472722801" lon="10.126291722795369"><ele>1129.3333333333333</ele><time>2026-04-06T08:42:58.001Z</time></trkpt><trkpt lat="44.34194076814507" lon="10.126239441694352"><ele>1132.6666666666667</ele><time>2026-04-06T08:42:59.001Z</time></trkpt><trkpt lat="44.34210667817084" lon="10.126188544611296"><ele>1136.0</ele><time>2026-04-06T08:43:00.001Z</time></trkpt><trkpt lat="44.34226921425078" lon="10.12613776797966"><ele>1139.0</ele><time>2026-04-06T08:43:01.001Z</time></trkpt><trkpt lat="44.342427686234885" lon="10.12608199324487"><ele>1142.0</ele><time>2026-04-06T08:43:02.001Z</time></trkpt><trkpt lat="44.34256457904581" lon="10.126036706779805"><ele>1145.0</ele><time>2026-04-06T08:43:03.001Z</time></trkpt><trkpt lat="44.34268937208942" lon="10.125996043147355"><ele>1148.0</ele><time>2026-04-06T08:43:04.001Z</time></trkpt><trkpt lat="44.34280166754221" lon="10.125961593468125"><ele>1148.0</ele><time>2026-04-06T08:43:05.001Z</time></trkpt><trkpt lat="44.3429014462847" lon="10.125931906547368"><ele>1148.0</ele><time>2026-04-06T08:43:06.001Z</time></trkpt><trkpt lat="44.3429973929651" lon="10.125898129881609"><ele>1148.0</ele><time>2026-04-06T08:43:07.001Z</time></trkpt><trkpt lat="44.34309021298009" lon="10.125855624596245"><ele>1148.0</ele><time>2026-04-06T08:43:08.001Z</time></trkpt><trkpt lat="44.343179051152575" lon="10.125795560637808"><ele>1148.0</ele><time>2026-04-06T08:43:09.001Z</time></trkpt><trkpt lat="44.343249366058295" lon="10.12569059629045"><ele>1150.1666666666667</ele><time>2026-04-06T08:43:10.001Z</time></trkpt><trkpt lat="44.343304684943924" lon="10.125558800996012"><ele>1152.3333333333335</ele><time>2026-04-06T08:43:11.001Z</time></trkpt><trkpt lat="44.343323709598565" lon="10.12543055600736"><ele>1154.5</ele><time>2026-04-06T08:43:12.001Z</time></trkpt><trkpt lat="44.34335130992245" lon="10.125321850692911"><ele>1156.6666666666667</ele><time>2026-04-06T08:43:13.001Z</time></trkpt><trkpt lat="44.34342418992694" lon="10.12526557455468"><ele>1158.8333333333333</ele><time>2026-04-06T08:43:14.001Z</time></trkpt><trkpt lat="44.34350418612167" lon="10.125278096339919"><ele>1161.0</ele><time>2026-04-06T08:43:15.001Z</time></trkpt><trkpt lat="44.34357124557238" lon="10.125349764407508"><ele>1161.0</ele><time>2026-04-06T08:43:16.001Z</time></trkpt><trkpt lat="44.34359518745797" lon="10.125463552108123"><ele>1161.0</ele><time>2026-04-06T08:43:17.001Z</time></trkpt><trkpt lat="44.34357469326018" lon="10.125591776474373"><ele>1161.0</ele><time>2026-04-06T08:43:18.001Z</time></trkpt><trkpt lat="44.343512182472296" lon="10.12572063097785"><ele>1161.0</ele><time>2026-04-06T08:43:19.001Z</time></trkpt><trkpt lat="44.34342263043862" lon="10.125859691388678"><ele>1161.0</ele><time>2026-04-06T08:43:20.001Z</time></trkpt><trkpt lat="44.343323342779726" lon="10.126013845450009"><ele>1161.0</ele><time>2026-04-06T08:43:21.001Z</time></trkpt><trkpt lat="44.343207836121984" lon="10.126170425497778"><ele>1161.0</ele><time>2026-04-06T08:43:22.001Z</time></trkpt><trkpt lat="44.34310384050937" lon="10.126323097597647"><ele>1161.0</ele><time>2026-04-06T08:43:23.001Z</time></trkpt><trkpt lat="44.343023361760565" lon="10.126496289305466"><ele>1160.6666666666667</ele><time>2026-04-06T08:43:24.001Z</time></trkpt><trkpt lat="44.342947095451784" lon="10.126693024827826"><ele>1160.3333333333335</ele><time>2026-04-06T08:43:25.001Z</time></trkpt><trkpt lat="44.34286288268682" lon="10.126892438379082"><ele>1160.0</ele><time>2026-04-06T08:43:26.001Z</time></trkpt><trkpt lat="44.342768497352985" lon="10.127069563072416"><ele>1160.0</ele><time>2026-04-06T08:43:27.001Z</time></trkpt><trkpt lat="44.3426715944993" lon="10.127212209496145"><ele>1160.0</ele><time>2026-04-06T08:43:28.001Z</time></trkpt><trkpt lat="44.34257766596956" lon="10.127342176585996"><ele>1160.0</ele><time>2026-04-06T08:43:29Z</time></trkpt><trkpt lat="44.3424933951039" lon="10.12746627275894"><ele>1160.0</ele><time>2026-04-06T08:43:30Z</time></trkpt><trkpt lat="44.34241744220724" lon="10.127580264742143"><ele>1164.25</ele><time>2026-04-06T08:43:31Z</time></trkpt><trkpt lat="44.34233579581626" lon="10.127674901487813"><ele>1168.5</ele><time>2026-04-06T08:43:32Z</time></trkpt><trkpt lat="44.34224178135245" lon="10.127723819312688"><ele>1172.75</ele><time>2026-04-06T08:43:33Z</time></trkpt><trkpt lat="44.342124608480084" lon="10.127729752914542"><ele>1177.0</ele><time>2026-04-06T08:43:34Z</time></trkpt><trkpt lat="44.341989320356355" lon="10.127700543467652"><ele>1178.3333333333333</ele><time>2026-04-06T08:43:35Z</time></trkpt><trkpt lat="44.3418402594751" lon="10.127658144324704"><ele>1179.6666666666667</ele><time>2026-04-06T08:43:36Z</time></trkpt><trkpt lat="44.34168435295931" lon="10.12760710780206"><ele>1181.0</ele><time>2026-04-06T08:43:37Z</time></trkpt><trkpt lat="44.34153797527626" lon="10.127536045941735"><ele>1181.0</ele><time>2026-04-06T08:43:38Z</time></trkpt><trkpt lat="44.34140633770833" lon="10.1274479310002"><ele>1181.0</ele><time>2026-04-06T08:43:39Z</time></trkpt><trkpt lat="44.3412885590863" lon="10.127389007523576"><ele>1181.0</ele><time>2026-04-06T08:43:40Z</time></trkpt><trkpt lat="44.34118173929971" lon="10.127360376182802"><ele>1181.0</ele><time>2026-04-06T08:43:41Z</time></trkpt><trkpt lat="44.34107841231835" lon="10.127354530170091"><ele>1181.75</ele><time>2026-04-06T08:43:42Z</time></trkpt><trkpt lat="44.34097397366667" lon="10.12737302277114"><ele>1182.5</ele><time>2026-04-06T08:43:43Z</time></trkpt><trkpt lat="44.34086729045359" lon="10.127416396439035"><ele>1183.25</ele><time>2026-04-06T08:43:44Z</time></trkpt><trkpt lat="44.340762189050004" lon="10.127489867199397"><ele>1184.0</ele><time>2026-04-06T08:43:45Z</time></trkpt><trkpt lat="44.34066462834285" lon="10.127583671802753"><ele>1184.0</ele><time>2026-04-06T08:43:46Z</time></trkpt><trkpt lat="44.34057643573649" lon="10.127707199587926"><ele>1184.0</ele><time>2026-04-06T08:43:47Z</time></trkpt><trkpt lat="44.340490919265264" lon="10.12783406598209"><ele>1184.0</ele><time>2026-04-06T08:43:48Z</time></trkpt><trkpt lat="44.340419258329796" lon="10.127970204524546"><ele>1184.0</ele><time>2026-04-06T08:43:49Z</time></trkpt><trkpt lat="44.34035392485087" lon="10.128099552308376"><ele>1184.8</ele><time>2026-04-06T08:43:50Z</time></trkpt><trkpt lat="44.34030000439514" lon="10.128219112296955"><ele>1185.6000000000001</ele><time>2026-04-06T08:43:51Z</time></trkpt><trkpt lat="44.34025815151812" lon="10.128325775831382"><ele>1186.4</ele><time>2026-04-06T08:43:52Z</time></trkpt><trkpt lat="44.34022893145742" lon="10.128452935451561"><ele>1187.2</ele><time>2026-04-06T08:43:53Z</time></trkpt><trkpt lat="44.34021109053945" lon="10.128597268601204"><ele>1188.0</ele><time>2026-04-06T08:43:54Z</time></trkpt><trkpt lat="44.34020663118879" lon="10.128751494253123"><ele>1188.0</ele><time>2026-04-06T08:43:55Z</time></trkpt><trkpt lat="44.34020978528218" lon="10.128910319639445"><ele>1188.0</ele><time>2026-04-06T08:43:56Z</time></trkpt><trkpt lat="44.34021746484052" lon="10.129070857703613"><ele>1188.0</ele><time>2026-04-06T08:43:57Z</time></trkpt><trkpt lat="44.34022998200046" lon="10.12923820023568"><ele>1188.0</ele><time>2026-04-06T08:43:58Z</time></trkpt><trkpt lat="44.340238961444015" lon="10.129407191779054"><ele>1189.6</ele><time>2026-04-06T08:43:59Z</time></trkpt><trkpt lat="44.34024408159804" lon="10.129571271006045"><ele>1191.1999999999998</ele><time>2026-04-06T08:44:00Z</time></trkpt><trkpt lat="44.340251810523334" lon="10.129731314128291"><ele>1192.8</ele><time>2026-04-06T08:44:01Z</time></trkpt><trkpt lat="44.340263459113594" lon="10.129878047928262"><ele>1194.3999999999999</ele><time>2026-04-06T08:44:02Z</time></trkpt><trkpt lat="44.340271947449985" lon="10.130019473636823"><ele>1196.0</ele><time>2026-04-06T08:44:03Z</time></trkpt><trkpt lat="44.34028097293186" lon="10.130162354838285"><ele>1197.2</ele><time>2026-04-06T08:44:04Z</time></trkpt><trkpt lat="44.34030174843053" lon="10.130308279592247"><ele>1198.3999999999999</ele><time>2026-04-06T08:44:05Z</time></trkpt><trkpt lat="44.34033937486197" lon="10.130447849110553"><ele>1199.6</ele><time>2026-04-06T08:44:06Z</time></trkpt><trkpt lat="44.340392008649935" lon="10.130581954929628"><ele>1200.8</ele><time>2026-04-06T08:44:07Z</time></trkpt><trkpt lat="44.34047139413883" lon="10.130712024169299"><ele>1202.0</ele><time>2026-04-06T08:44:08Z</time></trkpt><trkpt lat="44.34055996861572" lon="10.13085671653366"><ele>1204.25</ele><time>2026-04-06T08:44:09Z</time></trkpt><trkpt lat="44.340644822844006" lon="10.13101519115199"><ele>1206.5</ele><time>2026-04-06T08:44:10Z</time></trkpt><trkpt lat="44.340726965273426" lon="10.131169718424351"><ele>1208.75</ele><time>2026-04-06T08:44:11Z</time></trkpt><trkpt lat="44.34080326140754" lon="10.131315154247527"><ele>1211.0</ele><time>2026-04-06T08:44:12Z</time></trkpt><trkpt lat="44.34088430074287" lon="10.131460841860473"><ele>1208.0</ele><time>2026-04-06T08:44:13Z</time></trkpt><trkpt lat="44.340965150702935" lon="10.131603988708411"><ele>1205.0</ele><time>2026-04-06T08:44:14Z</time></trkpt><trkpt lat="44.34103907817466" lon="10.131740782017879"><ele>1202.0</ele><time>2026-04-06T08:44:15Z</time></trkpt><trkpt lat="44.34109656593419" lon="10.131885735248202"><ele>1199.0</ele><time>2026-04-06T08:44:16Z</time></trkpt><trkpt lat="44.34112790149745" lon="10.132054166732045"><ele>1199.0</ele><time>2026-04-06T08:44:17Z</time></trkpt><trkpt lat="44.34113418774646" lon="10.132233976535797"><ele>1199.0</ele><time>2026-04-06T08:44:18Z</time></trkpt><trkpt lat="44.341110404354154" lon="10.132417588451261"><ele>1199.0</ele><time>2026-04-06T08:44:19Z</time></trkpt><trkpt lat="44.34109189198671" lon="10.132590864836779"><ele>1199.0</ele><time>2026-04-06T08:44:20Z</time></trkpt><trkpt lat="44.34111215739965" lon="10.132762713763313"><ele>1200.75</ele><time>2026-04-06T08:44:21Z</time></trkpt><trkpt lat="44.34116685443676" lon="10.132918112867111"><ele>1202.5</ele><time>2026-04-06T08:44:22Z</time></trkpt><trkpt lat="44.34124814149182" lon="10.133036113179232"><ele>1204.25</ele><time>2026-04-06T08:44:23Z</time></trkpt><trkpt lat="44.341344469022786" lon="10.13312563257352"><ele>1206.0</ele><time>2026-04-06T08:44:24Z</time></trkpt><trkpt lat="44.341461488655156" lon="10.133166624139916"><ele>1206.0</ele><time>2026-04-06T08:44:25Z</time></trkpt><trkpt lat="44.3415808641883" lon="10.133173255310767"><ele>1206.0</ele><time>2026-04-06T08:44:26Z</time></trkpt><trkpt lat="44.34170447486529" lon="10.133112023734423"><ele>1206.0</ele><time>2026-04-06T08:44:27Z</time></trkpt><trkpt lat="44.34182157270979" lon="10.133013266600548"><ele>1206.0</ele><time>2026-04-06T08:44:28Z</time></trkpt><trkpt lat="44.341925161007666" lon="10.13287430465547"><ele>1206.0</ele><time>2026-04-06T08:44:29Z</time></trkpt><trkpt lat="44.342016990168204" lon="10.132753961299535"><ele>1206.0</ele><time>2026-04-06T08:44:30Z</time></trkpt><trkpt lat="44.34210309229542" lon="10.132657718472414"><ele>1206.0</ele><time>2026-04-06T08:44:31Z</time></trkpt><trkpt lat="44.34218948761833" lon="10.132585691836118"><ele>1206.0</ele><time>2026-04-06T08:44:32Z</time></trkpt><trkpt lat="44.34228380318803" lon="10.132543385056849"><ele>1206.0</ele><time>2026-04-06T08:44:33Z</time></trkpt><trkpt lat="44.342388852658274" lon="10.132528603506"><ele>1205.5</ele><time>2026-04-06T08:44:34Z</time></trkpt><trkpt lat="44.342499308077656" lon="10.132537031038488"><ele>1205.0</ele><time>2026-04-06T08:44:35Z</time></trkpt><trkpt lat="44.342617094034686" lon="10.132573790995792"><ele>1204.5</ele><time>2026-04-06T08:44:36Z</time></trkpt><trkpt lat="44.342742749327435" lon="10.132639192669656"><ele>1204.0</ele><time>2026-04-06T08:44:37Z</time></trkpt><trkpt lat="44.34287040967633" lon="10.132693413967496"><ele>1204.0</ele><time>2026-04-06T08:44:38Z</time></trkpt><trkpt lat="44.34299795822268" lon="10.132766472174666"><ele>1204.0</ele><time>2026-04-06T08:44:39Z</time></trkpt><trkpt lat="44.343135308470025" lon="10.132846622625955"><ele>1204.0</ele><time>2026-04-06T08:44:40Z</time></trkpt><trkpt lat="44.34327568203354" lon="10.13292891365298"><ele>1204.0</ele><time>2026-04-06T08:44:41Z</time></trkpt><trkpt lat="44.343400281919756" lon="10.133000522809532"><ele>1204.25</ele><time>2026-04-06T08:44:42Z</time></trkpt><trkpt lat="44.343520515131225" lon="10.133072585321331"><ele>1204.5</ele><time>2026-04-06T08:44:43Z</time></trkpt><trkpt lat="44.343641765246794" lon="10.133145712203671"><ele>1204.75</ele><time>2026-04-06T08:44:44Z</time></trkpt><trkpt lat="44.34376531006526" lon="10.133213801711696"><ele>1205.0</ele><time>2026-04-06T08:44:45Z</time></trkpt><trkpt lat="44.34388524396267" lon="10.13328746705209"><ele>1204.25</ele><time>2026-04-06T08:44:46Z</time></trkpt><trkpt lat="44.34399998896312" lon="10.133357699608133"><ele>1203.5</ele><time>2026-04-06T08:44:47Z</time></trkpt><trkpt lat="44.34411530348453" lon="10.133427239772583"><ele>1202.75</ele><time>2026-04-06T08:44:48Z</time></trkpt><trkpt lat="44.344232994586754" lon="10.133520853888085"><ele>1202.0</ele><time>2026-04-06T08:44:49Z</time></trkpt><trkpt lat="44.344342761870074" lon="10.133640290868598"><ele>1202.0</ele><time>2026-04-06T08:44:50Z</time></trkpt><trkpt lat="44.34443423386143" lon="10.133799153185842"><ele>1202.0</ele><time>2026-04-06T08:44:51Z</time></trkpt><trkpt lat="44.34449439350857" lon="10.133977051235776"><ele>1202.0</ele><time>2026-04-06T08:44:52Z</time></trkpt><trkpt lat="44.34452123028134" lon="10.13415537371728"><ele>1202.0</ele><time>2026-04-06T08:44:53Z</time></trkpt><trkpt lat="44.3445429219141" lon="10.134323030544094"><ele>1201.6</ele><time>2026-04-06T08:44:54Z</time></trkpt><trkpt lat="44.34458732047787" lon="10.134451753610136"><ele>1201.2</ele><time>2026-04-06T08:44:55Z</time></trkpt><trkpt lat="44.3446592835947" lon="10.134542180333252"><ele>1200.8</ele><time>2026-04-06T08:44:56Z</time></trkpt><trkpt lat="44.34474786065088" lon="10.134591590887332"><ele>1200.4</ele><time>2026-04-06T08:44:57Z</time></trkpt><trkpt lat="44.34485588701159" lon="10.134593497611021"><ele>1200.0</ele><time>2026-04-06T08:44:58Z</time></trkpt><trkpt lat="44.34496753101645" lon="10.134560753654794"><ele>1200.0</ele><time>2026-04-06T08:44:59Z</time></trkpt><trkpt lat="44.345070939674095" lon="10.13449161855217"><ele>1200.0</ele><time>2026-04-06T08:44:59.999Z</time></trkpt><trkpt lat="44.345164146940576" lon="10.134425450500064"><ele>1200.0</ele><time>2026-04-06T08:45:00.999Z</time></trkpt><trkpt lat="44.345256262704325" lon="10.134404164771523"><ele>1200.0</ele><time>2026-04-06T08:45:01.999Z</time></trkpt><trkpt lat="44.345353141003145" lon="10.134395940839497"><ele>1200.0</ele><time>2026-04-06T08:45:02.999Z</time></trkpt><trkpt lat="44.345448588760235" lon="10.134414227863886"><ele>1200.0</ele><time>2026-04-06T08:45:04.001Z</time></trkpt><trkpt lat="44.34554325300883" lon="10.13448444729932"><ele>1200.0</ele><time>2026-04-06T08:45:05.001Z</time></trkpt><trkpt lat="44.345638296667886" lon="10.134591817836315"><ele>1200.0</ele><time>2026-04-06T08:45:06.001Z</time></trkpt><trkpt lat="44.345735579326565" lon="10.134714770445578"><ele>1200.0</ele><time>2026-04-06T08:45:07.001Z</time></trkpt><trkpt lat="44.345827636791306" lon="10.134864861268463"><ele>1196.75</ele><time>2026-04-06T08:45:08.001Z</time></trkpt><trkpt lat="44.34591439203655" lon="10.135027435478374"><ele>1193.5</ele><time>2026-04-06T08:45:09.001Z</time></trkpt><trkpt lat="44.345996338075324" lon="10.135180892690322"><ele>1190.25</ele><time>2026-04-06T08:45:10.001Z</time></trkpt><trkpt lat="44.34607472930988" lon="10.135315826039431"><ele>1187.0</ele><time>2026-04-06T08:45:11.001Z</time></trkpt><trkpt lat="44.34615093923617" lon="10.135450480975402"><ele>1187.0</ele><time>2026-04-06T08:45:12.001Z</time></trkpt><trkpt lat="44.34622570747719" lon="10.135588182309414"><ele>1187.0</ele><time>2026-04-06T08:45:13.001Z</time></trkpt><trkpt lat="44.34629966117887" lon="10.135718278372742"><ele>1187.0</ele><time>2026-04-06T08:45:14.001Z</time></trkpt><trkpt lat="44.3463653177439" lon="10.135866735460457"><ele>1187.0</ele><time>2026-04-06T08:45:15.001Z</time></trkpt><trkpt lat="44.3464042241189" lon="10.136044340789352"><ele>1186.5</ele><time>2026-04-06T08:45:16.001Z</time></trkpt><trkpt lat="44.34641026564438" lon="10.136235178512512"><ele>1186.0</ele><time>2026-04-06T08:45:17.001Z</time></trkpt><trkpt lat="44.34639290009981" lon="10.136425859752014"><ele>1185.5</ele><time>2026-04-06T08:45:18.001Z</time></trkpt><trkpt lat="44.34639118637459" lon="10.136597370278006"><ele>1185.0</ele><time>2026-04-06T08:45:19.001Z</time></trkpt><trkpt lat="44.346418601365166" lon="10.136754848959152"><ele>1185.0</ele><time>2026-04-06T08:45:20.001Z</time></trkpt><trkpt lat="44.34648492119135" lon="10.136900183799815"><ele>1185.0</ele><time>2026-04-06T08:45:21.001Z</time></trkpt><trkpt lat="44.34657610237641" lon="10.13702761596688"><ele>1185.0</ele><time>2026-04-06T08:45:22.001Z</time></trkpt><trkpt lat="44.34667917388422" lon="10.137140267920051"><ele>1185.0</ele><time>2026-04-06T08:45:23.001Z</time></trkpt><trkpt lat="44.3467858839335" lon="10.137255556181469"><ele>1185.0</ele><time>2026-04-06T08:45:24.001Z</time></trkpt><trkpt lat="44.34689238662966" lon="10.137376846175895"><ele>1185.0</ele><time>2026-04-06T08:45:25.001Z</time></trkpt><trkpt lat="44.34699509222303" lon="10.137495711655651"><ele>1185.0</ele><time>2026-04-06T08:45:26.001Z</time></trkpt><trkpt lat="44.347094585036935" lon="10.137612104763"><ele>1185.0</ele><time>2026-04-06T08:45:27Z</time></trkpt><trkpt lat="44.34719737061627" lon="10.137711728423994"><ele>1184.4</ele><time>2026-04-06T08:45:28Z</time></trkpt><trkpt lat="44.34730413963429" lon="10.137776291326169"><ele>1183.8</ele><time>2026-04-06T08:45:29Z</time></trkpt><trkpt lat="44.347411196536406" lon="10.137812809319971"><ele>1183.2</ele><time>2026-04-06T08:45:30Z</time></trkpt><trkpt lat="44.34751446414862" lon="10.137830938622326"><ele>1182.6</ele><time>2026-04-06T08:45:31Z</time></trkpt><trkpt lat="44.34761927951313" lon="10.137827199431811"><ele>1182.0</ele><time>2026-04-06T08:45:32Z</time></trkpt><trkpt lat="44.34772786561632" lon="10.137808636299706"><ele>1182.0</ele><time>2026-04-06T08:45:33Z</time></trkpt><trkpt lat="44.34785216543075" lon="10.137786765321376"><ele>1182.0</ele><time>2026-04-06T08:45:34Z</time></trkpt><trkpt lat="44.34798564771646" lon="10.137755966867044"><ele>1182.0</ele><time>2026-04-06T08:45:35Z</time></trkpt><trkpt lat="44.348128664004" lon="10.137726546731354"><ele>1182.0</ele><time>2026-04-06T08:45:36Z</time></trkpt><trkpt lat="44.34827687254201" lon="10.137700630881561"><ele>1180.25</ele><time>2026-04-06T08:45:37Z</time></trkpt><trkpt lat="44.34841585937383" lon="10.1376735415497"><ele>1178.5</ele><time>2026-04-06T08:45:38Z</time></trkpt><trkpt lat="44.34855183868708" lon="10.137643505392758"><ele>1176.75</ele><time>2026-04-06T08:45:39Z</time></trkpt><trkpt lat="44.34868073401105" lon="10.137612436551393"><ele>1175.0</ele><time>2026-04-06T08:45:40Z</time></trkpt><trkpt lat="44.34880370820801" lon="10.137584542350524"><ele>1174.6</ele><time>2026-04-06T08:45:41Z</time></trkpt><trkpt lat="44.34891672656558" lon="10.137565555761189"><ele>1174.2</ele><time>2026-04-06T08:45:42Z</time></trkpt><trkpt lat="44.349027751321046" lon="10.137547131009086"><ele>1173.8</ele><time>2026-04-06T08:45:43Z</time></trkpt><trkpt lat="44.349134741597894" lon="10.13752982621168"><ele>1173.4</ele><time>2026-04-06T08:45:44Z</time></trkpt><trkpt lat="44.349240473154005" lon="10.137518226224662"><ele>1173.0</ele><time>2026-04-06T08:45:45Z</time></trkpt><trkpt lat="44.34935149839957" lon="10.13752156892448"><ele>1173.0</ele><time>2026-04-06T08:45:46Z</time></trkpt><trkpt lat="44.34947583283778" lon="10.13755095803607"><ele>1173.0</ele><time>2026-04-06T08:45:47Z</time></trkpt><trkpt lat="44.34961228947543" lon="10.137605512169571"><ele>1173.0</ele><time>2026-04-06T08:45:48Z</time></trkpt><trkpt lat="44.34975634977676" lon="10.137675844715337"><ele>1173.0</ele><time>2026-04-06T08:45:49Z</time></trkpt><trkpt lat="44.3499052512871" lon="10.13776824621147"><ele>1173.3333333333333</ele><time>2026-04-06T08:45:50Z</time></trkpt><trkpt lat="44.350063174751945" lon="10.137874508510105"><ele>1173.6666666666665</ele><time>2026-04-06T08:45:51Z</time></trkpt><trkpt lat="44.35020887325763" lon="10.13796163285174"><ele>1174.0</ele><time>2026-04-06T08:45:52Z</time></trkpt><trkpt lat="44.35035546367715" lon="10.138052861208227"><ele>1174.0</ele><time>2026-04-06T08:45:53Z</time></trkpt><trkpt lat="44.35049405244128" lon="10.138131786888804"><ele>1174.0</ele><time>2026-04-06T08:45:54Z</time></trkpt><trkpt lat="44.350627481413625" lon="10.138211642600236"><ele>1174.0</ele><time>2026-04-06T08:45:55Z</time></trkpt><trkpt lat="44.35075153325992" lon="10.13828765791255"><ele>1174.0</ele><time>2026-04-06T08:45:56Z</time></trkpt><trkpt lat="44.350873378200234" lon="10.138367251986862"><ele>1172.25</ele><time>2026-04-06T08:45:57Z</time></trkpt><trkpt lat="44.35098774157739" lon="10.138442748210862"><ele>1170.5</ele><time>2026-04-06T08:45:58Z</time></trkpt><trkpt lat="44.35109940939566" lon="10.138529389824438"><ele>1168.75</ele><time>2026-04-06T08:45:59Z</time></trkpt><trkpt lat="44.3512079345851" lon="10.13863521877289"><ele>1167.0</ele><time>2026-04-06T08:46:00Z</time></trkpt><trkpt lat="44.35128759257154" lon="10.138789266081956"><ele>1167.0</ele><time>2026-04-06T08:46:01Z</time></trkpt><trkpt lat="44.351342375592054" lon="10.138962718869768"><ele>1167.0</ele><time>2026-04-06T08:46:02Z</time></trkpt><trkpt lat="44.351385919541094" lon="10.139146040685572"><ele>1167.0</ele><time>2026-04-06T08:46:03Z</time></trkpt><trkpt lat="44.35142634417011" lon="10.13928318276151"><ele>1167.0</ele><time>2026-04-06T08:46:04Z</time></trkpt><trkpt lat="44.35146941064293" lon="10.139402134406359"><ele>1168.6666666666667</ele><time>2026-04-06T08:46:05Z</time></trkpt><trkpt lat="44.35151339803369" lon="10.139512876317404"><ele>1170.3333333333333</ele><time>2026-04-06T08:46:06Z</time></trkpt><trkpt lat="44.35155610960245" lon="10.139611163042405"><ele>1172.0</ele><time>2026-04-06T08:46:07Z</time></trkpt><trkpt lat="44.351596310307826" lon="10.139684052265883"><ele>1173.6666666666665</ele><time>2026-04-06T08:46:08Z</time></trkpt><trkpt lat="44.35165713637607" lon="10.13982928134527"><ele>1175.3333333333333</ele><time>2026-04-06T08:46:10Z</time></trkpt><trkpt lat="44.351635621057895" lon="10.139918251748911"><ele>1177.0</ele><time>2026-04-06T08:46:11Z</time></trkpt><trkpt lat="44.351602915519976" lon="10.1400167901295"><ele>1171.75</ele><time>2026-04-06T08:46:12Z</time></trkpt><trkpt lat="44.35156915835719" lon="10.140138506608947"><ele>1166.5</ele><time>2026-04-06T08:46:13Z</time></trkpt><trkpt lat="44.351532167654305" lon="10.140282842429869"><ele>1161.25</ele><time>2026-04-06T08:46:14Z</time></trkpt><trkpt lat="44.35148338780644" lon="10.14043741458706"><ele>1156.0</ele><time>2026-04-06T08:46:15Z</time></trkpt><trkpt lat="44.35142323037389" lon="10.140605615607106"><ele>1156.25</ele><time>2026-04-06T08:46:16Z</time></trkpt><trkpt lat="44.351363301463664" lon="10.140782957274498"><ele>1156.5</ele><time>2026-04-06T08:46:17Z</time></trkpt><trkpt lat="44.35131111716415" lon="10.14095476451822"><ele>1156.75</ele><time>2026-04-06T08:46:18Z</time></trkpt><trkpt lat="44.351258398631366" lon="10.141113257508447"><ele>1157.0</ele><time>2026-04-06T08:46:19Z</time></trkpt><trkpt lat="44.35121266413858" lon="10.141266677173288"><ele>1157.0</ele><time>2026-04-06T08:46:20Z</time></trkpt><trkpt lat="44.351174882732856" lon="10.141407268422286"><ele>1157.0</ele><time>2026-04-06T08:46:21Z</time></trkpt><trkpt lat="44.35115845722766" lon="10.141544400600976"><ele>1157.0</ele><time>2026-04-06T08:46:22Z</time></trkpt><trkpt lat="44.351168728788195" lon="10.14167975246348"><ele>1157.0</ele><time>2026-04-06T08:46:23Z</time></trkpt><trkpt lat="44.351203101266435" lon="10.14182009443885"><ele>1157.0</ele><time>2026-04-06T08:46:24Z</time></trkpt><trkpt lat="44.35126960547158" lon="10.141940950378556"><ele>1158.75</ele><time>2026-04-06T08:46:25Z</time></trkpt><trkpt lat="44.3513698047116" lon="10.142056405806434"><ele>1160.5</ele><time>2026-04-06T08:46:26Z</time></trkpt><trkpt lat="44.351493352559984" lon="10.142176110870444"><ele>1162.25</ele><time>2026-04-06T08:46:27Z</time></trkpt><trkpt lat="44.351621996006386" lon="10.14231689252274"><ele>1164.0</ele><time>2026-04-06T08:46:28Z</time></trkpt><trkpt lat="44.35174400161188" lon="10.142466618774323"><ele>1164.0</ele><time>2026-04-06T08:46:29Z</time></trkpt><trkpt lat="44.35185993381342" lon="10.14261358753059"><ele>1164.0</ele><time>2026-04-06T08:46:30Z</time></trkpt><trkpt lat="44.351977813445906" lon="10.142771793866206"><ele>1164.0</ele><time>2026-04-06T08:46:31Z</time></trkpt><trkpt lat="44.35209454925986" lon="10.14291300984872"><ele>1163.3333333333333</ele><time>2026-04-06T08:46:32Z</time></trkpt><trkpt lat="44.35221317115525" lon="10.143035968493493"><ele>1162.6666666666665</ele><time>2026-04-06T08:46:33Z</time></trkpt><trkpt lat="44.35233688197459" lon="10.143152907682042"><ele>1162.0</ele><time>2026-04-06T08:46:34Z</time></trkpt><trkpt lat="44.35247489573076" lon="10.143251858624142"><ele>1162.0</ele><time>2026-04-06T08:46:35Z</time></trkpt><trkpt lat="44.35261248325407" lon="10.143339157986425"><ele>1162.0</ele><time>2026-04-06T08:46:36Z</time></trkpt><trkpt lat="44.352753289757885" lon="10.143418161915054"><ele>1162.0</ele><time>2026-04-06T08:46:37Z</time></trkpt><trkpt lat="44.352894887376586" lon="10.143504604463201"><ele>1162.0</ele><time>2026-04-06T08:46:37.999Z</time></trkpt><trkpt lat="44.35303027759975" lon="10.143592919979449"><ele>1162.0</ele><time>2026-04-06T08:46:38.999Z</time></trkpt><trkpt lat="44.35316505676325" lon="10.143680487571595"><ele>1162.0</ele><time>2026-04-06T08:46:39.999Z</time></trkpt><trkpt lat="44.353295875151964" lon="10.143760707939744"><ele>1162.0</ele><time>2026-04-06T08:46:40.999Z</time></trkpt><trkpt lat="44.353419865320376" lon="10.143837310788367"><ele>1162.75</ele><time>2026-04-06T08:46:41.999Z</time></trkpt><trkpt lat="44.353539756545786" lon="10.143910723489606"><ele>1163.5</ele><time>2026-04-06T08:46:42.999Z</time></trkpt><trkpt lat="44.353660826844255" lon="10.143983567637004"><ele>1164.25</ele><time>2026-04-06T08:46:43.999Z</time></trkpt><trkpt lat="44.35378722064313" lon="10.144055083431251"><ele>1165.0</ele><time>2026-04-06T08:46:44.999Z</time></trkpt><trkpt lat="44.35390775702421" lon="10.144125477714104"><ele>1159.5</ele><time>2026-04-06T08:46:45.999Z</time></trkpt><trkpt lat="44.354024314876035" lon="10.144195682778161"><ele>1154.0</ele><time>2026-04-06T08:46:46.999Z</time></trkpt><trkpt lat="44.35414131300992" lon="10.144272549348248"><ele>1148.5</ele><time>2026-04-06T08:46:47.999Z</time></trkpt><trkpt lat="44.35426329970333" lon="10.14436790325759"><ele>1143.0</ele><time>2026-04-06T08:46:48.999Z</time></trkpt><trkpt lat="44.35437357903775" lon="10.144485425797459"><ele>1143.0</ele><time>2026-04-06T08:46:49.999Z</time></trkpt><trkpt lat="44.35446688384452" lon="10.144629258251095"><ele>1143.0</ele><time>2026-04-06T08:46:50.999Z</time></trkpt><trkpt lat="44.354544655910914" lon="10.144791203237528"><ele>1143.0</ele><time>2026-04-06T08:46:51.999Z</time></trkpt><trkpt lat="44.35460327221627" lon="10.14498173235974"><ele>1143.0</ele><time>2026-04-06T08:46:52.999Z</time></trkpt><trkpt lat="44.35464422508891" lon="10.145198781687524"><ele>1141.6666666666667</ele><time>2026-04-06T08:46:53.999Z</time></trkpt><trkpt lat="44.35467648972043" lon="10.145425691739959"><ele>1140.3333333333335</ele><time>2026-04-06T08:46:54.999Z</time></trkpt><trkpt lat="44.35472004379091" lon="10.145652411985207"><ele>1139.0</ele><time>2026-04-06T08:46:55.999Z</time></trkpt><trkpt lat="44.35476472471682" lon="10.14587642760768"><ele>1139.0</ele><time>2026-04-06T08:46:56.999Z</time></trkpt><trkpt lat="44.35480412523835" lon="10.146091729915408"><ele>1139.0</ele><time>2026-04-06T08:46:57.999Z</time></trkpt><trkpt lat="44.35484476347273" lon="10.146303108947013"><ele>1139.0</ele><time>2026-04-06T08:46:58.999Z</time></trkpt><trkpt lat="44.354888900064246" lon="10.14651676693636"><ele>1140.6666666666667</ele><time>2026-04-06T08:46:59.999Z</time></trkpt><trkpt lat="44.35493161218261" lon="10.146723650726898"><ele>1142.3333333333333</ele><time>2026-04-06T08:47:00.999Z</time></trkpt><trkpt lat="44.35497364733525" lon="10.146929479597116"><ele>1144.0</ele><time>2026-04-06T08:47:01.999Z</time></trkpt><trkpt lat="44.355013188438264" lon="10.147133318891246"><ele>1144.0</ele><time>2026-04-06T08:47:02.999Z</time></trkpt><trkpt lat="44.35504815290306" lon="10.147343115365173"><ele>1144.0</ele><time>2026-04-06T08:47:03.999Z</time></trkpt><trkpt lat="44.355071660252186" lon="10.147557525322714"><ele>1144.0</ele><time>2026-04-06T08:47:04.999Z</time></trkpt><trkpt lat="44.35508486045019" lon="10.147786396782452"><ele>1145.0</ele><time>2026-04-06T08:47:05.999Z</time></trkpt><trkpt lat="44.35509389545725" lon="10.148034853197032"><ele>1146.0</ele><time>2026-04-06T08:47:06.999Z</time></trkpt><trkpt lat="44.355103476013504" lon="10.148272647629362"><ele>1147.0</ele><time>2026-04-06T08:47:07.999Z</time></trkpt><trkpt lat="44.35511250637506" lon="10.148490913039934"><ele>1147.3333333333333</ele><time>2026-04-06T08:47:08.999Z</time></trkpt><trkpt lat="44.3551235148851" lon="10.148707706470722"><ele>1147.6666666666667</ele><time>2026-04-06T08:47:10.001Z</time></trkpt><trkpt lat="44.355133756852986" lon="10.148923547706701"><ele>1148.0</ele><time>2026-04-06T08:47:11.001Z</time></trkpt><trkpt lat="44.35514471973928" lon="10.149134412608568"><ele>1148.6666666666667</ele><time>2026-04-06T08:47:12.001Z</time></trkpt><trkpt lat="44.355159658839895" lon="10.149357337867444"><ele>1149.3333333333333</ele><time>2026-04-06T08:47:13.001Z</time></trkpt><trkpt lat="44.35517714441332" lon="10.1495731909365"><ele>1150.0</ele><time>2026-04-06T08:47:14.001Z</time></trkpt><trkpt lat="44.35519318322893" lon="10.14979099176062"><ele>1151.0</ele><time>2026-04-06T08:47:15.001Z</time></trkpt><trkpt lat="44.355211818488954" lon="10.150000623894924"><ele>1152.0</ele><time>2026-04-06T08:47:16.001Z</time></trkpt><trkpt lat="44.355228051068316" lon="10.150196279940639"><ele>1153.0</ele><time>2026-04-06T08:47:17.001Z</time></trkpt><trkpt lat="44.35524260160906" lon="10.15038843863929"><ele>1154.0</ele><time>2026-04-06T08:47:18.001Z</time></trkpt><trkpt lat="44.355259063474904" lon="10.150571038170531"><ele>1153.0</ele><time>2026-04-06T08:47:19Z</time></trkpt><trkpt lat="44.35528829070732" lon="10.150754245626393"><ele>1152.0</ele><time>2026-04-06T08:47:20Z</time></trkpt><trkpt lat="44.35532932548381" lon="10.150940421330306"><ele>1151.0</ele><time>2026-04-06T08:47:21Z</time></trkpt><trkpt lat="44.35537664679276" lon="10.151133431156929"><ele>1150.0</ele><time>2026-04-06T08:47:22Z</time></trkpt><trkpt lat="44.35542412848345" lon="10.151343378604917"><ele>1149.5</ele><time>2026-04-06T08:47:23Z</time></trkpt><trkpt lat="44.35546446567572" lon="10.15154421839131"><ele>1149.0</ele><time>2026-04-06T08:47:24Z</time></trkpt><trkpt lat="44.35550156151497" lon="10.151735298902723"><ele>1148.5</ele><time>2026-04-06T08:47:25Z</time></trkpt><trkpt lat="44.355537691739144" lon="10.151913344984413"><ele>1148.0</ele><time>2026-04-06T08:47:26Z</time></trkpt><trkpt lat="44.355584342584514" lon="10.15208124337754"><ele>1143.5</ele><time>2026-04-06T08:47:27Z</time></trkpt><trkpt lat="44.355644698371044" lon="10.152221993130883"><ele>1139.0</ele><time>2026-04-06T08:47:28Z</time></trkpt><trkpt lat="44.35572527561154" lon="10.152342858554334"><ele>1134.5</ele><time>2026-04-06T08:47:29Z</time></trkpt><trkpt lat="44.355819197786666" lon="10.15243456045051"><ele>1130.0</ele><time>2026-04-06T08:47:30Z</time></trkpt><trkpt lat="44.355916688423235" lon="10.152515709364579"><ele>1130.0</ele><time>2026-04-06T08:47:31Z</time></trkpt><trkpt lat="44.355996490216064" lon="10.152583749937161"><ele>1130.0</ele><time>2026-04-06T08:47:32Z</time></trkpt><trkpt lat="44.35608123974514" lon="10.152602279463252"><ele>1130.0</ele><time>2026-04-06T08:47:33Z</time></trkpt><trkpt lat="44.356178186361404" lon="10.152565918935556"><ele>1130.0</ele><time>2026-04-06T08:47:34Z</time></trkpt><trkpt lat="44.35627862624716" lon="10.152551670762374"><ele>1130.0</ele><time>2026-04-06T08:47:35Z</time></trkpt><trkpt lat="44.35637639526483" lon="10.152535093082347"><ele>1127.6</ele><time>2026-04-06T08:47:36Z</time></trkpt><trkpt lat="44.35646322534014" lon="10.152525209876318"><ele>1125.2</ele><time>2026-04-06T08:47:37Z</time></trkpt><trkpt lat="44.3565962014335" lon="10.152479639452709"><ele>1122.8</ele><time>2026-04-06T08:47:38Z</time></trkpt><trkpt lat="44.35669854328247" lon="10.15245869086275"><ele>1120.4</ele><time>2026-04-06T08:47:39Z</time></trkpt><trkpt lat="44.35680377966781" lon="10.152433769549074"><ele>1118.0</ele><time>2026-04-06T08:47:40Z</time></trkpt><trkpt lat="44.3569141364293" lon="10.152408161953945"><ele>1118.0</ele><time>2026-04-06T08:47:41Z</time></trkpt><trkpt lat="44.35702504840693" lon="10.152390961310925"><ele>1118.0</ele><time>2026-04-06T08:47:42Z</time></trkpt><trkpt lat="44.357125257037005" lon="10.152409645416878"><ele>1118.0</ele><time>2026-04-06T08:47:43Z</time></trkpt><trkpt lat="44.35721871483846" lon="10.152465042184316"><ele>1118.0</ele><time>2026-04-06T08:47:44Z</time></trkpt><trkpt lat="44.3573004870534" lon="10.152557691061707"><ele>1118.0</ele><time>2026-04-06T08:47:45Z</time></trkpt><trkpt lat="44.35735802253189" lon="10.1526765468126"><ele>1115.25</ele><time>2026-04-06T08:47:46Z</time></trkpt><trkpt lat="44.35737983030959" lon="10.152811558565517"><ele>1112.5</ele><time>2026-04-06T08:47:47Z</time></trkpt><trkpt lat="44.35737990186605" lon="10.152971821996394"><ele>1109.75</ele><time>2026-04-06T08:47:48Z</time></trkpt><trkpt lat="44.35735045167857" lon="10.153126205956532"><ele>1107.0</ele><time>2026-04-06T08:47:49Z</time></trkpt><trkpt lat="44.357327299778916" lon="10.153325561386799"><ele>1106.75</ele><time>2026-04-06T08:47:50Z</time></trkpt><trkpt lat="44.35730055103691" lon="10.153522487081903"><ele>1106.5</ele><time>2026-04-06T08:47:51Z</time></trkpt><trkpt lat="44.357261540354635" lon="10.153683297944546"><ele>1106.25</ele><time>2026-04-06T08:47:52Z</time></trkpt><trkpt lat="44.357198275665965" lon="10.15383040375092"><ele>1106.0</ele><time>2026-04-06T08:47:53Z</time></trkpt><trkpt lat="44.357114686399136" lon="10.153933900929914"><ele>1109.25</ele><time>2026-04-06T08:47:54Z</time></trkpt><trkpt lat="44.35703062861976" lon="10.154037446665638"><ele>1112.5</ele><time>2026-04-06T08:47:55Z</time></trkpt><trkpt lat="44.35693887193532" lon="10.15414748060445"><ele>1115.75</ele><time>2026-04-06T08:47:56Z</time></trkpt><trkpt lat="44.35684297709831" lon="10.154262756085702"><ele>1119.0</ele><time>2026-04-06T08:47:57Z</time></trkpt><trkpt lat="44.35676223577021" lon="10.154392299089334"><ele>1119.0</ele><time>2026-04-06T08:47:58Z</time></trkpt><trkpt lat="44.35667671218809" lon="10.154495549127988"><ele>1119.0</ele><time>2026-04-06T08:47:59Z</time></trkpt><trkpt lat="44.35660562349519" lon="10.154609327530965"><ele>1119.0</ele><time>2026-04-06T08:48:00Z</time></trkpt><trkpt lat="44.35655650233442" lon="10.154742514929593"><ele>1119.0</ele><time>2026-04-06T08:48:01Z</time></trkpt><trkpt lat="44.356530033421706" lon="10.154904995636565"><ele>1119.0</ele><time>2026-04-06T08:48:02Z</time></trkpt><trkpt lat="44.35651928679409" lon="10.155088591233234"><ele>1114.75</ele><time>2026-04-06T08:48:03Z</time></trkpt><trkpt lat="44.35651487800729" lon="10.155276328524984"><ele>1110.5</ele><time>2026-04-06T08:48:04Z</time></trkpt><trkpt lat="44.356503814340044" lon="10.15546758983249"><ele>1106.25</ele><time>2026-04-06T08:48:05Z</time></trkpt><trkpt lat="44.356495340862985" lon="10.155664372527657"><ele>1102.0</ele><time>2026-04-06T08:48:06Z</time></trkpt><trkpt lat="44.35648295667049" lon="10.155849464009497"><ele>1100.6</ele><time>2026-04-06T08:48:07Z</time></trkpt><trkpt lat="44.3564698294471" lon="10.156024584122104"><ele>1099.2</ele><time>2026-04-06T08:48:08Z</time></trkpt><trkpt lat="44.35646243081381" lon="10.156178429823598"><ele>1097.8</ele><time>2026-04-06T08:48:09Z</time></trkpt><trkpt lat="44.35647016033297" lon="10.156314046930438"><ele>1096.4</ele><time>2026-04-06T08:48:10Z</time></trkpt><trkpt lat="44.35650428818025" lon="10.156435715718954"><ele>1095.0</ele><time>2026-04-06T08:48:11Z</time></trkpt><trkpt lat="44.356569196003356" lon="10.15652917396835"><ele>1095.8</ele><time>2026-04-06T08:48:12Z</time></trkpt><trkpt lat="44.3566462858416" lon="10.156604790357507"><ele>1096.6</ele><time>2026-04-06T08:48:13Z</time></trkpt><trkpt lat="44.356736916004756" lon="10.156661513139971"><ele>1097.4</ele><time>2026-04-06T08:48:14Z</time></trkpt><trkpt lat="44.356845514525034" lon="10.156702518189839"><ele>1098.2</ele><time>2026-04-06T08:48:15Z</time></trkpt><trkpt lat="44.35696388029479" lon="10.156720753783222"><ele>1099.0</ele><time>2026-04-06T08:48:16Z</time></trkpt><trkpt lat="44.357086652193395" lon="10.156724471234787"><ele>1096.5</ele><time>2026-04-06T08:48:17Z</time></trkpt><trkpt lat="44.35721877939078" lon="10.15672937997949"><ele>1094.0</ele><time>2026-04-06T08:48:18Z</time></trkpt><trkpt lat="44.35735464456564" lon="10.156744092783184"><ele>1091.5</ele><time>2026-04-06T08:48:19Z</time></trkpt><trkpt lat="44.35749499744424" lon="10.156760783490897"><ele>1089.0</ele><time>2026-04-06T08:48:20Z</time></trkpt><trkpt lat="44.35762358922403" lon="10.156783581423955"><ele>1089.0</ele><time>2026-04-06T08:48:21Z</time></trkpt><trkpt lat="44.357753615777845" lon="10.156797995840355"><ele>1089.0</ele><time>2026-04-06T08:48:22Z</time></trkpt><trkpt lat="44.357866770261424" lon="10.156817776310355"><ele>1089.0</ele><time>2026-04-06T08:48:23Z</time></trkpt><trkpt lat="44.35798211411626" lon="10.156823660924424"><ele>1089.0</ele><time>2026-04-06T08:48:23.999Z</time></trkpt><trkpt lat="44.3580923146472" lon="10.156825752202522"><ele>1088.8</ele><time>2026-04-06T08:48:24.999Z</time></trkpt><trkpt lat="44.35819729788873" lon="10.156797194952356"><ele>1088.6000000000001</ele><time>2026-04-06T08:48:25.999Z</time></trkpt><trkpt lat="44.3582930399232" lon="10.156742051779304"><ele>1088.4</ele><time>2026-04-06T08:48:26.999Z</time></trkpt><trkpt lat="44.35838105576497" lon="10.156661475810296"><ele>1088.2</ele><time>2026-04-06T08:48:27.999Z</time></trkpt><trkpt lat="44.35845952322682" lon="10.156564526576316"><ele>1088.0</ele><time>2026-04-06T08:48:28.999Z</time></trkpt><trkpt lat="44.35853513514763" lon="10.156455494756715"><ele>1085.8</ele><time>2026-04-06T08:48:29.999Z</time></trkpt><trkpt lat="44.35860776928078" lon="10.156354078641115"><ele>1083.6</ele><time>2026-04-06T08:48:30.999Z</time></trkpt><trkpt lat="44.358681040018325" lon="10.156256288423837"><ele>1081.4</ele><time>2026-04-06T08:48:31.999Z</time></trkpt><trkpt lat="44.358754891604114" lon="10.156157054000172"><ele>1079.2</ele><time>2026-04-06T08:48:32.999Z</time></trkpt><trkpt lat="44.35883254529117" lon="10.156050969570057"><ele>1077.0</ele><time>2026-04-06T08:48:33.999Z</time></trkpt><trkpt lat="44.358903239114255" lon="10.155960673578042"><ele>1077.0</ele><time>2026-04-06T08:48:34.999Z</time></trkpt><trkpt lat="44.35899828100459" lon="10.155879613820519"><ele>1077.0</ele><time>2026-04-06T08:48:35.999Z</time></trkpt><trkpt lat="44.35911518043465" lon="10.155811556779142"><ele>1077.0</ele><time>2026-04-06T08:48:36.999Z</time></trkpt><trkpt lat="44.359251947193016" lon="10.155759043401659"><ele>1077.0</ele><time>2026-04-06T08:48:37.999Z</time></trkpt><trkpt lat="44.35939050168731" lon="10.155712610526034"><ele>1075.0</ele><time>2026-04-06T08:48:38.999Z</time></trkpt><trkpt lat="44.35951886649116" lon="10.155667648902313"><ele>1073.0</ele><time>2026-04-06T08:48:39.999Z</time></trkpt><trkpt lat="44.35963963303442" lon="10.155611590282234"><ele>1071.0</ele><time>2026-04-06T08:48:40.999Z</time></trkpt><trkpt lat="44.35975033238051" lon="10.155530362346656"><ele>1069.0</ele><time>2026-04-06T08:48:41.999Z</time></trkpt><trkpt lat="44.35985200116398" lon="10.155431092644422"><ele>1069.0</ele><time>2026-04-06T08:48:42.999Z</time></trkpt><trkpt lat="44.35994914203198" lon="10.1552936908281"><ele>1069.0</ele><time>2026-04-06T08:48:43.999Z</time></trkpt><trkpt lat="44.36004906654025" lon="10.15514122963418"><ele>1069.0</ele><time>2026-04-06T08:48:44.999Z</time></trkpt><trkpt lat="44.36015665010978" lon="10.154960510092453"><ele>1064.5</ele><time>2026-04-06T08:48:45.999Z</time></trkpt><trkpt lat="44.36025711356684" lon="10.154803391977369"><ele>1060.0</ele><time>2026-04-06T08:48:46.999Z</time></trkpt><trkpt lat="44.36034745712807" lon="10.154662188336928"><ele>1055.5</ele><time>2026-04-06T08:48:47.999Z</time></trkpt><trkpt lat="44.360430502240916" lon="10.154539870604776"><ele>1051.0</ele><time>2026-04-06T08:48:48.999Z</time></trkpt><trkpt lat="44.36051878265196" lon="10.154426784157513"><ele>1053.2</ele><time>2026-04-06T08:48:49.999Z</time></trkpt><trkpt lat="44.36061677770736" lon="10.154332393253108"><ele>1055.3999999999999</ele><time>2026-04-06T08:48:50.999Z</time></trkpt><trkpt lat="44.36072263792213" lon="10.154287776644303"><ele>1057.6</ele><time>2026-04-06T08:48:51.999Z</time></trkpt><trkpt lat="44.36083217572331" lon="10.154279082478729"><ele>1059.8</ele><time>2026-04-06T08:48:52.999Z</time></trkpt><trkpt lat="44.360938521062174" lon="10.154300756094846"><ele>1062.0</ele><time>2026-04-06T08:48:53.999Z</time></trkpt><trkpt lat="44.36104496849121" lon="10.15434457074809"><ele>1062.0</ele><time>2026-04-06T08:48:54.999Z</time></trkpt><trkpt lat="44.36114559791049" lon="10.154420075192316"><ele>1062.0</ele><time>2026-04-06T08:48:55.999Z</time></trkpt><trkpt lat="44.361222841024805" lon="10.15451690002764"><ele>1062.0</ele><time>2026-04-06T08:48:56.999Z</time></trkpt><trkpt lat="44.36129732960667" lon="10.154649255177485"><ele>1062.0</ele><time>2026-04-06T08:48:57.999Z</time></trkpt><trkpt lat="44.36136402077806" lon="10.154803158901771"><ele>1057.3333333333333</ele><time>2026-04-06T08:48:58.999Z</time></trkpt><trkpt lat="44.361443440189525" lon="10.154999687894806"><ele>1052.6666666666665</ele><time>2026-04-06T08:48:59.999Z</time></trkpt><trkpt lat="44.36153249057269" lon="10.15521290273807"><ele>1048.0</ele><time>2026-04-06T08:49:00.999Z</time></trkpt><trkpt lat="44.36162295757996" lon="10.15542096101981"><ele>1048.0</ele><time>2026-04-06T08:49:01.999Z</time></trkpt><trkpt lat="44.36171071679571" lon="10.155616080458074"><ele>1048.0</ele><time>2026-04-06T08:49:02.999Z</time></trkpt><trkpt lat="44.36178931971215" lon="10.155791328035082"><ele>1048.0</ele><time>2026-04-06T08:49:03.999Z</time></trkpt><trkpt lat="44.3618612384204" lon="10.155958647992609"><ele>1052.25</ele><time>2026-04-06T08:49:04.999Z</time></trkpt><trkpt lat="44.36192370629883" lon="10.15612661036772"><ele>1056.5</ele><time>2026-04-06T08:49:05.999Z</time></trkpt><trkpt lat="44.36196065181802" lon="10.156306983814849"><ele>1060.75</ele><time>2026-04-06T08:49:06.999Z</time></trkpt><trkpt lat="44.36198764198815" lon="10.15649529099928"><ele>1065.0</ele><time>2026-04-06T08:49:07.999Z</time></trkpt><trkpt lat="44.362007166647544" lon="10.156687921905029"><ele>1066.0</ele><time>2026-04-06T08:49:08.999Z</time></trkpt><trkpt lat="44.36202750055282" lon="10.156887867673486"><ele>1067.0</ele><time>2026-04-06T08:49:09.999Z</time></trkpt><trkpt lat="44.362050793740515" lon="10.157093616986037"><ele>1068.0</ele><time>2026-04-06T08:49:10.999Z</time></trkpt><trkpt lat="44.362074125103106" lon="10.157272821076127"><ele>1069.0</ele><time>2026-04-06T08:49:11.999Z</time></trkpt><trkpt lat="44.36210197121173" lon="10.157432366536353"><ele>1069.0</ele><time>2026-04-06T08:49:12.999Z</time></trkpt><trkpt lat="44.36214777730708" lon="10.157572579896373"><ele>1069.0</ele><time>2026-04-06T08:49:13.999Z</time></trkpt><trkpt lat="44.36221512438143" lon="10.157687036349664"><ele>1069.0</ele><time>2026-04-06T08:49:14.999Z</time></trkpt><trkpt lat="44.36230509147881" lon="10.157775668511404"><ele>1069.0</ele><time>2026-04-06T08:49:16Z</time></trkpt><trkpt lat="44.362416545545486" lon="10.157839020881468"><ele>1069.0</ele><time>2026-04-06T08:49:17Z</time></trkpt><trkpt lat="44.36253731578617" lon="10.157870769691124"><ele>1063.25</ele><time>2026-04-06T08:49:18Z</time></trkpt><trkpt lat="44.3626715252883" lon="10.157875046553546"><ele>1057.5</ele><time>2026-04-06T08:49:19Z</time></trkpt><trkpt lat="44.36281563121694" lon="10.157857976749927"><ele>1051.75</ele><time>2026-04-06T08:49:20Z</time></trkpt><trkpt lat="44.36296003597854" lon="10.1578451039439"><ele>1046.0</ele><time>2026-04-06T08:49:21Z</time></trkpt><trkpt lat="44.363111542828236" lon="10.15783449291791"><ele>1044.25</ele><time>2026-04-06T08:49:22Z</time></trkpt><trkpt lat="44.36326356602858" lon="10.157825850682473"><ele>1042.5</ele><time>2026-04-06T08:49:23Z</time></trkpt><trkpt lat="44.36341053027" lon="10.15782066729596"><ele>1040.75</ele><time>2026-04-06T08:49:24Z</time></trkpt><trkpt lat="44.36355711744934" lon="10.157816205411816"><ele>1039.0</ele><time>2026-04-06T08:49:25Z</time></trkpt><trkpt lat="44.36369638222929" lon="10.157800912043477"><ele>1039.0</ele><time>2026-04-06T08:49:26Z</time></trkpt><trkpt lat="44.36383927271843" lon="10.157751119114998"><ele>1039.0</ele><time>2026-04-06T08:49:27Z</time></trkpt><trkpt lat="44.36398366815991" lon="10.15767157033096"><ele>1039.0</ele><time>2026-04-06T08:49:28Z</time></trkpt><trkpt lat="44.364125837768505" lon="10.157562033349356"><ele>1038.75</ele><time>2026-04-06T08:49:29Z</time></trkpt><trkpt lat="44.36426098721008" lon="10.157454238479872"><ele>1038.5</ele><time>2026-04-06T08:49:30Z</time></trkpt><trkpt lat="44.364392206533275" lon="10.15734544830177"><ele>1038.25</ele><time>2026-04-06T08:49:31Z</time></trkpt><trkpt lat="44.36451264558778" lon="10.157251570531342"><ele>1038.0</ele><time>2026-04-06T08:49:32Z</time></trkpt><trkpt lat="44.36463052451755" lon="10.15718141955426"><ele>1034.5</ele><time>2026-04-06T08:49:33Z</time></trkpt><trkpt lat="44.36475225899596" lon="10.157149548038936"><ele>1031.0</ele><time>2026-04-06T08:49:34Z</time></trkpt><trkpt lat="44.36486916615384" lon="10.157155263803224"><ele>1027.5</ele><time>2026-04-06T08:49:35Z</time></trkpt><trkpt lat="44.364974864538496" lon="10.157202391305118"><ele>1024.0</ele><time>2026-04-06T08:49:36Z</time></trkpt><trkpt lat="44.365057071459496" lon="10.157285416169504"><ele>1027.0</ele><time>2026-04-06T08:49:37Z</time></trkpt><trkpt lat="44.36513129821433" lon="10.157396725254095"><ele>1030.0</ele><time>2026-04-06T08:49:38Z</time></trkpt><trkpt lat="44.36518808423558" lon="10.157542927255351"><ele>1033.0</ele><time>2026-04-06T08:49:39Z</time></trkpt><trkpt lat="44.365201415812365" lon="10.157720625887976"><ele>1036.0</ele><time>2026-04-06T08:49:40Z</time></trkpt><trkpt lat="44.36521411582696" lon="10.157913839859484"><ele>1036.0</ele><time>2026-04-06T08:49:41Z</time></trkpt><trkpt lat="44.36522892500176" lon="10.158117002242381"><ele>1036.0</ele><time>2026-04-06T08:49:42Z</time></trkpt><trkpt lat="44.36523281216296" lon="10.158333051975747"><ele>1036.0</ele><time>2026-04-06T08:49:43Z</time></trkpt><trkpt lat="44.365236332924944" lon="10.158538967302404"><ele>1036.0</ele><time>2026-04-06T08:49:44Z</time></trkpt><trkpt lat="44.36523765468839" lon="10.158731591999434"><ele>1037.25</ele><time>2026-04-06T08:49:45Z</time></trkpt><trkpt lat="44.36524518436037" lon="10.158923819649273"><ele>1038.5</ele><time>2026-04-06T08:49:46Z</time></trkpt><trkpt lat="44.36525482318958" lon="10.159118612439892"><ele>1039.75</ele><time>2026-04-06T08:49:47Z</time></trkpt><trkpt lat="44.36525815048017" lon="10.159319370691057"><ele>1041.0</ele><time>2026-04-06T08:49:48Z</time></trkpt><trkpt lat="44.36526157355562" lon="10.15951135253904"><ele>1041.0</ele><time>2026-04-06T08:49:49Z</time></trkpt><trkpt lat="44.365269383807934" lon="10.159676749880612"><ele>1041.0</ele><time>2026-04-06T08:49:50Z</time></trkpt><trkpt lat="44.36527967555502" lon="10.159821447433004"><ele>1041.0</ele><time>2026-04-06T08:49:51Z</time></trkpt><trkpt lat="44.36530478200135" lon="10.159961863978214"><ele>1041.0</ele><time>2026-04-06T08:49:52Z</time></trkpt><trkpt lat="44.36534803310982" lon="10.160104848761954"><ele>1041.0</ele><time>2026-04-06T08:49:53Z</time></trkpt><trkpt lat="44.36541202016667" lon="10.160256163665252"><ele>1039.75</ele><time>2026-04-06T08:49:54Z</time></trkpt><trkpt lat="44.36549464680157" lon="10.16041919554949"><ele>1038.5</ele><time>2026-04-06T08:49:55Z</time></trkpt><trkpt lat="44.36557815982584" lon="10.160572527246588"><ele>1037.25</ele><time>2026-04-06T08:49:56Z</time></trkpt><trkpt lat="44.365652758049706" lon="10.160717095739102"><ele>1036.0</ele><time>2026-04-06T08:49:57Z</time></trkpt><trkpt lat="44.36572472895169" lon="10.160831829096718"><ele>1031.5</ele><time>2026-04-06T08:49:58Z</time></trkpt><trkpt lat="44.365809205233404" lon="10.160916748720474"><ele>1027.0</ele><time>2026-04-06T08:49:59Z</time></trkpt><trkpt lat="44.36590973538492" lon="10.160974259913854"><ele>1022.5</ele><time>2026-04-06T08:50:00Z</time></trkpt><trkpt lat="44.366031941389004" lon="10.161001260159736"><ele>1018.0</ele><time>2026-04-06T08:50:01Z</time></trkpt><trkpt lat="44.366175267455525" lon="10.160995329159118"><ele>1018.0</ele><time>2026-04-06T08:50:02Z</time></trkpt><trkpt lat="44.36633074357617" lon="10.160976470044618"><ele>1018.0</ele><time>2026-04-06T08:50:03Z</time></trkpt><trkpt lat="44.366479792010054" lon="10.160961685498828"><ele>1018.0</ele><time>2026-04-06T08:50:04Z</time></trkpt><trkpt lat="44.366623900835854" lon="10.160954783716225"><ele>1015.75</ele><time>2026-04-06T08:50:05Z</time></trkpt><trkpt lat="44.36675013386209" lon="10.160951348940033"><ele>1013.5</ele><time>2026-04-06T08:50:06Z</time></trkpt><trkpt lat="44.36686432058202" lon="10.160955947842016"><ele>1011.25</ele><time>2026-04-06T08:50:07Z</time></trkpt><trkpt lat="44.366978490023705" lon="10.160970957393658"><ele>1009.0</ele><time>2026-04-06T08:50:08Z</time></trkpt><trkpt lat="44.36708760769085" lon="10.161017609264512"><ele>1009.75</ele><time>2026-04-06T08:50:09Z</time></trkpt><trkpt lat="44.36719875961803" lon="10.161110291626702"><ele>1010.5</ele><time>2026-04-06T08:50:10Z</time></trkpt><trkpt lat="44.36730613584804" lon="10.161242732518431"><ele>1011.25</ele><time>2026-04-06T08:50:11Z</time></trkpt><trkpt lat="44.36740396671555" lon="10.161396935631151"><ele>1012.0</ele><time>2026-04-06T08:50:12Z</time></trkpt><trkpt lat="44.36750652899848" lon="10.161539142207817"><ele>1012.0</ele><time>2026-04-06T08:50:12.999Z</time></trkpt><trkpt lat="44.36759730358536" lon="10.161647432429362"><ele>1012.0</ele><time>2026-04-06T08:50:13.999Z</time></trkpt><trkpt lat="44.367689413287444" lon="10.161739235550654"><ele>1012.0</ele><time>2026-04-06T08:50:14.999Z</time></trkpt><trkpt lat="44.36778992509485" lon="10.161803025426922"><ele>1012.0</ele><time>2026-04-06T08:50:15.999Z</time></trkpt><trkpt lat="44.367896866711" lon="10.161838228848499"><ele>1012.0</ele><time>2026-04-06T08:50:16.999Z</time></trkpt><trkpt lat="44.368004396582435" lon="10.161824255778134"><ele>1012.0</ele><time>2026-04-06T08:50:17.999Z</time></trkpt><trkpt lat="44.36811928199038" lon="10.161791243860042"><ele>1012.0</ele><time>2026-04-06T08:50:18.999Z</time></trkpt><trkpt lat="44.36825299831667" lon="10.161745691829413"><ele>1012.0</ele><time>2026-04-06T08:50:19.999Z</time></trkpt><trkpt lat="44.36840329378782" lon="10.161685526299653"><ele>1010.0</ele><time>2026-04-06T08:50:20.999Z</time></trkpt><trkpt lat="44.36854228522289" lon="10.161643287299498"><ele>1008.0</ele><time>2026-04-06T08:50:21.999Z</time></trkpt><trkpt lat="44.3686622922961" lon="10.161637010934871"><ele>1006.0</ele><time>2026-04-06T08:50:22.999Z</time></trkpt><trkpt lat="44.36877125333101" lon="10.161665557531027"><ele>1004.0</ele><time>2026-04-06T08:50:23.999Z</time></trkpt><trkpt lat="44.36886843742345" lon="10.161728157498825"><ele>1002.75</ele><time>2026-04-06T08:50:24.999Z</time></trkpt><trkpt lat="44.36895504030135" lon="10.161830865348785"><ele>1001.5</ele><time>2026-04-06T08:50:25.999Z</time></trkpt><trkpt lat="44.369030186771155" lon="10.161971879205344"><ele>1000.25</ele><time>2026-04-06T08:50:26.999Z</time></trkpt><trkpt lat="44.36910099532286" lon="10.162150943442375"><ele>999.0</ele><time>2026-04-06T08:50:27.999Z</time></trkpt><trkpt lat="44.369181719545566" lon="10.162358070804656"><ele>1000.3333333333333</ele><time>2026-04-06T08:50:28.999Z</time></trkpt><trkpt lat="44.36925208799887" lon="10.162550287428699"><ele>1001.6666666666666</ele><time>2026-04-06T08:50:29.999Z</time></trkpt><trkpt lat="44.36933269905337" lon="10.162743711899731"><ele>1003.0</ele><time>2026-04-06T08:50:30.999Z</time></trkpt><trkpt lat="44.36943069893747" lon="10.162901514422227"><ele>1003.0</ele><time>2026-04-06T08:50:31.999Z</time></trkpt><trkpt lat="44.369514596547695" lon="10.163039874536938"><ele>1003.0</ele><time>2026-04-06T08:50:32.999Z</time></trkpt><trkpt lat="44.36961868382882" lon="10.16316152824257"><ele>1003.0</ele><time>2026-04-06T08:50:33.999Z</time></trkpt><trkpt lat="44.3697407418133" lon="10.163259828796496"><ele>1003.0</ele><time>2026-04-06T08:50:34.999Z</time></trkpt><trkpt lat="44.369869052826225" lon="10.163337974453276"><ele>1000.5999999999999</ele><time>2026-04-06T08:50:35.999Z</time></trkpt><trkpt lat="44.369974547914104" lon="10.163414198743865"><ele>998.1999999999999</ele><time>2026-04-06T08:50:36.999Z</time></trkpt><trkpt lat="44.370059327484555" lon="10.163464654172037"><ele>995.8</ele><time>2026-04-06T08:50:37.999Z</time></trkpt><trkpt lat="44.37011712087881" lon="10.163502445343877"><ele>993.4</ele><time>2026-04-06T08:50:38.999Z</time></trkpt><trkpt lat="44.37020712620149" lon="10.163534524063781"><ele>991.0</ele><time>2026-04-06T08:51:03.999Z</time></trkpt><trkpt lat="44.3702947746455" lon="10.163583433232311"><ele>991.0</ele><time>2026-04-06T08:51:04.999Z</time></trkpt><trkpt lat="44.370406878810215" lon="10.163660267069723"><ele>991.0</ele><time>2026-04-06T08:51:05.999Z</time></trkpt><trkpt lat="44.3705071240382" lon="10.163771850899817"><ele>991.0</ele><time>2026-04-06T08:51:06.999Z</time></trkpt><trkpt lat="44.37061410751381" lon="10.16389597723368"><ele>991.0</ele><time>2026-04-06T08:51:07.999Z</time></trkpt><trkpt lat="44.37069624949058" lon="10.164034767158968"><ele>990.0</ele><time>2026-04-06T08:51:08.999Z</time></trkpt><trkpt lat="44.37076277246436" lon="10.164198830211781"><ele>989.0</ele><time>2026-04-06T08:51:09.999Z</time></trkpt><trkpt lat="44.3708288045826" lon="10.164392884826505"><ele>988.0</ele><time>2026-04-06T08:51:10.999Z</time></trkpt><trkpt lat="44.37088989329965" lon="10.164586492922487"><ele>987.0</ele><time>2026-04-06T08:51:11.999Z</time></trkpt><trkpt lat="44.37095263379734" lon="10.164771651610435"><ele>989.75</ele><time>2026-04-06T08:51:12.999Z</time></trkpt><trkpt lat="44.371028720135" lon="10.164922293997138"><ele>992.5</ele><time>2026-04-06T08:51:13.999Z</time></trkpt><trkpt lat="44.37113030530392" lon="10.165028784250508"><ele>995.25</ele><time>2026-04-06T08:51:14.999Z</time></trkpt><trkpt lat="44.37121747099258" lon="10.165139219385491"><ele>998.0</ele><time>2026-04-06T08:51:15.999Z</time></trkpt><trkpt lat="44.371290301871966" lon="10.16524825208923"><ele>993.0</ele><time>2026-04-06T08:51:16.999Z</time></trkpt><trkpt lat="44.37141637063288" lon="10.165267306269019"><ele>988.0</ele><time>2026-04-06T08:51:17.999Z</time></trkpt><trkpt lat="44.3715483018257" lon="10.16528856591132"><ele>983.0</ele><time>2026-04-06T08:51:18.999Z</time></trkpt><trkpt lat="44.37171261766576" lon="10.165291599470882"><ele>978.0</ele><time>2026-04-06T08:51:19.999Z</time></trkpt><trkpt lat="44.37189144773743" lon="10.165306625285895"><ele>978.0</ele><time>2026-04-06T08:51:20.999Z</time></trkpt><trkpt lat="44.37207410834267" lon="10.165316564700177"><ele>978.0</ele><time>2026-04-06T08:51:22Z</time></trkpt><trkpt lat="44.37224032645751" lon="10.165326470633104"><ele>978.0</ele><time>2026-04-06T08:51:23Z</time></trkpt><trkpt lat="44.37239334369398" lon="10.165334440440668"><ele>975.0</ele><time>2026-04-06T08:51:24Z</time></trkpt><trkpt lat="44.37254882898098" lon="10.165360590148191"><ele>972.0</ele><time>2026-04-06T08:51:25Z</time></trkpt><trkpt lat="44.37270545888672" lon="10.165412177832145"><ele>969.0</ele><time>2026-04-06T08:51:26Z</time></trkpt><trkpt lat="44.372860816483424" lon="10.165475036663564"><ele>969.0</ele><time>2026-04-06T08:51:27Z</time></trkpt><trkpt lat="44.37299762830904" lon="10.165533011733098"><ele>969.0</ele><time>2026-04-06T08:51:28Z</time></trkpt><trkpt lat="44.37312066702947" lon="10.165584131143678"><ele>969.0</ele><time>2026-04-06T08:51:29Z</time></trkpt><trkpt lat="44.373235036712714" lon="10.165639770515101"><ele>969.0</ele><time>2026-04-06T08:51:30Z</time></trkpt><trkpt lat="44.373347006709416" lon="10.165711552660053"><ele>970.4000000000001</ele><time>2026-04-06T08:51:31Z</time></trkpt><trkpt lat="44.373448638611265" lon="10.165799441323438"><ele>971.8000000000001</ele><time>2026-04-06T08:51:32Z</time></trkpt><trkpt lat="44.373526239976236" lon="10.165909130804797"><ele>973.1999999999999</ele><time>2026-04-06T08:51:33Z</time></trkpt><trkpt lat="44.37358250666732" lon="10.166033161399296"><ele>974.5999999999999</ele><time>2026-04-06T08:51:34Z</time></trkpt><trkpt lat="44.373622556614755" lon="10.1661617139489"><ele>976.0</ele><time>2026-04-06T08:51:35Z</time></trkpt><trkpt lat="44.37361777602004" lon="10.166316160449869"><ele>976.0</ele><time>2026-04-06T08:51:36Z</time></trkpt><trkpt lat="44.37363948813909" lon="10.166487648640937"><ele>976.0</ele><time>2026-04-06T08:51:37Z</time></trkpt><trkpt lat="44.37360292156421" lon="10.166663866877599"><ele>976.0</ele><time>2026-04-06T08:51:38Z</time></trkpt><trkpt lat="44.37360465506476" lon="10.16683575548727"><ele>976.0</ele><time>2026-04-06T08:51:39Z</time></trkpt><trkpt lat="44.37359007983091" lon="10.16698284741128"><ele>978.1999999999999</ele><time>2026-04-06T08:51:40Z</time></trkpt><trkpt lat="44.373596276513545" lon="10.167118095578756"><ele>980.3999999999999</ele><time>2026-04-06T08:51:41Z</time></trkpt><trkpt lat="44.37362620518898" lon="10.167251592308041"><ele>982.6</ele><time>2026-04-06T08:51:42Z</time></trkpt><trkpt lat="44.37368386231352" lon="10.167387630284624"><ele>984.8</ele><time>2026-04-06T08:51:43Z</time></trkpt><trkpt lat="44.37375791842971" lon="10.167540102362533"><ele>987.0</ele><time>2026-04-06T08:51:44Z</time></trkpt><trkpt lat="44.37383712284195" lon="10.1676955630512"><ele>980.75</ele><time>2026-04-06T08:51:45Z</time></trkpt><trkpt lat="44.373899420546934" lon="10.167837747163713"><ele>974.5</ele><time>2026-04-06T08:51:46Z</time></trkpt><trkpt lat="44.373950145265795" lon="10.167977586426014"><ele>968.25</ele><time>2026-04-06T08:51:47Z</time></trkpt><trkpt lat="44.37398759672068" lon="10.168128415089011"><ele>962.0</ele><time>2026-04-06T08:51:48Z</time></trkpt><trkpt lat="44.37398264727402" lon="10.168303400614919"><ele>962.0</ele><time>2026-04-06T08:51:49Z</time></trkpt><trkpt lat="44.37398549691466" lon="10.168494531848339"><ele>962.0</ele><time>2026-04-06T08:51:50Z</time></trkpt><trkpt lat="44.37398351990812" lon="10.168684211486395"><ele>962.0</ele><time>2026-04-06T08:51:51Z</time></trkpt><trkpt lat="44.373992908121046" lon="10.168873120333364"><ele>962.0</ele><time>2026-04-06T08:51:52Z</time></trkpt><trkpt lat="44.37400291137019" lon="10.169032721586067"><ele>963.2</ele><time>2026-04-06T08:51:53Z</time></trkpt><trkpt lat="44.3740273010244" lon="10.16918352419381"><ele>964.4000000000001</ele><time>2026-04-06T08:51:54Z</time></trkpt><trkpt lat="44.37407241603739" lon="10.169316247289807"><ele>965.5999999999999</ele><time>2026-04-06T08:51:55Z</time></trkpt><trkpt lat="44.37414415559236" lon="10.16943076860075"><ele>966.8</ele><time>2026-04-06T08:51:56Z</time></trkpt><trkpt lat="44.37423257063087" lon="10.169545684523001"><ele>968.0</ele><time>2026-04-06T08:51:57Z</time></trkpt><trkpt lat="44.37433104450896" lon="10.169660548527567"><ele>968.0</ele><time>2026-04-06T08:51:58Z</time></trkpt><trkpt lat="44.37444014878776" lon="10.169788848703064"><ele>968.0</ele><time>2026-04-06T08:51:59Z</time></trkpt><trkpt lat="44.37454385655718" lon="10.169921819695839"><ele>968.0</ele><time>2026-04-06T08:52:00Z</time></trkpt><trkpt lat="44.374635243331994" lon="10.170058173818507"><ele>968.0</ele><time>2026-04-06T08:52:01Z</time></trkpt><trkpt lat="44.37470506236903" lon="10.170194964147354"><ele>965.25</ele><time>2026-04-06T08:52:01.999Z</time></trkpt><trkpt lat="44.37473830163503" lon="10.170349370261729"><ele>962.5</ele><time>2026-04-06T08:52:02.999Z</time></trkpt><trkpt lat="44.37477532290249" lon="10.170499782320903"><ele>959.75</ele><time>2026-04-06T08:52:03.999Z</time></trkpt><trkpt lat="44.37482051268882" lon="10.170645763495923"><ele>957.0</ele><time>2026-04-06T08:52:04.999Z</time></trkpt><trkpt lat="44.374850188003876" lon="10.170789916182867"><ele>957.0</ele><time>2026-04-06T08:52:05.999Z</time></trkpt><trkpt lat="44.37489006400551" lon="10.17091850449538"><ele>957.0</ele><time>2026-04-06T08:52:06.999Z</time></trkpt><trkpt lat="44.37494585790586" lon="10.171025805243431"><ele>957.0</ele><time>2026-04-06T08:52:07.999Z</time></trkpt><trkpt lat="44.37501607478781" lon="10.171090984988934"><ele>957.0</ele><time>2026-04-06T08:52:08.999Z</time></trkpt><trkpt lat="44.37510534206639" lon="10.171124291224722"><ele>957.0</ele><time>2026-04-06T08:52:09.999Z</time></trkpt><trkpt lat="44.37520280349783" lon="10.171122639879743"><ele>957.0</ele><time>2026-04-06T08:52:10.999Z</time></trkpt><trkpt lat="44.37531571883974" lon="10.171103625005527"><ele>957.0</ele><time>2026-04-06T08:52:11.999Z</time></trkpt><trkpt lat="44.375449978955" lon="10.171092743071181"><ele>957.0</ele><time>2026-04-06T08:52:12.999Z</time></trkpt><trkpt lat="44.37557629985882" lon="10.17108631137093"><ele>957.0</ele><time>2026-04-06T08:52:13.999Z</time></trkpt><trkpt lat="44.375691149804815" lon="10.171082750522007"><ele>955.4000000000001</ele><time>2026-04-06T08:52:14.999Z</time></trkpt><trkpt lat="44.375788679557" lon="10.171089528208968"><ele>953.8000000000001</ele><time>2026-04-06T08:52:15.999Z</time></trkpt><trkpt lat="44.37588507895723" lon="10.171107875240157"><ele>952.2</ele><time>2026-04-06T08:52:16.999Z</time></trkpt><trkpt lat="44.37597874165916" lon="10.171144613424934"><ele>950.6</ele><time>2026-04-06T08:52:17.999Z</time></trkpt><trkpt lat="44.3760732341864" lon="10.171220215521965"><ele>949.0</ele><time>2026-04-06T08:52:18.999Z</time></trkpt><trkpt lat="44.3761557751422" lon="10.171336692775434"><ele>949.0</ele><time>2026-04-06T08:52:19.999Z</time></trkpt><trkpt lat="44.37623216108853" lon="10.171491395081786"><ele>949.0</ele><time>2026-04-06T08:52:20.999Z</time></trkpt><trkpt lat="44.376304205390575" lon="10.171678954257304"><ele>949.0</ele><time>2026-04-06T08:52:21.999Z</time></trkpt><trkpt lat="44.376378375401885" lon="10.171877156701434"><ele>949.0</ele><time>2026-04-06T08:52:22.999Z</time></trkpt><trkpt lat="44.37645378306886" lon="10.172067901107386"><ele>948.0</ele><time>2026-04-06T08:52:23.999Z</time></trkpt><trkpt lat="44.37653603486302" lon="10.172258793678937"><ele>947.0</ele><time>2026-04-06T08:52:24.999Z</time></trkpt><trkpt lat="44.37662435976992" lon="10.172439368030933"><ele>946.0</ele><time>2026-04-06T08:52:25.999Z</time></trkpt><trkpt lat="44.37671917119048" lon="10.172617832848562"><ele>946.0</ele><time>2026-04-06T08:52:26.999Z</time></trkpt><trkpt lat="44.376819642694755" lon="10.172798111309817"><ele>946.0</ele><time>2026-04-06T08:52:27.999Z</time></trkpt><trkpt lat="44.37692264878892" lon="10.172973063146204"><ele>946.0</ele><time>2026-04-06T08:52:28.999Z</time></trkpt><trkpt lat="44.377024132214935" lon="10.1731423267549"><ele>947.75</ele><time>2026-04-06T08:52:29.999Z</time></trkpt><trkpt lat="44.37712294784843" lon="10.17330486662002"><ele>949.5</ele><time>2026-04-06T08:52:30.999Z</time></trkpt><trkpt lat="44.377210144611446" lon="10.173455789229687"><ele>951.25</ele><time>2026-04-06T08:52:31.999Z</time></trkpt><trkpt lat="44.37728100749512" lon="10.173593927665737"><ele>953.0</ele><time>2026-04-06T08:52:32.999Z</time></trkpt><trkpt lat="44.37733188838035" lon="10.17372860742027"><ele>951.8</ele><time>2026-04-06T08:52:33.999Z</time></trkpt><trkpt lat="44.37735323930931" lon="10.173870672144792"><ele>950.5999999999999</ele><time>2026-04-06T08:52:34.999Z</time></trkpt><trkpt lat="44.37735102662927" lon="10.174011526926941"><ele>949.4000000000001</ele><time>2026-04-06T08:52:35.999Z</time></trkpt><trkpt lat="44.37731203888721" lon="10.174134808860229"><ele>948.2</ele><time>2026-04-06T08:52:36.999Z</time></trkpt><trkpt lat="44.377250136124765" lon="10.174257301845492"><ele>947.0</ele><time>2026-04-06T08:52:37.999Z</time></trkpt><trkpt lat="44.3771515593745" lon="10.174345192092696"><ele>947.0</ele><time>2026-04-06T08:52:38.999Z</time></trkpt><trkpt lat="44.3770341363796" lon="10.174431734567964"><ele>947.0</ele><time>2026-04-06T08:52:39.999Z</time></trkpt><trkpt lat="44.37690573310626" lon="10.174521182619914"><ele>947.0</ele><time>2026-04-06T08:52:40.999Z</time></trkpt><trkpt lat="44.376780858728175" lon="10.174607466682385"><ele>947.0</ele><time>2026-04-06T08:52:41.999Z</time></trkpt><trkpt lat="44.376668326159745" lon="10.174686550819919"><ele>947.0</ele><time>2026-04-06T08:52:42.999Z</time></trkpt><trkpt lat="44.37655937823829" lon="10.174763905443715"><ele>947.0</ele><time>2026-04-06T08:52:43.999Z</time></trkpt><trkpt lat="44.37645404285755" lon="10.174817194300903"><ele>947.0</ele><time>2026-04-06T08:52:44.999Z</time></trkpt><trkpt lat="44.376351975069745" lon="10.174830638231606"><ele>947.0</ele><time>2026-04-06T08:52:45.999Z</time></trkpt><trkpt lat="44.376253622256414" lon="10.174807515976694"><ele>947.0</ele><time>2026-04-06T08:52:46.999Z</time></trkpt><trkpt lat="44.37616224829173" lon="10.174738720994213"><ele>943.75</ele><time>2026-04-06T08:52:47.999Z</time></trkpt><trkpt lat="44.376073859609946" lon="10.174632753587133"><ele>940.5</ele><time>2026-04-06T08:52:48.999Z</time></trkpt><trkpt lat="44.37598112220172" lon="10.174503539796056"><ele>937.25</ele><time>2026-04-06T08:52:49.999Z</time></trkpt><trkpt lat="44.37589118258973" lon="10.174380298776745"><ele>934.0</ele><time>2026-04-06T08:52:50.999Z</time></trkpt><trkpt lat="44.37581169215908" lon="10.174279693565046"><ele>934.0</ele><time>2026-04-06T08:52:51.999Z</time></trkpt><trkpt lat="44.3757222285664" lon="10.174209556840626"><ele>934.0000000000001</ele><time>2026-04-06T08:52:52.999Z</time></trkpt><trkpt lat="44.37563595004944" lon="10.174185818627516"><ele>934.0000000000001</ele><time>2026-04-06T08:52:53.999Z</time></trkpt><trkpt lat="44.37553466100035" lon="10.174194100832032"><ele>934.0</ele><time>2026-04-06T08:52:54.999Z</time></trkpt><trkpt lat="44.37542681390715" lon="10.174259420219038"><ele>934.0</ele><time>2026-04-06T08:52:55.999Z</time></trkpt><trkpt lat="44.37532162574922" lon="10.174355095141545"><ele>936.0</ele><time>2026-04-06T08:52:56.999Z</time></trkpt><trkpt lat="44.37520948003507" lon="10.174480147551016"><ele>938.0</ele><time>2026-04-06T08:52:57.999Z</time></trkpt><trkpt lat="44.37509389490912" lon="10.174586679616237"><ele>940.0</ele><time>2026-04-06T08:52:58.999Z</time></trkpt><trkpt lat="44.37498394778804" lon="10.17469003922543"><ele>942.0</ele><time>2026-04-06T08:52:59.999Z</time></trkpt><trkpt lat="44.37488443860248" lon="10.17478519126156"><ele>941.2</ele><time>2026-04-06T08:53:00.999Z</time></trkpt><trkpt lat="44.374788527285396" lon="10.174867203545196"><ele>940.4000000000001</ele><time>2026-04-06T08:53:01.999Z</time></trkpt><trkpt lat="44.37469955459801" lon="10.17494543680605"><ele>939.5999999999999</ele><time>2026-04-06T08:53:02.999Z</time></trkpt><trkpt lat="44.37463514128788" lon="10.17503808143992"><ele>938.8</ele><time>2026-04-06T08:53:03.999Z</time></trkpt><trkpt lat="44.37460210117953" lon="10.175159840682106"><ele>938.0</ele><time>2026-04-06T08:53:04.999Z</time></trkpt><trkpt lat="44.37460221835107" lon="10.175289591979306"><ele>938.0</ele><time>2026-04-06T08:53:05.999Z</time></trkpt><trkpt lat="44.374635299164865" lon="10.175422117620004"><ele>938.0</ele><time>2026-04-06T08:53:06.999Z</time></trkpt><trkpt lat="44.37470370504615" lon="10.175547378111284"><ele>938.0</ele><time>2026-04-06T08:53:07.999Z</time></trkpt><trkpt lat="44.374800496138356" lon="10.175650669731953"><ele>938.0</ele><time>2026-04-06T08:53:08.999Z</time></trkpt><trkpt lat="44.374919636263286" lon="10.175735728461113"><ele>933.4</ele><time>2026-04-06T08:53:09.999Z</time></trkpt><trkpt lat="44.375019537380204" lon="10.175821902068767"><ele>928.8</ele><time>2026-04-06T08:53:10.999Z</time></trkpt><trkpt lat="44.375094184438176" lon="10.175931981855182"><ele>924.2</ele><time>2026-04-06T08:53:11.999Z</time></trkpt><trkpt lat="44.375140923240174" lon="10.176048777949305"><ele>919.6</ele><time>2026-04-06T08:53:12.999Z</time></trkpt><trkpt lat="44.375176743046936" lon="10.176190476716158"><ele>915.0</ele><time>2026-04-06T08:53:13.999Z</time></trkpt><trkpt lat="44.375188940523" lon="10.176353896021862"><ele>914.25</ele><time>2026-04-06T08:53:14.999Z</time></trkpt><trkpt lat="44.375179447810076" lon="10.176532076867343"><ele>913.5</ele><time>2026-04-06T08:53:15.999Z</time></trkpt><trkpt lat="44.375158051660755" lon="10.176728701880405"><ele>912.75</ele><time>2026-04-06T08:53:16.999Z</time></trkpt><trkpt lat="44.375134784701885" lon="10.176937569405592"><ele>912.0</ele><time>2026-04-06T08:53:17.999Z</time></trkpt><trkpt lat="44.3751147322894" lon="10.177132837047072"><ele>912.0</ele><time>2026-04-06T08:53:18.999Z</time></trkpt><trkpt lat="44.375097180724374" lon="10.177320197856435"><ele>912.0</ele><time>2026-04-06T08:53:19.999Z</time></trkpt><trkpt lat="44.375077472391496" lon="10.177500825960399"><ele>912.0</ele><time>2026-04-06T08:53:20.999Z</time></trkpt><trkpt lat="44.375060307754474" lon="10.177683590085685"><ele>912.0</ele><time>2026-04-06T08:53:21.998Z</time></trkpt><trkpt lat="44.37505261724088" lon="10.177855373861993"><ele>911.5</ele><time>2026-04-06T08:53:22.998Z</time></trkpt><trkpt lat="44.37505655045722" lon="10.17803042724542"><ele>911.0</ele><time>2026-04-06T08:53:23.998Z</time></trkpt><trkpt lat="44.375076772598746" lon="10.178206446160226"><ele>910.5</ele><time>2026-04-06T08:53:24.998Z</time></trkpt><trkpt lat="44.37511003877088" lon="10.178377866329916"><ele>910.0</ele><time>2026-04-06T08:53:25.998Z</time></trkpt><trkpt lat="44.37514327507238" lon="10.178539726480679"><ele>909.2</ele><time>2026-04-06T08:53:26.998Z</time></trkpt><trkpt lat="44.37517720604596" lon="10.178693076365974"><ele>908.4</ele><time>2026-04-06T08:53:28Z</time></trkpt><trkpt lat="44.375213328604765" lon="10.178841165461984"><ele>907.5999999999999</ele><time>2026-04-06T08:53:29Z</time></trkpt><trkpt lat="44.37524666224422" lon="10.178988969145701"><ele>906.8</ele><time>2026-04-06T08:53:29.999Z</time></trkpt><trkpt lat="44.37527860662929" lon="10.179137549162006"><ele>906.0</ele><time>2026-04-06T08:53:30.999Z</time></trkpt><trkpt lat="44.3753062385776" lon="10.179274955702452"><ele>905.4</ele><time>2026-04-06T08:53:31.999Z</time></trkpt><trkpt lat="44.3753320963037" lon="10.179408228569603"><ele>904.8</ele><time>2026-04-06T08:53:32.999Z</time></trkpt><trkpt lat="44.375357255280576" lon="10.179534687189214"><ele>904.1999999999999</ele><time>2026-04-06T08:53:34Z</time></trkpt><trkpt lat="44.37537902403982" lon="10.17966280020439"><ele>903.5999999999999</ele><time>2026-04-06T08:53:35Z</time></trkpt><trkpt lat="44.37538597179291" lon="10.179794408231329"><ele>903.0</ele><time>2026-04-06T08:53:36Z</time></trkpt><trkpt lat="44.375399956614416" lon="10.179958281984863"><ele>902.0</ele><time>2026-04-06T08:53:37Z</time></trkpt><trkpt lat="44.37540588608091" lon="10.18011954586225"><ele>901.0</ele><time>2026-04-06T08:53:38Z</time></trkpt><trkpt lat="44.37540621016187" lon="10.180272735894498"><ele>900.0</ele><time>2026-04-06T08:53:39Z</time></trkpt><trkpt lat="44.37539508071034" lon="10.180420456592415"><ele>899.0</ele><time>2026-04-06T08:53:40Z</time></trkpt><trkpt lat="44.375371092992" lon="10.180556935903702"><ele>898.0</ele><time>2026-04-06T08:53:41Z</time></trkpt><trkpt lat="44.3753259862687" lon="10.180678910536628"><ele>896.0</ele><time>2026-04-06T08:53:42Z</time></trkpt><trkpt lat="44.3752640016297" lon="10.18077704877339"><ele>894.0</ele><time>2026-04-06T08:53:43Z</time></trkpt><trkpt lat="44.37517346602058" lon="10.180823872792107"><ele>892.0</ele><time>2026-04-06T08:53:44Z</time></trkpt><trkpt lat="44.37509336698924" lon="10.180851103194254"><ele>890.0</ele><time>2026-04-06T08:53:45Z</time></trkpt><trkpt lat="44.375001293842566" lon="10.180852501933055"><ele>888.0</ele><time>2026-04-06T08:53:46Z</time></trkpt><trkpt lat="44.374895072628" lon="10.180850098035005"><ele>888.0</ele><time>2026-04-06T08:53:47Z</time></trkpt><trkpt lat="44.37478561597689" lon="10.180856539486834"><ele>888.0</ele><time>2026-04-06T08:53:48Z</time></trkpt><trkpt lat="44.37468548404696" lon="10.180839729897462"><ele>888.0</ele><time>2026-04-06T08:53:49Z</time></trkpt><trkpt lat="44.374591775622605" lon="10.180827290525764"><ele>888.0</ele><time>2026-04-06T08:53:50Z</time></trkpt><trkpt lat="44.37450751224955" lon="10.180817154465219"><ele>888.0</ele><time>2026-04-06T08:53:51Z</time></trkpt><trkpt lat="44.374434770931465" lon="10.180811328433613"><ele>888.0</ele><time>2026-04-06T08:53:52Z</time></trkpt><trkpt lat="44.37436205830188" lon="10.180804943739068"><ele>888.0</ele><time>2026-04-06T08:53:53Z</time></trkpt><trkpt lat="44.374286305276684" lon="10.180815015168637"><ele>888.0</ele><time>2026-04-06T08:53:53.999Z</time></trkpt><trkpt lat="44.37420412301473" lon="10.18084999590586"><ele>888.0</ele><time>2026-04-06T08:53:54.999Z</time></trkpt><trkpt lat="44.37412751107756" lon="10.180919734737154"><ele>888.0</ele><time>2026-04-06T08:53:55.999Z</time></trkpt><trkpt lat="44.374059446848165" lon="10.181016930718306"><ele>888.0</ele><time>2026-04-06T08:53:56.999Z</time></trkpt><trkpt lat="44.374003360076365" lon="10.181137800079206"><ele>888.0</ele><time>2026-04-06T08:53:57.999Z</time></trkpt><trkpt lat="44.37395910726279" lon="10.1812845864556"><ele>888.0</ele><time>2026-04-06T08:53:58.999Z</time></trkpt><trkpt lat="44.373926041256276" lon="10.181450220387745"><ele>888.0</ele><time>2026-04-06T08:53:59.999Z</time></trkpt><trkpt lat="44.37390107035527" lon="10.181633677958606"><ele>888.0</ele><time>2026-04-06T08:54:00.999Z</time></trkpt><trkpt lat="44.37385693381168" lon="10.181838056412088"><ele>889.0</ele><time>2026-04-06T08:54:01.999Z</time></trkpt><trkpt lat="44.37382058439626" lon="10.182024954181118"><ele>890.0</ele><time>2026-04-06T08:54:02.999Z</time></trkpt><trkpt lat="44.37378806992336" lon="10.182204907844595"><ele>891.0</ele><time>2026-04-06T08:54:03.999Z</time></trkpt><trkpt lat="44.373762699671474" lon="10.182395720186694"><ele>892.0</ele><time>2026-04-06T08:54:04.999Z</time></trkpt><trkpt lat="44.37375045390955" lon="10.182595974710248"><ele>892.0</ele><time>2026-04-06T08:54:05.999Z</time></trkpt><trkpt lat="44.37375184118445" lon="10.182804859259013"><ele>892.0</ele><time>2026-04-06T08:54:06.999Z</time></trkpt><trkpt lat="44.37374649347878" lon="10.18299646537964"><ele>892.0</ele><time>2026-04-06T08:54:07.999Z</time></trkpt><trkpt lat="44.37373953309758" lon="10.183170436582976"><ele>892.0</ele><time>2026-04-06T08:54:08.999Z</time></trkpt><trkpt lat="44.373725094803696" lon="10.183318984956736"><ele>888.0</ele><time>2026-04-06T08:54:09.999Z</time></trkpt><trkpt lat="44.3736917739603" lon="10.183445731535054"><ele>884.0</ele><time>2026-04-06T08:54:10.999Z</time></trkpt><trkpt lat="44.37360951764279" lon="10.18351737886093"><ele>880.0</ele><time>2026-04-06T08:54:11.999Z</time></trkpt><trkpt lat="44.37353169335009" lon="10.183556935890781"><ele>876.0</ele><time>2026-04-06T08:54:12.999Z</time></trkpt><trkpt lat="44.3734461638954" lon="10.183561628066787"><ele>872.0</ele><time>2026-04-06T08:54:13.999Z</time></trkpt><trkpt lat="44.3733504146796" lon="10.183546136025555"><ele>872.0</ele><time>2026-04-06T08:54:14.999Z</time></trkpt><trkpt lat="44.37325110851688" lon="10.183452630090843"><ele>872.0</ele><time>2026-04-06T08:54:15.999Z</time></trkpt><trkpt lat="44.37313941952084" lon="10.183405041941576"><ele>872.0</ele><time>2026-04-06T08:54:16.999Z</time></trkpt><trkpt lat="44.373036549584185" lon="10.18333376050345"><ele>872.0</ele><time>2026-04-06T08:54:17.999Z</time></trkpt><trkpt lat="44.37292887208842" lon="10.18327087349582"><ele>870.0</ele><time>2026-04-06T08:54:18.999Z</time></trkpt><trkpt lat="44.37282150823356" lon="10.183203405270126"><ele>868.0</ele><time>2026-04-06T08:54:19.999Z</time></trkpt><trkpt lat="44.37271567596513" lon="10.183144174932774"><ele>866.0</ele><time>2026-04-06T08:54:20.999Z</time></trkpt><trkpt lat="44.372604162450656" lon="10.18310445017648"><ele>864.0</ele><time>2026-04-06T08:54:21.999Z</time></trkpt><trkpt lat="44.372493743264464" lon="10.18309636760489"><ele>864.0</ele><time>2026-04-06T08:54:22.999Z</time></trkpt><trkpt lat="44.37238239673784" lon="10.183124600074743"><ele>864.0</ele><time>2026-04-06T08:54:23.999Z</time></trkpt><trkpt lat="44.37227341578626" lon="10.18319091362063"><ele>864.0</ele><time>2026-04-06T08:54:24.999Z</time></trkpt><trkpt lat="44.37216612134722" lon="10.18328958274666"><ele>864.0</ele><time>2026-04-06T08:54:25.999Z</time></trkpt><trkpt lat="44.37204963786461" lon="10.18343362830857"><ele>864.25</ele><time>2026-04-06T08:54:26.999Z</time></trkpt><trkpt lat="44.37192822758772" lon="10.183578092283033"><ele>864.5</ele><time>2026-04-06T08:54:27.999Z</time></trkpt><trkpt lat="44.37182533302039" lon="10.18369345936542"><ele>864.75</ele><time>2026-04-06T08:54:28.999Z</time></trkpt><trkpt lat="44.37174115456069" lon="10.18376941313016"><ele>865.0</ele><time>2026-04-06T08:54:29.999Z</time></trkpt><trkpt lat="44.371647908947075" lon="10.183820917098947"><ele>865.0</ele><time>2026-04-06T08:54:30.999Z</time></trkpt><trkpt lat="44.371547131412" lon="10.183830147957353"><ele>865.0</ele><time>2026-04-06T08:54:31.999Z</time></trkpt><trkpt lat="44.371448739459346" lon="10.18381971105258"><ele>865.0</ele><time>2026-04-06T08:54:32.999Z</time></trkpt><trkpt lat="44.37133110911458" lon="10.183815591182702"><ele>865.0</ele><time>2026-04-06T08:54:33.999Z</time></trkpt><trkpt lat="44.371236963900834" lon="10.183820037224653"><ele>865.0</ele><time>2026-04-06T08:54:34.999Z</time></trkpt><trkpt lat="44.371144704390936" lon="10.18385444502073"><ele>865.2</ele><time>2026-04-06T08:54:35.999Z</time></trkpt><trkpt lat="44.37107284527107" lon="10.183924095224958"><ele>865.4</ele><time>2026-04-06T08:54:36.999Z</time></trkpt><trkpt lat="44.371021095072685" lon="10.184026975425075"><ele>865.5999999999999</ele><time>2026-04-06T08:54:37.999Z</time></trkpt><trkpt lat="44.37099397614763" lon="10.184158985792756"><ele>865.8</ele><time>2026-04-06T08:54:38.999Z</time></trkpt><trkpt lat="44.37099267647855" lon="10.184304302073302"><ele>866.0</ele><time>2026-04-06T08:54:39.999Z</time></trkpt><trkpt lat="44.37099552925177" lon="10.18447434388552"><ele>866.0</ele><time>2026-04-06T08:54:40.999Z</time></trkpt><trkpt lat="44.37099295061253" lon="10.184648109521893"><ele>866.0</ele><time>2026-04-06T08:54:41.999Z</time></trkpt><trkpt lat="44.37098791584276" lon="10.18482682531531"><ele>866.0</ele><time>2026-04-06T08:54:42.999Z</time></trkpt><trkpt lat="44.370985662632265" lon="10.185005240542516"><ele>866.0</ele><time>2026-04-06T08:54:43.999Z</time></trkpt><trkpt lat="44.370988942063526" lon="10.185158127464211"><ele>866.0</ele><time>2026-04-06T08:54:44.999Z</time></trkpt><trkpt lat="44.37101526536453" lon="10.185295675029119"><ele>865.9999999999999</ele><time>2026-04-06T08:54:45.999Z</time></trkpt><trkpt lat="44.37107028201021" lon="10.185407543496723"><ele>865.9999999999999</ele><time>2026-04-06T08:54:46.999Z</time></trkpt><trkpt lat="44.37114976026532" lon="10.185480173656599"><ele>866.0</ele><time>2026-04-06T08:54:47.999Z</time></trkpt><trkpt lat="44.37124919907005" lon="10.185516633095999"><ele>866.0</ele><time>2026-04-06T08:54:48.999Z</time></trkpt><trkpt lat="44.371385631742456" lon="10.185505423985417"><ele>860.5</ele><time>2026-04-06T08:54:49.999Z</time></trkpt><trkpt lat="44.371538236123385" lon="10.185453996269896"><ele>855.0</ele><time>2026-04-06T08:54:50.999Z</time></trkpt><trkpt lat="44.371683863147446" lon="10.185413123739837"><ele>849.5</ele><time>2026-04-06T08:54:51.999Z</time></trkpt><trkpt lat="44.371808241652886" lon="10.185403398246562"><ele>844.0</ele><time>2026-04-06T08:54:52.999Z</time></trkpt><trkpt lat="44.37194125591227" lon="10.185430595937254"><ele>844.0</ele><time>2026-04-06T08:54:53.999Z</time></trkpt><trkpt lat="44.37209395559621" lon="10.185489105856123"><ele>844.0</ele><time>2026-04-06T08:54:54.999Z</time></trkpt><trkpt lat="44.37224554871722" lon="10.185604956625326"><ele>844.0</ele><time>2026-04-06T08:54:55.999Z</time></trkpt><trkpt lat="44.372398014639685" lon="10.185694191288983"><ele>847.3333333333333</ele><time>2026-04-06T08:54:56.999Z</time></trkpt><trkpt lat="44.37255507407701" lon="10.18577070718847"><ele>850.6666666666667</ele><time>2026-04-06T08:54:57.999Z</time></trkpt><trkpt lat="44.372692584895105" lon="10.185862933280523"><ele>854.0</ele><time>2026-04-06T08:54:58.999Z</time></trkpt><trkpt lat="44.37281066500636" lon="10.185965175701012"><ele>854.0</ele><time>2026-04-06T08:54:59.999Z</time></trkpt><trkpt lat="44.37289481934203" lon="10.186117210202733"><ele>854.0</ele><time>2026-04-06T08:55:00.999Z</time></trkpt><trkpt lat="44.37298573588357" lon="10.186290046644107"><ele>854.0</ele><time>2026-04-06T08:55:01.999Z</time></trkpt><trkpt lat="44.37307818614098" lon="10.186488613863343"><ele>850.3333333333334</ele><time>2026-04-06T08:55:02.999Z</time></trkpt><trkpt lat="44.37319083478077" lon="10.186691658647153"><ele>846.6666666666667</ele><time>2026-04-06T08:55:03.999Z</time></trkpt><trkpt lat="44.37329917810723" lon="10.186931547177718"><ele>843.0</ele><time>2026-04-06T08:55:04.999Z</time></trkpt><trkpt lat="44.373406572619785" lon="10.187164348456134"><ele>849.0</ele><time>2026-04-06T08:55:05.999Z</time></trkpt><trkpt lat="44.373500913915095" lon="10.187403673404445"><ele>855.0</ele><time>2026-04-06T08:55:06.999Z</time></trkpt><trkpt lat="44.37359398625218" lon="10.187614569947225"><ele>861.0</ele><time>2026-04-06T08:55:07.999Z</time></trkpt><trkpt lat="44.37369289170567" lon="10.187822444373205"><ele>861.0</ele><time>2026-04-06T08:55:08.999Z</time></trkpt><trkpt lat="44.37381114465505" lon="10.188005914490232"><ele>861.0</ele><time>2026-04-06T08:55:09.999Z</time></trkpt><trkpt lat="44.373938218040614" lon="10.18816484691937"><ele>861.0</ele><time>2026-04-06T08:55:10.999Z</time></trkpt><trkpt lat="44.374073333907525" lon="10.188280010349049"><ele>856.5</ele><time>2026-04-06T08:55:11.999Z</time></trkpt><trkpt lat="44.37418164150776" lon="10.188389082079926"><ele>852.0</ele><time>2026-04-06T08:55:12.999Z</time></trkpt><trkpt lat="44.37428020323693" lon="10.188489028372276"><ele>847.5</ele><time>2026-04-06T08:55:13.999Z</time></trkpt><trkpt lat="44.374381081137855" lon="10.188559835250336"><ele>843.0</ele><time>2026-04-06T08:55:14.999Z</time></trkpt><trkpt lat="44.37448922715761" lon="10.188592646375895"><ele>843.0</ele><time>2026-04-06T08:55:15.999Z</time></trkpt><trkpt lat="44.37459907109315" lon="10.188588487126156"><ele>843.0</ele><time>2026-04-06T08:55:16.999Z</time></trkpt><trkpt lat="44.37470605053205" lon="10.188585438400137"><ele>843.0</ele><time>2026-04-06T08:55:17.999Z</time></trkpt><trkpt lat="44.37479672203845" lon="10.188618493648903"><ele>843.0</ele><time>2026-04-06T08:55:18.999Z</time></trkpt><trkpt lat="44.374868553516144" lon="10.18872116896671"><ele>843.0</ele><time>2026-04-06T08:55:19.999Z</time></trkpt><trkpt lat="44.374937157034914" lon="10.188846454445063"><ele>839.5</ele><time>2026-04-06T08:55:20.999Z</time></trkpt><trkpt lat="44.375010154387134" lon="10.188996447443408"><ele>836.0</ele><time>2026-04-06T08:55:21.999Z</time></trkpt><trkpt lat="44.37508722322257" lon="10.18913253980553"><ele>832.5</ele><time>2026-04-06T08:55:22.999Z</time></trkpt><trkpt lat="44.37512664151626" lon="10.18928631283378"><ele>829.0</ele><time>2026-04-06T08:55:23.998Z</time></trkpt><trkpt lat="44.37514252293755" lon="10.189451406316032"><ele>829.0</ele><time>2026-04-06T08:55:24.998Z</time></trkpt><trkpt lat="44.37511182605522" lon="10.189617204855246"><ele>829.0</ele><time>2026-04-06T08:55:25.998Z</time></trkpt><trkpt lat="44.375063635153595" lon="10.189779042459977"><ele>829.0</ele><time>2026-04-06T08:55:26.998Z</time></trkpt><trkpt lat="44.37498543478489" lon="10.18994362555678"><ele>829.0</ele><time>2026-04-06T08:55:27.998Z</time></trkpt><trkpt lat="44.37488637004786" lon="10.19012946466916"><ele>827.6666666666666</ele><time>2026-04-06T08:55:28.998Z</time></trkpt><trkpt lat="44.37478939597546" lon="10.190333270048727"><ele>826.3333333333333</ele><time>2026-04-06T08:55:29.998Z</time></trkpt><trkpt lat="44.37469051537529" lon="10.19050303193594"><ele>825.0</ele><time>2026-04-06T08:55:30.998Z</time></trkpt><trkpt lat="44.37460881237508" lon="10.190655217518966"><ele>830.75</ele><time>2026-04-06T08:55:31.998Z</time></trkpt><trkpt lat="44.374539355483776" lon="10.190794198886742"><ele>836.5</ele><time>2026-04-06T08:55:32.998Z</time></trkpt><trkpt lat="44.37448454765556" lon="10.190948424061409"><ele>842.25</ele><time>2026-04-06T08:55:34Z</time></trkpt><trkpt lat="44.37445406863817" lon="10.19112697551498"><ele>848.0</ele><time>2026-04-06T08:55:35Z</time></trkpt><trkpt lat="44.37445062511617" lon="10.191336283863318"><ele>843.6666666666667</ele><time>2026-04-06T08:55:36Z</time></trkpt><trkpt lat="44.37446639763746" lon="10.191573790854074"><ele>839.3333333333333</ele><time>2026-04-06T08:55:37Z</time></trkpt><trkpt lat="44.374491352228866" lon="10.191839028642427"><ele>835.0</ele><time>2026-04-06T08:55:38Z</time></trkpt><trkpt lat="44.37451828882296" lon="10.192104162389581"><ele>834.6666666666666</ele><time>2026-04-06T08:55:39Z</time></trkpt><trkpt lat="44.374546333584576" lon="10.19236099582195"><ele>834.3333333333333</ele><time>2026-04-06T08:55:40Z</time></trkpt><trkpt lat="44.374567877818734" lon="10.192588097420975"><ele>834.0</ele><time>2026-04-06T08:55:41Z</time></trkpt><trkpt lat="44.37456962749404" lon="10.192787967586295"><ele>834.0</ele><time>2026-04-06T08:55:42Z</time></trkpt><trkpt lat="44.37457640636768" lon="10.192971533985522"><ele>834.0</ele><time>2026-04-06T08:55:43Z</time></trkpt><trkpt lat="44.37456210427403" lon="10.193144991521175"><ele>834.0</ele><time>2026-04-06T08:55:44Z</time></trkpt><trkpt lat="44.37451706108918" lon="10.19330494739213"><ele>834.0</ele><time>2026-04-06T08:55:45Z</time></trkpt><trkpt lat="44.37445707401179" lon="10.193448637383392"><ele>831.5</ele><time>2026-04-06T08:55:46Z</time></trkpt><trkpt lat="44.37436541101914" lon="10.193562860973786"><ele>829.0</ele><time>2026-04-06T08:55:47Z</time></trkpt><trkpt lat="44.37425342841263" lon="10.193648601713207"><ele>826.5</ele><time>2026-04-06T08:55:48Z</time></trkpt><trkpt lat="44.37412521597742" lon="10.193722857143195"><ele>824.0</ele><time>2026-04-06T08:55:49Z</time></trkpt><trkpt lat="44.37398837227189" lon="10.193818931523694"><ele>830.0</ele><time>2026-04-06T08:55:50Z</time></trkpt><trkpt lat="44.373830495306116" lon="10.193898850069935"><ele>836.0</ele><time>2026-04-06T08:55:51Z</time></trkpt><trkpt lat="44.373671009946804" lon="10.193991551876065"><ele>842.0</ele><time>2026-04-06T08:55:52Z</time></trkpt><trkpt lat="44.37352334200904" lon="10.194076966577642"><ele>832.5</ele><time>2026-04-06T08:55:53Z</time></trkpt><trkpt lat="44.3733901762659" lon="10.194157901893195"><ele>823.0</ele><time>2026-04-06T08:55:54Z</time></trkpt><trkpt lat="44.373267765360815" lon="10.194230814148343"><ele>813.5</ele><time>2026-04-06T08:55:55Z</time></trkpt><trkpt lat="44.37314970190795" lon="10.194297021152984"><ele>804.0</ele><time>2026-04-06T08:55:56Z</time></trkpt><trkpt lat="44.3730457741866" lon="10.19436219217599"><ele>803.3333333333334</ele><time>2026-04-06T08:55:57Z</time></trkpt><trkpt lat="44.37297387007824" lon="10.194429902961575"><ele>802.6666666666667</ele><time>2026-04-06T08:55:58Z</time></trkpt><trkpt lat="44.372930006613174" lon="10.194505380462571"><ele>802.0</ele><time>2026-04-06T08:55:59Z</time></trkpt><trkpt lat="44.37290645247551" lon="10.19458709304701"><ele>801.3333333333334</ele><time>2026-04-06T08:56:00Z</time></trkpt><trkpt lat="44.37289227131771" lon="10.194683198779362"><ele>800.6666666666667</ele><time>2026-04-06T08:56:01Z</time></trkpt><trkpt lat="44.372883341471635" lon="10.194797424533434"><ele>800.0</ele><time>2026-04-06T08:56:02Z</time></trkpt><trkpt lat="44.37284385459012" lon="10.194922494255955"><ele>799.6666666666667</ele><time>2026-04-06T08:56:02.999Z</time></trkpt><trkpt lat="44.37281462127679" lon="10.195069571500957"><ele>799.3333333333334</ele><time>2026-04-06T08:56:03.999Z</time></trkpt><trkpt lat="44.37285183947422" lon="10.195207932180832"><ele>799.0</ele><time>2026-04-06T08:56:04.999Z</time></trkpt><trkpt lat="44.3728740002909" lon="10.195297126507286"><ele>798.6666666666667</ele><time>2026-04-06T08:56:05.999Z</time></trkpt><trkpt lat="44.372938167645586" lon="10.195364217839506"><ele>798.3333333333334</ele><time>2026-04-06T08:56:06.999Z</time></trkpt><trkpt lat="44.37301550869842" lon="10.195417308006634"><ele>798.0</ele><time>2026-04-06T08:56:07.999Z</time></trkpt><trkpt lat="44.373124869278" lon="10.195429839426026"><ele>795.3333333333333</ele><time>2026-04-06T08:56:08.999Z</time></trkpt><trkpt lat="44.37326280768892" lon="10.195438249643145"><ele>792.6666666666666</ele><time>2026-04-06T08:56:09.999Z</time></trkpt><trkpt lat="44.37340905387223" lon="10.195461677720699"><ele>790.0</ele><time>2026-04-06T08:56:10.999Z</time></trkpt><trkpt lat="44.37357507347068" lon="10.195538135513221"><ele>790.0</ele><time>2026-04-06T08:56:11.999Z</time></trkpt><trkpt lat="44.37372891833961" lon="10.19563184633748"><ele>790.0</ele><time>2026-04-06T08:56:12.999Z</time></trkpt><trkpt lat="44.37387416197648" lon="10.19569274206117"><ele>790.0</ele><time>2026-04-06T08:56:13.999Z</time></trkpt><trkpt lat="44.37400907117516" lon="10.195734042403267"><ele>788.5</ele><time>2026-04-06T08:56:14.999Z</time></trkpt><trkpt lat="44.37416127074446" lon="10.195736262397116"><ele>787.0</ele><time>2026-04-06T08:56:15.999Z</time></trkpt><trkpt lat="44.37430440187836" lon="10.195711666582866"><ele>785.5</ele><time>2026-04-06T08:56:16.999Z</time></trkpt><trkpt lat="44.3744295914047" lon="10.195675634438093"><ele>784.0</ele><time>2026-04-06T08:56:17.999Z</time></trkpt><trkpt lat="44.374521088259584" lon="10.195648720026268"><ele>783.9999999999999</ele><time>2026-04-06T08:56:18.999Z</time></trkpt><trkpt lat="44.37459897648216" lon="10.195634435302301"><ele>784.0</ele><time>2026-04-06T08:56:19.999Z</time></trkpt><trkpt lat="44.37466578062321" lon="10.195678364188131"><ele>784.0</ele><time>2026-04-06T08:56:21.999Z</time></trkpt><trkpt lat="44.37464648449476" lon="10.195781537332874"><ele>784.0</ele><time>2026-04-06T08:56:23.999Z</time></trkpt><trkpt lat="44.374583178913255" lon="10.195827465076308"><ele>783.9999999999999</ele><time>2026-04-06T08:56:24.999Z</time></trkpt><trkpt lat="44.374478120563836" lon="10.195838356848382"><ele>784.0</ele><time>2026-04-06T08:56:25.999Z</time></trkpt><trkpt lat="44.37435926683149" lon="10.195851379791579"><ele>789.75</ele><time>2026-04-06T08:56:26.999Z</time></trkpt><trkpt lat="44.3742543176767" lon="10.195871296139881"><ele>795.5</ele><time>2026-04-06T08:56:27.999Z</time></trkpt><trkpt lat="44.37413912106989" lon="10.195897547632256"><ele>801.25</ele><time>2026-04-06T08:56:28.999Z</time></trkpt><trkpt lat="44.37399801229242" lon="10.195916341203787"><ele>807.0</ele><time>2026-04-06T08:56:29.999Z</time></trkpt><trkpt lat="44.37385596025092" lon="10.19591374774143"><ele>807.75</ele><time>2026-04-06T08:56:30.999Z</time></trkpt><trkpt lat="44.373733775707414" lon="10.195914509042384"><ele>808.5</ele><time>2026-04-06T08:56:31.999Z</time></trkpt><trkpt lat="44.373616877274344" lon="10.195924045735637"><ele>809.25</ele><time>2026-04-06T08:56:32.999Z</time></trkpt><trkpt lat="44.373487630886125" lon="10.195952673142797"><ele>810.0</ele><time>2026-04-06T08:56:33.999Z</time></trkpt><trkpt lat="44.37334221490433" lon="10.195991638212378"><ele>810.0</ele><time>2026-04-06T08:56:34.999Z</time></trkpt><trkpt lat="44.373194874588805" lon="10.196040500401427"><ele>810.0</ele><time>2026-04-06T08:56:35.999Z</time></trkpt><trkpt lat="44.37307346632494" lon="10.196079100919029"><ele>810.0</ele><time>2026-04-06T08:56:36.999Z</time></trkpt><trkpt lat="44.372963523107316" lon="10.196102150655419"><ele>810.0</ele><time>2026-04-06T08:56:37.999Z</time></trkpt><trkpt lat="44.37285566307738" lon="10.196091439301934"><ele>811.0</ele><time>2026-04-06T08:56:38.999Z</time></trkpt><trkpt lat="44.372753340499635" lon="10.196039588937476"><ele>812.0</ele><time>2026-04-06T08:56:39.999Z</time></trkpt><trkpt lat="44.37267413344538" lon="10.195959448052792"><ele>813.0</ele><time>2026-04-06T08:56:40.999Z</time></trkpt><trkpt lat="44.37260460344206" lon="10.195869721418788"><ele>814.0</ele><time>2026-04-06T08:56:41.999Z</time></trkpt><trkpt lat="44.37253322606613" lon="10.195794810107765"><ele>815.0</ele><time>2026-04-06T08:56:42.999Z</time></trkpt><trkpt lat="44.37245924839983" lon="10.195764909569359"><ele>815.0000000000001</ele><time>2026-04-06T08:56:43.999Z</time></trkpt><trkpt lat="44.37238933839639" lon="10.195788101446047"><ele>815.0</ele><time>2026-04-06T08:56:44.999Z</time></trkpt><trkpt lat="44.37234550579927" lon="10.195861348594974"><ele>815.0</ele><time>2026-04-06T08:56:45.999Z</time></trkpt><trkpt lat="44.37233297933302" lon="10.19596208377981"><ele>815.0</ele><time>2026-04-06T08:56:46.999Z</time></trkpt><trkpt lat="44.372355534798174" lon="10.196076965008022"><ele>815.0000000000001</ele><time>2026-04-06T08:56:47.999Z</time></trkpt><trkpt lat="44.372415856647564" lon="10.196187823124431"><ele>815.0</ele><time>2026-04-06T08:56:48.999Z</time></trkpt><trkpt lat="44.37251402759665" lon="10.196291465633673"><ele>815.0</ele><time>2026-04-06T08:56:49.999Z</time></trkpt><trkpt lat="44.37263908460773" lon="10.196387155027374"><ele>815.0</ele><time>2026-04-06T08:56:50.999Z</time></trkpt><trkpt lat="44.37277124566573" lon="10.196481397115123"><ele>815.0</ele><time>2026-04-06T08:56:51.999Z</time></trkpt><trkpt lat="44.37287092102434" lon="10.196517999767467"><ele>815.0</ele><time>2026-04-06T08:56:52.999Z</time></trkpt><trkpt lat="44.37298328989869" lon="10.196526661025155"><ele>813.3333333333334</ele><time>2026-04-06T08:56:53.999Z</time></trkpt><trkpt lat="44.373116206279974" lon="10.196514405889376"><ele>811.6666666666667</ele><time>2026-04-06T08:56:54.999Z</time></trkpt><trkpt lat="44.37326847336735" lon="10.19647329928051"><ele>810.0</ele><time>2026-04-06T08:56:55.999Z</time></trkpt><trkpt lat="44.37343365496163" lon="10.196408531986823"><ele>810.0</ele><time>2026-04-06T08:56:56.999Z</time></trkpt><trkpt lat="44.37357340238949" lon="10.196357842363774"><ele>810.0</ele><time>2026-04-06T08:56:57.999Z</time></trkpt><trkpt lat="44.37369365862315" lon="10.196323922311667"><ele>810.0</ele><time>2026-04-06T08:56:58.999Z</time></trkpt><trkpt lat="44.373805690137104" lon="10.19631785291239"><ele>810.0</ele><time>2026-04-06T08:56:59.999Z</time></trkpt><trkpt lat="44.373903126209576" lon="10.19633037303385"><ele>809.4</ele><time>2026-04-06T08:57:00.999Z</time></trkpt><trkpt lat="44.37398330432801" lon="10.196379736913716"><ele>808.8</ele><time>2026-04-06T08:57:01.999Z</time></trkpt><trkpt lat="44.37405656144773" lon="10.196479024813295"><ele>808.2</ele><time>2026-04-06T08:57:02.999Z</time></trkpt><trkpt lat="44.37412840651561" lon="10.19661970024245"><ele>807.6</ele><time>2026-04-06T08:57:03.999Z</time></trkpt><trkpt lat="44.37420085701219" lon="10.196760835295064"><ele>807.0</ele><time>2026-04-06T08:57:04.999Z</time></trkpt><trkpt lat="44.374306960929296" lon="10.19685336261088"><ele>813.75</ele><time>2026-04-06T08:57:05.999Z</time></trkpt><trkpt lat="44.37443683633176" lon="10.196919498168755"><ele>820.5</ele><time>2026-04-06T08:57:06.999Z</time></trkpt><trkpt lat="44.37454671062429" lon="10.196960526504608"><ele>827.25</ele><time>2026-04-06T08:57:07.999Z</time></trkpt><trkpt lat="44.374618838678465" lon="10.197016829064605"><ele>834.0</ele><time>2026-04-06T08:57:08.999Z</time></trkpt><trkpt lat="44.374620403247135" lon="10.197198212190873"><ele>834.0</ele><time>2026-04-06T08:57:10.999Z</time></trkpt><trkpt lat="44.374567111633446" lon="10.19727609585391"><ele>834.0</ele><time>2026-04-06T08:57:11.999Z</time></trkpt><trkpt lat="44.37448641266141" lon="10.197321909913992"><ele>834.0</ele><time>2026-04-06T08:57:12.999Z</time></trkpt><trkpt lat="44.374393605887896" lon="10.19730896987243"><ele>834.0</ele><time>2026-04-06T08:57:13.999Z</time></trkpt><trkpt lat="44.37429433108452" lon="10.19723605137204"><ele>834.0</ele><time>2026-04-06T08:57:14.999Z</time></trkpt><trkpt lat="44.37416800645964" lon="10.197134254408539"><ele>834.0</ele><time>2026-04-06T08:57:15.999Z</time></trkpt><trkpt lat="44.374061100908726" lon="10.197066175492983"><ele>834.0</ele><time>2026-04-06T08:57:16.999Z</time></trkpt><trkpt lat="44.373969330241856" lon="10.197043753156692"><ele>834.0</ele><time>2026-04-06T08:57:17.999Z</time></trkpt><trkpt lat="44.37385878822071" lon="10.197050403156606"><ele>834.0</ele><time>2026-04-06T08:57:18.999Z</time></trkpt><trkpt lat="44.37373026013714" lon="10.19706305555893"><ele>834.5</ele><time>2026-04-06T08:57:19.999Z</time></trkpt><trkpt lat="44.373597124887" lon="10.197069451423424"><ele>835.0</ele><time>2026-04-06T08:57:20.999Z</time></trkpt><trkpt lat="44.37346567601413" lon="10.19707396417252"><ele>835.5</ele><time>2026-04-06T08:57:21.999Z</time></trkpt><trkpt lat="44.37334679040113" lon="10.197088951093079"><ele>836.0</ele><time>2026-04-06T08:57:22.999Z</time></trkpt><trkpt lat="44.37324185987527" lon="10.197089939137854"><ele>836.0</ele><time>2026-04-06T08:57:23.999Z</time></trkpt><trkpt lat="44.3731428271005" lon="10.197117853924308"><ele>836.0</ele><time>2026-04-06T08:57:24.999Z</time></trkpt><trkpt lat="44.37303520883733" lon="10.197173144586852"><ele>836.0</ele><time>2026-04-06T08:57:25.999Z</time></trkpt><trkpt lat="44.372919540933125" lon="10.197250335123092"><ele>836.0</ele><time>2026-04-06T08:57:26.999Z</time></trkpt><trkpt lat="44.37279865447926" lon="10.197328630341287"><ele>840.75</ele><time>2026-04-06T08:57:27.999Z</time></trkpt><trkpt lat="44.372666921409895" lon="10.19740359468652"><ele>845.5</ele><time>2026-04-06T08:57:28.999Z</time></trkpt><trkpt lat="44.372536881687104" lon="10.197479123801957"><ele>850.25</ele><time>2026-04-06T08:57:29.999Z</time></trkpt><trkpt lat="44.37243778290504" lon="10.19753250495286"><ele>855.0</ele><time>2026-04-06T08:57:30.999Z</time></trkpt><trkpt lat="44.37235614904404" lon="10.197584682781867"><ele>855.0</ele><time>2026-04-06T08:57:31.999Z</time></trkpt><trkpt lat="44.372288724578254" lon="10.197653116557357"><ele>855.0</ele><time>2026-04-06T08:57:32.999Z</time></trkpt><trkpt lat="44.37222994041076" lon="10.197746027452359"><ele>855.0</ele><time>2026-04-06T08:57:33.998Z</time></trkpt><trkpt lat="44.37217890787391" lon="10.197869007189606"><ele>855.0</ele><time>2026-04-06T08:57:34.998Z</time></trkpt><trkpt lat="44.37214163724907" lon="10.197995750732632"><ele>855.0</ele><time>2026-04-06T08:57:35.998Z</time></trkpt><trkpt lat="44.37211902137333" lon="10.198126974053734"><ele>855.5</ele><time>2026-04-06T08:57:36.998Z</time></trkpt><trkpt lat="44.37209294765429" lon="10.198257503516572"><ele>856.0</ele><time>2026-04-06T08:57:37.998Z</time></trkpt><trkpt lat="44.37205253039418" lon="10.198400904175942"><ele>856.5</ele><time>2026-04-06T08:57:38.998Z</time></trkpt><trkpt lat="44.371979455959824" lon="10.19854324533812"><ele>857.0</ele><time>2026-04-06T08:57:40Z</time></trkpt><trkpt lat="44.37188896562136" lon="10.19866682795699"><ele>857.0</ele><time>2026-04-06T08:57:41Z</time></trkpt><trkpt lat="44.371772406705986" lon="10.198797017957576"><ele>857.0</ele><time>2026-04-06T08:57:42Z</time></trkpt><trkpt lat="44.37164892504913" lon="10.198947135914661"><ele>857.0</ele><time>2026-04-06T08:57:43Z</time></trkpt><trkpt lat="44.37154633903683" lon="10.199077588602373"><ele>861.75</ele><time>2026-04-06T08:57:44Z</time></trkpt><trkpt lat="44.371450872947726" lon="10.19916592245102"><ele>866.5</ele><time>2026-04-06T08:57:45Z</time></trkpt><trkpt lat="44.371350787636935" lon="10.199216669033257"><ele>871.25</ele><time>2026-04-06T08:57:46Z</time></trkpt><trkpt lat="44.37122702496525" lon="10.199232225870226"><ele>876.0</ele><time>2026-04-06T08:57:47Z</time></trkpt><trkpt lat="44.3710941014387" lon="10.199231200652328"><ele>876.0</ele><time>2026-04-06T08:57:48Z</time></trkpt><trkpt lat="44.370975281296246" lon="10.199237793874486"><ele>875.9999999999999</ele><time>2026-04-06T08:57:49Z</time></trkpt><trkpt lat="44.37087857669914" lon="10.199238272964546"><ele>875.9999999999999</ele><time>2026-04-06T08:57:50Z</time></trkpt><trkpt lat="44.37079348389496" lon="10.199200149803238"><ele>876.0</ele><time>2026-04-06T08:57:51Z</time></trkpt><trkpt lat="44.37071657159658" lon="10.199114779624347"><ele>876.0</ele><time>2026-04-06T08:57:52Z</time></trkpt><trkpt lat="44.37063732815575" lon="10.199005832718068"><ele>873.25</ele><time>2026-04-06T08:57:53Z</time></trkpt><trkpt lat="44.370574261209974" lon="10.19888179383499"><ele>870.5</ele><time>2026-04-06T08:57:54Z</time></trkpt><trkpt lat="44.37053143597629" lon="10.198724249236253"><ele>867.75</ele><time>2026-04-06T08:57:55Z</time></trkpt><trkpt lat="44.370515862170286" lon="10.198533114146572"><ele>865.0</ele><time>2026-04-06T08:57:56Z</time></trkpt><trkpt lat="44.37052727260714" lon="10.198335705875687"><ele>865.0</ele><time>2026-04-06T08:57:57Z</time></trkpt><trkpt lat="44.370531960210094" lon="10.1981719278013"><ele>865.0</ele><time>2026-04-06T08:57:58Z</time></trkpt><trkpt lat="44.37050807664599" lon="10.198034600315252"><ele>865.0</ele><time>2026-04-06T08:57:59Z</time></trkpt><trkpt lat="44.37047323302386" lon="10.197959568561384"><ele>865.0</ele><time>2026-04-06T08:58:00Z</time></trkpt><trkpt lat="44.37035475074974" lon="10.197792500470914"><ele>869.25</ele><time>2026-04-06T08:58:02Z</time></trkpt><trkpt lat="44.37025059937477" lon="10.197695549174538"><ele>873.5</ele><time>2026-04-06T08:58:03Z</time></trkpt><trkpt lat="44.37012632750894" lon="10.197594785957378"><ele>877.75</ele><time>2026-04-06T08:58:04Z</time></trkpt><trkpt lat="44.369988185029975" lon="10.19748232410286"><ele>882.0</ele><time>2026-04-06T08:58:05Z</time></trkpt><trkpt lat="44.369848214668" lon="10.197354797462925"><ele>881.25</ele><time>2026-04-06T08:58:05.999Z</time></trkpt><trkpt lat="44.36972263469637" lon="10.197236510330665"><ele>880.5</ele><time>2026-04-06T08:58:06.999Z</time></trkpt><trkpt lat="44.36961275862459" lon="10.197132813269096"><ele>879.75</ele><time>2026-04-06T08:58:07.999Z</time></trkpt><trkpt lat="44.36952356721038" lon="10.197037242181274"><ele>879.0</ele><time>2026-04-06T08:58:08.999Z</time></trkpt><trkpt lat="44.36945379373746" lon="10.19695834295567"><ele>879.8571428571429</ele><time>2026-04-06T08:58:09.999Z</time></trkpt><trkpt lat="44.369388182217186" lon="10.196914905404416"><ele>880.7142857142858</ele><time>2026-04-06T08:58:10.999Z</time></trkpt><trkpt lat="44.369322538856515" lon="10.19692089104938"><ele>881.5714285714286</ele><time>2026-04-06T08:58:11.999Z</time></trkpt><trkpt lat="44.369260763361005" lon="10.196963860979176"><ele>882.4285714285714</ele><time>2026-04-06T08:58:12.999Z</time></trkpt><trkpt lat="44.36921378289386" lon="10.197042122507511"><ele>883.2857142857142</ele><time>2026-04-06T08:58:13.999Z</time></trkpt><trkpt lat="44.369204257784986" lon="10.197139160674997"><ele>884.1428571428571</ele><time>2026-04-06T08:58:14.999Z</time></trkpt><trkpt lat="44.36921427631788" lon="10.19725213074145"><ele>885.0</ele><time>2026-04-06T08:58:15.999Z</time></trkpt><trkpt lat="44.36922974947282" lon="10.19740613679186"><ele>886.2</ele><time>2026-04-06T08:58:16.999Z</time></trkpt><trkpt lat="44.36924370583828" lon="10.197581993134072"><ele>887.4</ele><time>2026-04-06T08:58:17.999Z</time></trkpt><trkpt lat="44.36925799396806" lon="10.197737311638578"><ele>888.5999999999999</ele><time>2026-04-06T08:58:18.999Z</time></trkpt><trkpt lat="44.36930219152667" lon="10.197858180648279"><ele>889.8</ele><time>2026-04-06T08:58:19.999Z</time></trkpt><trkpt lat="44.369377591079086" lon="10.197962810520307"><ele>891.0</ele><time>2026-04-06T08:58:20.999Z</time></trkpt><trkpt lat="44.369466407172936" lon="10.198048945765832"><ele>891.0</ele><time>2026-04-06T08:58:21.999Z</time></trkpt><trkpt lat="44.36956608821803" lon="10.19813713474485"><ele>891.0</ele><time>2026-04-06T08:58:22.999Z</time></trkpt><trkpt lat="44.369666141578975" lon="10.19823303610864"><ele>891.0</ele><time>2026-04-06T08:58:23.999Z</time></trkpt><trkpt lat="44.36976560652214" lon="10.198302928584916"><ele>891.0</ele><time>2026-04-06T08:58:24.999Z</time></trkpt><trkpt lat="44.36987277920169" lon="10.198344504580938"><ele>890.5999999999999</ele><time>2026-04-06T08:58:25.999Z</time></trkpt><trkpt lat="44.36995964930795" lon="10.198376552367545"><ele>890.1999999999999</ele><time>2026-04-06T08:58:26.999Z</time></trkpt><trkpt lat="44.370024538270094" lon="10.198499904596721"><ele>889.8000000000001</ele><time>2026-04-06T08:58:28.999Z</time></trkpt><trkpt lat="44.369988098357275" lon="10.198655294627676"><ele>889.4000000000001</ele><time>2026-04-06T08:58:30.999Z</time></trkpt><trkpt lat="44.36993032478881" lon="10.198694372783446"><ele>889.0</ele><time>2026-04-06T08:58:31.999Z</time></trkpt><trkpt lat="44.369856912177376" lon="10.198690165631463"><ele>889.0</ele><time>2026-04-06T08:58:32.999Z</time></trkpt><trkpt lat="44.369769659867906" lon="10.198630981024278"><ele>889.0</ele><time>2026-04-06T08:58:33.999Z</time></trkpt><trkpt lat="44.36965553776274" lon="10.19853830853563"><ele>889.0</ele><time>2026-04-06T08:58:34.999Z</time></trkpt><trkpt lat="44.36950877935415" lon="10.198420371267419"><ele>889.0</ele><time>2026-04-06T08:58:35.999Z</time></trkpt><trkpt lat="44.369370141442424" lon="10.198308876646632"><ele>889.6666666666666</ele><time>2026-04-06T08:58:36.999Z</time></trkpt><trkpt lat="44.369205877775016" lon="10.198176258843034"><ele>890.3333333333333</ele><time>2026-04-06T08:58:37.999Z</time></trkpt><trkpt lat="44.369039770094716" lon="10.19805996609809"><ele>891.0</ele><time>2026-04-06T08:58:38.999Z</time></trkpt><trkpt lat="44.36887934152763" lon="10.197958178909763"><ele>897.0</ele><time>2026-04-06T08:58:39.999Z</time></trkpt><trkpt lat="44.36873871837912" lon="10.197862412571418"><ele>903.0</ele><time>2026-04-06T08:58:40.999Z</time></trkpt><trkpt lat="44.368607350829855" lon="10.197770277645391"><ele>909.0</ele><time>2026-04-06T08:58:41.999Z</time></trkpt><trkpt lat="44.36847365862516" lon="10.197684907961015"><ele>909.0</ele><time>2026-04-06T08:58:42.999Z</time></trkpt><trkpt lat="44.36835006773984" lon="10.197607177171795"><ele>909.0000000000001</ele><time>2026-04-06T08:58:43.999Z</time></trkpt><trkpt lat="44.368253379351025" lon="10.197533467139586"><ele>909.0000000000001</ele><time>2026-04-06T08:58:44.999Z</time></trkpt><trkpt lat="44.368179483081555" lon="10.197453463294025"><ele>909.0</ele><time>2026-04-06T08:58:45.999Z</time></trkpt><trkpt lat="44.368139377143486" lon="10.197361037984203"><ele>909.0</ele><time>2026-04-06T08:58:46.999Z</time></trkpt><trkpt lat="44.36815207412858" lon="10.197235312428289"><ele>908.3333333333334</ele><time>2026-04-06T08:58:47.999Z</time></trkpt><trkpt lat="44.36813924509344" lon="10.197113583862219"><ele>907.6666666666667</ele><time>2026-04-06T08:58:48.999Z</time></trkpt><trkpt lat="44.36811162254861" lon="10.196995549382983"><ele>907.0</ele><time>2026-04-06T08:58:49.999Z</time></trkpt><trkpt lat="44.36809009291049" lon="10.196902034913515"><ele>906.3333333333334</ele><time>2026-04-06T08:58:50.999Z</time></trkpt><trkpt lat="44.368069870087204" lon="10.196804640271893"><ele>905.6666666666667</ele><time>2026-04-06T08:58:51.999Z</time></trkpt><trkpt lat="44.36801661265555" lon="10.196743683965343"><ele>905.0</ele><time>2026-04-06T08:58:52.999Z</time></trkpt><trkpt lat="44.36793376271814" lon="10.196719203876212"><ele>907.4</ele><time>2026-04-06T08:58:53.999Z</time></trkpt><trkpt lat="44.36786018882913" lon="10.196686723215308"><ele>909.8</ele><time>2026-04-06T08:58:54.999Z</time></trkpt><trkpt lat="44.36777076013679" lon="10.196648555054328"><ele>912.2</ele><time>2026-04-06T08:58:55.999Z</time></trkpt><trkpt lat="44.36766472944664" lon="10.196602077387949"><ele>914.6</ele><time>2026-04-06T08:58:56.999Z</time></trkpt><trkpt lat="44.3675523496513" lon="10.19657129169481"><ele>917.0</ele><time>2026-04-06T08:58:57.999Z</time></trkpt><trkpt lat="44.3674581152152" lon="10.196568253866127"><ele>917.0000000000001</ele><time>2026-04-06T08:58:58.999Z</time></trkpt><trkpt lat="44.36737275436464" lon="10.196592973877687"><ele>917.0</ele><time>2026-04-06T08:58:59.999Z</time></trkpt><trkpt lat="44.36729835750914" lon="10.19663675116979"><ele>917.0</ele><time>2026-04-06T08:59:00.999Z</time></trkpt><trkpt lat="44.36720590476956" lon="10.196696504394614"><ele>917.0</ele><time>2026-04-06T08:59:01.999Z</time></trkpt><trkpt lat="44.367123406948615" lon="10.196735480748108"><ele>917.0000000000001</ele><time>2026-04-06T08:59:02.999Z</time></trkpt><trkpt lat="44.367056609274705" lon="10.196754752803102"><ele>917.0</ele><time>2026-04-06T08:59:03.999Z</time></trkpt><trkpt lat="44.36697338432518" lon="10.196743743312531"><ele>917.25</ele><time>2026-04-06T08:59:04.999Z</time></trkpt><trkpt lat="44.36689312860288" lon="10.196656374095166"><ele>917.5</ele><time>2026-04-06T08:59:05.999Z</time></trkpt><trkpt lat="44.366788436360714" lon="10.196617973445436"><ele>917.75</ele><time>2026-04-06T08:59:06.999Z</time></trkpt><trkpt lat="44.36667963100579" lon="10.196560499064397"><ele>918.0</ele><time>2026-04-06T08:59:07.999Z</time></trkpt><trkpt lat="44.36654989867909" lon="10.196545632852015"><ele>918.0</ele><time>2026-04-06T08:59:08.999Z</time></trkpt><trkpt lat="44.366424044986275" lon="10.196560629669788"><ele>918.0</ele><time>2026-04-06T08:59:09.999Z</time></trkpt><trkpt lat="44.36630820645789" lon="10.196551609337238"><ele>918.0</ele><time>2026-04-06T08:59:10.999Z</time></trkpt><trkpt lat="44.366191290309" lon="10.19654125858821"><ele>918.0</ele><time>2026-04-06T08:59:11.999Z</time></trkpt><trkpt lat="44.366077033874674" lon="10.196525124650409"><ele>916.8</ele><time>2026-04-06T08:59:12.999Z</time></trkpt><trkpt lat="44.365966167720885" lon="10.196518229488206"><ele>915.5999999999999</ele><time>2026-04-06T08:59:13.999Z</time></trkpt><trkpt lat="44.36585743817801" lon="10.196536472156396"><ele>914.4000000000001</ele><time>2026-04-06T08:59:14.999Z</time></trkpt><trkpt lat="44.365747017902436" lon="10.19656809885766"><ele>913.2</ele><time>2026-04-06T08:59:15.999Z</time></trkpt><trkpt lat="44.3656383810681" lon="10.19661763803206"><ele>912.0</ele><time>2026-04-06T08:59:16.999Z</time></trkpt><trkpt lat="44.365531804330935" lon="10.196671192142652"><ele>910.2</ele><time>2026-04-06T08:59:17.999Z</time></trkpt><trkpt lat="44.36542462220977" lon="10.196729525210328"><ele>908.4000000000001</ele><time>2026-04-06T08:59:18.999Z</time></trkpt><trkpt lat="44.365319702934706" lon="10.196792869780412"><ele>906.5999999999999</ele><time>2026-04-06T08:59:19.999Z</time></trkpt><trkpt lat="44.36522662221602" lon="10.196857203711344"><ele>904.8</ele><time>2026-04-06T08:59:20.999Z</time></trkpt><trkpt lat="44.36513861971988" lon="10.196907080291924"><ele>903.0</ele><time>2026-04-06T08:59:21.999Z</time></trkpt><trkpt lat="44.36506407112761" lon="10.196940676764159"><ele>903.0</ele><time>2026-04-06T08:59:22.999Z</time></trkpt><trkpt lat="44.36498552011625" lon="10.196962343694281"><ele>903.0</ele><time>2026-04-06T08:59:23.999Z</time></trkpt><trkpt lat="44.36492237336286" lon="10.196955392251859"><ele>903.0</ele><time>2026-04-06T08:59:24.999Z</time></trkpt><trkpt lat="44.36488452825321" lon="10.196833340210816"><ele>903.0</ele><time>2026-04-06T08:59:26.999Z</time></trkpt><trkpt lat="44.36483468263802" lon="10.196745440199399"><ele>903.0</ele><time>2026-04-06T08:59:27.999Z</time></trkpt><trkpt lat="44.36477132070097" lon="10.196630855164866"><ele>903.0</ele><time>2026-04-06T08:59:28.999Z</time></trkpt><trkpt lat="44.364701929815176" lon="10.196504474153741"><ele>903.4</ele><time>2026-04-06T08:59:29.999Z</time></trkpt><trkpt lat="44.36463678801438" lon="10.196391300881757"><ele>903.8</ele><time>2026-04-06T08:59:30.999Z</time></trkpt><trkpt lat="44.36457891230297" lon="10.196315173638007"><ele>904.2</ele><time>2026-04-06T08:59:31.999Z</time></trkpt><trkpt lat="44.364585063563666" lon="10.196167536620885"><ele>904.6</ele><time>2026-04-06T08:59:33.999Z</time></trkpt><trkpt lat="44.364655499543204" lon="10.196068691151073"><ele>905.0</ele><time>2026-04-06T08:59:35.999Z</time></trkpt><trkpt lat="44.36475342173943" lon="10.195950932747545"><ele>905.0</ele><time>2026-04-06T08:59:37.999Z</time></trkpt><trkpt lat="44.36482644238064" lon="10.195863119131408"><ele>905.0</ele><time>2026-04-06T08:59:38.999Z</time></trkpt><trkpt lat="44.364905055729864" lon="10.195766783492894"><ele>905.0</ele><time>2026-04-06T08:59:39.999Z</time></trkpt><trkpt lat="44.364971167272095" lon="10.195675446091986"><ele>905.0</ele><time>2026-04-06T08:59:40.998Z</time></trkpt><trkpt lat="44.365030893336574" lon="10.195559692820616"><ele>905.0</ele><time>2026-04-06T08:59:41.998Z</time></trkpt><trkpt lat="44.36506155703485" lon="10.195414098257604"><ele>908.75</ele><time>2026-04-06T08:59:42.998Z</time></trkpt><trkpt lat="44.36509504229768" lon="10.195248282975195"><ele>912.5</ele><time>2026-04-06T08:59:43.998Z</time></trkpt><trkpt lat="44.36511499691496" lon="10.195047012955039"><ele>916.25</ele><time>2026-04-06T08:59:44.998Z</time></trkpt><trkpt lat="44.36515518863278" lon="10.194864142743599"><ele>920.0</ele><time>2026-04-06T08:59:45.999Z</time></trkpt><trkpt lat="44.36518909535578" lon="10.194673581354982"><ele>924.5</ele><time>2026-04-06T08:59:46.999Z</time></trkpt><trkpt lat="44.36524811182603" lon="10.19448799251548"><ele>929.0</ele><time>2026-04-06T08:59:47.999Z</time></trkpt><trkpt lat="44.365333437181356" lon="10.194302257267005"><ele>933.5</ele><time>2026-04-06T08:59:48.999Z</time></trkpt><trkpt lat="44.36542113877356" lon="10.19414015214269"><ele>938.0</ele><time>2026-04-06T08:59:49.999Z</time></trkpt><trkpt lat="44.36550881440436" lon="10.193997274989329"><ele>926.5</ele><time>2026-04-06T08:59:50.999Z</time></trkpt><trkpt lat="44.36557006317367" lon="10.193870886740322"><ele>915.0</ele><time>2026-04-06T08:59:51.999Z</time></trkpt><trkpt lat="44.3656055475791" lon="10.19372296016645"><ele>903.5</ele><time>2026-04-06T08:59:52.999Z</time></trkpt><trkpt lat="44.36557679933218" lon="10.193550607481896"><ele>892.0</ele><time>2026-04-06T08:59:53.999Z</time></trkpt><trkpt lat="44.36554960492563" lon="10.193381691699424"><ele>902.5</ele><time>2026-04-06T08:59:54.999Z</time></trkpt><trkpt lat="44.36550418657981" lon="10.193211657781411"><ele>913.0</ele><time>2026-04-06T08:59:55.999Z</time></trkpt><trkpt lat="44.36544475859938" lon="10.193035682584082"><ele>923.5</ele><time>2026-04-06T08:59:56.999Z</time></trkpt><trkpt lat="44.36538239879956" lon="10.192844816314361"><ele>934.0</ele><time>2026-04-06T08:59:57.999Z</time></trkpt><trkpt lat="44.36531504968556" lon="10.192645126828955"><ele>934.0</ele><time>2026-04-06T08:59:58.999Z</time></trkpt><trkpt lat="44.36524145352346" lon="10.19239060165456"><ele>934.0</ele><time>2026-04-06T08:59:59.999Z</time></trkpt><trkpt lat="44.36517543264583" lon="10.19219378880131"><ele>934.0</ele><time>2026-04-06T09:00:00.999Z</time></trkpt><trkpt lat="44.36508347840597" lon="10.192007953310219"><ele>928.0</ele><time>2026-04-06T09:00:01.999Z</time></trkpt><trkpt lat="44.36497732156755" lon="10.191791147856875"><ele>922.0</ele><time>2026-04-06T09:00:02.999Z</time></trkpt><trkpt lat="44.36489363872409" lon="10.1915457803739"><ele>916.0</ele><time>2026-04-06T09:00:03.999Z</time></trkpt><trkpt lat="44.36480778058914" lon="10.191309146990893"><ele>914.3333333333333</ele><time>2026-04-06T09:00:04.999Z</time></trkpt><trkpt lat="44.36472538178013" lon="10.191077212431493"><ele>912.6666666666667</ele><time>2026-04-06T09:00:05.999Z</time></trkpt><trkpt lat="44.364630332037336" lon="10.19085515245511"><ele>911.0</ele><time>2026-04-06T09:00:06.999Z</time></trkpt><trkpt lat="44.364553254526264" lon="10.190633089833971"><ele>918.5</ele><time>2026-04-06T09:00:07.999Z</time></trkpt><trkpt lat="44.364490977747174" lon="10.190430348020202"><ele>926.0</ele><time>2026-04-06T09:00:08.999Z</time></trkpt><trkpt lat="44.364445883238936" lon="10.190246654540406"><ele>933.5</ele><time>2026-04-06T09:00:09.999Z</time></trkpt><trkpt lat="44.36440752757877" lon="10.190086237698887"><ele>941.0</ele><time>2026-04-06T09:00:10.999Z</time></trkpt><trkpt lat="44.36437945860513" lon="10.189940659592413"><ele>941.0000000000001</ele><time>2026-04-06T09:00:11.999Z</time></trkpt><trkpt lat="44.36435909214165" lon="10.189830239812645"><ele>941.0</ele><time>2026-04-06T09:00:12.999Z</time></trkpt><trkpt lat="44.36433173391036" lon="10.189740848757003"><ele>941.0</ele><time>2026-04-06T09:00:13.999Z</time></trkpt><trkpt lat="44.36428499625092" lon="10.189635602671592"><ele>941.0</ele><time>2026-04-06T09:00:15.999Z</time></trkpt><trkpt lat="44.36419958578797" lon="10.189620011801162"><ele>941.0000000000001</ele><time>2026-04-06T09:00:23.999Z</time></trkpt><trkpt lat="44.36415365630651" lon="10.189692774058914"><ele>941.0</ele><time>2026-04-06T09:00:24.999Z</time></trkpt><trkpt lat="44.36413449168335" lon="10.189858069886016"><ele>941.0</ele><time>2026-04-06T09:00:26.999Z</time></trkpt><trkpt lat="44.364151120369435" lon="10.189961770410639"><ele>940.9999999999999</ele><time>2026-04-06T09:00:27.999Z</time></trkpt><trkpt lat="44.36418710238896" lon="10.190095103071423"><ele>940.9999999999999</ele><time>2026-04-06T09:00:28.999Z</time></trkpt><trkpt lat="44.364223664168264" lon="10.190225373852359"><ele>941.0</ele><time>2026-04-06T09:00:29.999Z</time></trkpt><trkpt lat="44.36426653813995" lon="10.190385424093428"><ele>941.0</ele><time>2026-04-06T09:00:30.999Z</time></trkpt><trkpt lat="44.36432243766309" lon="10.190594136114571"><ele>946.0</ele><time>2026-04-06T09:00:31.999Z</time></trkpt><trkpt lat="44.364375716981606" lon="10.190796957882721"><ele>951.0</ele><time>2026-04-06T09:00:32.999Z</time></trkpt><trkpt lat="44.36442597776479" lon="10.191000019035316"><ele>956.0</ele><time>2026-04-06T09:00:33.999Z</time></trkpt><trkpt lat="44.364466898517556" lon="10.191231887018473"><ele>956.0</ele><time>2026-04-06T09:00:34.999Z</time></trkpt><trkpt lat="44.3644977651972" lon="10.191502656870089"><ele>956.0</ele><time>2026-04-06T09:00:35.999Z</time></trkpt><trkpt lat="44.364538534176305" lon="10.191760199969005"><ele>956.0</ele><time>2026-04-06T09:00:36.999Z</time></trkpt><trkpt lat="44.364581418402345" lon="10.191985994915852"><ele>960.0</ele><time>2026-04-06T09:00:37.999Z</time></trkpt><trkpt lat="44.36463673196707" lon="10.192181581751782"><ele>964.0</ele><time>2026-04-06T09:00:38.999Z</time></trkpt><trkpt lat="44.36469969383146" lon="10.192359364387"><ele>968.0</ele><time>2026-04-06T09:00:39.999Z</time></trkpt><trkpt lat="44.36475504705517" lon="10.192517878028884"><ele>972.0</ele><time>2026-04-06T09:00:40.999Z</time></trkpt><trkpt lat="44.364806770507336" lon="10.192665496643496"><ele>965.5</ele><time>2026-04-06T09:00:41.999Z</time></trkpt><trkpt lat="44.364845965974794" lon="10.192821205335614"><ele>959.0</ele><time>2026-04-06T09:00:42.999Z</time></trkpt><trkpt lat="44.364875464978965" lon="10.192997913122928"><ele>952.5</ele><time>2026-04-06T09:00:43.999Z</time></trkpt><trkpt lat="44.36489476552834" lon="10.193185315995187"><ele>946.0</ele><time>2026-04-06T09:00:44.999Z</time></trkpt><trkpt lat="44.3649133545123" lon="10.193373063928442"><ele>945.9999999999999</ele><time>2026-04-06T09:00:45.999Z</time></trkpt><trkpt lat="44.36493099798316" lon="10.193516063730781"><ele>946.0</ele><time>2026-04-06T09:00:46.999Z</time></trkpt><trkpt lat="44.36493041995669" lon="10.19361818587741"><ele>946.0</ele><time>2026-04-06T09:00:47.999Z</time></trkpt><trkpt lat="44.364902805138925" lon="10.193703897336617"><ele>946.0</ele><time>2026-04-06T09:00:48.999Z</time></trkpt><trkpt lat="44.36484600998413" lon="10.193787768608528"><ele>945.9999999999999</ele><time>2026-04-06T09:00:49.999Z</time></trkpt><trkpt lat="44.36475899703693" lon="10.193881882726535"><ele>946.0</ele><time>2026-04-06T09:00:50.999Z</time></trkpt><trkpt lat="44.36467723097242" lon="10.194020919014726"><ele>952.4</ele><time>2026-04-06T09:00:51.999Z</time></trkpt><trkpt lat="44.364609355565015" lon="10.194167910787698"><ele>958.8</ele><time>2026-04-06T09:00:52.999Z</time></trkpt><trkpt lat="44.364551540010574" lon="10.194304012475149"><ele>965.1999999999999</ele><time>2026-04-06T09:00:53.999Z</time></trkpt><trkpt lat="44.364503378724" lon="10.19442708936511"><ele>971.5999999999999</ele><time>2026-04-06T09:00:54.999Z</time></trkpt><trkpt lat="44.36445916310097" lon="10.194552247788149"><ele>978.0</ele><time>2026-04-06T09:00:55.999Z</time></trkpt><trkpt lat="44.36442845730455" lon="10.19468362045826"><ele>974.8</ele><time>2026-04-06T09:00:56.999Z</time></trkpt><trkpt lat="44.36440782729249" lon="10.194847916992702"><ele>971.5999999999999</ele><time>2026-04-06T09:00:57.999Z</time></trkpt><trkpt lat="44.36438403527965" lon="10.194979312249087"><ele>968.4000000000001</ele><time>2026-04-06T09:00:58.999Z</time></trkpt><trkpt lat="44.364351278899676" lon="10.195073573872905"><ele>965.2</ele><time>2026-04-06T09:00:59.999Z</time></trkpt><trkpt lat="44.36429471651284" lon="10.19514239015531"><ele>962.0</ele><time>2026-04-06T09:01:00.999Z</time></trkpt><trkpt lat="44.364211792916954" lon="10.195177688767307"><ele>962.0</ele><time>2026-04-06T09:01:01.999Z</time></trkpt><trkpt lat="44.36411163481748" lon="10.195140045899448"><ele>962.0</ele><time>2026-04-06T09:01:02.999Z</time></trkpt><trkpt lat="44.363991404256566" lon="10.195118660512037"><ele>962.0</ele><time>2026-04-06T09:01:03.999Z</time></trkpt><trkpt lat="44.36388078252308" lon="10.195077761976723"><ele>962.0</ele><time>2026-04-06T09:01:04.999Z</time></trkpt><trkpt lat="44.36380164721439" lon="10.195034224323875"><ele>962.0</ele><time>2026-04-06T09:01:05.999Z</time></trkpt><trkpt lat="44.36371944060343" lon="10.194999485307127"><ele>963.75</ele><time>2026-04-06T09:01:07.999Z</time></trkpt><trkpt lat="44.36363842214717" lon="10.194938385193371"><ele>965.5</ele><time>2026-04-06T09:02:12.999Z</time></trkpt><trkpt lat="44.363486484633675" lon="10.194869942758803"><ele>967.25</ele><time>2026-04-06T09:02:14.999Z</time></trkpt><trkpt lat="44.36338800141792" lon="10.194858880476708"><ele>969.0</ele><time>2026-04-06T09:02:15.999Z</time></trkpt><trkpt lat="44.3632712276676" lon="10.194863045217259"><ele>969.0</ele><time>2026-04-06T09:02:16.999Z</time></trkpt><trkpt lat="44.36312733358599" lon="10.194878197318916"><ele>969.0</ele><time>2026-04-06T09:02:17.999Z</time></trkpt><trkpt lat="44.36296696051768" lon="10.194902322812853"><ele>969.0</ele><time>2026-04-06T09:02:18.999Z</time></trkpt><trkpt lat="44.3627924801681" lon="10.194929666348024"><ele>971.0</ele><time>2026-04-06T09:02:19.999Z</time></trkpt><trkpt lat="44.36263659924088" lon="10.19495563038145"><ele>973.0</ele><time>2026-04-06T09:02:20.999Z</time></trkpt><trkpt lat="44.362490826167395" lon="10.194980661666634"><ele>975.0</ele><time>2026-04-06T09:02:21.999Z</time></trkpt><trkpt lat="44.36237121336425" lon="10.19500032732646"><ele>977.0</ele><time>2026-04-06T09:02:22.999Z</time></trkpt><trkpt lat="44.362265676364515" lon="10.195016506984677"><ele>978.3333333333334</ele><time>2026-04-06T09:02:23.999Z</time></trkpt><trkpt lat="44.36216902482483" lon="10.19502745689084"><ele>979.6666666666667</ele><time>2026-04-06T09:02:24.999Z</time></trkpt><trkpt lat="44.36207616339582" lon="10.195030395887613"><ele>981.0</ele><time>2026-04-06T09:02:25.999Z</time></trkpt><trkpt lat="44.36200372605368" lon="10.195024369800517"><ele>982.3333333333333</ele><time>2026-04-06T09:02:26.999Z</time></trkpt><trkpt lat="44.361924835848036" lon="10.195009132900061"><ele>983.6666666666666</ele><time>2026-04-06T09:02:27.999Z</time></trkpt><trkpt lat="44.36184544687631" lon="10.194992483786342"><ele>985.0</ele><time>2026-04-06T09:02:28.999Z</time></trkpt><trkpt lat="44.361781187506764" lon="10.194977681138456"><ele>984.9999999999999</ele><time>2026-04-06T09:02:29.999Z</time></trkpt><trkpt lat="44.36172553978762" lon="10.194935544933674"><ele>985.0</ele><time>2026-04-06T09:02:31.999Z</time></trkpt><trkpt lat="44.36173889672222" lon="10.194804869726363"><ele>985.0</ele><time>2026-04-06T09:02:32.999Z</time></trkpt><trkpt lat="44.36176092213006" lon="10.194703917153431"><ele>985.0</ele><time>2026-04-06T09:02:33.999Z</time></trkpt><trkpt lat="44.361794884533175" lon="10.194598593892561"><ele>984.9999999999999</ele><time>2026-04-06T09:02:34.999Z</time></trkpt><trkpt lat="44.36185566023032" lon="10.194498476662211"><ele>985.0</ele><time>2026-04-06T09:02:35.999Z</time></trkpt><trkpt lat="44.361939899653336" lon="10.1944089800028"><ele>984.8</ele><time>2026-04-06T09:02:36.999Z</time></trkpt><trkpt lat="44.36202130475739" lon="10.194321858858794"><ele>984.6</ele><time>2026-04-06T09:02:37.999Z</time></trkpt><trkpt lat="44.362083244406755" lon="10.194286074485879"><ele>984.4000000000001</ele><time>2026-04-06T09:02:38.999Z</time></trkpt><trkpt lat="44.362174498192985" lon="10.194208616984822"><ele>984.2</ele><time>2026-04-06T09:02:39.999Z</time></trkpt><trkpt lat="44.3622630454271" lon="10.19412936760097"><ele>984.0</ele><time>2026-04-06T09:02:40.999Z</time></trkpt><trkpt lat="44.36235577809114" lon="10.194038372816832"><ele>986.4000000000001</ele><time>2026-04-06T09:02:41.999Z</time></trkpt><trkpt lat="44.362451957031816" lon="10.193938290009768"><ele>988.8000000000001</ele><time>2026-04-06T09:02:42.999Z</time></trkpt><trkpt lat="44.36253838691635" lon="10.19385489974788"><ele>991.1999999999999</ele><time>2026-04-06T09:02:43.999Z</time></trkpt><trkpt lat="44.36262505507643" lon="10.193762593954322"><ele>993.5999999999999</ele><time>2026-04-06T09:02:44.999Z</time></trkpt><trkpt lat="44.36271493650373" lon="10.193704945488879"><ele>996.0</ele><time>2026-04-06T09:02:45.999Z</time></trkpt><trkpt lat="44.36279770580943" lon="10.193659089300862"><ele>996.0</ele><time>2026-04-06T09:02:46.999Z</time></trkpt><trkpt lat="44.362873888845755" lon="10.193630473688238"><ele>996.0</ele><time>2026-04-06T09:02:47.999Z</time></trkpt><trkpt lat="44.36293467830593" lon="10.193511281267773"><ele>996.0</ele><time>2026-04-06T09:02:49.999Z</time></trkpt></trkseg><trkseg><trkpt lat="44.36287702250309" lon="10.193452427442711"><ele>996.0</ele><time>2026-04-06T10:48:26.999Z</time></trkpt><trkpt lat="44.36293618214493" lon="10.193390468504157"><ele>996.0</ele><time>2026-04-06T10:48:30.999Z</time></trkpt><trkpt lat="44.36286969120448" lon="10.19344793775352"><ele>996.0</ele><time>2026-04-06T10:48:34Z</time></trkpt><trkpt lat="44.36281979206688" lon="10.193531824568852"><ele>996.0</ele><time>2026-04-06T10:48:37Z</time></trkpt><trkpt lat="44.362734658085294" lon="10.193593858668919"><ele>996.0</ele><time>2026-04-06T10:48:39Z</time></trkpt><trkpt lat="44.36267434203686" lon="10.193629246897515"><ele>996.0</ele><time>2026-04-06T10:48:40Z</time></trkpt><trkpt lat="44.362576775039294" lon="10.193721944448736"><ele>996.0</ele><time>2026-04-06T10:48:42Z</time></trkpt><trkpt lat="44.362527892549835" lon="10.193788267903296"><ele>996.0</ele><time>2026-04-06T10:48:43Z</time></trkpt><trkpt lat="44.36245347357533" lon="10.193842159745461"><ele>996.0</ele><time>2026-04-06T10:48:44Z</time></trkpt><trkpt lat="44.36237497360833" lon="10.193900086959035"><ele>996.0</ele><time>2026-04-06T10:48:45Z</time></trkpt><trkpt lat="44.3622976424558" lon="10.193971841011725"><ele>996.0</ele><time>2026-04-06T10:48:46Z</time></trkpt><trkpt lat="44.36222504444399" lon="10.19404506592526"><ele>996.0</ele><time>2026-04-06T10:48:47Z</time></trkpt><trkpt lat="44.36215438897381" lon="10.194110198005578"><ele>995.0</ele><time>2026-04-06T10:48:48Z</time></trkpt><trkpt lat="44.36209532797196" lon="10.194167908122466"><ele>993.9999999999999</ele><time>2026-04-06T10:48:49Z</time></trkpt><trkpt lat="44.36203893812202" lon="10.194221404627733"><ele>992.9999999999999</ele><time>2026-04-06T10:48:50Z</time></trkpt><trkpt lat="44.361987463950456" lon="10.19427637950829"><ele>992.0</ele><time>2026-04-06T10:48:51Z</time></trkpt><trkpt lat="44.361882623402174" lon="10.194363425876423"><ele>991.0</ele><time>2026-04-06T10:48:53Z</time></trkpt><trkpt lat="44.361778838101145" lon="10.194457593284621"><ele>991.0</ele><time>2026-04-06T10:48:55Z</time></trkpt><trkpt lat="44.361727983040616" lon="10.194606215264763"><ele>990.9999999999999</ele><time>2026-04-06T10:48:57Z</time></trkpt><trkpt lat="44.361710000314844" lon="10.1946929830035"><ele>990.9999999999999</ele><time>2026-04-06T10:48:58Z</time></trkpt><trkpt lat="44.36170108384196" lon="10.194845219507915"><ele>991.0</ele><time>2026-04-06T10:49:00Z</time></trkpt><trkpt lat="44.36168843016455" lon="10.194937214302387"><ele>991.0</ele><time>2026-04-06T10:49:02Z</time></trkpt><trkpt lat="44.361783311981554" lon="10.19502286627439"><ele>989.8</ele><time>2026-04-06T10:49:04Z</time></trkpt><trkpt lat="44.36190099511351" lon="10.195042090366691"><ele>988.5999999999999</ele><time>2026-04-06T10:49:05Z</time></trkpt><trkpt lat="44.362012606169934" lon="10.195071958871996"><ele>987.4</ele><time>2026-04-06T10:49:06Z</time></trkpt><trkpt lat="44.36211591730409" lon="10.195076804082586"><ele>986.2</ele><time>2026-04-06T10:49:07Z</time></trkpt><trkpt lat="44.36220721469043" lon="10.195071427796462"><ele>985.0</ele><time>2026-04-06T10:49:08Z</time></trkpt><trkpt lat="44.36229534998659" lon="10.195058645816175"><ele>983.4</ele><time>2026-04-06T10:49:09Z</time></trkpt><trkpt lat="44.36237644140592" lon="10.195046213864735"><ele>981.8</ele><time>2026-04-06T10:49:10Z</time></trkpt><trkpt lat="44.362468336555494" lon="10.195031282448102"><ele>980.2</ele><time>2026-04-06T10:49:11Z</time></trkpt><trkpt lat="44.36257929454608" lon="10.19501222941075"><ele>978.6</ele><time>2026-04-06T10:49:12Z</time></trkpt><trkpt lat="44.36271002200332" lon="10.19498978167649"><ele>977.0</ele><time>2026-04-06T10:49:13Z</time></trkpt><trkpt lat="44.36282620502478" lon="10.194971081785683"><ele>977.0</ele><time>2026-04-06T10:49:14Z</time></trkpt><trkpt lat="44.36294363676036" lon="10.194952678586947"><ele>977.0</ele><time>2026-04-06T10:49:15Z</time></trkpt><trkpt lat="44.36306899784736" lon="10.194933032733946"><ele>977.0</ele><time>2026-04-06T10:49:16Z</time></trkpt><trkpt lat="44.36319752765051" lon="10.194916830695302"><ele>977.0</ele><time>2026-04-06T10:49:17Z</time></trkpt><trkpt lat="44.36332195489441" lon="10.19490648157106"><ele>975.0</ele><time>2026-04-06T10:49:18Z</time></trkpt><trkpt lat="44.36344188052301" lon="10.194909708776857"><ele>973.0</ele><time>2026-04-06T10:49:19Z</time></trkpt><trkpt lat="44.36355245851148" lon="10.194940872819053"><ele>971.0</ele><time>2026-04-06T10:49:20Z</time></trkpt><trkpt lat="44.36365319080142" lon="10.194995877531909"><ele>969.0</ele><time>2026-04-06T10:49:21Z</time></trkpt><trkpt lat="44.363765860194135" lon="10.195064166055229"><ele>967.25</ele><time>2026-04-06T10:49:22Z</time></trkpt><trkpt lat="44.363877660711175" lon="10.195126929936766"><ele>965.5</ele><time>2026-04-06T10:49:23Z</time></trkpt><trkpt lat="44.363989466517296" lon="10.19514337614174"><ele>963.75</ele><time>2026-04-06T10:49:24Z</time></trkpt><trkpt lat="44.364102693419376" lon="10.195169489514557"><ele>962.0</ele><time>2026-04-06T10:49:25Z</time></trkpt><trkpt lat="44.36420662433863" lon="10.195181905983318"><ele>962.0</ele><time>2026-04-06T10:49:26Z</time></trkpt><trkpt lat="44.36428210975509" lon="10.195166023713133"><ele>962.0</ele><time>2026-04-06T10:49:27Z</time></trkpt><trkpt lat="44.36435837702899" lon="10.19513228948124"><ele>962.0</ele><time>2026-04-06T10:49:28Z</time></trkpt><trkpt lat="44.36442163950986" lon="10.195012159811954"><ele>962.0</ele><time>2026-04-06T10:49:29Z</time></trkpt><trkpt lat="44.364441283390356" lon="10.194851828514624"><ele>962.0</ele><time>2026-04-06T10:49:30Z</time></trkpt><trkpt lat="44.36447489963321" lon="10.194677005616555"><ele>966.0</ele><time>2026-04-06T10:49:31Z</time></trkpt><trkpt lat="44.36451909099401" lon="10.194494607178425"><ele>970.0</ele><time>2026-04-06T10:49:32Z</time></trkpt><trkpt lat="44.36457921797521" lon="10.19433474649631"><ele>974.0</ele><time>2026-04-06T10:49:33Z</time></trkpt><trkpt lat="44.36464474790041" lon="10.194181330053832"><ele>978.0</ele><time>2026-04-06T10:49:34Z</time></trkpt><trkpt lat="44.364710793823285" lon="10.194033886470434"><ele>971.5999999999999</ele><time>2026-04-06T10:49:35Z</time></trkpt><trkpt lat="44.36477606135918" lon="10.193899638997188"><ele>965.1999999999999</ele><time>2026-04-06T10:49:36Z</time></trkpt><trkpt lat="44.364858401512876" lon="10.193797162809904"><ele>958.8</ele><time>2026-04-06T10:49:37Z</time></trkpt><trkpt lat="44.3649330871216" lon="10.193688547510684"><ele>952.4</ele><time>2026-04-06T10:49:38Z</time></trkpt><trkpt lat="44.36497798354772" lon="10.193595152410655"><ele>946.0</ele><time>2026-04-06T10:49:39Z</time></trkpt><trkpt lat="44.36498339381503" lon="10.193489349174365"><ele>945.9999999999999</ele><time>2026-04-06T10:49:40Z</time></trkpt><trkpt lat="44.36495845203683" lon="10.193373889503892"><ele>946.0</ele><time>2026-04-06T10:49:41Z</time></trkpt><trkpt lat="44.36494520175841" lon="10.193267570506512"><ele>946.0</ele><time>2026-04-06T10:49:42Z</time></trkpt><trkpt lat="44.36493104651185" lon="10.19316007018745"><ele>946.0</ele><time>2026-04-06T10:49:43Z</time></trkpt><trkpt lat="44.364915045566654" lon="10.193042716407508"><ele>945.9999999999999</ele><time>2026-04-06T10:49:44Z</time></trkpt><trkpt lat="44.36488056209448" lon="10.192897225005154"><ele>946.0</ele><time>2026-04-06T10:49:45Z</time></trkpt><trkpt lat="44.36484992139221" lon="10.192728609581584"><ele>943.0</ele><time>2026-04-06T10:49:46Z</time></trkpt><trkpt lat="44.36479546959537" lon="10.192547264105217"><ele>940.0</ele><time>2026-04-06T10:49:47Z</time></trkpt><trkpt lat="44.364735385241126" lon="10.19234814477289"><ele>937.0</ele><time>2026-04-06T10:49:48Z</time></trkpt><trkpt lat="44.36466609729374" lon="10.192163383897434"><ele>934.0</ele><time>2026-04-06T10:49:49Z</time></trkpt><trkpt lat="44.3646020917266" lon="10.191971875442702"><ele>941.3333333333333</ele><time>2026-04-06T10:49:50Z</time></trkpt><trkpt lat="44.36457335496326" lon="10.191757197700047"><ele>948.6666666666667</ele><time>2026-04-06T10:49:51Z</time></trkpt><trkpt lat="44.364545266463665" lon="10.191553679575415"><ele>956.0</ele><time>2026-04-06T10:49:51.997Z</time></trkpt><trkpt lat="44.364519678638906" lon="10.191338381408247"><ele>956.0</ele><time>2026-04-06T10:49:52.997Z</time></trkpt><trkpt lat="44.36449243110701" lon="10.191131514309415"><ele>956.0</ele><time>2026-04-06T10:49:53.997Z</time></trkpt><trkpt lat="44.364461431436354" lon="10.190938271483759"><ele>956.0</ele><time>2026-04-06T10:49:54.997Z</time></trkpt><trkpt lat="44.36440546182154" lon="10.190757769098957"><ele>956.0</ele><time>2026-04-06T10:49:55.997Z</time></trkpt><trkpt lat="44.36435738779176" lon="10.190579200462548"><ele>952.25</ele><time>2026-04-06T10:49:56.997Z</time></trkpt><trkpt lat="44.36431979085911" lon="10.190400368081956"><ele>948.5</ele><time>2026-04-06T10:49:57.997Z</time></trkpt><trkpt lat="44.364266354951305" lon="10.190248409746069"><ele>944.75</ele><time>2026-04-06T10:49:58.997Z</time></trkpt><trkpt lat="44.3642474794094" lon="10.190101177714023"><ele>941.0</ele><time>2026-04-06T10:49:59.997Z</time></trkpt><trkpt lat="44.36421885630373" lon="10.189976172225919"><ele>941.0</ele><time>2026-04-06T10:50:00.997Z</time></trkpt><trkpt lat="44.36419730226664" lon="10.189876365712056"><ele>940.9999999999999</ele><time>2026-04-06T10:50:01.997Z</time></trkpt><trkpt lat="44.364182441134474" lon="10.189716150780274"><ele>940.9999999999999</ele><time>2026-04-06T10:50:03.997Z</time></trkpt><trkpt lat="44.36425459158434" lon="10.18966591466411"><ele>941.0</ele><time>2026-04-06T10:50:05.997Z</time></trkpt><trkpt lat="44.36433457507565" lon="10.189780892148617"><ele>941.0</ele><time>2026-04-06T10:50:07.998Z</time></trkpt><trkpt lat="44.36436558084737" lon="10.189937173447726"><ele>941.0</ele><time>2026-04-06T10:50:08.998Z</time></trkpt><trkpt lat="44.36438843250159" lon="10.190134900831291"><ele>941.0</ele><time>2026-04-06T10:50:09.998Z</time></trkpt><trkpt lat="44.36442982122464" lon="10.190340752693245"><ele>941.0</ele><time>2026-04-06T10:50:10.998Z</time></trkpt><trkpt lat="44.36449390508724" lon="10.190551899221216"><ele>946.0</ele><time>2026-04-06T10:50:11.998Z</time></trkpt><trkpt lat="44.36458542145417" lon="10.190794536930309"><ele>951.0</ele><time>2026-04-06T10:50:12.998Z</time></trkpt><trkpt lat="44.36468571164058" lon="10.1910542568148"><ele>956.0</ele><time>2026-04-06T10:50:13.998Z</time></trkpt><trkpt lat="44.36478900257833" lon="10.191321341327182"><ele>936.0</ele><time>2026-04-06T10:50:14.998Z</time></trkpt><trkpt lat="44.36488628154569" lon="10.19162698938673"><ele>916.0</ele><time>2026-04-06T10:50:15.998Z</time></trkpt><trkpt lat="44.36501170902724" lon="10.191878188300253"><ele>916.0</ele><time>2026-04-06T10:50:16.998Z</time></trkpt><trkpt lat="44.36511223809635" lon="10.192102735148726"><ele>916.0</ele><time>2026-04-06T10:50:17.998Z</time></trkpt><trkpt lat="44.36517902409371" lon="10.19231145436475"><ele>916.0</ele><time>2026-04-06T10:50:18.998Z</time></trkpt><trkpt lat="44.365244666316634" lon="10.192511603144297"><ele>922.0</ele><time>2026-04-06T10:50:19.998Z</time></trkpt><trkpt lat="44.365323819683596" lon="10.192710039575406"><ele>928.0</ele><time>2026-04-06T10:50:20.999Z</time></trkpt><trkpt lat="44.36538808312385" lon="10.192908153514228"><ele>934.0</ele><time>2026-04-06T10:50:21.999Z</time></trkpt><trkpt lat="44.365448693158555" lon="10.19310511481863"><ele>937.0</ele><time>2026-04-06T10:50:22.999Z</time></trkpt><trkpt lat="44.36549552784723" lon="10.193286285863667"><ele>940.0</ele><time>2026-04-06T10:50:23.999Z</time></trkpt><trkpt lat="44.36553270745031" lon="10.193452759162765"><ele>943.0</ele><time>2026-04-06T10:50:24.999Z</time></trkpt><trkpt lat="44.36555890237543" lon="10.19361160391087"><ele>946.0</ele><time>2026-04-06T10:50:25.999Z</time></trkpt><trkpt lat="44.3655571105492" lon="10.193753687203689"><ele>946.0</ele><time>2026-04-06T10:50:26.999Z</time></trkpt><trkpt lat="44.36552668562044" lon="10.193885889692199"><ele>946.0</ele><time>2026-04-06T10:50:27.999Z</time></trkpt><trkpt lat="44.36545051283324" lon="10.194015381894946"><ele>946.0</ele><time>2026-04-06T10:50:28.999Z</time></trkpt><trkpt lat="44.36534667144343" lon="10.19416219338778"><ele>946.0</ele><time>2026-04-06T10:50:29.999Z</time></trkpt><trkpt lat="44.36524653941694" lon="10.1943351178148"><ele>943.3333333333333</ele><time>2026-04-06T10:50:30.999Z</time></trkpt><trkpt lat="44.36517032706325" lon="10.194540058834779"><ele>940.6666666666667</ele><time>2026-04-06T10:50:31.999Z</time></trkpt><trkpt lat="44.36512201787564" lon="10.19474289053717"><ele>938.0</ele><time>2026-04-06T10:50:32.999Z</time></trkpt><trkpt lat="44.365089252432156" lon="10.194960066630166"><ele>933.5</ele><time>2026-04-06T10:50:33.999Z</time></trkpt><trkpt lat="44.36506695634418" lon="10.195177131119632"><ele>929.0</ele><time>2026-04-06T10:50:34.999Z</time></trkpt><trkpt lat="44.36503220024081" lon="10.195382634710892"><ele>924.5</ele><time>2026-04-06T10:50:35.999Z</time></trkpt><trkpt lat="44.36497828178149" lon="10.195557453149151"><ele>920.0</ele><time>2026-04-06T10:50:36.999Z</time></trkpt><trkpt lat="44.3649034718462" lon="10.195681124589155"><ele>923.25</ele><time>2026-04-06T10:50:37.999Z</time></trkpt><trkpt lat="44.36480362554236" lon="10.195798750724855"><ele>926.5</ele><time>2026-04-06T10:50:38.999Z</time></trkpt><trkpt lat="44.36469721263789" lon="10.195905693422201"><ele>929.75</ele><time>2026-04-06T10:50:39.999Z</time></trkpt><trkpt lat="44.364608799005254" lon="10.196007228088497"><ele>933.0</ele><time>2026-04-06T10:50:40.999Z</time></trkpt><trkpt lat="44.36456796512681" lon="10.196096076894957"><ele>933.0</ele><time>2026-04-06T10:50:41.999Z</time></trkpt><trkpt lat="44.36452288580574" lon="10.196177658903066"><ele>933.0</ele><time>2026-04-06T10:50:42.999Z</time></trkpt><trkpt lat="44.36454800634033" lon="10.196294567465868"><ele>933.0</ele><time>2026-04-06T10:50:44.999Z</time></trkpt><trkpt lat="44.3645889263681" lon="10.19639357105942"><ele>933.0</ele><time>2026-04-06T10:50:45.999Z</time></trkpt><trkpt lat="44.364669826966924" lon="10.196521253333424"><ele>933.0</ele><time>2026-04-06T10:50:46.999Z</time></trkpt><trkpt lat="44.3647706643989" lon="10.196688680801687"><ele>927.0</ele><time>2026-04-06T10:50:47.999Z</time></trkpt><trkpt lat="44.36484154450296" lon="10.19681810119211"><ele>921.0</ele><time>2026-04-06T10:50:48.999Z</time></trkpt><trkpt lat="44.364899078209866" lon="10.196918177445747"><ele>915.0</ele><time>2026-04-06T10:50:49.999Z</time></trkpt><trkpt lat="44.364964512786585" lon="10.196974564324186"><ele>909.0</ele><time>2026-04-06T10:50:50.999Z</time></trkpt><trkpt lat="44.36504669794853" lon="10.197010407364575"><ele>903.0</ele><time>2026-04-06T10:50:51.999Z</time></trkpt><trkpt lat="44.36514287863115" lon="10.196941624009806"><ele>903.0</ele><time>2026-04-06T10:50:52.999Z</time></trkpt><trkpt lat="44.365261579705056" lon="10.196874758027729"><ele>903.0</ele><time>2026-04-06T10:50:53.999Z</time></trkpt><trkpt lat="44.36540300686653" lon="10.196773027906142"><ele>903.0</ele><time>2026-04-06T10:50:54.999Z</time></trkpt><trkpt lat="44.365539446824904" lon="10.196695789183238"><ele>903.0</ele><time>2026-04-06T10:50:56Z</time></trkpt><trkpt lat="44.36566401323263" lon="10.196633975621776"><ele>905.25</ele><time>2026-04-06T10:50:57Z</time></trkpt><trkpt lat="44.36577313969563" lon="10.196587184895579"><ele>907.5</ele><time>2026-04-06T10:50:58Z</time></trkpt><trkpt lat="44.36588886265217" lon="10.196558766732625"><ele>909.75</ele><time>2026-04-06T10:50:59Z</time></trkpt><trkpt lat="44.3660065974782" lon="10.196551884023918"><ele>912.0</ele><time>2026-04-06T10:51:00Z</time></trkpt><trkpt lat="44.3661356896482" lon="10.196560138607358"><ele>912.0</ele><time>2026-04-06T10:51:01Z</time></trkpt><trkpt lat="44.36628641220524" lon="10.196574854417321"><ele>912.0</ele><time>2026-04-06T10:51:02Z</time></trkpt><trkpt lat="44.36643169393351" lon="10.196589491761987"><ele>912.0</ele><time>2026-04-06T10:51:03Z</time></trkpt><trkpt lat="44.36654590208815" lon="10.196591779112111"><ele>912.0</ele><time>2026-04-06T10:51:04Z</time></trkpt><trkpt lat="44.366636012065776" lon="10.196601010921881"><ele>913.0</ele><time>2026-04-06T10:51:05Z</time></trkpt><trkpt lat="44.36672254951472" lon="10.1966156913913"><ele>914.0</ele><time>2026-04-06T10:51:06Z</time></trkpt><trkpt lat="44.366801793617796" lon="10.196652187706091"><ele>915.0</ele><time>2026-04-06T10:51:07Z</time></trkpt><trkpt lat="44.36687777278782" lon="10.19669771613204"><ele>916.0</ele><time>2026-04-06T10:51:08Z</time></trkpt><trkpt lat="44.36692720305623" lon="10.196786050748578"><ele>917.0</ele><time>2026-04-06T10:51:10Z</time></trkpt><trkpt lat="44.36698801183927" lon="10.196809832035985"><ele>918.0</ele><time>2026-04-06T10:51:14Z</time></trkpt><trkpt lat="44.36705778153772" lon="10.196780357558648"><ele>918.0</ele><time>2026-04-06T10:51:15Z</time></trkpt><trkpt lat="44.36716953046435" lon="10.196747629996777"><ele>918.0</ele><time>2026-04-06T10:51:16Z</time></trkpt><trkpt lat="44.367260789920586" lon="10.196704410544974"><ele>918.0</ele><time>2026-04-06T10:51:17Z</time></trkpt><trkpt lat="44.36734173007497" lon="10.196663131209693"><ele>918.0</ele><time>2026-04-06T10:51:18Z</time></trkpt><trkpt lat="44.367439251944795" lon="10.196618730557843"><ele>918.0</ele><time>2026-04-06T10:51:19Z</time></trkpt><trkpt lat="44.367536112166675" lon="10.196607273114871"><ele>917.8</ele><time>2026-04-06T10:51:20Z</time></trkpt><trkpt lat="44.36764520708293" lon="10.196622248996505"><ele>917.5999999999999</ele><time>2026-04-06T10:51:21Z</time></trkpt><trkpt lat="44.36775874655101" lon="10.196668246421957"><ele>917.4000000000001</ele><time>2026-04-06T10:51:22Z</time></trkpt><trkpt lat="44.36786123842516" lon="10.196719355371522"><ele>917.2</ele><time>2026-04-06T10:51:23Z</time></trkpt><trkpt lat="44.36795214390934" lon="10.196767198909214"><ele>917.0</ele><time>2026-04-06T10:51:24Z</time></trkpt><trkpt lat="44.36801780858914" lon="10.196821027945523"><ele>915.4000000000001</ele><time>2026-04-06T10:51:25Z</time></trkpt><trkpt lat="44.36807124225752" lon="10.196882430149044"><ele>913.8000000000001</ele><time>2026-04-06T10:51:26Z</time></trkpt><trkpt lat="44.368100311084255" lon="10.197044784793123"><ele>912.2</ele><time>2026-04-06T10:51:28Z</time></trkpt><trkpt lat="44.368119356174105" lon="10.197159118330001"><ele>910.6</ele><time>2026-04-06T10:51:29Z</time></trkpt><trkpt lat="44.36813878542183" lon="10.197293811332544"><ele>909.0</ele><time>2026-04-06T10:51:30Z</time></trkpt><trkpt lat="44.36815577825514" lon="10.19741843108554"><ele>909.0</ele><time>2026-04-06T10:51:31Z</time></trkpt><trkpt lat="44.36821392718807" lon="10.197525668539205"><ele>909.0000000000001</ele><time>2026-04-06T10:51:32Z</time></trkpt><trkpt lat="44.36829571183761" lon="10.197601513009172"><ele>909.0000000000001</ele><time>2026-04-06T10:51:33Z</time></trkpt><trkpt lat="44.3683769102394" lon="10.197655373666663"><ele>909.0</ele><time>2026-04-06T10:51:34Z</time></trkpt><trkpt lat="44.368455491627785" lon="10.197707183160162"><ele>909.0</ele><time>2026-04-06T10:51:35Z</time></trkpt><trkpt lat="44.36854792053045" lon="10.197767245564831"><ele>909.0</ele><time>2026-04-06T10:51:36Z</time></trkpt><trkpt lat="44.36865593718403" lon="10.197837437243138"><ele>909.0</ele><time>2026-04-06T10:51:37Z</time></trkpt><trkpt lat="44.36876706692717" lon="10.19791072245751"><ele>909.0</ele><time>2026-04-06T10:51:38Z</time></trkpt><trkpt lat="44.36888946473301" lon="10.197995109537239"><ele>909.0</ele><time>2026-04-06T10:51:39Z</time></trkpt><trkpt lat="44.3690199844991" lon="10.198085451335942"><ele>908.0</ele><time>2026-04-06T10:51:40Z</time></trkpt><trkpt lat="44.36914018531203" lon="10.198165326312939"><ele>907.0</ele><time>2026-04-06T10:51:41Z</time></trkpt><trkpt lat="44.36926279860022" lon="10.198253669255623"><ele>906.0</ele><time>2026-04-06T10:51:42Z</time></trkpt><trkpt lat="44.36938001973621" lon="10.198345694936311"><ele>905.0</ele><time>2026-04-06T10:51:43Z</time></trkpt><trkpt lat="44.369488293852825" lon="10.19844030407453"><ele>905.0</ele><time>2026-04-06T10:51:44Z</time></trkpt><trkpt lat="44.36959602875554" lon="10.198510724152722"><ele>905.0</ele><time>2026-04-06T10:51:45Z</time></trkpt><trkpt lat="44.369687483972925" lon="10.198575782304612"><ele>905.0</ele><time>2026-04-06T10:51:46Z</time></trkpt><trkpt lat="44.36977499710821" lon="10.198628315144996"><ele>905.0</ele><time>2026-04-06T10:51:47Z</time></trkpt><trkpt lat="44.369856836851646" lon="10.198672094273345"><ele>905.0</ele><time>2026-04-06T10:51:48Z</time></trkpt><trkpt lat="44.36992160906869" lon="10.19870507282943"><ele>902.3333333333334</ele><time>2026-04-06T10:51:49Z</time></trkpt><trkpt lat="44.369988435928114" lon="10.198681530758103"><ele>899.6666666666667</ele><time>2026-04-06T10:51:50Z</time></trkpt><trkpt lat="44.37004202725089" lon="10.198593024724195"><ele>897.0</ele><time>2026-04-06T10:51:51Z</time></trkpt><trkpt lat="44.370036112673844" lon="10.198486311322716"><ele>894.3333333333333</ele><time>2026-04-06T10:51:52Z</time></trkpt><trkpt lat="44.36997533690423" lon="10.198353650350942"><ele>891.6666666666666</ele><time>2026-04-06T10:51:54Z</time></trkpt><trkpt lat="44.36991081380912" lon="10.198314806734803"><ele>889.0</ele><time>2026-04-06T10:51:55Z</time></trkpt><trkpt lat="44.36981003991338" lon="10.198282788469275"><ele>889.5</ele><time>2026-04-06T10:51:56Z</time></trkpt><trkpt lat="44.36968893992478" lon="10.198213249293726"><ele>890.0</ele><time>2026-04-06T10:51:57Z</time></trkpt><trkpt lat="44.36959376876032" lon="10.198111232015158"><ele>890.5</ele><time>2026-04-06T10:51:57.999Z</time></trkpt><trkpt lat="44.36949244832718" lon="10.197996302603801"><ele>891.0</ele><time>2026-04-06T10:51:58.999Z</time></trkpt><trkpt lat="44.36941442095308" lon="10.197957573820853"><ele>891.0</ele><time>2026-04-06T10:51:59.999Z</time></trkpt><trkpt lat="44.36933761523552" lon="10.197874420055824"><ele>891.0</ele><time>2026-04-06T10:52:00.999Z</time></trkpt><trkpt lat="44.36929694967719" lon="10.197766063356745"><ele>891.0</ele><time>2026-04-06T10:52:01.999Z</time></trkpt><trkpt lat="44.369274374547736" lon="10.19766933960441"><ele>891.0</ele><time>2026-04-06T10:52:02.999Z</time></trkpt><trkpt lat="44.36926630530793" lon="10.197561335082304"><ele>891.0</ele><time>2026-04-06T10:52:03.999Z</time></trkpt><trkpt lat="44.3692610018381" lon="10.197438230755452"><ele>891.0</ele><time>2026-04-06T10:52:04.999Z</time></trkpt><trkpt lat="44.369253518537015" lon="10.197318553316222"><ele>890.0</ele><time>2026-04-06T10:52:05.999Z</time></trkpt><trkpt lat="44.36925094642625" lon="10.197204295868435"><ele>889.0</ele><time>2026-04-06T10:52:06.999Z</time></trkpt><trkpt lat="44.36925282986427" lon="10.19710722849097"><ele>888.0</ele><time>2026-04-06T10:52:07.999Z</time></trkpt><trkpt lat="44.36929472495092" lon="10.196971914985182"><ele>887.0</ele><time>2026-04-06T10:52:09.999Z</time></trkpt><trkpt lat="44.36937089344686" lon="10.196886826468313"><ele>886.0</ele><time>2026-04-06T10:52:11.999Z</time></trkpt><trkpt lat="44.369442068874086" lon="10.19692423579556"><ele>885.0</ele><time>2026-04-06T10:52:12.999Z</time></trkpt><trkpt lat="44.369526467081336" lon="10.197014877961735"><ele>885.0</ele><time>2026-04-06T10:52:13.999Z</time></trkpt><trkpt lat="44.36962643553975" lon="10.197129907196185"><ele>885.0</ele><time>2026-04-06T10:52:14.999Z</time></trkpt><trkpt lat="44.369742942693634" lon="10.197242412530949"><ele>885.0</ele><time>2026-04-06T10:52:15.999Z</time></trkpt><trkpt lat="44.369835746521176" lon="10.197383647152568"><ele>885.0</ele><time>2026-04-06T10:52:16.999Z</time></trkpt><trkpt lat="44.36995940425657" lon="10.19749398750602"><ele>884.25</ele><time>2026-04-06T10:52:17.999Z</time></trkpt><trkpt lat="44.37009284087048" lon="10.197583238443496"><ele>883.5</ele><time>2026-04-06T10:52:19Z</time></trkpt><trkpt lat="44.37020297547134" lon="10.197677781044023"><ele>882.75</ele><time>2026-04-06T10:52:20Z</time></trkpt><trkpt lat="44.37030709349931" lon="10.197759095938885"><ele>882.0</ele><time>2026-04-06T10:52:21Z</time></trkpt><trkpt lat="44.37035582979603" lon="10.197844035564195"><ele>882.0</ele><time>2026-04-06T10:52:22Z</time></trkpt><trkpt lat="44.37042386979772" lon="10.197915707000208"><ele>882.0</ele><time>2026-04-06T10:52:23Z</time></trkpt><trkpt lat="44.37046672704219" lon="10.198031342788273"><ele>882.0</ele><time>2026-04-06T10:52:24Z</time></trkpt><trkpt lat="44.3705018460723" lon="10.19816240927645"><ele>882.0</ele><time>2026-04-06T10:52:25Z</time></trkpt><trkpt lat="44.37051910947552" lon="10.198313637288855"><ele>882.0</ele><time>2026-04-06T10:52:26Z</time></trkpt><trkpt lat="44.370517212683176" lon="10.198486893139862"><ele>880.8</ele><time>2026-04-06T10:52:27Z</time></trkpt><trkpt lat="44.37050992612756" lon="10.19865766108856"><ele>879.6</ele><time>2026-04-06T10:52:28Z</time></trkpt><trkpt lat="44.37052485681979" lon="10.198795303003866"><ele>878.3999999999999</ele><time>2026-04-06T10:52:29Z</time></trkpt><trkpt lat="44.37056665757203" lon="10.198909595005322"><ele>877.1999999999999</ele><time>2026-04-06T10:52:30Z</time></trkpt><trkpt lat="44.37062931098734" lon="10.199004433858219"><ele>876.0</ele><time>2026-04-06T10:52:31Z</time></trkpt><trkpt lat="44.37069438647274" lon="10.199114897761119"><ele>876.0</ele><time>2026-04-06T10:52:32Z</time></trkpt><trkpt lat="44.370777379388265" lon="10.199202406827654"><ele>876.0</ele><time>2026-04-06T10:52:33Z</time></trkpt><trkpt lat="44.3708820809873" lon="10.199265577918483"><ele>876.0</ele><time>2026-04-06T10:52:34Z</time></trkpt><trkpt lat="44.3710274477626" lon="10.199267424062413"><ele>876.0</ele><time>2026-04-06T10:52:35Z</time></trkpt><trkpt lat="44.37116681777192" lon="10.19925576316517"><ele>876.0</ele><time>2026-04-06T10:52:36Z</time></trkpt><trkpt lat="44.37130064097377" lon="10.199241442909633"><ele>876.0</ele><time>2026-04-06T10:52:37Z</time></trkpt><trkpt lat="44.37141290718113" lon="10.199211494254543"><ele>876.0</ele><time>2026-04-06T10:52:38Z</time></trkpt><trkpt lat="44.37152174819021" lon="10.199138210753384"><ele>876.0</ele><time>2026-04-06T10:52:39Z</time></trkpt><trkpt lat="44.371627979652715" lon="10.199002283912906"><ele>871.25</ele><time>2026-04-06T10:52:40Z</time></trkpt><trkpt lat="44.37173406749717" lon="10.198866199445678"><ele>866.5</ele><time>2026-04-06T10:52:41Z</time></trkpt><trkpt lat="44.3718426700946" lon="10.19874675972616"><ele>861.75</ele><time>2026-04-06T10:52:42Z</time></trkpt><trkpt lat="44.371939367711086" lon="10.198626786570246"><ele>857.0</ele><time>2026-04-06T10:52:43Z</time></trkpt><trkpt lat="44.3720228336322" lon="10.198502095243844"><ele>857.0</ele><time>2026-04-06T10:52:44Z</time></trkpt><trkpt lat="44.372092629914775" lon="10.198349940194472"><ele>857.0</ele><time>2026-04-06T10:52:45Z</time></trkpt><trkpt lat="44.372141512200706" lon="10.198168661493037"><ele>857.0</ele><time>2026-04-06T10:52:46Z</time></trkpt><trkpt lat="44.37218990336828" lon="10.1979902861281"><ele>857.0</ele><time>2026-04-06T10:52:47Z</time></trkpt><trkpt lat="44.37223148908195" lon="10.197841935667565"><ele>856.6666666666667</ele><time>2026-04-06T10:52:48Z</time></trkpt><trkpt lat="44.37227391441632" lon="10.197735139130643"><ele>856.3333333333334</ele><time>2026-04-06T10:52:49Z</time></trkpt><trkpt lat="44.37232366524252" lon="10.197652410251607"><ele>856.0</ele><time>2026-04-06T10:52:50Z</time></trkpt><trkpt lat="44.37237433625272" lon="10.197592570548924"><ele>855.6666666666667</ele><time>2026-04-06T10:52:51Z</time></trkpt><trkpt lat="44.37244020268926" lon="10.197564211523847"><ele>855.3333333333334</ele><time>2026-04-06T10:52:52Z</time></trkpt><trkpt lat="44.37251181763279" lon="10.197524287634767"><ele>855.0</ele><time>2026-04-06T10:52:53Z</time></trkpt><trkpt lat="44.37259537085281" lon="10.197478086389403"><ele>855.0</ele><time>2026-04-06T10:52:54Z</time></trkpt><trkpt lat="44.37269627154859" lon="10.197419776759828"><ele>855.0</ele><time>2026-04-06T10:52:55Z</time></trkpt><trkpt lat="44.37280602414278" lon="10.197354976559648"><ele>855.0</ele><time>2026-04-06T10:52:56Z</time></trkpt><trkpt lat="44.372929873973526" lon="10.197274767510123"><ele>855.0</ele><time>2026-04-06T10:52:57Z</time></trkpt><trkpt lat="44.37303657761583" lon="10.197179498490282"><ele>850.25</ele><time>2026-04-06T10:52:58Z</time></trkpt><trkpt lat="44.37314512616787" lon="10.197125660435114"><ele>845.5</ele><time>2026-04-06T10:52:59Z</time></trkpt><trkpt lat="44.37325780091877" lon="10.197086578865338"><ele>840.75</ele><time>2026-04-06T10:53:00Z</time></trkpt><trkpt lat="44.37337080838203" lon="10.19710077968295"><ele>836.0</ele><time>2026-04-06T10:53:01Z</time></trkpt><trkpt lat="44.37349363770754" lon="10.19709664135089"><ele>836.0</ele><time>2026-04-06T10:53:02.001Z</time></trkpt><trkpt lat="44.37362010790208" lon="10.197092345923998"><ele>836.0</ele><time>2026-04-06T10:53:03.001Z</time></trkpt><trkpt lat="44.373751783999055" lon="10.197082334718708"><ele>836.0</ele><time>2026-04-06T10:53:04.001Z</time></trkpt><trkpt lat="44.3738669277356" lon="10.197061426496175"><ele>836.0</ele><time>2026-04-06T10:53:05.001Z</time></trkpt><trkpt lat="44.37397957960332" lon="10.197090815786371"><ele>835.5999999999999</ele><time>2026-04-06T10:53:06.001Z</time></trkpt><trkpt lat="44.37408932609994" lon="10.197100354748653"><ele>835.2</ele><time>2026-04-06T10:53:07.001Z</time></trkpt><trkpt lat="44.3741836760701" lon="10.197163712483569"><ele>834.8</ele><time>2026-04-06T10:53:08.001Z</time></trkpt><trkpt lat="44.37426574825435" lon="10.197222146275951"><ele>834.4000000000001</ele><time>2026-04-06T10:53:09.001Z</time></trkpt><trkpt lat="44.37435586190504" lon="10.197280939584408"><ele>834.0</ele><time>2026-04-06T10:53:10.001Z</time></trkpt><trkpt lat="44.374433316597134" lon="10.19731360725053"><ele>834.0</ele><time>2026-04-06T10:53:11.001Z</time></trkpt><trkpt lat="44.37449816893559" lon="10.197343200927884"><ele>834.0</ele><time>2026-04-06T10:53:12.001Z</time></trkpt><trkpt lat="44.37457484162251" lon="10.197316759710295"><ele>834.0</ele><time>2026-04-06T10:53:13.001Z</time></trkpt><trkpt lat="44.37462964039252" lon="10.197235490580068"><ele>834.0</ele><time>2026-04-06T10:53:14.001Z</time></trkpt><trkpt lat="44.37465527778773" lon="10.197129012414987"><ele>834.0</ele><time>2026-04-06T10:53:15.001Z</time></trkpt><trkpt lat="44.37464625428833" lon="10.197015127773447"><ele>834.0</ele><time>2026-04-06T10:53:16.001Z</time></trkpt><trkpt lat="44.37457308122954" lon="10.196940824270207"><ele>834.0</ele><time>2026-04-06T10:53:17.001Z</time></trkpt><trkpt lat="44.37448350024285" lon="10.196893538010443"><ele>834.0</ele><time>2026-04-06T10:53:18.001Z</time></trkpt><trkpt lat="44.37437423973465" lon="10.19685367815654"><ele>834.0</ele><time>2026-04-06T10:53:19.001Z</time></trkpt><trkpt lat="44.374273809461485" lon="10.196806514233613"><ele>834.0</ele><time>2026-04-06T10:53:20.001Z</time></trkpt><trkpt lat="44.3741937268281" lon="10.196734296199411"><ele>834.0</ele><time>2026-04-06T10:53:21.001Z</time></trkpt><trkpt lat="44.374142895102125" lon="10.196617758006779"><ele>829.2</ele><time>2026-04-06T10:53:22.001Z</time></trkpt><trkpt lat="44.37407915044791" lon="10.196501033093337"><ele>824.4000000000001</ele><time>2026-04-06T10:53:23.001Z</time></trkpt><trkpt lat="44.374020556166684" lon="10.196386891476228"><ele>819.6</ele><time>2026-04-06T10:53:24.001Z</time></trkpt><trkpt lat="44.3739435314441" lon="10.196322762984758"><ele>814.8</ele><time>2026-04-06T10:53:25.001Z</time></trkpt><trkpt lat="44.37384686957834" lon="10.196276915449978"><ele>810.0</ele><time>2026-04-06T10:53:26.001Z</time></trkpt><trkpt lat="44.37373199918968" lon="10.196273225977974"><ele>810.0</ele><time>2026-04-06T10:53:27.001Z</time></trkpt><trkpt lat="44.373591798630606" lon="10.196302440536822"><ele>810.0</ele><time>2026-04-06T10:53:28.001Z</time></trkpt><trkpt lat="44.37344784791262" lon="10.196361819361053"><ele>810.0</ele><time>2026-04-06T10:53:29.001Z</time></trkpt><trkpt lat="44.37331322482679" lon="10.196414915061604"><ele>810.0</ele><time>2026-04-06T10:53:30.001Z</time></trkpt><trkpt lat="44.373181774479555" lon="10.19645650605813"><ele>810.0</ele><time>2026-04-06T10:53:31.001Z</time></trkpt><trkpt lat="44.37305781368182" lon="10.196483130950432"><ele>810.0</ele><time>2026-04-06T10:53:32.001Z</time></trkpt><trkpt lat="44.37294154397491" lon="10.19648623138616"><ele>810.0</ele><time>2026-04-06T10:53:33.001Z</time></trkpt><trkpt lat="44.37282712020526" lon="10.196456910312797"><ele>810.0</ele><time>2026-04-06T10:53:34.001Z</time></trkpt><trkpt lat="44.37271721990042" lon="10.196402725695387"><ele>811.0</ele><time>2026-04-06T10:53:35.001Z</time></trkpt><trkpt lat="44.37262396324703" lon="10.196314510114798"><ele>812.0</ele><time>2026-04-06T10:53:36.001Z</time></trkpt><trkpt lat="44.37253614190498" lon="10.19621003217609"><ele>813.0</ele><time>2026-04-06T10:53:37.001Z</time></trkpt><trkpt lat="44.372453228068245" lon="10.196126116854074"><ele>814.0</ele><time>2026-04-06T10:53:38.001Z</time></trkpt><trkpt lat="44.37239302651141" lon="10.196053556934434"><ele>815.0</ele><time>2026-04-06T10:53:39.001Z</time></trkpt><trkpt lat="44.37236722420531" lon="10.195956674467713"><ele>815.0000000000001</ele><time>2026-04-06T10:53:40.001Z</time></trkpt><trkpt lat="44.372381883269085" lon="10.195850407686173"><ele>815.0</ele><time>2026-04-06T10:53:41.001Z</time></trkpt><trkpt lat="44.37243424646007" lon="10.195770195831583"><ele>815.0</ele><time>2026-04-06T10:53:42.001Z</time></trkpt><trkpt lat="44.37251871981542" lon="10.195789449445497"><ele>815.0</ele><time>2026-04-06T10:53:43.001Z</time></trkpt><trkpt lat="44.37260633551674" lon="10.1958777196064"><ele>815.0000000000001</ele><time>2026-04-06T10:53:45.001Z</time></trkpt><trkpt lat="44.37267828725021" lon="10.195944522636221"><ele>815.0</ele><time>2026-04-06T10:53:46.001Z</time></trkpt><trkpt lat="44.37277017208354" lon="10.196026981373802"><ele>815.0</ele><time>2026-04-06T10:53:47.001Z</time></trkpt><trkpt lat="44.37286157903021" lon="10.196087720241978"><ele>815.0</ele><time>2026-04-06T10:53:48.001Z</time></trkpt><trkpt lat="44.372951886985646" lon="10.196129273166646"><ele>815.0</ele><time>2026-04-06T10:53:49.001Z</time></trkpt><trkpt lat="44.37306958007289" lon="10.196120308582758"><ele>815.0</ele><time>2026-04-06T10:53:50.001Z</time></trkpt><trkpt lat="44.37319279780389" lon="10.196079634752145"><ele>815.0</ele><time>2026-04-06T10:53:51.001Z</time></trkpt><trkpt lat="44.37332591031299" lon="10.196033797558718"><ele>813.75</ele><time>2026-04-06T10:53:52.001Z</time></trkpt><trkpt lat="44.37346173616556" lon="10.19599591272737"><ele>812.5</ele><time>2026-04-06T10:53:53.001Z</time></trkpt><trkpt lat="44.37359605568372" lon="10.195965000439191"><ele>811.25</ele><time>2026-04-06T10:53:54.001Z</time></trkpt><trkpt lat="44.37373054294646" lon="10.195939237000196"><ele>810.0</ele><time>2026-04-06T10:53:55.001Z</time></trkpt><trkpt lat="44.373850773841234" lon="10.195932761147576"><ele>809.25</ele><time>2026-04-06T10:53:56.001Z</time></trkpt><trkpt lat="44.373977757744946" lon="10.195928817251811"><ele>808.5</ele><time>2026-04-06T10:53:57.001Z</time></trkpt><trkpt lat="44.374095699647064" lon="10.195925154182897"><ele>807.75</ele><time>2026-04-06T10:53:58.002Z</time></trkpt><trkpt lat="44.37421317024891" lon="10.195911586515688"><ele>807.0</ele><time>2026-04-06T10:53:59.002Z</time></trkpt><trkpt lat="44.37432009811937" lon="10.195866071813448"><ele>807.0</ele><time>2026-04-06T10:54:00.002Z</time></trkpt><trkpt lat="44.37442570112027" lon="10.195873887553073"><ele>807.0</ele><time>2026-04-06T10:54:01.002Z</time></trkpt><trkpt lat="44.37452979836435" lon="10.195863662897631"><ele>807.0</ele><time>2026-04-06T10:54:02.002Z</time></trkpt><trkpt lat="44.37460624172015" lon="10.195809897383727"><ele>807.0</ele><time>2026-04-06T10:54:03.002Z</time></trkpt><trkpt lat="44.374698732165925" lon="10.195719371302099"><ele>807.0</ele><time>2026-04-06T10:54:05.001Z</time></trkpt><trkpt lat="44.37475279475159" lon="10.195621622517939"><ele>802.2</ele><time>2026-04-06T10:54:07.001Z</time></trkpt><trkpt lat="44.37482488654691" lon="10.195617195771215"><ele>797.4000000000001</ele><time>2026-04-06T10:54:08.001Z</time></trkpt><trkpt lat="44.37493243380113" lon="10.195580322114106"><ele>792.5999999999999</ele><time>2026-04-06T10:54:09.001Z</time></trkpt><trkpt lat="44.375040668006164" lon="10.195503138185874"><ele>787.8</ele><time>2026-04-06T10:54:10.001Z</time></trkpt><trkpt lat="44.375156209970896" lon="10.195438357730541"><ele>783.0</ele><time>2026-04-06T10:54:11.001Z</time></trkpt><trkpt lat="44.375304660081916" lon="10.195350711566084"><ele>783.0</ele><time>2026-04-06T10:54:12.001Z</time></trkpt><trkpt lat="44.37545710200735" lon="10.195246712912173"><ele>783.0</ele><time>2026-04-06T10:54:13.001Z</time></trkpt><trkpt lat="44.37559434851721" lon="10.195130135482772"><ele>783.0</ele><time>2026-04-06T10:54:14.001Z</time></trkpt><trkpt lat="44.37572480248415" lon="10.195041510195157"><ele>779.75</ele><time>2026-04-06T10:54:15.001Z</time></trkpt><trkpt lat="44.37584783899482" lon="10.194956250387955"><ele>776.5</ele><time>2026-04-06T10:54:16.001Z</time></trkpt><trkpt lat="44.37597258236045" lon="10.19489575504118"><ele>773.25</ele><time>2026-04-06T10:54:17.001Z</time></trkpt><trkpt lat="44.37608199334308" lon="10.194795459928754"><ele>770.0</ele><time>2026-04-06T10:54:18.001Z</time></trkpt><trkpt lat="44.376197311774206" lon="10.194716592966433"><ele>770.0</ele><time>2026-04-06T10:54:19.001Z</time></trkpt><trkpt lat="44.37630754270996" lon="10.1946292974591"><ele>770.0</ele><time>2026-04-06T10:54:20.001Z</time></trkpt><trkpt lat="44.376403889495904" lon="10.194515649105368"><ele>770.0</ele><time>2026-04-06T10:54:21.001Z</time></trkpt><trkpt lat="44.376491707863586" lon="10.194359391685689"><ele>770.0</ele><time>2026-04-06T10:54:22.001Z</time></trkpt><trkpt lat="44.376584640480445" lon="10.194184386673081"><ele>767.0</ele><time>2026-04-06T10:54:23.001Z</time></trkpt><trkpt lat="44.37668050350124" lon="10.19400999771056"><ele>764.0</ele><time>2026-04-06T10:54:24.001Z</time></trkpt><trkpt lat="44.376771047378234" lon="10.19383902234921"><ele>761.0</ele><time>2026-04-06T10:54:25.001Z</time></trkpt><trkpt lat="44.37686438085615" lon="10.19369111074295"><ele>761.0</ele><time>2026-04-06T10:54:26.001Z</time></trkpt><trkpt lat="44.376961025662006" lon="10.193556586856069"><ele>761.0</ele><time>2026-04-06T10:54:27.001Z</time></trkpt><trkpt lat="44.377080529160914" lon="10.193435824792324"><ele>761.0</ele><time>2026-04-06T10:54:28.001Z</time></trkpt><trkpt lat="44.377210726407604" lon="10.19332656433193"><ele>761.0</ele><time>2026-04-06T10:54:29.001Z</time></trkpt><trkpt lat="44.377346143523624" lon="10.193220122641497"><ele>759.3333333333333</ele><time>2026-04-06T10:54:30.001Z</time></trkpt><trkpt lat="44.37747690622901" lon="10.193115765252308"><ele>757.6666666666666</ele><time>2026-04-06T10:54:31.001Z</time></trkpt><trkpt lat="44.37762121368869" lon="10.19299614832393"><ele>756.0</ele><time>2026-04-06T10:54:32.001Z</time></trkpt><trkpt lat="44.37774306647229" lon="10.192878524002747"><ele>756.0</ele><time>2026-04-06T10:54:33.001Z</time></trkpt><trkpt lat="44.377862166488214" lon="10.192753516038712"><ele>756.0</ele><time>2026-04-06T10:54:34.001Z</time></trkpt><trkpt lat="44.377976388625456" lon="10.192613287433865"><ele>756.0</ele><time>2026-04-06T10:54:35.001Z</time></trkpt><trkpt lat="44.37808842230977" lon="10.19245756537513"><ele>758.25</ele><time>2026-04-06T10:54:36.001Z</time></trkpt><trkpt lat="44.37818691705726" lon="10.192312737916534"><ele>760.5</ele><time>2026-04-06T10:54:37.001Z</time></trkpt><trkpt lat="44.37827768590569" lon="10.192174984226735"><ele>762.75</ele><time>2026-04-06T10:54:38.001Z</time></trkpt><trkpt lat="44.37836712313695" lon="10.19204947995943"><ele>765.0</ele><time>2026-04-06T10:54:39.001Z</time></trkpt><trkpt lat="44.37845844979334" lon="10.191935889513601"><ele>765.0</ele><time>2026-04-06T10:54:40.001Z</time></trkpt><trkpt lat="44.37854390818775" lon="10.1918260355788"><ele>765.0</ele><time>2026-04-06T10:54:41.001Z</time></trkpt><trkpt lat="44.37861774344794" lon="10.191715688723718"><ele>765.0</ele><time>2026-04-06T10:54:42.001Z</time></trkpt><trkpt lat="44.37868403878361" lon="10.191596846448807"><ele>765.0</ele><time>2026-04-06T10:54:43.001Z</time></trkpt><trkpt lat="44.37873446848799" lon="10.191457175500862"><ele>765.0</ele><time>2026-04-06T10:54:44.001Z</time></trkpt><trkpt lat="44.378771974345675" lon="10.191304317753357"><ele>763.4</ele><time>2026-04-06T10:54:45.001Z</time></trkpt><trkpt lat="44.378809758924035" lon="10.19114641807439"><ele>761.8</ele><time>2026-04-06T10:54:46.001Z</time></trkpt><trkpt lat="44.37886075339204" lon="10.191000234351"><ele>760.2</ele><time>2026-04-06T10:54:47.001Z</time></trkpt><trkpt lat="44.37891727034907" lon="10.190880914624888"><ele>758.6</ele><time>2026-04-06T10:54:48.001Z</time></trkpt><trkpt lat="44.37897632763953" lon="10.190780247388757"><ele>757.0</ele><time>2026-04-06T10:54:49.001Z</time></trkpt><trkpt lat="44.37904287777119" lon="10.190694773878938"><ele>758.6666666666667</ele><time>2026-04-06T10:54:50.001Z</time></trkpt><trkpt lat="44.3791106297557" lon="10.190612001470113"><ele>760.3333333333334</ele><time>2026-04-06T10:54:51.001Z</time></trkpt><trkpt lat="44.379168508122746" lon="10.19053544761656"><ele>762.0</ele><time>2026-04-06T10:54:52.001Z</time></trkpt><trkpt lat="44.37922828772028" lon="10.190469376615937"><ele>763.6666666666666</ele><time>2026-04-06T10:54:53.001Z</time></trkpt><trkpt lat="44.37928432057192" lon="10.190399496839936"><ele>765.3333333333333</ele><time>2026-04-06T10:54:54.001Z</time></trkpt><trkpt lat="44.37933646373864" lon="10.190330622139449"><ele>767.0</ele><time>2026-04-06T10:54:55.001Z</time></trkpt><trkpt lat="44.37938803004319" lon="10.190256395538482"><ele>767.0</ele><time>2026-04-06T10:54:56.001Z</time></trkpt><trkpt lat="44.37943792948234" lon="10.190179517923562"><ele>767.0</ele><time>2026-04-06T10:54:57.001Z</time></trkpt><trkpt lat="44.37948205925542" lon="10.190077121240993"><ele>767.0</ele><time>2026-04-06T10:54:58.001Z</time></trkpt><trkpt lat="44.37953403553584" lon="10.189972885492445"><ele>767.0</ele><time>2026-04-06T10:54:59.001Z</time></trkpt><trkpt lat="44.37957294857503" lon="10.189857019970407"><ele>767.0</ele><time>2026-04-06T10:55:00.001Z</time></trkpt><trkpt lat="44.37961060262247" lon="10.189742082031307"><ele>767.0</ele><time>2026-04-06T10:55:01.001Z</time></trkpt><trkpt lat="44.379652781855356" lon="10.18963341792101"><ele>768.6666666666666</ele><time>2026-04-06T10:55:02.001Z</time></trkpt><trkpt lat="44.37969656273155" lon="10.189519786391871"><ele>770.3333333333333</ele><time>2026-04-06T10:55:03.001Z</time></trkpt><trkpt lat="44.379750157203716" lon="10.189434526194631"><ele>772.0</ele><time>2026-04-06T10:55:04.001Z</time></trkpt><trkpt lat="44.37980691214699" lon="10.18935489977248"><ele>773.6666666666666</ele><time>2026-04-06T10:55:05.001Z</time></trkpt><trkpt lat="44.37987271522863" lon="10.18928883112407"><ele>775.3333333333334</ele><time>2026-04-06T10:55:06.001Z</time></trkpt><trkpt lat="44.379945356294456" lon="10.189233014463044"><ele>777.0</ele><time>2026-04-06T10:55:07.001Z</time></trkpt><trkpt lat="44.38001753554148" lon="10.189181590151588"><ele>777.0</ele><time>2026-04-06T10:55:08.001Z</time></trkpt><trkpt lat="44.38008716385345" lon="10.189130843668694"><ele>777.0</ele><time>2026-04-06T10:55:09.001Z</time></trkpt><trkpt lat="44.38016103936099" lon="10.1890870932444"><ele>777.0</ele><time>2026-04-06T10:55:10.001Z</time></trkpt><trkpt lat="44.380238987311" lon="10.189035546234928"><ele>777.0</ele><time>2026-04-06T10:55:11.001Z</time></trkpt><trkpt lat="44.380325415959" lon="10.188978354601456"><ele>777.0</ele><time>2026-04-06T10:55:12.001Z</time></trkpt><trkpt lat="44.38042341578792" lon="10.188917068374366"><ele>777.0</ele><time>2026-04-06T10:55:13.001Z</time></trkpt><trkpt lat="44.38052491439072" lon="10.188857049571867"><ele>775.8333333333334</ele><time>2026-04-06T10:55:14.001Z</time></trkpt><trkpt lat="44.380606950828856" lon="10.188800525690302"><ele>774.6666666666667</ele><time>2026-04-06T10:55:15.001Z</time></trkpt><trkpt lat="44.380680669175874" lon="10.18876121749842"><ele>773.5</ele><time>2026-04-06T10:55:16.001Z</time></trkpt><trkpt lat="44.38075255500932" lon="10.18873048345916"><ele>772.3333333333334</ele><time>2026-04-06T10:55:17.001Z</time></trkpt><trkpt lat="44.38082738175439" lon="10.18870825895711"><ele>771.1666666666667</ele><time>2026-04-06T10:55:18.001Z</time></trkpt><trkpt lat="44.3809039835136" lon="10.18867606483549"><ele>770.0</ele><time>2026-04-06T10:55:19.001Z</time></trkpt><trkpt lat="44.3809888246536" lon="10.188635066438575"><ele>770.0</ele><time>2026-04-06T10:55:20.001Z</time></trkpt><trkpt lat="44.3810970436077" lon="10.18858349059067"><ele>770.0</ele><time>2026-04-06T10:55:21.002Z</time></trkpt><trkpt lat="44.38121638555374" lon="10.188525041469644"><ele>770.0</ele><time>2026-04-06T10:55:22.002Z</time></trkpt><trkpt lat="44.38133504422381" lon="10.188459557791992"><ele>770.0</ele><time>2026-04-06T10:55:23.002Z</time></trkpt><trkpt lat="44.381462544217854" lon="10.188381780555316"><ele>767.75</ele><time>2026-04-06T10:55:24.002Z</time></trkpt><trkpt lat="44.38159449709414" lon="10.188312147530883"><ele>765.5</ele><time>2026-04-06T10:55:25.002Z</time></trkpt><trkpt lat="44.38172219525441" lon="10.18826464441216"><ele>763.25</ele><time>2026-04-06T10:55:26.002Z</time></trkpt><trkpt lat="44.38186732031016" lon="10.18822065658976"><ele>761.0</ele><time>2026-04-06T10:55:27.002Z</time></trkpt><trkpt lat="44.3820197812096" lon="10.188171832794989"><ele>761.0</ele><time>2026-04-06T10:55:28.002Z</time></trkpt><trkpt lat="44.38216551889763" lon="10.188114748051218"><ele>761.0</ele><time>2026-04-06T10:55:29.002Z</time></trkpt><trkpt lat="44.38229941923148" lon="10.188048517994925"><ele>761.0</ele><time>2026-04-06T10:55:30.002Z</time></trkpt><trkpt lat="44.382427132978556" lon="10.188009367722225"><ele>761.0</ele><time>2026-04-06T10:55:31.002Z</time></trkpt><trkpt lat="44.38252892811588" lon="10.187981656286462"><ele>762.5</ele><time>2026-04-06T10:55:32.002Z</time></trkpt><trkpt lat="44.382621430353694" lon="10.18797620083408"><ele>764.0</ele><time>2026-04-06T10:55:33.002Z</time></trkpt><trkpt lat="44.382705947801725" lon="10.188014106481072"><ele>765.5</ele><time>2026-04-06T10:55:34.002Z</time></trkpt><trkpt lat="44.38277661842141" lon="10.188093258921308"><ele>767.0</ele><time>2026-04-06T10:55:35.002Z</time></trkpt><trkpt lat="44.38282043441013" lon="10.188186911315823"><ele>768.5000000000001</ele><time>2026-04-06T10:55:36.002Z</time></trkpt><trkpt lat="44.3828482491131" lon="10.188281227266181"><ele>770.0</ele><time>2026-04-06T10:55:37.002Z</time></trkpt><trkpt lat="44.382863125460936" lon="10.188391001456749"><ele>774.75</ele><time>2026-04-06T10:55:38.002Z</time></trkpt><trkpt lat="44.382862186746024" lon="10.18852111138342"><ele>779.5</ele><time>2026-04-06T10:55:39.002Z</time></trkpt><trkpt lat="44.382854208340234" lon="10.188682775258933"><ele>784.25</ele><time>2026-04-06T10:55:40.002Z</time></trkpt><trkpt lat="44.3828576177773" lon="10.188863175774419"><ele>789.0</ele><time>2026-04-06T10:55:41.002Z</time></trkpt><trkpt lat="44.38286413879554" lon="10.189032831465344"><ele>790.25</ele><time>2026-04-06T10:55:42.002Z</time></trkpt><trkpt lat="44.38286517341012" lon="10.189215149720567"><ele>791.5</ele><time>2026-04-06T10:55:43.002Z</time></trkpt><trkpt lat="44.3828706981436" lon="10.189394705258518"><ele>792.75</ele><time>2026-04-06T10:55:44.002Z</time></trkpt><trkpt lat="44.38288398174987" lon="10.189562802461342"><ele>794.0</ele><time>2026-04-06T10:55:45.002Z</time></trkpt><trkpt lat="44.38290421686238" lon="10.189725430928528"><ele>795.75</ele><time>2026-04-06T10:55:46.002Z</time></trkpt><trkpt lat="44.38294177162476" lon="10.189876053482914"><ele>797.5</ele><time>2026-04-06T10:55:47.002Z</time></trkpt><trkpt lat="44.382998240532174" lon="10.190028519466633"><ele>799.25</ele><time>2026-04-06T10:55:48.002Z</time></trkpt><trkpt lat="44.38308163962005" lon="10.19018406955002"><ele>801.0</ele><time>2026-04-06T10:55:49.002Z</time></trkpt><trkpt lat="44.383182998168245" lon="10.190342068841648"><ele>796.25</ele><time>2026-04-06T10:55:50.002Z</time></trkpt><trkpt lat="44.383283630686186" lon="10.19049595434799"><ele>791.5</ele><time>2026-04-06T10:55:51.002Z</time></trkpt><trkpt lat="44.38337613779471" lon="10.19063295972782"><ele>786.75</ele><time>2026-04-06T10:55:52.002Z</time></trkpt><trkpt lat="44.383444709301436" lon="10.190780263502372"><ele>782.0</ele><time>2026-04-06T10:55:53.002Z</time></trkpt><trkpt lat="44.383484144024216" lon="10.190948920130397"><ele>782.0</ele><time>2026-04-06T10:55:54.002Z</time></trkpt><trkpt lat="44.383503421214186" lon="10.191137794971997"><ele>782.0</ele><time>2026-04-06T10:55:55.002Z</time></trkpt><trkpt lat="44.38351768498314" lon="10.191339473267544"><ele>782.0</ele><time>2026-04-06T10:55:56.002Z</time></trkpt><trkpt lat="44.383538768878104" lon="10.191544236715357"><ele>782.0</ele><time>2026-04-06T10:55:57.002Z</time></trkpt><trkpt lat="44.383561935581426" lon="10.19175514104881"><ele>782.6666666666667</ele><time>2026-04-06T10:55:58.002Z</time></trkpt><trkpt lat="44.383587860844465" lon="10.191970989372955"><ele>783.3333333333333</ele><time>2026-04-06T10:55:59.002Z</time></trkpt><trkpt lat="44.383615949613706" lon="10.19219581106306"><ele>784.0</ele><time>2026-04-06T10:56:00.002Z</time></trkpt><trkpt lat="44.383637307162694" lon="10.19241923682072"><ele>784.75</ele><time>2026-04-06T10:56:01.002Z</time></trkpt><trkpt lat="44.38366138090487" lon="10.192640460079321"><ele>785.5</ele><time>2026-04-06T10:56:02.002Z</time></trkpt><trkpt lat="44.38368819742368" lon="10.192840027313256"><ele>786.25</ele><time>2026-04-06T10:56:03.002Z</time></trkpt><trkpt lat="44.38372490159654" lon="10.193030147864459"><ele>787.0</ele><time>2026-04-06T10:56:04.002Z</time></trkpt><trkpt lat="44.38376769970638" lon="10.193218090388175"><ele>792.3333333333333</ele><time>2026-04-06T10:56:05.002Z</time></trkpt><trkpt lat="44.38382143246164" lon="10.193413077806413"><ele>797.6666666666667</ele><time>2026-04-06T10:56:06.002Z</time></trkpt><trkpt lat="44.383875618235884" lon="10.193611100219114"><ele>803.0</ele><time>2026-04-06T10:56:07.002Z</time></trkpt><trkpt lat="44.383936816425354" lon="10.193816401623545"><ele>794.5</ele><time>2026-04-06T10:56:08.002Z</time></trkpt><trkpt lat="44.38398917385966" lon="10.194015178595482"><ele>786.0</ele><time>2026-04-06T10:56:09.002Z</time></trkpt><trkpt lat="44.38402929906565" lon="10.194188444684702"><ele>777.5</ele><time>2026-04-06T10:56:10.002Z</time></trkpt><trkpt lat="44.384070882723144" lon="10.19433919875808"><ele>769.0</ele><time>2026-04-06T10:56:11.002Z</time></trkpt><trkpt lat="44.38411066962288" lon="10.19447846612833"><ele>769.0</ele><time>2026-04-06T10:56:12.002Z</time></trkpt><trkpt lat="44.38414267403511" lon="10.19458255763007"><ele>769.0</ele><time>2026-04-06T10:56:13.002Z</time></trkpt><trkpt lat="44.384243811754594" lon="10.194724304748922"><ele>769.0</ele><time>2026-04-06T10:56:14.002Z</time></trkpt><trkpt lat="44.38434156558015" lon="10.194876767116385"><ele>769.0</ele><time>2026-04-06T10:56:15.002Z</time></trkpt><trkpt lat="44.384432386291806" lon="10.194972156607783"><ele>766.25</ele><time>2026-04-06T10:56:16.002Z</time></trkpt><trkpt lat="44.38453638943491" lon="10.195051287013198"><ele>763.5</ele><time>2026-04-06T10:56:17.002Z</time></trkpt><trkpt lat="44.38470087431385" lon="10.19512275844421"><ele>760.75</ele><time>2026-04-06T10:56:18.002Z</time></trkpt><trkpt lat="44.38484007104367" lon="10.19516977096614"><ele>758.0</ele><time>2026-04-06T10:56:19.002Z</time></trkpt><trkpt lat="44.38494241674247" lon="10.195207629857135"><ele>758.0</ele><time>2026-04-06T10:56:20.002Z</time></trkpt><trkpt lat="44.385051227704956" lon="10.195275785502872"><ele>758.0</ele><time>2026-04-06T10:56:21.002Z</time></trkpt><trkpt lat="44.38512444317309" lon="10.195384497169066"><ele>758.0</ele><time>2026-04-06T10:56:22.002Z</time></trkpt><trkpt lat="44.385416547538476" lon="10.19559207441149"><ele>760.6666666666666</ele><time>2026-04-06T10:56:23.002Z</time></trkpt><trkpt lat="44.385597020920045" lon="10.195717345330436"><ele>763.3333333333334</ele><time>2026-04-06T10:56:24.002Z</time></trkpt><trkpt lat="44.38577524198955" lon="10.195805713621317"><ele>766.0</ele><time>2026-04-06T10:56:25.002Z</time></trkpt><trkpt lat="44.385944548601316" lon="10.195903381522234"><ele>766.0</ele><time>2026-04-06T10:56:26.002Z</time></trkpt><trkpt lat="44.38610073894646" lon="10.196019106580914"><ele>766.0</ele><time>2026-04-06T10:56:27.002Z</time></trkpt><trkpt lat="44.3862454283101" lon="10.196106997744838"><ele>766.0</ele><time>2026-04-06T10:56:28.002Z</time></trkpt><trkpt lat="44.38638365138531" lon="10.196186795181669"><ele>758.75</ele><time>2026-04-06T10:56:29.002Z</time></trkpt><trkpt lat="44.38652212378398" lon="10.196222729357828"><ele>751.5</ele><time>2026-04-06T10:56:30.002Z</time></trkpt><trkpt lat="44.38665345072717" lon="10.196254401153176"><ele>744.25</ele><time>2026-04-06T10:56:31.002Z</time></trkpt><trkpt lat="44.38678153285793" lon="10.196269512301285"><ele>737.0</ele><time>2026-04-06T10:56:32.001Z</time></trkpt><trkpt lat="44.38689783499424" lon="10.196303055359273"><ele>737.0</ele><time>2026-04-06T10:56:33.001Z</time></trkpt><trkpt lat="44.38700111634016" lon="10.196364824424604"><ele>737.0</ele><time>2026-04-06T10:56:34.001Z</time></trkpt><trkpt lat="44.387075602254086" lon="10.196463985898538"><ele>737.0</ele><time>2026-04-06T10:56:35.001Z</time></trkpt><trkpt lat="44.387161059856744" lon="10.196596271875345"><ele>737.0</ele><time>2026-04-06T10:56:36.001Z</time></trkpt><trkpt lat="44.38725172870049" lon="10.19674098573222"><ele>737.25</ele><time>2026-04-06T10:56:37.001Z</time></trkpt><trkpt lat="44.38735011067719" lon="10.1968866478037"><ele>737.5</ele><time>2026-04-06T10:56:38.001Z</time></trkpt><trkpt lat="44.38746458851665" lon="10.19697898431335"><ele>737.75</ele><time>2026-04-06T10:56:39.001Z</time></trkpt><trkpt lat="44.38757111839464" lon="10.197061988824265"><ele>738.0</ele><time>2026-04-06T10:56:40.001Z</time></trkpt><trkpt lat="44.3876674012922" lon="10.197117533801658"><ele>738.0</ele><time>2026-04-06T10:56:41.001Z</time></trkpt><trkpt lat="44.38772825011192" lon="10.197195132242582"><ele>738.0</ele><time>2026-04-06T10:56:42.001Z</time></trkpt><trkpt lat="44.387779849857836" lon="10.197271915885887"><ele>738.0</ele><time>2026-04-06T10:56:43.001Z</time></trkpt><trkpt lat="44.387783150380514" lon="10.197401349301273"><ele>738.0</ele><time>2026-04-06T10:56:44.001Z</time></trkpt><trkpt lat="44.3877528215647" lon="10.197555802635437"><ele>738.0</ele><time>2026-04-06T10:56:45.001Z</time></trkpt><trkpt lat="44.38772355670923" lon="10.197753485668576"><ele>741.3333333333334</ele><time>2026-04-06T10:56:46.001Z</time></trkpt><trkpt lat="44.38770247157694" lon="10.19797905317666"><ele>744.6666666666667</ele><time>2026-04-06T10:56:47.001Z</time></trkpt><trkpt lat="44.38765922155766" lon="10.198219122477868"><ele>748.0</ele><time>2026-04-06T10:56:48.001Z</time></trkpt><trkpt lat="44.38761196697476" lon="10.198441996211104"><ele>748.0</ele><time>2026-04-06T10:56:49.001Z</time></trkpt><trkpt lat="44.387541737495404" lon="10.198651823060358"><ele>748.0</ele><time>2026-04-06T10:56:50.001Z</time></trkpt><trkpt lat="44.387466005657394" lon="10.198859506945157"><ele>748.0</ele><time>2026-04-06T10:56:51.001Z</time></trkpt><trkpt lat="44.3873966626698" lon="10.199052819011992"><ele>745.25</ele><time>2026-04-06T10:56:52.001Z</time></trkpt><trkpt lat="44.38735129174972" lon="10.199218090057565"><ele>742.5</ele><time>2026-04-06T10:56:53.001Z</time></trkpt><trkpt lat="44.387363273839085" lon="10.19937484459337"><ele>739.75</ele><time>2026-04-06T10:56:54.001Z</time></trkpt><trkpt lat="44.38740247416068" lon="10.199523679014998"><ele>737.0</ele><time>2026-04-06T10:56:55.001Z</time></trkpt><trkpt lat="44.387456679586826" lon="10.199693721340717"><ele>736.0</ele><time>2026-04-06T10:56:56.001Z</time></trkpt><trkpt lat="44.387514724358326" lon="10.199897384429612"><ele>735.0</ele><time>2026-04-06T10:56:57.001Z</time></trkpt><trkpt lat="44.3875855727344" lon="10.200105934729873"><ele>734.0</ele><time>2026-04-06T10:56:58.002Z</time></trkpt><trkpt lat="44.387655421383336" lon="10.200307912307034"><ele>734.0</ele><time>2026-04-06T10:56:59.002Z</time></trkpt><trkpt lat="44.38772308868436" lon="10.200502957870233"><ele>734.0</ele><time>2026-04-06T10:57:00.002Z</time></trkpt><trkpt lat="44.38779287665619" lon="10.20067018808174"><ele>734.0</ele><time>2026-04-06T10:57:01.002Z</time></trkpt><trkpt lat="44.387874169173884" lon="10.200823760976771"><ele>734.0</ele><time>2026-04-06T10:57:02.002Z</time></trkpt><trkpt lat="44.38795995005522" lon="10.200951379907607"><ele>732.75</ele><time>2026-04-06T10:57:03.002Z</time></trkpt><trkpt lat="44.388053949155115" lon="10.20106546619659"><ele>731.5</ele><time>2026-04-06T10:57:04.002Z</time></trkpt><trkpt lat="44.3881421115597" lon="10.201182044634113"><ele>730.25</ele><time>2026-04-06T10:57:05.002Z</time></trkpt><trkpt lat="44.388227478756654" lon="10.201298710917706"><ele>729.0</ele><time>2026-04-06T10:57:06.002Z</time></trkpt><trkpt lat="44.38830587570873" lon="10.201426726155882"><ele>729.0</ele><time>2026-04-06T10:57:07.002Z</time></trkpt><trkpt lat="44.38836379960231" lon="10.201566745704953"><ele>729.0</ele><time>2026-04-06T10:57:08.002Z</time></trkpt><trkpt lat="44.38839655209716" lon="10.201731548982352"><ele>729.0</ele><time>2026-04-06T10:57:09.002Z</time></trkpt><trkpt lat="44.38841894672891" lon="10.201905974640596"><ele>729.0</ele><time>2026-04-06T10:57:10.002Z</time></trkpt><trkpt lat="44.38844699071861" lon="10.202090678050714"><ele>729.0</ele><time>2026-04-06T10:57:11.002Z</time></trkpt><trkpt lat="44.38847458430948" lon="10.202300293042482"><ele>729.0</ele><time>2026-04-06T10:57:12.002Z</time></trkpt><trkpt lat="44.38851258582253" lon="10.202544153114227"><ele>729.0</ele><time>2026-04-06T10:57:13.002Z</time></trkpt><trkpt lat="44.388555219366886" lon="10.202788799921578"><ele>727.3333333333334</ele><time>2026-04-06T10:57:14.002Z</time></trkpt><trkpt lat="44.38859226577108" lon="10.203046552534396"><ele>725.6666666666667</ele><time>2026-04-06T10:57:15.002Z</time></trkpt><trkpt lat="44.38863215464393" lon="10.20330041486322"><ele>724.0</ele><time>2026-04-06T10:57:16.002Z</time></trkpt><trkpt lat="44.38866970016147" lon="10.203553237386238"><ele>723.0</ele><time>2026-04-06T10:57:17.002Z</time></trkpt><trkpt lat="44.388700129363066" lon="10.203760528111506"><ele>722.0</ele><time>2026-04-06T10:57:18.002Z</time></trkpt><trkpt lat="44.38872724865084" lon="10.203928977279718"><ele>721.0</ele><time>2026-04-06T10:57:19.002Z</time></trkpt><trkpt lat="44.3887654737141" lon="10.204058961766576"><ele>720.0</ele><time>2026-04-06T10:57:20.002Z</time></trkpt><trkpt lat="44.38883808907221" lon="10.204174459308254"><ele>719.0</ele><time>2026-04-06T10:57:21.002Z</time></trkpt><trkpt lat="44.38893918072496" lon="10.204258676678052"><ele>718.0</ele><time>2026-04-06T10:57:22.002Z</time></trkpt><trkpt lat="44.389061854462945" lon="10.20431647765635"><ele>717.0</ele><time>2026-04-06T10:57:23.002Z</time></trkpt><trkpt lat="44.38916406387531" lon="10.204406179388089"><ele>716.0</ele><time>2026-04-06T10:57:24.002Z</time></trkpt><trkpt lat="44.389234636616926" lon="10.204546521471613"><ele>716.0</ele><time>2026-04-06T10:57:25.002Z</time></trkpt><trkpt lat="44.389271746174686" lon="10.20471011746383"><ele>716.0</ele><time>2026-04-06T10:57:26.002Z</time></trkpt><trkpt lat="44.38929637512989" lon="10.204913906356344"><ele>716.0</ele><time>2026-04-06T10:57:27.002Z</time></trkpt><trkpt lat="44.389318140560626" lon="10.205161822820829"><ele>716.0</ele><time>2026-04-06T10:57:28.002Z</time></trkpt><trkpt lat="44.389349402826056" lon="10.205450551932875"><ele>718.6666666666666</ele><time>2026-04-06T10:57:29.002Z</time></trkpt><trkpt lat="44.38938591212707" lon="10.205743948997629"><ele>721.3333333333334</ele><time>2026-04-06T10:57:30.002Z</time></trkpt><trkpt lat="44.38941193016241" lon="10.20602189799854"><ele>724.0</ele><time>2026-04-06T10:57:31.002Z</time></trkpt><trkpt lat="44.38942266998785" lon="10.206248656621009"><ele>724.0</ele><time>2026-04-06T10:57:32.002Z</time></trkpt><trkpt lat="44.38942215638065" lon="10.206453138633364"><ele>724.0</ele><time>2026-04-06T10:57:33.002Z</time></trkpt><trkpt lat="44.38941040593126" lon="10.206669266413007"><ele>724.0</ele><time>2026-04-06T10:57:34.002Z</time></trkpt><trkpt lat="44.389390030337786" lon="10.20690385500165"><ele>723.0</ele><time>2026-04-06T10:57:35.002Z</time></trkpt><trkpt lat="44.38936328552871" lon="10.207132068398723"><ele>722.0</ele><time>2026-04-06T10:57:36.002Z</time></trkpt><trkpt lat="44.38933088158452" lon="10.207362587466928"><ele>721.0</ele><time>2026-04-06T10:57:37.002Z</time></trkpt><trkpt lat="44.38928538561888" lon="10.207593515292908"><ele>721.0</ele><time>2026-04-06T10:57:38.002Z</time></trkpt><trkpt lat="44.38922670630884" lon="10.207827272436434"><ele>721.0</ele><time>2026-04-06T10:57:39.002Z</time></trkpt><trkpt lat="44.38916977646597" lon="10.208060623703409"><ele>721.0</ele><time>2026-04-06T10:57:40.002Z</time></trkpt><trkpt lat="44.389106740774686" lon="10.20828680341773"><ele>716.0</ele><time>2026-04-06T10:57:41.002Z</time></trkpt><trkpt lat="44.389049498774064" lon="10.20850065707507"><ele>711.0</ele><time>2026-04-06T10:57:42.002Z</time></trkpt><trkpt lat="44.38900883537968" lon="10.208728290152148"><ele>706.0</ele><time>2026-04-06T10:57:43.002Z</time></trkpt><trkpt lat="44.388987910059456" lon="10.208968180411523"><ele>703.3333333333334</ele><time>2026-04-06T10:57:44.002Z</time></trkpt><trkpt lat="44.38897421647325" lon="10.209210990488343"><ele>700.6666666666666</ele><time>2026-04-06T10:57:45.002Z</time></trkpt><trkpt lat="44.38896468886303" lon="10.209441926599107"><ele>698.0</ele><time>2026-04-06T10:57:46.002Z</time></trkpt><trkpt lat="44.388952395159464" lon="10.209662203070794"><ele>696.75</ele><time>2026-04-06T10:57:47.002Z</time></trkpt><trkpt lat="44.38893165593811" lon="10.209866935689705"><ele>695.5</ele><time>2026-04-06T10:57:48.002Z</time></trkpt><trkpt lat="44.388908752359875" lon="10.210052697883548"><ele>694.25</ele><time>2026-04-06T10:57:49.002Z</time></trkpt><trkpt lat="44.38889695044943" lon="10.210192730607055"><ele>693.0</ele><time>2026-04-06T10:57:50.002Z</time></trkpt><trkpt lat="44.38889758524243" lon="10.210302028241548"><ele>693.0</ele><time>2026-04-06T10:57:51.002Z</time></trkpt><trkpt lat="44.38891864795299" lon="10.210411483091473"><ele>693.0</ele><time>2026-04-06T10:57:52.002Z</time></trkpt><trkpt lat="44.38896227549856" lon="10.210528019311328"><ele>693.0</ele><time>2026-04-06T10:57:53.002Z</time></trkpt><trkpt lat="44.38901692314205" lon="10.210638583995546"><ele>693.0</ele><time>2026-04-06T10:57:54.002Z</time></trkpt><trkpt lat="44.389083777700954" lon="10.210735421897114"><ele>693.0</ele><time>2026-04-06T10:57:55.002Z</time></trkpt><trkpt lat="44.3891702144997" lon="10.210796454043823"><ele>693.8</ele><time>2026-04-06T10:57:56.002Z</time></trkpt><trkpt lat="44.38926666788195" lon="10.210795535888844"><ele>694.5999999999999</ele><time>2026-04-06T10:57:57.002Z</time></trkpt><trkpt lat="44.38937211939996" lon="10.210792804585447"><ele>695.4000000000001</ele><time>2026-04-06T10:57:58.002Z</time></trkpt><trkpt lat="44.38946795224515" lon="10.21075063654894"><ele>696.2</ele><time>2026-04-06T10:57:59.002Z</time></trkpt><trkpt lat="44.389557442925486" lon="10.21073244937253"><ele>697.0</ele><time>2026-04-06T10:58:00.002Z</time></trkpt><trkpt lat="44.38965488684544" lon="10.210736624959463"><ele>695.25</ele><time>2026-04-06T10:58:01.002Z</time></trkpt><trkpt lat="44.38976809762161" lon="10.210760964373955"><ele>693.5</ele><time>2026-04-06T10:58:02.002Z</time></trkpt><trkpt lat="44.38988296353958" lon="10.210814843037815"><ele>691.75</ele><time>2026-04-06T10:58:03.002Z</time></trkpt><trkpt lat="44.389986534498284" lon="10.210879626043317"><ele>690.0</ele><time>2026-04-06T10:58:04.002Z</time></trkpt><trkpt lat="44.39008830803736" lon="10.210966023316836"><ele>690.0</ele><time>2026-04-06T10:58:05.002Z</time></trkpt><trkpt lat="44.3901726360428" lon="10.211122481419148"><ele>690.0</ele><time>2026-04-06T10:58:06.002Z</time></trkpt><trkpt lat="44.390242679898215" lon="10.211318401233923"><ele>690.0</ele><time>2026-04-06T10:58:07.002Z</time></trkpt><trkpt lat="44.390301568131065" lon="10.211508313636777"><ele>690.0</ele><time>2026-04-06T10:58:08.002Z</time></trkpt><trkpt lat="44.39036644430448" lon="10.211669751514089"><ele>690.0</ele><time>2026-04-06T10:58:09.002Z</time></trkpt><trkpt lat="44.39043684106882" lon="10.211788633846282"><ele>690.0</ele><time>2026-04-06T10:58:10.002Z</time></trkpt><trkpt lat="44.390520647323086" lon="10.21185801943442"><ele>690.0</ele><time>2026-04-06T10:58:11.002Z</time></trkpt><trkpt lat="44.39062381264556" lon="10.211896175327784"><ele>690.0</ele><time>2026-04-06T10:58:12.002Z</time></trkpt><trkpt lat="44.39075145156093" lon="10.211942427319173"><ele>690.0</ele><time>2026-04-06T10:58:13.002Z</time></trkpt><trkpt lat="44.390909778928446" lon="10.211933997665207"><ele>690.0</ele><time>2026-04-06T10:58:14.002Z</time></trkpt><trkpt lat="44.391070766193906" lon="10.211930168718931"><ele>690.0</ele><time>2026-04-06T10:58:15.002Z</time></trkpt><trkpt lat="44.391217979142006" lon="10.21193102976523"><ele>690.0</ele><time>2026-04-06T10:58:16.002Z</time></trkpt><trkpt lat="44.3913450863048" lon="10.211960271607786"><ele>690.0</ele><time>2026-04-06T10:58:17.002Z</time></trkpt><trkpt lat="44.39147349508547" lon="10.212030622212035"><ele>687.6666666666666</ele><time>2026-04-06T10:58:18.002Z</time></trkpt><trkpt lat="44.391601019001" lon="10.212123918625162"><ele>685.3333333333333</ele><time>2026-04-06T10:58:19.002Z</time></trkpt><trkpt lat="44.39173558122431" lon="10.212219538293029"><ele>683.0</ele><time>2026-04-06T10:58:20.002Z</time></trkpt><trkpt lat="44.391879854409865" lon="10.212300153303662"><ele>687.6666666666666</ele><time>2026-04-06T10:58:21.002Z</time></trkpt><trkpt lat="44.39201681834708" lon="10.21241605314948"><ele>692.3333333333334</ele><time>2026-04-06T10:58:22.002Z</time></trkpt><trkpt lat="44.39215840969279" lon="10.212509079783494"><ele>697.0</ele><time>2026-04-06T10:58:23.002Z</time></trkpt><trkpt lat="44.39230658398411" lon="10.212566043064319"><ele>697.0</ele><time>2026-04-06T10:58:24.002Z</time></trkpt><trkpt lat="44.392471187687626" lon="10.2125662689768"><ele>697.0</ele><time>2026-04-06T10:58:25.002Z</time></trkpt><trkpt lat="44.39264500663326" lon="10.212527607027374"><ele>697.0</ele><time>2026-04-06T10:58:26.002Z</time></trkpt><trkpt lat="44.39282846480223" lon="10.212473288159895"><ele>697.0</ele><time>2026-04-06T10:58:27.002Z</time></trkpt><trkpt lat="44.393004962945284" lon="10.21242082294964"><ele>697.0</ele><time>2026-04-06T10:58:28.001Z</time></trkpt><trkpt lat="44.39315775735491" lon="10.212375450414676"><ele>697.0</ele><time>2026-04-06T10:58:29.001Z</time></trkpt><trkpt lat="44.39329518457438" lon="10.212346558439098"><ele>697.5</ele><time>2026-04-06T10:58:30.001Z</time></trkpt><trkpt lat="44.393413459955845" lon="10.212351076912665"><ele>698.0</ele><time>2026-04-06T10:58:31.001Z</time></trkpt><trkpt lat="44.39352440437707" lon="10.212412687485374"><ele>698.5</ele><time>2026-04-06T10:58:32.001Z</time></trkpt><trkpt lat="44.393623282680686" lon="10.212531752000972"><ele>699.0</ele><time>2026-04-06T10:58:33.001Z</time></trkpt><trkpt lat="44.39373989988897" lon="10.21263929982337"><ele>698.75</ele><time>2026-04-06T10:58:34.001Z</time></trkpt><trkpt lat="44.39384167860823" lon="10.212722966033237"><ele>698.5</ele><time>2026-04-06T10:58:35.001Z</time></trkpt><trkpt lat="44.393949391710315" lon="10.212740465160614"><ele>698.25</ele><time>2026-04-06T10:58:36.001Z</time></trkpt><trkpt lat="44.39406422629378" lon="10.212713646973317"><ele>698.0</ele><time>2026-04-06T10:58:37.001Z</time></trkpt><trkpt lat="44.39417612707316" lon="10.212588965896783"><ele>698.0</ele><time>2026-04-06T10:58:38.001Z</time></trkpt><trkpt lat="44.39429257853279" lon="10.212453671031495"><ele>698.0</ele><time>2026-04-06T10:58:39.001Z</time></trkpt><trkpt lat="44.39440165653626" lon="10.212326775524204"><ele>698.0</ele><time>2026-04-06T10:58:40.001Z</time></trkpt><trkpt lat="44.39450877094754" lon="10.21222403161592"><ele>698.0</ele><time>2026-04-06T10:58:41.001Z</time></trkpt><trkpt lat="44.394599189290574" lon="10.212175449512184"><ele>697.25</ele><time>2026-04-06T10:58:42.001Z</time></trkpt><trkpt lat="44.39470643843424" lon="10.212146322658963"><ele>696.5</ele><time>2026-04-06T10:58:43.001Z</time></trkpt><trkpt lat="44.39481895951466" lon="10.212203009695692"><ele>695.75</ele><time>2026-04-06T10:58:44.001Z</time></trkpt><trkpt lat="44.39492585883961" lon="10.212283264150011"><ele>695.0</ele><time>2026-04-06T10:58:45.001Z</time></trkpt><trkpt lat="44.39502135748494" lon="10.212364690441548"><ele>695.0</ele><time>2026-04-06T10:58:46.001Z</time></trkpt><trkpt lat="44.39506939454368" lon="10.212479664198163"><ele>695.0</ele><time>2026-04-06T10:58:47.001Z</time></trkpt><trkpt lat="44.39507157634187" lon="10.21260633380901"><ele>695.0</ele><time>2026-04-06T10:58:48.001Z</time></trkpt><trkpt lat="44.39502724232801" lon="10.212725070298445"><ele>695.0</ele><time>2026-04-06T10:58:49.001Z</time></trkpt><trkpt lat="44.39495500086053" lon="10.212854997132414"><ele>695.0</ele><time>2026-04-06T10:58:50.001Z</time></trkpt><trkpt lat="44.394873210200814" lon="10.213001903767884"><ele>695.0</ele><time>2026-04-06T10:58:51.001Z</time></trkpt><trkpt lat="44.39478924858112" lon="10.213145481514015"><ele>695.0</ele><time>2026-04-06T10:58:52.001Z</time></trkpt><trkpt lat="44.39469691392703" lon="10.213243947590762"><ele>695.0</ele><time>2026-04-06T10:58:53.001Z</time></trkpt><trkpt lat="44.39457943567167" lon="10.213323797826032"><ele>695.0</ele><time>2026-04-06T10:58:54.001Z</time></trkpt><trkpt lat="44.39443164987235" lon="10.213411474325298"><ele>696.3333333333333</ele><time>2026-04-06T10:58:55.001Z</time></trkpt><trkpt lat="44.394282945464134" lon="10.213522527410833"><ele>697.6666666666666</ele><time>2026-04-06T10:58:56.001Z</time></trkpt><trkpt lat="44.394139587106245" lon="10.213611499439102"><ele>699.0</ele><time>2026-04-06T10:58:57.001Z</time></trkpt><trkpt lat="44.394001594118066" lon="10.21370335580959"><ele>699.0</ele><time>2026-04-06T10:58:58.001Z</time></trkpt><trkpt lat="44.39388041189731" lon="10.213788774229194"><ele>699.0</ele><time>2026-04-06T10:58:59.001Z</time></trkpt><trkpt lat="44.39377418958827" lon="10.213878599258441"><ele>699.0</ele><time>2026-04-06T10:59:00.001Z</time></trkpt><trkpt lat="44.39368102771965" lon="10.21398783780518"><ele>699.0</ele><time>2026-04-06T10:59:01.001Z</time></trkpt><trkpt lat="44.39360465148246" lon="10.214115081840884"><ele>698.6</ele><time>2026-04-06T10:59:02.001Z</time></trkpt><trkpt lat="44.39355289662043" lon="10.2142554293024"><ele>698.2</ele><time>2026-04-06T10:59:03.001Z</time></trkpt><trkpt lat="44.39352757341141" lon="10.214405842747905"><ele>697.8000000000001</ele><time>2026-04-06T10:59:04.001Z</time></trkpt><trkpt lat="44.39351104758082" lon="10.214548967838951"><ele>697.4000000000001</ele><time>2026-04-06T10:59:05.001Z</time></trkpt><trkpt lat="44.39347779802305" lon="10.21469196342524"><ele>697.0</ele><time>2026-04-06T10:59:06.001Z</time></trkpt><trkpt lat="44.39341571334765" lon="10.21480753064642"><ele>695.5</ele><time>2026-04-06T10:59:07.001Z</time></trkpt><trkpt lat="44.39332395035943" lon="10.214897018855192"><ele>694.0</ele><time>2026-04-06T10:59:08.001Z</time></trkpt><trkpt lat="44.39320475325027" lon="10.214956591302904"><ele>692.5</ele><time>2026-04-06T10:59:09.001Z</time></trkpt><trkpt lat="44.393054515672596" lon="10.21500681855943"><ele>691.0</ele><time>2026-04-06T10:59:10.001Z</time></trkpt><trkpt lat="44.392883266381624" lon="10.21506621821239"><ele>691.0</ele><time>2026-04-06T10:59:11.001Z</time></trkpt><trkpt lat="44.392720679679535" lon="10.215134778418827"><ele>691.0</ele><time>2026-04-06T10:59:12.001Z</time></trkpt><trkpt lat="44.39257273458179" lon="10.21519427187975"><ele>691.0</ele><time>2026-04-06T10:59:13.001Z</time></trkpt><trkpt lat="44.39242467483234" lon="10.21525981817402"><ele>691.0</ele><time>2026-04-06T10:59:14.001Z</time></trkpt><trkpt lat="44.39229198708218" lon="10.215322804857735"><ele>691.0</ele><time>2026-04-06T10:59:15.001Z</time></trkpt><trkpt lat="44.39216635216718" lon="10.21540062327873"><ele>691.0</ele><time>2026-04-06T10:59:16.001Z</time></trkpt><trkpt lat="44.39205288937237" lon="10.215506280582003"><ele>691.0</ele><time>2026-04-06T10:59:17.001Z</time></trkpt><trkpt lat="44.39195448762695" lon="10.215625446470272"><ele>692.75</ele><time>2026-04-06T10:59:18.001Z</time></trkpt><trkpt lat="44.391869310572595" lon="10.215755163293261"><ele>694.5</ele><time>2026-04-06T10:59:19.001Z</time></trkpt><trkpt lat="44.39178415465861" lon="10.215891148901004"><ele>696.25</ele><time>2026-04-06T10:59:20.002Z</time></trkpt><trkpt lat="44.39171054369344" lon="10.215996334361096"><ele>698.0</ele><time>2026-04-06T10:59:21.002Z</time></trkpt><trkpt lat="44.39166501552153" lon="10.2161064404644"><ele>698.0</ele><time>2026-04-06T10:59:22.002Z</time></trkpt><trkpt lat="44.39166331757225" lon="10.216241302818826"><ele>698.0</ele><time>2026-04-06T10:59:23.002Z</time></trkpt><trkpt lat="44.391684259113795" lon="10.216395047726312"><ele>698.0</ele><time>2026-04-06T10:59:24.002Z</time></trkpt><trkpt lat="44.39170039870798" lon="10.216569537141497"><ele>698.0</ele><time>2026-04-06T10:59:25.002Z</time></trkpt><trkpt lat="44.39168895806779" lon="10.21676024684993"><ele>693.5</ele><time>2026-04-06T10:59:26.002Z</time></trkpt><trkpt lat="44.39164824646352" lon="10.216963342836044"><ele>689.0</ele><time>2026-04-06T10:59:27.002Z</time></trkpt><trkpt lat="44.391597549715875" lon="10.217152646826992"><ele>684.5</ele><time>2026-04-06T10:59:28.002Z</time></trkpt><trkpt lat="44.391573489978356" lon="10.217347464486478"><ele>680.0</ele><time>2026-04-06T10:59:29.002Z</time></trkpt><trkpt lat="44.39157437722128" lon="10.21755937112361"><ele>677.5</ele><time>2026-04-06T10:59:30.002Z</time></trkpt><trkpt lat="44.39158708879205" lon="10.217783559633144"><ele>675.0</ele><time>2026-04-06T10:59:31.002Z</time></trkpt><trkpt lat="44.39160307475953" lon="10.217990971206678"><ele>672.5</ele><time>2026-04-06T10:59:32.002Z</time></trkpt><trkpt lat="44.39162346409538" lon="10.218162241195177"><ele>670.0</ele><time>2026-04-06T10:59:33.002Z</time></trkpt><trkpt lat="44.391586151401434" lon="10.218272083593106"><ele>668.2</ele><time>2026-04-06T10:59:34.002Z</time></trkpt><trkpt lat="44.39155909249905" lon="10.218395679124457"><ele>666.4</ele><time>2026-04-06T10:59:35.002Z</time></trkpt><trkpt lat="44.39150493142742" lon="10.218494139521415"><ele>664.5999999999999</ele><time>2026-04-06T10:59:36.002Z</time></trkpt><trkpt lat="44.39143067353068" lon="10.21857094951051"><ele>662.8</ele><time>2026-04-06T10:59:37.002Z</time></trkpt><trkpt lat="44.39132486271934" lon="10.218625370052504"><ele>661.0</ele><time>2026-04-06T10:59:38.002Z</time></trkpt><trkpt lat="44.391191731999726" lon="10.218659441501252"><ele>663.4</ele><time>2026-04-06T10:59:39.002Z</time></trkpt><trkpt lat="44.391074757678176" lon="10.218703516371946"><ele>665.8</ele><time>2026-04-06T10:59:40.002Z</time></trkpt><trkpt lat="44.390971344698706" lon="10.218756357558988"><ele>668.1999999999999</ele><time>2026-04-06T10:59:41.002Z</time></trkpt><trkpt lat="44.39090239920295" lon="10.218820414498552"><ele>670.5999999999999</ele><time>2026-04-06T10:59:42.002Z</time></trkpt><trkpt lat="44.3908488830407" lon="10.218935917595667"><ele>673.0</ele><time>2026-04-06T10:59:43.002Z</time></trkpt><trkpt lat="44.390822605251365" lon="10.219052438332955"><ele>673.0</ele><time>2026-04-06T10:59:44.002Z</time></trkpt><trkpt lat="44.39080612704042" lon="10.21917321638244"><ele>673.0</ele><time>2026-04-06T10:59:45.002Z</time></trkpt><trkpt lat="44.390822815276515" lon="10.219285072730393"><ele>673.0</ele><time>2026-04-06T10:59:46.002Z</time></trkpt><trkpt lat="44.39087620547336" lon="10.219388349559042"><ele>673.0</ele><time>2026-04-06T10:59:47.002Z</time></trkpt><trkpt lat="44.39096011561015" lon="10.219461485221776"><ele>673.0</ele><time>2026-04-06T10:59:48.002Z</time></trkpt><trkpt lat="44.39107684909905" lon="10.219515173869658"><ele>673.0</ele><time>2026-04-06T10:59:49.002Z</time></trkpt><trkpt lat="44.39119703628471" lon="10.219601824537317"><ele>673.0</ele><time>2026-04-06T10:59:50.002Z</time></trkpt><trkpt lat="44.391321409109864" lon="10.219658787687527"><ele>673.0</ele><time>2026-04-06T10:59:51.002Z</time></trkpt><trkpt lat="44.39143962721856" lon="10.219731910203723"><ele>673.0</ele><time>2026-04-06T10:59:52.002Z</time></trkpt><trkpt lat="44.391516745069794" lon="10.219798085112798"><ele>667.8</ele><time>2026-04-06T10:59:53.002Z</time></trkpt><trkpt lat="44.39154429185424" lon="10.219883670926746"><ele>662.5999999999999</ele><time>2026-04-06T10:59:54.002Z</time></trkpt><trkpt lat="44.391547410207735" lon="10.219996893193187"><ele>657.4000000000001</ele><time>2026-04-06T10:59:55.002Z</time></trkpt><trkpt lat="44.39151620051716" lon="10.220134172227187"><ele>652.2</ele><time>2026-04-06T10:59:56.002Z</time></trkpt><trkpt lat="44.391445207903196" lon="10.22028810266951"><ele>647.0</ele><time>2026-04-06T10:59:57.002Z</time></trkpt><trkpt lat="44.3913533608613" lon="10.220452484621415"><ele>652.6666666666666</ele><time>2026-04-06T10:59:58.002Z</time></trkpt><trkpt lat="44.39123669829555" lon="10.220616580098435"><ele>658.3333333333334</ele><time>2026-04-06T10:59:59.002Z</time></trkpt><trkpt lat="44.391090425898156" lon="10.220773123974029"><ele>664.0</ele><time>2026-04-06T11:00:00.002Z</time></trkpt><trkpt lat="44.39094361705787" lon="10.220914623550353"><ele>664.0</ele><time>2026-04-06T11:00:01.002Z</time></trkpt><trkpt lat="44.390805674364984" lon="10.22105595725063"><ele>664.0</ele><time>2026-04-06T11:00:02.002Z</time></trkpt><trkpt lat="44.390668692658764" lon="10.22117774156481"><ele>664.0</ele><time>2026-04-06T11:00:03.002Z</time></trkpt><trkpt lat="44.39053723861611" lon="10.22128870463966"><ele>663.8000000000001</ele><time>2026-04-06T11:00:04.002Z</time></trkpt><trkpt lat="44.39042309117117" lon="10.22137028859744"><ele>663.6</ele><time>2026-04-06T11:00:05.002Z</time></trkpt><trkpt lat="44.390328554509104" lon="10.22143904505247"><ele>663.4</ele><time>2026-04-06T11:00:06.002Z</time></trkpt><trkpt lat="44.39026743828523" lon="10.221514282990778"><ele>663.2</ele><time>2026-04-06T11:00:07.002Z</time></trkpt><trkpt lat="44.39023553698196" lon="10.221598875148969"><ele>663.0</ele><time>2026-04-06T11:00:08.002Z</time></trkpt><trkpt lat="44.39022905806673" lon="10.22170118365972"><ele>663.0</ele><time>2026-04-06T11:00:09.002Z</time></trkpt><trkpt lat="44.39024532253579" lon="10.22180495942585"><ele>663.0</ele><time>2026-04-06T11:00:10.002Z</time></trkpt><trkpt lat="44.3902741322508" lon="10.221909260758014"><ele>663.0</ele><time>2026-04-06T11:00:11.002Z</time></trkpt><trkpt lat="44.39029259495764" lon="10.222014177670427"><ele>663.0</ele><time>2026-04-06T11:00:12.002Z</time></trkpt><trkpt lat="44.39030631723061" lon="10.222107830689616"><ele>663.0</ele><time>2026-04-06T11:00:13.002Z</time></trkpt><trkpt lat="44.39033044957824" lon="10.222258287187014"><ele>663.0</ele><time>2026-04-06T11:00:15.002Z</time></trkpt><trkpt lat="44.39034592013808" lon="10.222374191795144"><ele>662.8</ele><time>2026-04-06T11:00:22.002Z</time></trkpt><trkpt lat="44.39045041556792" lon="10.222377203620571"><ele>662.5999999999999</ele><time>2026-04-06T11:00:24.002Z</time></trkpt><trkpt lat="44.39054243125682" lon="10.222402638536362"><ele>662.4000000000001</ele><time>2026-04-06T11:00:25.002Z</time></trkpt><trkpt lat="44.39065037982272" lon="10.222448968631197"><ele>662.2</ele><time>2026-04-06T11:00:26.002Z</time></trkpt><trkpt lat="44.39076369955048" lon="10.222431043796055"><ele>662.0</ele><time>2026-04-06T11:00:27.002Z</time></trkpt><trkpt lat="44.390906798769755" lon="10.222431063508886"><ele>663.6666666666666</ele><time>2026-04-06T11:00:28.002Z</time></trkpt><trkpt lat="44.39106371495249" lon="10.222361997244702"><ele>665.3333333333334</ele><time>2026-04-06T11:00:29.002Z</time></trkpt><trkpt lat="44.39120925496219" lon="10.222330682602665"><ele>667.0</ele><time>2026-04-06T11:00:30.002Z</time></trkpt><trkpt lat="44.39135825371411" lon="10.22226290859257"><ele>660.3333333333334</ele><time>2026-04-06T11:00:31.002Z</time></trkpt><trkpt lat="44.39151983387341" lon="10.22218653918784"><ele>653.6666666666666</ele><time>2026-04-06T11:00:32.002Z</time></trkpt><trkpt lat="44.39167228151466" lon="10.222148734310096"><ele>647.0</ele><time>2026-04-06T11:00:33.002Z</time></trkpt><trkpt lat="44.39180743412772" lon="10.222128518903169"><ele>647.0</ele><time>2026-04-06T11:00:34.002Z</time></trkpt><trkpt lat="44.39194981892891" lon="10.222117986365225"><ele>647.0</ele><time>2026-04-06T11:00:35.002Z</time></trkpt><trkpt lat="44.39208481306591" lon="10.22210885268344"><ele>647.0</ele><time>2026-04-06T11:00:36.002Z</time></trkpt><trkpt lat="44.39220443489959" lon="10.222097566989488"><ele>647.0</ele><time>2026-04-06T11:00:37.002Z</time></trkpt><trkpt lat="44.392303025360185" lon="10.222065397031905"><ele>651.25</ele><time>2026-04-06T11:00:38.002Z</time></trkpt><trkpt lat="44.39238944301102" lon="10.221984733422358"><ele>655.5</ele><time>2026-04-06T11:00:39.002Z</time></trkpt><trkpt lat="44.392462727117575" lon="10.221860805035925"><ele>659.75</ele><time>2026-04-06T11:00:40.002Z</time></trkpt><trkpt lat="44.39253448373298" lon="10.22169238699702"><ele>664.0</ele><time>2026-04-06T11:00:41.002Z</time></trkpt><trkpt lat="44.39261996177414" lon="10.221497765307468"><ele>658.0</ele><time>2026-04-06T11:00:42.002Z</time></trkpt><trkpt lat="44.39273849009159" lon="10.22130136517369"><ele>652.0</ele><time>2026-04-06T11:00:43.002Z</time></trkpt><trkpt lat="44.392885543235934" lon="10.221136932246548"><ele>646.0</ele><time>2026-04-06T11:00:44.002Z</time></trkpt><trkpt lat="44.39300515899695" lon="10.220955425654315"><ele>651.5</ele><time>2026-04-06T11:00:45.002Z</time></trkpt><trkpt lat="44.393119895940906" lon="10.220807440689807"><ele>657.0</ele><time>2026-04-06T11:00:46.002Z</time></trkpt><trkpt lat="44.39321876788036" lon="10.220669127218171"><ele>662.5</ele><time>2026-04-06T11:00:47.002Z</time></trkpt><trkpt lat="44.393298876168046" lon="10.220514904555872"><ele>668.0</ele><time>2026-04-06T11:00:48.002Z</time></trkpt><trkpt lat="44.39336248950801" lon="10.220319478403818"><ele>668.0</ele><time>2026-04-06T11:00:49.002Z</time></trkpt><trkpt lat="44.393416490178836" lon="10.220130274670614"><ele>668.0</ele><time>2026-04-06T11:00:50.002Z</time></trkpt><trkpt lat="44.39349930900797" lon="10.219976648308254"><ele>668.0</ele><time>2026-04-06T11:00:51.002Z</time></trkpt><trkpt lat="44.393583756479195" lon="10.219823274212748"><ele>668.0</ele><time>2026-04-06T11:00:52.002Z</time></trkpt><trkpt lat="44.39369121572247" lon="10.219675907973157"><ele>663.0</ele><time>2026-04-06T11:00:53.002Z</time></trkpt><trkpt lat="44.393806135703066" lon="10.219543606349898"><ele>658.0</ele><time>2026-04-06T11:00:54.002Z</time></trkpt><trkpt lat="44.39393731464436" lon="10.2194235557124"><ele>653.0</ele><time>2026-04-06T11:00:55.002Z</time></trkpt><trkpt lat="44.39407776379991" lon="10.219306665246386"><ele>659.3333333333333</ele><time>2026-04-06T11:00:56.002Z</time></trkpt><trkpt lat="44.39421400847228" lon="10.219174078211426"><ele>665.6666666666666</ele><time>2026-04-06T11:00:57.002Z</time></trkpt><trkpt lat="44.39434551550277" lon="10.219056106291282"><ele>672.0</ele><time>2026-04-06T11:00:58.002Z</time></trkpt><trkpt lat="44.39446558050777" lon="10.21892557453961"><ele>672.0</ele><time>2026-04-06T11:00:59.002Z</time></trkpt><trkpt lat="44.39456086721806" lon="10.218766052999227"><ele>672.0</ele><time>2026-04-06T11:01:00.002Z</time></trkpt><trkpt lat="44.394646624498485" lon="10.218564221391587"><ele>672.0</ele><time>2026-04-06T11:01:01.002Z</time></trkpt><trkpt lat="44.394720303462876" lon="10.21832623653708"><ele>679.3333333333334</ele><time>2026-04-06T11:01:02.002Z</time></trkpt><trkpt lat="44.394822935977594" lon="10.218094993924986"><ele>686.6666666666667</ele><time>2026-04-06T11:01:03.002Z</time></trkpt><trkpt lat="44.39490896314852" lon="10.217858582769345"><ele>694.0</ele><time>2026-04-06T11:01:04.002Z</time></trkpt><trkpt lat="44.394975168280645" lon="10.217626239091528"><ele>694.0</ele><time>2026-04-06T11:01:05.002Z</time></trkpt><trkpt lat="44.395046248703316" lon="10.217429769109582"><ele>694.0</ele><time>2026-04-06T11:01:06.002Z</time></trkpt><trkpt lat="44.3951246255382" lon="10.217289528052977"><ele>694.0</ele><time>2026-04-06T11:01:07.002Z</time></trkpt><trkpt lat="44.3951927791531" lon="10.21717479438802"><ele>694.0</ele><time>2026-04-06T11:01:08.002Z</time></trkpt><trkpt lat="44.39526253981123" lon="10.217086370972863"><ele>693.75</ele><time>2026-04-06T11:01:09.002Z</time></trkpt><trkpt lat="44.39535658220783" lon="10.217031088193783"><ele>693.5</ele><time>2026-04-06T11:01:10.002Z</time></trkpt><trkpt lat="44.395464386506895" lon="10.217006120598379"><ele>693.25</ele><time>2026-04-06T11:01:11.002Z</time></trkpt><trkpt lat="44.39558540582593" lon="10.216984553112953"><ele>693.0</ele><time>2026-04-06T11:01:12.002Z</time></trkpt><trkpt lat="44.395712797053065" lon="10.216941914154335"><ele>693.0</ele><time>2026-04-06T11:01:13.002Z</time></trkpt><trkpt lat="44.395838552597155" lon="10.216921653781467"><ele>693.0</ele><time>2026-04-06T11:01:14.002Z</time></trkpt><trkpt lat="44.39596242330768" lon="10.21688081807934"><ele>693.0</ele><time>2026-04-06T11:01:15.002Z</time></trkpt><trkpt lat="44.39608506822886" lon="10.216811468952539"><ele>693.0</ele><time>2026-04-06T11:01:16.002Z</time></trkpt><trkpt lat="44.3962037005215" lon="10.216704501894228"><ele>693.0</ele><time>2026-04-06T11:01:17.002Z</time></trkpt><trkpt lat="44.396329661993015" lon="10.216581412850513"><ele>693.0</ele><time>2026-04-06T11:01:18.002Z</time></trkpt><trkpt lat="44.39646190848479" lon="10.216466581304115"><ele>693.0</ele><time>2026-04-06T11:01:19.002Z</time></trkpt><trkpt lat="44.396591429500745" lon="10.216355491423009"><ele>690.3333333333334</ele><time>2026-04-06T11:01:20.002Z</time></trkpt><trkpt lat="44.39671101862203" lon="10.216255010886815"><ele>687.6666666666667</ele><time>2026-04-06T11:01:21.002Z</time></trkpt><trkpt lat="44.39684554857602" lon="10.216171669014066"><ele>685.0</ele><time>2026-04-06T11:01:22.002Z</time></trkpt><trkpt lat="44.39700923708423" lon="10.21612804289191"><ele>692.6666666666667</ele><time>2026-04-06T11:01:23.002Z</time></trkpt><trkpt lat="44.39717982013456" lon="10.216090041215422"><ele>700.3333333333334</ele><time>2026-04-06T11:01:24.002Z</time></trkpt><trkpt lat="44.397321987117216" lon="10.216038946596328"><ele>708.0</ele><time>2026-04-06T11:01:25.002Z</time></trkpt><trkpt lat="44.397463581630404" lon="10.21594389201112"><ele>708.0</ele><time>2026-04-06T11:01:26.002Z</time></trkpt><trkpt lat="44.39759678203354" lon="10.215839241199097"><ele>708.0</ele><time>2026-04-06T11:01:27.002Z</time></trkpt><trkpt lat="44.39771022816078" lon="10.215752224530315"><ele>708.0</ele><time>2026-04-06T11:01:28.002Z</time></trkpt><trkpt lat="44.39780958606409" lon="10.215700279439051"><ele>708.0</ele><time>2026-04-06T11:01:29.002Z</time></trkpt><trkpt lat="44.397900220493405" lon="10.21568079220879"><ele>708.0</ele><time>2026-04-06T11:01:30.002Z</time></trkpt><trkpt lat="44.3979938947019" lon="10.21568742234208"><ele>708.0</ele><time>2026-04-06T11:01:31.002Z</time></trkpt><trkpt lat="44.398097572679184" lon="10.215730300812021"><ele>708.0</ele><time>2026-04-06T11:01:32.002Z</time></trkpt><trkpt lat="44.398210760687384" lon="10.215822229673796"><ele>708.0</ele><time>2026-04-06T11:01:33.002Z</time></trkpt><trkpt lat="44.39832719300937" lon="10.215922140573385"><ele>708.0</ele><time>2026-04-06T11:01:34.002Z</time></trkpt><trkpt lat="44.398425377752346" lon="10.216008305470133"><ele>708.0</ele><time>2026-04-06T11:01:35.002Z</time></trkpt><trkpt lat="44.398493241789886" lon="10.21608610541293"><ele>708.0</ele><time>2026-04-06T11:01:36.002Z</time></trkpt><trkpt lat="44.39852157732048" lon="10.21618457396349"><ele>708.0</ele><time>2026-04-06T11:01:37.002Z</time></trkpt><trkpt lat="44.39851107167114" lon="10.216302054070676"><ele>708.0</ele><time>2026-04-06T11:01:38.002Z</time></trkpt><trkpt lat="44.398456242350456" lon="10.216420803404072"><ele>714.6666666666666</ele><time>2026-04-06T11:01:39.002Z</time></trkpt><trkpt lat="44.39836354055837" lon="10.216546372381599"><ele>721.3333333333333</ele><time>2026-04-06T11:01:40.002Z</time></trkpt><trkpt lat="44.39824906717736" lon="10.216679411143591"><ele>728.0</ele><time>2026-04-06T11:01:41.002Z</time></trkpt><trkpt lat="44.39812166793854" lon="10.216847446146346"><ele>730.6666666666666</ele><time>2026-04-06T11:01:42.002Z</time></trkpt><trkpt lat="44.39799113395278" lon="10.21703012382162"><ele>733.3333333333334</ele><time>2026-04-06T11:01:43.002Z</time></trkpt><trkpt lat="44.3978712623732" lon="10.2171924253923"><ele>736.0</ele><time>2026-04-06T11:01:44.002Z</time></trkpt><trkpt lat="44.397751944146336" lon="10.217352478623411"><ele>736.0</ele><time>2026-04-06T11:01:45.002Z</time></trkpt><trkpt lat="44.397645829787386" lon="10.21748953789864"><ele>736.0</ele><time>2026-04-06T11:01:46.002Z</time></trkpt><trkpt lat="44.39755396563377" lon="10.217624269698282"><ele>736.0</ele><time>2026-04-06T11:01:47.002Z</time></trkpt><trkpt lat="44.397481479539096" lon="10.217781933366082"><ele>736.0</ele><time>2026-04-06T11:01:48.002Z</time></trkpt><trkpt lat="44.39743852467213" lon="10.217956731795718"><ele>736.0</ele><time>2026-04-06T11:01:49.002Z</time></trkpt><trkpt lat="44.39741316199118" lon="10.218134596890865"><ele>736.0</ele><time>2026-04-06T11:01:50.002Z</time></trkpt><trkpt lat="44.397379838640894" lon="10.218309172416259"><ele>736.0</ele><time>2026-04-06T11:01:51.002Z</time></trkpt><trkpt lat="44.39731460670966" lon="10.218467370172679"><ele>736.0</ele><time>2026-04-06T11:01:52.002Z</time></trkpt><trkpt lat="44.39722146793139" lon="10.218634822139482"><ele>738.6666666666667</ele><time>2026-04-06T11:01:53.002Z</time></trkpt><trkpt lat="44.3971236980111" lon="10.21882045013896"><ele>741.3333333333334</ele><time>2026-04-06T11:01:54.002Z</time></trkpt><trkpt lat="44.39703434941654" lon="10.219010727825896"><ele>744.0</ele><time>2026-04-06T11:01:55.002Z</time></trkpt><trkpt lat="44.396955494937885" lon="10.219182692371108"><ele>744.0</ele><time>2026-04-06T11:01:56.002Z</time></trkpt><trkpt lat="44.39688204088001" lon="10.219329139764286"><ele>744.0</ele><time>2026-04-06T11:01:57.002Z</time></trkpt><trkpt lat="44.39681912162788" lon="10.219458328909177"><ele>744.0</ele><time>2026-04-06T11:01:58.002Z</time></trkpt><trkpt lat="44.3967731898563" lon="10.21957819384235"><ele>744.0</ele><time>2026-04-06T11:01:59.002Z</time></trkpt><trkpt lat="44.396748969517226" lon="10.219705658670499"><ele>744.0</ele><time>2026-04-06T11:02:00.002Z</time></trkpt><trkpt lat="44.396753135463506" lon="10.219862325056969"><ele>745.0</ele><time>2026-04-06T11:02:01.002Z</time></trkpt><trkpt lat="44.39678227473316" lon="10.220037078982573"><ele>746.0</ele><time>2026-04-06T11:02:02.002Z</time></trkpt><trkpt lat="44.39683742038011" lon="10.220211717186471"><ele>747.0</ele><time>2026-04-06T11:02:03.002Z</time></trkpt><trkpt lat="44.396908510336246" lon="10.220401023195523"><ele>748.0</ele><time>2026-04-06T11:02:04.002Z</time></trkpt><trkpt lat="44.39698569624706" lon="10.220586773372077"><ele>745.0</ele><time>2026-04-06T11:02:05.002Z</time></trkpt><trkpt lat="44.39707898708617" lon="10.220748622436988"><ele>742.0</ele><time>2026-04-06T11:02:06.002Z</time></trkpt><trkpt lat="44.39720258815721" lon="10.220880959969653"><ele>739.0</ele><time>2026-04-06T11:02:07.002Z</time></trkpt><trkpt lat="44.39734813211196" lon="10.220982741233968"><ele>739.0</ele><time>2026-04-06T11:02:08.002Z</time></trkpt><trkpt lat="44.397485600064726" lon="10.22107421153307"><ele>739.0</ele><time>2026-04-06T11:02:09.002Z</time></trkpt><trkpt lat="44.39757572539254" lon="10.221220252096282"><ele>739.0</ele><time>2026-04-06T11:02:10.002Z</time></trkpt><trkpt lat="44.39765317475965" lon="10.221378761045543"><ele>739.0</ele><time>2026-04-06T11:02:11.002Z</time></trkpt><trkpt lat="44.39772652182416" lon="10.221575125682923"><ele>743.3333333333334</ele><time>2026-04-06T11:02:12.002Z</time></trkpt><trkpt lat="44.39778298222729" lon="10.221811156824126"><ele>747.6666666666666</ele><time>2026-04-06T11:02:13.002Z</time></trkpt><trkpt lat="44.397849015435156" lon="10.222042696673329"><ele>752.0</ele><time>2026-04-06T11:02:14.002Z</time></trkpt><trkpt lat="44.39792689848559" lon="10.222266894368188"><ele>748.3333333333333</ele><time>2026-04-06T11:02:15.002Z</time></trkpt><trkpt lat="44.39800799098239" lon="10.222493300439616"><ele>744.6666666666666</ele><time>2026-04-06T11:02:16.002Z</time></trkpt><trkpt lat="44.39807888559707" lon="10.222702198301326"><ele>741.0</ele><time>2026-04-06T11:02:17.002Z</time></trkpt><trkpt lat="44.39814978275239" lon="10.222894271029059"><ele>741.0</ele><time>2026-04-06T11:02:18.002Z</time></trkpt><trkpt lat="44.39822119818059" lon="10.22306429082314"><ele>741.0</ele><time>2026-04-06T11:02:19.002Z</time></trkpt><trkpt lat="44.39829351013466" lon="10.223213258860653"><ele>741.0</ele><time>2026-04-06T11:02:20.002Z</time></trkpt><trkpt lat="44.39839375034807" lon="10.223323893081904"><ele>741.0</ele><time>2026-04-06T11:02:21.002Z</time></trkpt><trkpt lat="44.39853947511023" lon="10.223408961505477"><ele>743.3333333333334</ele><time>2026-04-06T11:02:22.002Z</time></trkpt><trkpt lat="44.39871034384563" lon="10.223453364694725"><ele>745.6666666666667</ele><time>2026-04-06T11:02:23.002Z</time></trkpt><trkpt lat="44.39888788583667" lon="10.223515116399234"><ele>748.0</ele><time>2026-04-06T11:02:24.002Z</time></trkpt><trkpt lat="44.39904868282734" lon="10.223560638453833"><ele>748.0</ele><time>2026-04-06T11:02:25.002Z</time></trkpt><trkpt lat="44.3991883639582" lon="10.223597100485483"><ele>748.0</ele><time>2026-04-06T11:02:26.002Z</time></trkpt><trkpt lat="44.39932346737001" lon="10.22359849185101"><ele>748.0</ele><time>2026-04-06T11:02:27.002Z</time></trkpt><trkpt lat="44.399457632488506" lon="10.223517201463821"><ele>748.0</ele><time>2026-04-06T11:02:28.002Z</time></trkpt><trkpt lat="44.399608922718905" lon="10.223432113622382"><ele>750.6666666666667</ele><time>2026-04-06T11:02:29.002Z</time></trkpt><trkpt lat="44.399768026958434" lon="10.223322492610654"><ele>753.3333333333334</ele><time>2026-04-06T11:02:30.002Z</time></trkpt><trkpt lat="44.39994114369486" lon="10.223230144570579"><ele>756.0</ele><time>2026-04-06T11:02:31.002Z</time></trkpt><trkpt lat="44.40013473379937" lon="10.223152328404135"><ele>750.6666666666666</ele><time>2026-04-06T11:02:32.002Z</time></trkpt><trkpt lat="44.40033177881764" lon="10.223102061512755"><ele>745.3333333333333</ele><time>2026-04-06T11:02:33.002Z</time></trkpt><trkpt lat="44.400536797466394" lon="10.223049324109367"><ele>740.0</ele><time>2026-04-06T11:02:34.002Z</time></trkpt><trkpt lat="44.400721382276885" lon="10.223011671710271"><ele>740.0</ele><time>2026-04-06T11:02:35.002Z</time></trkpt><trkpt lat="44.40086689893084" lon="10.223003418471773"><ele>740.0</ele><time>2026-04-06T11:02:36.002Z</time></trkpt><trkpt lat="44.4010010950608" lon="10.223019793201964"><ele>740.0</ele><time>2026-04-06T11:02:37.002Z</time></trkpt><trkpt lat="44.401132741954605" lon="10.22310092450974"><ele>740.0</ele><time>2026-04-06T11:02:38.002Z</time></trkpt><trkpt lat="44.40128004119434" lon="10.223166098398497"><ele>746.0</ele><time>2026-04-06T11:02:39.002Z</time></trkpt><trkpt lat="44.40143351629489" lon="10.223193978379031"><ele>752.0</ele><time>2026-04-06T11:02:40.002Z</time></trkpt><trkpt lat="44.40158927066369" lon="10.223201344372058"><ele>758.0</ele><time>2026-04-06T11:02:41.002Z</time></trkpt><trkpt lat="44.401742997952574" lon="10.22319815655048"><ele>758.0</ele><time>2026-04-06T11:02:42.002Z</time></trkpt><trkpt lat="44.40189800725415" lon="10.223274159633629"><ele>758.0</ele><time>2026-04-06T11:02:43.002Z</time></trkpt><trkpt lat="44.40204876029807" lon="10.223351282068897"><ele>758.0</ele><time>2026-04-06T11:02:44.002Z</time></trkpt><trkpt lat="44.40218085617647" lon="10.223423379456403"><ele>754.3333333333333</ele><time>2026-04-06T11:02:45.002Z</time></trkpt><trkpt lat="44.40228608888385" lon="10.223554174593378"><ele>750.6666666666666</ele><time>2026-04-06T11:02:46.002Z</time></trkpt><trkpt lat="44.402377625515236" lon="10.223742017795837"><ele>747.0</ele><time>2026-04-06T11:02:47.002Z</time></trkpt><trkpt lat="44.40246277292836" lon="10.223940721426047"><ele>750.0</ele><time>2026-04-06T11:02:48.002Z</time></trkpt><trkpt lat="44.402528184859314" lon="10.224152258057574"><ele>753.0</ele><time>2026-04-06T11:02:49.002Z</time></trkpt><trkpt lat="44.40258214018725" lon="10.224380198677558"><ele>756.0</ele><time>2026-04-06T11:02:50.002Z</time></trkpt><trkpt lat="44.402639293821665" lon="10.224585918469868"><ele>756.0</ele><time>2026-04-06T11:02:51.002Z</time></trkpt><trkpt lat="44.402714611128694" lon="10.22477561207627"><ele>756.0</ele><time>2026-04-06T11:02:52.002Z</time></trkpt><trkpt lat="44.402802564951884" lon="10.224921246591048"><ele>756.0</ele><time>2026-04-06T11:02:53.001Z</time></trkpt><trkpt lat="44.40291483682915" lon="10.225034577957734"><ele>756.0</ele><time>2026-04-06T11:02:54.001Z</time></trkpt><trkpt lat="44.403051239968526" lon="10.22513063056699"><ele>752.6666666666666</ele><time>2026-04-06T11:02:55.001Z</time></trkpt><trkpt lat="44.40317152037046" lon="10.225258373606767"><ele>749.3333333333333</ele><time>2026-04-06T11:02:56.001Z</time></trkpt><trkpt lat="44.40328139488914" lon="10.22542060244277"><ele>746.0</ele><time>2026-04-06T11:02:57.001Z</time></trkpt><trkpt lat="44.40339212757306" lon="10.22559032620797"><ele>750.3333333333333</ele><time>2026-04-06T11:02:58.001Z</time></trkpt><trkpt lat="44.40349993881443" lon="10.22576991234685"><ele>754.6666666666666</ele><time>2026-04-06T11:02:59.001Z</time></trkpt><trkpt lat="44.4035867037957" lon="10.225951486200767"><ele>759.0</ele><time>2026-04-06T11:03:00.001Z</time></trkpt><trkpt lat="44.40364840134575" lon="10.226147997139012"><ele>759.0</ele><time>2026-04-06T11:03:01.001Z</time></trkpt><trkpt lat="44.403691620797325" lon="10.226364182511505"><ele>759.0</ele><time>2026-04-06T11:03:02.001Z</time></trkpt><trkpt lat="44.40373250976243" lon="10.226603347151942"><ele>759.0</ele><time>2026-04-06T11:03:03.001Z</time></trkpt><trkpt lat="44.403782664027034" lon="10.226867150808385"><ele>755.3333333333334</ele><time>2026-04-06T11:03:04.001Z</time></trkpt><trkpt lat="44.40383556782051" lon="10.227119678480255"><ele>751.6666666666667</ele><time>2026-04-06T11:03:05.001Z</time></trkpt><trkpt lat="44.403875210212846" lon="10.22733867887112"><ele>748.0</ele><time>2026-04-06T11:03:06.001Z</time></trkpt><trkpt lat="44.40391000791048" lon="10.227569236813391"><ele>748.0</ele><time>2026-04-06T11:03:07.001Z</time></trkpt><trkpt lat="44.40392149998658" lon="10.227763744994206"><ele>748.0</ele><time>2026-04-06T11:03:08.001Z</time></trkpt><trkpt lat="44.40392406273676" lon="10.227933065952747"><ele>748.0</ele><time>2026-04-06T11:03:09.001Z</time></trkpt><trkpt lat="44.4039568484331" lon="10.22810381425325"><ele>748.0</ele><time>2026-04-06T11:03:10.001Z</time></trkpt><trkpt lat="44.40401597100484" lon="10.228239729993739"><ele>750.25</ele><time>2026-04-06T11:03:11.001Z</time></trkpt><trkpt lat="44.40410795349659" lon="10.228339050278692"><ele>752.5</ele><time>2026-04-06T11:03:12.001Z</time></trkpt><trkpt lat="44.4042198090741" lon="10.228423549671177"><ele>754.75</ele><time>2026-04-06T11:03:13.001Z</time></trkpt><trkpt lat="44.40434506877289" lon="10.228532679191218"><ele>757.0</ele><time>2026-04-06T11:03:14.001Z</time></trkpt><trkpt lat="44.404461416945715" lon="10.228721233515158"><ele>757.0</ele><time>2026-04-06T11:03:15.001Z</time></trkpt><trkpt lat="44.404594605360906" lon="10.22890355292198"><ele>757.0</ele><time>2026-04-06T11:03:16.001Z</time></trkpt><trkpt lat="44.40473225710905" lon="10.229087743985017"><ele>757.0</ele><time>2026-04-06T11:03:17.001Z</time></trkpt><trkpt lat="44.40485938969281" lon="10.229257859774878"><ele>754.75</ele><time>2026-04-06T11:03:18.001Z</time></trkpt><trkpt lat="44.40496280137869" lon="10.229398735534952"><ele>752.5</ele><time>2026-04-06T11:03:19.001Z</time></trkpt><trkpt lat="44.405057472743245" lon="10.229503100296228"><ele>750.25</ele><time>2026-04-06T11:03:20.001Z</time></trkpt><trkpt lat="44.40511619711738" lon="10.229616667825937"><ele>748.0</ele><time>2026-04-06T11:03:21.001Z</time></trkpt><trkpt lat="44.40515974318885" lon="10.22974606431426"><ele>751.5</ele><time>2026-04-06T11:03:22.001Z</time></trkpt><trkpt lat="44.40518494942486" lon="10.229900761258055"><ele>755.0</ele><time>2026-04-06T11:03:23.001Z</time></trkpt><trkpt lat="44.40518960265462" lon="10.230083838357826"><ele>758.5</ele><time>2026-04-06T11:03:24.001Z</time></trkpt><trkpt lat="44.4051821958586" lon="10.230256576874377"><ele>762.0</ele><time>2026-04-06T11:03:25.001Z</time></trkpt><trkpt lat="44.40516914752122" lon="10.230414482494945"><ele>762.0</ele><time>2026-04-06T11:03:26.001Z</time></trkpt><trkpt lat="44.405150922957986" lon="10.230541668612034"><ele>762.0</ele><time>2026-04-06T11:03:27.001Z</time></trkpt><trkpt lat="44.40511431018898" lon="10.230686677725394"><ele>762.0</ele><time>2026-04-06T11:03:28.001Z</time></trkpt><trkpt lat="44.405075715887556" lon="10.23082143519815"><ele>762.0</ele><time>2026-04-06T11:03:29.001Z</time></trkpt><trkpt lat="44.40505811609679" lon="10.230950002190221"><ele>762.0</ele><time>2026-04-06T11:03:30.001Z</time></trkpt><trkpt lat="44.40505924511677" lon="10.231085745802355"><ele>762.1666666666666</ele><time>2026-04-06T11:03:31.001Z</time></trkpt><trkpt lat="44.40506764929621" lon="10.231208516852854"><ele>762.3333333333334</ele><time>2026-04-06T11:03:32.001Z</time></trkpt><trkpt lat="44.405079534602045" lon="10.231345209551806"><ele>762.5</ele><time>2026-04-06T11:03:33.001Z</time></trkpt><trkpt lat="44.405091187253745" lon="10.231456693176398"><ele>762.6666666666667</ele><time>2026-04-06T11:03:34.001Z</time></trkpt><trkpt lat="44.405105295259695" lon="10.231577421119182"><ele>762.8333333333334</ele><time>2026-04-06T11:03:35.001Z</time></trkpt><trkpt lat="44.40511818343937" lon="10.231702480358111"><ele>763.0</ele><time>2026-04-06T11:03:36.001Z</time></trkpt><trkpt lat="44.4051215821032" lon="10.23182935230978"><ele>763.0</ele><time>2026-04-06T11:03:37.001Z</time></trkpt><trkpt lat="44.405117217414634" lon="10.231975102653013"><ele>763.0</ele><time>2026-04-06T11:03:38.001Z</time></trkpt><trkpt lat="44.405098802338834" lon="10.232142727144218"><ele>763.0</ele><time>2026-04-06T11:03:39.001Z</time></trkpt><trkpt lat="44.405064793743264" lon="10.232320426508176"><ele>763.0</ele><time>2026-04-06T11:03:40.001Z</time></trkpt><trkpt lat="44.40503082900184" lon="10.232516528235312"><ele>762.0</ele><time>2026-04-06T11:03:41.001Z</time></trkpt><trkpt lat="44.404997112964935" lon="10.232723233187349"><ele>761.0</ele><time>2026-04-06T11:03:42.001Z</time></trkpt><trkpt lat="44.404960088116" lon="10.232919863315526"><ele>760.0</ele><time>2026-04-06T11:03:43.001Z</time></trkpt><trkpt lat="44.40491606182019" lon="10.23311035194321"><ele>759.0</ele><time>2026-04-06T11:03:44.001Z</time></trkpt><trkpt lat="44.404865062779535" lon="10.233306071740353"><ele>756.3333333333334</ele><time>2026-04-06T11:03:45.001Z</time></trkpt><trkpt lat="44.404809370640606" lon="10.233500035164234"><ele>753.6666666666667</ele><time>2026-04-06T11:03:46.001Z</time></trkpt><trkpt lat="44.40475368995242" lon="10.233713504005111"><ele>751.0</ele><time>2026-04-06T11:03:47.001Z</time></trkpt><trkpt lat="44.40470328693831" lon="10.233921104788442"><ele>757.0</ele><time>2026-04-06T11:03:48.001Z</time></trkpt><trkpt lat="44.40465275646259" lon="10.234127251748665"><ele>763.0</ele><time>2026-04-06T11:03:49.001Z</time></trkpt><trkpt lat="44.4046096561844" lon="10.234321141870652"><ele>769.0</ele><time>2026-04-06T11:03:50.001Z</time></trkpt><trkpt lat="44.40457226672596" lon="10.234503462133222"><ele>775.0</ele><time>2026-04-06T11:03:51.001Z</time></trkpt><trkpt lat="44.40454101964412" lon="10.234686549839648"><ele>772.5</ele><time>2026-04-06T11:03:52.001Z</time></trkpt><trkpt lat="44.404518912619885" lon="10.234862660744996"><ele>770.0</ele><time>2026-04-06T11:03:53.001Z</time></trkpt><trkpt lat="44.40450568662196" lon="10.235026055370762"><ele>767.5</ele><time>2026-04-06T11:03:54.001Z</time></trkpt><trkpt lat="44.40451002914238" lon="10.235179177035524"><ele>765.0</ele><time>2026-04-06T11:03:55.001Z</time></trkpt><trkpt lat="44.40453334083359" lon="10.2353307455167"><ele>765.0</ele><time>2026-04-06T11:03:56.001Z</time></trkpt><trkpt lat="44.40460108367909" lon="10.235468281893539"><ele>765.0</ele><time>2026-04-06T11:03:57.001Z</time></trkpt><trkpt lat="44.40469420200755" lon="10.235552751151586"><ele>765.0</ele><time>2026-04-06T11:03:58.001Z</time></trkpt><trkpt lat="44.40479060821937" lon="10.235644611408038"><ele>765.0</ele><time>2026-04-06T11:03:59.001Z</time></trkpt><trkpt lat="44.40488815323864" lon="10.23572472775311"><ele>760.25</ele><time>2026-04-06T11:04:00.001Z</time></trkpt><trkpt lat="44.404994244238914" lon="10.235827414194858"><ele>755.5</ele><time>2026-04-06T11:04:01.001Z</time></trkpt><trkpt lat="44.40508049169865" lon="10.235948390569783"><ele>750.75</ele><time>2026-04-06T11:04:02.001Z</time></trkpt><trkpt lat="44.40512533856923" lon="10.236107947739464"><ele>746.0</ele><time>2026-04-06T11:04:03.001Z</time></trkpt><trkpt lat="44.405139351446905" lon="10.236266659495003"><ele>746.0</ele><time>2026-04-06T11:04:04.001Z</time></trkpt><trkpt lat="44.405145195443026" lon="10.236462950486832"><ele>746.0</ele><time>2026-04-06T11:04:05.001Z</time></trkpt><trkpt lat="44.40515000920433" lon="10.236700542334066"><ele>746.0</ele><time>2026-04-06T11:04:06.001Z</time></trkpt><trkpt lat="44.40513720708674" lon="10.236959853081794"><ele>747.0</ele><time>2026-04-06T11:04:07.001Z</time></trkpt><trkpt lat="44.405126989719726" lon="10.23719196510703"><ele>748.0</ele><time>2026-04-06T11:04:08.001Z</time></trkpt><trkpt lat="44.40511823556569" lon="10.237363620491621"><ele>749.0</ele><time>2026-04-06T11:04:09.001Z</time></trkpt><trkpt lat="44.40513034929934" lon="10.237487676489575"><ele>750.0</ele><time>2026-04-06T11:04:10.001Z</time></trkpt><trkpt lat="44.405170321250125" lon="10.237595895707717"><ele>749.0</ele><time>2026-04-06T11:04:11.001Z</time></trkpt><trkpt lat="44.405243715361486" lon="10.237669538764344"><ele>748.0</ele><time>2026-04-06T11:04:12.001Z</time></trkpt><trkpt lat="44.40534762220696" lon="10.237738588640799"><ele>747.0</ele><time>2026-04-06T11:04:13.001Z</time></trkpt><trkpt lat="44.40547781239644" lon="10.237824084196177"><ele>746.0</ele><time>2026-04-06T11:04:14.001Z</time></trkpt><trkpt lat="44.40563020528407" lon="10.237903610089214"><ele>746.0</ele><time>2026-04-06T11:04:15.001Z</time></trkpt><trkpt lat="44.405783475380844" lon="10.237961987242524"><ele>746.0</ele><time>2026-04-06T11:04:16.001Z</time></trkpt><trkpt lat="44.40594399992257" lon="10.237992067101057"><ele>746.0</ele><time>2026-04-06T11:04:17.001Z</time></trkpt><trkpt lat="44.406115550598905" lon="10.238021413509472"><ele>746.0</ele><time>2026-04-06T11:04:18.001Z</time></trkpt><trkpt lat="44.40627734952522" lon="10.238021317997635"><ele>746.0</ele><time>2026-04-06T11:04:19.001Z</time></trkpt><trkpt lat="44.40642392368983" lon="10.237976294727856"><ele>746.0</ele><time>2026-04-06T11:04:20.001Z</time></trkpt><trkpt lat="44.406565401462124" lon="10.237943129012278"><ele>745.25</ele><time>2026-04-06T11:04:21.001Z</time></trkpt><trkpt lat="44.40669643541294" lon="10.237947090475053"><ele>744.5</ele><time>2026-04-06T11:04:22.001Z</time></trkpt><trkpt lat="44.40681581650215" lon="10.237993714539517"><ele>743.75</ele><time>2026-04-06T11:04:23.001Z</time></trkpt><trkpt lat="44.40693770025253" lon="10.238063925301846"><ele>743.0</ele><time>2026-04-06T11:04:24.001Z</time></trkpt><trkpt lat="44.40705617382606" lon="10.238146717592205"><ele>745.25</ele><time>2026-04-06T11:04:25.001Z</time></trkpt><trkpt lat="44.40719310204557" lon="10.238176271500391"><ele>747.5</ele><time>2026-04-06T11:04:26.001Z</time></trkpt><trkpt lat="44.40734235061211" lon="10.238191969207527"><ele>749.75</ele><time>2026-04-06T11:04:27.001Z</time></trkpt><trkpt lat="44.407471710475214" lon="10.238194984284288"><ele>752.0</ele><time>2026-04-06T11:04:28.001Z</time></trkpt><trkpt lat="44.4075837259343" lon="10.238223652639775"><ele>752.0</ele><time>2026-04-06T11:04:29.001Z</time></trkpt><trkpt lat="44.40767806972385" lon="10.23824624835304"><ele>752.0</ele><time>2026-04-06T11:04:30.001Z</time></trkpt><trkpt lat="44.40773725742982" lon="10.238306273754436"><ele>752.0</ele><time>2026-04-06T11:04:31.001Z</time></trkpt><trkpt lat="44.407802264397894" lon="10.238397270227306"><ele>752.0</ele><time>2026-04-06T11:04:32.002Z</time></trkpt><trkpt lat="44.40788986024387" lon="10.238505869606339"><ele>752.0</ele><time>2026-04-06T11:04:33.002Z</time></trkpt><trkpt lat="44.4079741005661" lon="10.238651748864232"><ele>751.6</ele><time>2026-04-06T11:04:34.002Z</time></trkpt><trkpt lat="44.408066071496414" lon="10.238784828073491"><ele>751.2</ele><time>2026-04-06T11:04:35.002Z</time></trkpt><trkpt lat="44.408147060068494" lon="10.238893329327905"><ele>750.8</ele><time>2026-04-06T11:04:36.002Z</time></trkpt><trkpt lat="44.408216460167125" lon="10.238991912318065"><ele>750.4</ele><time>2026-04-06T11:04:37.002Z</time></trkpt><trkpt lat="44.4082748232299" lon="10.239082274166936"><ele>750.0</ele><time>2026-04-06T11:04:38.002Z</time></trkpt><trkpt lat="44.40831843655028" lon="10.239168047147563"><ele>750.0</ele><time>2026-04-06T11:04:39.002Z</time></trkpt><trkpt lat="44.40834744948318" lon="10.239266804502753"><ele>750.0</ele><time>2026-04-06T11:04:40.002Z</time></trkpt><trkpt lat="44.40834796083831" lon="10.239386231423602"><ele>750.0</ele><time>2026-04-06T11:04:41.002Z</time></trkpt><trkpt lat="44.40832157235629" lon="10.239526521342594"><ele>750.0</ele><time>2026-04-06T11:04:42.002Z</time></trkpt><trkpt lat="44.40828478445229" lon="10.239682353476395"><ele>750.0</ele><time>2026-04-06T11:04:43.002Z</time></trkpt><trkpt lat="44.408246867886234" lon="10.239819902362905"><ele>749.6666666666666</ele><time>2026-04-06T11:04:44.002Z</time></trkpt><trkpt lat="44.408218587180826" lon="10.239956531922655"><ele>749.3333333333334</ele><time>2026-04-06T11:04:45.001Z</time></trkpt><trkpt lat="44.40819797301393" lon="10.240086961937616"><ele>749.0</ele><time>2026-04-06T11:04:46.001Z</time></trkpt><trkpt lat="44.40820766511603" lon="10.240202429649258"><ele>748.6666666666667</ele><time>2026-04-06T11:04:47.001Z</time></trkpt><trkpt lat="44.40823311449893" lon="10.240294394018855"><ele>748.3333333333334</ele><time>2026-04-06T11:04:48.001Z</time></trkpt><trkpt lat="44.40828450159929" lon="10.240377957789518"><ele>748.0</ele><time>2026-04-06T11:04:49.001Z</time></trkpt><trkpt lat="44.40835730585894" lon="10.240425891984083"><ele>748.0</ele><time>2026-04-06T11:04:50.001Z</time></trkpt><trkpt lat="44.408433850587485" lon="10.240425960438193"><ele>748.0</ele><time>2026-04-06T11:04:51.001Z</time></trkpt><trkpt lat="44.40851399822195" lon="10.240424392598603"><ele>748.0</ele><time>2026-04-06T11:04:52.001Z</time></trkpt><trkpt lat="44.408601405604436" lon="10.24035664629599"><ele>748.0</ele><time>2026-04-06T11:04:53.001Z</time></trkpt><trkpt lat="44.40868698991152" lon="10.240258427346612"><ele>748.0</ele><time>2026-04-06T11:04:54.001Z</time></trkpt><trkpt lat="44.40877931044111" lon="10.240144670777521"><ele>747.0</ele><time>2026-04-06T11:04:55.001Z</time></trkpt><trkpt lat="44.408879996591246" lon="10.240017807763602"><ele>746.0</ele><time>2026-04-06T11:04:56.001Z</time></trkpt><trkpt lat="44.40898804083291" lon="10.239876693101419"><ele>745.0</ele><time>2026-04-06T11:04:57.001Z</time></trkpt><trkpt lat="44.40909008529339" lon="10.239742784846188"><ele>744.0</ele><time>2026-04-06T11:04:58.001Z</time></trkpt><trkpt lat="44.40918172056328" lon="10.239635099629947"><ele>743.2</ele><time>2026-04-06T11:04:59.001Z</time></trkpt><trkpt lat="44.40927239942588" lon="10.239557877246275"><ele>742.4000000000001</ele><time>2026-04-06T11:05:00.001Z</time></trkpt><trkpt lat="44.40937388969786" lon="10.239517272048612"><ele>741.6</ele><time>2026-04-06T11:05:01.001Z</time></trkpt><trkpt lat="44.40947786274048" lon="10.239524963534235"><ele>740.8</ele><time>2026-04-06T11:05:02.001Z</time></trkpt><trkpt lat="44.4095980958661" lon="10.239557691981418"><ele>740.0</ele><time>2026-04-06T11:05:03.001Z</time></trkpt><trkpt lat="44.40971458046703" lon="10.239572345602323"><ele>740.0</ele><time>2026-04-06T11:05:04.001Z</time></trkpt><trkpt lat="44.40982605563503" lon="10.239542194860787"><ele>740.0</ele><time>2026-04-06T11:05:05.001Z</time></trkpt><trkpt lat="44.40991925258474" lon="10.239438853356308"><ele>740.0</ele><time>2026-04-06T11:05:06.001Z</time></trkpt><trkpt lat="44.410006523960995" lon="10.239328500971475"><ele>740.0</ele><time>2026-04-06T11:05:07.001Z</time></trkpt><trkpt lat="44.41007741802688" lon="10.239173377724047"><ele>740.0</ele><time>2026-04-06T11:05:08.001Z</time></trkpt><trkpt lat="44.410143247312625" lon="10.23898398258569"><ele>740.0</ele><time>2026-04-06T11:05:09.001Z</time></trkpt><trkpt lat="44.41020075995102" lon="10.238765174055649"><ele>740.0</ele><time>2026-04-06T11:05:10.001Z</time></trkpt><trkpt lat="44.410271876021696" lon="10.238599068666424"><ele>740.0</ele><time>2026-04-06T11:05:11.001Z</time></trkpt><trkpt lat="44.4103495014946" lon="10.238492730842292"><ele>740.0</ele><time>2026-04-06T11:05:12.001Z</time></trkpt><trkpt lat="44.41042948005973" lon="10.238429279555875"><ele>740.0</ele><time>2026-04-06T11:05:13.001Z</time></trkpt><trkpt lat="44.410585625073935" lon="10.238340644897972"><ele>740.0</ele><time>2026-04-06T11:05:14.001Z</time></trkpt><trkpt lat="44.41075753574754" lon="10.238243062872503"><ele>729.6666666666666</ele><time>2026-04-06T11:05:15.001Z</time></trkpt><trkpt lat="44.41092449377115" lon="10.238123038166606"><ele>719.3333333333334</ele><time>2026-04-06T11:05:16.001Z</time></trkpt><trkpt lat="44.411089126311325" lon="10.23805411110237"><ele>709.0</ele><time>2026-04-06T11:05:17.001Z</time></trkpt><trkpt lat="44.41123910507514" lon="10.237953867925212"><ele>715.6666666666667</ele><time>2026-04-06T11:05:18.001Z</time></trkpt><trkpt lat="44.41137461094131" lon="10.237810692456785"><ele>722.3333333333334</ele><time>2026-04-06T11:05:19.001Z</time></trkpt><trkpt lat="44.4114972656941" lon="10.237653259147763"><ele>729.0</ele><time>2026-04-06T11:05:20.001Z</time></trkpt><trkpt lat="44.41160548219885" lon="10.237488767180446"><ele>729.0</ele><time>2026-04-06T11:05:21.001Z</time></trkpt><trkpt lat="44.411702752492815" lon="10.237331443586177"><ele>729.0</ele><time>2026-04-06T11:05:22.001Z</time></trkpt><trkpt lat="44.41180158875415" lon="10.237213832884448"><ele>729.0</ele><time>2026-04-06T11:05:23.001Z</time></trkpt><trkpt lat="44.41190203685039" lon="10.237159182084953"><ele>729.0</ele><time>2026-04-06T11:05:24.001Z</time></trkpt><trkpt lat="44.41201557967359" lon="10.237213437470146"><ele>726.75</ele><time>2026-04-06T11:05:25.001Z</time></trkpt><trkpt lat="44.412149600987526" lon="10.237223496836448"><ele>724.5</ele><time>2026-04-06T11:05:26.001Z</time></trkpt><trkpt lat="44.41227003140884" lon="10.237195947437813"><ele>722.25</ele><time>2026-04-06T11:05:27.001Z</time></trkpt><trkpt lat="44.41237467755683" lon="10.2371446034922"><ele>720.0</ele><time>2026-04-06T11:05:28.001Z</time></trkpt><trkpt lat="44.41246247485544" lon="10.237034278223458"><ele>720.0</ele><time>2026-04-06T11:05:29.001Z</time></trkpt><trkpt lat="44.412529350145924" lon="10.236877126374916"><ele>720.0</ele><time>2026-04-06T11:05:30.001Z</time></trkpt><trkpt lat="44.41258497833071" lon="10.236680315023555"><ele>720.0</ele><time>2026-04-06T11:05:31.001Z</time></trkpt><trkpt lat="44.41264901886358" lon="10.236464326740167"><ele>720.0</ele><time>2026-04-06T11:05:32.001Z</time></trkpt><trkpt lat="44.412738576670364" lon="10.236283115495732"><ele>718.25</ele><time>2026-04-06T11:05:33.001Z</time></trkpt><trkpt lat="44.41283232224021" lon="10.236125485570096"><ele>716.5</ele><time>2026-04-06T11:05:34.001Z</time></trkpt><trkpt lat="44.412935217253846" lon="10.235996786694827"><ele>714.75</ele><time>2026-04-06T11:05:35.001Z</time></trkpt><trkpt lat="44.413018095294376" lon="10.235884477080338"><ele>713.0</ele><time>2026-04-06T11:05:36.001Z</time></trkpt><trkpt lat="44.413086070128855" lon="10.235805437751631"><ele>713.0</ele><time>2026-04-06T11:05:37.001Z</time></trkpt><trkpt lat="44.41319470592502" lon="10.235732775402337"><ele>713.0</ele><time>2026-04-06T11:05:39.001Z</time></trkpt><trkpt lat="44.41327159217412" lon="10.235737225746753"><ele>713.0</ele><time>2026-04-06T11:05:40.001Z</time></trkpt><trkpt lat="44.41335084192038" lon="10.235786075734332"><ele>713.0</ele><time>2026-04-06T11:05:41.001Z</time></trkpt><trkpt lat="44.41340883978106" lon="10.235886462654967"><ele>713.0</ele><time>2026-04-06T11:05:42.001Z</time></trkpt><trkpt lat="44.413436326953665" lon="10.236024689393215"><ele>713.0</ele><time>2026-04-06T11:05:43.001Z</time></trkpt><trkpt lat="44.413478119792124" lon="10.236199689421067"><ele>713.0</ele><time>2026-04-06T11:05:44.001Z</time></trkpt><trkpt lat="44.41350424493952" lon="10.236412151658598"><ele>713.0</ele><time>2026-04-06T11:05:45.001Z</time></trkpt><trkpt lat="44.41353861039726" lon="10.236609829405456"><ele>713.0</ele><time>2026-04-06T11:05:46.001Z</time></trkpt><trkpt lat="44.41359471961168" lon="10.236797348478385"><ele>713.6666666666666</ele><time>2026-04-06T11:05:47.001Z</time></trkpt><trkpt lat="44.41367491502437" lon="10.237008438086876"><ele>714.3333333333334</ele><time>2026-04-06T11:05:48.001Z</time></trkpt><trkpt lat="44.41378139943124" lon="10.237205750111443"><ele>715.0</ele><time>2026-04-06T11:05:49.001Z</time></trkpt><trkpt lat="44.41389962160461" lon="10.237379118110749"><ele>715.0</ele><time>2026-04-06T11:05:50.001Z</time></trkpt><trkpt lat="44.414013755574516" lon="10.237552047103813"><ele>715.0</ele><time>2026-04-06T11:05:51.001Z</time></trkpt><trkpt lat="44.414119811960255" lon="10.23774032640757"><ele>715.0</ele><time>2026-04-06T11:05:52.001Z</time></trkpt><trkpt lat="44.414225692460015" lon="10.237923672153462"><ele>715.0</ele><time>2026-04-06T11:05:53.001Z</time></trkpt><trkpt lat="44.414335682042754" lon="10.238101805774367"><ele>715.0</ele><time>2026-04-06T11:05:54.001Z</time></trkpt><trkpt lat="44.41446871221179" lon="10.238272108205946"><ele>715.0</ele><time>2026-04-06T11:05:55.001Z</time></trkpt><trkpt lat="44.41461288128877" lon="10.238418616702706"><ele>713.3333333333334</ele><time>2026-04-06T11:05:56.001Z</time></trkpt><trkpt lat="44.41475384448647" lon="10.23854717196896"><ele>711.6666666666666</ele><time>2026-04-06T11:05:57.001Z</time></trkpt><trkpt lat="44.414884027273864" lon="10.238667159685246"><ele>710.0</ele><time>2026-04-06T11:05:58.001Z</time></trkpt><trkpt lat="44.414997551261564" lon="10.238792766914157"><ele>710.0</ele><time>2026-04-06T11:05:59.001Z</time></trkpt><trkpt lat="44.41506910672392" lon="10.238955959319371"><ele>710.0</ele><time>2026-04-06T11:06:00.001Z</time></trkpt><trkpt lat="44.41515320173633" lon="10.239104311012708"><ele>710.0</ele><time>2026-04-06T11:06:01.001Z</time></trkpt><trkpt lat="44.41522616740315" lon="10.239260445593203"><ele>710.0</ele><time>2026-04-06T11:06:02.001Z</time></trkpt><trkpt lat="44.41527120076114" lon="10.239426899575228"><ele>715.0</ele><time>2026-04-06T11:06:03.001Z</time></trkpt><trkpt lat="44.41529350873576" lon="10.239598964761296"><ele>720.0</ele><time>2026-04-06T11:06:04.001Z</time></trkpt><trkpt lat="44.41532906130406" lon="10.23974349442653"><ele>725.0</ele><time>2026-04-06T11:06:05.001Z</time></trkpt><trkpt lat="44.41538933390609" lon="10.239875019134672"><ele>730.0</ele><time>2026-04-06T11:06:06.001Z</time></trkpt><trkpt lat="44.41549417044278" lon="10.23997231242026"><ele>730.0</ele><time>2026-04-06T11:06:07.001Z</time></trkpt><trkpt lat="44.41561662895743" lon="10.24003732674861"><ele>730.0</ele><time>2026-04-06T11:06:08.001Z</time></trkpt><trkpt lat="44.4157507810365" lon="10.240110331896853"><ele>730.0</ele><time>2026-04-06T11:06:09.001Z</time></trkpt><trkpt lat="44.41589805254313" lon="10.240186930149639"><ele>730.0</ele><time>2026-04-06T11:06:10.001Z</time></trkpt><trkpt lat="44.41606828210023" lon="10.240287863817906"><ele>730.0</ele><time>2026-04-06T11:06:11.001Z</time></trkpt><trkpt lat="44.41622341014668" lon="10.24039264088498"><ele>730.0</ele><time>2026-04-06T11:06:12.001Z</time></trkpt><trkpt lat="44.41637445384859" lon="10.240504486429467"><ele>730.0</ele><time>2026-04-06T11:06:13.001Z</time></trkpt><trkpt lat="44.41652170424177" lon="10.240625239961808"><ele>730.6666666666667</ele><time>2026-04-06T11:06:14.001Z</time></trkpt><trkpt lat="44.4166777603524" lon="10.240754183414309"><ele>731.3333333333334</ele><time>2026-04-06T11:06:15.001Z</time></trkpt><trkpt lat="44.41683149121808" lon="10.240876347056773"><ele>732.0</ele><time>2026-04-06T11:06:16.001Z</time></trkpt><trkpt lat="44.41700116380146" lon="10.24098522262535"><ele>729.3333333333334</ele><time>2026-04-06T11:06:17.001Z</time></trkpt><trkpt lat="44.41716006817939" lon="10.241110027898168"><ele>726.6666666666667</ele><time>2026-04-06T11:06:18.001Z</time></trkpt><trkpt lat="44.417306344586926" lon="10.241249165737388"><ele>724.0</ele><time>2026-04-06T11:06:19.001Z</time></trkpt><trkpt lat="44.41744457737857" lon="10.241358177450293"><ele>724.0</ele><time>2026-04-06T11:06:20.001Z</time></trkpt><trkpt lat="44.41756336361776" lon="10.24145240326739"><ele>724.0</ele><time>2026-04-06T11:06:21.001Z</time></trkpt><trkpt lat="44.4176644888673" lon="10.24153692952062"><ele>724.0</ele><time>2026-04-06T11:06:22.001Z</time></trkpt><trkpt lat="44.4177580388987" lon="10.241616107135242"><ele>724.0</ele><time>2026-04-06T11:06:23.001Z</time></trkpt><trkpt lat="44.41781474407653" lon="10.241739737243742"><ele>728.25</ele><time>2026-04-06T11:06:24.001Z</time></trkpt><trkpt lat="44.41784212654679" lon="10.241885149696623"><ele>732.5</ele><time>2026-04-06T11:06:25.001Z</time></trkpt><trkpt lat="44.41783814843493" lon="10.242052479580055"><ele>736.75</ele><time>2026-04-06T11:06:26.001Z</time></trkpt><trkpt lat="44.417814926041274" lon="10.242237520756472"><ele>741.0</ele><time>2026-04-06T11:06:27.001Z</time></trkpt><trkpt lat="44.41778906158463" lon="10.242456650122628"><ele>747.0</ele><time>2026-04-06T11:06:28.001Z</time></trkpt><trkpt lat="44.41776812379763" lon="10.242707674372921"><ele>753.0</ele><time>2026-04-06T11:06:29.001Z</time></trkpt><trkpt lat="44.41774920724541" lon="10.242932009057984"><ele>759.0</ele><time>2026-04-06T11:06:30.001Z</time></trkpt><trkpt lat="44.417729532417034" lon="10.24314876023624"><ele>760.6</ele><time>2026-04-06T11:06:31.001Z</time></trkpt><trkpt lat="44.41771830118505" lon="10.243332461590365"><ele>762.2</ele><time>2026-04-06T11:06:32.001Z</time></trkpt><trkpt lat="44.41771995711442" lon="10.243469202704897"><ele>763.8000000000001</ele><time>2026-04-06T11:06:33.001Z</time></trkpt><trkpt lat="44.41775317173579" lon="10.243583437834499"><ele>765.4000000000001</ele><time>2026-04-06T11:06:34.001Z</time></trkpt><trkpt lat="44.41782101175215" lon="10.243667855088336"><ele>767.0</ele><time>2026-04-06T11:06:35.001Z</time></trkpt><trkpt lat="44.41791300455682" lon="10.24374299388678"><ele>757.3333333333333</ele><time>2026-04-06T11:06:36.001Z</time></trkpt><trkpt lat="44.418055086261205" lon="10.243762299854094"><ele>747.6666666666666</ele><time>2026-04-06T11:06:37.001Z</time></trkpt><trkpt lat="44.4182136545004" lon="10.243697543514102"><ele>738.0</ele><time>2026-04-06T11:06:38.001Z</time></trkpt><trkpt lat="44.41838268525946" lon="10.243682913579539"><ele>738.0</ele><time>2026-04-06T11:06:39.001Z</time></trkpt><trkpt lat="44.41851077177825" lon="10.243681130086042"><ele>738.0</ele><time>2026-04-06T11:06:40.001Z</time></trkpt><trkpt lat="44.41862895115399" lon="10.2437220256539"><ele>738.0</ele><time>2026-04-06T11:06:41.001Z</time></trkpt><trkpt lat="44.41872828965213" lon="10.243800275059833"><ele>738.0</ele><time>2026-04-06T11:06:42.001Z</time></trkpt><trkpt lat="44.41882049432576" lon="10.243880061531005"><ele>738.25</ele><time>2026-04-06T11:06:43.001Z</time></trkpt><trkpt lat="44.418917429793424" lon="10.243935984639252"><ele>738.5</ele><time>2026-04-06T11:06:44.001Z</time></trkpt><trkpt lat="44.41903409658219" lon="10.2439516894201"><ele>738.75</ele><time>2026-04-06T11:06:45.001Z</time></trkpt><trkpt lat="44.41915226097492" lon="10.243905967316362"><ele>739.0</ele><time>2026-04-06T11:06:46.001Z</time></trkpt><trkpt lat="44.419258676296565" lon="10.243826215131213"><ele>739.0</ele><time>2026-04-06T11:06:47.001Z</time></trkpt><trkpt lat="44.41937722221782" lon="10.243781958553345"><ele>739.0</ele><time>2026-04-06T11:06:48.001Z</time></trkpt><trkpt lat="44.41950725917284" lon="10.243739303390514"><ele>739.0</ele><time>2026-04-06T11:06:49.001Z</time></trkpt><trkpt lat="44.41965050996012" lon="10.243690539895036"><ele>739.0</ele><time>2026-04-06T11:06:50.001Z</time></trkpt><trkpt lat="44.41977668951881" lon="10.243710729543247"><ele>741.0</ele><time>2026-04-06T11:06:51.001Z</time></trkpt><trkpt lat="44.419889246782084" lon="10.243761605101785"><ele>743.0</ele><time>2026-04-06T11:06:52.001Z</time></trkpt><trkpt lat="44.42000133072121" lon="10.243858293964722"><ele>745.0</ele><time>2026-04-06T11:06:53.001Z</time></trkpt><trkpt lat="44.42011315362765" lon="10.243985436899763"><ele>747.0</ele><time>2026-04-06T11:06:54.001Z</time></trkpt><trkpt lat="44.420213178592576" lon="10.244096515509062"><ele>747.0</ele><time>2026-04-06T11:06:55.001Z</time></trkpt><trkpt lat="44.4203135439445" lon="10.244151810393545"><ele>747.0</ele><time>2026-04-06T11:06:56.001Z</time></trkpt><trkpt lat="44.420408205764126" lon="10.2441535140411"><ele>747.0</ele><time>2026-04-06T11:06:57.001Z</time></trkpt><trkpt lat="44.42050164881906" lon="10.24410554630297"><ele>747.0</ele><time>2026-04-06T11:06:58.001Z</time></trkpt><trkpt lat="44.42062404035438" lon="10.244041830513305"><ele>747.0</ele><time>2026-04-06T11:06:59.001Z</time></trkpt><trkpt lat="44.420764933658035" lon="10.24393593636296"><ele>747.0</ele><time>2026-04-06T11:07:00.001Z</time></trkpt><trkpt lat="44.42091113978908" lon="10.243821053707997"><ele>747.0</ele><time>2026-04-06T11:07:01.001Z</time></trkpt><trkpt lat="44.42102700425144" lon="10.243670668129242"><ele>747.0</ele><time>2026-04-06T11:07:02.001Z</time></trkpt><trkpt lat="44.42109423215902" lon="10.24349715876661"><ele>747.0</ele><time>2026-04-06T11:07:03.001Z</time></trkpt><trkpt lat="44.42119106232132" lon="10.243364795548949"><ele>747.0</ele><time>2026-04-06T11:07:04Z</time></trkpt><trkpt lat="44.42129389306034" lon="10.243263060346825"><ele>747.0</ele><time>2026-04-06T11:07:05Z</time></trkpt><trkpt lat="44.42143466990033" lon="10.243155584903032"><ele>747.0</ele><time>2026-04-06T11:07:06Z</time></trkpt><trkpt lat="44.42158952248819" lon="10.243037904576916"><ele>746.0</ele><time>2026-04-06T11:07:07Z</time></trkpt><trkpt lat="44.42174296693135" lon="10.242920127909343"><ele>745.0</ele><time>2026-04-06T11:07:08Z</time></trkpt><trkpt lat="44.42187417193298" lon="10.24283177806095"><ele>744.0</ele><time>2026-04-06T11:07:09Z</time></trkpt><trkpt lat="44.421992409684336" lon="10.242777887593606"><ele>743.0</ele><time>2026-04-06T11:07:10Z</time></trkpt><trkpt lat="44.42211482831317" lon="10.24275864860128"><ele>743.5</ele><time>2026-04-06T11:07:11Z</time></trkpt><trkpt lat="44.422230414928094" lon="10.24277794185248"><ele>744.0</ele><time>2026-04-06T11:07:12Z</time></trkpt><trkpt lat="44.42233824076709" lon="10.242813655396699"><ele>744.5</ele><time>2026-04-06T11:07:13Z</time></trkpt><trkpt lat="44.422436938963635" lon="10.242922397684694"><ele>745.0</ele><time>2026-04-06T11:07:14Z</time></trkpt><trkpt lat="44.42250656361302" lon="10.24309455483437"><ele>751.5</ele><time>2026-04-06T11:07:15Z</time></trkpt><trkpt lat="44.42259277931625" lon="10.243262995690799"><ele>758.0</ele><time>2026-04-06T11:07:16Z</time></trkpt><trkpt lat="44.42268934414575" lon="10.24341834765409"><ele>764.5</ele><time>2026-04-06T11:07:17Z</time></trkpt><trkpt lat="44.42281947725117" lon="10.243531904850338"><ele>771.0</ele><time>2026-04-06T11:07:18Z</time></trkpt><trkpt lat="44.42297251980108" lon="10.243611196583062"><ele>772.6666666666667</ele><time>2026-04-06T11:07:19Z</time></trkpt><trkpt lat="44.423127223165686" lon="10.243690629519943"><ele>774.3333333333334</ele><time>2026-04-06T11:07:20Z</time></trkpt><trkpt lat="44.42325648006413" lon="10.243803730086505"><ele>776.0</ele><time>2026-04-06T11:07:21Z</time></trkpt><trkpt lat="44.42337582197868" lon="10.243966546990556"><ele>776.0</ele><time>2026-04-06T11:07:22Z</time></trkpt><trkpt lat="44.42348660952306" lon="10.24415950778783"><ele>776.0</ele><time>2026-04-06T11:07:23Z</time></trkpt><trkpt lat="44.42358725424802" lon="10.244332481260999"><ele>776.0</ele><time>2026-04-06T11:07:24Z</time></trkpt><trkpt lat="44.42369606916084" lon="10.24445932811092"><ele>772.0</ele><time>2026-04-06T11:07:25Z</time></trkpt><trkpt lat="44.42382615473112" lon="10.244551371531022"><ele>768.0</ele><time>2026-04-06T11:07:26Z</time></trkpt><trkpt lat="44.42397772387086" lon="10.244625007627658"><ele>764.0</ele><time>2026-04-06T11:07:27Z</time></trkpt><trkpt lat="44.42414172321528" lon="10.244680677336575"><ele>764.0</ele><time>2026-04-06T11:07:28Z</time></trkpt><trkpt lat="44.42431954422265" lon="10.244732140803134"><ele>764.0</ele><time>2026-04-06T11:07:29Z</time></trkpt><trkpt lat="44.42447963516829" lon="10.244804232253943"><ele>764.0</ele><time>2026-04-06T11:07:30Z</time></trkpt><trkpt lat="44.424620823012646" lon="10.244845759203843"><ele>764.25</ele><time>2026-04-06T11:07:31Z</time></trkpt><trkpt lat="44.42475217381887" lon="10.244863045537269"><ele>764.5</ele><time>2026-04-06T11:07:32Z</time></trkpt><trkpt lat="44.424881370777705" lon="10.244815008024382"><ele>764.75</ele><time>2026-04-06T11:07:33Z</time></trkpt><trkpt lat="44.42501541051352" lon="10.244733082531246"><ele>765.0</ele><time>2026-04-06T11:07:34Z</time></trkpt><trkpt lat="44.42515419320252" lon="10.244628690926332"><ele>765.0</ele><time>2026-04-06T11:07:35Z</time></trkpt><trkpt lat="44.42527677777381" lon="10.244534512578468"><ele>765.0</ele><time>2026-04-06T11:07:36Z</time></trkpt><trkpt lat="44.4253894127551" lon="10.244483092328595"><ele>765.0</ele><time>2026-04-06T11:07:37Z</time></trkpt><trkpt lat="44.42551010341672" lon="10.244473436172717"><ele>765.0</ele><time>2026-04-06T11:07:38Z</time></trkpt><trkpt lat="44.425635198930834" lon="10.244533616023132"><ele>767.3333333333333</ele><time>2026-04-06T11:07:39Z</time></trkpt><trkpt lat="44.42577587745705" lon="10.24461872202197"><ele>769.6666666666666</ele><time>2026-04-06T11:07:40Z</time></trkpt><trkpt lat="44.425924511228644" lon="10.24468865715879"><ele>772.0</ele><time>2026-04-06T11:07:41Z</time></trkpt><trkpt lat="44.426076738915896" lon="10.244730682847578"><ele>772.0</ele><time>2026-04-06T11:07:42Z</time></trkpt><trkpt lat="44.426235879321965" lon="10.244712681715686"><ele>772.0</ele><time>2026-04-06T11:07:43Z</time></trkpt><trkpt lat="44.42639053766382" lon="10.24465540451527"><ele>772.0</ele><time>2026-04-06T11:07:44Z</time></trkpt><trkpt lat="44.42652976306457" lon="10.244628766703947"><ele>771.8</ele><time>2026-04-06T11:07:45Z</time></trkpt><trkpt lat="44.426640873787086" lon="10.244610632089794"><ele>771.6</ele><time>2026-04-06T11:07:46Z</time></trkpt><trkpt lat="44.426738612399696" lon="10.244614659544792"><ele>771.4</ele><time>2026-04-06T11:07:47Z</time></trkpt><trkpt lat="44.426817833717735" lon="10.244693953492362"><ele>771.1999999999999</ele><time>2026-04-06T11:07:48Z</time></trkpt><trkpt lat="44.426867075434835" lon="10.244818294540162"><ele>771.0</ele><time>2026-04-06T11:07:49Z</time></trkpt><trkpt lat="44.4268690386215" lon="10.244969690895555"><ele>776.25</ele><time>2026-04-06T11:07:50Z</time></trkpt><trkpt lat="44.42683600876441" lon="10.245145100842178"><ele>781.5</ele><time>2026-04-06T11:07:51Z</time></trkpt><trkpt lat="44.426774285576656" lon="10.24532376594321"><ele>786.75</ele><time>2026-04-06T11:07:52Z</time></trkpt><trkpt lat="44.426711768720665" lon="10.245524796604622"><ele>792.0</ele><time>2026-04-06T11:07:53Z</time></trkpt><trkpt lat="44.42666794628513" lon="10.245761621346611"><ele>795.3333333333333</ele><time>2026-04-06T11:07:54Z</time></trkpt><trkpt lat="44.42664684194718" lon="10.24602114661231"><ele>798.6666666666666</ele><time>2026-04-06T11:07:55Z</time></trkpt><trkpt lat="44.42662359964709" lon="10.246287302623342"><ele>802.0</ele><time>2026-04-06T11:07:56Z</time></trkpt><trkpt lat="44.42659758928593" lon="10.246544902831925"><ele>802.0</ele><time>2026-04-06T11:07:57Z</time></trkpt><trkpt lat="44.42657424046305" lon="10.246807362815797"><ele>802.0</ele><time>2026-04-06T11:07:58Z</time></trkpt><trkpt lat="44.42656833223873" lon="10.247074081072032"><ele>802.0</ele><time>2026-04-06T11:07:59Z</time></trkpt><trkpt lat="44.426575120316514" lon="10.24734946902429"><ele>803.0</ele><time>2026-04-06T11:08:00Z</time></trkpt><trkpt lat="44.42659363852126" lon="10.247622848702289"><ele>804.0</ele><time>2026-04-06T11:08:01Z</time></trkpt><trkpt lat="44.426610995363184" lon="10.247878031281566"><ele>805.0</ele><time>2026-04-06T11:08:02Z</time></trkpt><trkpt lat="44.426621149996954" lon="10.248109493970713"><ele>806.6666666666666</ele><time>2026-04-06T11:08:03Z</time></trkpt><trkpt lat="44.42662180578662" lon="10.248322124532413"><ele>808.3333333333333</ele><time>2026-04-06T11:08:04Z</time></trkpt><trkpt lat="44.42659971166968" lon="10.248528109858954"><ele>810.0</ele><time>2026-04-06T11:08:05Z</time></trkpt><trkpt lat="44.426566437448685" lon="10.248753511814511"><ele>810.3333333333333</ele><time>2026-04-06T11:08:06Z</time></trkpt><trkpt lat="44.42652750545526" lon="10.248979407006644"><ele>810.6666666666666</ele><time>2026-04-06T11:08:07Z</time></trkpt><trkpt lat="44.426488621875734" lon="10.249236459828134"><ele>811.0</ele><time>2026-04-06T11:08:08Z</time></trkpt><trkpt lat="44.42645149702731" lon="10.249511096185653"><ele>811.0</ele><time>2026-04-06T11:08:09Z</time></trkpt><trkpt lat="44.42642160700404" lon="10.249769097378138"><ele>811.0</ele><time>2026-04-06T11:08:10Z</time></trkpt><trkpt lat="44.42638788047157" lon="10.25002297346636"><ele>811.0</ele><time>2026-04-06T11:08:11Z</time></trkpt><trkpt lat="44.4263491966545" lon="10.250286362105376"><ele>811.6666666666666</ele><time>2026-04-06T11:08:12Z</time></trkpt><trkpt lat="44.42631693541048" lon="10.250518575387847"><ele>812.3333333333333</ele><time>2026-04-06T11:08:13Z</time></trkpt><trkpt lat="44.426300551613544" lon="10.250733673640074"><ele>813.0</ele><time>2026-04-06T11:08:14Z</time></trkpt><trkpt lat="44.42630241921171" lon="10.250962619473475"><ele>815.25</ele><time>2026-04-06T11:08:15Z</time></trkpt><trkpt lat="44.42630658716103" lon="10.251181046000205"><ele>817.5</ele><time>2026-04-06T11:08:16Z</time></trkpt><trkpt lat="44.42630904012287" lon="10.251379163930336"><ele>819.75</ele><time>2026-04-06T11:08:17Z</time></trkpt><trkpt lat="44.42631014796457" lon="10.251545263406914"><ele>822.0</ele><time>2026-04-06T11:08:18Z</time></trkpt><trkpt lat="44.4263247633957" lon="10.251688307714318"><ele>822.0</ele><time>2026-04-06T11:08:19Z</time></trkpt><trkpt lat="44.42636497668355" lon="10.251807035846069"><ele>822.0</ele><time>2026-04-06T11:08:20Z</time></trkpt><trkpt lat="44.42643685635844" lon="10.25189549572376"><ele>822.0</ele><time>2026-04-06T11:08:21Z</time></trkpt><trkpt lat="44.42653457793032" lon="10.25194772360447"><ele>822.0</ele><time>2026-04-06T11:08:22Z</time></trkpt><trkpt lat="44.42664162544754" lon="10.251990927962854"><ele>822.0</ele><time>2026-04-06T11:08:23Z</time></trkpt><trkpt lat="44.426746696853456" lon="10.251910091222932"><ele>822.0</ele><time>2026-04-06T11:08:24Z</time></trkpt><trkpt lat="44.4268448900675" lon="10.251820782422024"><ele>822.0</ele><time>2026-04-06T11:08:25Z</time></trkpt><trkpt lat="44.426958278600885" lon="10.251730543401143"><ele>822.0</ele><time>2026-04-06T11:08:26Z</time></trkpt><trkpt lat="44.42705506169223" lon="10.251673068960157"><ele>822.0</ele><time>2026-04-06T11:08:27Z</time></trkpt><trkpt lat="44.42715183820193" lon="10.25164720348519"><ele>822.0</ele><time>2026-04-06T11:08:28Z</time></trkpt><trkpt lat="44.427244549040104" lon="10.251677473779646"><ele>822.0</ele><time>2026-04-06T11:08:29Z</time></trkpt><trkpt lat="44.42734983371659" lon="10.251746931093582"><ele>822.0</ele><time>2026-04-06T11:08:30Z</time></trkpt><trkpt lat="44.42745392389497" lon="10.251896787197069"><ele>822.0</ele><time>2026-04-06T11:08:31Z</time></trkpt><trkpt lat="44.42752620822384" lon="10.252018052303242"><ele>822.0</ele><time>2026-04-06T11:08:32Z</time></trkpt><trkpt lat="44.42759974843722" lon="10.252094598054432"><ele>822.0</ele><time>2026-04-06T11:08:33Z</time></trkpt><trkpt lat="44.4276950907623" lon="10.252129042636179"><ele>822.0</ele><time>2026-04-06T11:08:34Z</time></trkpt><trkpt lat="44.42780088298705" lon="10.252120008286326"><ele>822.0</ele><time>2026-04-06T11:08:35Z</time></trkpt><trkpt lat="44.42789209007045" lon="10.25212246891457"><ele>822.0</ele><time>2026-04-06T11:08:36Z</time></trkpt><trkpt lat="44.428183448962486" lon="10.252019347532643"><ele>821.0</ele><time>2026-04-06T11:08:37Z</time></trkpt><trkpt lat="44.428365423072286" lon="10.251985465539168"><ele>820.0</ele><time>2026-04-06T11:08:38Z</time></trkpt><trkpt lat="44.42853942102855" lon="10.251947968077324"><ele>819.0</ele><time>2026-04-06T11:08:39Z</time></trkpt><trkpt lat="44.42872320846433" lon="10.251925668078753"><ele>821.0</ele><time>2026-04-06T11:08:40Z</time></trkpt><trkpt lat="44.42889656608114" lon="10.251920052676141"><ele>823.0</ele><time>2026-04-06T11:08:41Z</time></trkpt><trkpt lat="44.42904860235578" lon="10.251913388152722"><ele>825.0</ele><time>2026-04-06T11:08:42Z</time></trkpt><trkpt lat="44.42917643678124" lon="10.251883864153916"><ele>825.0</ele><time>2026-04-06T11:08:43Z</time></trkpt><trkpt lat="44.42927021581323" lon="10.251851307354165"><ele>825.0</ele><time>2026-04-06T11:08:44Z</time></trkpt><trkpt lat="44.42934313806691" lon="10.251815417522742"><ele>825.0</ele><time>2026-04-06T11:08:45Z</time></trkpt><trkpt lat="44.42942565264621" lon="10.251766694641352"><ele>825.0</ele><time>2026-04-06T11:08:47Z</time></trkpt><trkpt lat="44.42951601164346" lon="10.251664396251035"><ele>825.0</ele><time>2026-04-06T11:08:49Z</time></trkpt><trkpt lat="44.42958400715295" lon="10.251599590396706"><ele>824.4</ele><time>2026-04-06T11:08:50Z</time></trkpt><trkpt lat="44.42968826245063" lon="10.251538908990412"><ele>823.8</ele><time>2026-04-06T11:08:52Z</time></trkpt><trkpt lat="44.429752699890315" lon="10.251643946388123"><ele>823.2</ele><time>2026-04-06T11:08:54Z</time></trkpt><trkpt lat="44.429756173334695" lon="10.251756989440665"><ele>822.6</ele><time>2026-04-06T11:08:55Z</time></trkpt><trkpt lat="44.429694002139684" lon="10.251887227005623"><ele>822.0</ele><time>2026-04-06T11:08:56Z</time></trkpt><trkpt lat="44.42965436044639" lon="10.252048548974532"><ele>822.0</ele><time>2026-04-06T11:08:57Z</time></trkpt><trkpt lat="44.42964810712249" lon="10.252199464500901"><ele>822.0</ele><time>2026-04-06T11:08:58Z</time></trkpt><trkpt lat="44.42963695702808" lon="10.252334229992865"><ele>822.0</ele><time>2026-04-06T11:08:59Z</time></trkpt><trkpt lat="44.429601224511615" lon="10.252469741018436"><ele>822.0</ele><time>2026-04-06T11:09:00Z</time></trkpt><trkpt lat="44.429570558634154" lon="10.252570969892234"><ele>822.0</ele><time>2026-04-06T11:09:01Z</time></trkpt><trkpt lat="44.42958982233701" lon="10.252672260782312"><ele>822.0</ele><time>2026-04-06T11:09:03Z</time></trkpt><trkpt lat="44.42978118228424" lon="10.252567955498147"><ele>822.0</ele><time>2026-04-06T11:09:06Z</time></trkpt><trkpt lat="44.42976584787061" lon="10.252422769761946"><ele>822.0</ele><time>2026-04-06T11:09:07Z</time></trkpt><trkpt lat="44.4297850025323" lon="10.252276932803195"><ele>822.0</ele><time>2026-04-06T11:09:08Z</time></trkpt><trkpt lat="44.42980462733726" lon="10.252115174896447"><ele>822.0</ele><time>2026-04-06T11:09:09Z</time></trkpt><trkpt lat="44.42984675348667" lon="10.251970703126995"><ele>822.0</ele><time>2026-04-06T11:09:10Z</time></trkpt><trkpt lat="44.429906900039526" lon="10.25181190717565"><ele>822.0</ele><time>2026-04-06T11:09:11Z</time></trkpt><trkpt lat="44.42997137543837" lon="10.251656052195269"><ele>822.0</ele><time>2026-04-06T11:09:12Z</time></trkpt><trkpt lat="44.43004515078396" lon="10.25149889160583"><ele>819.0</ele><time>2026-04-06T11:09:13Z</time></trkpt><trkpt lat="44.43011805641334" lon="10.25135920178412"><ele>816.0</ele><time>2026-04-06T11:09:14Z</time></trkpt><trkpt lat="44.43019090255772" lon="10.251233786953524"><ele>813.0</ele><time>2026-04-06T11:09:15Z</time></trkpt><trkpt lat="44.4302609670255" lon="10.25112282256657"><ele>810.0</ele><time>2026-04-06T11:09:16Z</time></trkpt><trkpt lat="44.43032174244093" lon="10.251031706096883"><ele>807.0</ele><time>2026-04-06T11:09:17Z</time></trkpt><trkpt lat="44.43037855743118" lon="10.250956206950114"><ele>807.0</ele><time>2026-04-06T11:09:18Z</time></trkpt><trkpt lat="44.43047956724533" lon="10.250921800965129"><ele>807.0</ele><time>2026-04-06T11:09:20Z</time></trkpt><trkpt lat="44.43056141637487" lon="10.25102798705925"><ele>807.0</ele><time>2026-04-06T11:09:22Z</time></trkpt><trkpt lat="44.43055588018588" lon="10.251140244976286"><ele>807.0</ele><time>2026-04-06T11:09:23Z</time></trkpt><trkpt lat="44.43051779674236" lon="10.251260833715666"><ele>807.0</ele><time>2026-04-06T11:09:24Z</time></trkpt><trkpt lat="44.43046426211789" lon="10.25140074295214"><ele>810.75</ele><time>2026-04-06T11:09:25Z</time></trkpt><trkpt lat="44.43040966686435" lon="10.251564566647607"><ele>814.5</ele><time>2026-04-06T11:09:26Z</time></trkpt><trkpt lat="44.43036518305836" lon="10.251733524914249"><ele>818.25</ele><time>2026-04-06T11:09:27Z</time></trkpt><trkpt lat="44.43032219718274" lon="10.251889553342599"><ele>822.0</ele><time>2026-04-06T11:09:28Z</time></trkpt><trkpt lat="44.43028383985011" lon="10.252025284025192"><ele>822.0</ele><time>2026-04-06T11:09:29Z</time></trkpt><trkpt lat="44.43025372277693" lon="10.252138126597357"><ele>822.0</ele><time>2026-04-06T11:09:30Z</time></trkpt><trkpt lat="44.43024631100292" lon="10.252229973900269"><ele>822.0</ele><time>2026-04-06T11:09:31Z</time></trkpt><trkpt lat="44.43032910469588" lon="10.252343706249679"><ele>822.0</ele><time>2026-04-06T11:09:33Z</time></trkpt><trkpt lat="44.43039788090241" lon="10.25237970748869"><ele>822.0</ele><time>2026-04-06T11:09:34Z</time></trkpt><trkpt lat="44.43048689138873" lon="10.252337012447114"><ele>822.0</ele><time>2026-04-06T11:09:35Z</time></trkpt><trkpt lat="44.43054154860088" lon="10.25217387925108"><ele>816.75</ele><time>2026-04-06T11:09:36Z</time></trkpt><trkpt lat="44.430626098962" lon="10.252025031412382"><ele>811.5</ele><time>2026-04-06T11:09:37Z</time></trkpt><trkpt lat="44.430703021099944" lon="10.25185338172911"><ele>806.25</ele><time>2026-04-06T11:09:38Z</time></trkpt><trkpt lat="44.43077519266286" lon="10.251685164164257"><ele>801.0</ele><time>2026-04-06T11:09:39Z</time></trkpt><trkpt lat="44.43084257217623" lon="10.251505048230738"><ele>800.25</ele><time>2026-04-06T11:09:40Z</time></trkpt><trkpt lat="44.43091220171567" lon="10.25130909382343"><ele>799.5</ele><time>2026-04-06T11:09:41Z</time></trkpt><trkpt lat="44.43097890029429" lon="10.251121387351454"><ele>798.75</ele><time>2026-04-06T11:09:42Z</time></trkpt><trkpt lat="44.43104000003544" lon="10.250947537000513"><ele>798.0</ele><time>2026-04-06T11:09:43Z</time></trkpt><trkpt lat="44.431102614854815" lon="10.250767282329823"><ele>793.2</ele><time>2026-04-06T11:09:44Z</time></trkpt><trkpt lat="44.431159184489225" lon="10.250609230382455"><ele>788.4</ele><time>2026-04-06T11:09:45Z</time></trkpt><trkpt lat="44.43120933884936" lon="10.250478485461665"><ele>783.6</ele><time>2026-04-06T11:09:46Z</time></trkpt><trkpt lat="44.43124040013032" lon="10.250364227803324"><ele>778.8000000000001</ele><time>2026-04-06T11:09:47Z</time></trkpt><trkpt lat="44.431257408716505" lon="10.25025821198399"><ele>774.0</ele><time>2026-04-06T11:09:48Z</time></trkpt><trkpt lat="44.431243371152604" lon="10.25015389175251"><ele>774.0</ele><time>2026-04-06T11:09:49Z</time></trkpt><trkpt lat="44.431177075184024" lon="10.250079500096406"><ele>774.0</ele><time>2026-04-06T11:09:50Z</time></trkpt><trkpt lat="44.431104013902115" lon="10.250029508962951"><ele>774.0</ele><time>2026-04-06T11:09:51Z</time></trkpt><trkpt lat="44.431024479230146" lon="10.250030938141897"><ele>774.0</ele><time>2026-04-06T11:09:52Z</time></trkpt><trkpt lat="44.43094195527345" lon="10.250072593653638"><ele>774.0</ele><time>2026-04-06T11:09:53Z</time></trkpt><trkpt lat="44.43085317677043" lon="10.250127862850778"><ele>774.0</ele><time>2026-04-06T11:09:54Z</time></trkpt><trkpt lat="44.43074654863174" lon="10.250145972860464"><ele>774.0</ele><time>2026-04-06T11:09:55Z</time></trkpt><trkpt lat="44.43062724321833" lon="10.250129819045613"><ele>774.0</ele><time>2026-04-06T11:09:56Z</time></trkpt><trkpt lat="44.43050772134967" lon="10.25010130134706"><ele>774.0</ele><time>2026-04-06T11:09:57Z</time></trkpt><trkpt lat="44.43040106254301" lon="10.250058244177186"><ele>774.0</ele><time>2026-04-06T11:09:58Z</time></trkpt><trkpt lat="44.43029741966884" lon="10.249995036440051"><ele>774.2</ele><time>2026-04-06T11:09:59Z</time></trkpt><trkpt lat="44.43019503043343" lon="10.249927128235985"><ele>774.4000000000001</ele><time>2026-04-06T11:10:00Z</time></trkpt><trkpt lat="44.430093240661726" lon="10.2498645020584"><ele>774.6</ele><time>2026-04-06T11:10:01Z</time></trkpt><trkpt lat="44.429989107076445" lon="10.249810587114169"><ele>774.8</ele><time>2026-04-06T11:10:02Z</time></trkpt><trkpt lat="44.429886500041285" lon="10.249754628108532"><ele>775.0</ele><time>2026-04-06T11:10:03Z</time></trkpt><trkpt lat="44.429779227780024" lon="10.249718286434788"><ele>774.4</ele><time>2026-04-06T11:10:04Z</time></trkpt><trkpt lat="44.42966765903139" lon="10.249738159077063"><ele>773.8</ele><time>2026-04-06T11:10:05Z</time></trkpt><trkpt lat="44.42956400746849" lon="10.249802424181373"><ele>773.2</ele><time>2026-04-06T11:10:06Z</time></trkpt><trkpt lat="44.42946957230025" lon="10.249881459038855"><ele>772.6</ele><time>2026-04-06T11:10:07Z</time></trkpt><trkpt lat="44.429382026669764" lon="10.249949090803929"><ele>772.0</ele><time>2026-04-06T11:10:08Z</time></trkpt><trkpt lat="44.42930256559118" lon="10.249982376648314"><ele>771.9999999999999</ele><time>2026-04-06T11:10:09Z</time></trkpt><trkpt lat="44.429220485081096" lon="10.249980134384732"><ele>772.0</ele><time>2026-04-06T11:10:10Z</time></trkpt><trkpt lat="44.42914366603844" lon="10.249920450956747"><ele>772.0</ele><time>2026-04-06T11:10:11Z</time></trkpt><trkpt lat="44.42910180545869" lon="10.24980005960034"><ele>772.0</ele><time>2026-04-06T11:10:12Z</time></trkpt><trkpt lat="44.429043575852766" lon="10.249710961845404"><ele>771.9999999999999</ele><time>2026-04-06T11:10:13Z</time></trkpt><trkpt lat="44.42903515301352" lon="10.249620714763637"><ele>772.0</ele><time>2026-04-06T11:10:14Z</time></trkpt><trkpt lat="44.42907830926277" lon="10.249553466813648"><ele>767.8</ele><time>2026-04-06T11:10:15Z</time></trkpt><trkpt lat="44.42913385606672" lon="10.249504533856776"><ele>763.6</ele><time>2026-04-06T11:10:16Z</time></trkpt><trkpt lat="44.42921064604878" lon="10.249493816714967"><ele>759.4</ele><time>2026-04-06T11:10:17Z</time></trkpt><trkpt lat="44.42929867053733" lon="10.249433269135329"><ele>755.1999999999999</ele><time>2026-04-06T11:10:18Z</time></trkpt><trkpt lat="44.429401837004846" lon="10.249395645772896"><ele>751.0</ele><time>2026-04-06T11:10:19Z</time></trkpt><trkpt lat="44.42950979987198" lon="10.249338831219749"><ele>751.0</ele><time>2026-04-06T11:10:20Z</time></trkpt><trkpt lat="44.42959940695016" lon="10.249288717062479"><ele>751.0</ele><time>2026-04-06T11:10:21Z</time></trkpt><trkpt lat="44.429686604337036" lon="10.249244492448241"><ele>751.0</ele><time>2026-04-06T11:10:22Z</time></trkpt><trkpt lat="44.42978036784912" lon="10.24922012236959"><ele>751.0</ele><time>2026-04-06T11:10:23Z</time></trkpt><trkpt lat="44.42987351888824" lon="10.249258915037577"><ele>751.0</ele><time>2026-04-06T11:10:24Z</time></trkpt><trkpt lat="44.42997574385406" lon="10.249300531808046"><ele>749.0</ele><time>2026-04-06T11:10:25Z</time></trkpt><trkpt lat="44.43008180128966" lon="10.249313984664791"><ele>747.0</ele><time>2026-04-06T11:10:26Z</time></trkpt><trkpt lat="44.43018309333915" lon="10.249330025289405"><ele>745.0</ele><time>2026-04-06T11:10:27Z</time></trkpt><trkpt lat="44.43028605226188" lon="10.249321165416546"><ele>743.0</ele><time>2026-04-06T11:10:28Z</time></trkpt><trkpt lat="44.43040393491168" lon="10.249308033583663"><ele>741.0</ele><time>2026-04-06T11:10:29Z</time></trkpt><trkpt lat="44.43051714893563" lon="10.249278369642411"><ele>740.0</ele><time>2026-04-06T11:10:30Z</time></trkpt><trkpt lat="44.43062748352606" lon="10.24924221639245"><ele>739.0</ele><time>2026-04-06T11:10:31Z</time></trkpt><trkpt lat="44.430735046739684" lon="10.249200977894736"><ele>738.0</ele><time>2026-04-06T11:10:32Z</time></trkpt><trkpt lat="44.43083924342873" lon="10.249142881344573"><ele>737.0</ele><time>2026-04-06T11:10:33Z</time></trkpt><trkpt lat="44.43094578828922" lon="10.249096162929183"><ele>736.0</ele><time>2026-04-06T11:10:34Z</time></trkpt><trkpt lat="44.43104590778844" lon="10.249048055122458"><ele>736.0</ele><time>2026-04-06T11:10:35Z</time></trkpt><trkpt lat="44.43114454578446" lon="10.249008396993249"><ele>736.0</ele><time>2026-04-06T11:10:36Z</time></trkpt><trkpt lat="44.43124319271923" lon="10.248965935959964"><ele>736.0</ele><time>2026-04-06T11:10:37Z</time></trkpt><trkpt lat="44.43133506508971" lon="10.248922753836347"><ele>736.0</ele><time>2026-04-06T11:10:38Z</time></trkpt><trkpt lat="44.43141788458411" lon="10.248884481597196"><ele>736.0</ele><time>2026-04-06T11:10:39Z</time></trkpt><trkpt lat="44.43149924381032" lon="10.24885341154851"><ele>735.5999999999999</ele><time>2026-04-06T11:10:40Z</time></trkpt><trkpt lat="44.43158070177571" lon="10.248844166881693"><ele>735.2</ele><time>2026-04-06T11:10:41Z</time></trkpt><trkpt lat="44.43166560311916" lon="10.248862975738502"><ele>734.8</ele><time>2026-04-06T11:10:42Z</time></trkpt><trkpt lat="44.43175881836681" lon="10.24890857367513"><ele>734.4000000000001</ele><time>2026-04-06T11:10:43Z</time></trkpt><trkpt lat="44.4318663624803" lon="10.24896816278203"><ele>734.0</ele><time>2026-04-06T11:10:44Z</time></trkpt><trkpt lat="44.43197095354151" lon="10.249014470620814"><ele>734.0</ele><time>2026-04-06T11:10:45Z</time></trkpt><trkpt lat="44.432069987833046" lon="10.24903612826181"><ele>734.0</ele><time>2026-04-06T11:10:46Z</time></trkpt><trkpt lat="44.43217178252682" lon="10.249032882601318"><ele>734.0</ele><time>2026-04-06T11:10:47Z</time></trkpt><trkpt lat="44.43226614882947" lon="10.249015134289936"><ele>734.0</ele><time>2026-04-06T11:10:48Z</time></trkpt><trkpt lat="44.43236049836136" lon="10.249026587578285"><ele>734.0</ele><time>2026-04-06T11:10:49Z</time></trkpt><trkpt lat="44.43244530831747" lon="10.249011612030975"><ele>731.3333333333333</ele><time>2026-04-06T11:10:50Z</time></trkpt><trkpt lat="44.432523749444705" lon="10.249034170515268"><ele>728.6666666666666</ele><time>2026-04-06T11:10:51Z</time></trkpt><trkpt lat="44.43259319392648" lon="10.249063566716021"><ele>726.0</ele><time>2026-04-06T11:10:52Z</time></trkpt><trkpt lat="44.432659656589294" lon="10.249116719557254"><ele>723.3333333333334</ele><time>2026-04-06T11:10:55Z</time></trkpt><trkpt lat="44.43270264123404" lon="10.249189864351143"><ele>720.6666666666667</ele><time>2026-04-06T11:11:15Z</time></trkpt><trkpt lat="44.43271660982336" lon="10.24929791817902"><ele>718.0</ele><time>2026-04-06T11:11:16Z</time></trkpt><trkpt lat="44.43273842730498" lon="10.24945700526607"><ele>718.0</ele><time>2026-04-06T11:11:17Z</time></trkpt><trkpt lat="44.43275658453409" lon="10.249597702584893"><ele>718.0</ele><time>2026-04-06T11:11:18Z</time></trkpt><trkpt lat="44.43275880683274" lon="10.249790939429204"><ele>718.0</ele><time>2026-04-06T11:11:19Z</time></trkpt><trkpt lat="44.432741650249035" lon="10.249987383497235"><ele>718.0</ele><time>2026-04-06T11:11:20Z</time></trkpt><trkpt lat="44.43272942207158" lon="10.250185782351734"><ele>719.75</ele><time>2026-04-06T11:11:21Z</time></trkpt><trkpt lat="44.432725311666765" lon="10.250382366639952"><ele>721.5</ele><time>2026-04-06T11:11:22Z</time></trkpt><trkpt lat="44.432715948791795" lon="10.250577761520917"><ele>723.25</ele><time>2026-04-06T11:11:23Z</time></trkpt><trkpt lat="44.43273141120603" lon="10.25076383770547"><ele>725.0</ele><time>2026-04-06T11:11:24Z</time></trkpt><trkpt lat="44.43278478875021" lon="10.250919975920974"><ele>725.0</ele><time>2026-04-06T11:11:25Z</time></trkpt><trkpt lat="44.432836330822205" lon="10.251069557440703"><ele>725.0</ele><time>2026-04-06T11:11:26Z</time></trkpt><trkpt lat="44.432887942516395" lon="10.251218962584927"><ele>725.0</ele><time>2026-04-06T11:11:27Z</time></trkpt><trkpt lat="44.43293295964948" lon="10.251375088021295"><ele>725.0</ele><time>2026-04-06T11:11:28Z</time></trkpt><trkpt lat="44.432938400311144" lon="10.25153307076826"><ele>725.75</ele><time>2026-04-06T11:11:29Z</time></trkpt><trkpt lat="44.43296816719369" lon="10.251711578621185"><ele>726.5</ele><time>2026-04-06T11:11:30Z</time></trkpt><trkpt lat="44.43300858013463" lon="10.251907488158912"><ele>727.25</ele><time>2026-04-06T11:11:31Z</time></trkpt><trkpt lat="44.43305794420759" lon="10.25211079037175"><ele>728.0</ele><time>2026-04-06T11:11:32Z</time></trkpt><trkpt lat="44.433097094827566" lon="10.25231080020238"><ele>719.25</ele><time>2026-04-06T11:11:33Z</time></trkpt><trkpt lat="44.43313471894698" lon="10.252492907247056"><ele>710.5</ele><time>2026-04-06T11:11:34Z</time></trkpt><trkpt lat="44.43317686245658" lon="10.25267191695747"><ele>701.75</ele><time>2026-04-06T11:11:35Z</time></trkpt><trkpt lat="44.43323935598427" lon="10.252849193041088"><ele>693.0</ele><time>2026-04-06T11:11:36Z</time></trkpt><trkpt lat="44.43331896243991" lon="10.253025105726877"><ele>693.75</ele><time>2026-04-06T11:11:37Z</time></trkpt><trkpt lat="44.43340602343003" lon="10.253198408690695"><ele>694.5</ele><time>2026-04-06T11:11:38Z</time></trkpt><trkpt lat="44.43348795070813" lon="10.253373150590525"><ele>695.25</ele><time>2026-04-06T11:11:39Z</time></trkpt><trkpt lat="44.43355986831316" lon="10.253538412439813"><ele>696.0</ele><time>2026-04-06T11:11:40Z</time></trkpt><trkpt lat="44.43361945285775" lon="10.253681762272933"><ele>696.0</ele><time>2026-04-06T11:11:41Z</time></trkpt><trkpt lat="44.433665597413984" lon="10.25380669846467"><ele>696.0</ele><time>2026-04-06T11:11:42Z</time></trkpt><trkpt lat="44.43367905046074" lon="10.25394312432059"><ele>696.0</ele><time>2026-04-06T11:11:43Z</time></trkpt><trkpt lat="44.433673608307345" lon="10.254075933340063"><ele>696.0</ele><time>2026-04-06T11:11:44Z</time></trkpt><trkpt lat="44.43368622079109" lon="10.254164886767345"><ele>696.0</ele><time>2026-04-06T11:11:45Z</time></trkpt><trkpt lat="44.433734000214194" lon="10.254226125421447"><ele>696.0</ele><time>2026-04-06T11:11:46Z</time></trkpt><trkpt lat="44.433830683192625" lon="10.254212148020327"><ele>690.5999999999999</ele><time>2026-04-06T11:11:48Z</time></trkpt><trkpt lat="44.433874740466045" lon="10.254130672779539"><ele>685.2</ele><time>2026-04-06T11:11:49Z</time></trkpt><trkpt lat="44.43389635658634" lon="10.254027237058926"><ele>679.8</ele><time>2026-04-06T11:11:50Z</time></trkpt><trkpt lat="44.43391857302903" lon="10.253860053752787"><ele>674.4000000000001</ele><time>2026-04-06T11:11:51Z</time></trkpt><trkpt lat="44.43396317060588" lon="10.253697008188048"><ele>669.0</ele><time>2026-04-06T11:11:52Z</time></trkpt><trkpt lat="44.43399409095614" lon="10.25353845762492"><ele>669.0</ele><time>2026-04-06T11:11:53Z</time></trkpt><trkpt lat="44.43401840879301" lon="10.25341376283594"><ele>669.0</ele><time>2026-04-06T11:11:54Z</time></trkpt><trkpt lat="44.434043010718845" lon="10.253287610816107"><ele>669.0</ele><time>2026-04-06T11:11:55Z</time></trkpt><trkpt lat="44.43405003260684" lon="10.253167621601321"><ele>669.0</ele><time>2026-04-06T11:11:56Z</time></trkpt><trkpt lat="44.43409087252463" lon="10.253060768799887"><ele>669.0</ele><time>2026-04-06T11:11:57Z</time></trkpt><trkpt lat="44.43413048865961" lon="10.252940153549401"><ele>669.0</ele><time>2026-04-06T11:11:58Z</time></trkpt><trkpt lat="44.43416351714424" lon="10.252806812682577"><ele>669.0</ele><time>2026-04-06T11:11:59Z</time></trkpt><trkpt lat="44.43419553577441" lon="10.25267674111706"><ele>669.0</ele><time>2026-04-06T11:12:00Z</time></trkpt><trkpt lat="44.43426265638153" lon="10.252573533094735"><ele>669.0</ele><time>2026-04-06T11:12:01Z</time></trkpt><trkpt lat="44.43438432459054" lon="10.252533991615929"><ele>669.0</ele><time>2026-04-06T11:12:02Z</time></trkpt><trkpt lat="44.43442321488719" lon="10.252457510886591"><ele>669.0</ele><time>2026-04-06T11:12:03Z</time></trkpt><trkpt lat="44.43440590240709" lon="10.252320177476847"><ele>669.0</ele><time>2026-04-06T11:12:04Z</time></trkpt><trkpt lat="44.43442648027024" lon="10.252213781277735"><ele>669.0</ele><time>2026-04-06T11:12:05Z</time></trkpt><trkpt lat="44.434447692483694" lon="10.2520888023506"><ele>669.0</ele><time>2026-04-06T11:12:06Z</time></trkpt><trkpt lat="44.43446680175725" lon="10.25195067887356"><ele>669.0</ele><time>2026-04-06T11:12:07Z</time></trkpt><trkpt lat="44.434482287013424" lon="10.251804372286028"><ele>669.0</ele><time>2026-04-06T11:12:08Z</time></trkpt><trkpt lat="44.434492244973136" lon="10.251646936557501"><ele>669.0</ele><time>2026-04-06T11:12:09Z</time></trkpt><trkpt lat="44.43450679431186" lon="10.25150083122377"><ele>669.0</ele><time>2026-04-06T11:12:10Z</time></trkpt><trkpt lat="44.4345755572755" lon="10.251376068103225"><ele>669.0</ele><time>2026-04-06T11:12:11Z</time></trkpt><trkpt lat="44.434610388706126" lon="10.25126039591086"><ele>669.0</ele><time>2026-04-06T11:12:12Z</time></trkpt><trkpt lat="44.43464018428318" lon="10.251142815401352"><ele>664.8333333333334</ele><time>2026-04-06T11:12:13Z</time></trkpt><trkpt lat="44.43466607703795" lon="10.251036277124156"><ele>660.6666666666666</ele><time>2026-04-06T11:12:14Z</time></trkpt><trkpt lat="44.434686699760526" lon="10.25094898894885"><ele>656.5</ele><time>2026-04-06T11:12:15Z</time></trkpt><trkpt lat="44.43470676657527" lon="10.25085032909437"><ele>652.3333333333333</ele><time>2026-04-06T11:12:17Z</time></trkpt><trkpt lat="44.434813456843905" lon="10.250816150203164"><ele>648.1666666666666</ele><time>2026-04-06T11:12:21Z</time></trkpt><trkpt lat="44.4348758447042" lon="10.250800617151143"><ele>644.0</ele><time>2026-04-06T11:12:24Z</time></trkpt><trkpt lat="44.434867213203525" lon="10.250548689782304"><ele>643.4000000000001</ele><time>2026-04-06T11:12:27Z</time></trkpt><trkpt lat="44.43489919842354" lon="10.250445432657342"><ele>642.8</ele><time>2026-04-06T11:12:30Z</time></trkpt><trkpt lat="44.434936879162315" lon="10.250332690594476"><ele>642.2</ele><time>2026-04-06T11:12:33Z</time></trkpt><trkpt lat="44.434987118293826" lon="10.250229261723984"><ele>641.5999999999999</ele><time>2026-04-06T11:12:35Z</time></trkpt><trkpt lat="44.435065971604885" lon="10.250073406955048"><ele>641.0</ele><time>2026-04-06T11:12:37Z</time></trkpt><trkpt lat="44.43510865780038" lon="10.249968653008406"><ele>641.0</ele><time>2026-04-06T11:12:38Z</time></trkpt><trkpt lat="44.43515067970186" lon="10.249874574548588"><ele>641.0</ele><time>2026-04-06T11:12:39Z</time></trkpt><trkpt lat="44.4351989518347" lon="10.249810140174498"><ele>641.0</ele><time>2026-04-06T11:12:40Z</time></trkpt><trkpt lat="44.43524727458104" lon="10.249727740801104"><ele>641.0</ele><time>2026-04-06T11:12:41Z</time></trkpt><trkpt lat="44.43535620792871" lon="10.249742291061803"><ele>641.0</ele><time>2026-04-06T11:12:42Z</time></trkpt><trkpt lat="44.43545214434036" lon="10.249699146915587"><ele>641.0</ele><time>2026-04-06T11:12:43Z</time></trkpt><trkpt lat="44.43554552160495" lon="10.24963256675239"><ele>639.5</ele><time>2026-04-06T11:12:44Z</time></trkpt><trkpt lat="44.435618471636175" lon="10.249539040557318"><ele>638.0</ele><time>2026-04-06T11:12:45Z</time></trkpt><trkpt lat="44.43568001771817" lon="10.249457701482763"><ele>636.5</ele><time>2026-04-06T11:12:46Z</time></trkpt><trkpt lat="44.43573508466824" lon="10.249398345503828"><ele>635.0</ele><time>2026-04-06T11:12:47Z</time></trkpt><trkpt lat="44.435825241101945" lon="10.249355382475905"><ele>633.5</ele><time>2026-04-06T11:12:49Z</time></trkpt><trkpt lat="44.43587144872664" lon="10.249439721599918"><ele>632.0</ele><time>2026-04-06T11:12:50Z</time></trkpt><trkpt lat="44.43588475083803" lon="10.249582262062173"><ele>632.0</ele><time>2026-04-06T11:12:51Z</time></trkpt><trkpt lat="44.43589323223733" lon="10.249767527810455"><ele>632.0</ele><time>2026-04-06T11:12:52Z</time></trkpt><trkpt lat="44.43592615796444" lon="10.249942737020797"><ele>632.0</ele><time>2026-04-06T11:12:53Z</time></trkpt><trkpt lat="44.43598261893878" lon="10.250132821929986"><ele>632.0</ele><time>2026-04-06T11:12:54Z</time></trkpt><trkpt lat="44.4360389540291" lon="10.250327150292005"><ele>631.2</ele><time>2026-04-06T11:12:55Z</time></trkpt><trkpt lat="44.436087737059864" lon="10.250490213097086"><ele>630.4000000000001</ele><time>2026-04-06T11:12:56Z</time></trkpt><trkpt lat="44.43612800895464" lon="10.250635690865579"><ele>629.5999999999999</ele><time>2026-04-06T11:12:57Z</time></trkpt><trkpt lat="44.436160143609776" lon="10.250745218896412"><ele>628.8</ele><time>2026-04-06T11:12:58Z</time></trkpt><trkpt lat="44.43618920078383" lon="10.250833797262672"><ele>628.0</ele><time>2026-04-06T11:12:59Z</time></trkpt><trkpt lat="44.436234330689935" lon="10.2508955201666"><ele>628.0</ele><time>2026-04-06T11:13:00Z</time></trkpt><trkpt lat="44.43629329820488" lon="10.250926805372197"><ele>628.0</ele><time>2026-04-06T11:13:01Z</time></trkpt><trkpt lat="44.43637706148359" lon="10.25089031507472"><ele>628.0</ele><time>2026-04-06T11:13:02Z</time></trkpt><trkpt lat="44.43642838610464" lon="10.250796231543502"><ele>628.0</ele><time>2026-04-06T11:13:03Z</time></trkpt><trkpt lat="44.436418773723005" lon="10.250630954646548"><ele>628.0</ele><time>2026-04-06T11:13:04Z</time></trkpt><trkpt lat="44.4364384456014" lon="10.250473351193836"><ele>624.4</ele><time>2026-04-06T11:13:05Z</time></trkpt><trkpt lat="44.43644878935289" lon="10.250302266760032"><ele>620.8</ele><time>2026-04-06T11:13:06Z</time></trkpt><trkpt lat="44.436471498934374" lon="10.250155998922981"><ele>617.2</ele><time>2026-04-06T11:13:07Z</time></trkpt><trkpt lat="44.436526748512634" lon="10.250045280349376"><ele>613.6</ele><time>2026-04-06T11:13:08Z</time></trkpt><trkpt lat="44.436612540442596" lon="10.249991899948894"><ele>610.0</ele><time>2026-04-06T11:13:09Z</time></trkpt><trkpt lat="44.43670725034574" lon="10.249889076899725"><ele>611.25</ele><time>2026-04-06T11:13:10Z</time></trkpt><trkpt lat="44.43679030534973" lon="10.249767087808209"><ele>612.5</ele><time>2026-04-06T11:13:11Z</time></trkpt><trkpt lat="44.43684289306605" lon="10.249613711087898"><ele>613.75</ele><time>2026-04-06T11:13:12Z</time></trkpt><trkpt lat="44.43683633410999" lon="10.249437325827724"><ele>615.0</ele><time>2026-04-06T11:13:13Z</time></trkpt><trkpt lat="44.43682061287146" lon="10.249273797992622"><ele>615.0</ele><time>2026-04-06T11:13:14Z</time></trkpt><trkpt lat="44.43681091665703" lon="10.249100255859092"><ele>615.0</ele><time>2026-04-06T11:13:15Z</time></trkpt><trkpt lat="44.43679603114344" lon="10.248937351197963"><ele>615.0</ele><time>2026-04-06T11:13:16Z</time></trkpt><trkpt lat="44.436815551742484" lon="10.248778957585476"><ele>615.0</ele><time>2026-04-06T11:13:17Z</time></trkpt><trkpt lat="44.436853938157114" lon="10.248611519434"><ele>613.6</ele><time>2026-04-06T11:13:18Z</time></trkpt><trkpt lat="44.43689618604214" lon="10.248449240136074"><ele>612.2</ele><time>2026-04-06T11:13:19Z</time></trkpt><trkpt lat="44.436935616919016" lon="10.248294027878986"><ele>610.8</ele><time>2026-04-06T11:13:20Z</time></trkpt><trkpt lat="44.43696931152766" lon="10.248144094153968"><ele>609.4</ele><time>2026-04-06T11:13:21Z</time></trkpt><trkpt lat="44.436984587516186" lon="10.248019048348414"><ele>608.0</ele><time>2026-04-06T11:13:22Z</time></trkpt><trkpt lat="44.43696337974731" lon="10.247898608613015"><ele>603.1999999999999</ele><time>2026-04-06T11:13:23Z</time></trkpt><trkpt lat="44.43689322250686" lon="10.247809382456811"><ele>598.4</ele><time>2026-04-06T11:13:24Z</time></trkpt><trkpt lat="44.4368088540424" lon="10.247743144976221"><ele>593.5999999999999</ele><time>2026-04-06T11:13:25Z</time></trkpt><trkpt lat="44.436701168582374" lon="10.247705598396058"><ele>588.8</ele><time>2026-04-06T11:13:26Z</time></trkpt><trkpt lat="44.436561992886226" lon="10.247684819095278"><ele>584.0</ele><time>2026-04-06T11:13:27Z</time></trkpt><trkpt lat="44.43642432796309" lon="10.247675884859667"><ele>588.25</ele><time>2026-04-06T11:13:28Z</time></trkpt><trkpt lat="44.43628400226248" lon="10.247678886595232"><ele>592.5</ele><time>2026-04-06T11:13:29Z</time></trkpt><trkpt lat="44.43615576455069" lon="10.24766085808608"><ele>596.75</ele><time>2026-04-06T11:13:30Z</time></trkpt><trkpt lat="44.43602922202413" lon="10.247601356112844"><ele>601.0</ele><time>2026-04-06T11:13:31Z</time></trkpt><trkpt lat="44.43590911445769" lon="10.247523010746812"><ele>601.0</ele><time>2026-04-06T11:13:32Z</time></trkpt><trkpt lat="44.43579995222614" lon="10.247444828210554"><ele>601.0</ele><time>2026-04-06T11:13:33Z</time></trkpt><trkpt lat="44.4357016822984" lon="10.24737761202187"><ele>601.0</ele><time>2026-04-06T11:13:34Z</time></trkpt><trkpt lat="44.43563199561684" lon="10.24728509142593"><ele>601.0</ele><time>2026-04-06T11:13:35Z</time></trkpt><trkpt lat="44.43560478307728" lon="10.247176094691065"><ele>601.0</ele><time>2026-04-06T11:13:36Z</time></trkpt><trkpt lat="44.43560046084255" lon="10.247055240923041"><ele>596.5</ele><time>2026-04-06T11:13:37Z</time></trkpt><trkpt lat="44.435619843439106" lon="10.24691362402807"><ele>592.0</ele><time>2026-04-06T11:13:38Z</time></trkpt><trkpt lat="44.435680969147356" lon="10.246771894161396"><ele>587.5</ele><time>2026-04-06T11:13:39Z</time></trkpt><trkpt lat="44.43576345263446" lon="10.246646278804095"><ele>583.0</ele><time>2026-04-06T11:13:40Z</time></trkpt><trkpt lat="44.43583996209631" lon="10.24652740940162"><ele>580.3333333333334</ele><time>2026-04-06T11:13:41Z</time></trkpt><trkpt lat="44.435880750880514" lon="10.246426525314938"><ele>577.6666666666667</ele><time>2026-04-06T11:13:42Z</time></trkpt><trkpt lat="44.4358594105982" lon="10.246323287683715"><ele>575.0</ele><time>2026-04-06T11:13:43Z</time></trkpt><trkpt lat="44.43581937581942" lon="10.246233544184884"><ele>572.3333333333334</ele><time>2026-04-06T11:13:44Z</time></trkpt><trkpt lat="44.435745585526824" lon="10.246178887824987"><ele>569.6666666666666</ele><time>2026-04-06T11:13:45Z</time></trkpt><trkpt lat="44.435634510964036" lon="10.246134062197186"><ele>567.0</ele><time>2026-04-06T11:13:46Z</time></trkpt><trkpt lat="44.435512577618255" lon="10.246070162903843"><ele>565.5</ele><time>2026-04-06T11:13:47Z</time></trkpt><trkpt lat="44.43540325784203" lon="10.245972552392162"><ele>564.0</ele><time>2026-04-06T11:13:48Z</time></trkpt><trkpt lat="44.43532673765766" lon="10.245805312013534"><ele>562.5</ele><time>2026-04-06T11:13:49Z</time></trkpt><trkpt lat="44.43522790935389" lon="10.245698839559546"><ele>561.0</ele><time>2026-04-06T11:13:50Z</time></trkpt><trkpt lat="44.43515041573916" lon="10.245625514013772"><ele>561.0</ele><time>2026-04-06T11:13:51Z</time></trkpt><trkpt lat="44.435080715915305" lon="10.245589501518815"><ele>561.0</ele><time>2026-04-06T11:13:52Z</time></trkpt><trkpt lat="44.435050221449835" lon="10.245480935023801"><ele>561.0</ele><time>2026-04-06T11:13:54Z</time></trkpt><trkpt lat="44.43509801903457" lon="10.245418553601432"><ele>561.0</ele><time>2026-04-06T11:13:55Z</time></trkpt><trkpt lat="44.43516310895945" lon="10.245416716776454"><ele>561.0</ele><time>2026-04-06T11:13:56Z</time></trkpt><trkpt lat="44.43522914638951" lon="10.245471488156177"><ele>561.0</ele><time>2026-04-06T11:13:57Z</time></trkpt><trkpt lat="44.435293684416926" lon="10.245579760579675"><ele>562.5</ele><time>2026-04-06T11:13:58Z</time></trkpt><trkpt lat="44.4353820886724" lon="10.245692278571259"><ele>564.0</ele><time>2026-04-06T11:13:59Z</time></trkpt><trkpt lat="44.43549168043906" lon="10.245771002640973"><ele>565.5</ele><time>2026-04-06T11:14:00Z</time></trkpt><trkpt lat="44.435603581856356" lon="10.245804516928056"><ele>567.0</ele><time>2026-04-06T11:14:01Z</time></trkpt><trkpt lat="44.43570478456651" lon="10.245814653544677"><ele>567.0</ele><time>2026-04-06T11:14:02Z</time></trkpt><trkpt lat="44.43580762217589" lon="10.245831720391953"><ele>567.0</ele><time>2026-04-06T11:14:03Z</time></trkpt><trkpt lat="44.43591395115182" lon="10.245796291398124"><ele>567.0</ele><time>2026-04-06T11:14:04Z</time></trkpt><trkpt lat="44.435999205906704" lon="10.245718029531092"><ele>567.0</ele><time>2026-04-06T11:14:05Z</time></trkpt><trkpt lat="44.43607184974661" lon="10.245681437940371"><ele>567.0</ele><time>2026-04-06T11:14:06Z</time></trkpt><trkpt lat="44.43613599500124" lon="10.245710869487327"><ele>567.0</ele><time>2026-04-06T11:14:07Z</time></trkpt><trkpt lat="44.43619264449499" lon="10.245762719298591"><ele>567.0</ele><time>2026-04-06T11:14:08Z</time></trkpt><trkpt lat="44.436194835352254" lon="10.245967693658367"><ele>567.0</ele><time>2026-04-06T11:14:09Z</time></trkpt><trkpt lat="44.43625560802507" lon="10.246133862082807"><ele>567.0</ele><time>2026-04-06T11:14:10Z</time></trkpt><trkpt lat="44.43632586080487" lon="10.246296082695745"><ele>565.0</ele><time>2026-04-06T11:14:11Z</time></trkpt><trkpt lat="44.43641055905709" lon="10.24644835515444"><ele>563.0</ele><time>2026-04-06T11:14:12Z</time></trkpt><trkpt lat="44.436481524382266" lon="10.246597914829735"><ele>561.0</ele><time>2026-04-06T11:14:13Z</time></trkpt><trkpt lat="44.43653704302939" lon="10.246733019496949"><ele>559.0</ele><time>2026-04-06T11:14:14Z</time></trkpt><trkpt lat="44.43659102004141" lon="10.246830069403284"><ele>559.0</ele><time>2026-04-06T11:14:15Z</time></trkpt><trkpt lat="44.436660018432924" lon="10.246900907453695"><ele>559.0</ele><time>2026-04-06T11:14:16Z</time></trkpt><trkpt lat="44.43676229285784" lon="10.246925754457434"><ele>559.0</ele><time>2026-04-06T11:14:17Z</time></trkpt><trkpt lat="44.43688342254689" lon="10.246829159375817"><ele>559.0</ele><time>2026-04-06T11:14:18Z</time></trkpt><trkpt lat="44.437027563781626" lon="10.246779009575398"><ele>555.0</ele><time>2026-04-06T11:14:19Z</time></trkpt><trkpt lat="44.4371842147005" lon="10.246733711730162"><ele>551.0</ele><time>2026-04-06T11:14:20Z</time></trkpt><trkpt lat="44.437326533967955" lon="10.246746534705578"><ele>547.0</ele><time>2026-04-06T11:14:21Z</time></trkpt><trkpt lat="44.437469432514746" lon="10.246728008596488"><ele>543.0</ele><time>2026-04-06T11:14:22Z</time></trkpt><trkpt lat="44.437572161959025" lon="10.24670353482359"><ele>543.0</ele><time>2026-04-06T11:14:23Z</time></trkpt><trkpt lat="44.43765062099322" lon="10.246686359102775"><ele>543.0</ele><time>2026-04-06T11:14:24Z</time></trkpt><trkpt lat="44.43771238997275" lon="10.24675273052598"><ele>543.0</ele><time>2026-04-06T11:14:25Z</time></trkpt><trkpt lat="44.43775573636016" lon="10.246880213266305"><ele>543.0</ele><time>2026-04-06T11:14:26Z</time></trkpt><trkpt lat="44.43778495092684" lon="10.247053775611953"><ele>543.0</ele><time>2026-04-06T11:14:27Z</time></trkpt><trkpt lat="44.437818578544956" lon="10.247245757011473"><ele>539.25</ele><time>2026-04-06T11:14:28Z</time></trkpt><trkpt lat="44.437873964123575" lon="10.247404047246235"><ele>535.5</ele><time>2026-04-06T11:14:29Z</time></trkpt><trkpt lat="44.43795469407558" lon="10.247543813758222"><ele>531.75</ele><time>2026-04-06T11:14:30Z</time></trkpt><trkpt lat="44.4380597479845" lon="10.24766317668786"><ele>528.0</ele><time>2026-04-06T11:14:31Z</time></trkpt><trkpt lat="44.4381621871401" lon="10.2477597441076"><ele>528.0</ele><time>2026-04-06T11:14:32Z</time></trkpt><trkpt lat="44.43824372410898" lon="10.247875946581733"><ele>528.0</ele><time>2026-04-06T11:14:33Z</time></trkpt><trkpt lat="44.43829593003482" lon="10.247999318228684"><ele>528.0</ele><time>2026-04-06T11:14:34Z</time></trkpt><trkpt lat="44.43831744184678" lon="10.248101840661999"><ele>528.0</ele><time>2026-04-06T11:14:35Z</time></trkpt><trkpt lat="44.43835153259758" lon="10.24819007267574"><ele>528.0</ele><time>2026-04-06T11:14:36Z</time></trkpt><trkpt lat="44.43839844027925" lon="10.248256704899687"><ele>528.0</ele><time>2026-04-06T11:14:37Z</time></trkpt><trkpt lat="44.43846936688896" lon="10.248257013207898"><ele>528.0</ele><time>2026-04-06T11:14:38Z</time></trkpt><trkpt lat="44.43852779755498" lon="10.248199673255403"><ele>528.0</ele><time>2026-04-06T11:14:39Z</time></trkpt><trkpt lat="44.438534591442426" lon="10.248061374218796"><ele>528.0</ele><time>2026-04-06T11:14:40Z</time></trkpt><trkpt lat="44.43851335890269" lon="10.247934218600527"><ele>528.0</ele><time>2026-04-06T11:14:41Z</time></trkpt><trkpt lat="44.43845792809662" lon="10.247795480317446"><ele>528.0</ele><time>2026-04-06T11:14:42Z</time></trkpt><trkpt lat="44.43837254800189" lon="10.247637347965457"><ele>528.0</ele><time>2026-04-06T11:14:43Z</time></trkpt><trkpt lat="44.43827427268788" lon="10.24749054981761"><ele>528.0</ele><time>2026-04-06T11:14:44Z</time></trkpt><trkpt lat="44.43818132461077" lon="10.24733818029011"><ele>528.0</ele><time>2026-04-06T11:14:45Z</time></trkpt><trkpt lat="44.43813364180976" lon="10.24715630870411"><ele>528.0</ele><time>2026-04-06T11:14:46Z</time></trkpt><trkpt lat="44.43809845383754" lon="10.246986569783514"><ele>526.1999999999999</ele><time>2026-04-06T11:14:47Z</time></trkpt><trkpt lat="44.43808553631379" lon="10.246824979763673"><ele>524.4</ele><time>2026-04-06T11:14:48Z</time></trkpt><trkpt lat="44.43809880781874" lon="10.246691667339372"><ele>522.5999999999999</ele><time>2026-04-06T11:14:49Z</time></trkpt><trkpt lat="44.43814807197646" lon="10.24656793752804"><ele>520.8</ele><time>2026-04-06T11:14:50Z</time></trkpt><trkpt lat="44.438220937286694" lon="10.246460180101936"><ele>519.0</ele><time>2026-04-06T11:14:51Z</time></trkpt><trkpt lat="44.43829502117981" lon="10.246335759667542"><ele>519.0</ele><time>2026-04-06T11:14:52Z</time></trkpt><trkpt lat="44.438340391535554" lon="10.246238856926604"><ele>519.0</ele><time>2026-04-06T11:14:53Z</time></trkpt><trkpt lat="44.438326552546464" lon="10.2461396792763"><ele>519.0</ele><time>2026-04-06T11:14:54Z</time></trkpt><trkpt lat="44.43828299473242" lon="10.246060914135064"><ele>519.0</ele><time>2026-04-06T11:14:55Z</time></trkpt><trkpt lat="44.43819945457806" lon="10.246017197843452"><ele>519.0</ele><time>2026-04-06T11:14:56Z</time></trkpt><trkpt lat="44.43808815718517" lon="10.24600500047431"><ele>519.0</ele><time>2026-04-06T11:14:57Z</time></trkpt><trkpt lat="44.437956483670455" lon="10.246000583099253"><ele>519.0</ele><time>2026-04-06T11:14:58Z</time></trkpt><trkpt lat="44.437823150635744" lon="10.245975666930246"><ele>519.0</ele><time>2026-04-06T11:14:59Z</time></trkpt><trkpt lat="44.437686258924906" lon="10.245929715419841"><ele>519.0</ele><time>2026-04-06T11:15:00Z</time></trkpt><trkpt lat="44.437574056299965" lon="10.245850754274699"><ele>519.0</ele><time>2026-04-06T11:15:01Z</time></trkpt><trkpt lat="44.43747327171597" lon="10.24576461695795"><ele>519.0</ele><time>2026-04-06T11:15:02Z</time></trkpt><trkpt lat="44.43738314518251" lon="10.24567105822021"><ele>519.0</ele><time>2026-04-06T11:15:03Z</time></trkpt><trkpt lat="44.43735595645706" lon="10.245517902714202"><ele>519.0</ele><time>2026-04-06T11:15:04Z</time></trkpt><trkpt lat="44.437329003669966" lon="10.245343746942615"><ele>519.0</ele><time>2026-04-06T11:15:05Z</time></trkpt><trkpt lat="44.437283223802176" lon="10.245156391859311"><ele>517.25</ele><time>2026-04-06T11:15:06Z</time></trkpt><trkpt lat="44.43721810807746" lon="10.244974795001012"><ele>515.5</ele><time>2026-04-06T11:15:07Z</time></trkpt><trkpt lat="44.43715129733714" lon="10.244796016828928"><ele>513.75</ele><time>2026-04-06T11:15:08Z</time></trkpt><trkpt lat="44.437072350088314" lon="10.244635100709996"><ele>512.0</ele><time>2026-04-06T11:15:09Z</time></trkpt><trkpt lat="44.43698708701606" lon="10.244485147784905"><ele>512.0</ele><time>2026-04-06T11:15:10Z</time></trkpt><trkpt lat="44.436900764702756" lon="10.244335343826263"><ele>512.0</ele><time>2026-04-06T11:15:11Z</time></trkpt><trkpt lat="44.436850349343416" lon="10.244164660477242"><ele>512.0</ele><time>2026-04-06T11:15:12Z</time></trkpt><trkpt lat="44.43681772986441" lon="10.243989238280951"><ele>512.0</ele><time>2026-04-06T11:15:13Z</time></trkpt><trkpt lat="44.4367803183858" lon="10.243805007814586"><ele>511.20000000000005</ele><time>2026-04-06T11:15:14Z</time></trkpt><trkpt lat="44.43673030920137" lon="10.243637434260663"><ele>510.40000000000003</ele><time>2026-04-06T11:15:15Z</time></trkpt><trkpt lat="44.4367243330839" lon="10.243498992700317"><ele>509.59999999999997</ele><time>2026-04-06T11:15:16Z</time></trkpt><trkpt lat="44.43671790524162" lon="10.243396632655164"><ele>508.79999999999995</ele><time>2026-04-06T11:15:17Z</time></trkpt><trkpt lat="44.43677272966186" lon="10.243294807692552"><ele>508.0</ele><time>2026-04-06T11:15:19Z</time></trkpt><trkpt lat="44.4368332578657" lon="10.243262768981047"><ele>508.0</ele><time>2026-04-06T11:15:20Z</time></trkpt><trkpt lat="44.43692423093124" lon="10.243220273474702"><ele>508.0</ele><time>2026-04-06T11:15:21Z</time></trkpt><trkpt lat="44.437056754251635" lon="10.243154965947616"><ele>508.0</ele><time>2026-04-06T11:15:22Z</time></trkpt><trkpt lat="44.43722212179825" lon="10.243075496033955"><ele>508.0</ele><time>2026-04-06T11:15:23Z</time></trkpt><trkpt lat="44.43741378371186" lon="10.242986588194578"><ele>504.33333333333337</ele><time>2026-04-06T11:15:24Z</time></trkpt><trkpt lat="44.437593441394135" lon="10.242902365293917"><ele>500.66666666666663</ele><time>2026-04-06T11:15:25Z</time></trkpt><trkpt lat="44.43775459046473" lon="10.24282418242585"><ele>497.0</ele><time>2026-04-06T11:15:26Z</time></trkpt><trkpt lat="44.43790537511314" lon="10.242762536132457"><ele>494.40000000000003</ele><time>2026-04-06T11:15:27Z</time></trkpt><trkpt lat="44.43803974445155" lon="10.242712031237563"><ele>491.80000000000007</ele><time>2026-04-06T11:15:28Z</time></trkpt><trkpt lat="44.438148956630805" lon="10.242671606349527"><ele>489.2</ele><time>2026-04-06T11:15:29Z</time></trkpt><trkpt lat="44.43825008695765" lon="10.242626232279065"><ele>486.6</ele><time>2026-04-06T11:15:30Z</time></trkpt><trkpt lat="44.43833050255284" lon="10.24257509642131"><ele>484.0</ele><time>2026-04-06T11:15:31Z</time></trkpt><trkpt lat="44.43838476486958" lon="10.242509972150318"><ele>484.0</ele><time>2026-04-06T11:15:32Z</time></trkpt><trkpt lat="44.438406215280274" lon="10.24235542923052"><ele>484.0</ele><time>2026-04-06T11:15:33Z</time></trkpt><trkpt lat="44.43841393485501" lon="10.242184785984378"><ele>484.0</ele><time>2026-04-06T11:15:34Z</time></trkpt><trkpt lat="44.43841374232191" lon="10.241978972474598"><ele>484.0</ele><time>2026-04-06T11:15:35Z</time></trkpt><trkpt lat="44.43840619282062" lon="10.241766119643422"><ele>485.0</ele><time>2026-04-06T11:15:36Z</time></trkpt><trkpt lat="44.438377743940904" lon="10.24155007553981"><ele>486.0</ele><time>2026-04-06T11:15:37Z</time></trkpt><trkpt lat="44.43834940964983" lon="10.241340053962306"><ele>487.0</ele><time>2026-04-06T11:15:38Z</time></trkpt><trkpt lat="44.43833522587676" lon="10.241132932209387"><ele>485.25</ele><time>2026-04-06T11:15:39Z</time></trkpt><trkpt lat="44.438341080211806" lon="10.240931198640832"><ele>483.5</ele><time>2026-04-06T11:15:40Z</time></trkpt><trkpt lat="44.43834884299402" lon="10.240729985548093"><ele>481.75</ele><time>2026-04-06T11:15:41Z</time></trkpt><trkpt lat="44.43835600792832" lon="10.240530612022742"><ele>480.0</ele><time>2026-04-06T11:15:42Z</time></trkpt><trkpt lat="44.43836139304763" lon="10.240340101882389"><ele>477.8</ele><time>2026-04-06T11:15:43Z</time></trkpt><trkpt lat="44.43835788223648" lon="10.240181172129269"><ele>475.6</ele><time>2026-04-06T11:15:44Z</time></trkpt><trkpt lat="44.43834286508346" lon="10.240062520869122"><ele>473.4</ele><time>2026-04-06T11:15:45Z</time></trkpt><trkpt lat="44.43829229620246" lon="10.239970327082204"><ele>471.2</ele><time>2026-04-06T11:15:46Z</time></trkpt><trkpt lat="44.43823062769838" lon="10.239891677187778"><ele>469.0</ele><time>2026-04-06T11:15:47Z</time></trkpt><trkpt lat="44.43815225524749" lon="10.239850982872301"><ele>469.0</ele><time>2026-04-06T11:15:48Z</time></trkpt><trkpt lat="44.438044244069566" lon="10.239815355844103"><ele>469.0</ele><time>2026-04-06T11:15:49Z</time></trkpt><trkpt lat="44.4379164962736" lon="10.239790767605399"><ele>469.0</ele><time>2026-04-06T11:15:50Z</time></trkpt><trkpt lat="44.437776678874776" lon="10.239767847932503"><ele>469.0</ele><time>2026-04-06T11:15:51Z</time></trkpt><trkpt lat="44.4376548330546" lon="10.239750729142798"><ele>467.79999999999995</ele><time>2026-04-06T11:15:52Z</time></trkpt><trkpt lat="44.437565487343505" lon="10.239714894466779"><ele>466.59999999999997</ele><time>2026-04-06T11:15:53Z</time></trkpt><trkpt lat="44.43749428397844" lon="10.239638626866165"><ele>465.4</ele><time>2026-04-06T11:15:54Z</time></trkpt><trkpt lat="44.43745817428558" lon="10.239502787144062"><ele>464.2</ele><time>2026-04-06T11:15:55Z</time></trkpt><trkpt lat="44.43743338920452" lon="10.239358112858596"><ele>463.0</ele><time>2026-04-06T11:15:56Z</time></trkpt><trkpt lat="44.43743387063688" lon="10.239201092600489"><ele>463.0</ele><time>2026-04-06T11:15:57Z</time></trkpt><trkpt lat="44.43747427147771" lon="10.23904461154395"><ele>463.0</ele><time>2026-04-06T11:15:58Z</time></trkpt><trkpt lat="44.43753384426248" lon="10.238850381524216"><ele>463.0</ele><time>2026-04-06T11:15:59Z</time></trkpt><trkpt lat="44.43759473993976" lon="10.238643867954718"><ele>463.0</ele><time>2026-04-06T11:16:00Z</time></trkpt><trkpt lat="44.437668393568124" lon="10.238394301292335"><ele>460.33333333333337</ele><time>2026-04-06T11:16:01Z</time></trkpt><trkpt lat="44.437748523649226" lon="10.238122655705356"><ele>457.66666666666663</ele><time>2026-04-06T11:16:02Z</time></trkpt><trkpt lat="44.43782694475117" lon="10.237854493222219"><ele>455.0</ele><time>2026-04-06T11:16:03Z</time></trkpt><trkpt lat="44.43790578999516" lon="10.237583197090553"><ele>456.0</ele><time>2026-04-06T11:16:04Z</time></trkpt><trkpt lat="44.437979705861615" lon="10.237332404889303"><ele>457.0</ele><time>2026-04-06T11:16:05Z</time></trkpt><trkpt lat="44.4380369454162" lon="10.237143726689798"><ele>458.0</ele><time>2026-04-06T11:16:06Z</time></trkpt><trkpt lat="44.43808631474532" lon="10.236981376122639"><ele>459.25</ele><time>2026-04-06T11:16:07Z</time></trkpt><trkpt lat="44.43813062299151" lon="10.236834472821528"><ele>460.5</ele><time>2026-04-06T11:16:08Z</time></trkpt><trkpt lat="44.43817556387142" lon="10.236680569745527"><ele>461.75</ele><time>2026-04-06T11:16:09Z</time></trkpt><trkpt lat="44.438221254157256" lon="10.236524100430463"><ele>463.0</ele><time>2026-04-06T11:16:10Z</time></trkpt><trkpt lat="44.4382638922183" lon="10.236373373713349"><ele>463.79999999999995</ele><time>2026-04-06T11:16:11Z</time></trkpt><trkpt lat="44.438305153173886" lon="10.236227231477864"><ele>464.59999999999997</ele><time>2026-04-06T11:16:12Z</time></trkpt><trkpt lat="44.4383375105317" lon="10.236098267437491"><ele>465.40000000000003</ele><time>2026-04-06T11:16:13Z</time></trkpt><trkpt lat="44.43835094978825" lon="10.235998921604128"><ele>466.20000000000005</ele><time>2026-04-06T11:16:14Z</time></trkpt><trkpt lat="44.43840946764077" lon="10.235874592677513"><ele>467.0</ele><time>2026-04-06T11:16:16Z</time></trkpt><trkpt lat="44.43852804368398" lon="10.235905892878282"><ele>467.0</ele><time>2026-04-06T11:16:17Z</time></trkpt><trkpt lat="44.43864074507559" lon="10.235894838026578"><ele>467.0</ele><time>2026-04-06T11:16:18Z</time></trkpt><trkpt lat="44.43878145858481" lon="10.235836432701172"><ele>467.0</ele><time>2026-04-06T11:16:19Z</time></trkpt><trkpt lat="44.438947139722465" lon="10.23582591861152"><ele>467.0</ele><time>2026-04-06T11:16:20Z</time></trkpt><trkpt lat="44.439103627933704" lon="10.235811922255678"><ele>465.3333333333333</ele><time>2026-04-06T11:16:21Z</time></trkpt><trkpt lat="44.43925003134973" lon="10.23579632457876"><ele>463.66666666666663</ele><time>2026-04-06T11:16:22Z</time></trkpt><trkpt lat="44.439410657359154" lon="10.235813443665123"><ele>462.0</ele><time>2026-04-06T11:16:23Z</time></trkpt><trkpt lat="44.439567809759566" lon="10.235796969672307"><ele>461.66666666666663</ele><time>2026-04-06T11:16:24Z</time></trkpt><trkpt lat="44.43972835979053" lon="10.23578017463567"><ele>461.3333333333333</ele><time>2026-04-06T11:16:25Z</time></trkpt><trkpt lat="44.439875071737184" lon="10.235764479524788"><ele>461.0</ele><time>2026-04-06T11:16:26Z</time></trkpt><trkpt lat="44.440017628025956" lon="10.235749098302493"><ele>461.0</ele><time>2026-04-06T11:16:27Z</time></trkpt><trkpt lat="44.4401432490107" lon="10.235735206828775"><ele>461.0</ele><time>2026-04-06T11:16:28Z</time></trkpt><trkpt lat="44.44024774602472" lon="10.235724035003559"><ele>461.0</ele><time>2026-04-06T11:16:29Z</time></trkpt><trkpt lat="44.440329152732794" lon="10.23573612546252"><ele>461.0</ele><time>2026-04-06T11:16:30Z</time></trkpt><trkpt lat="44.44039281707883" lon="10.235786002078076"><ele>461.0</ele><time>2026-04-06T11:16:31Z</time></trkpt><trkpt lat="44.44042578363074" lon="10.23591292117846"><ele>461.0</ele><time>2026-04-06T11:16:32Z</time></trkpt><trkpt lat="44.44041983665677" lon="10.236070967360758"><ele>461.0</ele><time>2026-04-06T11:16:33Z</time></trkpt><trkpt lat="44.44039712303508" lon="10.236261745141938"><ele>461.0</ele><time>2026-04-06T11:16:34Z</time></trkpt><trkpt lat="44.44038332888464" lon="10.236481874530213"><ele>461.0</ele><time>2026-04-06T11:16:35Z</time></trkpt><trkpt lat="44.44037352657349" lon="10.236683916198643"><ele>460.5</ele><time>2026-04-06T11:16:36Z</time></trkpt><trkpt lat="44.44035976232171" lon="10.23685389117846"><ele>460.0</ele><time>2026-04-06T11:16:37Z</time></trkpt><trkpt lat="44.44034198886519" lon="10.237010692706262"><ele>459.5</ele><time>2026-04-06T11:16:38Z</time></trkpt><trkpt lat="44.440328812260205" lon="10.237179188370884"><ele>459.0</ele><time>2026-04-06T11:16:39Z</time></trkpt><trkpt lat="44.440336780424914" lon="10.237349948730314"><ele>459.0</ele><time>2026-04-06T11:16:40Z</time></trkpt><trkpt lat="44.44036994784388" lon="10.23749638343258"><ele>459.0</ele><time>2026-04-06T11:16:41Z</time></trkpt><trkpt lat="44.44043814732587" lon="10.237637622231675"><ele>459.0</ele><time>2026-04-06T11:16:42Z</time></trkpt><trkpt lat="44.44054280741853" lon="10.237755419206565"><ele>459.0</ele><time>2026-04-06T11:16:43Z</time></trkpt><trkpt lat="44.44065105348716" lon="10.237859992296707"><ele>464.25</ele><time>2026-04-06T11:16:44Z</time></trkpt><trkpt lat="44.44071907939186" lon="10.237987726058252"><ele>469.5</ele><time>2026-04-06T11:16:45Z</time></trkpt><trkpt lat="44.44074896446881" lon="10.23815395602746"><ele>474.75</ele><time>2026-04-06T11:16:46Z</time></trkpt><trkpt lat="44.44074714215975" lon="10.23834107726082"><ele>480.0</ele><time>2026-04-06T11:16:47Z</time></trkpt><trkpt lat="44.44072698571198" lon="10.238524292186536"><ele>480.0</ele><time>2026-04-06T11:16:48Z</time></trkpt><trkpt lat="44.44073305136184" lon="10.23869882159815"><ele>480.0</ele><time>2026-04-06T11:16:49Z</time></trkpt><trkpt lat="44.440778816368244" lon="10.238864914433716"><ele>480.0</ele><time>2026-04-06T11:16:50Z</time></trkpt><trkpt lat="44.44084911924752" lon="10.239006875718209"><ele>480.0</ele><time>2026-04-06T11:16:51Z</time></trkpt><trkpt lat="44.440954218768624" lon="10.239115601318305"><ele>479.33333333333337</ele><time>2026-04-06T11:16:52Z</time></trkpt><trkpt lat="44.441092839789135" lon="10.239186402691388"><ele>478.6666666666667</ele><time>2026-04-06T11:16:53Z</time></trkpt><trkpt lat="44.441250794224075" lon="10.239235966489927"><ele>478.0</ele><time>2026-04-06T11:16:53.999Z</time></trkpt><trkpt lat="44.44142500510234" lon="10.239273319443027"><ele>482.6666666666667</ele><time>2026-04-06T11:16:54.999Z</time></trkpt><trkpt lat="44.44160814217846" lon="10.239304855811577"><ele>487.33333333333337</ele><time>2026-04-06T11:16:55.999Z</time></trkpt><trkpt lat="44.44179680494386" lon="10.2393300202589"><ele>492.0</ele><time>2026-04-06T11:16:56.999Z</time></trkpt><trkpt lat="44.44197635369468" lon="10.239349879432146"><ele>495.66666666666663</ele><time>2026-04-06T11:16:57.999Z</time></trkpt><trkpt lat="44.442154858239974" lon="10.239373049353935"><ele>499.3333333333333</ele><time>2026-04-06T11:16:58.999Z</time></trkpt><trkpt lat="44.44232295944508" lon="10.239400285658192"><ele>503.0</ele><time>2026-04-06T11:16:59.999Z</time></trkpt><trkpt lat="44.442476456767885" lon="10.23943440515673"><ele>503.0</ele><time>2026-04-06T11:17:00.999Z</time></trkpt><trkpt lat="44.44262229289087" lon="10.23948150133413"><ele>503.0</ele><time>2026-04-06T11:17:01.999Z</time></trkpt><trkpt lat="44.44276648594176" lon="10.239552820332198"><ele>503.0</ele><time>2026-04-06T11:17:02.999Z</time></trkpt><trkpt lat="44.44289802317483" lon="10.239661602064713"><ele>501.66666666666663</ele><time>2026-04-06T11:17:03.999Z</time></trkpt><trkpt lat="44.443028438725314" lon="10.239803107902135"><ele>500.33333333333337</ele><time>2026-04-06T11:17:04.999Z</time></trkpt><trkpt lat="44.443153709365525" lon="10.239984642945627"><ele>499.0</ele><time>2026-04-06T11:17:05.999Z</time></trkpt><trkpt lat="44.443258683634376" lon="10.240212632605724"><ele>499.0</ele><time>2026-04-06T11:17:07Z</time></trkpt><trkpt lat="44.443354868612026" lon="10.240466476780375"><ele>499.0</ele><time>2026-04-06T11:17:08Z</time></trkpt><trkpt lat="44.44344919635032" lon="10.240745621340093"><ele>499.0</ele><time>2026-04-06T11:17:09Z</time></trkpt><trkpt lat="44.4435392682331" lon="10.241005445626616"><ele>498.0</ele><time>2026-04-06T11:17:10Z</time></trkpt><trkpt lat="44.44362843975251" lon="10.241258329741155"><ele>497.0</ele><time>2026-04-06T11:17:11Z</time></trkpt><trkpt lat="44.44372439836404" lon="10.24152282029951"><ele>496.0</ele><time>2026-04-06T11:17:12Z</time></trkpt><trkpt lat="44.44381697161561" lon="10.241777588018968"><ele>497.0</ele><time>2026-04-06T11:17:13Z</time></trkpt><trkpt lat="44.443914345947796" lon="10.242037403113498"><ele>498.0</ele><time>2026-04-06T11:17:14Z</time></trkpt><trkpt lat="44.444009699102146" lon="10.242300541280175"><ele>499.0</ele><time>2026-04-06T11:17:15Z</time></trkpt><trkpt lat="44.44410070179399" lon="10.242555723705992"><ele>499.0</ele><time>2026-04-06T11:17:16Z</time></trkpt><trkpt lat="44.44419406035453" lon="10.242812973982415"><ele>499.0</ele><time>2026-04-06T11:17:17Z</time></trkpt><trkpt lat="44.44427979939274" lon="10.24304868729662"><ele>499.0</ele><time>2026-04-06T11:17:18Z</time></trkpt><trkpt lat="44.44436254602851" lon="10.243278053396311"><ele>497.33333333333337</ele><time>2026-04-06T11:17:19Z</time></trkpt><trkpt lat="44.444439334594655" lon="10.243502060753436"><ele>495.66666666666663</ele><time>2026-04-06T11:17:20Z</time></trkpt><trkpt lat="44.444516317620575" lon="10.243720102204517"><ele>494.0</ele><time>2026-04-06T11:17:21Z</time></trkpt><trkpt lat="44.44459508729953" lon="10.243937662158837"><ele>498.0</ele><time>2026-04-06T11:17:22Z</time></trkpt><trkpt lat="44.44467625925128" lon="10.244158348026001"><ele>502.0</ele><time>2026-04-06T11:17:23Z</time></trkpt><trkpt lat="44.44475754979977" lon="10.244379704877712"><ele>506.0</ele><time>2026-04-06T11:17:24Z</time></trkpt><trkpt lat="44.44484180862439" lon="10.2446092483326"><ele>506.3333333333333</ele><time>2026-04-06T11:17:25Z</time></trkpt><trkpt lat="44.444926871127606" lon="10.2448442370614"><ele>506.66666666666663</ele><time>2026-04-06T11:17:26Z</time></trkpt><trkpt lat="44.44501105539438" lon="10.245078956092815"><ele>507.0</ele><time>2026-04-06T11:17:27Z</time></trkpt><trkpt lat="44.445093315186" lon="10.24531253991989"><ele>507.0</ele><time>2026-04-06T11:17:28Z</time></trkpt><trkpt lat="44.44517599354933" lon="10.245550591310236"><ele>507.0</ele><time>2026-04-06T11:17:29Z</time></trkpt><trkpt lat="44.44526634134486" lon="10.245801451992207"><ele>507.0</ele><time>2026-04-06T11:17:30Z</time></trkpt><trkpt lat="44.44535624399885" lon="10.246051055723932"><ele>507.33333333333337</ele><time>2026-04-06T11:17:31Z</time></trkpt><trkpt lat="44.445433387975044" lon="10.246278369707843"><ele>507.6666666666667</ele><time>2026-04-06T11:17:32Z</time></trkpt><trkpt lat="44.44551412665934" lon="10.246489703356941"><ele>508.0</ele><time>2026-04-06T11:17:33Z</time></trkpt><trkpt lat="44.44560841436084" lon="10.24666896099402"><ele>513.0</ele><time>2026-04-06T11:17:34Z</time></trkpt><trkpt lat="44.445721588345144" lon="10.24683342469147"><ele>518.0</ele><time>2026-04-06T11:17:35Z</time></trkpt><trkpt lat="44.44585549507557" lon="10.246980202274587"><ele>523.0</ele><time>2026-04-06T11:17:36Z</time></trkpt><trkpt lat="44.446000335440765" lon="10.247101445898185"><ele>523.0</ele><time>2026-04-06T11:17:37Z</time></trkpt><trkpt lat="44.44614996545136" lon="10.247190676801095"><ele>523.0</ele><time>2026-04-06T11:17:38Z</time></trkpt><trkpt lat="44.44630883933909" lon="10.247247097476604"><ele>523.0</ele><time>2026-04-06T11:17:39Z</time></trkpt><trkpt lat="44.446471069894486" lon="10.247274553425605"><ele>525.3333333333334</ele><time>2026-04-06T11:17:40Z</time></trkpt><trkpt lat="44.44665305637542" lon="10.247292791845945"><ele>527.6666666666666</ele><time>2026-04-06T11:17:41Z</time></trkpt><trkpt lat="44.44683774015988" lon="10.247247638765511"><ele>530.0</ele><time>2026-04-06T11:17:42Z</time></trkpt><trkpt lat="44.447010357599744" lon="10.247163763689754"><ele>528.0</ele><time>2026-04-06T11:17:43Z</time></trkpt><trkpt lat="44.447181173145985" lon="10.247041728287197"><ele>526.0</ele><time>2026-04-06T11:17:44Z</time></trkpt><trkpt lat="44.447346624566094" lon="10.246870395943725"><ele>524.0</ele><time>2026-04-06T11:17:45Z</time></trkpt><trkpt lat="44.44750859913639" lon="10.246663825341919"><ele>530.0</ele><time>2026-04-06T11:17:46Z</time></trkpt><trkpt lat="44.44766968333528" lon="10.246435427055264"><ele>536.0</ele><time>2026-04-06T11:17:47Z</time></trkpt><trkpt lat="44.44783854015056" lon="10.246194737110393"><ele>533.5</ele><time>2026-04-06T11:17:48Z</time></trkpt><trkpt lat="44.44801819955371" lon="10.24593864911574"><ele>531.0</ele><time>2026-04-06T11:17:49Z</time></trkpt><trkpt lat="44.448202551629876" lon="10.245675725425977"><ele>534.0</ele><time>2026-04-06T11:17:50Z</time></trkpt><trkpt lat="44.44837847270194" lon="10.24542411047405"><ele>537.0</ele><time>2026-04-06T11:17:51Z</time></trkpt><trkpt lat="44.44853954111154" lon="10.245193738683538"><ele>537.0</ele><time>2026-04-06T11:17:52Z</time></trkpt><trkpt lat="44.44870649630455" lon="10.24495494751665"><ele>537.0</ele><time>2026-04-06T11:17:53Z</time></trkpt><trkpt lat="44.44887307256597" lon="10.244721331812947"><ele>538.0</ele><time>2026-04-06T11:17:54Z</time></trkpt><trkpt lat="44.449044258431506" lon="10.244491166932237"><ele>539.0</ele><time>2026-04-06T11:17:55Z</time></trkpt><trkpt lat="44.44921498155384" lon="10.244280901983942"><ele>539.0</ele><time>2026-04-06T11:17:56Z</time></trkpt><trkpt lat="44.44939844113397" lon="10.244084145220006"><ele>539.0</ele><time>2026-04-06T11:17:57Z</time></trkpt><trkpt lat="44.44958662210879" lon="10.243901922979234"><ele>540.5</ele><time>2026-04-06T11:17:58Z</time></trkpt><trkpt lat="44.4497823939606" lon="10.243730260478815"><ele>542.0</ele><time>2026-04-06T11:17:59Z</time></trkpt><trkpt lat="44.4499770531261" lon="10.24357950299105"><ele>542.0</ele><time>2026-04-06T11:18:00Z</time></trkpt><trkpt lat="44.45018579387583" lon="10.243425911586678"><ele>542.0</ele><time>2026-04-06T11:18:01Z</time></trkpt><trkpt lat="44.45038815296577" lon="10.243281129463822"><ele>540.3333333333333</ele><time>2026-04-06T11:18:02Z</time></trkpt><trkpt lat="44.450589397267656" lon="10.243134411868231"><ele>538.6666666666666</ele><time>2026-04-06T11:18:03Z</time></trkpt><trkpt lat="44.45075079836102" lon="10.243004435871006"><ele>537.0</ele><time>2026-04-06T11:18:04Z</time></trkpt><trkpt lat="44.45091436522519" lon="10.242835490796287"><ele>543.6666666666666</ele><time>2026-04-06T11:18:05Z</time></trkpt><trkpt lat="44.45108636863351" lon="10.242663742309746"><ele>550.3333333333333</ele><time>2026-04-06T11:18:06Z</time></trkpt><trkpt lat="44.45125050153763" lon="10.24245831239714"><ele>557.0</ele><time>2026-04-06T11:18:07Z</time></trkpt><trkpt lat="44.45142085282911" lon="10.242245839253535"><ele>558.0</ele><time>2026-04-06T11:18:08Z</time></trkpt><trkpt lat="44.451569538506455" lon="10.242028858868313"><ele>559.0</ele><time>2026-04-06T11:18:09Z</time></trkpt><trkpt lat="44.45171266320782" lon="10.241835896104691"><ele>560.0</ele><time>2026-04-06T11:18:10Z</time></trkpt><trkpt lat="44.45185956630545" lon="10.241697342297297"><ele>560.0</ele><time>2026-04-06T11:18:11Z</time></trkpt><trkpt lat="44.45202023343122" lon="10.241591128373107"><ele>560.0</ele><time>2026-04-06T11:18:12Z</time></trkpt><trkpt lat="44.452161440589165" lon="10.241466183682926"><ele>560.0</ele><time>2026-04-06T11:18:13Z</time></trkpt><trkpt lat="44.45225516716862" lon="10.24131431186002"><ele>561.75</ele><time>2026-04-06T11:18:14Z</time></trkpt><trkpt lat="44.45232422571779" lon="10.241158131442347"><ele>563.5</ele><time>2026-04-06T11:18:15Z</time></trkpt><trkpt lat="44.45236828555779" lon="10.240973657230372"><ele>565.25</ele><time>2026-04-06T11:18:16Z</time></trkpt><trkpt lat="44.452386036611934" lon="10.240770116486988"><ele>567.0</ele><time>2026-04-06T11:18:17Z</time></trkpt><trkpt lat="44.45241642828002" lon="10.240594556474504"><ele>567.8333333333334</ele><time>2026-04-06T11:18:18Z</time></trkpt><trkpt lat="44.45243526918695" lon="10.2404305220085"><ele>568.6666666666666</ele><time>2026-04-06T11:18:19Z</time></trkpt><trkpt lat="44.452510603059224" lon="10.240327591802405"><ele>569.5</ele><time>2026-04-06T11:18:20Z</time></trkpt><trkpt lat="44.45257309247964" lon="10.24025941007859"><ele>570.3333333333333</ele><time>2026-04-06T11:18:21Z</time></trkpt><trkpt lat="44.45263008865507" lon="10.240200279380247"><ele>571.1666666666666</ele><time>2026-04-06T11:18:22Z</time></trkpt><trkpt lat="44.45269417815925" lon="10.24016565458866"><ele>572.0</ele><time>2026-04-06T11:18:23Z</time></trkpt><trkpt lat="44.45278552814451" lon="10.240137494710227"><ele>572.0</ele><time>2026-04-06T11:18:24Z</time></trkpt><trkpt lat="44.45289491163965" lon="10.240131011405976"><ele>572.0</ele><time>2026-04-06T11:18:25Z</time></trkpt><trkpt lat="44.45300862309888" lon="10.240166418503879"><ele>572.0</ele><time>2026-04-06T11:18:26Z</time></trkpt><trkpt lat="44.453117319814886" lon="10.240251785725873"><ele>572.0</ele><time>2026-04-06T11:18:27Z</time></trkpt><trkpt lat="44.45325486661945" lon="10.240362455581838"><ele>572.5</ele><time>2026-04-06T11:18:28Z</time></trkpt><trkpt lat="44.453398316645234" lon="10.24046041705062"><ele>573.0</ele><time>2026-04-06T11:18:29Z</time></trkpt><trkpt lat="44.45352003333028" lon="10.24055836991472"><ele>573.5</ele><time>2026-04-06T11:18:30Z</time></trkpt><trkpt lat="44.45365542868265" lon="10.240645173561871"><ele>574.0</ele><time>2026-04-06T11:18:31Z</time></trkpt><trkpt lat="44.453814044682794" lon="10.240705948693693"><ele>576.0</ele><time>2026-04-06T11:18:32Z</time></trkpt><trkpt lat="44.45400858532529" lon="10.240736794615815"><ele>578.0</ele><time>2026-04-06T11:18:33Z</time></trkpt><trkpt lat="44.45420269081623" lon="10.24077277248916"><ele>580.0</ele><time>2026-04-06T11:18:34Z</time></trkpt><trkpt lat="44.454418689240946" lon="10.24080975760395"><ele>581.6666666666667</ele><time>2026-04-06T11:18:35Z</time></trkpt><trkpt lat="44.45463068323839" lon="10.240839047316374"><ele>583.3333333333334</ele><time>2026-04-06T11:18:36Z</time></trkpt><trkpt lat="44.45482736500912" lon="10.240892915856508"><ele>585.0</ele><time>2026-04-06T11:18:37Z</time></trkpt><trkpt lat="44.455014742586286" lon="10.24092766894475"><ele>585.0</ele><time>2026-04-06T11:18:38Z</time></trkpt><trkpt lat="44.4551881907775" lon="10.240942159555555"><ele>585.0</ele><time>2026-04-06T11:18:39Z</time></trkpt><trkpt lat="44.45535307883847" lon="10.240993518013399"><ele>585.0</ele><time>2026-04-06T11:18:40Z</time></trkpt><trkpt lat="44.45549983753399" lon="10.241058978984862"><ele>587.0</ele><time>2026-04-06T11:18:41Z</time></trkpt><trkpt lat="44.45564905971237" lon="10.241136654261165"><ele>589.0</ele><time>2026-04-06T11:18:42Z</time></trkpt><trkpt lat="44.45578695501164" lon="10.241234593187425"><ele>591.0</ele><time>2026-04-06T11:18:43Z</time></trkpt><trkpt lat="44.45591186014647" lon="10.241351699720683"><ele>587.0</ele><time>2026-04-06T11:18:44Z</time></trkpt><trkpt lat="44.456024423103514" lon="10.24148870334594"><ele>583.0</ele><time>2026-04-06T11:18:45Z</time></trkpt><trkpt lat="44.45613342606326" lon="10.241651380478002"><ele>579.0</ele><time>2026-04-06T11:18:46Z</time></trkpt><trkpt lat="44.45622108455122" lon="10.241833618343566"><ele>582.6666666666666</ele><time>2026-04-06T11:18:47Z</time></trkpt><trkpt lat="44.45629635280788" lon="10.242045569206235"><ele>586.3333333333333</ele><time>2026-04-06T11:18:48Z</time></trkpt><trkpt lat="44.45635959885072" lon="10.242259532684661"><ele>590.0</ele><time>2026-04-06T11:18:49Z</time></trkpt><trkpt lat="44.45639915147898" lon="10.242473156102925"><ele>590.3333333333333</ele><time>2026-04-06T11:18:50Z</time></trkpt><trkpt lat="44.45641584945599" lon="10.242682956158278"><ele>590.6666666666666</ele><time>2026-04-06T11:18:51Z</time></trkpt><trkpt lat="44.456417485812885" lon="10.242888603758542"><ele>591.0</ele><time>2026-04-06T11:18:52Z</time></trkpt><trkpt lat="44.45641422018282" lon="10.24310163389482"><ele>590.6666666666666</ele><time>2026-04-06T11:18:53Z</time></trkpt><trkpt lat="44.4564052313039" lon="10.243309274777824"><ele>590.3333333333333</ele><time>2026-04-06T11:18:54Z</time></trkpt><trkpt lat="44.4563965925205" lon="10.243528022529567"><ele>590.0</ele><time>2026-04-06T11:18:55Z</time></trkpt><trkpt lat="44.4563851802846" lon="10.24374741649049"><ele>590.0</ele><time>2026-04-06T11:18:56Z</time></trkpt><trkpt lat="44.45636727588375" lon="10.24395892066998"><ele>590.0</ele><time>2026-04-06T11:18:57Z</time></trkpt><trkpt lat="44.45635065638347" lon="10.24416782865539"><ele>590.0</ele><time>2026-04-06T11:18:58Z</time></trkpt><trkpt lat="44.456336455788815" lon="10.244376875526973"><ele>590.25</ele><time>2026-04-06T11:18:59Z</time></trkpt><trkpt lat="44.45633065968979" lon="10.244575421462129"><ele>590.5</ele><time>2026-04-06T11:19:00Z</time></trkpt><trkpt lat="44.45634201115375" lon="10.244752712812295"><ele>590.75</ele><time>2026-04-06T11:19:01Z</time></trkpt><trkpt lat="44.45638739411296" lon="10.244916808938155"><ele>591.0</ele><time>2026-04-06T11:19:02Z</time></trkpt><trkpt lat="44.45646513693246" lon="10.24506307775605"><ele>592.0</ele><time>2026-04-06T11:19:03Z</time></trkpt><trkpt lat="44.45656940060419" lon="10.2452009994307"><ele>593.0</ele><time>2026-04-06T11:19:04Z</time></trkpt><trkpt lat="44.4566857611074" lon="10.245340924486195"><ele>594.0</ele><time>2026-04-06T11:19:05Z</time></trkpt><trkpt lat="44.45680821521806" lon="10.245503712640835"><ele>593.0</ele><time>2026-04-06T11:19:06Z</time></trkpt><trkpt lat="44.456919341671174" lon="10.245665201622938"><ele>592.0</ele><time>2026-04-06T11:19:07Z</time></trkpt><trkpt lat="44.45704555618741" lon="10.24583269575714"><ele>591.0</ele><time>2026-04-06T11:19:08Z</time></trkpt><trkpt lat="44.45716791781229" lon="10.245992234228666"><ele>593.5</ele><time>2026-04-06T11:19:09Z</time></trkpt><trkpt lat="44.45728000215809" lon="10.246142738309208"><ele>596.0</ele><time>2026-04-06T11:19:10Z</time></trkpt><trkpt lat="44.45736202914882" lon="10.24629215411654"><ele>598.5</ele><time>2026-04-06T11:19:11Z</time></trkpt><trkpt lat="44.4574112321599" lon="10.246457895310892"><ele>601.0</ele><time>2026-04-06T11:19:12Z</time></trkpt><trkpt lat="44.457426215430026" lon="10.246645164591694"><ele>601.0</ele><time>2026-04-06T11:19:13Z</time></trkpt><trkpt lat="44.45742352614481" lon="10.246823307066013"><ele>601.0</ele><time>2026-04-06T11:19:14Z</time></trkpt><trkpt lat="44.457429192627096" lon="10.246991133912234"><ele>601.0</ele><time>2026-04-06T11:19:15Z</time></trkpt><trkpt lat="44.457469182775625" lon="10.24716498838575"><ele>601.0</ele><time>2026-04-06T11:19:16Z</time></trkpt><trkpt lat="44.45753110547808" lon="10.247345290650529"><ele>601.0</ele><time>2026-04-06T11:19:17Z</time></trkpt><trkpt lat="44.45759807083077" lon="10.247529234896977"><ele>601.0</ele><time>2026-04-06T11:19:18Z</time></trkpt><trkpt lat="44.457659700396775" lon="10.24771056317154"><ele>601.0</ele><time>2026-04-06T11:19:19Z</time></trkpt><trkpt lat="44.45772684552594" lon="10.247891474977283"><ele>601.0</ele><time>2026-04-06T11:19:20Z</time></trkpt><trkpt lat="44.457799318911704" lon="10.248057557673178"><ele>600.5</ele><time>2026-04-06T11:19:21Z</time></trkpt><trkpt lat="44.45789192223818" lon="10.24820482859647"><ele>600.0</ele><time>2026-04-06T11:19:22Z</time></trkpt><trkpt lat="44.45800291820124" lon="10.248331117600129"><ele>599.5</ele><time>2026-04-06T11:19:23Z</time></trkpt><trkpt lat="44.458122889247015" lon="10.248455695973371"><ele>599.0</ele><time>2026-04-06T11:19:24Z</time></trkpt><trkpt lat="44.45824218177984" lon="10.24857775341827"><ele>600.0</ele><time>2026-04-06T11:19:25Z</time></trkpt><trkpt lat="44.458364556054384" lon="10.24868055804333"><ele>601.0</ele><time>2026-04-06T11:19:26Z</time></trkpt><trkpt lat="44.458491519396965" lon="10.248750932165347"><ele>602.0</ele><time>2026-04-06T11:19:27Z</time></trkpt><trkpt lat="44.458628270137645" lon="10.248794412383429"><ele>603.0</ele><time>2026-04-06T11:19:28Z</time></trkpt><trkpt lat="44.45876370489912" lon="10.248850768467666"><ele>604.0</ele><time>2026-04-06T11:19:29Z</time></trkpt><trkpt lat="44.458882846881295" lon="10.248947415832717"><ele>605.0</ele><time>2026-04-06T11:19:30Z</time></trkpt><trkpt lat="44.458990940214086" lon="10.249083604127804"><ele>606.0</ele><time>2026-04-06T11:19:31Z</time></trkpt><trkpt lat="44.45907790246452" lon="10.24926518313795"><ele>607.0</ele><time>2026-04-06T11:19:32Z</time></trkpt><trkpt lat="44.45914864929468" lon="10.249478621406936"><ele>607.0</ele><time>2026-04-06T11:19:33Z</time></trkpt><trkpt lat="44.45920849531453" lon="10.249689915571375"><ele>607.0</ele><time>2026-04-06T11:19:34Z</time></trkpt><trkpt lat="44.459255886272985" lon="10.249884886140922"><ele>607.0</ele><time>2026-04-06T11:19:35Z</time></trkpt><trkpt lat="44.45929541843664" lon="10.250071158093268"><ele>607.0</ele><time>2026-04-06T11:19:36Z</time></trkpt><trkpt lat="44.459358105598135" lon="10.250222561197589"><ele>605.3333333333334</ele><time>2026-04-06T11:19:37Z</time></trkpt><trkpt lat="44.459461968613326" lon="10.250355552887104"><ele>603.6666666666666</ele><time>2026-04-06T11:19:38Z</time></trkpt><trkpt lat="44.45960007589964" lon="10.250459378340576"><ele>602.0</ele><time>2026-04-06T11:19:39Z</time></trkpt><trkpt lat="44.45975725354102" lon="10.25052007468181"><ele>604.0</ele><time>2026-04-06T11:19:40Z</time></trkpt><trkpt lat="44.459922472529044" lon="10.250589536871594"><ele>606.0</ele><time>2026-04-06T11:19:41Z</time></trkpt><trkpt lat="44.460060261474126" lon="10.250737407767005"><ele>608.0</ele><time>2026-04-06T11:19:42Z</time></trkpt><trkpt lat="44.46020511461257" lon="10.250887593266686"><ele>608.0</ele><time>2026-04-06T11:19:43Z</time></trkpt><trkpt lat="44.46034004087246" lon="10.251056667702795"><ele>608.0</ele><time>2026-04-06T11:19:44Z</time></trkpt><trkpt lat="44.46047967813142" lon="10.251216807450911"><ele>608.0</ele><time>2026-04-06T11:19:45Z</time></trkpt><trkpt lat="44.460617529987445" lon="10.251381128016492"><ele>607.25</ele><time>2026-04-06T11:19:46Z</time></trkpt><trkpt lat="44.46073072708763" lon="10.251534191122884"><ele>606.5</ele><time>2026-04-06T11:19:47Z</time></trkpt><trkpt lat="44.460825910021654" lon="10.251664022435751"><ele>605.75</ele><time>2026-04-06T11:19:48Z</time></trkpt><trkpt lat="44.46088605998293" lon="10.251792008858859"><ele>605.0</ele><time>2026-04-06T11:19:49Z</time></trkpt><trkpt lat="44.46089718543397" lon="10.251939425675173"><ele>605.0</ele><time>2026-04-06T11:19:50Z</time></trkpt><trkpt lat="44.46086545101265" lon="10.252116374750596"><ele>605.0</ele><time>2026-04-06T11:19:51Z</time></trkpt><trkpt lat="44.460799102976914" lon="10.252308496977477"><ele>605.0</ele><time>2026-04-06T11:19:52Z</time></trkpt><trkpt lat="44.46071670860166" lon="10.252510857887327"><ele>605.0</ele><time>2026-04-06T11:19:53Z</time></trkpt><trkpt lat="44.46064014691446" lon="10.252688399046274"><ele>605.0</ele><time>2026-04-06T11:19:54Z</time></trkpt><trkpt lat="44.46059124452398" lon="10.252835263744652"><ele>605.0</ele><time>2026-04-06T11:19:55Z</time></trkpt><trkpt lat="44.46057779867173" lon="10.252948984562526"><ele>605.0</ele><time>2026-04-06T11:19:56Z</time></trkpt><trkpt lat="44.4605286595834" lon="10.253064534399668"><ele>605.0</ele><time>2026-04-06T11:19:57Z</time></trkpt><trkpt lat="44.46061732888528" lon="10.253269504814858"><ele>605.0</ele><time>2026-04-06T11:19:58Z</time></trkpt><trkpt lat="44.46071094498089" lon="10.25343893501742"><ele>605.0</ele><time>2026-04-06T11:19:59Z</time></trkpt><trkpt lat="44.46089581171068" lon="10.253557237269511"><ele>605.0</ele><time>2026-04-06T11:20:00Z</time></trkpt><trkpt lat="44.461019090647625" lon="10.253759643002677"><ele>607.3333333333333</ele><time>2026-04-06T11:20:01Z</time></trkpt><trkpt lat="44.46114144029436" lon="10.25395785405278"><ele>609.6666666666666</ele><time>2026-04-06T11:20:02Z</time></trkpt><trkpt lat="44.46127017700659" lon="10.254152009324597"><ele>612.0</ele><time>2026-04-06T11:20:03Z</time></trkpt><trkpt lat="44.46138839201103" lon="10.254335538096582"><ele>612.0</ele><time>2026-04-06T11:20:04Z</time></trkpt><trkpt lat="44.46148775790778" lon="10.25451298789894"><ele>612.0</ele><time>2026-04-06T11:20:05Z</time></trkpt><trkpt lat="44.46155803627821" lon="10.254702319969935"><ele>612.0</ele><time>2026-04-06T11:20:06Z</time></trkpt><trkpt lat="44.461585791936905" lon="10.254901676839228"><ele>609.5</ele><time>2026-04-06T11:20:07Z</time></trkpt><trkpt lat="44.46160270812221" lon="10.25508654387181"><ele>607.0</ele><time>2026-04-06T11:20:08Z</time></trkpt><trkpt lat="44.461645468895554" lon="10.255246695768651"><ele>604.5</ele><time>2026-04-06T11:20:09Z</time></trkpt><trkpt lat="44.46173935304806" lon="10.255387216245063"><ele>602.0</ele><time>2026-04-06T11:20:10Z</time></trkpt><trkpt lat="44.4618651902632" lon="10.255524989034331"><ele>602.3333333333333</ele><time>2026-04-06T11:20:11Z</time></trkpt><trkpt lat="44.462003817737916" lon="10.255658697282428"><ele>602.6666666666666</ele><time>2026-04-06T11:20:12Z</time></trkpt><trkpt lat="44.46214576468259" lon="10.255771144372199"><ele>603.0</ele><time>2026-04-06T11:20:13Z</time></trkpt><trkpt lat="44.462302862604076" lon="10.25586392631857"><ele>603.0</ele><time>2026-04-06T11:20:14Z</time></trkpt><trkpt lat="44.4624707155131" lon="10.255951461359722"><ele>603.0</ele><time>2026-04-06T11:20:15Z</time></trkpt><trkpt lat="44.462649064089604" lon="10.256066281119113"><ele>603.0</ele><time>2026-04-06T11:20:16Z</time></trkpt><trkpt lat="44.46281467972209" lon="10.256206907475693"><ele>601.3333333333334</ele><time>2026-04-06T11:20:17Z</time></trkpt><trkpt lat="44.46296815943646" lon="10.256333229989664"><ele>599.6666666666667</ele><time>2026-04-06T11:20:18Z</time></trkpt><trkpt lat="44.463133123026516" lon="10.256429200810329"><ele>598.0</ele><time>2026-04-06T11:20:19Z</time></trkpt><trkpt lat="44.46330431752614" lon="10.256496385060464"><ele>598.0</ele><time>2026-04-06T11:20:20Z</time></trkpt><trkpt lat="44.46347130787137" lon="10.256583265766158"><ele>598.0</ele><time>2026-04-06T11:20:21Z</time></trkpt><trkpt lat="44.4636205208442" lon="10.25668297379351"><ele>598.0</ele><time>2026-04-06T11:20:22Z</time></trkpt><trkpt lat="44.46375538337438" lon="10.256841225520297"><ele>600.0</ele><time>2026-04-06T11:20:23Z</time></trkpt><trkpt lat="44.46388228326817" lon="10.257025055406672"><ele>602.0</ele><time>2026-04-06T11:20:24Z</time></trkpt><trkpt lat="44.46401509503987" lon="10.25721128276905"><ele>604.0</ele><time>2026-04-06T11:20:25Z</time></trkpt><trkpt lat="44.46413881837132" lon="10.257427960283866"><ele>604.0</ele><time>2026-04-06T11:20:26Z</time></trkpt><trkpt lat="44.46426120876278" lon="10.257645176213417"><ele>604.0</ele><time>2026-04-06T11:20:27Z</time></trkpt><trkpt lat="44.46437770539294" lon="10.257855824093781"><ele>604.0</ele><time>2026-04-06T11:20:28Z</time></trkpt><trkpt lat="44.46448970239354" lon="10.258045377618322"><ele>605.5</ele><time>2026-04-06T11:20:29Z</time></trkpt><trkpt lat="44.46459881505571" lon="10.258216508870598"><ele>607.0</ele><time>2026-04-06T11:20:30Z</time></trkpt><trkpt lat="44.464697089299584" lon="10.258367851910384"><ele>608.5</ele><time>2026-04-06T11:20:31Z</time></trkpt><trkpt lat="44.46480557389973" lon="10.258479765693881"><ele>610.0</ele><time>2026-04-06T11:20:32Z</time></trkpt><trkpt lat="44.46495100082405" lon="10.258556366327175"><ele>610.0</ele><time>2026-04-06T11:20:33Z</time></trkpt><trkpt lat="44.46512657910615" lon="10.258582722329617"><ele>610.0</ele><time>2026-04-06T11:20:34Z</time></trkpt><trkpt lat="44.46530447102834" lon="10.258580466351201"><ele>610.0</ele><time>2026-04-06T11:20:35Z</time></trkpt><trkpt lat="44.46544350311363" lon="10.258636411951708"><ele>609.0</ele><time>2026-04-06T11:20:36Z</time></trkpt><trkpt lat="44.46556267758494" lon="10.258735989766167"><ele>608.0</ele><time>2026-04-06T11:20:37Z</time></trkpt><trkpt lat="44.465684560811006" lon="10.258885978320084"><ele>607.0</ele><time>2026-04-06T11:20:38Z</time></trkpt><trkpt lat="44.465814445761374" lon="10.259044946240849"><ele>607.0</ele><time>2026-04-06T11:20:39Z</time></trkpt><trkpt lat="44.46596645880034" lon="10.25921275967549"><ele>607.0</ele><time>2026-04-06T11:20:40Z</time></trkpt><trkpt lat="44.466147857244486" lon="10.259359811970004"><ele>607.0</ele><time>2026-04-06T11:20:41Z</time></trkpt><trkpt lat="44.46632189526484" lon="10.259479211704093"><ele>608.0</ele><time>2026-04-06T11:20:42Z</time></trkpt><trkpt lat="44.46646924300032" lon="10.259589118580406"><ele>609.0</ele><time>2026-04-06T11:20:43Z</time></trkpt><trkpt lat="44.466588497786326" lon="10.259698359020655"><ele>610.0</ele><time>2026-04-06T11:20:44Z</time></trkpt><trkpt lat="44.46669009637966" lon="10.259842067609217"><ele>610.0</ele><time>2026-04-06T11:20:45Z</time></trkpt><trkpt lat="44.46676938127134" lon="10.260025343301422"><ele>610.0</ele><time>2026-04-06T11:20:46Z</time></trkpt><trkpt lat="44.46683542166496" lon="10.260221728745043"><ele>610.0</ele><time>2026-04-06T11:20:47Z</time></trkpt><trkpt lat="44.46690544997346" lon="10.260392979819093"><ele>610.0</ele><time>2026-04-06T11:20:48Z</time></trkpt><trkpt lat="44.4669983709542" lon="10.260536242972382"><ele>612.5</ele><time>2026-04-06T11:20:49Z</time></trkpt><trkpt lat="44.467123973487034" lon="10.260656518149089"><ele>615.0</ele><time>2026-04-06T11:20:50Z</time></trkpt><trkpt lat="44.46725621957165" lon="10.260747570324645"><ele>617.5</ele><time>2026-04-06T11:20:51Z</time></trkpt><trkpt lat="44.46736667438199" lon="10.26085292108293"><ele>620.0</ele><time>2026-04-06T11:20:52Z</time></trkpt><trkpt lat="44.46745789696153" lon="10.260974910256216"><ele>620.0</ele><time>2026-04-06T11:20:53Z</time></trkpt><trkpt lat="44.46750697483392" lon="10.26113431708399"><ele>620.0</ele><time>2026-04-06T11:20:54Z</time></trkpt><trkpt lat="44.467480618911836" lon="10.261320010399604"><ele>620.0</ele><time>2026-04-06T11:20:55Z</time></trkpt><trkpt lat="44.46744276172285" lon="10.261533252134917"><ele>620.0</ele><time>2026-04-06T11:20:56Z</time></trkpt><trkpt lat="44.46740918843864" lon="10.26176003883293"><ele>620.0</ele><time>2026-04-06T11:20:57Z</time></trkpt><trkpt lat="44.46737079614052" lon="10.261961873489536"><ele>620.0</ele><time>2026-04-06T11:20:58Z</time></trkpt><trkpt lat="44.46734711217969" lon="10.26213821399357"><ele>620.0</ele><time>2026-04-06T11:20:59Z</time></trkpt><trkpt lat="44.46733243490081" lon="10.262303301506172"><ele>620.0</ele><time>2026-04-06T11:21:00Z</time></trkpt><trkpt lat="44.46734758877998" lon="10.262468857502437"><ele>620.0</ele><time>2026-04-06T11:21:01Z</time></trkpt><trkpt lat="44.46740348333361" lon="10.262648323975126"><ele>620.0</ele><time>2026-04-06T11:21:02Z</time></trkpt><trkpt lat="44.46750719000218" lon="10.262808082624469"><ele>620.0</ele><time>2026-04-06T11:21:03Z</time></trkpt><trkpt lat="44.46764659666274" lon="10.262946796125336"><ele>620.0</ele><time>2026-04-06T11:21:04Z</time></trkpt><trkpt lat="44.46780502948097" lon="10.263077189911208"><ele>620.0</ele><time>2026-04-06T11:21:05Z</time></trkpt><trkpt lat="44.46793328829161" lon="10.263193474988352"><ele>620.0</ele><time>2026-04-06T11:21:06Z</time></trkpt><trkpt lat="44.46802653070346" lon="10.263291846971686"><ele>620.0</ele><time>2026-04-06T11:21:07Z</time></trkpt><trkpt lat="44.4681241036225" lon="10.263339499165957"><ele>620.0</ele><time>2026-04-06T11:21:08Z</time></trkpt><trkpt lat="44.468233610794684" lon="10.263339831288313"><ele>620.0</ele><time>2026-04-06T11:21:09Z</time></trkpt><trkpt lat="44.4683398010703" lon="10.263287769242698"><ele>620.0</ele><time>2026-04-06T11:21:10Z</time></trkpt><trkpt lat="44.46844067117034" lon="10.263174775866286"><ele>624.0</ele><time>2026-04-06T11:21:11Z</time></trkpt><trkpt lat="44.46852841217542" lon="10.263014902813884"><ele>628.0</ele><time>2026-04-06T11:21:12Z</time></trkpt><trkpt lat="44.468619015457456" lon="10.262834920362332"><ele>632.0</ele><time>2026-04-06T11:21:13Z</time></trkpt><trkpt lat="44.4687156391587" lon="10.262615017421188"><ele>631.6666666666666</ele><time>2026-04-06T11:21:14Z</time></trkpt><trkpt lat="44.46882791544088" lon="10.262436106687922"><ele>631.3333333333334</ele><time>2026-04-06T11:21:15Z</time></trkpt><trkpt lat="44.46893023437135" lon="10.262246563533745"><ele>631.0</ele><time>2026-04-06T11:21:16Z</time></trkpt><trkpt lat="44.46902625675874" lon="10.262111219885922"><ele>631.0</ele><time>2026-04-06T11:21:17Z</time></trkpt><trkpt lat="44.469131778631066" lon="10.262012702507883"><ele>631.0</ele><time>2026-04-06T11:21:18Z</time></trkpt><trkpt lat="44.469255843145" lon="10.26195698528612"><ele>631.0</ele><time>2026-04-06T11:21:19Z</time></trkpt><trkpt lat="44.46940410236154" lon="10.26191980247609"><ele>631.0</ele><time>2026-04-06T11:21:20Z</time></trkpt><trkpt lat="44.46955186649609" lon="10.261893302300583"><ele>631.5</ele><time>2026-04-06T11:21:21Z</time></trkpt><trkpt lat="44.46968598232394" lon="10.261899429301238"><ele>632.0</ele><time>2026-04-06T11:21:22Z</time></trkpt><trkpt lat="44.46982094186419" lon="10.261958082087588"><ele>632.5</ele><time>2026-04-06T11:21:23Z</time></trkpt><trkpt lat="44.46996949315189" lon="10.262043534280386"><ele>633.0</ele><time>2026-04-06T11:21:24Z</time></trkpt><trkpt lat="44.47011506169999" lon="10.262137369361994"><ele>633.0</ele><time>2026-04-06T11:21:25Z</time></trkpt><trkpt lat="44.47022902649564" lon="10.262213077289383"><ele>633.0</ele><time>2026-04-06T11:21:26Z</time></trkpt><trkpt lat="44.470340273723835" lon="10.262243345472772"><ele>633.0</ele><time>2026-04-06T11:21:27Z</time></trkpt><trkpt lat="44.47044741856901" lon="10.262223119183702"><ele>633.0</ele><time>2026-04-06T11:21:28Z</time></trkpt><trkpt lat="44.47055739191634" lon="10.262144463741322"><ele>632.5</ele><time>2026-04-06T11:21:29Z</time></trkpt><trkpt lat="44.47065768088188" lon="10.262015817453829"><ele>632.0</ele><time>2026-04-06T11:21:30Z</time></trkpt><trkpt lat="44.47078303845499" lon="10.261924326247438"><ele>631.5</ele><time>2026-04-06T11:21:31Z</time></trkpt><trkpt lat="44.470907519756935" lon="10.261862209382773"><ele>631.0</ele><time>2026-04-06T11:21:32Z</time></trkpt><trkpt lat="44.47105659777376" lon="10.261831721303103"><ele>631.0</ele><time>2026-04-06T11:21:33Z</time></trkpt><trkpt lat="44.47119221150822" lon="10.261797873713505"><ele>631.0</ele><time>2026-04-06T11:21:34Z</time></trkpt><trkpt lat="44.471337486197605" lon="10.261705792950316"><ele>631.0</ele><time>2026-04-06T11:21:35Z</time></trkpt><trkpt lat="44.471464477249256" lon="10.261595636525172"><ele>631.0</ele><time>2026-04-06T11:21:36Z</time></trkpt><trkpt lat="44.47157053624091" lon="10.261510941219418"><ele>632.25</ele><time>2026-04-06T11:21:37Z</time></trkpt><trkpt lat="44.471676855253975" lon="10.261464269011192"><ele>633.5</ele><time>2026-04-06T11:21:38Z</time></trkpt><trkpt lat="44.47179448427452" lon="10.261449668859164"><ele>634.75</ele><time>2026-04-06T11:21:39Z</time></trkpt><trkpt lat="44.47191819730658" lon="10.261434761176679"><ele>636.0</ele><time>2026-04-06T11:21:40Z</time></trkpt><trkpt lat="44.47202631642728" lon="10.261431705898955"><ele>631.75</ele><time>2026-04-06T11:21:41Z</time></trkpt><trkpt lat="44.47213000503319" lon="10.261377944812098"><ele>627.5</ele><time>2026-04-06T11:21:42Z</time></trkpt><trkpt lat="44.472225385825645" lon="10.261275753574653"><ele>623.25</ele><time>2026-04-06T11:21:43Z</time></trkpt><trkpt lat="44.472325082075116" lon="10.2611578046557"><ele>619.0</ele><time>2026-04-06T11:21:44Z</time></trkpt><trkpt lat="44.47241409230522" lon="10.261017700114682"><ele>619.0</ele><time>2026-04-06T11:21:45Z</time></trkpt><trkpt lat="44.47250955544193" lon="10.260863756699331"><ele>619.0</ele><time>2026-04-06T11:21:46Z</time></trkpt><trkpt lat="44.472611524678314" lon="10.260703454376769"><ele>619.0</ele><time>2026-04-06T11:21:47Z</time></trkpt><trkpt lat="44.47270957565174" lon="10.260559173600623"><ele>619.0</ele><time>2026-04-06T11:21:48Z</time></trkpt><trkpt lat="44.47281094790784" lon="10.260425695356616"><ele>619.0</ele><time>2026-04-06T11:21:49Z</time></trkpt><trkpt lat="44.472926758869974" lon="10.26030767689567"><ele>619.0</ele><time>2026-04-06T11:21:50Z</time></trkpt><trkpt lat="44.473078487414675" lon="10.260182943702958"><ele>619.0</ele><time>2026-04-06T11:21:51Z</time></trkpt><trkpt lat="44.47324656471435" lon="10.260052426150958"><ele>619.0</ele><time>2026-04-06T11:21:52Z</time></trkpt><trkpt lat="44.47341394470729" lon="10.259924473769596"><ele>619.0</ele><time>2026-04-06T11:21:53Z</time></trkpt><trkpt lat="44.47357325193773" lon="10.259803394015158"><ele>619.0</ele><time>2026-04-06T11:21:54Z</time></trkpt><trkpt lat="44.473703346836494" lon="10.259704516736143"><ele>619.3333333333334</ele><time>2026-04-06T11:21:55Z</time></trkpt><trkpt lat="44.47383904470023" lon="10.259582770984736"><ele>619.6666666666666</ele><time>2026-04-06T11:21:56Z</time></trkpt><trkpt lat="44.47396343935577" lon="10.259422295425342"><ele>620.0</ele><time>2026-04-06T11:21:57Z</time></trkpt><trkpt lat="44.47408738181593" lon="10.259219210404739"><ele>620.0</ele><time>2026-04-06T11:21:58Z</time></trkpt><trkpt lat="44.474210524793314" lon="10.25898974846634"><ele>620.0</ele><time>2026-04-06T11:21:59Z</time></trkpt><trkpt lat="44.4743193788483" lon="10.258774688044136"><ele>620.0</ele><time>2026-04-06T11:22:00Z</time></trkpt><trkpt lat="44.4744260682319" lon="10.258587541016235"><ele>621.0</ele><time>2026-04-06T11:22:01Z</time></trkpt><trkpt lat="44.47453976368391" lon="10.25844378645692"><ele>622.0</ele><time>2026-04-06T11:22:02Z</time></trkpt><trkpt lat="44.474655675494006" lon="10.258315922363153"><ele>623.0</ele><time>2026-04-06T11:22:03Z</time></trkpt><trkpt lat="44.474761665315846" lon="10.258171298499056"><ele>624.0</ele><time>2026-04-06T11:22:04Z</time></trkpt><trkpt lat="44.47485673220847" lon="10.25804566343524"><ele>624.0</ele><time>2026-04-06T11:22:05Z</time></trkpt><trkpt lat="44.474950820009674" lon="10.257904303371049"><ele>624.0</ele><time>2026-04-06T11:22:06Z</time></trkpt><trkpt lat="44.4749794487463" lon="10.257698726124554"><ele>624.0</ele><time>2026-04-06T11:22:07Z</time></trkpt><trkpt lat="44.47499195439459" lon="10.257500611270888"><ele>624.0</ele><time>2026-04-06T11:22:08Z</time></trkpt><trkpt lat="44.47497044209024" lon="10.257300614429505"><ele>625.0</ele><time>2026-04-06T11:22:09Z</time></trkpt><trkpt lat="44.47491170457482" lon="10.257084869769125"><ele>626.0</ele><time>2026-04-06T11:22:10Z</time></trkpt><trkpt lat="44.474887864229835" lon="10.256873898590333"><ele>627.0</ele><time>2026-04-06T11:22:11Z</time></trkpt><trkpt lat="44.47486496633097" lon="10.256686770080664"><ele>627.0</ele><time>2026-04-06T11:22:12Z</time></trkpt><trkpt lat="44.474873222643424" lon="10.256517550799238"><ele>627.0</ele><time>2026-04-06T11:22:13Z</time></trkpt><trkpt lat="44.47491037111866" lon="10.256374444815922"><ele>627.0</ele><time>2026-04-06T11:22:14Z</time></trkpt><trkpt lat="44.474971621548974" lon="10.256255914498073"><ele>627.0</ele><time>2026-04-06T11:22:15Z</time></trkpt><trkpt lat="44.47507049947802" lon="10.256193056454073"><ele>627.0</ele><time>2026-04-06T11:22:16Z</time></trkpt><trkpt lat="44.47518971949834" lon="10.256180952178177"><ele>626.3333333333334</ele><time>2026-04-06T11:22:17Z</time></trkpt><trkpt lat="44.47533255310308" lon="10.25617085934187"><ele>625.6666666666667</ele><time>2026-04-06T11:22:18Z</time></trkpt><trkpt lat="44.475489771820676" lon="10.2561601682122"><ele>625.0</ele><time>2026-04-06T11:22:19Z</time></trkpt><trkpt lat="44.475652823146476" lon="10.256131373799594"><ele>625.0</ele><time>2026-04-06T11:22:20Z</time></trkpt><trkpt lat="44.47582662258352" lon="10.256061837962484"><ele>625.0</ele><time>2026-04-06T11:22:21Z</time></trkpt><trkpt lat="44.47600558258823" lon="10.255977648786995"><ele>625.0</ele><time>2026-04-06T11:22:22Z</time></trkpt><trkpt lat="44.476171101689594" lon="10.25589888819224"><ele>623.6666666666667</ele><time>2026-04-06T11:22:23Z</time></trkpt><trkpt lat="44.47632319406503" lon="10.255824633235088"><ele>622.3333333333334</ele><time>2026-04-06T11:22:24Z</time></trkpt><trkpt lat="44.47646623414559" lon="10.255734004100788"><ele>621.0</ele><time>2026-04-06T11:22:25Z</time></trkpt><trkpt lat="44.47658613053282" lon="10.255604101590093"><ele>621.0</ele><time>2026-04-06T11:22:26Z</time></trkpt><trkpt lat="44.476694139993626" lon="10.255444878446978"><ele>621.0</ele><time>2026-04-06T11:22:27Z</time></trkpt><trkpt lat="44.476786835596236" lon="10.255272357901722"><ele>621.0</ele><time>2026-04-06T11:22:28Z</time></trkpt><trkpt lat="44.47687730164573" lon="10.255075117037281"><ele>621.0</ele><time>2026-04-06T11:22:29Z</time></trkpt><trkpt lat="44.47695120912571" lon="10.25486422615846"><ele>621.0</ele><time>2026-04-06T11:22:30Z</time></trkpt><trkpt lat="44.477010014031244" lon="10.254635109520393"><ele>621.0</ele><time>2026-04-06T11:22:31Z</time></trkpt><trkpt lat="44.477065499017094" lon="10.254389037095995"><ele>619.3333333333334</ele><time>2026-04-06T11:22:32Z</time></trkpt><trkpt lat="44.47712030803637" lon="10.25414759983022"><ele>617.6666666666667</ele><time>2026-04-06T11:22:33Z</time></trkpt><trkpt lat="44.47718673169091" lon="10.253932943216059"><ele>616.0</ele><time>2026-04-06T11:22:34Z</time></trkpt><trkpt lat="44.47728200110262" lon="10.253748397303628"><ele>616.0</ele><time>2026-04-06T11:22:35Z</time></trkpt><trkpt lat="44.47737581131925" lon="10.253597622867787"><ele>616.0</ele><time>2026-04-06T11:22:36Z</time></trkpt><trkpt lat="44.4774758133005" lon="10.253425746572319"><ele>616.0</ele><time>2026-04-06T11:22:37Z</time></trkpt><trkpt lat="44.47754662986399" lon="10.253226609725674"><ele>617.3333333333334</ele><time>2026-04-06T11:22:38Z</time></trkpt><trkpt lat="44.477606396481086" lon="10.252995884103209"><ele>618.6666666666666</ele><time>2026-04-06T11:22:39Z</time></trkpt><trkpt lat="44.47767771375045" lon="10.25276743568604"><ele>620.0</ele><time>2026-04-06T11:22:40Z</time></trkpt><trkpt lat="44.47775608628856" lon="10.252567109450462"><ele>620.0</ele><time>2026-04-06T11:22:41Z</time></trkpt><trkpt lat="44.47786789322236" lon="10.252378884014739"><ele>620.0</ele><time>2026-04-06T11:22:42Z</time></trkpt><trkpt lat="44.4779996339452" lon="10.252201457196794"><ele>620.0</ele><time>2026-04-06T11:22:43Z</time></trkpt><trkpt lat="44.478159219933225" lon="10.252018035481923"><ele>619.0</ele><time>2026-04-06T11:22:44Z</time></trkpt><trkpt lat="44.47832538275981" lon="10.251833785758125"><ele>618.0</ele><time>2026-04-06T11:22:45Z</time></trkpt><trkpt lat="44.4785048185715" lon="10.251634745156524"><ele>617.0</ele><time>2026-04-06T11:22:46Z</time></trkpt><trkpt lat="44.47866587137167" lon="10.251458862734163"><ele>617.3333333333333</ele><time>2026-04-06T11:22:47Z</time></trkpt><trkpt lat="44.478830486944254" lon="10.25128792970392"><ele>617.6666666666666</ele><time>2026-04-06T11:22:48Z</time></trkpt><trkpt lat="44.478995069468496" lon="10.25113073134716"><ele>618.0</ele><time>2026-04-06T11:22:49Z</time></trkpt><trkpt lat="44.479158264324866" lon="10.250995702958383"><ele>618.0</ele><time>2026-04-06T11:22:50Z</time></trkpt><trkpt lat="44.479321140841364" lon="10.250895566405141"><ele>618.0</ele><time>2026-04-06T11:22:51Z</time></trkpt><trkpt lat="44.47948046958798" lon="10.25080737994815"><ele>618.0</ele><time>2026-04-06T11:22:52Z</time></trkpt><trkpt lat="44.47963102266015" lon="10.250726552038692"><ele>616.3333333333334</ele><time>2026-04-06T11:22:53Z</time></trkpt><trkpt lat="44.47978166021803" lon="10.250644957677167"><ele>614.6666666666667</ele><time>2026-04-06T11:22:54Z</time></trkpt><trkpt lat="44.47993087815631" lon="10.250576694219355"><ele>613.0</ele><time>2026-04-06T11:22:55Z</time></trkpt><trkpt lat="44.480070903991155" lon="10.250527543452815"><ele>614.25</ele><time>2026-04-06T11:22:56Z</time></trkpt><trkpt lat="44.48021046208489" lon="10.250515287236755"><ele>615.5</ele><time>2026-04-06T11:22:57Z</time></trkpt><trkpt lat="44.480347531809144" lon="10.250524951799614"><ele>616.75</ele><time>2026-04-06T11:22:58Z</time></trkpt><trkpt lat="44.480470495778604" lon="10.250516449657058"><ele>618.0</ele><time>2026-04-06T11:22:59Z</time></trkpt><trkpt lat="44.48059402602845" lon="10.250466651742386"><ele>618.0</ele><time>2026-04-06T11:23:00Z</time></trkpt><trkpt lat="44.48070662924916" lon="10.250351186606187"><ele>618.0</ele><time>2026-04-06T11:23:01Z</time></trkpt><trkpt lat="44.48081105300961" lon="10.250183779124246"><ele>618.0</ele><time>2026-04-06T11:23:02Z</time></trkpt><trkpt lat="44.48091413084771" lon="10.249979824152884"><ele>620.5</ele><time>2026-04-06T11:23:03Z</time></trkpt><trkpt lat="44.48099798537681" lon="10.24976753195041"><ele>623.0</ele><time>2026-04-06T11:23:04Z</time></trkpt><trkpt lat="44.481075367569375" lon="10.249574594382885"><ele>625.5</ele><time>2026-04-06T11:23:05Z</time></trkpt><trkpt lat="44.48113778078122" lon="10.249435323747697"><ele>628.0</ele><time>2026-04-06T11:23:06Z</time></trkpt><trkpt lat="44.48120852456598" lon="10.249329339161049"><ele>623.25</ele><time>2026-04-06T11:23:07Z</time></trkpt><trkpt lat="44.481299605675176" lon="10.2492507475942"><ele>618.5</ele><time>2026-04-06T11:23:08Z</time></trkpt><trkpt lat="44.481415356279726" lon="10.249186871086739"><ele>613.75</ele><time>2026-04-06T11:23:09Z</time></trkpt><trkpt lat="44.481549334421125" lon="10.249112660545647"><ele>609.0</ele><time>2026-04-06T11:23:10Z</time></trkpt><trkpt lat="44.48169062279303" lon="10.249033163026228"><ele>608.5</ele><time>2026-04-06T11:23:11Z</time></trkpt><trkpt lat="44.48182532818617" lon="10.248944099110867"><ele>608.0</ele><time>2026-04-06T11:23:12Z</time></trkpt><trkpt lat="44.48194537204107" lon="10.248826821170805"><ele>607.5</ele><time>2026-04-06T11:23:13Z</time></trkpt><trkpt lat="44.48203268946876" lon="10.248694135494551"><ele>607.0</ele><time>2026-04-06T11:23:14Z</time></trkpt><trkpt lat="44.482109671881084" lon="10.248554814259007"><ele>607.0</ele><time>2026-04-06T11:23:15Z</time></trkpt><trkpt lat="44.48218546395764" lon="10.248405776308315"><ele>607.0</ele><time>2026-04-06T11:23:16Z</time></trkpt><trkpt lat="44.48226711899869" lon="10.248230213239014"><ele>607.0</ele><time>2026-04-06T11:23:17Z</time></trkpt><trkpt lat="44.48235551657919" lon="10.248030569478686"><ele>607.0</ele><time>2026-04-06T11:23:18Z</time></trkpt><trkpt lat="44.48245441930867" lon="10.247809578877812"><ele>611.0</ele><time>2026-04-06T11:23:19Z</time></trkpt><trkpt lat="44.48256118885866" lon="10.247583875355723"><ele>615.0</ele><time>2026-04-06T11:23:20Z</time></trkpt><trkpt lat="44.48266079687794" lon="10.247371351023755"><ele>619.0</ele><time>2026-04-06T11:23:21Z</time></trkpt><trkpt lat="44.48276667180385" lon="10.247165704134986"><ele>620.3333333333334</ele><time>2026-04-06T11:23:22Z</time></trkpt><trkpt lat="44.482876177675415" lon="10.246964861438206"><ele>621.6666666666666</ele><time>2026-04-06T11:23:23Z</time></trkpt><trkpt lat="44.48298645689434" lon="10.24679046154149"><ele>623.0</ele><time>2026-04-06T11:23:24Z</time></trkpt><trkpt lat="44.483092818706595" lon="10.246626082710467"><ele>619.0</ele><time>2026-04-06T11:23:25Z</time></trkpt><trkpt lat="44.48318384657282" lon="10.246470624121665"><ele>615.0</ele><time>2026-04-06T11:23:26Z</time></trkpt><trkpt lat="44.4832524957089" lon="10.24630262773894"><ele>611.0</ele><time>2026-04-06T11:23:27Z</time></trkpt><trkpt lat="44.48330613081349" lon="10.246120976148777"><ele>607.0</ele><time>2026-04-06T11:23:28Z</time></trkpt><trkpt lat="44.48333860522185" lon="10.245924065065864"><ele>607.0</ele><time>2026-04-06T11:23:29Z</time></trkpt><trkpt lat="44.48334554682764" lon="10.24571657144426"><ele>607.0</ele><time>2026-04-06T11:23:30Z</time></trkpt><trkpt lat="44.48334422497967" lon="10.245486970081215"><ele>607.0</ele><time>2026-04-06T11:23:31Z</time></trkpt><trkpt lat="44.48333605215977" lon="10.245250485102707"><ele>606.75</ele><time>2026-04-06T11:23:32Z</time></trkpt><trkpt lat="44.48332790210148" lon="10.245035548607914"><ele>606.5</ele><time>2026-04-06T11:23:33Z</time></trkpt><trkpt lat="44.48332164213643" lon="10.244839799934283"><ele>606.25</ele><time>2026-04-06T11:23:34Z</time></trkpt><trkpt lat="44.48329958011025" lon="10.244658266305944"><ele>606.0</ele><time>2026-04-06T11:23:35Z</time></trkpt><trkpt lat="44.48330035692514" lon="10.244480260118252"><ele>606.6666666666666</ele><time>2026-04-06T11:23:36Z</time></trkpt><trkpt lat="44.48332298353241" lon="10.244332119945526"><ele>607.3333333333334</ele><time>2026-04-06T11:23:37Z</time></trkpt><trkpt lat="44.483346045212244" lon="10.244220757362038"><ele>608.0</ele><time>2026-04-06T11:23:38Z</time></trkpt><trkpt lat="44.483394135295434" lon="10.244126795092816"><ele>608.6666666666667</ele><time>2026-04-06T11:23:39Z</time></trkpt><trkpt lat="44.48345562685601" lon="10.24405646162341"><ele>609.3333333333334</ele><time>2026-04-06T11:23:40Z</time></trkpt><trkpt lat="44.48353296262335" lon="10.244001602902044"><ele>610.0</ele><time>2026-04-06T11:23:41Z</time></trkpt><trkpt lat="44.48364739597322" lon="10.244047360439124"><ele>604.6666666666667</ele><time>2026-04-06T11:23:42Z</time></trkpt><trkpt lat="44.48378778191484" lon="10.24409425121772"><ele>599.3333333333334</ele><time>2026-04-06T11:23:43Z</time></trkpt><trkpt lat="44.48396218199266" lon="10.244156713764225"><ele>594.0</ele><time>2026-04-06T11:23:44Z</time></trkpt><trkpt lat="44.48413889771675" lon="10.244210214001948"><ele>594.0</ele><time>2026-04-06T11:23:45Z</time></trkpt><trkpt lat="44.484313139626046" lon="10.244281553804555"><ele>594.0</ele><time>2026-04-06T11:23:46Z</time></trkpt><trkpt lat="44.48437824752334" lon="10.244331993557127"><ele>594.0</ele><time>2026-04-06T11:23:47Z</time></trkpt><trkpt lat="44.484521525249335" lon="10.244458786871714"><ele>594.0</ele><time>2026-04-06T11:23:48Z</time></trkpt><trkpt lat="44.48467014088462" lon="10.244615304775325"><ele>594.3333333333334</ele><time>2026-04-06T11:23:49Z</time></trkpt><trkpt lat="44.484814935283914" lon="10.24476711353312"><ele>594.6666666666667</ele><time>2026-04-06T11:23:50Z</time></trkpt><trkpt lat="44.48495329158378" lon="10.244881980128554"><ele>595.0</ele><time>2026-04-06T11:23:51Z</time></trkpt><trkpt lat="44.48508097388989" lon="10.245005968682136"><ele>596.25</ele><time>2026-04-06T11:23:52Z</time></trkpt><trkpt lat="44.48519961826757" lon="10.24509318965928"><ele>597.5</ele><time>2026-04-06T11:23:53Z</time></trkpt><trkpt lat="44.48531816188653" lon="10.245149326595184"><ele>598.75</ele><time>2026-04-06T11:23:54Z</time></trkpt><trkpt lat="44.48545199713511" lon="10.245161742159732"><ele>600.0</ele><time>2026-04-06T11:23:55Z</time></trkpt><trkpt lat="44.48559851455117" lon="10.245128330056778"><ele>602.5</ele><time>2026-04-06T11:23:56Z</time></trkpt><trkpt lat="44.485749749129624" lon="10.245080775241867"><ele>605.0</ele><time>2026-04-06T11:23:57Z</time></trkpt><trkpt lat="44.48589254706277" lon="10.245027752810506"><ele>607.5</ele><time>2026-04-06T11:23:58Z</time></trkpt><trkpt lat="44.48600838338145" lon="10.244972192939823"><ele>610.0</ele><time>2026-04-06T11:23:59Z</time></trkpt><trkpt lat="44.48610891115962" lon="10.244912252529202"><ele>610.0</ele><time>2026-04-06T11:24:00Z</time></trkpt><trkpt lat="44.48619355457577" lon="10.244813424002519"><ele>610.0</ele><time>2026-04-06T11:24:01Z</time></trkpt><trkpt lat="44.48625632075001" lon="10.244648497538803"><ele>610.0</ele><time>2026-04-06T11:24:02Z</time></trkpt><trkpt lat="44.48635124292545" lon="10.24449639132459"><ele>610.0</ele><time>2026-04-06T11:24:03Z</time></trkpt><trkpt lat="44.48643523189881" lon="10.244333883395525"><ele>612.0</ele><time>2026-04-06T11:24:04Z</time></trkpt><trkpt lat="44.48651813400574" lon="10.244178601697062"><ele>614.0</ele><time>2026-04-06T11:24:05Z</time></trkpt><trkpt lat="44.48660687201628" lon="10.244021318764299"><ele>616.0</ele><time>2026-04-06T11:24:06Z</time></trkpt><trkpt lat="44.486694638420026" lon="10.243865757852854"><ele>618.0</ele><time>2026-04-06T11:24:07Z</time></trkpt><trkpt lat="44.48677773318977" lon="10.243718477230937"><ele>619.0</ele><time>2026-04-06T11:24:08Z</time></trkpt><trkpt lat="44.48686827094238" lon="10.243562223758293"><ele>620.0</ele><time>2026-04-06T11:24:09Z</time></trkpt><trkpt lat="44.48695581043858" lon="10.243412354693142"><ele>621.0</ele><time>2026-04-06T11:24:10Z</time></trkpt><trkpt lat="44.48704441208244" lon="10.243260508179594"><ele>622.0</ele><time>2026-04-06T11:24:11Z</time></trkpt><trkpt lat="44.487126169892775" lon="10.243120390767748"><ele>623.6</ele><time>2026-04-06T11:24:12Z</time></trkpt><trkpt lat="44.48719593508521" lon="10.243002751557869"><ele>625.2</ele><time>2026-04-06T11:24:13Z</time></trkpt><trkpt lat="44.487268500285744" lon="10.242877696440864"><ele>626.8</ele><time>2026-04-06T11:24:14Z</time></trkpt><trkpt lat="44.48732503061781" lon="10.242757409446098"><ele>628.4</ele><time>2026-04-06T11:24:15Z</time></trkpt><trkpt lat="44.48735084863892" lon="10.242647500246875"><ele>630.0</ele><time>2026-04-06T11:24:16Z</time></trkpt><trkpt lat="44.48731497368587" lon="10.242538517844508"><ele>630.0</ele><time>2026-04-06T11:24:17Z</time></trkpt><trkpt lat="44.48724529946837" lon="10.242471957622415"><ele>630.0</ele><time>2026-04-06T11:24:18Z</time></trkpt><trkpt lat="44.487147663661474" lon="10.24244735623873"><ele>630.0</ele><time>2026-04-06T11:24:19Z</time></trkpt><trkpt lat="44.487034026502734" lon="10.242495063209102"><ele>630.0</ele><time>2026-04-06T11:24:20Z</time></trkpt><trkpt lat="44.486895706160325" lon="10.242599225678843"><ele>629.6</ele><time>2026-04-06T11:24:21Z</time></trkpt><trkpt lat="44.48676206904621" lon="10.2427030011913"><ele>629.2</ele><time>2026-04-06T11:24:22Z</time></trkpt><trkpt lat="44.48666742909589" lon="10.242763595196642"><ele>628.8</ele><time>2026-04-06T11:24:23Z</time></trkpt><trkpt lat="44.486586672994726" lon="10.242768621343325"><ele>628.4</ele><time>2026-04-06T11:24:24Z</time></trkpt><trkpt lat="44.48653387927071" lon="10.242715796494025"><ele>628.0</ele><time>2026-04-06T11:24:25Z</time></trkpt><trkpt lat="44.486543923632816" lon="10.242594417616187"><ele>628.0</ele><time>2026-04-06T11:24:26Z</time></trkpt><trkpt lat="44.48659701474325" lon="10.242515365523452"><ele>628.0</ele><time>2026-04-06T11:24:27Z</time></trkpt><trkpt lat="44.48668146346255" lon="10.242439840548478"><ele>628.0</ele><time>2026-04-06T11:24:28Z</time></trkpt><trkpt lat="44.48676160102091" lon="10.242321860834164"><ele>628.0</ele><time>2026-04-06T11:24:29Z</time></trkpt><trkpt lat="44.486818145172855" lon="10.242193234248527"><ele>628.0</ele><time>2026-04-06T11:24:30Z</time></trkpt><trkpt lat="44.486810408891216" lon="10.242042824966173"><ele>629.4</ele><time>2026-04-06T11:24:31Z</time></trkpt><trkpt lat="44.486785155779124" lon="10.241913237130085"><ele>630.8</ele><time>2026-04-06T11:24:32Z</time></trkpt><trkpt lat="44.4867240254208" lon="10.24178038324172"><ele>632.2</ele><time>2026-04-06T11:24:33Z</time></trkpt><trkpt lat="44.486634859835206" lon="10.241647047357288"><ele>633.6</ele><time>2026-04-06T11:24:34Z</time></trkpt><trkpt lat="44.48657247072898" lon="10.241522638946718"><ele>635.0</ele><time>2026-04-06T11:24:35Z</time></trkpt><trkpt lat="44.48656679062799" lon="10.241363149765471"><ele>636.4</ele><time>2026-04-06T11:24:36Z</time></trkpt><trkpt lat="44.48661282210635" lon="10.241244087361808"><ele>637.8</ele><time>2026-04-06T11:24:37Z</time></trkpt><trkpt lat="44.486678420359446" lon="10.241163835965096"><ele>639.2</ele><time>2026-04-06T11:24:38Z</time></trkpt><trkpt lat="44.48675201151814" lon="10.241100021850405"><ele>640.6</ele><time>2026-04-06T11:24:39Z</time></trkpt><trkpt lat="44.48683268532558" lon="10.241070656681002"><ele>642.0</ele><time>2026-04-06T11:24:40Z</time></trkpt><trkpt lat="44.48692578342831" lon="10.241169681800468"><ele>642.0</ele><time>2026-04-06T11:24:41Z</time></trkpt><trkpt lat="44.48700940342549" lon="10.241271839396683"><ele>642.0</ele><time>2026-04-06T11:24:42Z</time></trkpt><trkpt lat="44.487110140876794" lon="10.241358182858104"><ele>642.0</ele><time>2026-04-06T11:24:43Z</time></trkpt><trkpt lat="44.487229842638136" lon="10.241409597807534"><ele>642.0</ele><time>2026-04-06T11:24:44Z</time></trkpt><trkpt lat="44.48735779317395" lon="10.241441441131252"><ele>648.3333333333334</ele><time>2026-04-06T11:24:45Z</time></trkpt><trkpt lat="44.48748870001306" lon="10.241465289719528"><ele>654.6666666666667</ele><time>2026-04-06T11:24:46Z</time></trkpt><trkpt lat="44.48764020411768" lon="10.241434824756906"><ele>661.0</ele><time>2026-04-06T11:24:47Z</time></trkpt><trkpt lat="44.4878045548084" lon="10.241375740672147"><ele>662.6666666666667</ele><time>2026-04-06T11:24:48Z</time></trkpt><trkpt lat="44.48800768452779" lon="10.241343442971937"><ele>664.3333333333334</ele><time>2026-04-06T11:24:49Z</time></trkpt><trkpt lat="44.488180845170156" lon="10.241327803461955"><ele>666.0</ele><time>2026-04-06T11:24:50Z</time></trkpt><trkpt lat="44.48832171797573" lon="10.241292096024608"><ele>666.0</ele><time>2026-04-06T11:24:51Z</time></trkpt><trkpt lat="44.488422222454105" lon="10.241281883514198"><ele>666.0</ele><time>2026-04-06T11:24:52Z</time></trkpt><trkpt lat="44.48849091869149" lon="10.241294083480403"><ele>666.0</ele><time>2026-04-06T11:24:53Z</time></trkpt><trkpt lat="44.48859377247601" lon="10.241191652024982"><ele>666.0</ele><time>2026-04-06T11:24:55Z</time></trkpt><trkpt lat="44.48860094356666" lon="10.241065477003442"><ele>666.0</ele><time>2026-04-06T11:24:56Z</time></trkpt><trkpt lat="44.488528805962694" lon="10.24094589271683"><ele>666.0</ele><time>2026-04-06T11:24:57Z</time></trkpt><trkpt lat="44.48841113993114" lon="10.240907223677933"><ele>666.0</ele><time>2026-04-06T11:24:58Z</time></trkpt><trkpt lat="44.48829234598836" lon="10.240878282159157"><ele>666.0</ele><time>2026-04-06T11:24:59Z</time></trkpt><trkpt lat="44.48814934970052" lon="10.240859610405586"><ele>666.0</ele><time>2026-04-06T11:25:00Z</time></trkpt><trkpt lat="44.48802223065858" lon="10.240829212233944"><ele>665.0</ele><time>2026-04-06T11:25:01Z</time></trkpt><trkpt lat="44.48789560782013" lon="10.240812151613419"><ele>664.0</ele><time>2026-04-06T11:25:02Z</time></trkpt><trkpt lat="44.48776768247415" lon="10.240829596625213"><ele>663.0</ele><time>2026-04-06T11:25:03Z</time></trkpt><trkpt lat="44.487673504823135" lon="10.240861774068675"><ele>662.0</ele><time>2026-04-06T11:25:04Z</time></trkpt><trkpt lat="44.487610117895436" lon="10.240868684922264"><ele>661.0</ele><time>2026-04-06T11:25:05Z</time></trkpt><trkpt lat="44.48755861724642" lon="10.240766508409891"><ele>661.0</ele><time>2026-04-06T11:25:07Z</time></trkpt><trkpt lat="44.48760467930229" lon="10.240672740473826"><ele>661.0</ele><time>2026-04-06T11:25:09Z</time></trkpt><trkpt lat="44.487731751490756" lon="10.240673059932318"><ele>661.0</ele><time>2026-04-06T11:25:11Z</time></trkpt><trkpt lat="44.48784866004419" lon="10.240667574236827"><ele>661.0</ele><time>2026-04-06T11:25:12Z</time></trkpt><trkpt lat="44.48797406327993" lon="10.240658736588554"><ele>662.6666666666667</ele><time>2026-04-06T11:25:13Z</time></trkpt><trkpt lat="44.488135707231145" lon="10.240640829616096"><ele>664.3333333333334</ele><time>2026-04-06T11:25:14Z</time></trkpt><trkpt lat="44.48830905883696" lon="10.24060667078697"><ele>666.0</ele><time>2026-04-06T11:25:15Z</time></trkpt><trkpt lat="44.48848650663032" lon="10.240558800859917"><ele>671.6666666666666</ele><time>2026-04-06T11:25:16Z</time></trkpt><trkpt lat="44.48867855021302" lon="10.240503217699066"><ele>677.3333333333333</ele><time>2026-04-06T11:25:17Z</time></trkpt><trkpt lat="44.48885527926955" lon="10.24045301424513"><ele>683.0</ele><time>2026-04-06T11:25:18Z</time></trkpt><trkpt lat="44.48901966323354" lon="10.240401411293186"><ele>683.0</ele><time>2026-04-06T11:25:19Z</time></trkpt><trkpt lat="44.48917368605064" lon="10.240350312193645"><ele>683.0</ele><time>2026-04-06T11:25:20Z</time></trkpt><trkpt lat="44.48933384222264" lon="10.240292085641606"><ele>683.0</ele><time>2026-04-06T11:25:21Z</time></trkpt><trkpt lat="44.48948399733278" lon="10.240232122181936"><ele>683.6666666666666</ele><time>2026-04-06T11:25:22Z</time></trkpt><trkpt lat="44.489635214612186" lon="10.240178343380046"><ele>684.3333333333334</ele><time>2026-04-06T11:25:23Z</time></trkpt><trkpt lat="44.48977404972262" lon="10.24014894761167"><ele>685.0</ele><time>2026-04-06T11:25:24Z</time></trkpt><trkpt lat="44.4899291438041" lon="10.240166373283333"><ele>685.0</ele><time>2026-04-06T11:25:25Z</time></trkpt><trkpt lat="44.490090526674294" lon="10.24020706541476"><ele>685.0</ele><time>2026-04-06T11:25:26Z</time></trkpt><trkpt lat="44.49024586374409" lon="10.240294242656294"><ele>685.0</ele><time>2026-04-06T11:25:27Z</time></trkpt><trkpt lat="44.490423867805866" lon="10.240309707562206"><ele>688.0</ele><time>2026-04-06T11:25:28Z</time></trkpt><trkpt lat="44.490590250621736" lon="10.240313951122378"><ele>691.0</ele><time>2026-04-06T11:25:29Z</time></trkpt><trkpt lat="44.49074946938517" lon="10.240325874233035"><ele>694.0</ele><time>2026-04-06T11:25:30Z</time></trkpt><trkpt lat="44.49088913350172" lon="10.240307387525338"><ele>694.0</ele><time>2026-04-06T11:25:31Z</time></trkpt><trkpt lat="44.4910018604151" lon="10.240243751885812"><ele>694.0</ele><time>2026-04-06T11:25:32Z</time></trkpt><trkpt lat="44.491103502026185" lon="10.240179484251724"><ele>694.0</ele><time>2026-04-06T11:25:33Z</time></trkpt><trkpt lat="44.49120279417475" lon="10.240071365981546"><ele>694.0</ele><time>2026-04-06T11:25:34Z</time></trkpt><trkpt lat="44.491313697767396" lon="10.239937787181844"><ele>693.25</ele><time>2026-04-06T11:25:35Z</time></trkpt><trkpt lat="44.491428816790304" lon="10.239823140478249"><ele>692.5</ele><time>2026-04-06T11:25:36Z</time></trkpt><trkpt lat="44.49155893122974" lon="10.23973938567429"><ele>691.75</ele><time>2026-04-06T11:25:37Z</time></trkpt><trkpt lat="44.49169583733655" lon="10.23966950567231"><ele>691.0</ele><time>2026-04-06T11:25:38Z</time></trkpt><trkpt lat="44.49183984372633" lon="10.23962738003365"><ele>696.3333333333334</ele><time>2026-04-06T11:25:39Z</time></trkpt><trkpt lat="44.492001293040346" lon="10.23958038102311"><ele>701.6666666666666</ele><time>2026-04-06T11:25:40Z</time></trkpt><trkpt lat="44.492179853176566" lon="10.239606606255125"><ele>707.0</ele><time>2026-04-06T11:25:41Z</time></trkpt><trkpt lat="44.492371258732526" lon="10.239587228030224"><ele>707.0</ele><time>2026-04-06T11:25:42Z</time></trkpt><trkpt lat="44.49255868932883" lon="10.239555280323149"><ele>707.0</ele><time>2026-04-06T11:25:43Z</time></trkpt><trkpt lat="44.492740882961925" lon="10.239518085861517"><ele>707.0</ele><time>2026-04-06T11:25:44Z</time></trkpt><trkpt lat="44.492916533889826" lon="10.239480982539092"><ele>708.3333333333333</ele><time>2026-04-06T11:25:45Z</time></trkpt><trkpt lat="44.49308077276421" lon="10.239445430882116"><ele>709.6666666666666</ele><time>2026-04-06T11:25:46Z</time></trkpt><trkpt lat="44.49323071374723" lon="10.239423122702236"><ele>711.0</ele><time>2026-04-06T11:25:47Z</time></trkpt><trkpt lat="44.49336401492779" lon="10.239416555344956"><ele>711.0</ele><time>2026-04-06T11:25:48Z</time></trkpt><trkpt lat="44.493507096892145" lon="10.239423248624764"><ele>711.0</ele><time>2026-04-06T11:25:49Z</time></trkpt><trkpt lat="44.49364362194818" lon="10.239492280800029"><ele>711.0</ele><time>2026-04-06T11:25:50Z</time></trkpt><trkpt lat="44.49377471695413" lon="10.23955886206272"><ele>711.0</ele><time>2026-04-06T11:25:51Z</time></trkpt><trkpt lat="44.49389285008914" lon="10.239623085596447"><ele>711.75</ele><time>2026-04-06T11:25:52Z</time></trkpt><trkpt lat="44.49401563399327" lon="10.239676600229073"><ele>712.5</ele><time>2026-04-06T11:25:53Z</time></trkpt><trkpt lat="44.49413099519453" lon="10.239702912367171"><ele>713.25</ele><time>2026-04-06T11:25:54Z</time></trkpt><trkpt lat="44.49423868840477" lon="10.239688608563513"><ele>714.0</ele><time>2026-04-06T11:25:55Z</time></trkpt><trkpt lat="44.49434072790665" lon="10.23963045018902"><ele>714.0</ele><time>2026-04-06T11:25:56Z</time></trkpt><trkpt lat="44.49442780915324" lon="10.23952528657582"><ele>714.0</ele><time>2026-04-06T11:25:57Z</time></trkpt><trkpt lat="44.49449604032466" lon="10.239385367266134"><ele>714.0</ele><time>2026-04-06T11:25:58Z</time></trkpt><trkpt lat="44.494558034057725" lon="10.239225292937357"><ele>714.0</ele><time>2026-04-06T11:25:59Z</time></trkpt><trkpt lat="44.49461437889141" lon="10.23906129668611"><ele>712.75</ele><time>2026-04-06T11:26:00Z</time></trkpt><trkpt lat="44.49466414928166" lon="10.238885671081801"><ele>711.5</ele><time>2026-04-06T11:26:01Z</time></trkpt><trkpt lat="44.49472982454602" lon="10.238723405538877"><ele>710.25</ele><time>2026-04-06T11:26:02Z</time></trkpt><trkpt lat="44.494759823354855" lon="10.238545246209695"><ele>709.0</ele><time>2026-04-06T11:26:03Z</time></trkpt><trkpt lat="44.49481391972472" lon="10.238377980772473"><ele>709.0</ele><time>2026-04-06T11:26:04Z</time></trkpt><trkpt lat="44.49486613327974" lon="10.238210981888235"><ele>709.0</ele><time>2026-04-06T11:26:05Z</time></trkpt><trkpt lat="44.494917652394925" lon="10.238041511493112"><ele>709.0</ele><time>2026-04-06T11:26:06Z</time></trkpt><trkpt lat="44.494970692332075" lon="10.237871597406652"><ele>709.0</ele><time>2026-04-06T11:26:07Z</time></trkpt><trkpt lat="44.49504637046019" lon="10.237714082385914"><ele>710.25</ele><time>2026-04-06T11:26:08Z</time></trkpt><trkpt lat="44.49510170094087" lon="10.23753449345901"><ele>711.5</ele><time>2026-04-06T11:26:09Z</time></trkpt><trkpt lat="44.4951575661495" lon="10.2373540158373"><ele>712.75</ele><time>2026-04-06T11:26:10Z</time></trkpt><trkpt lat="44.49521542025477" lon="10.23717156012957"><ele>714.0</ele><time>2026-04-06T11:26:11Z</time></trkpt><trkpt lat="44.49527683189564" lon="10.236986635789172"><ele>713.0</ele><time>2026-04-06T11:26:12Z</time></trkpt><trkpt lat="44.49533496875104" lon="10.23681417348211"><ele>712.0</ele><time>2026-04-06T11:26:13Z</time></trkpt><trkpt lat="44.49539162589366" lon="10.236656515065532"><ele>711.0</ele><time>2026-04-06T11:26:14Z</time></trkpt><trkpt lat="44.49545008070415" lon="10.236514372588076"><ele>710.0</ele><time>2026-04-06T11:26:15Z</time></trkpt><trkpt lat="44.495518237079544" lon="10.236391492027511"><ele>710.0</ele><time>2026-04-06T11:26:16Z</time></trkpt><trkpt lat="44.495599328595006" lon="10.236287774287472"><ele>710.0</ele><time>2026-04-06T11:26:17Z</time></trkpt><trkpt lat="44.49569942017966" lon="10.236199105117228"><ele>710.0</ele><time>2026-04-06T11:26:18Z</time></trkpt><trkpt lat="44.49582042883442" lon="10.236132499408559"><ele>710.0</ele><time>2026-04-06T11:26:19Z</time></trkpt><trkpt lat="44.49595503323846" lon="10.236072227925872"><ele>710.0</ele><time>2026-04-06T11:26:20Z</time></trkpt><trkpt lat="44.496091150332425" lon="10.23601194232048"><ele>710.0</ele><time>2026-04-06T11:26:21Z</time></trkpt><trkpt lat="44.49621959102444" lon="10.235955056383448"><ele>710.0</ele><time>2026-04-06T11:26:22Z</time></trkpt><trkpt lat="44.496331670139014" lon="10.235898495455562"><ele>710.0</ele><time>2026-04-06T11:26:23Z</time></trkpt><trkpt lat="44.49642630335151" lon="10.235823268449447"><ele>708.5</ele><time>2026-04-06T11:26:24Z</time></trkpt><trkpt lat="44.496506765765936" lon="10.235732218469819"><ele>707.0</ele><time>2026-04-06T11:26:25Z</time></trkpt><trkpt lat="44.49656536052712" lon="10.235569121207034"><ele>705.5</ele><time>2026-04-06T11:26:26Z</time></trkpt><trkpt lat="44.49659479501188" lon="10.235374511114612"><ele>704.0</ele><time>2026-04-06T11:26:27Z</time></trkpt><trkpt lat="44.4966368606315" lon="10.23517432943842"><ele>704.0</ele><time>2026-04-06T11:26:28Z</time></trkpt><trkpt lat="44.496681068162836" lon="10.234963954218621"><ele>704.0</ele><time>2026-04-06T11:26:29Z</time></trkpt><trkpt lat="44.496721044244886" lon="10.234773715646138"><ele>704.0</ele><time>2026-04-06T11:26:30Z</time></trkpt><trkpt lat="44.49675811564168" lon="10.234590675158596"><ele>704.0</ele><time>2026-04-06T11:26:31Z</time></trkpt><trkpt lat="44.49677412043565" lon="10.234398620432145"><ele>703.6666666666666</ele><time>2026-04-06T11:26:32Z</time></trkpt><trkpt lat="44.49674584349135" lon="10.234196484227727"><ele>703.3333333333334</ele><time>2026-04-06T11:26:33Z</time></trkpt><trkpt lat="44.496708831969926" lon="10.233976173147594"><ele>703.0</ele><time>2026-04-06T11:26:34Z</time></trkpt><trkpt lat="44.49666643875343" lon="10.23375935594299"><ele>701.25</ele><time>2026-04-06T11:26:35Z</time></trkpt><trkpt lat="44.496609358099285" lon="10.233551010567645"><ele>699.5</ele><time>2026-04-06T11:26:36Z</time></trkpt><trkpt lat="44.49653865058284" lon="10.23336613672256"><ele>697.75</ele><time>2026-04-06T11:26:37Z</time></trkpt><trkpt lat="44.496457680107426" lon="10.233208667511352"><ele>696.0</ele><time>2026-04-06T11:26:38Z</time></trkpt><trkpt lat="44.49641274638935" lon="10.233036481164351"><ele>695.5</ele><time>2026-04-06T11:26:39Z</time></trkpt><trkpt lat="44.49639043007256" lon="10.232864107800673"><ele>695.0</ele><time>2026-04-06T11:26:40Z</time></trkpt><trkpt lat="44.496390687606656" lon="10.232674963809968"><ele>694.5</ele><time>2026-04-06T11:26:41Z</time></trkpt><trkpt lat="44.49641375200642" lon="10.232478569579992"><ele>694.0</ele><time>2026-04-06T11:26:42Z</time></trkpt><trkpt lat="44.49643891336562" lon="10.232249953508388"><ele>693.6666666666667</ele><time>2026-04-06T11:26:43Z</time></trkpt><trkpt lat="44.49645098650138" lon="10.232019749080166"><ele>693.3333333333334</ele><time>2026-04-06T11:26:44Z</time></trkpt><trkpt lat="44.49643071954072" lon="10.231767884868615"><ele>693.0</ele><time>2026-04-06T11:26:45Z</time></trkpt><trkpt lat="44.4963896202136" lon="10.231529289476908"><ele>690.6666666666666</ele><time>2026-04-06T11:26:46Z</time></trkpt><trkpt lat="44.49634252352487" lon="10.231295006696705"><ele>688.3333333333333</ele><time>2026-04-06T11:26:47Z</time></trkpt><trkpt lat="44.496304298565974" lon="10.231079618544447"><ele>686.0</ele><time>2026-04-06T11:26:48Z</time></trkpt><trkpt lat="44.49627677601969" lon="10.23085947483525"><ele>685.6666666666666</ele><time>2026-04-06T11:26:49Z</time></trkpt><trkpt lat="44.496272361845556" lon="10.230625695005525"><ele>685.3333333333334</ele><time>2026-04-06T11:26:50Z</time></trkpt><trkpt lat="44.496295848911394" lon="10.230391982663805"><ele>685.0</ele><time>2026-04-06T11:26:51Z</time></trkpt><trkpt lat="44.49632968018144" lon="10.230159386026074"><ele>685.0</ele><time>2026-04-06T11:26:52Z</time></trkpt><trkpt lat="44.49637375069296" lon="10.22989206311295"><ele>685.0</ele><time>2026-04-06T11:26:53Z</time></trkpt><trkpt lat="44.49642514490947" lon="10.229610886701996"><ele>685.0</ele><time>2026-04-06T11:26:54Z</time></trkpt><trkpt lat="44.4964771899636" lon="10.229353526821242"><ele>685.6666666666667</ele><time>2026-04-06T11:26:55Z</time></trkpt><trkpt lat="44.4965268964343" lon="10.229108205615052"><ele>686.3333333333334</ele><time>2026-04-06T11:26:56Z</time></trkpt><trkpt lat="44.49657237921683" lon="10.228884823214756"><ele>687.0</ele><time>2026-04-06T11:26:57Z</time></trkpt><trkpt lat="44.496605674379715" lon="10.228686704197635"><ele>687.25</ele><time>2026-04-06T11:26:58Z</time></trkpt><trkpt lat="44.49660779699949" lon="10.228503538974895"><ele>687.5</ele><time>2026-04-06T11:26:59Z</time></trkpt><trkpt lat="44.49660409344518" lon="10.228344276207563"><ele>687.75</ele><time>2026-04-06T11:27:00Z</time></trkpt><trkpt lat="44.49656751360946" lon="10.228184208959956"><ele>688.0</ele><time>2026-04-06T11:27:01Z</time></trkpt><trkpt lat="44.496493691392125" lon="10.228026480524798"><ele>689.25</ele><time>2026-04-06T11:27:02Z</time></trkpt><trkpt lat="44.496379755932395" lon="10.227899581379734"><ele>690.5</ele><time>2026-04-06T11:27:03Z</time></trkpt><trkpt lat="44.49624581133552" lon="10.227785238957685"><ele>691.75</ele><time>2026-04-06T11:27:04Z</time></trkpt><trkpt lat="44.49613746812729" lon="10.227684874778951"><ele>693.0</ele><time>2026-04-06T11:27:05Z</time></trkpt><trkpt lat="44.496044238290395" lon="10.227566852268382"><ele>693.0</ele><time>2026-04-06T11:27:06Z</time></trkpt><trkpt lat="44.49600369080335" lon="10.227393225191083"><ele>693.0</ele><time>2026-04-06T11:27:07Z</time></trkpt><trkpt lat="44.495952813711085" lon="10.227212857130409"><ele>693.0</ele><time>2026-04-06T11:27:08Z</time></trkpt><trkpt lat="44.49590372668469" lon="10.227009623125669"><ele>693.0</ele><time>2026-04-06T11:27:09Z</time></trkpt><trkpt lat="44.495849037236994" lon="10.226816626107142"><ele>691.6666666666666</ele><time>2026-04-06T11:27:10Z</time></trkpt><trkpt lat="44.495847794389896" lon="10.22660607347961"><ele>690.3333333333333</ele><time>2026-04-06T11:27:11Z</time></trkpt><trkpt lat="44.49585712510152" lon="10.226392199205144"><ele>689.0</ele><time>2026-04-06T11:27:12Z</time></trkpt><trkpt lat="44.495872983401945" lon="10.22616747848588"><ele>688.75</ele><time>2026-04-06T11:27:13Z</time></trkpt><trkpt lat="44.49588771533536" lon="10.225960611424028"><ele>688.5</ele><time>2026-04-06T11:27:14Z</time></trkpt><trkpt lat="44.49589959003598" lon="10.225770514481566"><ele>688.25</ele><time>2026-04-06T11:27:15Z</time></trkpt><trkpt lat="44.49592475135323" lon="10.225591800728436"><ele>688.0</ele><time>2026-04-06T11:27:16Z</time></trkpt><trkpt lat="44.49596581280509" lon="10.225421818580767"><ele>689.4</ele><time>2026-04-06T11:27:17Z</time></trkpt><trkpt lat="44.496017443009535" lon="10.22527430643208"><ele>690.8</ele><time>2026-04-06T11:27:18Z</time></trkpt><trkpt lat="44.4960722840931" lon="10.225129490242447"><ele>692.2</ele><time>2026-04-06T11:27:19Z</time></trkpt><trkpt lat="44.4961216195814" lon="10.225008545108029"><ele>693.6</ele><time>2026-04-06T11:27:20Z</time></trkpt><trkpt lat="44.49616934795777" lon="10.224904573879005"><ele>695.0</ele><time>2026-04-06T11:27:21Z</time></trkpt><trkpt lat="44.49621595075278" lon="10.224818560104614"><ele>695.0</ele><time>2026-04-06T11:27:22Z</time></trkpt><trkpt lat="44.49627620910481" lon="10.224727954056458"><ele>695.0</ele><time>2026-04-06T11:27:23Z</time></trkpt><trkpt lat="44.49635165810588" lon="10.22465885793986"><ele>695.0</ele><time>2026-04-06T11:27:24Z</time></trkpt><trkpt lat="44.49644641625178" lon="10.224610762718912"><ele>695.0</ele><time>2026-04-06T11:27:25Z</time></trkpt><trkpt lat="44.49655532917537" lon="10.224583775077232"><ele>695.0</ele><time>2026-04-06T11:27:26Z</time></trkpt><trkpt lat="44.49665286617401" lon="10.224604260411166"><ele>695.0</ele><time>2026-04-06T11:27:27Z</time></trkpt><trkpt lat="44.49676404060744" lon="10.224628800160914"><ele>695.0</ele><time>2026-04-06T11:27:28Z</time></trkpt><trkpt lat="44.496875398623864" lon="10.224650943078132"><ele>695.0</ele><time>2026-04-06T11:27:29Z</time></trkpt><trkpt lat="44.49698202545218" lon="10.224665283165793"><ele>695.0</ele><time>2026-04-06T11:27:30Z</time></trkpt><trkpt lat="44.49708772683201" lon="10.22464445630951"><ele>695.0</ele><time>2026-04-06T11:27:31Z</time></trkpt><trkpt lat="44.49719554740307" lon="10.224635902585804"><ele>692.6</ele><time>2026-04-06T11:27:32Z</time></trkpt><trkpt lat="44.49729599728495" lon="10.22461487827114"><ele>690.2</ele><time>2026-04-06T11:27:33Z</time></trkpt><trkpt lat="44.49739416521065" lon="10.224618866784525"><ele>687.8</ele><time>2026-04-06T11:27:34Z</time></trkpt><trkpt lat="44.4975028143836" lon="10.224591509510873"><ele>685.4</ele><time>2026-04-06T11:27:35Z</time></trkpt><trkpt lat="44.4976032195121" lon="10.224536492380308"><ele>683.0</ele><time>2026-04-06T11:27:36Z</time></trkpt><trkpt lat="44.49770156425892" lon="10.224489802584795"><ele>683.0</ele><time>2026-04-06T11:27:37Z</time></trkpt><trkpt lat="44.49779828550898" lon="10.224445783973964"><ele>683.0</ele><time>2026-04-06T11:27:38Z</time></trkpt><trkpt lat="44.49787933280307" lon="10.22436484705985"><ele>683.0</ele><time>2026-04-06T11:27:39Z</time></trkpt><trkpt lat="44.49794380181493" lon="10.224280497252199"><ele>683.0</ele><time>2026-04-06T11:27:40Z</time></trkpt><trkpt lat="44.49800576265255" lon="10.224187434875791"><ele>683.0</ele><time>2026-04-06T11:27:41Z</time></trkpt><trkpt lat="44.498066651934074" lon="10.224076145090649"><ele>679.75</ele><time>2026-04-06T11:27:42Z</time></trkpt><trkpt lat="44.4981215134929" lon="10.223936265709996"><ele>676.5</ele><time>2026-04-06T11:27:43Z</time></trkpt><trkpt lat="44.49816415021611" lon="10.223730704551276"><ele>673.25</ele><time>2026-04-06T11:27:44Z</time></trkpt><trkpt lat="44.49818984504568" lon="10.223478359565037"><ele>670.0</ele><time>2026-04-06T11:27:45Z</time></trkpt><trkpt lat="44.498222530630905" lon="10.223256599684339"><ele>670.5</ele><time>2026-04-06T11:27:46Z</time></trkpt><trkpt lat="44.49826379142358" lon="10.223061591895634"><ele>671.0</ele><time>2026-04-06T11:27:47Z</time></trkpt><trkpt lat="44.49832148818369" lon="10.222895078571199"><ele>671.5</ele><time>2026-04-06T11:27:48Z</time></trkpt><trkpt lat="44.498406673720766" lon="10.222749717214645"><ele>672.0</ele><time>2026-04-06T11:27:49Z</time></trkpt><trkpt lat="44.49851185595527" lon="10.222636037596207"><ele>672.0</ele><time>2026-04-06T11:27:50Z</time></trkpt><trkpt lat="44.4986228810086" lon="10.222514344464997"><ele>672.0</ele><time>2026-04-06T11:27:51Z</time></trkpt><trkpt lat="44.49872555757434" lon="10.222387120261681"><ele>672.0</ele><time>2026-04-06T11:27:52Z</time></trkpt><trkpt lat="44.49880539381864" lon="10.222226540913281"><ele>672.0</ele><time>2026-04-06T11:27:53Z</time></trkpt><trkpt lat="44.498869190270305" lon="10.222051184850187"><ele>670.8</ele><time>2026-04-06T11:27:54Z</time></trkpt><trkpt lat="44.49892383058521" lon="10.221882877227117"><ele>669.6</ele><time>2026-04-06T11:27:55Z</time></trkpt><trkpt lat="44.49897875153394" lon="10.221744768340065"><ele>668.4</ele><time>2026-04-06T11:27:56Z</time></trkpt><trkpt lat="44.49904892635254" lon="10.221658230003921"><ele>667.1999999999999</ele><time>2026-04-06T11:27:57Z</time></trkpt><trkpt lat="44.49912210871375" lon="10.22156413381947"><ele>666.0</ele><time>2026-04-06T11:27:58Z</time></trkpt><trkpt lat="44.49924847588937" lon="10.221616963142628"><ele>666.0</ele><time>2026-04-06T11:27:59Z</time></trkpt><trkpt lat="44.499390483096576" lon="10.221621502911388"><ele>666.0</ele><time>2026-04-06T11:28:00Z</time></trkpt><trkpt lat="44.49954487550712" lon="10.221666516040935"><ele>666.0</ele><time>2026-04-06T11:28:01Z</time></trkpt><trkpt lat="44.49969574811539" lon="10.221696745050954"><ele>664.3333333333334</ele><time>2026-04-06T11:28:02Z</time></trkpt><trkpt lat="44.4998528325125" lon="10.221724965754852"><ele>662.6666666666667</ele><time>2026-04-06T11:28:03Z</time></trkpt><trkpt lat="44.50000771478682" lon="10.221778378735415"><ele>661.0</ele><time>2026-04-06T11:28:04Z</time></trkpt><trkpt lat="44.5001624398353" lon="10.221808915277188"><ele>661.0</ele><time>2026-04-06T11:28:05Z</time></trkpt><trkpt lat="44.500310966722516" lon="10.221816726212671"><ele>661.0</ele><time>2026-04-06T11:28:06Z</time></trkpt><trkpt lat="44.50045618921297" lon="10.221847830400796"><ele>661.0</ele><time>2026-04-06T11:28:07Z</time></trkpt><trkpt lat="44.50060570932687" lon="10.221890341634221"><ele>661.0</ele><time>2026-04-06T11:28:08Z</time></trkpt><trkpt lat="44.50075446051377" lon="10.221967790826161"><ele>660.75</ele><time>2026-04-06T11:28:09Z</time></trkpt><trkpt lat="44.50089440321911" lon="10.22206932018399"><ele>660.5</ele><time>2026-04-06T11:28:10Z</time></trkpt><trkpt lat="44.50101727685901" lon="10.222192969496271"><ele>660.25</ele><time>2026-04-06T11:28:11Z</time></trkpt><trkpt lat="44.501122424223404" lon="10.222306681487765"><ele>660.0</ele><time>2026-04-06T11:28:12Z</time></trkpt><trkpt lat="44.501218647923295" lon="10.222411420954595"><ele>656.75</ele><time>2026-04-06T11:28:13Z</time></trkpt><trkpt lat="44.501318891249" lon="10.222493457726735"><ele>653.5</ele><time>2026-04-06T11:28:14Z</time></trkpt><trkpt lat="44.50143191288845" lon="10.222523730617652"><ele>650.25</ele><time>2026-04-06T11:28:15Z</time></trkpt><trkpt lat="44.501556365987156" lon="10.222540395762836"><ele>647.0</ele><time>2026-04-06T11:28:16Z</time></trkpt><trkpt lat="44.50168243864393" lon="10.222467020473934"><ele>647.0</ele><time>2026-04-06T11:28:17Z</time></trkpt><trkpt lat="44.501816509655576" lon="10.222418677525443"><ele>647.0</ele><time>2026-04-06T11:28:18Z</time></trkpt><trkpt lat="44.50194905343692" lon="10.222381922767932"><ele>647.0</ele><time>2026-04-06T11:28:19Z</time></trkpt><trkpt lat="44.50208473845388" lon="10.222377195843098"><ele>647.0</ele><time>2026-04-06T11:28:20Z</time></trkpt><trkpt lat="44.502221949053556" lon="10.222389564640205"><ele>645.0</ele><time>2026-04-06T11:28:21Z</time></trkpt><trkpt lat="44.50235162585703" lon="10.222413334971085"><ele>643.0</ele><time>2026-04-06T11:28:22Z</time></trkpt><trkpt lat="44.50249221865737" lon="10.22243595993886"><ele>641.0</ele><time>2026-04-06T11:28:23Z</time></trkpt><trkpt lat="44.502636638388346" lon="10.222429053370277"><ele>639.0</ele><time>2026-04-06T11:28:24Z</time></trkpt><trkpt lat="44.50278060890315" lon="10.22241631912393"><ele>638.0</ele><time>2026-04-06T11:28:25Z</time></trkpt><trkpt lat="44.502915299388775" lon="10.22240212392703"><ele>637.0</ele><time>2026-04-06T11:28:26Z</time></trkpt><trkpt lat="44.50303130179903" lon="10.22238051574405"><ele>636.0</ele><time>2026-04-06T11:28:27Z</time></trkpt><trkpt lat="44.50313039434164" lon="10.222351582504213"><ele>635.0</ele><time>2026-04-06T11:28:28Z</time></trkpt><trkpt lat="44.503203817363726" lon="10.22228808785947"><ele>634.0</ele><time>2026-04-06T11:28:29Z</time></trkpt><trkpt lat="44.50326140104018" lon="10.222180760786193"><ele>632.75</ele><time>2026-04-06T11:28:30Z</time></trkpt><trkpt lat="44.503284484386754" lon="10.222030742891604"><ele>631.5</ele><time>2026-04-06T11:28:31Z</time></trkpt><trkpt lat="44.50324223943271" lon="10.221854826357747"><ele>630.25</ele><time>2026-04-06T11:28:32Z</time></trkpt><trkpt lat="44.503188864874495" lon="10.221661673661556"><ele>629.0</ele><time>2026-04-06T11:28:33Z</time></trkpt><trkpt lat="44.50313212350038" lon="10.221467803062627"><ele>629.0</ele><time>2026-04-06T11:28:34Z</time></trkpt><trkpt lat="44.503075058673694" lon="10.221299543072028"><ele>629.0</ele><time>2026-04-06T11:28:35Z</time></trkpt><trkpt lat="44.5029978137687" lon="10.221142430710074"><ele>629.0</ele><time>2026-04-06T11:28:36Z</time></trkpt><trkpt lat="44.50290530120762" lon="10.220992569068228"><ele>629.0</ele><time>2026-04-06T11:28:37Z</time></trkpt><trkpt lat="44.5028097643279" lon="10.220849627878064"><ele>629.0</ele><time>2026-04-06T11:28:38Z</time></trkpt><trkpt lat="44.502730229084506" lon="10.220686057286265"><ele>629.0</ele><time>2026-04-06T11:28:39Z</time></trkpt><trkpt lat="44.50271344579906" lon="10.22050414539428"><ele>629.0</ele><time>2026-04-06T11:28:40Z</time></trkpt><trkpt lat="44.50273466602281" lon="10.220322119824703"><ele>629.0</ele><time>2026-04-06T11:28:41Z</time></trkpt><trkpt lat="44.5027520357994" lon="10.220113500434133"><ele>628.0</ele><time>2026-04-06T11:28:42Z</time></trkpt><trkpt lat="44.50277241898002" lon="10.219888093926532"><ele>627.0</ele><time>2026-04-06T11:28:43Z</time></trkpt><trkpt lat="44.502804218000556" lon="10.219679791473"><ele>626.0</ele><time>2026-04-06T11:28:44Z</time></trkpt><trkpt lat="44.50286218106197" lon="10.219506240913583"><ele>621.25</ele><time>2026-04-06T11:28:45Z</time></trkpt><trkpt lat="44.50294619496958" lon="10.21933479443767"><ele>616.5</ele><time>2026-04-06T11:28:46Z</time></trkpt><trkpt lat="44.50302511806038" lon="10.219157177077832"><ele>611.75</ele><time>2026-04-06T11:28:47Z</time></trkpt><trkpt lat="44.50306680134021" lon="10.218955645017424"><ele>607.0</ele><time>2026-04-06T11:28:48Z</time></trkpt><trkpt lat="44.50310058878294" lon="10.218748099819132"><ele>606.0</ele><time>2026-04-06T11:28:49Z</time></trkpt><trkpt lat="44.5031067345083" lon="10.218521944391604"><ele>605.0</ele><time>2026-04-06T11:28:50Z</time></trkpt><trkpt lat="44.503092436473736" lon="10.21828972046358"><ele>604.0</ele><time>2026-04-06T11:28:51Z</time></trkpt><trkpt lat="44.50308292059219" lon="10.218053233679166"><ele>603.6666666666667</ele><time>2026-04-06T11:28:52Z</time></trkpt><trkpt lat="44.50306787285568" lon="10.217824736331425"><ele>603.3333333333334</ele><time>2026-04-06T11:28:53Z</time></trkpt><trkpt lat="44.50305506840349" lon="10.217607259598141"><ele>603.0</ele><time>2026-04-06T11:28:54Z</time></trkpt><trkpt lat="44.503042868352075" lon="10.217391016069598"><ele>602.25</ele><time>2026-04-06T11:28:55Z</time></trkpt><trkpt lat="44.503031907338375" lon="10.217177334627818"><ele>601.5</ele><time>2026-04-06T11:28:56Z</time></trkpt><trkpt lat="44.50302634677765" lon="10.216991751167303"><ele>600.75</ele><time>2026-04-06T11:28:57Z</time></trkpt><trkpt lat="44.50303123119058" lon="10.216832391955887"><ele>600.0</ele><time>2026-04-06T11:28:58Z</time></trkpt><trkpt lat="44.50306537463619" lon="10.216682832134508"><ele>600.0</ele><time>2026-04-06T11:28:59Z</time></trkpt><trkpt lat="44.503143777360975" lon="10.216537613155495"><ele>600.0</ele><time>2026-04-06T11:29:00Z</time></trkpt><trkpt lat="44.50324636898737" lon="10.216391874508998"><ele>600.0</ele><time>2026-04-06T11:29:01Z</time></trkpt><trkpt lat="44.50337031163534" lon="10.216248703079343"><ele>600.0</ele><time>2026-04-06T11:29:02Z</time></trkpt><trkpt lat="44.50350209259886" lon="10.2160910345254"><ele>599.3333333333334</ele><time>2026-04-06T11:29:03Z</time></trkpt><trkpt lat="44.50362338792486" lon="10.215934022792776"><ele>598.6666666666667</ele><time>2026-04-06T11:29:04Z</time></trkpt><trkpt lat="44.503729455064295" lon="10.215770279638807"><ele>598.0</ele><time>2026-04-06T11:29:05Z</time></trkpt><trkpt lat="44.50381985726805" lon="10.215589480715117"><ele>595.0</ele><time>2026-04-06T11:29:06Z</time></trkpt><trkpt lat="44.50388424023674" lon="10.215394040649572"><ele>592.0</ele><time>2026-04-06T11:29:07Z</time></trkpt><trkpt lat="44.503952841409934" lon="10.21521158140517"><ele>589.0</ele><time>2026-04-06T11:29:08Z</time></trkpt><trkpt lat="44.50404709144697" lon="10.215062756534614"><ele>586.0</ele><time>2026-04-06T11:29:09Z</time></trkpt><trkpt lat="44.50416435915722" lon="10.21495249266954"><ele>586.0</ele><time>2026-04-06T11:29:10Z</time></trkpt><trkpt lat="44.504310373062474" lon="10.214866393029661"><ele>586.0</ele><time>2026-04-06T11:29:11Z</time></trkpt><trkpt lat="44.50446696555618" lon="10.21477836192263"><ele>586.0</ele><time>2026-04-06T11:29:12Z</time></trkpt><trkpt lat="44.50460523472203" lon="10.214666820395442"><ele>583.75</ele><time>2026-04-06T11:29:13Z</time></trkpt><trkpt lat="44.504737479031256" lon="10.214547629159213"><ele>581.5</ele><time>2026-04-06T11:29:14Z</time></trkpt><trkpt lat="44.50485022744768" lon="10.214420264439179"><ele>579.25</ele><time>2026-04-06T11:29:15Z</time></trkpt><trkpt lat="44.50494411568592" lon="10.214306241467417"><ele>577.0</ele><time>2026-04-06T11:29:16Z</time></trkpt><trkpt lat="44.50501833323518" lon="10.214210036367609"><ele>577.0</ele><time>2026-04-06T11:29:17Z</time></trkpt><trkpt lat="44.50509981904134" lon="10.214129164292443"><ele>577.0</ele><time>2026-04-06T11:29:18Z</time></trkpt><trkpt lat="44.505100477421514" lon="10.213950793117471"><ele>577.0</ele><time>2026-04-06T11:29:19Z</time></trkpt><trkpt lat="44.50509371165028" lon="10.21376614677796"><ele>577.0</ele><time>2026-04-06T11:29:20Z</time></trkpt><trkpt lat="44.50505451938264" lon="10.213544231328875"><ele>576.3333333333334</ele><time>2026-04-06T11:29:21Z</time></trkpt><trkpt lat="44.505040770225385" lon="10.213304539979505"><ele>575.6666666666666</ele><time>2026-04-06T11:29:22Z</time></trkpt><trkpt lat="44.505041437540434" lon="10.213083609942855"><ele>575.0</ele><time>2026-04-06T11:29:23Z</time></trkpt><trkpt lat="44.50504704190948" lon="10.21286700692594"><ele>573.6666666666666</ele><time>2026-04-06T11:29:24Z</time></trkpt><trkpt lat="44.50505424274234" lon="10.21264504737771"><ele>572.3333333333334</ele><time>2026-04-06T11:29:25Z</time></trkpt><trkpt lat="44.50506779195071" lon="10.212429841150843"><ele>571.0</ele><time>2026-04-06T11:29:26Z</time></trkpt><trkpt lat="44.50508928133534" lon="10.212226272757919"><ele>569.6666666666667</ele><time>2026-04-06T11:29:27Z</time></trkpt><trkpt lat="44.505122400979545" lon="10.212011187339584"><ele>568.3333333333334</ele><time>2026-04-06T11:29:28Z</time></trkpt><trkpt lat="44.50516515919626" lon="10.211801607039028"><ele>567.0</ele><time>2026-04-06T11:29:29Z</time></trkpt><trkpt lat="44.505216330625196" lon="10.21161003090365"><ele>566.0</ele><time>2026-04-06T11:29:30Z</time></trkpt><trkpt lat="44.50526638668515" lon="10.211448293318101"><ele>565.0</ele><time>2026-04-06T11:29:31Z</time></trkpt><trkpt lat="44.505319117208714" lon="10.211337453240649"><ele>564.0</ele><time>2026-04-06T11:29:32Z</time></trkpt><trkpt lat="44.505384888199586" lon="10.211275054964718"><ele>563.0</ele><time>2026-04-06T11:29:33Z</time></trkpt><trkpt lat="44.50546276660653" lon="10.211266212922514"><ele>562.0</ele><time>2026-04-06T11:29:34Z</time></trkpt><trkpt lat="44.505560510897865" lon="10.211265077380531"><ele>559.0</ele><time>2026-04-06T11:29:35Z</time></trkpt><trkpt lat="44.50564772625078" lon="10.211401310658829"><ele>556.0</ele><time>2026-04-06T11:29:36Z</time></trkpt><trkpt lat="44.505767863959974" lon="10.211564477339182"><ele>553.0</ele><time>2026-04-06T11:29:37Z</time></trkpt><trkpt lat="44.50589079434788" lon="10.211791388612594"><ele>553.0</ele><time>2026-04-06T11:29:38Z</time></trkpt><trkpt lat="44.50601606355103" lon="10.212018011085318"><ele>553.0</ele><time>2026-04-06T11:29:39Z</time></trkpt><trkpt lat="44.50613721139254" lon="10.21224027346383"><ele>553.0</ele><time>2026-04-06T11:29:40Z</time></trkpt><trkpt lat="44.5062686054708" lon="10.212483127182512"><ele>549.5</ele><time>2026-04-06T11:29:41Z</time></trkpt><trkpt lat="44.506410939570806" lon="10.212764815168223"><ele>546.0</ele><time>2026-04-06T11:29:42Z</time></trkpt><trkpt lat="44.506555495823555" lon="10.213052649907619"><ele>546.0</ele><time>2026-04-06T11:29:43Z</time></trkpt><trkpt lat="44.50669894411669" lon="10.213340806689272"><ele>546.0</ele><time>2026-04-06T11:29:44Z</time></trkpt><trkpt lat="44.50683129400258" lon="10.213615740439625"><ele>546.0</ele><time>2026-04-06T11:29:45Z</time></trkpt><trkpt lat="44.50695733933875" lon="10.2138620025242"><ele>546.0</ele><time>2026-04-06T11:29:46Z</time></trkpt><trkpt lat="44.50707720927274" lon="10.214097755425275"><ele>546.0</ele><time>2026-04-06T11:29:47Z</time></trkpt><trkpt lat="44.5071856674621" lon="10.214322411639834"><ele>545.3333333333334</ele><time>2026-04-06T11:29:48Z</time></trkpt><trkpt lat="44.50728646430721" lon="10.214533173783495"><ele>544.6666666666667</ele><time>2026-04-06T11:29:49Z</time></trkpt><trkpt lat="44.50738453671371" lon="10.214731029716413"><ele>544.0</ele><time>2026-04-06T11:29:50Z</time></trkpt><trkpt lat="44.50747518110399" lon="10.214897810759624"><ele>543.5</ele><time>2026-04-06T11:29:51Z</time></trkpt><trkpt lat="44.50757367104628" lon="10.215021112111119"><ele>543.0</ele><time>2026-04-06T11:29:52Z</time></trkpt><trkpt lat="44.507704805777415" lon="10.215114450482817"><ele>542.5</ele><time>2026-04-06T11:29:53Z</time></trkpt><trkpt lat="44.50784437596638" lon="10.21520805467409"><ele>542.0</ele><time>2026-04-06T11:29:54Z</time></trkpt><trkpt lat="44.508009395843295" lon="10.21524760779374"><ele>545.3333333333333</ele><time>2026-04-06T11:29:55Z</time></trkpt><trkpt lat="44.50819062721457" lon="10.215276725742612"><ele>548.6666666666666</ele><time>2026-04-06T11:29:56Z</time></trkpt><trkpt lat="44.50837424890042" lon="10.215281325002012"><ele>552.0</ele><time>2026-04-06T11:29:57Z</time></trkpt><trkpt lat="44.50854858182536" lon="10.215303339284127"><ele>552.0</ele><time>2026-04-06T11:29:58Z</time></trkpt><trkpt lat="44.50872125671056" lon="10.215326574468664"><ele>552.0</ele><time>2026-04-06T11:29:59Z</time></trkpt><trkpt lat="44.508879818683944" lon="10.215334273523519"><ele>552.0</ele><time>2026-04-06T11:30:00Z</time></trkpt><trkpt lat="44.509039389073806" lon="10.215384747926649"><ele>552.0</ele><time>2026-04-06T11:30:01Z</time></trkpt><trkpt lat="44.50921090904259" lon="10.215453766395688"><ele>552.0</ele><time>2026-04-06T11:30:02Z</time></trkpt><trkpt lat="44.509387500863944" lon="10.215557789045814"><ele>552.0</ele><time>2026-04-06T11:30:03Z</time></trkpt><trkpt lat="44.50955419460013" lon="10.215664112049927"><ele>553.6666666666666</ele><time>2026-04-06T11:30:04Z</time></trkpt><trkpt lat="44.50971309538298" lon="10.215726186783382"><ele>555.3333333333333</ele><time>2026-04-06T11:30:05Z</time></trkpt><trkpt lat="44.50985577959599" lon="10.215782903270348"><ele>557.0</ele><time>2026-04-06T11:30:06Z</time></trkpt><trkpt lat="44.51000509868243" lon="10.215789023016756"><ele>557.0</ele><time>2026-04-06T11:30:07Z</time></trkpt><trkpt lat="44.51016977962815" lon="10.215745967223862"><ele>557.0</ele><time>2026-04-06T11:30:08Z</time></trkpt><trkpt lat="44.510352693165885" lon="10.215657688760807"><ele>557.0</ele><time>2026-04-06T11:30:09Z</time></trkpt><trkpt lat="44.51053764835797" lon="10.215556979092973"><ele>559.6666666666666</ele><time>2026-04-06T11:30:10Z</time></trkpt><trkpt lat="44.510700952037425" lon="10.215481880366628"><ele>562.3333333333334</ele><time>2026-04-06T11:30:11Z</time></trkpt><trkpt lat="44.51084990257987" lon="10.215457036813982"><ele>565.0</ele><time>2026-04-06T11:30:12Z</time></trkpt><trkpt lat="44.51098722768221" lon="10.21548227232177"><ele>565.0</ele><time>2026-04-06T11:30:13Z</time></trkpt><trkpt lat="44.51113176430544" lon="10.21556127509592"><ele>565.0</ele><time>2026-04-06T11:30:14Z</time></trkpt><trkpt lat="44.51127417664563" lon="10.215678347488755"><ele>565.0</ele><time>2026-04-06T11:30:15Z</time></trkpt><trkpt lat="44.51142330037902" lon="10.21583204572562"><ele>565.6666666666667</ele><time>2026-04-06T11:30:16Z</time></trkpt><trkpt lat="44.511566042539535" lon="10.216001719720397"><ele>566.3333333333334</ele><time>2026-04-06T11:30:17Z</time></trkpt><trkpt lat="44.511695260173" lon="10.216190514437704"><ele>567.0</ele><time>2026-04-06T11:30:18Z</time></trkpt><trkpt lat="44.51182160378864" lon="10.216394164283779"><ele>565.6666666666666</ele><time>2026-04-06T11:30:19Z</time></trkpt><trkpt lat="44.51195601415436" lon="10.21658867551648"><ele>564.3333333333333</ele><time>2026-04-06T11:30:20Z</time></trkpt><trkpt lat="44.51206987977432" lon="10.216791825222792"><ele>563.0</ele><time>2026-04-06T11:30:21Z</time></trkpt><trkpt lat="44.512170436575865" lon="10.2169738597422"><ele>564.3333333333333</ele><time>2026-04-06T11:30:22Z</time></trkpt><trkpt lat="44.51226625113314" lon="10.217133177182749"><ele>565.6666666666666</ele><time>2026-04-06T11:30:23Z</time></trkpt><trkpt lat="44.51239042479985" lon="10.217267591627786"><ele>567.0</ele><time>2026-04-06T11:30:24Z</time></trkpt><trkpt lat="44.51255119322251" lon="10.217373958752507"><ele>567.0</ele><time>2026-04-06T11:30:25Z</time></trkpt><trkpt lat="44.51271427571268" lon="10.217468218036972"><ele>567.0</ele><time>2026-04-06T11:30:26Z</time></trkpt><trkpt lat="44.512837013378125" lon="10.217633103712494"><ele>567.0</ele><time>2026-04-06T11:30:27Z</time></trkpt><trkpt lat="44.512954212852044" lon="10.217818607981162"><ele>570.0</ele><time>2026-04-06T11:30:28Z</time></trkpt><trkpt lat="44.513051681313435" lon="10.218018479861989"><ele>573.0</ele><time>2026-04-06T11:30:29Z</time></trkpt><trkpt lat="44.51313077895776" lon="10.21822152285644"><ele>576.0</ele><time>2026-04-06T11:30:30Z</time></trkpt><trkpt lat="44.51320684227497" lon="10.218407370250386"><ele>576.25</ele><time>2026-04-06T11:30:31Z</time></trkpt><trkpt lat="44.51324879808525" lon="10.218606563048551"><ele>576.5</ele><time>2026-04-06T11:30:32Z</time></trkpt><trkpt lat="44.51329539342878" lon="10.218787616581753"><ele>576.75</ele><time>2026-04-06T11:30:33Z</time></trkpt><trkpt lat="44.51335383781564" lon="10.218943312665392"><ele>577.0</ele><time>2026-04-06T11:30:34Z</time></trkpt><trkpt lat="44.51343127950512" lon="10.219059449311676"><ele>575.75</ele><time>2026-04-06T11:30:35Z</time></trkpt><trkpt lat="44.51353835445616" lon="10.219119801427588"><ele>574.5</ele><time>2026-04-06T11:30:36Z</time></trkpt><trkpt lat="44.51366212995776" lon="10.219177064808834"><ele>573.25</ele><time>2026-04-06T11:30:37Z</time></trkpt><trkpt lat="44.513786253446845" lon="10.21921802053016"><ele>572.0</ele><time>2026-04-06T11:30:38Z</time></trkpt><trkpt lat="44.51393162498984" lon="10.219267257952714"><ele>574.5</ele><time>2026-04-06T11:30:39Z</time></trkpt><trkpt lat="44.514094659165245" lon="10.219332755431303"><ele>577.0</ele><time>2026-04-06T11:30:40Z</time></trkpt><trkpt lat="44.51423930716947" lon="10.219387984393583"><ele>579.5</ele><time>2026-04-06T11:30:41Z</time></trkpt><trkpt lat="44.514332964266394" lon="10.21940123944888"><ele>582.0</ele><time>2026-04-06T11:30:42Z</time></trkpt><trkpt lat="44.51442600089021" lon="10.219380626501227"><ele>582.0</ele><time>2026-04-06T11:30:43Z</time></trkpt><trkpt lat="44.51450745397271" lon="10.219322648686147"><ele>582.0</ele><time>2026-04-06T11:30:44Z</time></trkpt><trkpt lat="44.514597972532925" lon="10.219227316489825"><ele>582.0</ele><time>2026-04-06T11:30:45Z</time></trkpt><trkpt lat="44.5147319888057" lon="10.219143471609426"><ele>582.0</ele><time>2026-04-06T11:30:46Z</time></trkpt><trkpt lat="44.514882588671206" lon="10.21903279368739"><ele>585.3333333333334</ele><time>2026-04-06T11:30:47Z</time></trkpt><trkpt lat="44.515031855386354" lon="10.218962959557109"><ele>588.6666666666667</ele><time>2026-04-06T11:30:48Z</time></trkpt><trkpt lat="44.515192219369254" lon="10.218892300140832"><ele>592.0</ele><time>2026-04-06T11:30:49Z</time></trkpt><trkpt lat="44.515360056819446" lon="10.218820059891192"><ele>591.3333333333334</ele><time>2026-04-06T11:30:50Z</time></trkpt><trkpt lat="44.51553499799117" lon="10.218745468824185"><ele>590.6666666666666</ele><time>2026-04-06T11:30:51Z</time></trkpt><trkpt lat="44.51569988709525" lon="10.218675163735593"><ele>590.0</ele><time>2026-04-06T11:30:52Z</time></trkpt><trkpt lat="44.515851706579014" lon="10.218610431227718"><ele>590.0</ele><time>2026-04-06T11:30:53Z</time></trkpt><trkpt lat="44.5159909281315" lon="10.218551586646866"><ele>590.0</ele><time>2026-04-06T11:30:54Z</time></trkpt><trkpt lat="44.51612252038024" lon="10.218498144929534"><ele>590.0</ele><time>2026-04-06T11:30:55Z</time></trkpt><trkpt lat="44.51624647668052" lon="10.218465496525786"><ele>590.0</ele><time>2026-04-06T11:30:56Z</time></trkpt><trkpt lat="44.5163686265857" lon="10.21846456537383"><ele>589.75</ele><time>2026-04-06T11:30:57Z</time></trkpt><trkpt lat="44.51648094458013" lon="10.218532627663931"><ele>589.5</ele><time>2026-04-06T11:30:58Z</time></trkpt><trkpt lat="44.5165853045411" lon="10.218659379319313"><ele>589.25</ele><time>2026-04-06T11:30:59Z</time></trkpt><trkpt lat="44.516705416300496" lon="10.218814347476767"><ele>589.0</ele><time>2026-04-06T11:31:00Z</time></trkpt><trkpt lat="44.51683001178067" lon="10.218977024417889"><ele>588.6666666666667</ele><time>2026-04-06T11:31:01Z</time></trkpt><trkpt lat="44.51696555749601" lon="10.219130042962583"><ele>588.3333333333334</ele><time>2026-04-06T11:31:02Z</time></trkpt><trkpt lat="44.517075358796845" lon="10.219279865954915"><ele>588.0</ele><time>2026-04-06T11:31:03Z</time></trkpt><trkpt lat="44.51717956520482" lon="10.219405916030565"><ele>589.6666666666666</ele><time>2026-04-06T11:31:04Z</time></trkpt><trkpt lat="44.517301854132405" lon="10.21950861456739"><ele>591.3333333333333</ele><time>2026-04-06T11:31:05Z</time></trkpt><trkpt lat="44.5174511603886" lon="10.219602944416598"><ele>593.0</ele><time>2026-04-06T11:31:06Z</time></trkpt><trkpt lat="44.517616356021115" lon="10.219686131278939"><ele>593.0</ele><time>2026-04-06T11:31:07Z</time></trkpt><trkpt lat="44.51781701731593" lon="10.219782544367803"><ele>593.0</ele><time>2026-04-06T11:31:08Z</time></trkpt><trkpt lat="44.51801494593747" lon="10.219891309981591"><ele>593.0</ele><time>2026-04-06T11:31:09Z</time></trkpt><trkpt lat="44.518199868235804" lon="10.220014832034057"><ele>590.6666666666666</ele><time>2026-04-06T11:31:10Z</time></trkpt><trkpt lat="44.5183878161023" lon="10.220130064464026"><ele>588.3333333333334</ele><time>2026-04-06T11:31:11Z</time></trkpt><trkpt lat="44.51858457683149" lon="10.220253350973097"><ele>586.0</ele><time>2026-04-06T11:31:12Z</time></trkpt><trkpt lat="44.51877989962323" lon="10.22039039202567"><ele>586.0</ele><time>2026-04-06T11:31:13Z</time></trkpt><trkpt lat="44.51896336600735" lon="10.220542358153512"><ele>586.0</ele><time>2026-04-06T11:31:14Z</time></trkpt><trkpt lat="44.51914278201519" lon="10.220689426034303"><ele>586.0</ele><time>2026-04-06T11:31:15Z</time></trkpt><trkpt lat="44.51931191515413" lon="10.220819681716765"><ele>583.6666666666667</ele><time>2026-04-06T11:31:16Z</time></trkpt><trkpt lat="44.519458641416065" lon="10.220962675844019"><ele>581.3333333333334</ele><time>2026-04-06T11:31:17Z</time></trkpt><trkpt lat="44.51960407146207" lon="10.221091470377244"><ele>579.0</ele><time>2026-04-06T11:31:18Z</time></trkpt><trkpt lat="44.51974784735749" lon="10.221190375611915"><ele>579.0</ele><time>2026-04-06T11:31:19Z</time></trkpt><trkpt lat="44.519889608364274" lon="10.221261489488922"><ele>579.0</ele><time>2026-04-06T11:31:20Z</time></trkpt><trkpt lat="44.52003510026783" lon="10.2213218015631"><ele>579.0</ele><time>2026-04-06T11:31:21Z</time></trkpt><trkpt lat="44.52019740117439" lon="10.221364911509411"><ele>579.0</ele><time>2026-04-06T11:31:22Z</time></trkpt><trkpt lat="44.520363978005726" lon="10.221445156680316"><ele>579.0</ele><time>2026-04-06T11:31:23Z</time></trkpt><trkpt lat="44.52053210058389" lon="10.221508069620372"><ele>579.0</ele><time>2026-04-06T11:31:24Z</time></trkpt><trkpt lat="44.52070258264429" lon="10.221575960492617"><ele>577.0</ele><time>2026-04-06T11:31:25Z</time></trkpt><trkpt lat="44.520866253252606" lon="10.221645356663585"><ele>575.0</ele><time>2026-04-06T11:31:26Z</time></trkpt><trkpt lat="44.52102405217226" lon="10.221687913297119"><ele>573.0</ele><time>2026-04-06T11:31:27Z</time></trkpt><trkpt lat="44.52116965623738" lon="10.221751049075694"><ele>571.25</ele><time>2026-04-06T11:31:28Z</time></trkpt><trkpt lat="44.521312687282254" lon="10.221803631670284"><ele>569.5</ele><time>2026-04-06T11:31:29Z</time></trkpt><trkpt lat="44.52144973065264" lon="10.221826187058163"><ele>567.75</ele><time>2026-04-06T11:31:30Z</time></trkpt><trkpt lat="44.52159156193157" lon="10.221820447203175"><ele>566.0</ele><time>2026-04-06T11:31:31Z</time></trkpt><trkpt lat="44.52172876098607" lon="10.221782021471906"><ele>566.0</ele><time>2026-04-06T11:31:32Z</time></trkpt><trkpt lat="44.52187636057877" lon="10.221711586130667"><ele>566.0</ele><time>2026-04-06T11:31:33Z</time></trkpt><trkpt lat="44.52203107834256" lon="10.221610526801031"><ele>566.0</ele><time>2026-04-06T11:31:34Z</time></trkpt><trkpt lat="44.52218906629632" lon="10.22157020728567"><ele>565.6666666666666</ele><time>2026-04-06T11:31:35Z</time></trkpt><trkpt lat="44.52233162945471" lon="10.221550947287602"><ele>565.3333333333334</ele><time>2026-04-06T11:31:36Z</time></trkpt><trkpt lat="44.522480606161544" lon="10.221564950464694"><ele>565.0</ele><time>2026-04-06T11:31:37Z</time></trkpt><trkpt lat="44.52263079587013" lon="10.221641915074827"><ele>565.0</ele><time>2026-04-06T11:31:38Z</time></trkpt><trkpt lat="44.52280243431155" lon="10.221721017563441"><ele>565.0</ele><time>2026-04-06T11:31:39Z</time></trkpt><trkpt lat="44.52296676145194" lon="10.221780645751434"><ele>565.0</ele><time>2026-04-06T11:31:40Z</time></trkpt><trkpt lat="44.523108802457145" lon="10.22185123692098"><ele>565.25</ele><time>2026-04-06T11:31:41Z</time></trkpt><trkpt lat="44.52324893124007" lon="10.221902007399022"><ele>565.5</ele><time>2026-04-06T11:31:42Z</time></trkpt><trkpt lat="44.523396223413805" lon="10.22192357351116"><ele>565.75</ele><time>2026-04-06T11:31:43Z</time></trkpt><trkpt lat="44.52354455810308" lon="10.221932160444785"><ele>566.0</ele><time>2026-04-06T11:31:44Z</time></trkpt><trkpt lat="44.52369260306449" lon="10.221917614743315"><ele>564.25</ele><time>2026-04-06T11:31:45Z</time></trkpt><trkpt lat="44.52382616739074" lon="10.221880882281019"><ele>562.5</ele><time>2026-04-06T11:31:46Z</time></trkpt><trkpt lat="44.523928530852906" lon="10.221827803234634"><ele>560.75</ele><time>2026-04-06T11:31:47Z</time></trkpt><trkpt lat="44.524020264410304" lon="10.22173942402525"><ele>559.0</ele><time>2026-04-06T11:31:48Z</time></trkpt><trkpt lat="44.52410366877167" lon="10.221584972549596"><ele>560.75</ele><time>2026-04-06T11:31:49Z</time></trkpt><trkpt lat="44.52419488434043" lon="10.221448990174219"><ele>562.5</ele><time>2026-04-06T11:31:50Z</time></trkpt><trkpt lat="44.52429322859338" lon="10.221335398925829"><ele>564.25</ele><time>2026-04-06T11:31:51Z</time></trkpt><trkpt lat="44.52440466236989" lon="10.221260642452398"><ele>566.0</ele><time>2026-04-06T11:31:52Z</time></trkpt><trkpt lat="44.52453218808713" lon="10.221200685545538"><ele>565.0</ele><time>2026-04-06T11:31:53Z</time></trkpt><trkpt lat="44.52464902775508" lon="10.221213075478875"><ele>564.0</ele><time>2026-04-06T11:31:54Z</time></trkpt><trkpt lat="44.524765280882505" lon="10.221247405859941"><ele>563.0</ele><time>2026-04-06T11:31:55Z</time></trkpt><trkpt lat="44.52489300135027" lon="10.221331239915335"><ele>562.0</ele><time>2026-04-06T11:31:56Z</time></trkpt><trkpt lat="44.52501893593186" lon="10.221445181253713"><ele>560.75</ele><time>2026-04-06T11:31:57Z</time></trkpt><trkpt lat="44.525137642904646" lon="10.221544325807995"><ele>559.5</ele><time>2026-04-06T11:31:58Z</time></trkpt><trkpt lat="44.525262264023254" lon="10.221602349825384"><ele>558.25</ele><time>2026-04-06T11:31:59Z</time></trkpt><trkpt lat="44.52540029255452" lon="10.221657280936176"><ele>557.0</ele><time>2026-04-06T11:32:00Z</time></trkpt><trkpt lat="44.52555183258208" lon="10.22167788585199"><ele>557.0</ele><time>2026-04-06T11:32:01Z</time></trkpt><trkpt lat="44.52569175798627" lon="10.22168188731634"><ele>557.0</ele><time>2026-04-06T11:32:02Z</time></trkpt><trkpt lat="44.52581214750864" lon="10.221683303666728"><ele>557.0</ele><time>2026-04-06T11:32:03Z</time></trkpt><trkpt lat="44.52590936285444" lon="10.221687748811679"><ele>557.0</ele><time>2026-04-06T11:32:04Z</time></trkpt><trkpt lat="44.525990462551604" lon="10.221696181259842"><ele>557.0</ele><time>2026-04-06T11:32:05Z</time></trkpt><trkpt lat="44.52605833513416" lon="10.221726492584754"><ele>557.0</ele><time>2026-04-06T11:32:06Z</time></trkpt><trkpt lat="44.52612489193135" lon="10.221874820566006"><ele>557.0</ele><time>2026-04-06T11:32:08Z</time></trkpt><trkpt lat="44.526186089181614" lon="10.221941740511117"><ele>557.0</ele><time>2026-04-06T11:32:09Z</time></trkpt><trkpt lat="44.52624131673517" lon="10.222036589674293"><ele>557.0</ele><time>2026-04-06T11:32:10Z</time></trkpt><trkpt lat="44.52629343854792" lon="10.222126104788638"><ele>557.0</ele><time>2026-04-06T11:32:11Z</time></trkpt><trkpt lat="44.52635533452615" lon="10.222227902401626"><ele>558.75</ele><time>2026-04-06T11:32:12Z</time></trkpt><trkpt lat="44.5264241681033" lon="10.222303800788826"><ele>560.5</ele><time>2026-04-06T11:32:13Z</time></trkpt><trkpt lat="44.52650628710176" lon="10.222480692579225"><ele>562.25</ele><time>2026-04-06T11:32:15Z</time></trkpt><trkpt lat="44.5265333968794" lon="10.222634022271727"><ele>564.0</ele><time>2026-04-06T11:32:16Z</time></trkpt><trkpt lat="44.5265444584266" lon="10.222807218927727"><ele>564.0</ele><time>2026-04-06T11:32:17Z</time></trkpt><trkpt lat="44.52654177340703" lon="10.222969495311734"><ele>564.0</ele><time>2026-04-06T11:32:18Z</time></trkpt><trkpt lat="44.526529282125644" lon="10.22314068743554"><ele>564.0</ele><time>2026-04-06T11:32:19Z</time></trkpt><trkpt lat="44.52653028160086" lon="10.22329312460418"><ele>564.0</ele><time>2026-04-06T11:32:20Z</time></trkpt><trkpt lat="44.52654752196629" lon="10.223433714930199"><ele>564.0</ele><time>2026-04-06T11:32:21Z</time></trkpt><trkpt lat="44.526586858781016" lon="10.223554415390254"><ele>563.0</ele><time>2026-04-06T11:32:22Z</time></trkpt><trkpt lat="44.526665157198984" lon="10.223678222950747"><ele>562.0</ele><time>2026-04-06T11:32:23Z</time></trkpt><trkpt lat="44.52678256041476" lon="10.22378645596592"><ele>561.0</ele><time>2026-04-06T11:32:24Z</time></trkpt><trkpt lat="44.52692307585552" lon="10.223877054976866"><ele>560.0</ele><time>2026-04-06T11:32:25Z</time></trkpt><trkpt lat="44.52705158527476" lon="10.223962183304339"><ele>561.0</ele><time>2026-04-06T11:32:26Z</time></trkpt><trkpt lat="44.52715078977275" lon="10.224057751290538"><ele>562.0</ele><time>2026-04-06T11:32:27Z</time></trkpt><trkpt lat="44.52722383867773" lon="10.224183147423854"><ele>563.0</ele><time>2026-04-06T11:32:28Z</time></trkpt><trkpt lat="44.527274501640804" lon="10.224352852545543"><ele>564.0</ele><time>2026-04-06T11:32:29Z</time></trkpt><trkpt lat="44.52729924235684" lon="10.22456384811226"><ele>564.0</ele><time>2026-04-06T11:32:30Z</time></trkpt><trkpt lat="44.527303940461024" lon="10.224775749493336"><ele>564.0</ele><time>2026-04-06T11:32:31Z</time></trkpt><trkpt lat="44.527326433872325" lon="10.224959801180555"><ele>564.0</ele><time>2026-04-06T11:32:32Z</time></trkpt><trkpt lat="44.52737992689715" lon="10.225122173601276"><ele>564.0</ele><time>2026-04-06T11:32:33Z</time></trkpt><trkpt lat="44.52743481945891" lon="10.225316128722632"><ele>562.0</ele><time>2026-04-06T11:32:34Z</time></trkpt><trkpt lat="44.527602380064245" lon="10.225432697198661"><ele>560.0</ele><time>2026-04-06T11:32:35Z</time></trkpt><trkpt lat="44.52774799307317" lon="10.225575946391746"><ele>558.0</ele><time>2026-04-06T11:32:36Z</time></trkpt><trkpt lat="44.52787753958664" lon="10.22573336447437"><ele>559.3333333333334</ele><time>2026-04-06T11:32:37Z</time></trkpt><trkpt lat="44.52797994724186" lon="10.225921324325368"><ele>560.6666666666667</ele><time>2026-04-06T11:32:38Z</time></trkpt><trkpt lat="44.52807218503601" lon="10.226122639644608"><ele>562.0</ele><time>2026-04-06T11:32:39Z</time></trkpt><trkpt lat="44.52816019166794" lon="10.226312609344665"><ele>562.0</ele><time>2026-04-06T11:32:40Z</time></trkpt><trkpt lat="44.52824048415213" lon="10.226470138429857"><ele>562.0</ele><time>2026-04-06T11:32:41Z</time></trkpt><trkpt lat="44.52831131568263" lon="10.22662947003348"><ele>562.0</ele><time>2026-04-06T11:32:42Z</time></trkpt><trkpt lat="44.52834472280357" lon="10.226822486704261"><ele>562.0</ele><time>2026-04-06T11:32:43Z</time></trkpt><trkpt lat="44.528386886579625" lon="10.227016928164936"><ele>559.75</ele><time>2026-04-06T11:32:44Z</time></trkpt><trkpt lat="44.52841243072552" lon="10.227201755583694"><ele>557.5</ele><time>2026-04-06T11:32:45Z</time></trkpt><trkpt lat="44.52843973227332" lon="10.22736888198338"><ele>555.25</ele><time>2026-04-06T11:32:46Z</time></trkpt><trkpt lat="44.52846609997526" lon="10.227524510769992"><ele>553.0</ele><time>2026-04-06T11:32:47Z</time></trkpt><trkpt lat="44.52850407556199" lon="10.227687052470005"><ele>553.25</ele><time>2026-04-06T11:32:48Z</time></trkpt><trkpt lat="44.52856377656669" lon="10.227845464381488"><ele>553.5</ele><time>2026-04-06T11:32:49Z</time></trkpt><trkpt lat="44.52865555872319" lon="10.227997131465434"><ele>553.75</ele><time>2026-04-06T11:32:50Z</time></trkpt><trkpt lat="44.52877655414872" lon="10.228148508050293"><ele>554.0</ele><time>2026-04-06T11:32:51Z</time></trkpt><trkpt lat="44.52892788484929" lon="10.228282417570858"><ele>554.0</ele><time>2026-04-06T11:32:52Z</time></trkpt><trkpt lat="44.529058886757205" lon="10.228447533129"><ele>554.0</ele><time>2026-04-06T11:32:53Z</time></trkpt><trkpt lat="44.52917314877099" lon="10.228597724977949"><ele>554.0</ele><time>2026-04-06T11:32:54Z</time></trkpt><trkpt lat="44.529275057374946" lon="10.228746302869816"><ele>554.0</ele><time>2026-04-06T11:32:55Z</time></trkpt><trkpt lat="44.52935743426685" lon="10.228907009937576"><ele>554.0</ele><time>2026-04-06T11:32:56Z</time></trkpt><trkpt lat="44.52944099617529" lon="10.22904495529886"><ele>554.0</ele><time>2026-04-06T11:32:57Z</time></trkpt><trkpt lat="44.52953464617623" lon="10.229157127061944"><ele>554.0</ele><time>2026-04-06T11:32:58Z</time></trkpt><trkpt lat="44.529638614508286" lon="10.229233407000239"><ele>553.25</ele><time>2026-04-06T11:32:59Z</time></trkpt><trkpt lat="44.529762345335726" lon="10.229267675978985"><ele>552.5</ele><time>2026-04-06T11:33:00Z</time></trkpt><trkpt lat="44.52989272219377" lon="10.229247425149238"><ele>551.75</ele><time>2026-04-06T11:33:01Z</time></trkpt><trkpt lat="44.53003183011059" lon="10.229195741597952"><ele>551.0</ele><time>2026-04-06T11:33:02Z</time></trkpt><trkpt lat="44.53016850965872" lon="10.229050348381698"><ele>554.25</ele><time>2026-04-06T11:33:03Z</time></trkpt><trkpt lat="44.530311908661204" lon="10.228961672024587"><ele>557.5</ele><time>2026-04-06T11:33:04Z</time></trkpt><trkpt lat="44.5304369233085" lon="10.228873241785234"><ele>560.75</ele><time>2026-04-06T11:33:05Z</time></trkpt><trkpt lat="44.53055264069858" lon="10.228797624592389"><ele>564.0</ele><time>2026-04-06T11:33:06Z</time></trkpt><trkpt lat="44.53067328346517" lon="10.22875151980376"><ele>564.6666666666666</ele><time>2026-04-06T11:33:07Z</time></trkpt><trkpt lat="44.53080819435237" lon="10.228786058505431"><ele>565.3333333333333</ele><time>2026-04-06T11:33:08Z</time></trkpt><trkpt lat="44.53091429656764" lon="10.228918487669166"><ele>566.0</ele><time>2026-04-06T11:33:09Z</time></trkpt><trkpt lat="44.531117205685455" lon="10.228950031046383"><ele>567.5</ele><time>2026-04-06T11:33:10Z</time></trkpt><trkpt lat="44.53124540105115" lon="10.228900645237516"><ele>569.0</ele><time>2026-04-06T11:33:11Z</time></trkpt><trkpt lat="44.531348143320315" lon="10.228864559504258"><ele>570.5</ele><time>2026-04-06T11:33:12Z</time></trkpt><trkpt lat="44.53145592852398" lon="10.22884356808025"><ele>572.0</ele><time>2026-04-06T11:33:13Z</time></trkpt><trkpt lat="44.53156073509548" lon="10.228831940720168"><ele>572.0</ele><time>2026-04-06T11:33:14Z</time></trkpt><trkpt lat="44.53166230915954" lon="10.228828197017872"><ele>572.0</ele><time>2026-04-06T11:33:15Z</time></trkpt><trkpt lat="44.53176177297481" lon="10.22882727129455"><ele>572.0</ele><time>2026-04-06T11:33:16Z</time></trkpt><trkpt lat="44.531869837579634" lon="10.228811942015003"><ele>572.0</ele><time>2026-04-06T11:33:17Z</time></trkpt><trkpt lat="44.53198792999989" lon="10.228839519759427"><ele>572.0</ele><time>2026-04-06T11:33:18Z</time></trkpt><trkpt lat="44.53209415864756" lon="10.228925554017778"><ele>569.25</ele><time>2026-04-06T11:33:19Z</time></trkpt><trkpt lat="44.53221636065751" lon="10.229008563411995"><ele>566.5</ele><time>2026-04-06T11:33:20Z</time></trkpt><trkpt lat="44.5323306865029" lon="10.22913590296973"><ele>563.75</ele><time>2026-04-06T11:33:21Z</time></trkpt><trkpt lat="44.53244440358669" lon="10.229245572451378"><ele>561.0</ele><time>2026-04-06T11:33:22Z</time></trkpt><trkpt lat="44.532546035534374" lon="10.229336696388517"><ele>561.0</ele><time>2026-04-06T11:33:23Z</time></trkpt><trkpt lat="44.53264596079323" lon="10.229426410121977"><ele>561.0</ele><time>2026-04-06T11:33:24Z</time></trkpt><trkpt lat="44.53274052664571" lon="10.229513679705663"><ele>561.0</ele><time>2026-04-06T11:33:25Z</time></trkpt><trkpt lat="44.53284451909685" lon="10.229593655298766"><ele>561.0</ele><time>2026-04-06T11:33:26Z</time></trkpt><trkpt lat="44.5329637625342" lon="10.22968084549606"><ele>558.25</ele><time>2026-04-06T11:33:27Z</time></trkpt><trkpt lat="44.53309704576097" lon="10.22976208778917"><ele>555.5</ele><time>2026-04-06T11:33:28Z</time></trkpt><trkpt lat="44.53321812870068" lon="10.229852811156988"><ele>552.75</ele><time>2026-04-06T11:33:29Z</time></trkpt><trkpt lat="44.533328336372364" lon="10.229933147170733"><ele>550.0</ele><time>2026-04-06T11:33:30Z</time></trkpt><trkpt lat="44.53343769271152" lon="10.23001148948127"><ele>550.0</ele><time>2026-04-06T11:33:31Z</time></trkpt><trkpt lat="44.5335559480369" lon="10.230019845578854"><ele>550.0</ele><time>2026-04-06T11:33:32Z</time></trkpt><trkpt lat="44.53366511752176" lon="10.23020820061664"><ele>550.0</ele><time>2026-04-06T11:33:33Z</time></trkpt><trkpt lat="44.5338026638341" lon="10.230289629469093"><ele>550.0</ele><time>2026-04-06T11:33:34Z</time></trkpt><trkpt lat="44.53393630474269" lon="10.230400503860038"><ele>551.6666666666667</ele><time>2026-04-06T11:33:35Z</time></trkpt><trkpt lat="44.53406532162261" lon="10.230514851635974"><ele>553.3333333333334</ele><time>2026-04-06T11:33:36Z</time></trkpt><trkpt lat="44.5341958159635" lon="10.230635800481057"><ele>555.0</ele><time>2026-04-06T11:33:37Z</time></trkpt><trkpt lat="44.53433188148208" lon="10.23077211767981"><ele>553.6666666666666</ele><time>2026-04-06T11:33:38Z</time></trkpt><trkpt lat="44.534469616385465" lon="10.230919775360434"><ele>552.3333333333333</ele><time>2026-04-06T11:33:39Z</time></trkpt><trkpt lat="44.53460086747273" lon="10.231069719868387"><ele>551.0</ele><time>2026-04-06T11:33:40Z</time></trkpt><trkpt lat="44.534714967517516" lon="10.231224230939246"><ele>551.0</ele><time>2026-04-06T11:33:41Z</time></trkpt><trkpt lat="44.53481459003864" lon="10.231372486978394"><ele>551.0</ele><time>2026-04-06T11:33:42Z</time></trkpt><trkpt lat="44.53492136428422" lon="10.231520179501098"><ele>551.0</ele><time>2026-04-06T11:33:43Z</time></trkpt><trkpt lat="44.53502662391595" lon="10.23167366442336"><ele>551.0</ele><time>2026-04-06T11:33:44Z</time></trkpt><trkpt lat="44.535120634604944" lon="10.231829425904662"><ele>547.25</ele><time>2026-04-06T11:33:45Z</time></trkpt><trkpt lat="44.535205146030215" lon="10.231981777656058"><ele>543.5</ele><time>2026-04-06T11:33:46Z</time></trkpt><trkpt lat="44.53529291654961" lon="10.23214061462851"><ele>539.75</ele><time>2026-04-06T11:33:47Z</time></trkpt><trkpt lat="44.53538563210003" lon="10.23229539304086"><ele>536.0</ele><time>2026-04-06T11:33:48Z</time></trkpt><trkpt lat="44.535476902724376" lon="10.232439937353893"><ele>536.0</ele><time>2026-04-06T11:33:49Z</time></trkpt><trkpt lat="44.535566561550844" lon="10.232579814591356"><ele>536.0</ele><time>2026-04-06T11:33:50Z</time></trkpt><trkpt lat="44.53566699811504" lon="10.232716762359779"><ele>536.0</ele><time>2026-04-06T11:33:51Z</time></trkpt><trkpt lat="44.535787309421565" lon="10.232840799679357"><ele>536.0</ele><time>2026-04-06T11:33:52Z</time></trkpt><trkpt lat="44.53592350027979" lon="10.232959070073525"><ele>536.0</ele><time>2026-04-06T11:33:53Z</time></trkpt><trkpt lat="44.53606156265669" lon="10.233068180054389"><ele>536.0</ele><time>2026-04-06T11:33:54Z</time></trkpt><trkpt lat="44.53619570937131" lon="10.233168933504254"><ele>536.0</ele><time>2026-04-06T11:33:55Z</time></trkpt><trkpt lat="44.53632247919966" lon="10.233251140196781"><ele>532.0</ele><time>2026-04-06T11:33:56Z</time></trkpt><trkpt lat="44.53646565210755" lon="10.233312742323504"><ele>528.0</ele><time>2026-04-06T11:33:57Z</time></trkpt><trkpt lat="44.53663828269278" lon="10.233337811263333"><ele>524.0</ele><time>2026-04-06T11:33:58Z</time></trkpt><trkpt lat="44.53681957062065" lon="10.23338024099813"><ele>524.0</ele><time>2026-04-06T11:33:59Z</time></trkpt><trkpt lat="44.53699450887214" lon="10.233406991997377"><ele>524.0</ele><time>2026-04-06T11:34:00Z</time></trkpt><trkpt lat="44.537169844239266" lon="10.233432053147059"><ele>524.0</ele><time>2026-04-06T11:34:01Z</time></trkpt><trkpt lat="44.53733267751924" lon="10.233453872926741"><ele>522.6666666666666</ele><time>2026-04-06T11:34:02Z</time></trkpt><trkpt lat="44.53749585640031" lon="10.233450820159868"><ele>521.3333333333334</ele><time>2026-04-06T11:34:03Z</time></trkpt><trkpt lat="44.53765197052119" lon="10.233471441990705"><ele>520.0</ele><time>2026-04-06T11:34:04Z</time></trkpt><trkpt lat="44.53780479545676" lon="10.233474645112032"><ele>519.25</ele><time>2026-04-06T11:34:05Z</time></trkpt><trkpt lat="44.53795400934287" lon="10.233476197706326"><ele>518.5</ele><time>2026-04-06T11:34:06Z</time></trkpt><trkpt lat="44.53809997258951" lon="10.233486560825854"><ele>517.75</ele><time>2026-04-06T11:34:07Z</time></trkpt><trkpt lat="44.53824219281586" lon="10.233526285195953"><ele>517.0</ele><time>2026-04-06T11:34:08Z</time></trkpt><trkpt lat="44.53839452759626" lon="10.233476102045207"><ele>517.0</ele><time>2026-04-06T11:34:09Z</time></trkpt><trkpt lat="44.53854285766655" lon="10.23340579789937"><ele>517.0</ele><time>2026-04-06T11:34:10Z</time></trkpt><trkpt lat="44.53869829512481" lon="10.233304804274939"><ele>517.0</ele><time>2026-04-06T11:34:11Z</time></trkpt><trkpt lat="44.5388438852786" lon="10.233231478470122"><ele>512.6666666666667</ele><time>2026-04-06T11:34:12Z</time></trkpt><trkpt lat="44.538998579776994" lon="10.233217969121814"><ele>508.33333333333337</ele><time>2026-04-06T11:34:13Z</time></trkpt><trkpt lat="44.53916081374854" lon="10.233187865374482"><ele>504.0</ele><time>2026-04-06T11:34:14Z</time></trkpt><trkpt lat="44.53932779031719" lon="10.233225093195129"><ele>504.0</ele><time>2026-04-06T11:34:15Z</time></trkpt><trkpt lat="44.53950480450541" lon="10.233308907762899"><ele>504.0</ele><time>2026-04-06T11:34:16Z</time></trkpt><trkpt lat="44.53968848389363" lon="10.233410825631577"><ele>504.0</ele><time>2026-04-06T11:34:17Z</time></trkpt><trkpt lat="44.53987754475562" lon="10.233499630305477"><ele>502.66666666666663</ele><time>2026-04-06T11:34:18Z</time></trkpt><trkpt lat="44.54002698865851" lon="10.233562329055585"><ele>501.3333333333333</ele><time>2026-04-06T11:34:19Z</time></trkpt><trkpt lat="44.54018806725798" lon="10.233613972051408"><ele>500.0</ele><time>2026-04-06T11:34:20Z</time></trkpt><trkpt lat="44.540348225056576" lon="10.233670132451943"><ele>500.0</ele><time>2026-04-06T11:34:21Z</time></trkpt><trkpt lat="44.540507058112304" lon="10.23371235987442"><ele>500.0</ele><time>2026-04-06T11:34:22Z</time></trkpt><trkpt lat="44.54066900400248" lon="10.233729852966688"><ele>500.0</ele><time>2026-04-06T11:34:23Z</time></trkpt><trkpt lat="44.54083850448911" lon="10.233707957426644"><ele>500.0</ele><time>2026-04-06T11:34:24Z</time></trkpt><trkpt lat="44.541022497474785" lon="10.233666336844884"><ele>500.0</ele><time>2026-04-06T11:34:25Z</time></trkpt><trkpt lat="44.54120339028386" lon="10.233617711132673"><ele>500.0</ele><time>2026-04-06T11:34:26Z</time></trkpt><trkpt lat="44.541376984028226" lon="10.233555523241789"><ele>498.0</ele><time>2026-04-06T11:34:27Z</time></trkpt><trkpt lat="44.54154083131007" lon="10.23349830549486"><ele>496.0</ele><time>2026-04-06T11:34:28Z</time></trkpt><trkpt lat="44.54169581827558" lon="10.233435221554835"><ele>494.0</ele><time>2026-04-06T11:34:29Z</time></trkpt><trkpt lat="44.541850578335556" lon="10.233375181893395"><ele>494.0</ele><time>2026-04-06T11:34:30Z</time></trkpt><trkpt lat="44.54200551272612" lon="10.233325054556037"><ele>494.0</ele><time>2026-04-06T11:34:31Z</time></trkpt><trkpt lat="44.542160388551544" lon="10.233274190833356"><ele>494.0</ele><time>2026-04-06T11:34:32Z</time></trkpt><trkpt lat="44.54232206707708" lon="10.23326841025916"><ele>492.3333333333333</ele><time>2026-04-06T11:34:33Z</time></trkpt><trkpt lat="44.54248213589176" lon="10.233291634738823"><ele>490.66666666666663</ele><time>2026-04-06T11:34:34Z</time></trkpt><trkpt lat="44.54264765460444" lon="10.233340907562505"><ele>489.0</ele><time>2026-04-06T11:34:35Z</time></trkpt><trkpt lat="44.542822729530535" lon="10.233435298836888"><ele>490.33333333333337</ele><time>2026-04-06T11:34:36Z</time></trkpt><trkpt lat="44.542989178507256" lon="10.233562244635552"><ele>491.6666666666667</ele><time>2026-04-06T11:34:37Z</time></trkpt><trkpt lat="44.54311526898616" lon="10.233741878946566"><ele>493.0</ele><time>2026-04-06T11:34:38Z</time></trkpt><trkpt lat="44.543257518830465" lon="10.233891580447041"><ele>489.6666666666667</ele><time>2026-04-06T11:34:39Z</time></trkpt><trkpt lat="44.54335751955291" lon="10.234066190035419"><ele>486.33333333333337</ele><time>2026-04-06T11:34:40Z</time></trkpt><trkpt lat="44.543462372406886" lon="10.234215067745929"><ele>483.0</ele><time>2026-04-06T11:34:41Z</time></trkpt><trkpt lat="44.54358284429616" lon="10.234343253233156"><ele>485.0</ele><time>2026-04-06T11:34:42Z</time></trkpt><trkpt lat="44.543721486333475" lon="10.23446151447937"><ele>487.0</ele><time>2026-04-06T11:34:43Z</time></trkpt><trkpt lat="44.54386218145969" lon="10.234558407786396"><ele>489.0</ele><time>2026-04-06T11:34:44Z</time></trkpt><trkpt lat="44.54400227089858" lon="10.2346372507977"><ele>489.0</ele><time>2026-04-06T11:34:45Z</time></trkpt><trkpt lat="44.54414577615091" lon="10.234686551420172"><ele>489.0</ele><time>2026-04-06T11:34:46Z</time></trkpt><trkpt lat="44.54429506835691" lon="10.234693822757938"><ele>489.0</ele><time>2026-04-06T11:34:47Z</time></trkpt><trkpt lat="44.54443374509285" lon="10.234664112729408"><ele>489.0</ele><time>2026-04-06T11:34:48Z</time></trkpt><trkpt lat="44.544584579601946" lon="10.234521548193095"><ele>485.0</ele><time>2026-04-06T11:34:49Z</time></trkpt><trkpt lat="44.54472522387814" lon="10.234380121135901"><ele>481.0</ele><time>2026-04-06T11:34:50Z</time></trkpt><trkpt lat="44.54485147559463" lon="10.23421255030192"><ele>477.0</ele><time>2026-04-06T11:34:51Z</time></trkpt><trkpt lat="44.54499364171517" lon="10.234075174129803"><ele>479.0</ele><time>2026-04-06T11:34:52Z</time></trkpt><trkpt lat="44.54512815179845" lon="10.233965712615435"><ele>481.0</ele><time>2026-04-06T11:34:53Z</time></trkpt><trkpt lat="44.54528510843619" lon="10.23391059197869"><ele>483.0</ele><time>2026-04-06T11:34:54Z</time></trkpt><trkpt lat="44.54545111556078" lon="10.233908968738838"><ele>483.0</ele><time>2026-04-06T11:34:55Z</time></trkpt><trkpt lat="44.54561299285641" lon="10.233895380241393"><ele>483.0</ele><time>2026-04-06T11:34:56Z</time></trkpt><trkpt lat="44.54576369267552" lon="10.233900654158338"><ele>483.0</ele><time>2026-04-06T11:34:57Z</time></trkpt><trkpt lat="44.54589503191827" lon="10.233847828507402"><ele>483.0</ele><time>2026-04-06T11:34:58Z</time></trkpt><trkpt lat="44.54602111732288" lon="10.233739301204544"><ele>483.0</ele><time>2026-04-06T11:34:59Z</time></trkpt><trkpt lat="44.54613830800983" lon="10.233581979442617"><ele>483.0</ele><time>2026-04-06T11:35:00Z</time></trkpt><trkpt lat="44.546262910061834" lon="10.233421051571082"><ele>476.66666666666663</ele><time>2026-04-06T11:35:01Z</time></trkpt><trkpt lat="44.54638027885298" lon="10.23328028732453"><ele>470.3333333333333</ele><time>2026-04-06T11:35:02Z</time></trkpt><trkpt lat="44.54651462576665" lon="10.233179305687239"><ele>464.0</ele><time>2026-04-06T11:35:03Z</time></trkpt><trkpt lat="44.54665599269247" lon="10.233120038116823"><ele>464.0</ele><time>2026-04-06T11:35:04Z</time></trkpt><trkpt lat="44.546810200960046" lon="10.233115019329441"><ele>464.0</ele><time>2026-04-06T11:35:05Z</time></trkpt><trkpt lat="44.54697794192211" lon="10.233124963651495"><ele>464.0</ele><time>2026-04-06T11:35:06Z</time></trkpt><trkpt lat="44.54713619354184" lon="10.233219802062177"><ele>462.3333333333333</ele><time>2026-04-06T11:35:07Z</time></trkpt><trkpt lat="44.547278240877404" lon="10.233360421534908"><ele>460.66666666666663</ele><time>2026-04-06T11:35:08Z</time></trkpt><trkpt lat="44.547426103734466" lon="10.233518730090964"><ele>459.0</ele><time>2026-04-06T11:35:09Z</time></trkpt><trkpt lat="44.54756196023454" lon="10.233676808995966"><ele>459.0</ele><time>2026-04-06T11:35:10Z</time></trkpt><trkpt lat="44.54769498182216" lon="10.233831564088266"><ele>459.0</ele><time>2026-04-06T11:35:11Z</time></trkpt><trkpt lat="44.547811631535176" lon="10.23398676788339"><ele>459.0</ele><time>2026-04-06T11:35:12Z</time></trkpt><trkpt lat="44.547930100944875" lon="10.234145915352524"><ele>454.66666666666663</ele><time>2026-04-06T11:35:13Z</time></trkpt><trkpt lat="44.548043722615034" lon="10.234284525123716"><ele>450.3333333333333</ele><time>2026-04-06T11:35:14Z</time></trkpt><trkpt lat="44.54816610417381" lon="10.23442450512901"><ele>446.0</ele><time>2026-04-06T11:35:15Z</time></trkpt><trkpt lat="44.54831686937097" lon="10.234561126027605"><ele>446.0</ele><time>2026-04-06T11:35:16Z</time></trkpt><trkpt lat="44.54850315755082" lon="10.234680549809987"><ele>446.0</ele><time>2026-04-06T11:35:17Z</time></trkpt><trkpt lat="44.54870328004484" lon="10.234774010863484"><ele>446.0</ele><time>2026-04-06T11:35:18Z</time></trkpt><trkpt lat="44.548899312914784" lon="10.234850632356194"><ele>442.3333333333333</ele><time>2026-04-06T11:35:19Z</time></trkpt><trkpt lat="44.5490621677178" lon="10.234925341194444"><ele>438.66666666666663</ele><time>2026-04-06T11:35:20Z</time></trkpt><trkpt lat="44.54921774367688" lon="10.23504002368137"><ele>435.0</ele><time>2026-04-06T11:35:21Z</time></trkpt><trkpt lat="44.54935473761916" lon="10.235189515254485"><ele>435.0</ele><time>2026-04-06T11:35:22Z</time></trkpt><trkpt lat="44.5494907229153" lon="10.235364724475712"><ele>435.0</ele><time>2026-04-06T11:35:23Z</time></trkpt><trkpt lat="44.54961587058272" lon="10.235532584506792"><ele>435.0</ele><time>2026-04-06T11:35:24Z</time></trkpt><trkpt lat="44.54973731884324" lon="10.235677219686725"><ele>431.66666666666663</ele><time>2026-04-06T11:35:25Z</time></trkpt><trkpt lat="44.549861256514674" lon="10.235806113455384"><ele>428.3333333333333</ele><time>2026-04-06T11:35:26Z</time></trkpt><trkpt lat="44.54999673763907" lon="10.235913431358208"><ele>425.0</ele><time>2026-04-06T11:35:27Z</time></trkpt><trkpt lat="44.55014907553252" lon="10.236005517323006"><ele>425.0</ele><time>2026-04-06T11:35:28Z</time></trkpt><trkpt lat="44.550313042755015" lon="10.236086316812187"><ele>425.0</ele><time>2026-04-06T11:35:29Z</time></trkpt><trkpt lat="44.550476059311485" lon="10.236132783834808"><ele>425.0</ele><time>2026-04-06T11:35:30Z</time></trkpt><trkpt lat="44.550649292510826" lon="10.23614769457575"><ele>422.66666666666663</ele><time>2026-04-06T11:35:31Z</time></trkpt><trkpt lat="44.55081822954423" lon="10.236140223249707"><ele>420.33333333333337</ele><time>2026-04-06T11:35:32Z</time></trkpt><trkpt lat="44.550978404064566" lon="10.236111401224658"><ele>418.0</ele><time>2026-04-06T11:35:33Z</time></trkpt><trkpt lat="44.55113784294327" lon="10.23605427706401"><ele>416.33333333333337</ele><time>2026-04-06T11:35:34Z</time></trkpt><trkpt lat="44.55131700595434" lon="10.23598085861047"><ele>414.66666666666663</ele><time>2026-04-06T11:35:35Z</time></trkpt><trkpt lat="44.551488397364835" lon="10.235828927015943"><ele>413.0</ele><time>2026-04-06T11:35:36Z</time></trkpt><trkpt lat="44.55165562180092" lon="10.235673096800973"><ele>413.3333333333333</ele><time>2026-04-06T11:35:37Z</time></trkpt><trkpt lat="44.551824545143084" lon="10.235534265119036"><ele>413.66666666666663</ele><time>2026-04-06T11:35:38Z</time></trkpt><trkpt lat="44.55197679318978" lon="10.235393192897074"><ele>414.0</ele><time>2026-04-06T11:35:39Z</time></trkpt><trkpt lat="44.55211208177978" lon="10.235249435962885"><ele>410.0</ele><time>2026-04-06T11:35:40Z</time></trkpt><trkpt lat="44.55221229866905" lon="10.235075768356092"><ele>406.0</ele><time>2026-04-06T11:35:41Z</time></trkpt><trkpt lat="44.552307269996746" lon="10.23489935463411"><ele>402.0</ele><time>2026-04-06T11:35:42Z</time></trkpt><trkpt lat="44.552385692222735" lon="10.234699585783169"><ele>401.66666666666663</ele><time>2026-04-06T11:35:43Z</time></trkpt><trkpt lat="44.55243890666405" lon="10.234469197573175"><ele>401.3333333333333</ele><time>2026-04-06T11:35:44Z</time></trkpt><trkpt lat="44.552467872992324" lon="10.234219562522307"><ele>401.0</ele><time>2026-04-06T11:35:45Z</time></trkpt><trkpt lat="44.55247691998209" lon="10.233949628964897"><ele>400.66666666666663</ele><time>2026-04-06T11:35:46Z</time></trkpt><trkpt lat="44.55249667774955" lon="10.233692190672741"><ele>400.33333333333337</ele><time>2026-04-06T11:35:47Z</time></trkpt><trkpt lat="44.552500277939345" lon="10.233450403716422"><ele>400.0</ele><time>2026-04-06T11:35:48Z</time></trkpt><trkpt lat="44.55250814053994" lon="10.233206240481284"><ele>400.0</ele><time>2026-04-06T11:35:49Z</time></trkpt><trkpt lat="44.55253739812904" lon="10.232981020639054"><ele>400.0</ele><time>2026-04-06T11:35:50Z</time></trkpt><trkpt lat="44.55258673836106" lon="10.232763537627976"><ele>400.0</ele><time>2026-04-06T11:35:51Z</time></trkpt><trkpt lat="44.552668861056326" lon="10.23257350349905"><ele>400.0</ele><time>2026-04-06T11:35:52Z</time></trkpt><trkpt lat="44.55276741566068" lon="10.232392397628297"><ele>400.0</ele><time>2026-04-06T11:35:53Z</time></trkpt><trkpt lat="44.55289105228632" lon="10.232228542319374"><ele>400.0</ele><time>2026-04-06T11:35:54Z</time></trkpt><trkpt lat="44.553031207210154" lon="10.232094208885227"><ele>397.33333333333337</ele><time>2026-04-06T11:35:55Z</time></trkpt><trkpt lat="44.55318499634703" lon="10.2319954531752"><ele>394.66666666666663</ele><time>2026-04-06T11:35:56Z</time></trkpt><trkpt lat="44.55337181249635" lon="10.231907989413086"><ele>392.0</ele><time>2026-04-06T11:35:57Z</time></trkpt><trkpt lat="44.55357554330219" lon="10.231829308081702"><ele>389.0</ele><time>2026-04-06T11:35:58Z</time></trkpt><trkpt lat="44.55379241797336" lon="10.231751406714686"><ele>386.0</ele><time>2026-04-06T11:35:59Z</time></trkpt><trkpt lat="44.554012487753276" lon="10.231673261307602"><ele>386.0</ele><time>2026-04-06T11:36:00Z</time></trkpt><trkpt lat="44.554213857483035" lon="10.231601756173893"><ele>386.0</ele><time>2026-04-06T11:36:01Z</time></trkpt><trkpt lat="44.55441629482133" lon="10.231529024872417"><ele>386.0</ele><time>2026-04-06T11:36:02Z</time></trkpt><trkpt lat="44.55460525111278" lon="10.231460386475163"><ele>385.3333333333333</ele><time>2026-04-06T11:36:03Z</time></trkpt><trkpt lat="44.55479564548856" lon="10.231390016484132"><ele>384.66666666666663</ele><time>2026-04-06T11:36:04Z</time></trkpt><trkpt lat="44.55498028260411" lon="10.23132085062003"><ele>384.0</ele><time>2026-04-06T11:36:05Z</time></trkpt><trkpt lat="44.55515796640533" lon="10.231254289494883"><ele>384.0</ele><time>2026-04-06T11:36:06Z</time></trkpt><trkpt lat="44.55533313294388" lon="10.231189043623791"><ele>384.0</ele><time>2026-04-06T11:36:07Z</time></trkpt><trkpt lat="44.5554883662139" lon="10.231140278255166"><ele>384.0</ele><time>2026-04-06T11:36:08Z</time></trkpt><trkpt lat="44.55563273618687" lon="10.23112488151747"><ele>381.6666666666667</ele><time>2026-04-06T11:36:09Z</time></trkpt><trkpt lat="44.55578529548048" lon="10.231158165511015"><ele>379.33333333333337</ele><time>2026-04-06T11:36:10Z</time></trkpt><trkpt lat="44.55593418488702" lon="10.23122044098289"><ele>377.0</ele><time>2026-04-06T11:36:11Z</time></trkpt><trkpt lat="44.55607993463836" lon="10.231264203426342"><ele>376.0</ele><time>2026-04-06T11:36:12Z</time></trkpt><trkpt lat="44.55622235063648" lon="10.231295926693855"><ele>375.0</ele><time>2026-04-06T11:36:13Z</time></trkpt><trkpt lat="44.55638243470849" lon="10.231283640011355"><ele>374.0</ele><time>2026-04-06T11:36:14Z</time></trkpt><trkpt lat="44.55654839473755" lon="10.23123793064389"><ele>374.0</ele><time>2026-04-06T11:36:15Z</time></trkpt><trkpt lat="44.55673051462899" lon="10.231187385131381"><ele>374.0</ele><time>2026-04-06T11:36:16Z</time></trkpt><trkpt lat="44.556898370897876" lon="10.23111087032413"><ele>374.0</ele><time>2026-04-06T11:36:17Z</time></trkpt><trkpt lat="44.557053694390646" lon="10.2310336426787"><ele>372.33333333333337</ele><time>2026-04-06T11:36:18Z</time></trkpt><trkpt lat="44.55720559915444" lon="10.23095637632475"><ele>370.6666666666667</ele><time>2026-04-06T11:36:19Z</time></trkpt><trkpt lat="44.55735503135309" lon="10.230879384114118"><ele>369.0</ele><time>2026-04-06T11:36:20Z</time></trkpt><trkpt lat="44.557491858185344" lon="10.230809083642294"><ele>369.0</ele><time>2026-04-06T11:36:21Z</time></trkpt><trkpt lat="44.55763501443008" lon="10.230735682561553"><ele>369.0</ele><time>2026-04-06T11:36:22Z</time></trkpt><trkpt lat="44.557767394010106" lon="10.230667805210404"><ele>369.0</ele><time>2026-04-06T11:36:23Z</time></trkpt><trkpt lat="44.55790098302095" lon="10.230596005549494"><ele>369.0</ele><time>2026-04-06T11:36:24Z</time></trkpt><trkpt lat="44.558031659155304" lon="10.230489773745077"><ele>369.0</ele><time>2026-04-06T11:36:25Z</time></trkpt><trkpt lat="44.558138045892875" lon="10.230314712375609"><ele>369.0</ele><time>2026-04-06T11:36:26Z</time></trkpt><trkpt lat="44.55827213011089" lon="10.23014726526311"><ele>369.0</ele><time>2026-04-06T11:36:27Z</time></trkpt><trkpt lat="44.55838157735571" lon="10.229987342604634"><ele>369.0</ele><time>2026-04-06T11:36:28Z</time></trkpt><trkpt lat="44.55849108767472" lon="10.229836907915033"><ele>369.0</ele><time>2026-04-06T11:36:29Z</time></trkpt><trkpt lat="44.55860165465149" lon="10.229707567802059"><ele>369.0</ele><time>2026-04-06T11:36:30Z</time></trkpt><trkpt lat="44.558722290216956" lon="10.229602953347536"><ele>369.0</ele><time>2026-04-06T11:36:31Z</time></trkpt><trkpt lat="44.55885320603425" lon="10.229532378183995"><ele>367.25</ele><time>2026-04-06T11:36:32Z</time></trkpt><trkpt lat="44.55898822913392" lon="10.22948906983353"><ele>365.5</ele><time>2026-04-06T11:36:33Z</time></trkpt><trkpt lat="44.55912004391562" lon="10.229457918243597"><ele>363.75</ele><time>2026-04-06T11:36:34Z</time></trkpt><trkpt lat="44.55925496894744" lon="10.229423634645036"><ele>362.0</ele><time>2026-04-06T11:36:35Z</time></trkpt><trkpt lat="44.55939443612599" lon="10.229454555387845"><ele>362.0</ele><time>2026-04-06T11:36:36Z</time></trkpt><trkpt lat="44.559530644141" lon="10.229511518676897"><ele>362.0</ele><time>2026-04-06T11:36:37Z</time></trkpt><trkpt lat="44.559640897118435" lon="10.229563463913825"><ele>362.0</ele><time>2026-04-06T11:36:38Z</time></trkpt><trkpt lat="44.55973605278192" lon="10.229603973654573"><ele>362.0</ele><time>2026-04-06T11:36:39Z</time></trkpt><trkpt lat="44.55981954935271" lon="10.229631933875067"><ele>362.0</ele><time>2026-04-06T11:36:40Z</time></trkpt><trkpt lat="44.559898110282646" lon="10.229649318513111"><ele>361.6</ele><time>2026-04-06T11:36:41Z</time></trkpt><trkpt lat="44.55997296116882" lon="10.229647229884177"><ele>361.20000000000005</ele><time>2026-04-06T11:36:42Z</time></trkpt><trkpt lat="44.56004427932079" lon="10.229632935462105"><ele>360.8</ele><time>2026-04-06T11:36:43Z</time></trkpt><trkpt lat="44.560133404412085" lon="10.229636778071992"><ele>360.4</ele><time>2026-04-06T11:36:44Z</time></trkpt><trkpt lat="44.56024338742405" lon="10.229599573650628"><ele>360.0</ele><time>2026-04-06T11:36:45Z</time></trkpt><trkpt lat="44.56036675573092" lon="10.229540708217277"><ele>357.5</ele><time>2026-04-06T11:36:46Z</time></trkpt><trkpt lat="44.56050006296016" lon="10.229464408787301"><ele>355.0</ele><time>2026-04-06T11:36:47Z</time></trkpt><trkpt lat="44.560627375517434" lon="10.229388582285873"><ele>352.5</ele><time>2026-04-06T11:36:48Z</time></trkpt><trkpt lat="44.56075562903802" lon="10.229307994756988"><ele>350.0</ele><time>2026-04-06T11:36:49Z</time></trkpt><trkpt lat="44.56088024363543" lon="10.229226928993546"><ele>350.0</ele><time>2026-04-06T11:36:50Z</time></trkpt><trkpt lat="44.560996953336826" lon="10.2291383194022"><ele>350.0</ele><time>2026-04-06T11:36:51Z</time></trkpt><trkpt lat="44.56110234807547" lon="10.229018557268734"><ele>350.0</ele><time>2026-04-06T11:36:52Z</time></trkpt><trkpt lat="44.56120127462226" lon="10.228871384716427"><ele>350.0</ele><time>2026-04-06T11:36:53Z</time></trkpt><trkpt lat="44.56129730507755" lon="10.22869835160256"><ele>348.0</ele><time>2026-04-06T11:36:54Z</time></trkpt><trkpt lat="44.56138383128163" lon="10.228533855352596"><ele>346.0</ele><time>2026-04-06T11:36:55Z</time></trkpt><trkpt lat="44.56145434760772" lon="10.228380346927535"><ele>344.0</ele><time>2026-04-06T11:36:56Z</time></trkpt><trkpt lat="44.56151589692987" lon="10.228222684030953"><ele>342.0</ele><time>2026-04-06T11:36:57Z</time></trkpt><trkpt lat="44.561559715867496" lon="10.228049565947671"><ele>341.75</ele><time>2026-04-06T11:36:58Z</time></trkpt><trkpt lat="44.56165032989551" lon="10.227926567162294"><ele>341.5</ele><time>2026-04-06T11:36:59Z</time></trkpt><trkpt lat="44.56176462987341" lon="10.227847113128405"><ele>341.25</ele><time>2026-04-06T11:37:00Z</time></trkpt><trkpt lat="44.561876150384236" lon="10.227782958314865"><ele>341.0</ele><time>2026-04-06T11:37:01Z</time></trkpt><trkpt lat="44.56199900394779" lon="10.227715716584006"><ele>340.0</ele><time>2026-04-06T11:37:02Z</time></trkpt><trkpt lat="44.562115306898434" lon="10.227648591172201"><ele>339.0</ele><time>2026-04-06T11:37:03Z</time></trkpt><trkpt lat="44.56224803593208" lon="10.227606221402175"><ele>338.0</ele><time>2026-04-06T11:37:04Z</time></trkpt><trkpt lat="44.56237534141567" lon="10.227529451444699"><ele>337.0</ele><time>2026-04-06T11:37:05Z</time></trkpt><trkpt lat="44.56250687679535" lon="10.227450128978047"><ele>337.0</ele><time>2026-04-06T11:37:06Z</time></trkpt><trkpt lat="44.5626378138641" lon="10.227371167398573"><ele>337.0</ele><time>2026-04-06T11:37:07Z</time></trkpt><trkpt lat="44.5627724898106" lon="10.22728995097719"><ele>337.0</ele><time>2026-04-06T11:37:08Z</time></trkpt><trkpt lat="44.56290936039984" lon="10.227207674345776"><ele>337.0</ele><time>2026-04-06T11:37:09Z</time></trkpt><trkpt lat="44.56304927193325" lon="10.227124548594805"><ele>336.75</ele><time>2026-04-06T11:37:10Z</time></trkpt><trkpt lat="44.56318686415586" lon="10.227040730669719"><ele>336.5</ele><time>2026-04-06T11:37:11Z</time></trkpt><trkpt lat="44.563324287085905" lon="10.226957234064496"><ele>336.25</ele><time>2026-04-06T11:37:12Z</time></trkpt><trkpt lat="44.56346092126515" lon="10.226874900591186"><ele>336.0</ele><time>2026-04-06T11:37:13Z</time></trkpt><trkpt lat="44.563592780108195" lon="10.226795444639976"><ele>336.75</ele><time>2026-04-06T11:37:14Z</time></trkpt><trkpt lat="44.56371618031579" lon="10.226721085761586"><ele>337.5</ele><time>2026-04-06T11:37:15Z</time></trkpt><trkpt lat="44.5638423958223" lon="10.226645077483358"><ele>338.25</ele><time>2026-04-06T11:37:16Z</time></trkpt><trkpt lat="44.56397101386124" lon="10.226567758618234"><ele>339.0</ele><time>2026-04-06T11:37:17Z</time></trkpt><trkpt lat="44.56409654937796" lon="10.226492356008848"><ele>340.0</ele><time>2026-04-06T11:37:18Z</time></trkpt><trkpt lat="44.564216319130175" lon="10.226421194862455"><ele>341.0</ele><time>2026-04-06T11:37:19Z</time></trkpt><trkpt lat="44.56432182934815" lon="10.226366114077381"><ele>342.0</ele><time>2026-04-06T11:37:20Z</time></trkpt><trkpt lat="44.56442493519036" lon="10.226343597883657"><ele>343.0</ele><time>2026-04-06T11:37:21Z</time></trkpt><trkpt lat="44.56453261076787" lon="10.22634835713573"><ele>344.75</ele><time>2026-04-06T11:37:22Z</time></trkpt><trkpt lat="44.56462166186787" lon="10.226440616513148"><ele>346.5</ele><time>2026-04-06T11:37:23Z</time></trkpt><trkpt lat="44.564682683032345" lon="10.226575816971897"><ele>348.25</ele><time>2026-04-06T11:37:24Z</time></trkpt><trkpt lat="44.564724509571256" lon="10.226738789303438"><ele>350.0</ele><time>2026-04-06T11:37:25Z</time></trkpt><trkpt lat="44.564788461764095" lon="10.226879428203825"><ele>350.0</ele><time>2026-04-06T11:37:26Z</time></trkpt><trkpt lat="44.5648748686769" lon="10.226988009735727"><ele>350.0</ele><time>2026-04-06T11:37:27Z</time></trkpt><trkpt lat="44.564977190507996" lon="10.22706731676081"><ele>350.0</ele><time>2026-04-06T11:37:28Z</time></trkpt><trkpt lat="44.56509276581042" lon="10.227152786448817"><ele>350.0</ele><time>2026-04-06T11:37:29Z</time></trkpt><trkpt lat="44.56521237638511" lon="10.227231453747716"><ele>350.1666666666667</ele><time>2026-04-06T11:37:30Z</time></trkpt><trkpt lat="44.56530255740069" lon="10.227333878161629"><ele>350.33333333333337</ele><time>2026-04-06T11:37:31Z</time></trkpt><trkpt lat="44.565377836857095" lon="10.227404442319774"><ele>350.5</ele><time>2026-04-06T11:37:32Z</time></trkpt><trkpt lat="44.56542905646226" lon="10.22746425284481"><ele>350.6666666666667</ele><time>2026-04-06T11:37:33Z</time></trkpt><trkpt lat="44.56548653883057" lon="10.227545327163158"><ele>350.8333333333333</ele><time>2026-04-06T11:37:35Z</time></trkpt><trkpt lat="44.56555174211689" lon="10.22762760230274"><ele>351.0</ele><time>2026-04-06T11:37:37Z</time></trkpt><trkpt lat="44.565599882700354" lon="10.227686651106493"><ele>351.0</ele><time>2026-04-06T11:37:38Z</time></trkpt><trkpt lat="44.56565748590348" lon="10.22775707689614"><ele>351.0</ele><time>2026-04-06T11:37:39Z</time></trkpt><trkpt lat="44.56572747766705" lon="10.227848160913783"><ele>351.0</ele><time>2026-04-06T11:37:40Z</time></trkpt><trkpt lat="44.565809171115376" lon="10.22794932754089"><ele>351.0</ele><time>2026-04-06T11:37:41Z</time></trkpt><trkpt lat="44.56587787721947" lon="10.228033849008298"><ele>351.0</ele><time>2026-04-06T11:37:42Z</time></trkpt><trkpt lat="44.56594276521404" lon="10.228113115548764"><ele>351.8571428571429</ele><time>2026-04-06T11:37:43Z</time></trkpt><trkpt lat="44.566004241666434" lon="10.228188677316803"><ele>352.7142857142857</ele><time>2026-04-06T11:37:44Z</time></trkpt><trkpt lat="44.56606223763101" lon="10.228261125879682"><ele>353.57142857142856</ele><time>2026-04-06T11:37:45Z</time></trkpt><trkpt lat="44.56611693725805" lon="10.228331886839152"><ele>354.42857142857144</ele><time>2026-04-06T11:37:46Z</time></trkpt><trkpt lat="44.56616889893054" lon="10.228399711589443"><ele>355.2857142857143</ele><time>2026-04-06T11:37:47Z</time></trkpt><trkpt lat="44.56621651080509" lon="10.22847168115492"><ele>356.14285714285717</ele><time>2026-04-06T11:37:48Z</time></trkpt><trkpt lat="44.56626190738216" lon="10.22854310470615"><ele>357.0</ele><time>2026-04-06T11:37:49Z</time></trkpt><trkpt lat="44.5663334811901" lon="10.228685564804145"><ele>357.0</ele><time>2026-04-06T11:37:51Z</time></trkpt><trkpt lat="44.566375468065125" lon="10.228761148486141"><ele>357.0</ele><time>2026-04-06T11:37:52Z</time></trkpt><trkpt lat="44.56641924663995" lon="10.228843905368977"><ele>357.0</ele><time>2026-04-06T11:37:53Z</time></trkpt><trkpt lat="44.566465086012485" lon="10.228932140858001"><ele>357.0</ele><time>2026-04-06T11:37:54Z</time></trkpt><trkpt lat="44.56650329390031" lon="10.229015900231067"><ele>357.0</ele><time>2026-04-06T11:37:55Z</time></trkpt><trkpt lat="44.5665602932724" lon="10.229144138143528"><ele>357.0</ele><time>2026-04-06T11:37:57Z</time></trkpt><trkpt lat="44.56659895822603" lon="10.229231155266493"><ele>355.0</ele><time>2026-04-06T11:38:00Z</time></trkpt><trkpt lat="44.56667287757758" lon="10.229318381454801"><ele>353.0</ele><time>2026-04-06T11:38:22Z</time></trkpt><trkpt lat="44.56678582498241" lon="10.229316755133977"><ele>351.0</ele><time>2026-04-06T11:38:24Z</time></trkpt><trkpt lat="44.56682432243159" lon="10.2291886377391"><ele>349.0</ele><time>2026-04-06T11:38:26Z</time></trkpt><trkpt lat="44.56679913876149" lon="10.229101307558562"><ele>347.0</ele><time>2026-04-06T11:38:27Z</time></trkpt><trkpt lat="44.56674241899417" lon="10.229030662786931"><ele>349.0</ele><time>2026-04-06T11:38:28Z</time></trkpt><trkpt lat="44.566662756923506" lon="10.228970328769675"><ele>351.0</ele><time>2026-04-06T11:38:29Z</time></trkpt><trkpt lat="44.566566246257445" lon="10.22889690686616"><ele>353.0</ele><time>2026-04-06T11:38:30Z</time></trkpt><trkpt lat="44.56648210971245" lon="10.228774407213885"><ele>355.0</ele><time>2026-04-06T11:38:31Z</time></trkpt><trkpt lat="44.56641617492961" lon="10.228641763128087"><ele>357.0</ele><time>2026-04-06T11:38:32Z</time></trkpt><trkpt lat="44.56636628473513" lon="10.22852554509467"><ele>357.0</ele><time>2026-04-06T11:38:33Z</time></trkpt><trkpt lat="44.5663236836655" lon="10.228422142867743"><ele>357.0</ele><time>2026-04-06T11:38:34Z</time></trkpt><trkpt lat="44.56629609199803" lon="10.228321574022653"><ele>357.0</ele><time>2026-04-06T11:38:35Z</time></trkpt><trkpt lat="44.56628093623334" lon="10.22822103890543"><ele>357.0</ele><time>2026-04-06T11:38:36Z</time></trkpt><trkpt lat="44.56627198949037" lon="10.228079075126914"><ele>357.0</ele><time>2026-04-06T11:38:37Z</time></trkpt><trkpt lat="44.56627482780819" lon="10.227898825239002"><ele>359.0</ele><time>2026-04-06T11:38:38Z</time></trkpt><trkpt lat="44.56628572064246" lon="10.22768773882501"><ele>361.0</ele><time>2026-04-06T11:38:39Z</time></trkpt><trkpt lat="44.56629210216586" lon="10.227467686771387"><ele>363.0</ele><time>2026-04-06T11:38:40Z</time></trkpt><trkpt lat="44.566286238925905" lon="10.227286032951156"><ele>365.0</ele><time>2026-04-06T11:38:41Z</time></trkpt><trkpt lat="44.5662538376049" lon="10.227125067294928"><ele>363.0</ele><time>2026-04-06T11:38:42Z</time></trkpt><trkpt lat="44.566190662172424" lon="10.226949060330966"><ele>361.0</ele><time>2026-04-06T11:38:43Z</time></trkpt><trkpt lat="44.566070512644956" lon="10.22678753648242"><ele>359.0</ele><time>2026-04-06T11:38:44Z</time></trkpt><trkpt lat="44.56593797780856" lon="10.226609343521242"><ele>362.6666666666667</ele><time>2026-04-06T11:38:45Z</time></trkpt><trkpt lat="44.56578801114693" lon="10.226407713581958"><ele>366.3333333333333</ele><time>2026-04-06T11:38:46Z</time></trkpt><trkpt lat="44.565629876584666" lon="10.226195929352437"><ele>370.0</ele><time>2026-04-06T11:38:47Z</time></trkpt><trkpt lat="44.565521741660476" lon="10.226073124136542"><ele>370.0</ele><time>2026-04-06T11:38:48Z</time></trkpt><trkpt lat="44.565374565656555" lon="10.225897914218837"><ele>370.0</ele><time>2026-04-06T11:38:49Z</time></trkpt><trkpt lat="44.56523502604566" lon="10.225715418586697"><ele>370.0</ele><time>2026-04-06T11:38:50Z</time></trkpt><trkpt lat="44.56512249699587" lon="10.225553376693487"><ele>370.0</ele><time>2026-04-06T11:38:51Z</time></trkpt><trkpt lat="44.56505275967325" lon="10.225384373277896"><ele>370.0</ele><time>2026-04-06T11:38:52Z</time></trkpt><trkpt lat="44.56500748491837" lon="10.22523594539053"><ele>370.0</ele><time>2026-04-06T11:38:53Z</time></trkpt><trkpt lat="44.56499180933448" lon="10.225095031305434"><ele>370.0</ele><time>2026-04-06T11:38:54Z</time></trkpt><trkpt lat="44.56501243023523" lon="10.224927006617039"><ele>372.0</ele><time>2026-04-06T11:38:55Z</time></trkpt><trkpt lat="44.5650470062985" lon="10.224720174580415"><ele>374.0</ele><time>2026-04-06T11:38:56Z</time></trkpt><trkpt lat="44.565089284192446" lon="10.224490984744874"><ele>376.0</ele><time>2026-04-06T11:38:57Z</time></trkpt><trkpt lat="44.56513508835058" lon="10.22425368718662"><ele>376.0</ele><time>2026-04-06T11:38:58Z</time></trkpt><trkpt lat="44.56515602299748" lon="10.224021612353296"><ele>376.0</ele><time>2026-04-06T11:38:59Z</time></trkpt><trkpt lat="44.5651608969203" lon="10.223804596598534"><ele>376.0</ele><time>2026-04-06T11:39:00Z</time></trkpt><trkpt lat="44.56514466853215" lon="10.223561285634272"><ele>377.66666666666663</ele><time>2026-04-06T11:39:01Z</time></trkpt><trkpt lat="44.56510398832559" lon="10.223309677299165"><ele>379.3333333333333</ele><time>2026-04-06T11:39:02Z</time></trkpt><trkpt lat="44.565040557861096" lon="10.223046257726416"><ele>381.0</ele><time>2026-04-06T11:39:03Z</time></trkpt><trkpt lat="44.56497653270191" lon="10.222812012150339"><ele>384.33333333333337</ele><time>2026-04-06T11:39:04Z</time></trkpt><trkpt lat="44.564903854455466" lon="10.222601327122229"><ele>387.6666666666667</ele><time>2026-04-06T11:39:05Z</time></trkpt><trkpt lat="44.56479908013408" lon="10.222418839058319"><ele>391.0</ele><time>2026-04-06T11:39:05.999Z</time></trkpt><trkpt lat="44.56466746326625" lon="10.222267770587814"><ele>389.25</ele><time>2026-04-06T11:39:06.999Z</time></trkpt><trkpt lat="44.564522141401916" lon="10.222151130099943"><ele>387.5</ele><time>2026-04-06T11:39:07.999Z</time></trkpt><trkpt lat="44.564401932596226" lon="10.222052446307849"><ele>385.75</ele><time>2026-04-06T11:39:08.999Z</time></trkpt><trkpt lat="44.564298984544536" lon="10.22192803808026"><ele>384.0</ele><time>2026-04-06T11:39:09.999Z</time></trkpt><trkpt lat="44.56423666571392" lon="10.221747175133311"><ele>384.0</ele><time>2026-04-06T11:39:10.999Z</time></trkpt><trkpt lat="44.564163340378805" lon="10.221545679778586"><ele>384.0</ele><time>2026-04-06T11:39:11.999Z</time></trkpt><trkpt lat="44.56408709696033" lon="10.221323651015863"><ele>384.0</ele><time>2026-04-06T11:39:12.999Z</time></trkpt><trkpt lat="44.564006802494234" lon="10.221089825175524"><ele>388.0</ele><time>2026-04-06T11:39:13.999Z</time></trkpt><trkpt lat="44.56391967242383" lon="10.220836093335365"><ele>392.0</ele><time>2026-04-06T11:39:14.999Z</time></trkpt><trkpt lat="44.56384022201424" lon="10.220598339064944"><ele>396.0</ele><time>2026-04-06T11:39:15.999Z</time></trkpt><trkpt lat="44.563768656620134" lon="10.220369668817453"><ele>399.33333333333337</ele><time>2026-04-06T11:39:16.999Z</time></trkpt><trkpt lat="44.563719705875364" lon="10.220157538988666"><ele>402.6666666666667</ele><time>2026-04-06T11:39:17.999Z</time></trkpt><trkpt lat="44.563694418223776" lon="10.219954414231566"><ele>406.0</ele><time>2026-04-06T11:39:18.999Z</time></trkpt><trkpt lat="44.56370533504805" lon="10.219729092863497"><ele>406.33333333333337</ele><time>2026-04-06T11:39:19.999Z</time></trkpt><trkpt lat="44.56373791250018" lon="10.219479124926236"><ele>406.66666666666663</ele><time>2026-04-06T11:39:20.999Z</time></trkpt><trkpt lat="44.56377411022801" lon="10.219210968648673"><ele>407.0</ele><time>2026-04-06T11:39:21.999Z</time></trkpt><trkpt lat="44.56379848812613" lon="10.218960029546743"><ele>408.0</ele><time>2026-04-06T11:39:22.999Z</time></trkpt><trkpt lat="44.56378468575435" lon="10.218709236826763"><ele>409.0</ele><time>2026-04-06T11:39:23.999Z</time></trkpt><trkpt lat="44.56376535634221" lon="10.21843854263763"><ele>410.0</ele><time>2026-04-06T11:39:24.999Z</time></trkpt><trkpt lat="44.56371949348355" lon="10.218164334221884"><ele>402.3333333333333</ele><time>2026-04-06T11:39:25.999Z</time></trkpt><trkpt lat="44.56366809702541" lon="10.21787475166978"><ele>394.66666666666663</ele><time>2026-04-06T11:39:26.999Z</time></trkpt><trkpt lat="44.56362336500379" lon="10.217588909495655"><ele>387.0</ele><time>2026-04-06T11:39:27.999Z</time></trkpt><trkpt lat="44.56357623883427" lon="10.217329801495652"><ele>388.33333333333337</ele><time>2026-04-06T11:39:28.999Z</time></trkpt><trkpt lat="44.56353572345392" lon="10.217079350966248"><ele>389.6666666666667</ele><time>2026-04-06T11:39:29.999Z</time></trkpt><trkpt lat="44.56348219882523" lon="10.216840194325293"><ele>391.0</ele><time>2026-04-06T11:39:30.999Z</time></trkpt><trkpt lat="44.56340499281176" lon="10.21658881508302"><ele>392.0</ele><time>2026-04-06T11:39:31.999Z</time></trkpt><trkpt lat="44.56330728278389" lon="10.216354077782702"><ele>393.0</ele><time>2026-04-06T11:39:32.999Z</time></trkpt><trkpt lat="44.56319544712934" lon="10.216114289702077"><ele>394.0</ele><time>2026-04-06T11:39:33.999Z</time></trkpt><trkpt lat="44.56309067665075" lon="10.215895306956703"><ele>394.0</ele><time>2026-04-06T11:39:34.999Z</time></trkpt><trkpt lat="44.56299232366467" lon="10.215688090869833"><ele>394.0</ele><time>2026-04-06T11:39:35.999Z</time></trkpt><trkpt lat="44.56290216469865" lon="10.215489872585263"><ele>394.0</ele><time>2026-04-06T11:39:36.999Z</time></trkpt><trkpt lat="44.56282924387286" lon="10.215292883779629"><ele>390.75</ele><time>2026-04-06T11:39:37.999Z</time></trkpt><trkpt lat="44.56279169772767" lon="10.21511495555347"><ele>387.5</ele><time>2026-04-06T11:39:38.999Z</time></trkpt><trkpt lat="44.5627887094391" lon="10.214929108291237"><ele>384.25</ele><time>2026-04-06T11:39:39.999Z</time></trkpt><trkpt lat="44.562807514538704" lon="10.214706464721496"><ele>381.0</ele><time>2026-04-06T11:39:40.999Z</time></trkpt><trkpt lat="44.562834998542" lon="10.214492220754222"><ele>381.0</ele><time>2026-04-06T11:39:41.999Z</time></trkpt><trkpt lat="44.56284896897835" lon="10.214233151643155"><ele>381.0</ele><time>2026-04-06T11:39:42.999Z</time></trkpt><trkpt lat="44.56286329774255" lon="10.213998282647992"><ele>381.0</ele><time>2026-04-06T11:39:43.999Z</time></trkpt><trkpt lat="44.56287314457186" lon="10.213761013871906"><ele>381.6666666666667</ele><time>2026-04-06T11:39:44.999Z</time></trkpt><trkpt lat="44.56287128511842" lon="10.213524316259447"><ele>382.33333333333337</ele><time>2026-04-06T11:39:45.999Z</time></trkpt><trkpt lat="44.56284211768686" lon="10.213277269302777"><ele>383.0</ele><time>2026-04-06T11:39:46.999Z</time></trkpt><trkpt lat="44.56279093243045" lon="10.213023177309895"><ele>386.33333333333337</ele><time>2026-04-06T11:39:47.999Z</time></trkpt><trkpt lat="44.56271591702159" lon="10.2127875857301"><ele>389.6666666666667</ele><time>2026-04-06T11:39:48.999Z</time></trkpt><trkpt lat="44.5626205598695" lon="10.212560291489389"><ele>393.0</ele><time>2026-04-06T11:39:49.999Z</time></trkpt><trkpt lat="44.56249461686464" lon="10.21233747139767"><ele>398.33333333333337</ele><time>2026-04-06T11:39:50.999Z</time></trkpt><trkpt lat="44.56235930342427" lon="10.212132371085671"><ele>403.6666666666667</ele><time>2026-04-06T11:39:51.999Z</time></trkpt><trkpt lat="44.562221165805695" lon="10.21196044244233"><ele>409.0</ele><time>2026-04-06T11:39:52.999Z</time></trkpt><trkpt lat="44.56208689189866" lon="10.211810893547414"><ele>405.0</ele><time>2026-04-06T11:39:53.999Z</time></trkpt><trkpt lat="44.56198136851706" lon="10.211674527091272"><ele>401.0</ele><time>2026-04-06T11:39:54.999Z</time></trkpt><trkpt lat="44.56190175694363" lon="10.211505910478522"><ele>397.0</ele><time>2026-04-06T11:39:55.999Z</time></trkpt><trkpt lat="44.56184658146576" lon="10.211312441741184"><ele>393.0</ele><time>2026-04-06T11:39:56.999Z</time></trkpt><trkpt lat="44.56183395700718" lon="10.211074449617737"><ele>393.0</ele><time>2026-04-06T11:39:57.999Z</time></trkpt><trkpt lat="44.56180067100587" lon="10.210822306145946"><ele>393.0</ele><time>2026-04-06T11:39:58.999Z</time></trkpt><trkpt lat="44.56178666258545" lon="10.21058690984186"><ele>393.0</ele><time>2026-04-06T11:39:59.999Z</time></trkpt><trkpt lat="44.56175151886541" lon="10.21032964228842"><ele>396.33333333333337</ele><time>2026-04-06T11:40:00.999Z</time></trkpt><trkpt lat="44.56168546810752" lon="10.210069711290364"><ele>399.6666666666667</ele><time>2026-04-06T11:40:01.999Z</time></trkpt><trkpt lat="44.56160734568771" lon="10.209823693910952"><ele>403.0</ele><time>2026-04-06T11:40:02.999Z</time></trkpt><trkpt lat="44.56151548714861" lon="10.209574937916043"><ele>402.6666666666667</ele><time>2026-04-06T11:40:03.999Z</time></trkpt><trkpt lat="44.56138888327628" lon="10.209320481317294"><ele>402.33333333333337</ele><time>2026-04-06T11:40:04.999Z</time></trkpt><trkpt lat="44.561253419390894" lon="10.209081414360696"><ele>402.0</ele><time>2026-04-06T11:40:05.999Z</time></trkpt><trkpt lat="44.56109605633449" lon="10.208819574959067"><ele>402.0</ele><time>2026-04-06T11:40:06.999Z</time></trkpt><trkpt lat="44.560937443531145" lon="10.208543491325708"><ele>402.0</ele><time>2026-04-06T11:40:07.999Z</time></trkpt><trkpt lat="44.56077995803942" lon="10.20825931761816"><ele>406.33333333333337</ele><time>2026-04-06T11:40:08.999Z</time></trkpt><trkpt lat="44.56063851013304" lon="10.20800832690691"><ele>410.6666666666667</ele><time>2026-04-06T11:40:09.999Z</time></trkpt><trkpt lat="44.560513285937986" lon="10.207780251591725"><ele>415.0</ele><time>2026-04-06T11:40:10.999Z</time></trkpt><trkpt lat="44.56039951480433" lon="10.207576469397747"><ele>414.0</ele><time>2026-04-06T11:40:11.999Z</time></trkpt><trkpt lat="44.560293589911986" lon="10.207377076257965"><ele>413.0</ele><time>2026-04-06T11:40:12.999Z</time></trkpt><trkpt lat="44.56019763780404" lon="10.20719463451556"><ele>412.0</ele><time>2026-04-06T11:40:13.999Z</time></trkpt><trkpt lat="44.560109139876474" lon="10.207013152084665"><ele>412.0</ele><time>2026-04-06T11:40:14.999Z</time></trkpt><trkpt lat="44.56005828833644" lon="10.206809487560978"><ele>412.0</ele><time>2026-04-06T11:40:15.999Z</time></trkpt><trkpt lat="44.560013249676366" lon="10.20658984116632"><ele>412.0</ele><time>2026-04-06T11:40:16.999Z</time></trkpt><trkpt lat="44.55995760710006" lon="10.20634284737015"><ele>413.6666666666667</ele><time>2026-04-06T11:40:17.999Z</time></trkpt><trkpt lat="44.55991745591334" lon="10.206066853622417"><ele>415.33333333333337</ele><time>2026-04-06T11:40:18.999Z</time></trkpt><trkpt lat="44.559879609536324" lon="10.205809534388521"><ele>417.0</ele><time>2026-04-06T11:40:19.999Z</time></trkpt><trkpt lat="44.559847064205044" lon="10.205587225560985"><ele>418.0</ele><time>2026-04-06T11:40:20.999Z</time></trkpt><trkpt lat="44.55981441511234" lon="10.2053800329561"><ele>419.0</ele><time>2026-04-06T11:40:21.999Z</time></trkpt><trkpt lat="44.55978638757402" lon="10.205192129953412"><ele>420.0</ele><time>2026-04-06T11:40:22.999Z</time></trkpt><trkpt lat="44.55975640689305" lon="10.20499707222694"><ele>421.0</ele><time>2026-04-06T11:40:23.999Z</time></trkpt><trkpt lat="44.55972830097808" lon="10.204815168280284"><ele>421.8</ele><time>2026-04-06T11:40:24.999Z</time></trkpt><trkpt lat="44.5597053715256" lon="10.204671430884122"><ele>422.6</ele><time>2026-04-06T11:40:25.999Z</time></trkpt><trkpt lat="44.55968200623911" lon="10.204535004831808"><ele>423.4</ele><time>2026-04-06T11:40:26.999Z</time></trkpt><trkpt lat="44.55966308220315" lon="10.20442816235789"><ele>424.2</ele><time>2026-04-06T11:40:27.999Z</time></trkpt><trkpt lat="44.55964814284265" lon="10.20430225986915"><ele>425.0</ele><time>2026-04-06T11:40:29.999Z</time></trkpt><trkpt lat="44.559730313322" lon="10.204298270284939"><ele>425.0</ele><time>2026-04-06T11:40:32.999Z</time></trkpt><trkpt lat="44.559737591392334" lon="10.204402967385361"><ele>425.0</ele><time>2026-04-06T11:40:34.999Z</time></trkpt><trkpt lat="44.55977887374198" lon="10.204516332461967"><ele>425.0</ele><time>2026-04-06T11:40:35.999Z</time></trkpt><trkpt lat="44.55980946944076" lon="10.204684391846683"><ele>425.0</ele><time>2026-04-06T11:40:36.999Z</time></trkpt><trkpt lat="44.559849197940494" lon="10.204815464194457"><ele>425.0</ele><time>2026-04-06T11:40:37.999Z</time></trkpt><trkpt lat="44.55990554782614" lon="10.204951813505598"><ele>424.2</ele><time>2026-04-06T11:40:38.999Z</time></trkpt><trkpt lat="44.55995984397932" lon="10.205049649981014"><ele>423.4</ele><time>2026-04-06T11:40:39.999Z</time></trkpt><trkpt lat="44.5600281009701" lon="10.205111531471015"><ele>422.6</ele><time>2026-04-06T11:40:40.999Z</time></trkpt><trkpt lat="44.56011484736203" lon="10.20513977426365"><ele>421.8</ele><time>2026-04-06T11:40:41.999Z</time></trkpt><trkpt lat="44.56020450678559" lon="10.205111247619019"><ele>421.0</ele><time>2026-04-06T11:40:42.999Z</time></trkpt><trkpt lat="44.560296767141956" lon="10.205034348942313"><ele>425.25</ele><time>2026-04-06T11:40:43.999Z</time></trkpt><trkpt lat="44.560393248283646" lon="10.204906477706045"><ele>429.5</ele><time>2026-04-06T11:40:44.999Z</time></trkpt><trkpt lat="44.56050164290935" lon="10.20477443793776"><ele>433.75</ele><time>2026-04-06T11:40:45.999Z</time></trkpt><trkpt lat="44.560605651959854" lon="10.204616063698461"><ele>438.0</ele><time>2026-04-06T11:40:46.999Z</time></trkpt><trkpt lat="44.56070432809203" lon="10.20446689502691"><ele>439.2</ele><time>2026-04-06T11:40:47.999Z</time></trkpt><trkpt lat="44.56077628201115" lon="10.204346241316411"><ele>440.4</ele><time>2026-04-06T11:40:48.999Z</time></trkpt><trkpt lat="44.560799256514976" lon="10.204230645060607"><ele>441.59999999999997</ele><time>2026-04-06T11:40:49.999Z</time></trkpt><trkpt lat="44.56081635004137" lon="10.20413372223289"><ele>442.79999999999995</ele><time>2026-04-06T11:40:50.999Z</time></trkpt><trkpt lat="44.56077754038296" lon="10.203998530534902"><ele>444.0</ele><time>2026-04-06T11:40:51.999Z</time></trkpt><trkpt lat="44.56071126294714" lon="10.203854835805204"><ele>447.0</ele><time>2026-04-06T11:40:52.999Z</time></trkpt><trkpt lat="44.56062900392221" lon="10.20372831768073"><ele>450.0</ele><time>2026-04-06T11:40:53.999Z</time></trkpt><trkpt lat="44.56056454104142" lon="10.203580584335873"><ele>453.0</ele><time>2026-04-06T11:40:54.999Z</time></trkpt><trkpt lat="44.560510225538195" lon="10.20346560739837"><ele>456.0</ele><time>2026-04-06T11:40:55.999Z</time></trkpt><trkpt lat="44.560469643834104" lon="10.203333913571543"><ele>459.0</ele><time>2026-04-06T11:40:56.999Z</time></trkpt><trkpt lat="44.560451439595894" lon="10.203209832902514"><ele>459.0</ele><time>2026-04-06T11:40:57.999Z</time></trkpt><trkpt lat="44.56046164699334" lon="10.203117967811052"><ele>459.0</ele><time>2026-04-06T11:40:58.999Z</time></trkpt><trkpt lat="44.560515671559635" lon="10.203067001788042"><ele>459.0</ele><time>2026-04-06T11:41:00.999Z</time></trkpt><trkpt lat="44.56057918312046" lon="10.203188376511472"><ele>459.0</ele><time>2026-04-06T11:41:02.999Z</time></trkpt><trkpt lat="44.560586697456806" lon="10.203283760668516"><ele>459.0</ele><time>2026-04-06T11:41:03.999Z</time></trkpt><trkpt lat="44.5606786937181" lon="10.203370202979805"><ele>459.0</ele><time>2026-04-06T11:41:05.999Z</time></trkpt><trkpt lat="44.560745508309274" lon="10.203350823492213"><ele>459.0</ele><time>2026-04-06T11:41:06.999Z</time></trkpt><trkpt lat="44.560785685880944" lon="10.203279519424989"><ele>459.0</ele><time>2026-04-06T11:41:07.999Z</time></trkpt><trkpt lat="44.56078870991515" lon="10.203143516932572"><ele>459.0</ele><time>2026-04-06T11:41:08.999Z</time></trkpt><trkpt lat="44.56073383074614" lon="10.202983130398584"><ele>459.0</ele><time>2026-04-06T11:41:09.999Z</time></trkpt><trkpt lat="44.56074050142459" lon="10.20281825449098"><ele>459.0</ele><time>2026-04-06T11:41:10.999Z</time></trkpt><trkpt lat="44.56075303097425" lon="10.202689891983754"><ele>460.5</ele><time>2026-04-06T11:41:11.999Z</time></trkpt><trkpt lat="44.56077363314734" lon="10.202585365740843"><ele>462.0</ele><time>2026-04-06T11:41:12.999Z</time></trkpt><trkpt lat="44.5608272945771" lon="10.20253525869126"><ele>463.5</ele><time>2026-04-06T11:41:14.999Z</time></trkpt><trkpt lat="44.56088386518336" lon="10.202594682036267"><ele>465.0</ele><time>2026-04-06T11:41:15.999Z</time></trkpt><trkpt lat="44.56092242331116" lon="10.2027001952285"><ele>466.5</ele><time>2026-04-06T11:41:16.999Z</time></trkpt><trkpt lat="44.56095323832415" lon="10.202833226090242"><ele>468.0</ele><time>2026-04-06T11:41:17.999Z</time></trkpt><trkpt lat="44.56099171154449" lon="10.20292468733857"><ele>468.0</ele><time>2026-04-06T11:41:18.999Z</time></trkpt><trkpt lat="44.5611046593895" lon="10.202982484348562"><ele>468.0</ele><time>2026-04-06T11:41:20.999Z</time></trkpt><trkpt lat="44.561182220454484" lon="10.202942766755463"><ele>468.0</ele><time>2026-04-06T11:41:21.999Z</time></trkpt><trkpt lat="44.561264742222754" lon="10.202903244146071"><ele>468.0</ele><time>2026-04-06T11:41:22.999Z</time></trkpt><trkpt lat="44.56129910361521" lon="10.202795719717416"><ele>468.0</ele><time>2026-04-06T11:41:23.999Z</time></trkpt><trkpt lat="44.56132123312035" lon="10.20269846361211"><ele>468.0</ele><time>2026-04-06T11:41:24.999Z</time></trkpt><trkpt lat="44.56126818063709" lon="10.202587894795917"><ele>472.59999999999997</ele><time>2026-04-06T11:41:25.999Z</time></trkpt><trkpt lat="44.56122213982481" lon="10.20245536305116"><ele>477.19999999999993</ele><time>2026-04-06T11:41:27.999Z</time></trkpt><trkpt lat="44.56119953278208" lon="10.20234044671257"><ele>481.8</ele><time>2026-04-06T11:41:29.999Z</time></trkpt><trkpt lat="44.561206770943606" lon="10.202213008708647"><ele>486.4</ele><time>2026-04-06T11:41:30.999Z</time></trkpt><trkpt lat="44.56124640049648" lon="10.202087761832217"><ele>491.0</ele><time>2026-04-06T11:41:31.999Z</time></trkpt><trkpt lat="44.56130015663003" lon="10.201993710323585"><ele>491.0</ele><time>2026-04-06T11:41:32.999Z</time></trkpt><trkpt lat="44.56135311545016" lon="10.201945151031898"><ele>491.0</ele><time>2026-04-06T11:41:33.999Z</time></trkpt><trkpt lat="44.56146060314185" lon="10.201998322727947"><ele>491.0</ele><time>2026-04-06T11:41:35.999Z</time></trkpt><trkpt lat="44.5614844069081" lon="10.202134761222068"><ele>491.0</ele><time>2026-04-06T11:41:36.999Z</time></trkpt><trkpt lat="44.56156339824226" lon="10.20228809873987"><ele>491.0</ele><time>2026-04-06T11:41:37.999Z</time></trkpt><trkpt lat="44.56167179690466" lon="10.202493619363803"><ele>491.0</ele><time>2026-04-06T11:41:38.999Z</time></trkpt><trkpt lat="44.56176349207861" lon="10.202658921242119"><ele>491.0</ele><time>2026-04-06T11:41:39.999Z</time></trkpt><trkpt lat="44.56182442260467" lon="10.202807553826643"><ele>491.0</ele><time>2026-04-06T11:41:40.999Z</time></trkpt><trkpt lat="44.56185849781577" lon="10.202941122317837"><ele>491.0</ele><time>2026-04-06T11:41:41.999Z</time></trkpt><trkpt lat="44.56189356130686" lon="10.203030980822206"><ele>491.0</ele><time>2026-04-06T11:41:42.999Z</time></trkpt><trkpt lat="44.5620121842256" lon="10.2031000509034"><ele>495.4</ele><time>2026-04-06T11:41:44.999Z</time></trkpt><trkpt lat="44.56211069449212" lon="10.203027346237008"><ele>499.8</ele><time>2026-04-06T11:41:45.999Z</time></trkpt><trkpt lat="44.562146803242705" lon="10.202917627467432"><ele>504.19999999999993</ele><time>2026-04-06T11:41:46.999Z</time></trkpt><trkpt lat="44.56219041642647" lon="10.2028480533493"><ele>508.59999999999997</ele><time>2026-04-06T11:41:47.999Z</time></trkpt><trkpt lat="44.56226994767656" lon="10.202799977098016"><ele>513.0</ele><time>2026-04-06T11:41:49.999Z</time></trkpt><trkpt lat="44.56236761221045" lon="10.202928005629266"><ele>513.0</ele><time>2026-04-06T11:41:51.999Z</time></trkpt><trkpt lat="44.56240615202083" lon="10.203060617919746"><ele>513.0</ele><time>2026-04-06T11:41:52.999Z</time></trkpt><trkpt lat="44.5624789338205" lon="10.203148710396023"><ele>513.0</ele><time>2026-04-06T11:41:53.999Z</time></trkpt><trkpt lat="44.562582487287806" lon="10.203269636767882"><ele>513.0</ele><time>2026-04-06T11:41:54.999Z</time></trkpt><trkpt lat="44.56270774809334" lon="10.203382319924286"><ele>511.66666666666663</ele><time>2026-04-06T11:41:55.999Z</time></trkpt><trkpt lat="44.56284234851146" lon="10.203481404901998"><ele>510.3333333333333</ele><time>2026-04-06T11:41:56.999Z</time></trkpt><trkpt lat="44.56299749546329" lon="10.20359530100536"><ele>509.0</ele><time>2026-04-06T11:41:57.999Z</time></trkpt><trkpt lat="44.56315509992023" lon="10.203717356315657"><ele>511.5</ele><time>2026-04-06T11:41:58.999Z</time></trkpt><trkpt lat="44.563278165063366" lon="10.203822272319144"><ele>514.0</ele><time>2026-04-06T11:41:59.999Z</time></trkpt><trkpt lat="44.563388527383424" lon="10.203906912275729"><ele>516.5</ele><time>2026-04-06T11:42:00.999Z</time></trkpt><trkpt lat="44.56346131272413" lon="10.204014693403222"><ele>519.0</ele><time>2026-04-06T11:42:01.999Z</time></trkpt><trkpt lat="44.56351085822845" lon="10.204129270910542"><ele>519.0</ele><time>2026-04-06T11:42:02.999Z</time></trkpt><trkpt lat="44.563505573787324" lon="10.204281730326352"><ele>519.0</ele><time>2026-04-06T11:42:03.999Z</time></trkpt><trkpt lat="44.56351625350391" lon="10.204452996217924"><ele>519.0</ele><time>2026-04-06T11:42:04.999Z</time></trkpt><trkpt lat="44.563551052160435" lon="10.204604037809599"><ele>519.0</ele><time>2026-04-06T11:42:05.999Z</time></trkpt><trkpt lat="44.56360013467439" lon="10.204723761093188"><ele>519.0</ele><time>2026-04-06T11:42:06.999Z</time></trkpt><trkpt lat="44.563671352633534" lon="10.204799388991875"><ele>523.75</ele><time>2026-04-06T11:42:07.999Z</time></trkpt><trkpt lat="44.56376794672459" lon="10.204828470744344"><ele>528.5</ele><time>2026-04-06T11:42:08.999Z</time></trkpt><trkpt lat="44.56389228770743" lon="10.204821302648837"><ele>533.25</ele><time>2026-04-06T11:42:09.999Z</time></trkpt><trkpt lat="44.564027980416725" lon="10.204786817972783"><ele>538.0</ele><time>2026-04-06T11:42:10.999Z</time></trkpt><trkpt lat="44.5641748771418" lon="10.204758562761677"><ele>538.0</ele><time>2026-04-06T11:42:11.999Z</time></trkpt><trkpt lat="44.56429170580739" lon="10.204778170953844"><ele>538.0</ele><time>2026-04-06T11:42:12.999Z</time></trkpt><trkpt lat="44.56437463091207" lon="10.204820402071984"><ele>538.0</ele><time>2026-04-06T11:42:13.999Z</time></trkpt><trkpt lat="44.564438241163245" lon="10.20489578791152"><ele>538.0</ele><time>2026-04-06T11:42:14.999Z</time></trkpt><trkpt lat="44.56444910480698" lon="10.205021021921514"><ele>538.0</ele><time>2026-04-06T11:42:15.999Z</time></trkpt><trkpt lat="44.56445399012881" lon="10.20515672141059"><ele>537.0</ele><time>2026-04-06T11:42:16.999Z</time></trkpt><trkpt lat="44.56451523443842" lon="10.205255651282984"><ele>536.0</ele><time>2026-04-06T11:42:18.999Z</time></trkpt><trkpt lat="44.56459144892729" lon="10.205173967966235"><ele>535.0</ele><time>2026-04-06T11:42:20.999Z</time></trkpt><trkpt lat="44.56460663807127" lon="10.205053699516377"><ele>534.0</ele><time>2026-04-06T11:42:23.999Z</time></trkpt><trkpt lat="44.56462125997762" lon="10.20493052326923"><ele>533.0</ele><time>2026-04-06T11:42:24.999Z</time></trkpt><trkpt lat="44.564648811770645" lon="10.204763497129806"><ele>536.6</ele><time>2026-04-06T11:42:25.999Z</time></trkpt><trkpt lat="44.564675754667746" lon="10.204620143159985"><ele>540.1999999999999</ele><time>2026-04-06T11:42:26.999Z</time></trkpt><trkpt lat="44.56468886927888" lon="10.204508039717153"><ele>543.8</ele><time>2026-04-06T11:42:27.999Z</time></trkpt><trkpt lat="44.56466361006523" lon="10.204392208335047"><ele>547.4</ele><time>2026-04-06T11:42:28.999Z</time></trkpt><trkpt lat="44.564630740566635" lon="10.204261479342929"><ele>551.0</ele><time>2026-04-06T11:42:29.999Z</time></trkpt><trkpt lat="44.56459970185672" lon="10.204118679809772"><ele>552.5</ele><time>2026-04-06T11:42:30.999Z</time></trkpt><trkpt lat="44.564579300394016" lon="10.203983372040897"><ele>554.0</ele><time>2026-04-06T11:42:31.999Z</time></trkpt><trkpt lat="44.56459049067444" lon="10.203851845746112"><ele>555.5</ele><time>2026-04-06T11:42:32.999Z</time></trkpt><trkpt lat="44.564614412418585" lon="10.203686697752723"><ele>557.0</ele><time>2026-04-06T11:42:33.999Z</time></trkpt><trkpt lat="44.56464953736751" lon="10.203484859819406"><ele>557.0</ele><time>2026-04-06T11:42:34.999Z</time></trkpt><trkpt lat="44.56467186833885" lon="10.203273667215084"><ele>557.0</ele><time>2026-04-06T11:42:35.999Z</time></trkpt><trkpt lat="44.564645209132" lon="10.203029730451012"><ele>557.0</ele><time>2026-04-06T11:42:36.999Z</time></trkpt><trkpt lat="44.56458252683543" lon="10.202822039202188"><ele>557.0</ele><time>2026-04-06T11:42:37.999Z</time></trkpt><trkpt lat="44.564529506273175" lon="10.202619851430722"><ele>557.0</ele><time>2026-04-06T11:42:38.999Z</time></trkpt><trkpt lat="44.56448945977992" lon="10.202456186565012"><ele>557.0</ele><time>2026-04-06T11:42:39.999Z</time></trkpt><trkpt lat="44.56448890958248" lon="10.202317946067835"><ele>557.0</ele><time>2026-04-06T11:42:40.999Z</time></trkpt><trkpt lat="44.56451121041612" lon="10.202152855759767"><ele>564.6666666666666</ele><time>2026-04-06T11:42:41.999Z</time></trkpt><trkpt lat="44.56456142237034" lon="10.201972219469853"><ele>572.3333333333334</ele><time>2026-04-06T11:42:42.999Z</time></trkpt><trkpt lat="44.5646073472367" lon="10.201766101657347"><ele>580.0</ele><time>2026-04-06T11:42:43.999Z</time></trkpt><trkpt lat="44.564598515406" lon="10.201540473152393"><ele>582.6666666666667</ele><time>2026-04-06T11:42:44.999Z</time></trkpt><trkpt lat="44.56461552876434" lon="10.201310895883006"><ele>585.3333333333334</ele><time>2026-04-06T11:42:45.999Z</time></trkpt><trkpt lat="44.564632178501135" lon="10.201099415002435"><ele>588.0</ele><time>2026-04-06T11:42:46.999Z</time></trkpt><trkpt lat="44.56466603814267" lon="10.20090795434449"><ele>588.0</ele><time>2026-04-06T11:42:47.999Z</time></trkpt><trkpt lat="44.56469284661773" lon="10.200749419224858"><ele>588.0</ele><time>2026-04-06T11:42:48.999Z</time></trkpt><trkpt lat="44.564722520715634" lon="10.200646458091693"><ele>588.0</ele><time>2026-04-06T11:42:49.999Z</time></trkpt><trkpt lat="44.56475702517642" lon="10.200557180406724"><ele>588.0</ele><time>2026-04-06T11:42:50.999Z</time></trkpt><trkpt lat="44.56478538517273" lon="10.200475151130851"><ele>588.0</ele><time>2026-04-06T11:42:51.999Z</time></trkpt><trkpt lat="44.564819334074365" lon="10.200375711283511"><ele>588.0</ele><time>2026-04-06T11:42:52.999Z</time></trkpt><trkpt lat="44.56485871047541" lon="10.200257125833364"><ele>588.0</ele><time>2026-04-06T11:42:53.999Z</time></trkpt><trkpt lat="44.56490091604192" lon="10.200130154162496"><ele>588.0</ele><time>2026-04-06T11:42:54.999Z</time></trkpt><trkpt lat="44.56493952520222" lon="10.200008333174702"><ele>588.0</ele><time>2026-04-06T11:42:55.999Z</time></trkpt><trkpt lat="44.56496829314884" lon="10.199873795907415"><ele>588.0</ele><time>2026-04-06T11:42:56.999Z</time></trkpt><trkpt lat="44.56496934664046" lon="10.199726564414147"><ele>588.0</ele><time>2026-04-06T11:42:57.999Z</time></trkpt><trkpt lat="44.56489994220937" lon="10.199598511546863"><ele>588.0</ele><time>2026-04-06T11:42:58.999Z</time></trkpt><trkpt lat="44.56486712019752" lon="10.199508838981092"><ele>588.0</ele><time>2026-04-06T11:42:59.999Z</time></trkpt><trkpt lat="44.56487411154234" lon="10.199420712715046"><ele>588.0</ele><time>2026-04-06T11:43:00.999Z</time></trkpt><trkpt lat="44.564941663796645" lon="10.19934447427286"><ele>588.0</ele><time>2026-04-06T11:43:01.999Z</time></trkpt><trkpt lat="44.56499954562308" lon="10.199272230714639"><ele>588.0</ele><time>2026-04-06T11:43:02.999Z</time></trkpt><trkpt lat="44.56507037302187" lon="10.199177892011686"><ele>588.0</ele><time>2026-04-06T11:43:03.999Z</time></trkpt><trkpt lat="44.56513943877049" lon="10.199086921409304"><ele>589.0</ele><time>2026-04-06T11:43:04.999Z</time></trkpt><trkpt lat="44.565174987334714" lon="10.198994680157647"><ele>590.0</ele><time>2026-04-06T11:43:05.999Z</time></trkpt><trkpt lat="44.56520220285213" lon="10.19886898969897"><ele>591.0</ele><time>2026-04-06T11:43:07.999Z</time></trkpt><trkpt lat="44.565157080539535" lon="10.198779208516617"><ele>592.0</ele><time>2026-04-06T11:43:08.999Z</time></trkpt><trkpt lat="44.56510519593522" lon="10.198681924053762"><ele>593.0</ele><time>2026-04-06T11:43:09.999Z</time></trkpt><trkpt lat="44.56503510929569" lon="10.19858043653946"><ele>594.0</ele><time>2026-04-06T11:43:10.999Z</time></trkpt><trkpt lat="44.564950728973876" lon="10.198476875052728"><ele>594.0</ele><time>2026-04-06T11:43:11.999Z</time></trkpt><trkpt lat="44.56489215267953" lon="10.19838099230913"><ele>594.0</ele><time>2026-04-06T11:43:12.999Z</time></trkpt><trkpt lat="44.56486405606819" lon="10.198280872916001"><ele>594.0</ele><time>2026-04-06T11:43:13.999Z</time></trkpt><trkpt lat="44.56487482768498" lon="10.198160725642119"><ele>594.0</ele><time>2026-04-06T11:43:14.999Z</time></trkpt><trkpt lat="44.5648833021353" lon="10.198045466363206"><ele>594.0</ele><time>2026-04-06T11:43:15.999Z</time></trkpt><trkpt lat="44.56491137841522" lon="10.197935744748888"><ele>594.0</ele><time>2026-04-06T11:43:16.999Z</time></trkpt><trkpt lat="44.564952935396526" lon="10.197846240162185"><ele>594.5</ele><time>2026-04-06T11:43:17.999Z</time></trkpt><trkpt lat="44.56501823967231" lon="10.197784684057412"><ele>595.0</ele><time>2026-04-06T11:43:18.999Z</time></trkpt><trkpt lat="44.565109616890815" lon="10.19770589149893"><ele>595.5</ele><time>2026-04-06T11:43:19.999Z</time></trkpt><trkpt lat="44.56523112464404" lon="10.197624612268212"><ele>596.0</ele><time>2026-04-06T11:43:20.999Z</time></trkpt><trkpt lat="44.56535078474949" lon="10.197551502363888"><ele>596.8333333333333</ele><time>2026-04-06T11:43:21.999Z</time></trkpt><trkpt lat="44.565445563563" lon="10.19749091645293"><ele>597.6666666666666</ele><time>2026-04-06T11:43:22.999Z</time></trkpt><trkpt lat="44.56552641062826" lon="10.197445626075943"><ele>598.5</ele><time>2026-04-06T11:43:23.999Z</time></trkpt><trkpt lat="44.56560375081262" lon="10.197395255831278"><ele>599.3333333333334</ele><time>2026-04-06T11:43:24.999Z</time></trkpt><trkpt lat="44.565678377372826" lon="10.197336076384227"><ele>600.1666666666667</ele><time>2026-04-06T11:43:25.999Z</time></trkpt><trkpt lat="44.565744836968435" lon="10.197266812127632"><ele>601.0</ele><time>2026-04-06T11:43:26.999Z</time></trkpt><trkpt lat="44.56581190973941" lon="10.197192858899047"><ele>601.0</ele><time>2026-04-06T11:43:27.999Z</time></trkpt><trkpt lat="44.565884506636245" lon="10.197144094615108"><ele>601.0</ele><time>2026-04-06T11:43:28.999Z</time></trkpt><trkpt lat="44.56596444589726" lon="10.197125166301992"><ele>601.0</ele><time>2026-04-06T11:43:29.999Z</time></trkpt><trkpt lat="44.56604826745375" lon="10.197136489200394"><ele>601.0</ele><time>2026-04-06T11:43:30.999Z</time></trkpt><trkpt lat="44.566146646831704" lon="10.197171078512515"><ele>601.0</ele><time>2026-04-06T11:43:31.999Z</time></trkpt><trkpt lat="44.566251644369444" lon="10.197204035551591"><ele>603.6</ele><time>2026-04-06T11:43:32.999Z</time></trkpt><trkpt lat="44.56633159335475" lon="10.197233305039685"><ele>606.2</ele><time>2026-04-06T11:43:33.999Z</time></trkpt><trkpt lat="44.56639736989133" lon="10.197315974503429"><ele>608.8</ele><time>2026-04-06T11:43:35.999Z</time></trkpt><trkpt lat="44.56635976235493" lon="10.197479488417155"><ele>611.4</ele><time>2026-04-06T11:43:37.999Z</time></trkpt><trkpt lat="44.566311496096844" lon="10.197562567856078"><ele>614.0</ele><time>2026-04-06T11:43:38.999Z</time></trkpt><trkpt lat="44.56626030061355" lon="10.197659940740417"><ele>614.8333333333333</ele><time>2026-04-06T11:43:39.999Z</time></trkpt><trkpt lat="44.56622210988024" lon="10.197765411443672"><ele>615.6666666666666</ele><time>2026-04-06T11:43:40.999Z</time></trkpt><trkpt lat="44.56620633448181" lon="10.197858560994408"><ele>616.5</ele><time>2026-04-06T11:43:41.999Z</time></trkpt><trkpt lat="44.56618943168119" lon="10.198016258445378"><ele>617.3333333333334</ele><time>2026-04-06T11:43:43.999Z</time></trkpt><trkpt lat="44.566201920196384" lon="10.198109482811383"><ele>618.1666666666667</ele><time>2026-04-06T11:43:44.999Z</time></trkpt><trkpt lat="44.566223599248424" lon="10.1981991175879"><ele>619.0</ele><time>2026-04-06T11:43:45.999Z</time></trkpt><trkpt lat="44.566257582429195" lon="10.198289446588612"><ele>620.3333333333334</ele><time>2026-04-06T11:43:46.999Z</time></trkpt><trkpt lat="44.56629478465391" lon="10.198384455375722"><ele>621.6666666666667</ele><time>2026-04-06T11:43:47.999Z</time></trkpt><trkpt lat="44.56634070162529" lon="10.198483521076666"><ele>623.0</ele><time>2026-04-06T11:43:48.999Z</time></trkpt><trkpt lat="44.56639464750748" lon="10.198588757460492"><ele>624.3333333333334</ele><time>2026-04-06T11:43:49.999Z</time></trkpt><trkpt lat="44.56645103220815" lon="10.198694066145734"><ele>625.6666666666666</ele><time>2026-04-06T11:43:50.999Z</time></trkpt><trkpt lat="44.5664984854564" lon="10.198800408514067"><ele>627.0</ele><time>2026-04-06T11:43:51.999Z</time></trkpt><trkpt lat="44.566549491031815" lon="10.198902241844571"><ele>627.0</ele><time>2026-04-06T11:43:52.999Z</time></trkpt><trkpt lat="44.56662327706511" lon="10.19897621301629"><ele>627.0</ele><time>2026-04-06T11:43:53.999Z</time></trkpt><trkpt lat="44.56672455960873" lon="10.19907861739218"><ele>627.0</ele><time>2026-04-06T11:43:54.999Z</time></trkpt><trkpt lat="44.56686162337214" lon="10.199162557117582"><ele>627.0</ele><time>2026-04-06T11:43:55.999Z</time></trkpt><trkpt lat="44.56697615304956" lon="10.19926092737831"><ele>631.5</ele><time>2026-04-06T11:43:56.999Z</time></trkpt><trkpt lat="44.56706787060088" lon="10.199422453048783"><ele>636.0</ele><time>2026-04-06T11:43:57.999Z</time></trkpt><trkpt lat="44.56716149457337" lon="10.199573116040717"><ele>640.5</ele><time>2026-04-06T11:43:58.999Z</time></trkpt><trkpt lat="44.56722171930562" lon="10.199691144796526"><ele>645.0</ele><time>2026-04-06T11:43:59.999Z</time></trkpt><trkpt lat="44.567288381461346" lon="10.199782749968954"><ele>645.0</ele><time>2026-04-06T11:44:01.999Z</time></trkpt><trkpt lat="44.56737868275939" lon="10.199719032988245"><ele>645.0</ele><time>2026-04-06T11:44:03.999Z</time></trkpt><trkpt lat="44.567397436149534" lon="10.199627772280545"><ele>645.0</ele><time>2026-04-06T11:44:04.999Z</time></trkpt><trkpt lat="44.56733015926935" lon="10.19951331953269"><ele>645.0</ele><time>2026-04-06T11:44:05.999Z</time></trkpt><trkpt lat="44.567283584836765" lon="10.199401271927046"><ele>645.0</ele><time>2026-04-06T11:44:06.999Z</time></trkpt><trkpt lat="44.567282895397355" lon="10.199252274867616"><ele>645.0</ele><time>2026-04-06T11:44:07.999Z</time></trkpt><trkpt lat="44.56731088816504" lon="10.199095509754821"><ele>645.0</ele><time>2026-04-06T11:44:08.999Z</time></trkpt><trkpt lat="44.567357201343256" lon="10.198957392755144"><ele>645.0</ele><time>2026-04-06T11:44:09.999Z</time></trkpt><trkpt lat="44.567401409389646" lon="10.19886348761147"><ele>645.0</ele><time>2026-04-06T11:44:10.999Z</time></trkpt><trkpt lat="44.56744749816045" lon="10.198792805232038"><ele>645.0</ele><time>2026-04-06T11:44:11.999Z</time></trkpt><trkpt lat="44.56756189173881" lon="10.19884507536445"><ele>645.0</ele><time>2026-04-06T11:44:13.999Z</time></trkpt><trkpt lat="44.56762035544294" lon="10.198992296417375"><ele>645.0</ele><time>2026-04-06T11:44:14.999Z</time></trkpt><trkpt lat="44.56768277487653" lon="10.199168835290681"><ele>645.0</ele><time>2026-04-06T11:44:15.999Z</time></trkpt><trkpt lat="44.56776250847073" lon="10.199385770105568"><ele>645.0</ele><time>2026-04-06T11:44:16.999Z</time></trkpt><trkpt lat="44.56784217240126" lon="10.199565179171396"><ele>649.0</ele><time>2026-04-06T11:44:17.999Z</time></trkpt><trkpt lat="44.56789871109692" lon="10.199698033410845"><ele>653.0</ele><time>2026-04-06T11:44:18.999Z</time></trkpt><trkpt lat="44.56793537812759" lon="10.199784284650162"><ele>657.0</ele><time>2026-04-06T11:44:19.999Z</time></trkpt><trkpt lat="44.56804069824821" lon="10.199804958720287"><ele>661.0</ele><time>2026-04-06T11:44:21.999Z</time></trkpt><trkpt lat="44.56810279682963" lon="10.1997824286952"><ele>665.0</ele><time>2026-04-06T11:44:22.999Z</time></trkpt><trkpt lat="44.56813613357858" lon="10.19962632404325"><ele>665.0</ele><time>2026-04-06T11:44:23.999Z</time></trkpt><trkpt lat="44.56816904462896" lon="10.19945447962088"><ele>665.0</ele><time>2026-04-06T11:44:24.999Z</time></trkpt><trkpt lat="44.56822786231993" lon="10.199241892208981"><ele>665.0</ele><time>2026-04-06T11:44:25.999Z</time></trkpt><trkpt lat="44.568282827015004" lon="10.199033234506539"><ele>665.0</ele><time>2026-04-06T11:44:26.999Z</time></trkpt><trkpt lat="44.56835118120198" lon="10.198845353109075"><ele>663.25</ele><time>2026-04-06T11:44:27.999Z</time></trkpt><trkpt lat="44.568421064231615" lon="10.198686104228825"><ele>661.5</ele><time>2026-04-06T11:44:28.999Z</time></trkpt><trkpt lat="44.568485685089534" lon="10.198537442341568"><ele>659.75</ele><time>2026-04-06T11:44:29.999Z</time></trkpt><trkpt lat="44.56854411686911" lon="10.19840301853722"><ele>658.0</ele><time>2026-04-06T11:44:30.999Z</time></trkpt><trkpt lat="44.568596078144324" lon="10.198301053120701"><ele>658.0</ele><time>2026-04-06T11:44:31.999Z</time></trkpt><trkpt lat="44.56866427303076" lon="10.198203235755795"><ele>658.0</ele><time>2026-04-06T11:44:32.999Z</time></trkpt><trkpt lat="44.56878420685354" lon="10.198160152248036"><ele>658.0</ele><time>2026-04-06T11:44:33.999Z</time></trkpt><trkpt lat="44.568922424723205" lon="10.198123109074116"><ele>658.0</ele><time>2026-04-06T11:44:34.999Z</time></trkpt><trkpt lat="44.56905035972998" lon="10.198089368026437"><ele>660.3333333333334</ele><time>2026-04-06T11:44:35.999Z</time></trkpt><trkpt lat="44.569213933200245" lon="10.197982236670734"><ele>662.6666666666666</ele><time>2026-04-06T11:44:36.999Z</time></trkpt><trkpt lat="44.56938831189059" lon="10.197880457094557"><ele>665.0</ele><time>2026-04-06T11:44:37.999Z</time></trkpt><trkpt lat="44.569585287049065" lon="10.197814446547493"><ele>669.3333333333333</ele><time>2026-04-06T11:44:38.999Z</time></trkpt><trkpt lat="44.569773632349985" lon="10.197747630453987"><ele>673.6666666666666</ele><time>2026-04-06T11:44:39.999Z</time></trkpt><trkpt lat="44.569920792245675" lon="10.197688324344332"><ele>678.0</ele><time>2026-04-06T11:44:40.999Z</time></trkpt><trkpt lat="44.57003890741164" lon="10.197640135661942"><ele>678.0</ele><time>2026-04-06T11:44:41.999Z</time></trkpt><trkpt lat="44.57012015353125" lon="10.197619214119513"><ele>678.0</ele><time>2026-04-06T11:44:42.999Z</time></trkpt><trkpt lat="44.57018587470486" lon="10.197629611766185"><ele>678.0</ele><time>2026-04-06T11:44:43.999Z</time></trkpt><trkpt lat="44.57024527427884" lon="10.197680770637897"><ele>678.0</ele><time>2026-04-06T11:44:44.999Z</time></trkpt><trkpt lat="44.57028425718562" lon="10.197778634227593"><ele>678.0</ele><time>2026-04-06T11:44:45.999Z</time></trkpt><trkpt lat="44.57036401649208" lon="10.197877298048217"><ele>678.0</ele><time>2026-04-06T11:44:46.999Z</time></trkpt><trkpt lat="44.57045281874722" lon="10.197988753697738"><ele>679.4</ele><time>2026-04-06T11:44:47.999Z</time></trkpt><trkpt lat="44.570543849988454" lon="10.198047476449284"><ele>680.8</ele><time>2026-04-06T11:44:48.999Z</time></trkpt><trkpt lat="44.57064338968041" lon="10.198054105004557"><ele>682.2</ele><time>2026-04-06T11:44:49.999Z</time></trkpt><trkpt lat="44.57075059548042" lon="10.19802475265684"><ele>683.6</ele><time>2026-04-06T11:44:50.999Z</time></trkpt><trkpt lat="44.57084923294922" lon="10.197955250921778"><ele>685.0</ele><time>2026-04-06T11:44:51.999Z</time></trkpt><trkpt lat="44.570948203828564" lon="10.19783415717252"><ele>685.0</ele><time>2026-04-06T11:44:52.999Z</time></trkpt><trkpt lat="44.57105243167463" lon="10.197703803630379"><ele>685.0</ele><time>2026-04-06T11:44:53.999Z</time></trkpt><trkpt lat="44.57114233302177" lon="10.197574254447234"><ele>685.0</ele><time>2026-04-06T11:44:54.999Z</time></trkpt><trkpt lat="44.571221946327846" lon="10.19749218106283"><ele>685.0</ele><time>2026-04-06T11:44:55.999Z</time></trkpt><trkpt lat="44.57128578065856" lon="10.197454028819807"><ele>685.0</ele><time>2026-04-06T11:44:56.999Z</time></trkpt><trkpt lat="44.57133754349516" lon="10.197214912009413"><ele>687.75</ele><time>2026-04-06T11:44:58.999Z</time></trkpt><trkpt lat="44.571404054281444" lon="10.197085279159015"><ele>690.5</ele><time>2026-04-06T11:44:59.999Z</time></trkpt><trkpt lat="44.57149339447615" lon="10.196921793882327"><ele>693.25</ele><time>2026-04-06T11:45:00.999Z</time></trkpt><trkpt lat="44.57158789252616" lon="10.196744802424936"><ele>696.0</ele><time>2026-04-06T11:45:01.999Z</time></trkpt><trkpt lat="44.57168310546721" lon="10.196565678132506"><ele>693.3333333333334</ele><time>2026-04-06T11:45:02.999Z</time></trkpt><trkpt lat="44.57178809439718" lon="10.196363040493624"><ele>690.6666666666667</ele><time>2026-04-06T11:45:03.999Z</time></trkpt><trkpt lat="44.57186556702645" lon="10.196175662050559"><ele>688.0</ele><time>2026-04-06T11:45:04.999Z</time></trkpt><trkpt lat="44.571965076272946" lon="10.196031978771442"><ele>689.0</ele><time>2026-04-06T11:45:05.999Z</time></trkpt><trkpt lat="44.57205396508692" lon="10.195892809501256"><ele>690.0</ele><time>2026-04-06T11:45:06.999Z</time></trkpt><trkpt lat="44.572159074727935" lon="10.1957846052133"><ele>691.0</ele><time>2026-04-06T11:45:07.999Z</time></trkpt><trkpt lat="44.57228356113921" lon="10.19569125644855"><ele>692.0</ele><time>2026-04-06T11:45:08.999Z</time></trkpt><trkpt lat="44.572425594775055" lon="10.195615541530147"><ele>692.0</ele><time>2026-04-06T11:45:09.999Z</time></trkpt><trkpt lat="44.572583150428535" lon="10.195532191798081"><ele>692.0</ele><time>2026-04-06T11:45:10.999Z</time></trkpt><trkpt lat="44.57270460441008" lon="10.195460802183476"><ele>692.0</ele><time>2026-04-06T11:45:11.999Z</time></trkpt><trkpt lat="44.57279729491812" lon="10.195356442441616"><ele>692.0</ele><time>2026-04-06T11:45:12.999Z</time></trkpt><trkpt lat="44.572885340432904" lon="10.19527007702667"><ele>695.5</ele><time>2026-04-06T11:45:13.999Z</time></trkpt><trkpt lat="44.572935762280636" lon="10.195106532296792"><ele>699.0</ele><time>2026-04-06T11:45:14.999Z</time></trkpt><trkpt lat="44.57299232631074" lon="10.194929155732476"><ele>702.5</ele><time>2026-04-06T11:45:15.999Z</time></trkpt><trkpt lat="44.5730637436041" lon="10.194730351566173"><ele>706.0</ele><time>2026-04-06T11:45:16.999Z</time></trkpt><trkpt lat="44.57317378414348" lon="10.194537894067457"><ele>706.0</ele><time>2026-04-06T11:45:17.999Z</time></trkpt><trkpt lat="44.57325485154348" lon="10.194331892599472"><ele>706.0</ele><time>2026-04-06T11:45:18.999Z</time></trkpt><trkpt lat="44.573339228470395" lon="10.194124830371983"><ele>706.0</ele><time>2026-04-06T11:45:19.999Z</time></trkpt><trkpt lat="44.57341186021365" lon="10.193885017987583"><ele>705.0</ele><time>2026-04-06T11:45:20.999Z</time></trkpt><trkpt lat="44.57347342776645" lon="10.193614741229185"><ele>704.0</ele><time>2026-04-06T11:45:21.999Z</time></trkpt><trkpt lat="44.573524383805456" lon="10.193348604103253"><ele>703.0</ele><time>2026-04-06T11:45:22.999Z</time></trkpt><trkpt lat="44.573575410435254" lon="10.193083423549439"><ele>702.3333333333334</ele><time>2026-04-06T11:45:23.999Z</time></trkpt><trkpt lat="44.57363191309916" lon="10.192828189251554"><ele>701.6666666666666</ele><time>2026-04-06T11:45:24.999Z</time></trkpt><trkpt lat="44.57368671881329" lon="10.192584342922373"><ele>701.0</ele><time>2026-04-06T11:45:25.999Z</time></trkpt><trkpt lat="44.573739200815425" lon="10.192333318173663"><ele>706.6666666666666</ele><time>2026-04-06T11:45:26.999Z</time></trkpt><trkpt lat="44.57379125392888" lon="10.192093131481379"><ele>712.3333333333334</ele><time>2026-04-06T11:45:27.999Z</time></trkpt><trkpt lat="44.573841633651796" lon="10.191836188248267"><ele>718.0</ele><time>2026-04-06T11:45:28.999Z</time></trkpt><trkpt lat="44.573888815105065" lon="10.191616697315235"><ele>717.5</ele><time>2026-04-06T11:45:29.999Z</time></trkpt><trkpt lat="44.57393384579274" lon="10.191406715256765"><ele>717.0</ele><time>2026-04-06T11:45:30.999Z</time></trkpt><trkpt lat="44.57397137271533" lon="10.191206183198473"><ele>716.5</ele><time>2026-04-06T11:45:31.999Z</time></trkpt><trkpt lat="44.574012702059846" lon="10.191013253110702"><ele>716.0</ele><time>2026-04-06T11:45:32.999Z</time></trkpt><trkpt lat="44.57405823507349" lon="10.190839144619995"><ele>715.0</ele><time>2026-04-06T11:45:33.999Z</time></trkpt><trkpt lat="44.57409547741821" lon="10.190666250895505"><ele>714.0</ele><time>2026-04-06T11:45:34.999Z</time></trkpt><trkpt lat="44.57414170801173" lon="10.190480327354372"><ele>713.0</ele><time>2026-04-06T11:45:35.999Z</time></trkpt><trkpt lat="44.57419536834512" lon="10.190293977201405"><ele>712.0</ele><time>2026-04-06T11:45:36.999Z</time></trkpt><trkpt lat="44.574279376962" lon="10.190148513023074"><ele>712.0</ele><time>2026-04-06T11:45:37.999Z</time></trkpt><trkpt lat="44.57435870652352" lon="10.189980535935973"><ele>712.0</ele><time>2026-04-06T11:45:38.999Z</time></trkpt><trkpt lat="44.57444439622635" lon="10.189838037496324"><ele>712.0</ele><time>2026-04-06T11:45:39.999Z</time></trkpt><trkpt lat="44.57449993073959" lon="10.189678949859585"><ele>712.0</ele><time>2026-04-06T11:45:40.999Z</time></trkpt><trkpt lat="44.57453381296074" lon="10.189483759319291"><ele>719.6666666666667</ele><time>2026-04-06T11:45:41.999Z</time></trkpt><trkpt lat="44.57454543787686" lon="10.18926548231133"><ele>727.3333333333334</ele><time>2026-04-06T11:45:42.999Z</time></trkpt><trkpt lat="44.57454486688645" lon="10.189034278719262"><ele>735.0</ele><time>2026-04-06T11:45:43.999Z</time></trkpt><trkpt lat="44.574549492617436" lon="10.188801235594756"><ele>735.0</ele><time>2026-04-06T11:45:44.999Z</time></trkpt><trkpt lat="44.574577961822904" lon="10.18857007189471"><ele>735.0</ele><time>2026-04-06T11:45:45.999Z</time></trkpt><trkpt lat="44.57462459525059" lon="10.188342716332244"><ele>735.0</ele><time>2026-04-06T11:45:46.999Z</time></trkpt><trkpt lat="44.57467923892662" lon="10.188135797456438"><ele>736.25</ele><time>2026-04-06T11:45:47.999Z</time></trkpt><trkpt lat="44.57473473489654" lon="10.187933737373898"><ele>737.5</ele><time>2026-04-06T11:45:48.999Z</time></trkpt><trkpt lat="44.57477663390425" lon="10.187773965956273"><ele>738.75</ele><time>2026-04-06T11:45:49.999Z</time></trkpt><trkpt lat="44.574807939492494" lon="10.187613212215776"><ele>740.0</ele><time>2026-04-06T11:45:50.999Z</time></trkpt><trkpt lat="44.57481891882728" lon="10.18745859130543"><ele>742.0</ele><time>2026-04-06T11:45:51.999Z</time></trkpt><trkpt lat="44.5748089827002" lon="10.187305522794935"><ele>744.0</ele><time>2026-04-06T11:45:52.999Z</time></trkpt><trkpt lat="44.574786786126005" lon="10.18714618370053"><ele>746.0</ele><time>2026-04-06T11:45:53.999Z</time></trkpt><trkpt lat="44.57475735127575" lon="10.186965897798832"><ele>748.0</ele><time>2026-04-06T11:45:54.999Z</time></trkpt><trkpt lat="44.57472675095025" lon="10.186774187175448"><ele>748.0</ele><time>2026-04-06T11:45:55.999Z</time></trkpt><trkpt lat="44.57470633496962" lon="10.186598326280683"><ele>748.0</ele><time>2026-04-06T11:45:56.999Z</time></trkpt><trkpt lat="44.574727648249606" lon="10.18644204472052"><ele>748.0</ele><time>2026-04-06T11:45:57.999Z</time></trkpt><trkpt lat="44.57477891496323" lon="10.186295502701293"><ele>748.0</ele><time>2026-04-06T11:45:58.999Z</time></trkpt><trkpt lat="44.57484167110345" lon="10.186125829982048"><ele>748.5</ele><time>2026-04-06T11:45:59.999Z</time></trkpt><trkpt lat="44.57491648088327" lon="10.185962393062814"><ele>749.0</ele><time>2026-04-06T11:46:00.999Z</time></trkpt><trkpt lat="44.57493768091402" lon="10.18577793439924"><ele>749.5</ele><time>2026-04-06T11:46:01.999Z</time></trkpt><trkpt lat="44.574921334887435" lon="10.185580830357416"><ele>750.0</ele><time>2026-04-06T11:46:02.999Z</time></trkpt><trkpt lat="44.57487824940868" lon="10.185367604816289"><ele>752.0</ele><time>2026-04-06T11:46:03.999Z</time></trkpt><trkpt lat="44.574815463561016" lon="10.185134302835886"><ele>754.0</ele><time>2026-04-06T11:46:04.999Z</time></trkpt><trkpt lat="44.574763655989166" lon="10.184891919640787"><ele>756.0</ele><time>2026-04-06T11:46:05.999Z</time></trkpt><trkpt lat="44.57471406797426" lon="10.18462067960324"><ele>759.0</ele><time>2026-04-06T11:46:06.999Z</time></trkpt><trkpt lat="44.5746625354478" lon="10.184354779426497"><ele>762.0</ele><time>2026-04-06T11:46:07.999Z</time></trkpt><trkpt lat="44.57460956079576" lon="10.184098195451455"><ele>765.0</ele><time>2026-04-06T11:46:08.999Z</time></trkpt><trkpt lat="44.57456013901875" lon="10.18386439547281"><ele>761.0</ele><time>2026-04-06T11:46:09.999Z</time></trkpt><trkpt lat="44.57451373064289" lon="10.183623681386392"><ele>757.0</ele><time>2026-04-06T11:46:10.999Z</time></trkpt><trkpt lat="44.574470611821965" lon="10.183391759602126"><ele>753.0</ele><time>2026-04-06T11:46:11.999Z</time></trkpt><trkpt lat="44.57442776466512" lon="10.183179390525757"><ele>753.0</ele><time>2026-04-06T11:46:12.999Z</time></trkpt><trkpt lat="44.57439408213912" lon="10.182997055777182"><ele>753.0</ele><time>2026-04-06T11:46:13.999Z</time></trkpt><trkpt lat="44.57436665335502" lon="10.182837616293867"><ele>753.0</ele><time>2026-04-06T11:46:14.999Z</time></trkpt><trkpt lat="44.57435203244115" lon="10.182664024447513"><ele>753.0</ele><time>2026-04-06T11:46:15.999Z</time></trkpt><trkpt lat="44.574360196931345" lon="10.182480482247598"><ele>752.25</ele><time>2026-04-06T11:46:16.999Z</time></trkpt><trkpt lat="44.57438319905382" lon="10.18228903967769"><ele>751.5</ele><time>2026-04-06T11:46:17.999Z</time></trkpt><trkpt lat="44.57441432600819" lon="10.1821076144929"><ele>750.75</ele><time>2026-04-06T11:46:18.999Z</time></trkpt><trkpt lat="44.57446380028642" lon="10.181936747057092"><ele>750.0</ele><time>2026-04-06T11:46:19.999Z</time></trkpt><trkpt lat="44.574561971442925" lon="10.181815687009168"><ele>759.3333333333333</ele><time>2026-04-06T11:46:20.999Z</time></trkpt><trkpt lat="44.57466193223371" lon="10.181655301336868"><ele>768.6666666666666</ele><time>2026-04-06T11:46:21.999Z</time></trkpt><trkpt lat="44.574736092813474" lon="10.181470998632486"><ele>778.0</ele><time>2026-04-06T11:46:22.999Z</time></trkpt><trkpt lat="44.574796002299266" lon="10.18126295801705"><ele>778.0</ele><time>2026-04-06T11:46:23.999Z</time></trkpt><trkpt lat="44.57488837959319" lon="10.181085848242395"><ele>778.0</ele><time>2026-04-06T11:46:24.999Z</time></trkpt><trkpt lat="44.57497155017914" lon="10.180897488575015"><ele>778.0</ele><time>2026-04-06T11:46:25.999Z</time></trkpt><trkpt lat="44.575074300401255" lon="10.18074019282817"><ele>777.0</ele><time>2026-04-06T11:46:26.999Z</time></trkpt><trkpt lat="44.57515559306425" lon="10.180590348538312"><ele>776.0</ele><time>2026-04-06T11:46:27.999Z</time></trkpt><trkpt lat="44.575215181180376" lon="10.180443028463534"><ele>775.0</ele><time>2026-04-06T11:46:28.999Z</time></trkpt><trkpt lat="44.5752450550814" lon="10.180269179935925"><ele>774.0</ele><time>2026-04-06T11:46:29.999Z</time></trkpt><trkpt lat="44.57525349934914" lon="10.180068061465988"><ele>775.0</ele><time>2026-04-06T11:46:30.999Z</time></trkpt><trkpt lat="44.57523900493724" lon="10.179843103017852"><ele>776.0</ele><time>2026-04-06T11:46:31.999Z</time></trkpt><trkpt lat="44.57524318270466" lon="10.179600090020255"><ele>777.0</ele><time>2026-04-06T11:46:32.999Z</time></trkpt><trkpt lat="44.5752408968536" lon="10.179361279295978"><ele>777.0</ele><time>2026-04-06T11:46:33.999Z</time></trkpt><trkpt lat="44.57522169650075" lon="10.179108036325252"><ele>777.0</ele><time>2026-04-06T11:46:34.999Z</time></trkpt><trkpt lat="44.575222026981045" lon="10.178843288668595"><ele>777.0</ele><time>2026-04-06T11:46:35.999Z</time></trkpt><trkpt lat="44.57522148455323" lon="10.17859122236637"><ele>779.6666666666667</ele><time>2026-04-06T11:46:36.999Z</time></trkpt><trkpt lat="44.575221508167004" lon="10.17838075943725"><ele>782.3333333333334</ele><time>2026-04-06T11:46:37.999Z</time></trkpt><trkpt lat="44.57522455018508" lon="10.17817094098031"><ele>785.0</ele><time>2026-04-06T11:46:38.999Z</time></trkpt><trkpt lat="44.57524923022108" lon="10.177955355995797"><ele>786.3333333333334</ele><time>2026-04-06T11:46:39.999Z</time></trkpt><trkpt lat="44.57531101759095" lon="10.177717701626289"><ele>787.6666666666667</ele><time>2026-04-06T11:46:40.999Z</time></trkpt><trkpt lat="44.57539288281268" lon="10.177477770404291"><ele>789.0</ele><time>2026-04-06T11:46:41.999Z</time></trkpt><trkpt lat="44.575484032165775" lon="10.177239842890224"><ele>796.75</ele><time>2026-04-06T11:46:42.999Z</time></trkpt><trkpt lat="44.575555021581046" lon="10.177043227492621"><ele>804.5</ele><time>2026-04-06T11:46:43.999Z</time></trkpt><trkpt lat="44.57560865440846" lon="10.176856834337901"><ele>812.25</ele><time>2026-04-06T11:46:44.999Z</time></trkpt><trkpt lat="44.57563636275002" lon="10.176668750145911"><ele>820.0</ele><time>2026-04-06T11:46:45.999Z</time></trkpt><trkpt lat="44.57562534241384" lon="10.176480229885575"><ele>823.6666666666666</ele><time>2026-04-06T11:46:46.999Z</time></trkpt><trkpt lat="44.57557137618107" lon="10.176288813320902"><ele>827.3333333333333</ele><time>2026-04-06T11:46:47.999Z</time></trkpt><trkpt lat="44.5754812553788" lon="10.176101863414074"><ele>831.0</ele><time>2026-04-06T11:46:48.999Z</time></trkpt><trkpt lat="44.57535008397427" lon="10.175941034654855"><ele>827.25</ele><time>2026-04-06T11:46:49.999Z</time></trkpt><trkpt lat="44.57521799005047" lon="10.175811973683011"><ele>823.5</ele><time>2026-04-06T11:46:50.999Z</time></trkpt><trkpt lat="44.57511429268641" lon="10.175700963500855"><ele>819.75</ele><time>2026-04-06T11:46:51.999Z</time></trkpt><trkpt lat="44.575059476194866" lon="10.175550487711753"><ele>816.0</ele><time>2026-04-06T11:46:52.999Z</time></trkpt><trkpt lat="44.57502978546649" lon="10.175383603128129"><ele>816.0</ele><time>2026-04-06T11:46:53.999Z</time></trkpt><trkpt lat="44.57501681788315" lon="10.175190682892783"><ele>816.0</ele><time>2026-04-06T11:46:54.999Z</time></trkpt><trkpt lat="44.57499605525535" lon="10.174959235496019"><ele>816.0</ele><time>2026-04-06T11:46:55.999Z</time></trkpt><trkpt lat="44.574979426994716" lon="10.174698311266079"><ele>818.6666666666667</ele><time>2026-04-06T11:46:56.999Z</time></trkpt><trkpt lat="44.57495847930712" lon="10.174406956035728"><ele>821.3333333333334</ele><time>2026-04-06T11:46:57.999Z</time></trkpt><trkpt lat="44.574939904738294" lon="10.174127758199267"><ele>824.0</ele><time>2026-04-06T11:46:58.999Z</time></trkpt><trkpt lat="44.574922520532105" lon="10.1738609837385"><ele>825.0</ele><time>2026-04-06T11:46:59.999Z</time></trkpt><trkpt lat="44.57490808095366" lon="10.173603909856455"><ele>826.0</ele><time>2026-04-06T11:47:00.999Z</time></trkpt><trkpt lat="44.57489484692698" lon="10.173381354129642"><ele>827.0</ele><time>2026-04-06T11:47:01.999Z</time></trkpt><trkpt lat="44.5748765017705" lon="10.173167715540757"><ele>829.5</ele><time>2026-04-06T11:47:02.999Z</time></trkpt><trkpt lat="44.574841231018524" lon="10.172988626012893"><ele>832.0</ele><time>2026-04-06T11:47:03.999Z</time></trkpt><trkpt lat="44.57477588134329" lon="10.172833810700482"><ele>834.5</ele><time>2026-04-06T11:47:04.999Z</time></trkpt><trkpt lat="44.57467598140819" lon="10.172691508618753"><ele>837.0</ele><time>2026-04-06T11:47:05.999Z</time></trkpt><trkpt lat="44.57456154390684" lon="10.172573648569802"><ele>834.5</ele><time>2026-04-06T11:47:06.999Z</time></trkpt><trkpt lat="44.57449608223103" lon="10.172444090762376"><ele>832.0</ele><time>2026-04-06T11:47:07.999Z</time></trkpt><trkpt lat="44.574445895174485" lon="10.17231489509803"><ele>829.5</ele><time>2026-04-06T11:47:08.999Z</time></trkpt><trkpt lat="44.57446249246249" lon="10.172130580751903"><ele>827.0</ele><time>2026-04-06T11:47:09.999Z</time></trkpt><trkpt lat="44.57448492041847" lon="10.17192640971472"><ele>827.0</ele><time>2026-04-06T11:47:10.999Z</time></trkpt><trkpt lat="44.57450726063407" lon="10.171674967176887"><ele>827.0</ele><time>2026-04-06T11:47:11.999Z</time></trkpt><trkpt lat="44.57455574600864" lon="10.17143341957063"><ele>827.0</ele><time>2026-04-06T11:47:12.999Z</time></trkpt><trkpt lat="44.57464154936841" lon="10.171252633988903"><ele>831.4000000000001</ele><time>2026-04-06T11:47:13.999Z</time></trkpt><trkpt lat="44.57467124311764" lon="10.171089047742472"><ele>835.8000000000001</ele><time>2026-04-06T11:47:14.999Z</time></trkpt><trkpt lat="44.574683598532935" lon="10.170947308098283"><ele>840.2</ele><time>2026-04-06T11:47:15.999Z</time></trkpt><trkpt lat="44.57464811071668" lon="10.170810072797247"><ele>844.6</ele><time>2026-04-06T11:47:16.999Z</time></trkpt><trkpt lat="44.574583128783466" lon="10.17066988449198"><ele>849.0</ele><time>2026-04-06T11:47:17.999Z</time></trkpt><trkpt lat="44.57448112007881" lon="10.170499731951832"><ele>849.0</ele><time>2026-04-06T11:47:18.999Z</time></trkpt><trkpt lat="44.5743770768068" lon="10.170302538518406"><ele>849.0</ele><time>2026-04-06T11:47:19.999Z</time></trkpt><trkpt lat="44.574282829920264" lon="10.17010654736745"><ele>849.0</ele><time>2026-04-06T11:47:20.999Z</time></trkpt><trkpt lat="44.5741931043408" lon="10.169933065174119"><ele>850.5</ele><time>2026-04-06T11:47:21.999Z</time></trkpt><trkpt lat="44.57410586670616" lon="10.169768115066663"><ele>852.0</ele><time>2026-04-06T11:47:22.999Z</time></trkpt><trkpt lat="44.574026212280174" lon="10.16960738216531"><ele>853.5</ele><time>2026-04-06T11:47:23.999Z</time></trkpt><trkpt lat="44.573947793198556" lon="10.169449003615984"><ele>855.0</ele><time>2026-04-06T11:47:24.999Z</time></trkpt><trkpt lat="44.57387038064105" lon="10.169296625528316"><ele>855.0</ele><time>2026-04-06T11:47:25.999Z</time></trkpt><trkpt lat="44.573800790249024" lon="10.169156414937444"><ele>855.0</ele><time>2026-04-06T11:47:26.999Z</time></trkpt><trkpt lat="44.57373950584273" lon="10.16903213206275"><ele>855.0</ele><time>2026-04-06T11:47:27.999Z</time></trkpt><trkpt lat="44.57368797976271" lon="10.168930401960129"><ele>855.0</ele><time>2026-04-06T11:47:28.999Z</time></trkpt><trkpt lat="44.57364175253095" lon="10.168817416666231"><ele>855.0</ele><time>2026-04-06T11:47:29.999Z</time></trkpt><trkpt lat="44.5736230459073" lon="10.168692963325809"><ele>853.0</ele><time>2026-04-06T11:47:30.999Z</time></trkpt><trkpt lat="44.57363379763898" lon="10.168569949639531"><ele>851.0</ele><time>2026-04-06T11:47:31.999Z</time></trkpt><trkpt lat="44.57366933245639" lon="10.16844827333983"><ele>849.0</ele><time>2026-04-06T11:47:32.999Z</time></trkpt><trkpt lat="44.57373575576638" lon="10.16834746306651"><ele>847.0</ele><time>2026-04-06T11:47:33.999Z</time></trkpt><trkpt lat="44.57382665593416" lon="10.168282925008745"><ele>845.0</ele><time>2026-04-06T11:47:34.999Z</time></trkpt><trkpt lat="44.573918026573004" lon="10.168210879019746"><ele>841.0</ele><time>2026-04-06T11:47:35.999Z</time></trkpt><trkpt lat="44.57405222055456" lon="10.168121160272298"><ele>837.0</ele><time>2026-04-06T11:47:36.999Z</time></trkpt><trkpt lat="44.57418499537677" lon="10.168034053666776"><ele>833.0</ele><time>2026-04-06T11:47:37.999Z</time></trkpt><trkpt lat="44.57430540731813" lon="10.167955057543542"><ele>829.0</ele><time>2026-04-06T11:47:38.999Z</time></trkpt><trkpt lat="44.57442270127957" lon="10.167881699059581"><ele>832.5</ele><time>2026-04-06T11:47:39.999Z</time></trkpt><trkpt lat="44.5745461155935" lon="10.167795446729825"><ele>836.0</ele><time>2026-04-06T11:47:40.999Z</time></trkpt><trkpt lat="44.57464703866152" lon="10.167680781427313"><ele>839.5</ele><time>2026-04-06T11:47:41.999Z</time></trkpt><trkpt lat="44.57473866902118" lon="10.167547587202652"><ele>843.0</ele><time>2026-04-06T11:47:42.999Z</time></trkpt><trkpt lat="44.574811444942604" lon="10.167366121492314"><ele>839.3333333333333</ele><time>2026-04-06T11:47:43.999Z</time></trkpt><trkpt lat="44.57487120775626" lon="10.167158170804017"><ele>835.6666666666666</ele><time>2026-04-06T11:47:44.999Z</time></trkpt><trkpt lat="44.57492766484635" lon="10.166932776101437"><ele>832.0</ele><time>2026-04-06T11:47:45.999Z</time></trkpt><trkpt lat="44.5749813936295" lon="10.16671603645529"><ele>832.0</ele><time>2026-04-06T11:47:46.999Z</time></trkpt><trkpt lat="44.57503561238078" lon="10.16653540535288"><ele>832.0</ele><time>2026-04-06T11:47:47.999Z</time></trkpt><trkpt lat="44.57510691061118" lon="10.166415942871726"><ele>832.0</ele><time>2026-04-06T11:47:48.999Z</time></trkpt><trkpt lat="44.57519354317547" lon="10.166332510821748"><ele>832.0</ele><time>2026-04-06T11:47:49.999Z</time></trkpt><trkpt lat="44.575307579203205" lon="10.166316546492942"><ele>833.0</ele><time>2026-04-06T11:47:50.999Z</time></trkpt><trkpt lat="44.575400001674964" lon="10.166249583012227"><ele>834.0</ele><time>2026-04-06T11:47:51.999Z</time></trkpt><trkpt lat="44.575471180200466" lon="10.166155808960761"><ele>835.0</ele><time>2026-04-06T11:47:52.999Z</time></trkpt><trkpt lat="44.57552574352814" lon="10.166033695955836"><ele>836.0</ele><time>2026-04-06T11:47:53.999Z</time></trkpt><trkpt lat="44.575554595460396" lon="10.165896189506038"><ele>837.0</ele><time>2026-04-06T11:47:54.999Z</time></trkpt><trkpt lat="44.575549161151386" lon="10.165720442420206"><ele>835.5</ele><time>2026-04-06T11:47:55.999Z</time></trkpt><trkpt lat="44.57550543372643" lon="10.165554506405874"><ele>834.0</ele><time>2026-04-06T11:47:56.999Z</time></trkpt><trkpt lat="44.575424976734524" lon="10.165406583708513"><ele>832.5</ele><time>2026-04-06T11:47:57.999Z</time></trkpt><trkpt lat="44.57532839604287" lon="10.165275347569379"><ele>831.0</ele><time>2026-04-06T11:47:58.999Z</time></trkpt><trkpt lat="44.5752678805871" lon="10.165145003088933"><ele>829.25</ele><time>2026-04-06T11:47:59.999Z</time></trkpt><trkpt lat="44.57524103260918" lon="10.165009846398009"><ele>827.5</ele><time>2026-04-06T11:48:00.999Z</time></trkpt><trkpt lat="44.57525669105224" lon="10.164869208247033"><ele>825.75</ele><time>2026-04-06T11:48:01.999Z</time></trkpt><trkpt lat="44.57534423218996" lon="10.164742102195381"><ele>824.0</ele><time>2026-04-06T11:48:02.999Z</time></trkpt><trkpt lat="44.57541554973319" lon="10.164552069736459"><ele>824.0</ele><time>2026-04-06T11:48:03.999Z</time></trkpt><trkpt lat="44.57547081590305" lon="10.16432782383532"><ele>824.0</ele><time>2026-04-06T11:48:04.999Z</time></trkpt><trkpt lat="44.575485602693966" lon="10.164102651235426"><ele>824.0</ele><time>2026-04-06T11:48:05.999Z</time></trkpt><trkpt lat="44.57551596783998" lon="10.163901522382675"><ele>819.0</ele><time>2026-04-06T11:48:06.999Z</time></trkpt><trkpt lat="44.57555501792373" lon="10.163715706540524"><ele>814.0</ele><time>2026-04-06T11:48:07.999Z</time></trkpt><trkpt lat="44.575641709415784" lon="10.163526068221595"><ele>809.0</ele><time>2026-04-06T11:48:08.999Z</time></trkpt><trkpt lat="44.575720272501194" lon="10.163334105983914"><ele>804.25</ele><time>2026-04-06T11:48:09.999Z</time></trkpt><trkpt lat="44.57579311707841" lon="10.163165088926618"><ele>799.5</ele><time>2026-04-06T11:48:10.999Z</time></trkpt><trkpt lat="44.57586933823585" lon="10.163025995393253"><ele>794.75</ele><time>2026-04-06T11:48:11.999Z</time></trkpt><trkpt lat="44.575956848518224" lon="10.162918945750569"><ele>790.0</ele><time>2026-04-06T11:48:12.999Z</time></trkpt><trkpt lat="44.57606869823127" lon="10.16283914602065"><ele>794.25</ele><time>2026-04-06T11:48:13.999Z</time></trkpt><trkpt lat="44.576190697692" lon="10.162773683655493"><ele>798.5</ele><time>2026-04-06T11:48:14.999Z</time></trkpt><trkpt lat="44.57630198900447" lon="10.162693961258979"><ele>802.75</ele><time>2026-04-06T11:48:15.999Z</time></trkpt><trkpt lat="44.57639415462405" lon="10.162573726720801"><ele>807.0</ele><time>2026-04-06T11:48:16.999Z</time></trkpt><trkpt lat="44.576478727073706" lon="10.162412142455233"><ele>802.0</ele><time>2026-04-06T11:48:17.999Z</time></trkpt><trkpt lat="44.57655031887588" lon="10.162209453311023"><ele>797.0</ele><time>2026-04-06T11:48:18.999Z</time></trkpt><trkpt lat="44.57660364244108" lon="10.16198319341008"><ele>792.0</ele><time>2026-04-06T11:48:19.999Z</time></trkpt><trkpt lat="44.57667122067043" lon="10.161778312181587"><ele>792.0</ele><time>2026-04-06T11:48:20.999Z</time></trkpt><trkpt lat="44.57673533514367" lon="10.16157258155792"><ele>792.0</ele><time>2026-04-06T11:48:21.999Z</time></trkpt><trkpt lat="44.57679074276218" lon="10.161380869443596"><ele>792.0</ele><time>2026-04-06T11:48:22.999Z</time></trkpt><trkpt lat="44.576845356558" lon="10.161216500629926"><ele>792.0</ele><time>2026-04-06T11:48:23.999Z</time></trkpt><trkpt lat="44.57694018030322" lon="10.161105507403423"><ele>792.5</ele><time>2026-04-06T11:48:24.999Z</time></trkpt><trkpt lat="44.57705404116525" lon="10.161007192396163"><ele>793.0</ele><time>2026-04-06T11:48:25.999Z</time></trkpt><trkpt lat="44.57715004151492" lon="10.160846202141332"><ele>793.5</ele><time>2026-04-06T11:48:26.999Z</time></trkpt><trkpt lat="44.57724919145347" lon="10.160660818166262"><ele>794.0</ele><time>2026-04-06T11:48:27.999Z</time></trkpt><trkpt lat="44.577325363000874" lon="10.160475761105229"><ele>788.8000000000001</ele><time>2026-04-06T11:48:28.999Z</time></trkpt><trkpt lat="44.57739635723431" lon="10.160310352918746"><ele>783.6</ele><time>2026-04-06T11:48:29.999Z</time></trkpt><trkpt lat="44.577468474015795" lon="10.16020381602859"><ele>778.4</ele><time>2026-04-06T11:48:30.999Z</time></trkpt><trkpt lat="44.57753241280544" lon="10.160133959585258"><ele>773.2</ele><time>2026-04-06T11:48:31.999Z</time></trkpt><trkpt lat="44.577616452089714" lon="10.160135030181268"><ele>768.0</ele><time>2026-04-06T11:48:32.999Z</time></trkpt><trkpt lat="44.5777194798519" lon="10.160183910164585"><ele>768.0</ele><time>2026-04-06T11:48:33.999Z</time></trkpt><trkpt lat="44.5778326342457" lon="10.160275359695614"><ele>768.0</ele><time>2026-04-06T11:48:34.999Z</time></trkpt><trkpt lat="44.57795810923554" lon="10.160336195181813"><ele>768.0</ele><time>2026-04-06T11:48:35.999Z</time></trkpt><trkpt lat="44.57807042200929" lon="10.160394887784385"><ele>768.0</ele><time>2026-04-06T11:48:36.999Z</time></trkpt><trkpt lat="44.57819785456202" lon="10.160398463564501"><ele>767.25</ele><time>2026-04-06T11:48:37.999Z</time></trkpt><trkpt lat="44.57832362991911" lon="10.160362359934748"><ele>766.5</ele><time>2026-04-06T11:48:38.999Z</time></trkpt><trkpt lat="44.578441000721305" lon="10.160279295826184"><ele>765.75</ele><time>2026-04-06T11:48:39.999Z</time></trkpt><trkpt lat="44.578549120324844" lon="10.160181758319647"><ele>765.0</ele><time>2026-04-06T11:48:40.999Z</time></trkpt><trkpt lat="44.57865687574151" lon="10.160102058079978"><ele>762.6</ele><time>2026-04-06T11:48:42Z</time></trkpt><trkpt lat="44.57875556415163" lon="10.160069497111476"><ele>760.2</ele><time>2026-04-06T11:48:43Z</time></trkpt><trkpt lat="44.578849233286434" lon="10.160085984442349"><ele>757.8</ele><time>2026-04-06T11:48:44Z</time></trkpt><trkpt lat="44.57892836647566" lon="10.160190194653223"><ele>755.4</ele><time>2026-04-06T11:48:45Z</time></trkpt><trkpt lat="44.579002898950385" lon="10.160325902623036"><ele>753.0</ele><time>2026-04-06T11:48:46Z</time></trkpt><trkpt lat="44.579091122120204" lon="10.160485809543355"><ele>753.0</ele><time>2026-04-06T11:48:47Z</time></trkpt><trkpt lat="44.579188189649" lon="10.160645546488782"><ele>753.0</ele><time>2026-04-06T11:48:48Z</time></trkpt><trkpt lat="44.57928077721485" lon="10.16082634869668"><ele>753.0</ele><time>2026-04-06T11:48:49Z</time></trkpt><trkpt lat="44.579360241782176" lon="10.16098575185169"><ele>753.0</ele><time>2026-04-06T11:48:50Z</time></trkpt><trkpt lat="44.579431453453594" lon="10.161105965687211"><ele>753.8</ele><time>2026-04-06T11:48:51Z</time></trkpt><trkpt lat="44.57953026527739" lon="10.161187211867027"><ele>754.5999999999999</ele><time>2026-04-06T11:48:52Z</time></trkpt><trkpt lat="44.57961915096097" lon="10.16122112713793"><ele>755.4000000000001</ele><time>2026-04-06T11:48:53Z</time></trkpt><trkpt lat="44.57972097585571" lon="10.161188385454327"><ele>756.2</ele><time>2026-04-06T11:48:54Z</time></trkpt><trkpt lat="44.57982258006717" lon="10.161111561114781"><ele>757.0</ele><time>2026-04-06T11:48:55Z</time></trkpt><trkpt lat="44.579918834138944" lon="10.160962323131352"><ele>757.0</ele><time>2026-04-06T11:48:56Z</time></trkpt><trkpt lat="44.58001749773493" lon="10.160819568855045"><ele>757.0</ele><time>2026-04-06T11:48:57Z</time></trkpt><trkpt lat="44.58014122567157" lon="10.160702872140584"><ele>757.0</ele><time>2026-04-06T11:48:58Z</time></trkpt><trkpt lat="44.58030059447245" lon="10.160625950772141"><ele>751.6666666666667</ele><time>2026-04-06T11:48:59Z</time></trkpt><trkpt lat="44.58045171818179" lon="10.160553481775572"><ele>746.3333333333334</ele><time>2026-04-06T11:49:00Z</time></trkpt><trkpt lat="44.58061220003057" lon="10.160473731312573"><ele>741.0</ele><time>2026-04-06T11:49:01Z</time></trkpt><trkpt lat="44.580772904644704" lon="10.160379817677384"><ele>741.0</ele><time>2026-04-06T11:49:02Z</time></trkpt><trkpt lat="44.58094030921207" lon="10.160296000280905"><ele>741.0</ele><time>2026-04-06T11:49:03Z</time></trkpt><trkpt lat="44.581098685387175" lon="10.160216470433472"><ele>741.0</ele><time>2026-04-06T11:49:04Z</time></trkpt><trkpt lat="44.58124212879911" lon="10.16013023171551"><ele>740.75</ele><time>2026-04-06T11:49:05Z</time></trkpt><trkpt lat="44.581372787434695" lon="10.160073474451671"><ele>740.5</ele><time>2026-04-06T11:49:06Z</time></trkpt><trkpt lat="44.58149242481431" lon="10.160022300291086"><ele>740.25</ele><time>2026-04-06T11:49:07Z</time></trkpt><trkpt lat="44.581597839511666" lon="10.159993475042828"><ele>740.0</ele><time>2026-04-06T11:49:08Z</time></trkpt><trkpt lat="44.58170285464882" lon="10.160021234019602"><ele>740.0</ele><time>2026-04-06T11:49:09Z</time></trkpt><trkpt lat="44.58179829537417" lon="10.160124697219134"><ele>740.0</ele><time>2026-04-06T11:49:10Z</time></trkpt><trkpt lat="44.58188732478327" lon="10.160294428389571"><ele>740.0</ele><time>2026-04-06T11:49:11Z</time></trkpt><trkpt lat="44.58197621732315" lon="10.1605030433023"><ele>740.0</ele><time>2026-04-06T11:49:12Z</time></trkpt><trkpt lat="44.58207486630905" lon="10.160709964304269"><ele>735.6666666666666</ele><time>2026-04-06T11:49:13Z</time></trkpt><trkpt lat="44.58217081739169" lon="10.160917942287119"><ele>731.3333333333334</ele><time>2026-04-06T11:49:14Z</time></trkpt><trkpt lat="44.582247974987986" lon="10.161124132622017"><ele>727.0</ele><time>2026-04-06T11:49:15Z</time></trkpt><trkpt lat="44.582329166970375" lon="10.161302700324448"><ele>727.0</ele><time>2026-04-06T11:49:16Z</time></trkpt><trkpt lat="44.5824336793498" lon="10.161458576056226"><ele>727.0</ele><time>2026-04-06T11:49:17Z</time></trkpt><trkpt lat="44.5825435973906" lon="10.161595892971816"><ele>727.0</ele><time>2026-04-06T11:49:18Z</time></trkpt><trkpt lat="44.58265594653434" lon="10.161730292192688"><ele>727.0</ele><time>2026-04-06T11:49:19Z</time></trkpt><trkpt lat="44.58275827576714" lon="10.161864988836827"><ele>725.5</ele><time>2026-04-06T11:49:20Z</time></trkpt><trkpt lat="44.582854431706465" lon="10.162004234513276"><ele>724.0</ele><time>2026-04-06T11:49:21Z</time></trkpt><trkpt lat="44.58294067430352" lon="10.162127923104467"><ele>722.5</ele><time>2026-04-06T11:49:22Z</time></trkpt><trkpt lat="44.58302847496692" lon="10.16223118178749"><ele>721.0</ele><time>2026-04-06T11:49:23Z</time></trkpt><trkpt lat="44.58313329957538" lon="10.162299568436271"><ele>721.0</ele><time>2026-04-06T11:49:24Z</time></trkpt><trkpt lat="44.58324966990055" lon="10.162325687213825"><ele>721.0</ele><time>2026-04-06T11:49:25Z</time></trkpt><trkpt lat="44.58337548050038" lon="10.162309853801597"><ele>721.0</ele><time>2026-04-06T11:49:26Z</time></trkpt><trkpt lat="44.58350931300253" lon="10.162241211994102"><ele>721.0</ele><time>2026-04-06T11:49:27Z</time></trkpt><trkpt lat="44.58364469748304" lon="10.16212753267804"><ele>725.0</ele><time>2026-04-06T11:49:28Z</time></trkpt><trkpt lat="44.58376296112729" lon="10.161986429785228"><ele>729.0</ele><time>2026-04-06T11:49:29Z</time></trkpt><trkpt lat="44.5838561259931" lon="10.161808014605512"><ele>733.0</ele><time>2026-04-06T11:49:30Z</time></trkpt><trkpt lat="44.58393780276495" lon="10.161606657439707"><ele>727.3333333333334</ele><time>2026-04-06T11:49:31Z</time></trkpt><trkpt lat="44.58401335761616" lon="10.16137994049873"><ele>721.6666666666666</ele><time>2026-04-06T11:49:32Z</time></trkpt><trkpt lat="44.58409620607963" lon="10.16115556549903"><ele>716.0</ele><time>2026-04-06T11:49:33Z</time></trkpt><trkpt lat="44.58418949184431" lon="10.160934894652376"><ele>716.0</ele><time>2026-04-06T11:49:34Z</time></trkpt><trkpt lat="44.58427962480482" lon="10.160715211982717"><ele>716.0</ele><time>2026-04-06T11:49:35Z</time></trkpt><trkpt lat="44.58436283035525" lon="10.1605010791428"><ele>716.0</ele><time>2026-04-06T11:49:36Z</time></trkpt><trkpt lat="44.58444417095217" lon="10.16027376608856"><ele>711.3333333333333</ele><time>2026-04-06T11:49:37Z</time></trkpt><trkpt lat="44.58450214015992" lon="10.16005205931949"><ele>706.6666666666666</ele><time>2026-04-06T11:49:38Z</time></trkpt><trkpt lat="44.58454687340876" lon="10.159825752927109"><ele>702.0</ele><time>2026-04-06T11:49:39Z</time></trkpt><trkpt lat="44.58458956378996" lon="10.159623198439027"><ele>701.8</ele><time>2026-04-06T11:49:40Z</time></trkpt><trkpt lat="44.584627154015415" lon="10.15945856036434"><ele>701.6</ele><time>2026-04-06T11:49:41Z</time></trkpt><trkpt lat="44.584658800144325" lon="10.15931220947529"><ele>701.4</ele><time>2026-04-06T11:49:42Z</time></trkpt><trkpt lat="44.58470885030539" lon="10.159196190483334"><ele>701.1999999999999</ele><time>2026-04-06T11:49:43Z</time></trkpt><trkpt lat="44.58478889211517" lon="10.159114474282969"><ele>701.0</ele><time>2026-04-06T11:49:44Z</time></trkpt><trkpt lat="44.58489375081156" lon="10.159100576989733"><ele>701.0</ele><time>2026-04-06T11:49:45Z</time></trkpt><trkpt lat="44.584994597278744" lon="10.159154561918097"><ele>701.0</ele><time>2026-04-06T11:49:46Z</time></trkpt><trkpt lat="44.58507116853253" lon="10.1592852466195"><ele>701.0</ele><time>2026-04-06T11:49:47Z</time></trkpt><trkpt lat="44.585109292034915" lon="10.159464523342328"><ele>701.0</ele><time>2026-04-06T11:49:48Z</time></trkpt><trkpt lat="44.585141690119094" lon="10.159641829736472"><ele>701.0</ele><time>2026-04-06T11:49:49Z</time></trkpt><trkpt lat="44.585180359525914" lon="10.159760031689077"><ele>701.0</ele><time>2026-04-06T11:49:50Z</time></trkpt><trkpt lat="44.58526454195709" lon="10.159834473071992"><ele>701.0</ele><time>2026-04-06T11:49:51Z</time></trkpt><trkpt lat="44.58536905466676" lon="10.1598464439618"><ele>701.0</ele><time>2026-04-06T11:49:52Z</time></trkpt><trkpt lat="44.58548945858326" lon="10.159813173223588"><ele>701.0</ele><time>2026-04-06T11:49:53Z</time></trkpt><trkpt lat="44.58560519504114" lon="10.159731914625109"><ele>700.0</ele><time>2026-04-06T11:49:54Z</time></trkpt><trkpt lat="44.58573581672522" lon="10.15961775036302"><ele>699.0</ele><time>2026-04-06T11:49:55Z</time></trkpt><trkpt lat="44.58589316848933" lon="10.15948155310972"><ele>698.0</ele><time>2026-04-06T11:49:56Z</time></trkpt><trkpt lat="44.58605317273319" lon="10.159366092851297"><ele>700.0</ele><time>2026-04-06T11:49:57Z</time></trkpt><trkpt lat="44.586193131190036" lon="10.159269048079215"><ele>702.0</ele><time>2026-04-06T11:49:58Z</time></trkpt><trkpt lat="44.58631330752315" lon="10.159185120688136"><ele>704.0</ele><time>2026-04-06T11:49:59Z</time></trkpt><trkpt lat="44.58642496321357" lon="10.159111292835144"><ele>706.0</ele><time>2026-04-06T11:50:00Z</time></trkpt><trkpt lat="44.586527919446446" lon="10.159034399461252"><ele>705.0</ele><time>2026-04-06T11:50:01Z</time></trkpt><trkpt lat="44.58662704892835" lon="10.158964875425285"><ele>704.0</ele><time>2026-04-06T11:50:02Z</time></trkpt><trkpt lat="44.58672177026989" lon="10.158899191523036"><ele>703.0</ele><time>2026-04-06T11:50:03Z</time></trkpt><trkpt lat="44.58681314422037" lon="10.15882021456034"><ele>702.0</ele><time>2026-04-06T11:50:04Z</time></trkpt><trkpt lat="44.58689009773516" lon="10.158718574711111"><ele>701.0</ele><time>2026-04-06T11:50:05Z</time></trkpt><trkpt lat="44.58694017873391" lon="10.15858402028849"><ele>701.0</ele><time>2026-04-06T11:50:06Z</time></trkpt><trkpt lat="44.586968754448236" lon="10.158420465650703"><ele>701.0</ele><time>2026-04-06T11:50:07Z</time></trkpt><trkpt lat="44.58697595023422" lon="10.158241322675984"><ele>701.0</ele><time>2026-04-06T11:50:08Z</time></trkpt><trkpt lat="44.586999187604555" lon="10.158079202043604"><ele>701.0</ele><time>2026-04-06T11:50:09Z</time></trkpt><trkpt lat="44.58701262909409" lon="10.157955097986088"><ele>700.0</ele><time>2026-04-06T11:50:10Z</time></trkpt><trkpt lat="44.587014059181094" lon="10.157848161227546"><ele>699.0</ele><time>2026-04-06T11:50:11Z</time></trkpt><trkpt lat="44.58705223616399" lon="10.157761096419058"><ele>698.0</ele><time>2026-04-06T11:50:12Z</time></trkpt><trkpt lat="44.58709689813949" lon="10.157669808363625"><ele>697.0</ele><time>2026-04-06T11:50:13Z</time></trkpt><trkpt lat="44.587176609634746" lon="10.157586389546458"><ele>696.0</ele><time>2026-04-06T11:50:14Z</time></trkpt><trkpt lat="44.58728729688488" lon="10.157503964159055"><ele>696.0</ele><time>2026-04-06T11:50:15Z</time></trkpt><trkpt lat="44.58741243369108" lon="10.157400485942894"><ele>696.0</ele><time>2026-04-06T11:50:16Z</time></trkpt><trkpt lat="44.58753207697722" lon="10.157328010888673"><ele>696.0</ele><time>2026-04-06T11:50:17Z</time></trkpt><trkpt lat="44.58763031419257" lon="10.157215224839733"><ele>696.0</ele><time>2026-04-06T11:50:18Z</time></trkpt><trkpt lat="44.587712994546365" lon="10.157061539861418"><ele>697.5</ele><time>2026-04-06T11:50:19Z</time></trkpt><trkpt lat="44.58778654926057" lon="10.156897895390241"><ele>699.0</ele><time>2026-04-06T11:50:20Z</time></trkpt><trkpt lat="44.587842330467794" lon="10.15672334075588"><ele>700.5</ele><time>2026-04-06T11:50:21Z</time></trkpt><trkpt lat="44.58786189768433" lon="10.156519995928846"><ele>702.0</ele><time>2026-04-06T11:50:22Z</time></trkpt><trkpt lat="44.587861638877285" lon="10.156318003216736"><ele>702.0</ele><time>2026-04-06T11:50:23Z</time></trkpt><trkpt lat="44.58786917890719" lon="10.156120746744238"><ele>702.0</ele><time>2026-04-06T11:50:24Z</time></trkpt><trkpt lat="44.58788868267464" lon="10.1559187517382"><ele>702.0</ele><time>2026-04-06T11:50:25Z</time></trkpt><trkpt lat="44.58791012846587" lon="10.155705349691308"><ele>702.0</ele><time>2026-04-06T11:50:26Z</time></trkpt><trkpt lat="44.58791904773681" lon="10.155509668526362"><ele>702.75</ele><time>2026-04-06T11:50:27Z</time></trkpt><trkpt lat="44.58791068643688" lon="10.155320368364494"><ele>703.5</ele><time>2026-04-06T11:50:28Z</time></trkpt><trkpt lat="44.58787299038203" lon="10.155129084661302"><ele>704.25</ele><time>2026-04-06T11:50:29Z</time></trkpt><trkpt lat="44.587819920860134" lon="10.154932225162872"><ele>705.0</ele><time>2026-04-06T11:50:30Z</time></trkpt><trkpt lat="44.58778496796278" lon="10.154727749424765"><ele>697.25</ele><time>2026-04-06T11:50:31Z</time></trkpt><trkpt lat="44.587768705561885" lon="10.154523235261179"><ele>689.5</ele><time>2026-04-06T11:50:32Z</time></trkpt><trkpt lat="44.587763435407425" lon="10.154336208691756"><ele>681.75</ele><time>2026-04-06T11:50:33Z</time></trkpt><trkpt lat="44.58775592214547" lon="10.154159822586681"><ele>674.0</ele><time>2026-04-06T11:50:34Z</time></trkpt><trkpt lat="44.587722112632875" lon="10.153991673077615"><ele>674.0</ele><time>2026-04-06T11:50:35Z</time></trkpt><trkpt lat="44.587655948417755" lon="10.15383424655088"><ele>674.0</ele><time>2026-04-06T11:50:36Z</time></trkpt><trkpt lat="44.58757001878209" lon="10.153680065041799"><ele>674.0</ele><time>2026-04-06T11:50:37Z</time></trkpt><trkpt lat="44.58750206680852" lon="10.153536045175448"><ele>674.0</ele><time>2026-04-06T11:50:38Z</time></trkpt><trkpt lat="44.58745494798171" lon="10.153392293555353"><ele>674.0</ele><time>2026-04-06T11:50:39Z</time></trkpt><trkpt lat="44.58746329456492" lon="10.153228569604195"><ele>674.0</ele><time>2026-04-06T11:50:40Z</time></trkpt><trkpt lat="44.58744853604975" lon="10.153054815330137"><ele>674.0</ele><time>2026-04-06T11:50:41Z</time></trkpt><trkpt lat="44.58745896577346" lon="10.15287261364056"><ele>674.0</ele><time>2026-04-06T11:50:42Z</time></trkpt><trkpt lat="44.58746317175818" lon="10.152692228201262"><ele>673.0</ele><time>2026-04-06T11:50:43Z</time></trkpt><trkpt lat="44.5874627012732" lon="10.152521590743039"><ele>672.0</ele><time>2026-04-06T11:50:44Z</time></trkpt><trkpt lat="44.58745850459857" lon="10.152356835672082"><ele>671.0</ele><time>2026-04-06T11:50:45Z</time></trkpt><trkpt lat="44.587459156975996" lon="10.152195757252022"><ele>670.0</ele><time>2026-04-06T11:50:46Z</time></trkpt><trkpt lat="44.587466235447216" lon="10.152041025880568"><ele>668.0</ele><time>2026-04-06T11:50:47Z</time></trkpt><trkpt lat="44.58748946786675" lon="10.151892723400527"><ele>666.0</ele><time>2026-04-06T11:50:48Z</time></trkpt><trkpt lat="44.58753974801022" lon="10.151764188451967"><ele>664.0</ele><time>2026-04-06T11:50:49Z</time></trkpt><trkpt lat="44.58763097632766" lon="10.151664839413638"><ele>662.0</ele><time>2026-04-06T11:50:50Z</time></trkpt><trkpt lat="44.58772407957079" lon="10.151557730635718"><ele>660.0</ele><time>2026-04-06T11:50:50.999Z</time></trkpt><trkpt lat="44.58783166003159" lon="10.15143913909316"><ele>660.0</ele><time>2026-04-06T11:50:51.999Z</time></trkpt><trkpt lat="44.58793691385205" lon="10.151323771333141"><ele>660.0</ele><time>2026-04-06T11:50:52.999Z</time></trkpt><trkpt lat="44.588024645161" lon="10.151198253263443"><ele>660.0</ele><time>2026-04-06T11:50:53.999Z</time></trkpt><trkpt lat="44.58811207229837" lon="10.151093332699213"><ele>660.0</ele><time>2026-04-06T11:50:55Z</time></trkpt><trkpt lat="44.58818903740433" lon="10.150973354136472"><ele>660.0</ele><time>2026-04-06T11:50:56Z</time></trkpt><trkpt lat="44.58825697099902" lon="10.150844295873723"><ele>660.0</ele><time>2026-04-06T11:50:57Z</time></trkpt><trkpt lat="44.58831153108412" lon="10.150686633300483"><ele>660.0</ele><time>2026-04-06T11:50:58Z</time></trkpt><trkpt lat="44.58835861987701" lon="10.150508620750902"><ele>660.0</ele><time>2026-04-06T11:50:59Z</time></trkpt><trkpt lat="44.58842337227529" lon="10.150329250143045"><ele>656.25</ele><time>2026-04-06T11:51:00Z</time></trkpt><trkpt lat="44.58846269040743" lon="10.150154279986259"><ele>652.5</ele><time>2026-04-06T11:51:01Z</time></trkpt><trkpt lat="44.58851339709687" lon="10.150006766249318"><ele>648.75</ele><time>2026-04-06T11:51:02Z</time></trkpt><trkpt lat="44.588583288026165" lon="10.149880394228408"><ele>645.0</ele><time>2026-04-06T11:51:03Z</time></trkpt><trkpt lat="44.58869907960767" lon="10.149812371720675"><ele>642.6666666666666</ele><time>2026-04-06T11:51:04Z</time></trkpt><trkpt lat="44.58883277958249" lon="10.14972748521124"><ele>640.3333333333333</ele><time>2026-04-06T11:51:05Z</time></trkpt><trkpt lat="44.588976943177634" lon="10.149624601169359"><ele>638.0</ele><time>2026-04-06T11:51:06Z</time></trkpt><trkpt lat="44.58913539792688" lon="10.14953579971345"><ele>638.0</ele><time>2026-04-06T11:51:07Z</time></trkpt><trkpt lat="44.589293764442765" lon="10.149456593522926"><ele>638.0</ele><time>2026-04-06T11:51:08Z</time></trkpt><trkpt lat="44.58946172182219" lon="10.149418378042078"><ele>638.0</ele><time>2026-04-06T11:51:09Z</time></trkpt><trkpt lat="44.58962096516272" lon="10.149354156406396"><ele>637.75</ele><time>2026-04-06T11:51:10Z</time></trkpt><trkpt lat="44.58976696189152" lon="10.149315188113889"><ele>637.5</ele><time>2026-04-06T11:51:11Z</time></trkpt><trkpt lat="44.58990049718934" lon="10.14927330150639"><ele>637.25</ele><time>2026-04-06T11:51:12Z</time></trkpt><trkpt lat="44.590032041285" lon="10.149213252212272"><ele>637.0</ele><time>2026-04-06T11:51:13Z</time></trkpt><trkpt lat="44.59016797255182" lon="10.14910565902238"><ele>633.6666666666667</ele><time>2026-04-06T11:51:14Z</time></trkpt><trkpt lat="44.59030582865783" lon="10.148943620536926"><ele>630.3333333333334</ele><time>2026-04-06T11:51:15Z</time></trkpt><trkpt lat="44.59046344829124" lon="10.148826435581245"><ele>627.0</ele><time>2026-04-06T11:51:16Z</time></trkpt><trkpt lat="44.590618997888235" lon="10.148706410253988"><ele>627.0</ele><time>2026-04-06T11:51:17Z</time></trkpt><trkpt lat="44.59076336930095" lon="10.148571605932249"><ele>627.0</ele><time>2026-04-06T11:51:18Z</time></trkpt><trkpt lat="44.59087637312145" lon="10.148509997820227"><ele>627.0</ele><time>2026-04-06T11:51:19Z</time></trkpt><trkpt lat="44.59098617129768" lon="10.14841519071119"><ele>627.0</ele><time>2026-04-06T11:51:20Z</time></trkpt><trkpt lat="44.591076159466034" lon="10.148306600645988"><ele>623.75</ele><time>2026-04-06T11:51:21Z</time></trkpt><trkpt lat="44.59114453507769" lon="10.148174155170123"><ele>620.5</ele><time>2026-04-06T11:51:22Z</time></trkpt><trkpt lat="44.59117727909286" lon="10.148007405206986"><ele>617.25</ele><time>2026-04-06T11:51:23Z</time></trkpt><trkpt lat="44.591171342523936" lon="10.147799336600674"><ele>614.0</ele><time>2026-04-06T11:51:24Z</time></trkpt><trkpt lat="44.59113959658848" lon="10.147599898218596"><ele>614.0</ele><time>2026-04-06T11:51:25Z</time></trkpt><trkpt lat="44.59110386315261" lon="10.147414284086075"><ele>614.0</ele><time>2026-04-06T11:51:26Z</time></trkpt><trkpt lat="44.591102319308305" lon="10.147227788148642"><ele>614.0</ele><time>2026-04-06T11:51:27Z</time></trkpt><trkpt lat="44.5911662812246" lon="10.147073379009855"><ele>614.0</ele><time>2026-04-06T11:51:28Z</time></trkpt><trkpt lat="44.59122488882621" lon="10.146882491092574"><ele>615.6666666666666</ele><time>2026-04-06T11:51:29Z</time></trkpt><trkpt lat="44.59130141972397" lon="10.146691357579506"><ele>617.3333333333334</ele><time>2026-04-06T11:51:30Z</time></trkpt><trkpt lat="44.5913693661561" lon="10.14646279169525"><ele>619.0</ele><time>2026-04-06T11:51:31Z</time></trkpt><trkpt lat="44.591423823512365" lon="10.146245535756087"><ele>619.0</ele><time>2026-04-06T11:51:32Z</time></trkpt><trkpt lat="44.59147058817514" lon="10.146033526960485"><ele>619.0</ele><time>2026-04-06T11:51:33Z</time></trkpt><trkpt lat="44.591521308636686" lon="10.145832035688573"><ele>619.0</ele><time>2026-04-06T11:51:34Z</time></trkpt><trkpt lat="44.59156204171571" lon="10.145635634851145"><ele>616.75</ele><time>2026-04-06T11:51:35Z</time></trkpt><trkpt lat="44.59157978192559" lon="10.145437578735706"><ele>614.5</ele><time>2026-04-06T11:51:36Z</time></trkpt><trkpt lat="44.59155989379667" lon="10.145238658219911"><ele>612.25</ele><time>2026-04-06T11:51:37Z</time></trkpt><trkpt lat="44.59152372003816" lon="10.145027217640706"><ele>610.0</ele><time>2026-04-06T11:51:38Z</time></trkpt><trkpt lat="44.59149104261091" lon="10.14481444797979"><ele>607.25</ele><time>2026-04-06T11:51:39Z</time></trkpt><trkpt lat="44.59146521835978" lon="10.144603313905892"><ele>604.5</ele><time>2026-04-06T11:51:40Z</time></trkpt><trkpt lat="44.59143877991647" lon="10.144438803542785"><ele>601.75</ele><time>2026-04-06T11:51:41Z</time></trkpt><trkpt lat="44.5914237719178" lon="10.144287079784398"><ele>599.0</ele><time>2026-04-06T11:51:42Z</time></trkpt><trkpt lat="44.591409359311385" lon="10.144155583771248"><ele>598.8</ele><time>2026-04-06T11:51:43Z</time></trkpt><trkpt lat="44.59139866058261" lon="10.144030954592118"><ele>598.5999999999999</ele><time>2026-04-06T11:51:44Z</time></trkpt><trkpt lat="44.59140382975672" lon="10.143898368999832"><ele>598.4</ele><time>2026-04-06T11:51:45Z</time></trkpt><trkpt lat="44.5914451101991" lon="10.143770068470776"><ele>598.1999999999999</ele><time>2026-04-06T11:51:46Z</time></trkpt><trkpt lat="44.59152419276745" lon="10.143673026672834"><ele>598.0</ele><time>2026-04-06T11:51:47Z</time></trkpt><trkpt lat="44.59162030284165" lon="10.14361623285655"><ele>598.0</ele><time>2026-04-06T11:51:48Z</time></trkpt><trkpt lat="44.591726124892155" lon="10.14363141693864"><ele>598.0</ele><time>2026-04-06T11:51:49Z</time></trkpt><trkpt lat="44.59183753447651" lon="10.143674957036824"><ele>598.0</ele><time>2026-04-06T11:51:50Z</time></trkpt><trkpt lat="44.59194703202795" lon="10.143770647625445"><ele>598.0</ele><time>2026-04-06T11:51:51Z</time></trkpt><trkpt lat="44.592082770828576" lon="10.143857005928009"><ele>596.5</ele><time>2026-04-06T11:51:52Z</time></trkpt><trkpt lat="44.59221575150109" lon="10.143968363067465"><ele>595.0</ele><time>2026-04-06T11:51:53Z</time></trkpt><trkpt lat="44.592341361928376" lon="10.144061861457653"><ele>593.5</ele><time>2026-04-06T11:51:54Z</time></trkpt><trkpt lat="44.592446614600156" lon="10.144141233862449"><ele>592.0</ele><time>2026-04-06T11:51:55Z</time></trkpt><trkpt lat="44.592551768548134" lon="10.144213818147236"><ele>592.0</ele><time>2026-04-06T11:51:56Z</time></trkpt><trkpt lat="44.5926592963072" lon="10.144265842533104"><ele>592.0</ele><time>2026-04-06T11:51:57Z</time></trkpt><trkpt lat="44.59276923802524" lon="10.144287663962395"><ele>592.0</ele><time>2026-04-06T11:51:58Z</time></trkpt><trkpt lat="44.59287890885073" lon="10.144271680538292"><ele>592.0</ele><time>2026-04-06T11:51:59Z</time></trkpt><trkpt lat="44.592988876553015" lon="10.144221998522411"><ele>592.0</ele><time>2026-04-06T11:52:00Z</time></trkpt><trkpt lat="44.59310041044337" lon="10.144145188680088"><ele>592.0</ele><time>2026-04-06T11:52:01Z</time></trkpt><trkpt lat="44.59321856212657" lon="10.144048478399021"><ele>592.0</ele><time>2026-04-06T11:52:02Z</time></trkpt><trkpt lat="44.5933408191917" lon="10.14395220868844"><ele>592.0</ele><time>2026-04-06T11:52:03Z</time></trkpt><trkpt lat="44.5934720325262" lon="10.143859674698827"><ele>589.25</ele><time>2026-04-06T11:52:04Z</time></trkpt><trkpt lat="44.59360297742763" lon="10.14376277422101"><ele>586.5</ele><time>2026-04-06T11:52:05Z</time></trkpt><trkpt lat="44.593734318987266" lon="10.143671535005149"><ele>583.75</ele><time>2026-04-06T11:52:06Z</time></trkpt><trkpt lat="44.59385364010636" lon="10.143586302782772"><ele>581.0</ele><time>2026-04-06T11:52:07Z</time></trkpt><trkpt lat="44.59397271536702" lon="10.14349767620414"><ele>581.0</ele><time>2026-04-06T11:52:08Z</time></trkpt><trkpt lat="44.59408848497802" lon="10.143415764358757"><ele>581.0</ele><time>2026-04-06T11:52:09Z</time></trkpt><trkpt lat="44.59419906629928" lon="10.143333171481471"><ele>581.0</ele><time>2026-04-06T11:52:10Z</time></trkpt><trkpt lat="44.594275174580275" lon="10.14323842571333"><ele>581.0</ele><time>2026-04-06T11:52:11Z</time></trkpt><trkpt lat="44.59431975834711" lon="10.143126809658426"><ele>581.0</ele><time>2026-04-06T11:52:12Z</time></trkpt><trkpt lat="44.59433617856042" lon="10.1429810450721"><ele>577.0</ele><time>2026-04-06T11:52:13Z</time></trkpt><trkpt lat="44.59432992210353" lon="10.142817907342954"><ele>573.0</ele><time>2026-04-06T11:52:14Z</time></trkpt><trkpt lat="44.594320973648394" lon="10.142636813243865"><ele>569.0</ele><time>2026-04-06T11:52:15Z</time></trkpt><trkpt lat="44.59432326213542" lon="10.14245061518184"><ele>565.0</ele><time>2026-04-06T11:52:16Z</time></trkpt><trkpt lat="44.59433380628589" lon="10.142265094582898"><ele>568.25</ele><time>2026-04-06T11:52:17Z</time></trkpt><trkpt lat="44.5943627202999" lon="10.142098990443586"><ele>571.5</ele><time>2026-04-06T11:52:18Z</time></trkpt><trkpt lat="44.59442681425811" lon="10.14194993226638"><ele>574.75</ele><time>2026-04-06T11:52:19Z</time></trkpt><trkpt lat="44.594526591443575" lon="10.141825038583347"><ele>578.0</ele><time>2026-04-06T11:52:20Z</time></trkpt><trkpt lat="44.59463423866474" lon="10.14169744718851"><ele>571.6666666666666</ele><time>2026-04-06T11:52:21Z</time></trkpt><trkpt lat="44.59473652374947" lon="10.141544972622327"><ele>565.3333333333334</ele><time>2026-04-06T11:52:22Z</time></trkpt><trkpt lat="44.59482067602676" lon="10.141351324874416"><ele>559.0</ele><time>2026-04-06T11:52:23Z</time></trkpt><trkpt lat="44.59489438920272" lon="10.141146573807235"><ele>559.0</ele><time>2026-04-06T11:52:24Z</time></trkpt><trkpt lat="44.59495504788943" lon="10.140931313405236"><ele>559.0</ele><time>2026-04-06T11:52:25Z</time></trkpt><trkpt lat="44.59501573156208" lon="10.140716096524166"><ele>559.0</ele><time>2026-04-06T11:52:26Z</time></trkpt><trkpt lat="44.59508191751757" lon="10.140503663570046"><ele>554.3333333333334</ele><time>2026-04-06T11:52:27Z</time></trkpt><trkpt lat="44.595146944502545" lon="10.140295350262882"><ele>549.6666666666666</ele><time>2026-04-06T11:52:28Z</time></trkpt><trkpt lat="44.59520789801952" lon="10.140090055021178"><ele>545.0</ele><time>2026-04-06T11:52:29Z</time></trkpt><trkpt lat="44.59526574989255" lon="10.139893090846124"><ele>542.75</ele><time>2026-04-06T11:52:30Z</time></trkpt><trkpt lat="44.59531983056173" lon="10.139702080527307"><ele>540.5</ele><time>2026-04-06T11:52:31Z</time></trkpt><trkpt lat="44.59535740651062" lon="10.139525394899946"><ele>538.25</ele><time>2026-04-06T11:52:32Z</time></trkpt><trkpt lat="44.595369591870686" lon="10.139343529532555"><ele>536.0</ele><time>2026-04-06T11:52:33Z</time></trkpt><trkpt lat="44.59534464597183" lon="10.139142573336827"><ele>537.0</ele><time>2026-04-06T11:52:34Z</time></trkpt><trkpt lat="44.595288419457425" lon="10.138932233206145"><ele>538.0</ele><time>2026-04-06T11:52:35Z</time></trkpt><trkpt lat="44.5952113192267" lon="10.138720943855503"><ele>539.0</ele><time>2026-04-06T11:52:36Z</time></trkpt><trkpt lat="44.59513304328265" lon="10.13848233042331"><ele>539.0</ele><time>2026-04-06T11:52:37Z</time></trkpt><trkpt lat="44.59506560766191" lon="10.13825628592917"><ele>539.0</ele><time>2026-04-06T11:52:38Z</time></trkpt><trkpt lat="44.59500112742134" lon="10.138028404615792"><ele>539.0</ele><time>2026-04-06T11:52:39Z</time></trkpt><trkpt lat="44.59493511730744" lon="10.137799672135829"><ele>538.6666666666666</ele><time>2026-04-06T11:52:40Z</time></trkpt><trkpt lat="44.59486152623" lon="10.137572756320301"><ele>538.3333333333334</ele><time>2026-04-06T11:52:41Z</time></trkpt><trkpt lat="44.594783341059234" lon="10.137364750151796"><ele>538.0</ele><time>2026-04-06T11:52:42Z</time></trkpt><trkpt lat="44.59471141189808" lon="10.137183788608779"><ele>538.0</ele><time>2026-04-06T11:52:43Z</time></trkpt><trkpt lat="44.59464900276157" lon="10.137015112390063"><ele>538.0</ele><time>2026-04-06T11:52:44Z</time></trkpt><trkpt lat="44.59459758690108" lon="10.13685272700227"><ele>538.0</ele><time>2026-04-06T11:52:45Z</time></trkpt><trkpt lat="44.594574605145084" lon="10.136688653161439"><ele>538.0</ele><time>2026-04-06T11:52:46Z</time></trkpt><trkpt lat="44.59457715938865" lon="10.136523648141639"><ele>535.25</ele><time>2026-04-06T11:52:47Z</time></trkpt><trkpt lat="44.59459748028137" lon="10.136359195802315"><ele>532.5</ele><time>2026-04-06T11:52:48Z</time></trkpt><trkpt lat="44.59465124222664" lon="10.136204966571146"><ele>529.75</ele><time>2026-04-06T11:52:49Z</time></trkpt><trkpt lat="44.59473067249543" lon="10.136055644397409"><ele>527.0</ele><time>2026-04-06T11:52:50Z</time></trkpt><trkpt lat="44.59484625051196" lon="10.135931103386875"><ele>527.0</ele><time>2026-04-06T11:52:51Z</time></trkpt><trkpt lat="44.59496252099461" lon="10.135768815002011"><ele>527.0</ele><time>2026-04-06T11:52:52Z</time></trkpt><trkpt lat="44.595099721200974" lon="10.135610978455567"><ele>527.0</ele><time>2026-04-06T11:52:53Z</time></trkpt><trkpt lat="44.59523359774004" lon="10.135445148276133"><ele>524.3333333333333</ele><time>2026-04-06T11:52:54Z</time></trkpt><trkpt lat="44.59536209938769" lon="10.135294047897753"><ele>521.6666666666666</ele><time>2026-04-06T11:52:55Z</time></trkpt><trkpt lat="44.59548725729008" lon="10.135147516107907"><ele>519.0</ele><time>2026-04-06T11:52:56Z</time></trkpt><trkpt lat="44.59561084684136" lon="10.135001859472801"><ele>515.25</ele><time>2026-04-06T11:52:57Z</time></trkpt><trkpt lat="44.595731170568" lon="10.13485590643642"><ele>511.5</ele><time>2026-04-06T11:52:58Z</time></trkpt><trkpt lat="44.595853230348666" lon="10.134739450666386"><ele>507.75</ele><time>2026-04-06T11:52:59Z</time></trkpt><trkpt lat="44.59597149983938" lon="10.134631901890819"><ele>504.0</ele><time>2026-04-06T11:53:00Z</time></trkpt><trkpt lat="44.59609847935342" lon="10.134547890263311"><ele>505.5</ele><time>2026-04-06T11:53:01Z</time></trkpt><trkpt lat="44.59623015487262" lon="10.134469818501612"><ele>507.0</ele><time>2026-04-06T11:53:02Z</time></trkpt><trkpt lat="44.59636160800596" lon="10.134393812705015"><ele>508.5</ele><time>2026-04-06T11:53:03Z</time></trkpt><trkpt lat="44.596488348331334" lon="10.134297481390984"><ele>510.0</ele><time>2026-04-06T11:53:04Z</time></trkpt><trkpt lat="44.59660011985774" lon="10.134195511207482"><ele>504.33333333333337</ele><time>2026-04-06T11:53:05Z</time></trkpt><trkpt lat="44.596700916095614" lon="10.134048838098407"><ele>498.6666666666667</ele><time>2026-04-06T11:53:06Z</time></trkpt><trkpt lat="44.59678069165204" lon="10.133857304345018"><ele>493.0</ele><time>2026-04-06T11:53:07Z</time></trkpt><trkpt lat="44.59687641169983" lon="10.133681591435446"><ele>493.0</ele><time>2026-04-06T11:53:08Z</time></trkpt><trkpt lat="44.59697269943237" lon="10.13350229231667"><ele>493.0</ele><time>2026-04-06T11:53:09Z</time></trkpt><trkpt lat="44.59706968132386" lon="10.133359058167688"><ele>493.0</ele><time>2026-04-06T11:53:10Z</time></trkpt><trkpt lat="44.5971863675724" lon="10.133256014638848"><ele>493.0</ele><time>2026-04-06T11:53:11Z</time></trkpt><trkpt lat="44.59733064870118" lon="10.133171153246222"><ele>490.0</ele><time>2026-04-06T11:53:12Z</time></trkpt><trkpt lat="44.59748699271357" lon="10.133094203105363"><ele>487.0</ele><time>2026-04-06T11:53:13Z</time></trkpt><trkpt lat="44.59765346244971" lon="10.13301206304406"><ele>484.0</ele><time>2026-04-06T11:53:14Z</time></trkpt><trkpt lat="44.597825709722635" lon="10.132926232024596"><ele>484.0</ele><time>2026-04-06T11:53:15Z</time></trkpt><trkpt lat="44.59798452905528" lon="10.132845593370575"><ele>484.0</ele><time>2026-04-06T11:53:16Z</time></trkpt><trkpt lat="44.59814218907835" lon="10.13273965884193"><ele>484.0</ele><time>2026-04-06T11:53:17Z</time></trkpt><trkpt lat="44.59831940036918" lon="10.132669999139969"><ele>484.0</ele><time>2026-04-06T11:53:18Z</time></trkpt><trkpt lat="44.59847385848824" lon="10.132563301101763"><ele>484.0</ele><time>2026-04-06T11:53:19Z</time></trkpt><trkpt lat="44.598640722767584" lon="10.132502160405554"><ele>484.0</ele><time>2026-04-06T11:53:20Z</time></trkpt><trkpt lat="44.59880844420142" lon="10.132417140215386"><ele>479.33333333333337</ele><time>2026-04-06T11:53:21Z</time></trkpt><trkpt lat="44.59896785528262" lon="10.132336485202659"><ele>474.66666666666663</ele><time>2026-04-06T11:53:22Z</time></trkpt><trkpt lat="44.59912823087221" lon="10.13225534203789"><ele>470.0</ele><time>2026-04-06T11:53:23Z</time></trkpt><trkpt lat="44.59928427125544" lon="10.132174869913477"><ele>470.0</ele><time>2026-04-06T11:53:24Z</time></trkpt><trkpt lat="44.59943147399636" lon="10.132085631410819"><ele>470.0</ele><time>2026-04-06T11:53:25Z</time></trkpt><trkpt lat="44.59955309311142" lon="10.13196794164464"><ele>470.0</ele><time>2026-04-06T11:53:26Z</time></trkpt><trkpt lat="44.599679839251436" lon="10.13188086231693"><ele>470.0</ele><time>2026-04-06T11:53:27Z</time></trkpt><trkpt lat="44.59980274399626" lon="10.131770649435579"><ele>470.0</ele><time>2026-04-06T11:53:28Z</time></trkpt><trkpt lat="44.59993016799576" lon="10.131655412315247"><ele>470.0</ele><time>2026-04-06T11:53:29Z</time></trkpt><trkpt lat="44.60005464278629" lon="10.131542841464118"><ele>470.0</ele><time>2026-04-06T11:53:30Z</time></trkpt><trkpt lat="44.6001813970861" lon="10.131428912337057"><ele>468.75</ele><time>2026-04-06T11:53:31Z</time></trkpt><trkpt lat="44.60030888282206" lon="10.131314325745025"><ele>467.5</ele><time>2026-04-06T11:53:32Z</time></trkpt><trkpt lat="44.60042413705901" lon="10.131205310925592"><ele>466.25</ele><time>2026-04-06T11:53:33Z</time></trkpt><trkpt lat="44.60053064323893" lon="10.131087838232489"><ele>465.0</ele><time>2026-04-06T11:53:34Z</time></trkpt><trkpt lat="44.600610496752594" lon="10.130930506593081"><ele>465.0</ele><time>2026-04-06T11:53:35Z</time></trkpt><trkpt lat="44.60069662306344" lon="10.13078096561475"><ele>465.0</ele><time>2026-04-06T11:53:36Z</time></trkpt><trkpt lat="44.60073490564676" lon="10.130585431637751"><ele>465.0</ele><time>2026-04-06T11:53:37Z</time></trkpt><trkpt lat="44.600775941897574" lon="10.130380485005107"><ele>465.0</ele><time>2026-04-06T11:53:38Z</time></trkpt><trkpt lat="44.60080973731203" lon="10.130188257093861"><ele>461.75</ele><time>2026-04-06T11:53:39Z</time></trkpt><trkpt lat="44.600843947447046" lon="10.129995721971186"><ele>458.5</ele><time>2026-04-06T11:53:40Z</time></trkpt><trkpt lat="44.60087891151298" lon="10.12980914935241"><ele>455.25</ele><time>2026-04-06T11:53:41Z</time></trkpt><trkpt lat="44.60091504583623" lon="10.129616391251703"><ele>452.0</ele><time>2026-04-06T11:53:42Z</time></trkpt><trkpt lat="44.6009530357046" lon="10.129434708316962"><ele>449.0</ele><time>2026-04-06T11:53:43Z</time></trkpt><trkpt lat="44.601010914957946" lon="10.129275715724065"><ele>446.0</ele><time>2026-04-06T11:53:44Z</time></trkpt><trkpt lat="44.60106865658962" lon="10.1291170420043"><ele>443.0</ele><time>2026-04-06T11:53:45Z</time></trkpt><trkpt lat="44.60114104626104" lon="10.128963541450668"><ele>440.0</ele><time>2026-04-06T11:53:46Z</time></trkpt><trkpt lat="44.60122017027252" lon="10.12880314367122"><ele>438.0</ele><time>2026-04-06T11:53:47Z</time></trkpt><trkpt lat="44.60129118652254" lon="10.128623898190101"><ele>436.0</ele><time>2026-04-06T11:53:48Z</time></trkpt><trkpt lat="44.60138763290286" lon="10.128448491649937"><ele>434.0</ele><time>2026-04-06T11:53:49Z</time></trkpt><trkpt lat="44.601473934948" lon="10.128270624143518"><ele>431.25</ele><time>2026-04-06T11:53:50Z</time></trkpt><trkpt lat="44.601562741334256" lon="10.128100871851915"><ele>428.5</ele><time>2026-04-06T11:53:51Z</time></trkpt><trkpt lat="44.60167440450691" lon="10.127958422802022"><ele>425.75</ele><time>2026-04-06T11:53:52Z</time></trkpt><trkpt lat="44.601781535436594" lon="10.127818968456397"><ele>423.0</ele><time>2026-04-06T11:53:53Z</time></trkpt><trkpt lat="44.601898637555585" lon="10.12767229408703"><ele>424.0</ele><time>2026-04-06T11:53:54Z</time></trkpt><trkpt lat="44.60201349852338" lon="10.127528824532202"><ele>425.0</ele><time>2026-04-06T11:53:55Z</time></trkpt><trkpt lat="44.60212873969686" lon="10.12738292718155"><ele>426.0</ele><time>2026-04-06T11:53:56Z</time></trkpt><trkpt lat="44.60224581512851" lon="10.127223644734507"><ele>423.0</ele><time>2026-04-06T11:53:57Z</time></trkpt><trkpt lat="44.60235865446521" lon="10.127045995599888"><ele>420.0</ele><time>2026-04-06T11:53:58Z</time></trkpt><trkpt lat="44.602457863926276" lon="10.126864875181354"><ele>417.0</ele><time>2026-04-06T11:53:59Z</time></trkpt><trkpt lat="44.602549975533705" lon="10.126684608148153"><ele>413.33333333333337</ele><time>2026-04-06T11:54:00Z</time></trkpt><trkpt lat="44.60263837052301" lon="10.126505154885983"><ele>409.6666666666667</ele><time>2026-04-06T11:54:01Z</time></trkpt><trkpt lat="44.60272531659725" lon="10.12632898120147"><ele>406.0</ele><time>2026-04-06T11:54:02Z</time></trkpt><trkpt lat="44.60280785217782" lon="10.126161716446806"><ele>406.5</ele><time>2026-04-06T11:54:03Z</time></trkpt><trkpt lat="44.60287942771572" lon="10.126019188551597"><ele>407.0</ele><time>2026-04-06T11:54:04Z</time></trkpt><trkpt lat="44.60294836303938" lon="10.125885008761637"><ele>407.5</ele><time>2026-04-06T11:54:05Z</time></trkpt><trkpt lat="44.60302494196995" lon="10.125763972229917"><ele>408.0</ele><time>2026-04-06T11:54:06Z</time></trkpt><trkpt lat="44.603120180269904" lon="10.125677251031215"><ele>406.0</ele><time>2026-04-06T11:54:07Z</time></trkpt><trkpt lat="44.603232153493074" lon="10.12561366905849"><ele>404.0</ele><time>2026-04-06T11:54:08Z</time></trkpt><trkpt lat="44.60336121774806" lon="10.125545312948438"><ele>402.0</ele><time>2026-04-06T11:54:09Z</time></trkpt><trkpt lat="44.603473375221455" lon="10.125471205373382"><ele>400.0</ele><time>2026-04-06T11:54:10Z</time></trkpt><trkpt lat="44.60358415485409" lon="10.125370110481668"><ele>399.4</ele><time>2026-04-06T11:54:11Z</time></trkpt><trkpt lat="44.6036863051072" lon="10.125273111057323"><ele>398.8</ele><time>2026-04-06T11:54:12Z</time></trkpt><trkpt lat="44.60378807962626" lon="10.125178287779356"><ele>398.20000000000005</ele><time>2026-04-06T11:54:13Z</time></trkpt><trkpt lat="44.6038570856992" lon="10.125103320925636"><ele>397.6</ele><time>2026-04-06T11:54:14Z</time></trkpt><trkpt lat="44.60393557648651" lon="10.125044695486654"><ele>397.0</ele><time>2026-04-06T11:54:15Z</time></trkpt><trkpt lat="44.604007261408974" lon="10.12498203803207"><ele>397.0</ele><time>2026-04-06T11:54:16Z</time></trkpt><trkpt lat="44.60407329430329" lon="10.124929345104125"><ele>397.0</ele><time>2026-04-06T11:54:17Z</time></trkpt><trkpt lat="44.60412053451577" lon="10.124817089296638"><ele>397.0</ele><time>2026-04-06T11:54:19Z</time></trkpt><trkpt lat="44.60412095127371" lon="10.124719911052482"><ele>397.0</ele><time>2026-04-06T11:54:22Z</time></trkpt><trkpt lat="44.60403357628946" lon="10.124551008428753"><ele>397.0</ele><time>2026-04-06T11:54:25Z</time></trkpt><trkpt lat="44.60394676016279" lon="10.124478476999299"><ele>397.40000000000003</ele><time>2026-04-06T11:54:26Z</time></trkpt><trkpt lat="44.60387877737391" lon="10.12440963937371"><ele>397.8</ele><time>2026-04-06T11:54:27Z</time></trkpt><trkpt lat="44.60380502154906" lon="10.124363086133545"><ele>398.2</ele><time>2026-04-06T11:54:28Z</time></trkpt><trkpt lat="44.603734877239" lon="10.124296891965182"><ele>398.6</ele><time>2026-04-06T11:54:29Z</time></trkpt><trkpt lat="44.60365191789161" lon="10.124227988836248"><ele>399.0</ele><time>2026-04-06T11:54:30Z</time></trkpt><trkpt lat="44.603558771851" lon="10.124153621246979"><ele>399.0</ele><time>2026-04-06T11:54:31Z</time></trkpt><trkpt lat="44.603468459591745" lon="10.124080550673593"><ele>399.0</ele><time>2026-04-06T11:54:32Z</time></trkpt><trkpt lat="44.60338880788855" lon="10.12401038142062"><ele>399.0</ele><time>2026-04-06T11:54:33Z</time></trkpt><trkpt lat="44.603313318832505" lon="10.123939441005525"><ele>399.0</ele><time>2026-04-06T11:54:34Z</time></trkpt><trkpt lat="44.603236373558794" lon="10.123869776142268"><ele>399.0</ele><time>2026-04-06T11:54:35Z</time></trkpt><trkpt lat="44.60313871417398" lon="10.123784933880385"><ele>398.6</ele><time>2026-04-06T11:54:36Z</time></trkpt><trkpt lat="44.6030585770037" lon="10.123713108446006"><ele>398.2</ele><time>2026-04-06T11:54:37Z</time></trkpt><trkpt lat="44.60297616612475" lon="10.123642207174116"><ele>397.8</ele><time>2026-04-06T11:54:38Z</time></trkpt><trkpt lat="44.60288425141226" lon="10.12356938912129"><ele>397.40000000000003</ele><time>2026-04-06T11:54:39Z</time></trkpt><trkpt lat="44.60279953052589" lon="10.12349392519159"><ele>397.0</ele><time>2026-04-06T11:54:40Z</time></trkpt><trkpt lat="44.6027112537358" lon="10.123418447403473"><ele>397.0</ele><time>2026-04-06T11:54:41Z</time></trkpt><trkpt lat="44.6026183566654" lon="10.123330651920543"><ele>397.0</ele><time>2026-04-06T11:54:42Z</time></trkpt><trkpt lat="44.60252668197871" lon="10.123244429695594"><ele>397.0</ele><time>2026-04-06T11:54:43Z</time></trkpt><trkpt lat="44.60242910239077" lon="10.123158589476638"><ele>397.0</ele><time>2026-04-06T11:54:44Z</time></trkpt><trkpt lat="44.602318062312264" lon="10.123065555686134"><ele>397.0</ele><time>2026-04-06T11:54:45Z</time></trkpt><trkpt lat="44.6022090286965" lon="10.122970097244265"><ele>397.0</ele><time>2026-04-06T11:54:46Z</time></trkpt><trkpt lat="44.60209580901595" lon="10.122865543721806"><ele>397.0</ele><time>2026-04-06T11:54:47Z</time></trkpt><trkpt lat="44.60197897899281" lon="10.122760876247419"><ele>397.0</ele><time>2026-04-06T11:54:48Z</time></trkpt><trkpt lat="44.60186765933356" lon="10.122665751864988"><ele>397.0</ele><time>2026-04-06T11:54:49Z</time></trkpt><trkpt lat="44.60175629294503" lon="10.122566219567908"><ele>397.0</ele><time>2026-04-06T11:54:50Z</time></trkpt><trkpt lat="44.60164043148726" lon="10.122458883781652"><ele>397.0</ele><time>2026-04-06T11:54:51Z</time></trkpt><trkpt lat="44.60152686536483" lon="10.12234452517647"><ele>397.0</ele><time>2026-04-06T11:54:52Z</time></trkpt><trkpt lat="44.60142093371902" lon="10.122245817479829"><ele>396.8</ele><time>2026-04-06T11:54:53Z</time></trkpt><trkpt lat="44.60135025512627" lon="10.122160137944869"><ele>396.6</ele><time>2026-04-06T11:54:54Z</time></trkpt><trkpt lat="44.601302670270414" lon="10.122098602293521"><ele>396.40000000000003</ele><time>2026-04-06T11:54:55Z</time></trkpt><trkpt lat="44.60122732377805" lon="10.122003542302933"><ele>396.20000000000005</ele><time>2026-04-06T11:54:57Z</time></trkpt><trkpt lat="44.60115770001443" lon="10.121913102884099"><ele>396.0</ele><time>2026-04-06T11:54:59Z</time></trkpt><trkpt lat="44.60108440336896" lon="10.12175367098595"><ele>396.0</ele><time>2026-04-06T11:55:01Z</time></trkpt><trkpt lat="44.601063887140484" lon="10.121643395191198"><ele>396.0</ele><time>2026-04-06T11:55:02Z</time></trkpt><trkpt lat="44.60106331903969" lon="10.12153185149171"><ele>396.0</ele><time>2026-04-06T11:55:03Z</time></trkpt><trkpt lat="44.60110472927181" lon="10.12144026633199"><ele>396.0</ele><time>2026-04-06T11:55:04Z</time></trkpt><trkpt lat="44.60113794166951" lon="10.12131576383477"><ele>396.0</ele><time>2026-04-06T11:55:06Z</time></trkpt><trkpt lat="44.60117555194437" lon="10.12119660171522"><ele>396.0</ele><time>2026-04-06T11:55:09Z</time></trkpt><trkpt lat="44.60122938636434" lon="10.121073824079179"><ele>396.0</ele><time>2026-04-06T11:55:11Z</time></trkpt><trkpt lat="44.6012614679811" lon="10.12094426612422"><ele>396.0</ele><time>2026-04-06T11:55:12Z</time></trkpt><trkpt lat="44.60132148943289" lon="10.120834501411286"><ele>396.0</ele><time>2026-04-06T11:55:13Z</time></trkpt><trkpt lat="44.60138037909819" lon="10.120715794067983"><ele>396.0</ele><time>2026-04-06T11:55:14Z</time></trkpt><trkpt lat="44.601438938921746" lon="10.120583823413995"><ele>396.0</ele><time>2026-04-06T11:55:15Z</time></trkpt><trkpt lat="44.60153170336223" lon="10.120454627161514"><ele>396.25</ele><time>2026-04-06T11:55:16Z</time></trkpt><trkpt lat="44.601596763963485" lon="10.120312578423066"><ele>396.5</ele><time>2026-04-06T11:55:17Z</time></trkpt><trkpt lat="44.601657850258434" lon="10.120179207174505"><ele>396.75</ele><time>2026-04-06T11:55:18Z</time></trkpt><trkpt lat="44.60171982976935" lon="10.120043659242148"><ele>397.0</ele><time>2026-04-06T11:55:19Z</time></trkpt><trkpt lat="44.60178183270432" lon="10.119907911346463"><ele>396.6</ele><time>2026-04-06T11:55:20Z</time></trkpt><trkpt lat="44.601840738159005" lon="10.119778339787226"><ele>396.20000000000005</ele><time>2026-04-06T11:55:21Z</time></trkpt><trkpt lat="44.60189325767437" lon="10.119662235038652"><ele>395.8</ele><time>2026-04-06T11:55:22Z</time></trkpt><trkpt lat="44.601950678058984" lon="10.1195361858405"><ele>395.4</ele><time>2026-04-06T11:55:23Z</time></trkpt><trkpt lat="44.602004581184794" lon="10.119418048741396"><ele>395.0</ele><time>2026-04-06T11:55:24Z</time></trkpt><trkpt lat="44.60205097289248" lon="10.11931629304289"><ele>394.6</ele><time>2026-04-06T11:55:25Z</time></trkpt><trkpt lat="44.602099948694885" lon="10.119208251356806"><ele>394.2</ele><time>2026-04-06T11:55:26Z</time></trkpt><trkpt lat="44.60215150987" lon="10.119094506228643"><ele>393.79999999999995</ele><time>2026-04-06T11:55:27Z</time></trkpt><trkpt lat="44.602203520573305" lon="10.11897976927058"><ele>393.4</ele><time>2026-04-06T11:55:28Z</time></trkpt><trkpt lat="44.60225444888526" lon="10.118867420053013"><ele>393.0</ele><time>2026-04-06T11:55:29Z</time></trkpt><trkpt lat="44.60230411634422" lon="10.118757852400888"><ele>393.0</ele><time>2026-04-06T11:55:30Z</time></trkpt><trkpt lat="44.602354572932" lon="10.118646543879395"><ele>393.0</ele><time>2026-04-06T11:55:31Z</time></trkpt><trkpt lat="44.60240653450468" lon="10.118531915396645"><ele>393.0</ele><time>2026-04-06T11:55:32Z</time></trkpt><trkpt lat="44.60245898429499" lon="10.118416213315617"><ele>393.0</ele><time>2026-04-06T11:55:33Z</time></trkpt><trkpt lat="44.60251034190345" lon="10.11830300663304"><ele>393.0</ele><time>2026-04-06T11:55:34Z</time></trkpt><trkpt lat="44.602564613502715" lon="10.118183376755328"><ele>393.4</ele><time>2026-04-06T11:55:35Z</time></trkpt><trkpt lat="44.60261777518141" lon="10.118066193370682"><ele>393.79999999999995</ele><time>2026-04-06T11:55:36Z</time></trkpt><trkpt lat="44.60266758283396" lon="10.11795664276599"><ele>394.2</ele><time>2026-04-06T11:55:37Z</time></trkpt><trkpt lat="44.6027176600925" lon="10.117846576710932"><ele>394.6</ele><time>2026-04-06T11:55:38Z</time></trkpt><trkpt lat="44.60276590072939" lon="10.117738060810048"><ele>395.0</ele><time>2026-04-06T11:55:39Z</time></trkpt><trkpt lat="44.60281566824614" lon="10.117630072335144"><ele>395.3333333333333</ele><time>2026-04-06T11:55:40Z</time></trkpt><trkpt lat="44.60286512366673" lon="10.117523977667963"><ele>395.66666666666663</ele><time>2026-04-06T11:55:41Z</time></trkpt><trkpt lat="44.60291632144906" lon="10.117419869863651"><ele>396.0</ele><time>2026-04-06T11:55:42Z</time></trkpt><trkpt lat="44.602967673105574" lon="10.11731990834755"><ele>396.33333333333337</ele><time>2026-04-06T11:55:43Z</time></trkpt><trkpt lat="44.60302407714242" lon="10.117231920438847"><ele>396.6666666666667</ele><time>2026-04-06T11:55:44Z</time></trkpt><trkpt lat="44.60309459045506" lon="10.117154140618174"><ele>397.0</ele><time>2026-04-06T11:55:45Z</time></trkpt><trkpt lat="44.6031748416389" lon="10.117094207402674"><ele>398.6</ele><time>2026-04-06T11:55:46Z</time></trkpt><trkpt lat="44.60326700367675" lon="10.11703504715117"><ele>400.20000000000005</ele><time>2026-04-06T11:55:47Z</time></trkpt><trkpt lat="44.603364080037146" lon="10.11699325578046"><ele>401.8</ele><time>2026-04-06T11:55:48Z</time></trkpt><trkpt lat="44.60346639907388" lon="10.116987882224114"><ele>403.4</ele><time>2026-04-06T11:55:49Z</time></trkpt><trkpt lat="44.60356893910594" lon="10.117012446686536"><ele>405.0</ele><time>2026-04-06T11:55:50Z</time></trkpt><trkpt lat="44.60367574868844" lon="10.117051215961524"><ele>406.25</ele><time>2026-04-06T11:55:51Z</time></trkpt><trkpt lat="44.60379665206826" lon="10.117103084525391"><ele>407.5</ele><time>2026-04-06T11:55:52Z</time></trkpt><trkpt lat="44.603911466980136" lon="10.117153557435206"><ele>408.75</ele><time>2026-04-06T11:55:53Z</time></trkpt><trkpt lat="44.6040454846408" lon="10.117212471962903"><ele>410.0</ele><time>2026-04-06T11:55:54Z</time></trkpt><trkpt lat="44.60416773224929" lon="10.117266212330751"><ele>410.0</ele><time>2026-04-06T11:55:55Z</time></trkpt><trkpt lat="44.6043009725893" lon="10.117324785041307"><ele>410.0</ele><time>2026-04-06T11:55:56Z</time></trkpt><trkpt lat="44.60444733272357" lon="10.1173891253503"><ele>410.0</ele><time>2026-04-06T11:55:57Z</time></trkpt><trkpt lat="44.60460223577121" lon="10.117457816164553"><ele>408.75</ele><time>2026-04-06T11:55:58Z</time></trkpt><trkpt lat="44.60474978875449" lon="10.117524434122906"><ele>407.5</ele><time>2026-04-06T11:55:59Z</time></trkpt><trkpt lat="44.604892151422156" lon="10.117588708789388"><ele>406.25</ele><time>2026-04-06T11:56:00Z</time></trkpt><trkpt lat="44.605026855853076" lon="10.117648998639334"><ele>405.0</ele><time>2026-04-06T11:56:01Z</time></trkpt><trkpt lat="44.60515687074637" lon="10.117704293409172"><ele>405.0</ele><time>2026-04-06T11:56:02Z</time></trkpt><trkpt lat="44.605284849035364" lon="10.11775872169317"><ele>405.0</ele><time>2026-04-06T11:56:03Z</time></trkpt><trkpt lat="44.60540460043822" lon="10.11781776365169"><ele>405.0</ele><time>2026-04-06T11:56:04Z</time></trkpt><trkpt lat="44.605529725725646" lon="10.117894385077191"><ele>405.0</ele><time>2026-04-06T11:56:05Z</time></trkpt><trkpt lat="44.60565621528606" lon="10.118001580608876"><ele>404.0</ele><time>2026-04-06T11:56:06Z</time></trkpt><trkpt lat="44.60579061151236" lon="10.11813501085881"><ele>403.0</ele><time>2026-04-06T11:56:07Z</time></trkpt><trkpt lat="44.605926575605245" lon="10.118274970084487"><ele>402.0</ele><time>2026-04-06T11:56:08Z</time></trkpt><trkpt lat="44.60605240066472" lon="10.118404492863727"><ele>403.6</ele><time>2026-04-06T11:56:09Z</time></trkpt><trkpt lat="44.60617110216428" lon="10.118522373775104"><ele>405.20000000000005</ele><time>2026-04-06T11:56:10Z</time></trkpt><trkpt lat="44.606266796855046" lon="10.118611122918468"><ele>406.8</ele><time>2026-04-06T11:56:11Z</time></trkpt><trkpt lat="44.60635743633713" lon="10.118663860580245"><ele>408.4</ele><time>2026-04-06T11:56:12Z</time></trkpt><trkpt lat="44.60644208939071" lon="10.118680286946146"><ele>410.0</ele><time>2026-04-06T11:56:13Z</time></trkpt><trkpt lat="44.60652826021597" lon="10.118607160506414"><ele>410.0</ele><time>2026-04-06T11:56:14Z</time></trkpt><trkpt lat="44.60659663588137" lon="10.118522400146862"><ele>410.0</ele><time>2026-04-06T11:56:15Z</time></trkpt><trkpt lat="44.60663936541419" lon="10.118382938864615"><ele>410.0</ele><time>2026-04-06T11:56:16Z</time></trkpt><trkpt lat="44.606621528704736" lon="10.118224063650219"><ele>410.0</ele><time>2026-04-06T11:56:17Z</time></trkpt><trkpt lat="44.60658722001062" lon="10.118077605432982"><ele>410.0</ele><time>2026-04-06T11:56:18Z</time></trkpt><trkpt lat="44.606509360396345" lon="10.11792106445981"><ele>413.0</ele><time>2026-04-06T11:56:19Z</time></trkpt><trkpt lat="44.606414088336194" lon="10.117747792037957"><ele>416.0</ele><time>2026-04-06T11:56:20Z</time></trkpt><trkpt lat="44.606317328991345" lon="10.117545482682415"><ele>419.0</ele><time>2026-04-06T11:56:21Z</time></trkpt><trkpt lat="44.60623705171333" lon="10.117364937734097"><ele>419.0</ele><time>2026-04-06T11:56:22Z</time></trkpt><trkpt lat="44.60616227909258" lon="10.117187026185805"><ele>419.0</ele><time>2026-04-06T11:56:23Z</time></trkpt><trkpt lat="44.60609641148658" lon="10.117027367162981"><ele>419.0</ele><time>2026-04-06T11:56:24Z</time></trkpt><trkpt lat="44.60603085734382" lon="10.116891786145297"><ele>419.0</ele><time>2026-04-06T11:56:25Z</time></trkpt><trkpt lat="44.60594077989382" lon="10.116779641096196"><ele>419.0</ele><time>2026-04-06T11:56:26Z</time></trkpt><trkpt lat="44.60582232851604" lon="10.116709760987368"><ele>419.0</ele><time>2026-04-06T11:56:27Z</time></trkpt><trkpt lat="44.605697814318894" lon="10.116681050935174"><ele>419.0</ele><time>2026-04-06T11:56:28Z</time></trkpt><trkpt lat="44.60560139843057" lon="10.116657870357747"><ele>419.0</ele><time>2026-04-06T11:56:29Z</time></trkpt><trkpt lat="44.60552979017262" lon="10.116598666720348"><ele>419.0</ele><time>2026-04-06T11:56:30Z</time></trkpt><trkpt lat="44.605486234521386" lon="10.11651068364958"><ele>421.16666666666663</ele><time>2026-04-06T11:56:31Z</time></trkpt><trkpt lat="44.60546571933916" lon="10.116407852276918"><ele>423.3333333333333</ele><time>2026-04-06T11:56:32Z</time></trkpt><trkpt lat="44.6054804728225" lon="10.116297340055114"><ele>425.5</ele><time>2026-04-06T11:56:33Z</time></trkpt><trkpt lat="44.60554841039623" lon="10.116208658373866"><ele>427.66666666666663</ele><time>2026-04-06T11:56:34Z</time></trkpt><trkpt lat="44.60563795691419" lon="10.116147508051965"><ele>429.8333333333333</ele><time>2026-04-06T11:56:35Z</time></trkpt><trkpt lat="44.60572776110751" lon="10.116136171937208"><ele>432.0</ele><time>2026-04-06T11:56:36Z</time></trkpt><trkpt lat="44.60581325219701" lon="10.116200416253818"><ele>432.0</ele><time>2026-04-06T11:56:37Z</time></trkpt><trkpt lat="44.60592244448669" lon="10.11628098774781"><ele>432.0</ele><time>2026-04-06T11:56:38Z</time></trkpt><trkpt lat="44.60604809078031" lon="10.11637808637786"><ele>432.0</ele><time>2026-04-06T11:56:39Z</time></trkpt><trkpt lat="44.606188158561054" lon="10.116488504471288"><ele>432.0</ele><time>2026-04-06T11:56:40Z</time></trkpt><trkpt lat="44.606311632301704" lon="10.116581522556563"><ele>430.25</ele><time>2026-04-06T11:56:41Z</time></trkpt><trkpt lat="44.60643282813589" lon="10.116651176743277"><ele>428.5</ele><time>2026-04-06T11:56:42Z</time></trkpt><trkpt lat="44.60653263033708" lon="10.1167549259973"><ele>426.75</ele><time>2026-04-06T11:56:43Z</time></trkpt><trkpt lat="44.60665936231294" lon="10.116781986923439"><ele>425.0</ele><time>2026-04-06T11:56:44Z</time></trkpt><trkpt lat="44.606792445313005" lon="10.116802538678758"><ele>425.0</ele><time>2026-04-06T11:56:45Z</time></trkpt><trkpt lat="44.606958001712194" lon="10.116747887666179"><ele>425.0</ele><time>2026-04-06T11:56:46Z</time></trkpt><trkpt lat="44.607117325135384" lon="10.116675273607852"><ele>425.0</ele><time>2026-04-06T11:56:47Z</time></trkpt><trkpt lat="44.6072780304755" lon="10.116599727032296"><ele>429.25</ele><time>2026-04-06T11:56:48Z</time></trkpt><trkpt lat="44.607429665004375" lon="10.116527340247286"><ele>433.5</ele><time>2026-04-06T11:56:49Z</time></trkpt><trkpt lat="44.60756724494293" lon="10.116469089490208"><ele>437.75</ele><time>2026-04-06T11:56:50Z</time></trkpt><trkpt lat="44.60769385325815" lon="10.116425159764992"><ele>442.0</ele><time>2026-04-06T11:56:51Z</time></trkpt><trkpt lat="44.607809356479336" lon="10.11642289007882"><ele>442.0</ele><time>2026-04-06T11:56:52Z</time></trkpt><trkpt lat="44.60790971288294" lon="10.116475302336998"><ele>442.0</ele><time>2026-04-06T11:56:53Z</time></trkpt><trkpt lat="44.60799179512873" lon="10.116598098821576"><ele>442.0</ele><time>2026-04-06T11:56:54Z</time></trkpt><trkpt lat="44.60808122576629" lon="10.116744012649544"><ele>442.0</ele><time>2026-04-06T11:56:55Z</time></trkpt><trkpt lat="44.608148811935386" lon="10.116890287591694"><ele>441.0</ele><time>2026-04-06T11:56:56Z</time></trkpt><trkpt lat="44.60823471905429" lon="10.116970095564144"><ele>440.00000000000006</ele><time>2026-04-06T11:56:57Z</time></trkpt><trkpt lat="44.608329066012615" lon="10.116994747417182"><ele>439.00000000000006</ele><time>2026-04-06T11:56:58Z</time></trkpt><trkpt lat="44.60842682865478" lon="10.117012301832187"><ele>438.0</ele><time>2026-04-06T11:56:59Z</time></trkpt><trkpt lat="44.60852825012016" lon="10.116935460592925"><ele>437.0</ele><time>2026-04-06T11:57:00Z</time></trkpt><trkpt lat="44.60861806643372" lon="10.116827730227612"><ele>436.5</ele><time>2026-04-06T11:57:01Z</time></trkpt><trkpt lat="44.60866302085197" lon="10.116623180701406"><ele>436.0</ele><time>2026-04-06T11:57:02Z</time></trkpt><trkpt lat="44.60864760419928" lon="10.1164663676231"><ele>435.5</ele><time>2026-04-06T11:57:03Z</time></trkpt><trkpt lat="44.60863927614074" lon="10.116298514679933"><ele>435.0</ele><time>2026-04-06T11:57:04Z</time></trkpt><trkpt lat="44.60861029006492" lon="10.116103412674372"><ele>437.33333333333337</ele><time>2026-04-06T11:57:05Z</time></trkpt><trkpt lat="44.60857395044153" lon="10.11588489442102"><ele>439.6666666666667</ele><time>2026-04-06T11:57:06Z</time></trkpt><trkpt lat="44.60853546018862" lon="10.115656899257356"><ele>442.0</ele><time>2026-04-06T11:57:07Z</time></trkpt><trkpt lat="44.60848939044668" lon="10.11544770503241"><ele>443.5</ele><time>2026-04-06T11:57:08Z</time></trkpt><trkpt lat="44.608460562871024" lon="10.115225035759137"><ele>445.0</ele><time>2026-04-06T11:57:09Z</time></trkpt><trkpt lat="44.60842620725471" lon="10.115029468819804"><ele>446.5</ele><time>2026-04-06T11:57:10Z</time></trkpt><trkpt lat="44.60841500356911" lon="10.114847299352913"><ele>448.0</ele><time>2026-04-06T11:57:11Z</time></trkpt><trkpt lat="44.60842731803394" lon="10.114703254437265"><ele>449.0</ele><time>2026-04-06T11:57:12Z</time></trkpt><trkpt lat="44.60844027427784" lon="10.114568272700359"><ele>449.99999999999994</ele><time>2026-04-06T11:57:13Z</time></trkpt><trkpt lat="44.60850482364942" lon="10.114474286319295"><ele>450.99999999999994</ele><time>2026-04-06T11:57:14Z</time></trkpt><trkpt lat="44.60856760269758" lon="10.114364224206254"><ele>452.0</ele><time>2026-04-06T11:57:15Z</time></trkpt><trkpt lat="44.60866359393358" lon="10.114276623690063"><ele>453.0</ele><time>2026-04-06T11:57:16Z</time></trkpt><trkpt lat="44.60876767813619" lon="10.114239365392647"><ele>453.0</ele><time>2026-04-06T11:57:17Z</time></trkpt><trkpt lat="44.608878596962015" lon="10.114241279067947"><ele>453.0</ele><time>2026-04-06T11:57:18Z</time></trkpt><trkpt lat="44.608993532912976" lon="10.114291061845435"><ele>453.0</ele><time>2026-04-06T11:57:19Z</time></trkpt><trkpt lat="44.60910592710184" lon="10.11439997389069"><ele>453.0</ele><time>2026-04-06T11:57:20Z</time></trkpt><trkpt lat="44.609239615273005" lon="10.114531650738103"><ele>453.0</ele><time>2026-04-06T11:57:21Z</time></trkpt><trkpt lat="44.60937815795202" lon="10.114662545533255"><ele>453.0</ele><time>2026-04-06T11:57:22Z</time></trkpt><trkpt lat="44.60950930940122" lon="10.114752696715053"><ele>453.0</ele><time>2026-04-06T11:57:23Z</time></trkpt><trkpt lat="44.60961820718542" lon="10.114839507292459"><ele>453.0</ele><time>2026-04-06T11:57:24Z</time></trkpt><trkpt lat="44.6097408885845" lon="10.114903647763644"><ele>454.25</ele><time>2026-04-06T11:57:25Z</time></trkpt><trkpt lat="44.609865666068444" lon="10.11492361335134"><ele>455.5</ele><time>2026-04-06T11:57:26Z</time></trkpt><trkpt lat="44.60998922873035" lon="10.114884620687947"><ele>456.75</ele><time>2026-04-06T11:57:27Z</time></trkpt><trkpt lat="44.610107465009065" lon="10.114791626950408"><ele>458.0</ele><time>2026-04-06T11:57:28Z</time></trkpt><trkpt lat="44.61022265469184" lon="10.114661887918032"><ele>457.0</ele><time>2026-04-06T11:57:29Z</time></trkpt><trkpt lat="44.6103669489678" lon="10.114565727691756"><ele>456.0</ele><time>2026-04-06T11:57:30Z</time></trkpt><trkpt lat="44.61050040454789" lon="10.114518541886746"><ele>455.0</ele><time>2026-04-06T11:57:31Z</time></trkpt><trkpt lat="44.6106299455156" lon="10.11453065159682"><ele>454.0</ele><time>2026-04-06T11:57:32Z</time></trkpt><trkpt lat="44.610750395531916" lon="10.114623948050983"><ele>454.0</ele><time>2026-04-06T11:57:33Z</time></trkpt><trkpt lat="44.61088957842601" lon="10.114711239997636"><ele>454.0</ele><time>2026-04-06T11:57:34Z</time></trkpt><trkpt lat="44.6110218148273" lon="10.114749023178897"><ele>454.0</ele><time>2026-04-06T11:57:35Z</time></trkpt><trkpt lat="44.61113391522439" lon="10.114782764630867"><ele>454.0</ele><time>2026-04-06T11:57:36Z</time></trkpt><trkpt lat="44.61121868423864" lon="10.11476431988242"><ele>452.75</ele><time>2026-04-06T11:57:37Z</time></trkpt><trkpt lat="44.61129157462985" lon="10.11470692615951"><ele>451.5</ele><time>2026-04-06T11:57:38Z</time></trkpt><trkpt lat="44.61136726920688" lon="10.114585711576693"><ele>450.25</ele><time>2026-04-06T11:57:39Z</time></trkpt><trkpt lat="44.61145037396779" lon="10.114409251385425"><ele>449.0</ele><time>2026-04-06T11:57:40Z</time></trkpt><trkpt lat="44.61153564971179" lon="10.114199250036405"><ele>451.5</ele><time>2026-04-06T11:57:41Z</time></trkpt><trkpt lat="44.611631192157404" lon="10.11400587804256"><ele>454.0</ele><time>2026-04-06T11:57:42Z</time></trkpt><trkpt lat="44.61173217951006" lon="10.113863122304227"><ele>456.5</ele><time>2026-04-06T11:57:43Z</time></trkpt><trkpt lat="44.611837456145665" lon="10.113743488614812"><ele>459.0</ele><time>2026-04-06T11:57:44Z</time></trkpt><trkpt lat="44.611975532537414" lon="10.113677711909776"><ele>457.66666666666663</ele><time>2026-04-06T11:57:45Z</time></trkpt><trkpt lat="44.61213230355599" lon="10.113625468914579"><ele>456.3333333333333</ele><time>2026-04-06T11:57:46Z</time></trkpt><trkpt lat="44.61230005881972" lon="10.113553781670301"><ele>455.0</ele><time>2026-04-06T11:57:47Z</time></trkpt><trkpt lat="44.612450400231936" lon="10.113493483144286"><ele>455.0</ele><time>2026-04-06T11:57:48Z</time></trkpt><trkpt lat="44.6125877884137" lon="10.11346119727623"><ele>455.0</ele><time>2026-04-06T11:57:49Z</time></trkpt><trkpt lat="44.61272963163895" lon="10.113454103648008"><ele>455.0</ele><time>2026-04-06T11:57:50Z</time></trkpt><trkpt lat="44.61288071589557" lon="10.113458791552995"><ele>455.0</ele><time>2026-04-06T11:57:51Z</time></trkpt><trkpt lat="44.61304033497297" lon="10.113465372888022"><ele>455.0</ele><time>2026-04-06T11:57:52Z</time></trkpt><trkpt lat="44.613197476034436" lon="10.11347265373005"><ele>455.0</ele><time>2026-04-06T11:57:53Z</time></trkpt><trkpt lat="44.61332051490909" lon="10.11349326330603"><ele>455.0</ele><time>2026-04-06T11:57:54Z</time></trkpt><trkpt lat="44.61342502511274" lon="10.113530239982053"><ele>455.0</ele><time>2026-04-06T11:57:55Z</time></trkpt><trkpt lat="44.61350020016017" lon="10.113617767064977"><ele>455.0</ele><time>2026-04-06T11:57:56Z</time></trkpt><trkpt lat="44.613584728421166" lon="10.113711158868973"><ele>455.0</ele><time>2026-04-06T11:57:57Z</time></trkpt><trkpt lat="44.61356204984604" lon="10.113884968842159"><ele>455.0</ele><time>2026-04-06T11:57:58Z</time></trkpt><trkpt lat="44.61353319509645" lon="10.114043633012654"><ele>455.0</ele><time>2026-04-06T11:57:59Z</time></trkpt><trkpt lat="44.613506055779354" lon="10.114235748363894"><ele>452.66666666666663</ele><time>2026-04-06T11:58:00Z</time></trkpt><trkpt lat="44.61348380221398" lon="10.114473332492743"><ele>450.33333333333337</ele><time>2026-04-06T11:58:01Z</time></trkpt><trkpt lat="44.613440001337324" lon="10.114732292642358"><ele>448.0</ele><time>2026-04-06T11:58:02Z</time></trkpt><trkpt lat="44.61340043583946" lon="10.114982019738427"><ele>448.0</ele><time>2026-04-06T11:58:03Z</time></trkpt><trkpt lat="44.61336549883844" lon="10.115255189585623"><ele>448.0</ele><time>2026-04-06T11:58:04Z</time></trkpt><trkpt lat="44.61332424463917" lon="10.115533378011467"><ele>448.0</ele><time>2026-04-06T11:58:05Z</time></trkpt><trkpt lat="44.61328650887234" lon="10.115814100301822"><ele>447.0</ele><time>2026-04-06T11:58:06Z</time></trkpt><trkpt lat="44.61324869645164" lon="10.11606979296878"><ele>446.0</ele><time>2026-04-06T11:58:07Z</time></trkpt><trkpt lat="44.613211110094596" lon="10.116283837390252"><ele>445.0</ele><time>2026-04-06T11:58:08Z</time></trkpt><trkpt lat="44.61318398477035" lon="10.116475962997443"><ele>444.75</ele><time>2026-04-06T11:58:09Z</time></trkpt><trkpt lat="44.613160691430316" lon="10.116653741313002"><ele>444.5</ele><time>2026-04-06T11:58:10Z</time></trkpt><trkpt lat="44.6131545904792" lon="10.11681966571256"><ele>444.25</ele><time>2026-04-06T11:58:11Z</time></trkpt><trkpt lat="44.61317679035067" lon="10.116978467354555"><ele>444.0</ele><time>2026-04-06T11:58:12Z</time></trkpt><trkpt lat="44.61322980150155" lon="10.117117468874499"><ele>444.0</ele><time>2026-04-06T11:58:13Z</time></trkpt><trkpt lat="44.613323213438676" lon="10.117243570014224"><ele>444.0</ele><time>2026-04-06T11:58:14Z</time></trkpt><trkpt lat="44.613454912025745" lon="10.117345491334708"><ele>444.0</ele><time>2026-04-06T11:58:15Z</time></trkpt><trkpt lat="44.613586260349294" lon="10.117468819732"><ele>444.0</ele><time>2026-04-06T11:58:16Z</time></trkpt><trkpt lat="44.613710816320626" lon="10.11758941681597"><ele>443.75</ele><time>2026-04-06T11:58:17Z</time></trkpt><trkpt lat="44.61379098766958" lon="10.117740651555103"><ele>443.5</ele><time>2026-04-06T11:58:18Z</time></trkpt><trkpt lat="44.61383947718394" lon="10.117926373899518"><ele>443.25</ele><time>2026-04-06T11:58:19Z</time></trkpt><trkpt lat="44.61385693311792" lon="10.11812762827556"><ele>443.0</ele><time>2026-04-06T11:58:20Z</time></trkpt><trkpt lat="44.61389814362505" lon="10.118284650511931"><ele>445.75</ele><time>2026-04-06T11:58:21Z</time></trkpt><trkpt lat="44.613957994948585" lon="10.118429867787597"><ele>448.5</ele><time>2026-04-06T11:58:22Z</time></trkpt><trkpt lat="44.61405843286482" lon="10.118541376767894"><ele>451.25</ele><time>2026-04-06T11:58:23Z</time></trkpt><trkpt lat="44.614176576815325" lon="10.118603582000292"><ele>454.0</ele><time>2026-04-06T11:58:24Z</time></trkpt><trkpt lat="44.61430959813418" lon="10.11861595012572"><ele>454.0</ele><time>2026-04-06T11:58:25Z</time></trkpt><trkpt lat="44.61443608557004" lon="10.118675837398483"><ele>454.0</ele><time>2026-04-06T11:58:26Z</time></trkpt><trkpt lat="44.61453572373842" lon="10.118767464986913"><ele>454.0</ele><time>2026-04-06T11:58:27Z</time></trkpt><trkpt lat="44.61463005465944" lon="10.118903437180917"><ele>454.0</ele><time>2026-04-06T11:58:28Z</time></trkpt><trkpt lat="44.614716176221314" lon="10.119089645805733"><ele>454.6666666666667</ele><time>2026-04-06T11:58:29Z</time></trkpt><trkpt lat="44.614830200387814" lon="10.119283194699017"><ele>455.33333333333337</ele><time>2026-04-06T11:58:30Z</time></trkpt><trkpt lat="44.6149126594355" lon="10.119471025027647"><ele>456.0</ele><time>2026-04-06T11:58:31Z</time></trkpt><trkpt lat="44.614997279299814" lon="10.119636183647986"><ele>456.0</ele><time>2026-04-06T11:58:32Z</time></trkpt><trkpt lat="44.61508901662525" lon="10.119774089559732"><ele>456.0</ele><time>2026-04-06T11:58:33Z</time></trkpt><trkpt lat="44.61518866502358" lon="10.119877343842793"><ele>456.0</ele><time>2026-04-06T11:58:34Z</time></trkpt><trkpt lat="44.6153036587509" lon="10.119936524616142"><ele>456.0</ele><time>2026-04-06T11:58:35Z</time></trkpt><trkpt lat="44.615425138557626" lon="10.119943072404402"><ele>454.25</ele><time>2026-04-06T11:58:36Z</time></trkpt><trkpt lat="44.615551847816235" lon="10.119892060476447"><ele>452.5</ele><time>2026-04-06T11:58:37Z</time></trkpt><trkpt lat="44.615680978456695" lon="10.11986140391329"><ele>450.75</ele><time>2026-04-06T11:58:38Z</time></trkpt><trkpt lat="44.61580018900917" lon="10.119849053223435"><ele>449.0</ele><time>2026-04-06T11:58:39Z</time></trkpt><trkpt lat="44.61590658129076" lon="10.119899681801767"><ele>448.75</ele><time>2026-04-06T11:58:40Z</time></trkpt><trkpt lat="44.61600940563428" lon="10.119985452470331"><ele>448.5</ele><time>2026-04-06T11:58:41Z</time></trkpt><trkpt lat="44.61613049295786" lon="10.120102207386626"><ele>448.25</ele><time>2026-04-06T11:58:42Z</time></trkpt><trkpt lat="44.61626878980715" lon="10.120218844800561"><ele>448.0</ele><time>2026-04-06T11:58:43Z</time></trkpt><trkpt lat="44.61639584867738" lon="10.120355470888638"><ele>448.0</ele><time>2026-04-06T11:58:44Z</time></trkpt><trkpt lat="44.61651548250725" lon="10.12048425709737"><ele>448.0</ele><time>2026-04-06T11:58:45Z</time></trkpt><trkpt lat="44.616628743411056" lon="10.120601633201563"><ele>448.0</ele><time>2026-04-06T11:58:46Z</time></trkpt><trkpt lat="44.616742044231216" lon="10.120701146655797"><ele>448.0</ele><time>2026-04-06T11:58:47Z</time></trkpt><trkpt lat="44.616856167929136" lon="10.120762669872656"><ele>448.25</ele><time>2026-04-06T11:58:48Z</time></trkpt><trkpt lat="44.616976007319096" lon="10.120788539579635"><ele>448.5</ele><time>2026-04-06T11:58:49Z</time></trkpt><trkpt lat="44.617099553198095" lon="10.120762101954949"><ele>448.75</ele><time>2026-04-06T11:58:50Z</time></trkpt><trkpt lat="44.61722247560959" lon="10.120680672441452"><ele>449.0</ele><time>2026-04-06T11:58:51Z</time></trkpt><trkpt lat="44.617342933663856" lon="10.120548614685271"><ele>446.66666666666663</ele><time>2026-04-06T11:58:52Z</time></trkpt><trkpt lat="44.617479127600625" lon="10.120397762848722"><ele>444.33333333333337</ele><time>2026-04-06T11:58:53Z</time></trkpt><trkpt lat="44.61761339553533" lon="10.120247602845511"><ele>442.0</ele><time>2026-04-06T11:58:54Z</time></trkpt><trkpt lat="44.6177372971875" lon="10.120116225388738"><ele>441.25</ele><time>2026-04-06T11:58:55Z</time></trkpt><trkpt lat="44.617852187928406" lon="10.120003377006826"><ele>440.5</ele><time>2026-04-06T11:58:56Z</time></trkpt><trkpt lat="44.61797052657359" lon="10.119914151776648"><ele>439.75</ele><time>2026-04-06T11:58:57Z</time></trkpt><trkpt lat="44.618098242351756" lon="10.11986112488922"><ele>439.0</ele><time>2026-04-06T11:58:58Z</time></trkpt><trkpt lat="44.618233609702095" lon="10.11986354360304"><ele>439.0</ele><time>2026-04-06T11:58:59Z</time></trkpt><trkpt lat="44.6183760833182" lon="10.119887615631843"><ele>439.0</ele><time>2026-04-06T11:59:00Z</time></trkpt><trkpt lat="44.61851505652223" lon="10.119933824722644"><ele>439.0</ele><time>2026-04-06T11:59:01Z</time></trkpt><trkpt lat="44.618631715068034" lon="10.120018498991158"><ele>439.0</ele><time>2026-04-06T11:59:02Z</time></trkpt><trkpt lat="44.61873816387896" lon="10.120121630003403"><ele>437.5</ele><time>2026-04-06T11:59:03Z</time></trkpt><trkpt lat="44.61885284464002" lon="10.1202185385096"><ele>436.0</ele><time>2026-04-06T11:59:04Z</time></trkpt><trkpt lat="44.6189606672216" lon="10.120334727400211"><ele>434.5</ele><time>2026-04-06T11:59:05Z</time></trkpt><trkpt lat="44.619067656703514" lon="10.120432044915638"><ele>433.0</ele><time>2026-04-06T11:59:06Z</time></trkpt><trkpt lat="44.61916984803267" lon="10.120505006467486"><ele>433.0</ele><time>2026-04-06T11:59:07Z</time></trkpt><trkpt lat="44.6192720479381" lon="10.120556799097105"><ele>432.99999999999994</ele><time>2026-04-06T11:59:08Z</time></trkpt><trkpt lat="44.61937080967753" lon="10.120581806178768"><ele>432.99999999999994</ele><time>2026-04-06T11:59:09Z</time></trkpt><trkpt lat="44.619467021181556" lon="10.120561937456172"><ele>433.0</ele><time>2026-04-06T11:59:10Z</time></trkpt><trkpt lat="44.61955717898679" lon="10.120537902150945"><ele>433.0</ele><time>2026-04-06T11:59:11Z</time></trkpt><trkpt lat="44.6196250270986" lon="10.120400713112671"><ele>433.5</ele><time>2026-04-06T11:59:12Z</time></trkpt><trkpt lat="44.61969356611262" lon="10.120278788195805"><ele>434.0</ele><time>2026-04-06T11:59:13Z</time></trkpt><trkpt lat="44.61977697209371" lon="10.120151249576468"><ele>434.5</ele><time>2026-04-06T11:59:14Z</time></trkpt><trkpt lat="44.619858422532644" lon="10.119998340204537"><ele>435.0</ele><time>2026-04-06T11:59:15Z</time></trkpt><trkpt lat="44.61994801706002" lon="10.119840606781883"><ele>432.75</ele><time>2026-04-06T11:59:16Z</time></trkpt><trkpt lat="44.620040844595884" lon="10.119677103437315"><ele>430.5</ele><time>2026-04-06T11:59:17Z</time></trkpt><trkpt lat="44.62013019047486" lon="10.119519434466833"><ele>428.25</ele><time>2026-04-06T11:59:18Z</time></trkpt><trkpt lat="44.62022219480548" lon="10.119357073708883"><ele>426.0</ele><time>2026-04-06T11:59:19Z</time></trkpt><trkpt lat="44.620308409360504" lon="10.119204930417812"><ele>424.20000000000005</ele><time>2026-04-06T11:59:20Z</time></trkpt><trkpt lat="44.62038521705797" lon="10.119048369421714"><ele>422.40000000000003</ele><time>2026-04-06T11:59:21Z</time></trkpt><trkpt lat="44.62045653537308" lon="10.118913503125901"><ele>420.6</ele><time>2026-04-06T11:59:22Z</time></trkpt><trkpt lat="44.62052829456175" lon="10.118811595321773"><ele>418.8</ele><time>2026-04-06T11:59:23Z</time></trkpt><trkpt lat="44.62060416712527" lon="10.118749803486095"><ele>417.0</ele><time>2026-04-06T11:59:24Z</time></trkpt><trkpt lat="44.620692550146316" lon="10.118733911934532"><ele>417.0</ele><time>2026-04-06T11:59:25Z</time></trkpt><trkpt lat="44.62080052073102" lon="10.118757978220065"><ele>417.0</ele><time>2026-04-06T11:59:26Z</time></trkpt><trkpt lat="44.620937210383666" lon="10.11877728089877"><ele>417.0</ele><time>2026-04-06T11:59:27Z</time></trkpt><trkpt lat="44.62108473388805" lon="10.118835437685854"><ele>417.0</ele><time>2026-04-06T11:59:28Z</time></trkpt><trkpt lat="44.62124935230229" lon="10.118885145355245"><ele>414.66666666666663</ele><time>2026-04-06T11:59:29Z</time></trkpt><trkpt lat="44.62141253128017" lon="10.11893659984375"><ele>412.3333333333333</ele><time>2026-04-06T11:59:30Z</time></trkpt><trkpt lat="44.62156388506005" lon="10.11900775351841"><ele>410.0</ele><time>2026-04-06T11:59:31Z</time></trkpt><trkpt lat="44.62171956717602" lon="10.119058130358757"><ele>412.0</ele><time>2026-04-06T11:59:32Z</time></trkpt><trkpt lat="44.621876578498664" lon="10.119074322228464"><ele>414.0</ele><time>2026-04-06T11:59:33Z</time></trkpt><trkpt lat="44.622041227563884" lon="10.119100048228242"><ele>416.0</ele><time>2026-04-06T11:59:34Z</time></trkpt><trkpt lat="44.62220542058494" lon="10.119132806768052"><ele>416.0</ele><time>2026-04-06T11:59:35Z</time></trkpt><trkpt lat="44.622376238346114" lon="10.11913011578756"><ele>416.0</ele><time>2026-04-06T11:59:36Z</time></trkpt><trkpt lat="44.622549517537294" lon="10.119113581737158"><ele>416.0</ele><time>2026-04-06T11:59:37Z</time></trkpt><trkpt lat="44.6227087218142" lon="10.119097990392111"><ele>413.0</ele><time>2026-04-06T11:59:38Z</time></trkpt><trkpt lat="44.62286360040564" lon="10.119087358608192"><ele>410.0</ele><time>2026-04-06T11:59:39Z</time></trkpt><trkpt lat="44.62301528396741" lon="10.119091567260329"><ele>407.0</ele><time>2026-04-06T11:59:40Z</time></trkpt><trkpt lat="44.62316329051084" lon="10.11911989756855"><ele>407.0</ele><time>2026-04-06T11:59:41Z</time></trkpt><trkpt lat="44.623320448904806" lon="10.119149534849354"><ele>407.0</ele><time>2026-04-06T11:59:42Z</time></trkpt><trkpt lat="44.6234787076693" lon="10.119178652674552"><ele>407.0</ele><time>2026-04-06T11:59:43Z</time></trkpt><trkpt lat="44.62362454634265" lon="10.119226811042736"><ele>404.66666666666663</ele><time>2026-04-06T11:59:44Z</time></trkpt><trkpt lat="44.623765191312316" lon="10.119284018256764"><ele>402.33333333333337</ele><time>2026-04-06T11:59:45Z</time></trkpt><trkpt lat="44.62391244505857" lon="10.11936286213272"><ele>400.0</ele><time>2026-04-06T11:59:46Z</time></trkpt><trkpt lat="44.62405329886494" lon="10.119451420856176"><ele>400.0</ele><time>2026-04-06T11:59:47Z</time></trkpt><trkpt lat="44.62419366091492" lon="10.119548478270898"><ele>400.0</ele><time>2026-04-06T11:59:48Z</time></trkpt><trkpt lat="44.62432439823563" lon="10.11964400547763"><ele>400.0</ele><time>2026-04-06T11:59:49Z</time></trkpt><trkpt lat="44.624444568201774" lon="10.119733320269662"><ele>400.0</ele><time>2026-04-06T11:59:50Z</time></trkpt><trkpt lat="44.6245591441757" lon="10.119795399521053"><ele>398.6666666666667</ele><time>2026-04-06T11:59:51Z</time></trkpt><trkpt lat="44.62464856857178" lon="10.119860722473968"><ele>397.33333333333337</ele><time>2026-04-06T11:59:52Z</time></trkpt><trkpt lat="44.62473489141689" lon="10.11989639150263"><ele>396.0</ele><time>2026-04-06T11:59:53Z</time></trkpt><trkpt lat="44.62481817949019" lon="10.119881546414451"><ele>394.66666666666663</ele><time>2026-04-06T11:59:54Z</time></trkpt><trkpt lat="44.62489080492076" lon="10.119815766677046"><ele>393.3333333333333</ele><time>2026-04-06T11:59:55Z</time></trkpt><trkpt lat="44.62493535480684" lon="10.119709466360588"><ele>392.0</ele><time>2026-04-06T11:59:56Z</time></trkpt><trkpt lat="44.62494655057507" lon="10.119579521151435"><ele>392.0</ele><time>2026-04-06T11:59:57Z</time></trkpt><trkpt lat="44.62491696259328" lon="10.11944794029103"><ele>392.0</ele><time>2026-04-06T11:59:58Z</time></trkpt><trkpt lat="44.624840583465904" lon="10.11933570352047"><ele>392.0</ele><time>2026-04-06T11:59:59Z</time></trkpt><trkpt lat="44.62473861237503" lon="10.119229267095912"><ele>392.0</ele><time>2026-04-06T12:00:00Z</time></trkpt><trkpt lat="44.62460569411957" lon="10.119101314172866"><ele>392.25</ele><time>2026-04-06T12:00:01Z</time></trkpt><trkpt lat="44.624469584717104" lon="10.118964157905738"><ele>392.5</ele><time>2026-04-06T12:00:02Z</time></trkpt><trkpt lat="44.62436240188154" lon="10.118851228429952"><ele>392.75</ele><time>2026-04-06T12:00:03Z</time></trkpt><trkpt lat="44.62427687832531" lon="10.118747495061"><ele>393.0</ele><time>2026-04-06T12:00:04Z</time></trkpt><trkpt lat="44.624205515084235" lon="10.118626763281839"><ele>393.0</ele><time>2026-04-06T12:00:05Z</time></trkpt><trkpt lat="44.62418274362564" lon="10.118467261387014"><ele>393.0</ele><time>2026-04-06T12:00:06Z</time></trkpt><trkpt lat="44.62418159696148" lon="10.118287275251692"><ele>393.0</ele><time>2026-04-06T12:00:07Z</time></trkpt><trkpt lat="44.62422986975442" lon="10.118097193318121"><ele>393.0</ele><time>2026-04-06T12:00:08Z</time></trkpt><trkpt lat="44.62428685803023" lon="10.117879957371732"><ele>390.33333333333337</ele><time>2026-04-06T12:00:09Z</time></trkpt><trkpt lat="44.62431187096754" lon="10.117666847059104"><ele>387.6666666666667</ele><time>2026-04-06T12:00:10Z</time></trkpt><trkpt lat="44.62433164547977" lon="10.117451839487863"><ele>385.0</ele><time>2026-04-06T12:00:11Z</time></trkpt><trkpt lat="44.62432404779109" lon="10.117234792756992"><ele>383.6666666666667</ele><time>2026-04-06T12:00:12Z</time></trkpt><trkpt lat="44.62430546755676" lon="10.117004080842019"><ele>382.33333333333337</ele><time>2026-04-06T12:00:13Z</time></trkpt><trkpt lat="44.624288315002836" lon="10.11677714209088"><ele>381.0</ele><time>2026-04-06T12:00:14Z</time></trkpt><trkpt lat="44.62427077252751" lon="10.11655050586078"><ele>380.25</ele><time>2026-04-06T12:00:15Z</time></trkpt><trkpt lat="44.62425550011652" lon="10.116333162829005"><ele>379.5</ele><time>2026-04-06T12:00:16Z</time></trkpt><trkpt lat="44.6242434513245" lon="10.116129273471936"><ele>378.75</ele><time>2026-04-06T12:00:17Z</time></trkpt><trkpt lat="44.62423418607593" lon="10.115930675399877"><ele>378.0</ele><time>2026-04-06T12:00:18Z</time></trkpt><trkpt lat="44.62421809857008" lon="10.115761193834995"><ele>376.0</ele><time>2026-04-06T12:00:19Z</time></trkpt><trkpt lat="44.62419358157184" lon="10.115598598454858"><ele>374.0</ele><time>2026-04-06T12:00:20Z</time></trkpt><trkpt lat="44.62415213204005" lon="10.115449636141204"><ele>372.0</ele><time>2026-04-06T12:00:21Z</time></trkpt><trkpt lat="44.62408806326332" lon="10.115315133783245"><ele>370.0</ele><time>2026-04-06T12:00:22Z</time></trkpt><trkpt lat="44.623999520576696" lon="10.115209832736504"><ele>370.0</ele><time>2026-04-06T12:00:23Z</time></trkpt><trkpt lat="44.623898096491544" lon="10.115128769912685"><ele>370.0</ele><time>2026-04-06T12:00:24Z</time></trkpt><trkpt lat="44.62379770746524" lon="10.115066089308124"><ele>370.0</ele><time>2026-04-06T12:00:25Z</time></trkpt><trkpt lat="44.623692376595336" lon="10.115019671469282"><ele>370.0</ele><time>2026-04-06T12:00:26Z</time></trkpt><trkpt lat="44.623569093223146" lon="10.11501592405768"><ele>370.8333333333333</ele><time>2026-04-06T12:00:27Z</time></trkpt><trkpt lat="44.623464029100525" lon="10.115012955972965"><ele>371.66666666666663</ele><time>2026-04-06T12:00:28Z</time></trkpt><trkpt lat="44.62337722253771" lon="10.114974641849246"><ele>372.5</ele><time>2026-04-06T12:00:29Z</time></trkpt><trkpt lat="44.62331649228225" lon="10.114887417422665"><ele>373.3333333333333</ele><time>2026-04-06T12:00:30Z</time></trkpt><trkpt lat="44.62331771470327" lon="10.114771108775788"><ele>374.1666666666667</ele><time>2026-04-06T12:00:31Z</time></trkpt><trkpt lat="44.623343839276885" lon="10.114677809107473"><ele>375.0</ele><time>2026-04-06T12:00:32Z</time></trkpt><trkpt lat="44.62338540352275" lon="10.114592934446426"><ele>372.25</ele><time>2026-04-06T12:00:33Z</time></trkpt><trkpt lat="44.62345073021314" lon="10.114530573457472"><ele>369.5</ele><time>2026-04-06T12:00:34Z</time></trkpt><trkpt lat="44.62355214178431" lon="10.11449396217554"><ele>366.75</ele><time>2026-04-06T12:00:35Z</time></trkpt><trkpt lat="44.623688831168245" lon="10.114458433531826"><ele>364.0</ele><time>2026-04-06T12:00:36Z</time></trkpt><trkpt lat="44.62382957123276" lon="10.114420997026828"><ele>363.0</ele><time>2026-04-06T12:00:37Z</time></trkpt><trkpt lat="44.623965882886175" lon="10.11439464585011"><ele>362.0</ele><time>2026-04-06T12:00:38Z</time></trkpt><trkpt lat="44.624120130160705" lon="10.114376832458161"><ele>361.0</ele><time>2026-04-06T12:00:39Z</time></trkpt><trkpt lat="44.62428212207518" lon="10.1143618500628"><ele>361.0</ele><time>2026-04-06T12:00:40Z</time></trkpt><trkpt lat="44.62442372799705" lon="10.114319387091836"><ele>361.0</ele><time>2026-04-06T12:00:41Z</time></trkpt><trkpt lat="44.62456699203535" lon="10.114299449745864"><ele>361.0</ele><time>2026-04-06T12:00:42Z</time></trkpt><trkpt lat="44.624701016178946" lon="10.114251714834122"><ele>361.0</ele><time>2026-04-06T12:00:43Z</time></trkpt><trkpt lat="44.624824208419575" lon="10.114226589826748"><ele>360.0</ele><time>2026-04-06T12:00:44Z</time></trkpt><trkpt lat="44.62494489491991" lon="10.114191530982476"><ele>359.0</ele><time>2026-04-06T12:00:45Z</time></trkpt><trkpt lat="44.62505911211966" lon="10.11419078983626"><ele>358.0</ele><time>2026-04-06T12:00:46Z</time></trkpt><trkpt lat="44.625165851505955" lon="10.114283905972869"><ele>357.0</ele><time>2026-04-06T12:00:47Z</time></trkpt><trkpt lat="44.625251285770354" lon="10.114403459133579"><ele>354.75</ele><time>2026-04-06T12:00:48Z</time></trkpt><trkpt lat="44.62533789018033" lon="10.114542545417983"><ele>352.5</ele><time>2026-04-06T12:00:49Z</time></trkpt><trkpt lat="44.62543122056931" lon="10.114659353727102"><ele>350.25</ele><time>2026-04-06T12:00:50Z</time></trkpt><trkpt lat="44.625505101609555" lon="10.114776038108577"><ele>348.0</ele><time>2026-04-06T12:00:51Z</time></trkpt><trkpt lat="44.62558840932384" lon="10.114866625227048"><ele>348.0</ele><time>2026-04-06T12:00:52Z</time></trkpt><trkpt lat="44.62568766698025" lon="10.114906524657464"><ele>348.0</ele><time>2026-04-06T12:00:53Z</time></trkpt><trkpt lat="44.625801819394205" lon="10.11489497913586"><ele>348.0</ele><time>2026-04-06T12:00:54Z</time></trkpt><trkpt lat="44.62590672683259" lon="10.114800062465259"><ele>348.0</ele><time>2026-04-06T12:00:55Z</time></trkpt><trkpt lat="44.62605053418778" lon="10.11475035095197"><ele>346.5</ele><time>2026-04-06T12:00:56Z</time></trkpt><trkpt lat="44.62618674450927" lon="10.114674528079876"><ele>345.0</ele><time>2026-04-06T12:00:57Z</time></trkpt><trkpt lat="44.62631061744102" lon="10.114602678580312"><ele>343.5</ele><time>2026-04-06T12:00:58Z</time></trkpt><trkpt lat="44.62642754903025" lon="10.114524479871417"><ele>342.0</ele><time>2026-04-06T12:00:59Z</time></trkpt><trkpt lat="44.626535842136384" lon="10.114441798365254"><ele>342.0</ele><time>2026-04-06T12:01:00Z</time></trkpt><trkpt lat="44.626613800960946" lon="10.114326540930355"><ele>342.0</ele><time>2026-04-06T12:01:01Z</time></trkpt><trkpt lat="44.62668618206638" lon="10.114245498217452"><ele>342.0</ele><time>2026-04-06T12:01:02Z</time></trkpt><trkpt lat="44.62671294066379" lon="10.114115368945805"><ele>342.0</ele><time>2026-04-06T12:01:03Z</time></trkpt><trkpt lat="44.62668966850137" lon="10.113986327070721"><ele>342.0</ele><time>2026-04-06T12:01:04Z</time></trkpt><trkpt lat="44.626642996632576" lon="10.11388701242113"><ele>340.5</ele><time>2026-04-06T12:01:05Z</time></trkpt><trkpt lat="44.62654671634584" lon="10.11382686887499"><ele>339.0</ele><time>2026-04-06T12:01:06Z</time></trkpt><trkpt lat="44.626451552092725" lon="10.113769605945189"><ele>337.5</ele><time>2026-04-06T12:01:07Z</time></trkpt><trkpt lat="44.62633960577695" lon="10.113694846355013"><ele>336.0</ele><time>2026-04-06T12:01:08Z</time></trkpt><trkpt lat="44.626232445700914" lon="10.113605782519585"><ele>336.0</ele><time>2026-04-06T12:01:09Z</time></trkpt><trkpt lat="44.62615476174051" lon="10.113495143104307"><ele>336.0</ele><time>2026-04-06T12:01:10Z</time></trkpt><trkpt lat="44.62607626813509" lon="10.113402419586434"><ele>336.0</ele><time>2026-04-06T12:01:11Z</time></trkpt><trkpt lat="44.62605717702167" lon="10.113247175700444"><ele>336.0</ele><time>2026-04-06T12:01:12Z</time></trkpt><trkpt lat="44.62605771474477" lon="10.113085867958926"><ele>336.0</ele><time>2026-04-06T12:01:13Z</time></trkpt><trkpt lat="44.62605223686403" lon="10.112910440667719"><ele>336.20000000000005</ele><time>2026-04-06T12:01:14Z</time></trkpt><trkpt lat="44.6260521857605" lon="10.11273489194812"><ele>336.40000000000003</ele><time>2026-04-06T12:01:15Z</time></trkpt><trkpt lat="44.62606645899208" lon="10.112599532800857"><ele>336.6</ele><time>2026-04-06T12:01:16Z</time></trkpt><trkpt lat="44.62610158965747" lon="10.112476815709119"><ele>336.8</ele><time>2026-04-06T12:01:17Z</time></trkpt><trkpt lat="44.626172301479016" lon="10.112378132838131"><ele>337.0</ele><time>2026-04-06T12:01:18Z</time></trkpt><trkpt lat="44.626273985393844" lon="10.112294418783947"><ele>334.0</ele><time>2026-04-06T12:01:19Z</time></trkpt><trkpt lat="44.62639152217916" lon="10.112246621276618"><ele>331.0</ele><time>2026-04-06T12:01:20Z</time></trkpt><trkpt lat="44.62651106220834" lon="10.112192360896195"><ele>328.0</ele><time>2026-04-06T12:01:21Z</time></trkpt><trkpt lat="44.62663961050733" lon="10.112135511458108"><ele>325.0</ele><time>2026-04-06T12:01:22Z</time></trkpt><trkpt lat="44.62678559661057" lon="10.112064090623475"><ele>325.0</ele><time>2026-04-06T12:01:23Z</time></trkpt><trkpt lat="44.626922897588194" lon="10.111998158614488"><ele>325.0</ele><time>2026-04-06T12:01:24Z</time></trkpt><trkpt lat="44.6270481476474" lon="10.111939069688749"><ele>325.0</ele><time>2026-04-06T12:01:25Z</time></trkpt><trkpt lat="44.627177444270636" lon="10.111881040892731"><ele>325.0</ele><time>2026-04-06T12:01:26Z</time></trkpt><trkpt lat="44.62731053655476" lon="10.111824271953306"><ele>324.66666666666663</ele><time>2026-04-06T12:01:27Z</time></trkpt><trkpt lat="44.627455084970755" lon="10.111764891315667"><ele>324.3333333333333</ele><time>2026-04-06T12:01:28Z</time></trkpt><trkpt lat="44.62759929657925" lon="10.111705649135544"><ele>324.0</ele><time>2026-04-06T12:01:29Z</time></trkpt><trkpt lat="44.62774390873186" lon="10.11164602318423"><ele>322.5</ele><time>2026-04-06T12:01:30Z</time></trkpt><trkpt lat="44.62788234721489" lon="10.11158711264206"><ele>321.0</ele><time>2026-04-06T12:01:31Z</time></trkpt><trkpt lat="44.628002725355444" lon="10.111528928947468"><ele>319.5</ele><time>2026-04-06T12:01:32Z</time></trkpt><trkpt lat="44.62809329648692" lon="10.11143596825003"><ele>318.0</ele><time>2026-04-06T12:01:33Z</time></trkpt><trkpt lat="44.62817236052112" lon="10.11132711672497"><ele>317.2</ele><time>2026-04-06T12:01:34Z</time></trkpt><trkpt lat="44.628236255209494" lon="10.111182517711606"><ele>316.4</ele><time>2026-04-06T12:01:35Z</time></trkpt><trkpt lat="44.628279942472815" lon="10.111027150146782"><ele>315.59999999999997</ele><time>2026-04-06T12:01:36Z</time></trkpt><trkpt lat="44.62828825096801" lon="10.110892890178066"><ele>314.8</ele><time>2026-04-06T12:01:37Z</time></trkpt><trkpt lat="44.62828679804661" lon="10.110755946282364"><ele>314.0</ele><time>2026-04-06T12:01:38Z</time></trkpt><trkpt lat="44.62826617868775" lon="10.110616156371655"><ele>312.75</ele><time>2026-04-06T12:01:39Z</time></trkpt><trkpt lat="44.628213280509094" lon="10.110489404484257"><ele>311.5</ele><time>2026-04-06T12:01:40Z</time></trkpt><trkpt lat="44.62814372856742" lon="10.110368475344114"><ele>310.25</ele><time>2026-04-06T12:01:41Z</time></trkpt><trkpt lat="44.628044866974896" lon="10.110252451238614"><ele>309.0</ele><time>2026-04-06T12:01:42Z</time></trkpt><trkpt lat="44.627933300640464" lon="10.110155453770176"><ele>309.0</ele><time>2026-04-06T12:01:43Z</time></trkpt><trkpt lat="44.62782246235876" lon="10.110054299175989"><ele>309.0</ele><time>2026-04-06T12:01:44Z</time></trkpt><trkpt lat="44.62772376442951" lon="10.109950543631214"><ele>309.0</ele><time>2026-04-06T12:01:45Z</time></trkpt><trkpt lat="44.62762551777821" lon="10.109850551327414"><ele>309.0</ele><time>2026-04-06T12:01:46Z</time></trkpt><trkpt lat="44.62753318081515" lon="10.109749149635487"><ele>309.2</ele><time>2026-04-06T12:01:47Z</time></trkpt><trkpt lat="44.6274596305694" lon="10.109636018159199"><ele>309.4</ele><time>2026-04-06T12:01:48Z</time></trkpt><trkpt lat="44.62742875319971" lon="10.10949604760212"><ele>309.6</ele><time>2026-04-06T12:01:49Z</time></trkpt><trkpt lat="44.62741273167075" lon="10.109351616742716"><ele>309.8</ele><time>2026-04-06T12:01:50Z</time></trkpt><trkpt lat="44.62741511025756" lon="10.109198022528016"><ele>310.0</ele><time>2026-04-06T12:01:51Z</time></trkpt><trkpt lat="44.6274432607744" lon="10.109036888847552"><ele>310.0</ele><time>2026-04-06T12:01:52Z</time></trkpt><trkpt lat="44.627492436008005" lon="10.108891281740952"><ele>310.0</ele><time>2026-04-06T12:01:53Z</time></trkpt><trkpt lat="44.62756287755237" lon="10.108780919332748"><ele>310.0</ele><time>2026-04-06T12:01:54Z</time></trkpt><trkpt lat="44.627639564190225" lon="10.108691549582213"><ele>310.0</ele><time>2026-04-06T12:01:55Z</time></trkpt><trkpt lat="44.62772575664112" lon="10.108625974706074"><ele>310.0</ele><time>2026-04-06T12:01:56Z</time></trkpt><trkpt lat="44.6278146670197" lon="10.108577597966255"><ele>309.0</ele><time>2026-04-06T12:01:57Z</time></trkpt><trkpt lat="44.627904816606964" lon="10.108534335229978"><ele>308.0</ele><time>2026-04-06T12:01:58Z</time></trkpt><trkpt lat="44.62799544982674" lon="10.10849183343894"><ele>307.0</ele><time>2026-04-06T12:01:59Z</time></trkpt><trkpt lat="44.6280822158117" lon="10.108432426871618"><ele>306.0</ele><time>2026-04-06T12:02:00Z</time></trkpt><trkpt lat="44.628178635213736" lon="10.108384548723459"><ele>305.0</ele><time>2026-04-06T12:02:01Z</time></trkpt><trkpt lat="44.62828578898279" lon="10.108356164129788"><ele>305.0</ele><time>2026-04-06T12:02:02Z</time></trkpt><trkpt lat="44.628401081280415" lon="10.10830080416727"><ele>305.0</ele><time>2026-04-06T12:02:03Z</time></trkpt><trkpt lat="44.6285181404626" lon="10.108243133510278"><ele>305.0</ele><time>2026-04-06T12:02:04Z</time></trkpt><trkpt lat="44.62863421118937" lon="10.108184053820281"><ele>305.0</ele><time>2026-04-06T12:02:05Z</time></trkpt><trkpt lat="44.628745081397724" lon="10.108124177100724"><ele>304.33333333333337</ele><time>2026-04-06T12:02:06Z</time></trkpt><trkpt lat="44.628833325093915" lon="10.108040878676187"><ele>303.6666666666667</ele><time>2026-04-06T12:02:07Z</time></trkpt><trkpt lat="44.62891253317441" lon="10.10797766214702"><ele>303.0</ele><time>2026-04-06T12:02:08Z</time></trkpt><trkpt lat="44.62899212211676" lon="10.107935951038677"><ele>302.3333333333333</ele><time>2026-04-06T12:02:09Z</time></trkpt><trkpt lat="44.62905277224201" lon="10.107884708889282"><ele>301.66666666666663</ele><time>2026-04-06T12:02:10Z</time></trkpt><trkpt lat="44.62912866956049" lon="10.107820033809018"><ele>301.0</ele><time>2026-04-06T12:02:12Z</time></trkpt><trkpt lat="44.629073953888316" lon="10.107616891318319"><ele>301.0</ele><time>2026-04-06T12:02:14Z</time></trkpt><trkpt lat="44.62900146737854" lon="10.10751980121065"><ele>301.0</ele><time>2026-04-06T12:02:16Z</time></trkpt><trkpt lat="44.62890050498124" lon="10.107534734786602"><ele>301.0</ele><time>2026-04-06T12:02:18Z</time></trkpt><trkpt lat="44.62884409849371" lon="10.107674030098538"><ele>301.0</ele><time>2026-04-06T12:02:21Z</time></trkpt><trkpt lat="44.628790238365596" lon="10.107729898228342"><ele>301.0</ele><time>2026-04-06T12:02:23Z</time></trkpt><trkpt lat="44.62876436111631" lon="10.10781343107081"><ele>301.0</ele><time>2026-04-06T12:02:38Z</time></trkpt><trkpt lat="44.6287218886598" lon="10.107913879070523"><ele>301.0</ele><time>2026-04-06T12:02:39Z</time></trkpt><trkpt lat="44.62866376949779" lon="10.107967020557378"><ele>301.0</ele><time>2026-04-06T12:02:40Z</time></trkpt><trkpt lat="44.628584533703346" lon="10.107983330206922"><ele>301.0</ele><time>2026-04-06T12:02:41Z</time></trkpt><trkpt lat="44.62847173980582" lon="10.107978194530597"><ele>301.0</ele><time>2026-04-06T12:02:42Z</time></trkpt><trkpt lat="44.62835021706056" lon="10.107958500460564"><ele>301.0</ele><time>2026-04-06T12:02:43Z</time></trkpt><trkpt lat="44.62826113006852" lon="10.107938519348401"><ele>303.2</ele><time>2026-04-06T12:02:44Z</time></trkpt><trkpt lat="44.62817067239153" lon="10.107900657511045"><ele>305.40000000000003</ele><time>2026-04-06T12:02:46Z</time></trkpt><trkpt lat="44.628089436551896" lon="10.107829886206526"><ele>307.6</ele><time>2026-04-06T12:02:48Z</time></trkpt><trkpt lat="44.6280358274061" lon="10.107726349813108"><ele>309.8</ele><time>2026-04-06T12:02:49Z</time></trkpt><trkpt lat="44.627973487789724" lon="10.107610721134934"><ele>312.0</ele><time>2026-04-06T12:02:50Z</time></trkpt><trkpt lat="44.6279028587223" lon="10.10748417387911"><ele>313.0</ele><time>2026-04-06T12:02:51Z</time></trkpt><trkpt lat="44.6278289345534" lon="10.107339443585884"><ele>314.0</ele><time>2026-04-06T12:02:52Z</time></trkpt><trkpt lat="44.627770906387134" lon="10.107218127112747"><ele>315.0</ele><time>2026-04-06T12:02:53Z</time></trkpt><trkpt lat="44.62771328790144" lon="10.107119528523869"><ele>316.0</ele><time>2026-04-06T12:02:54Z</time></trkpt><trkpt lat="44.627674872430624" lon="10.10702811048818"><ele>317.0</ele><time>2026-04-06T12:02:55Z</time></trkpt><trkpt lat="44.627640496096575" lon="10.106939087855325"><ele>318.25</ele><time>2026-04-06T12:02:56Z</time></trkpt><trkpt lat="44.62758793057701" lon="10.106824392462412"><ele>319.5</ele><time>2026-04-06T12:02:57Z</time></trkpt><trkpt lat="44.62751978603071" lon="10.10667806061575"><ele>320.75</ele><time>2026-04-06T12:02:58Z</time></trkpt><trkpt lat="44.62744392836486" lon="10.1065302716838"><ele>322.0</ele><time>2026-04-06T12:02:59Z</time></trkpt><trkpt lat="44.627397275419554" lon="10.106379042152785"><ele>323.40000000000003</ele><time>2026-04-06T12:03:00Z</time></trkpt><trkpt lat="44.62737392617482" lon="10.10622274683313"><ele>324.8</ele><time>2026-04-06T12:03:01Z</time></trkpt><trkpt lat="44.62738102435821" lon="10.106060332759412"><ele>326.2</ele><time>2026-04-06T12:03:02Z</time></trkpt><trkpt lat="44.62737127329694" lon="10.105922794822499"><ele>327.6</ele><time>2026-04-06T12:03:03Z</time></trkpt><trkpt lat="44.627348856960964" lon="10.105833568355495"><ele>329.0</ele><time>2026-04-06T12:03:04Z</time></trkpt><trkpt lat="44.62725303590488" lon="10.105736750142903"><ele>329.0</ele><time>2026-04-06T12:03:06Z</time></trkpt><trkpt lat="44.627185408532135" lon="10.105741344153213"><ele>329.0</ele><time>2026-04-06T12:03:07Z</time></trkpt><trkpt lat="44.627121399790454" lon="10.105795671593942"><ele>329.0</ele><time>2026-04-06T12:03:08Z</time></trkpt><trkpt lat="44.62704540150083" lon="10.105896274009055"><ele>329.0</ele><time>2026-04-06T12:03:09Z</time></trkpt><trkpt lat="44.62693660063046" lon="10.106039874658885"><ele>329.0</ele><time>2026-04-06T12:03:10Z</time></trkpt><trkpt lat="44.626811774615945" lon="10.10619453539358"><ele>330.75</ele><time>2026-04-06T12:03:11Z</time></trkpt><trkpt lat="44.6267006126607" lon="10.106336540194997"><ele>332.5</ele><time>2026-04-06T12:03:12Z</time></trkpt><trkpt lat="44.62659654436742" lon="10.106473877694242"><ele>334.25</ele><time>2026-04-06T12:03:13Z</time></trkpt><trkpt lat="44.62650082281456" lon="10.106588585665584"><ele>336.0</ele><time>2026-04-06T12:03:14Z</time></trkpt><trkpt lat="44.62640194610784" lon="10.106683309040033"><ele>336.0</ele><time>2026-04-06T12:03:15Z</time></trkpt><trkpt lat="44.62630777945891" lon="10.106733463487947"><ele>336.0</ele><time>2026-04-06T12:03:16Z</time></trkpt><trkpt lat="44.626205363059825" lon="10.106740628474133"><ele>336.0</ele><time>2026-04-06T12:03:17Z</time></trkpt><trkpt lat="44.62609718123939" lon="10.106718806713463"><ele>336.0</ele><time>2026-04-06T12:03:18Z</time></trkpt><trkpt lat="44.62598123443729" lon="10.106692474667268"><ele>336.0</ele><time>2026-04-06T12:03:18.999Z</time></trkpt><trkpt lat="44.625866089782846" lon="10.106673302305078"><ele>337.75</ele><time>2026-04-06T12:03:19.999Z</time></trkpt><trkpt lat="44.625746039877335" lon="10.106680060762185"><ele>339.5</ele><time>2026-04-06T12:03:20.999Z</time></trkpt><trkpt lat="44.62561959348051" lon="10.106719458539082"><ele>341.25</ele><time>2026-04-06T12:03:22Z</time></trkpt><trkpt lat="44.625497739174406" lon="10.106765438265402"><ele>343.0</ele><time>2026-04-06T12:03:23Z</time></trkpt><trkpt lat="44.62540235316692" lon="10.106770423020373"><ele>343.2</ele><time>2026-04-06T12:03:24Z</time></trkpt><trkpt lat="44.62530257358856" lon="10.106756390131151"><ele>343.4</ele><time>2026-04-06T12:03:25Z</time></trkpt><trkpt lat="44.62520428267499" lon="10.106704151345376"><ele>343.59999999999997</ele><time>2026-04-06T12:03:26Z</time></trkpt><trkpt lat="44.625107239223155" lon="10.106613982946776"><ele>343.79999999999995</ele><time>2026-04-06T12:03:27Z</time></trkpt><trkpt lat="44.625009661409294" lon="10.10651824701429"><ele>344.0</ele><time>2026-04-06T12:03:28Z</time></trkpt><trkpt lat="44.62493943442022" lon="10.106433843151812"><ele>345.6666666666667</ele><time>2026-04-06T12:03:29Z</time></trkpt><trkpt lat="44.62487938929998" lon="10.106361634131519"><ele>347.33333333333337</ele><time>2026-04-06T12:03:30Z</time></trkpt><trkpt lat="44.624835664024914" lon="10.106294044690523"><ele>349.0</ele><time>2026-04-06T12:03:31Z</time></trkpt><trkpt lat="44.62477169039307" lon="10.106163084219949"><ele>350.6666666666667</ele><time>2026-04-06T12:03:33Z</time></trkpt><trkpt lat="44.624796017002815" lon="10.106081171472217"><ele>352.3333333333333</ele><time>2026-04-06T12:03:34Z</time></trkpt><trkpt lat="44.62479652691128" lon="10.105960538894509"><ele>354.0</ele><time>2026-04-06T12:03:35Z</time></trkpt><trkpt lat="44.62480305943413" lon="10.105798881846187"><ele>356.75</ele><time>2026-04-06T12:03:36Z</time></trkpt><trkpt lat="44.62481237562259" lon="10.105604323040845"><ele>359.5</ele><time>2026-04-06T12:03:37Z</time></trkpt><trkpt lat="44.624790476484904" lon="10.10544375875467"><ele>362.25</ele><time>2026-04-06T12:03:38Z</time></trkpt><trkpt lat="44.6247882642612" lon="10.105309605419082"><ele>365.0</ele><time>2026-04-06T12:03:39Z</time></trkpt><trkpt lat="44.62470242214293" lon="10.10520179076758"><ele>365.0</ele><time>2026-04-06T12:03:40Z</time></trkpt><trkpt lat="44.62460098255577" lon="10.10511719395947"><ele>365.0</ele><time>2026-04-06T12:03:41Z</time></trkpt><trkpt lat="44.62449369939917" lon="10.10503998476266"><ele>365.0</ele><time>2026-04-06T12:03:42Z</time></trkpt><trkpt lat="44.62441224280067" lon="10.104954269771632"><ele>365.0</ele><time>2026-04-06T12:03:43Z</time></trkpt><trkpt lat="44.624364010698024" lon="10.104862116846565"><ele>365.0</ele><time>2026-04-06T12:03:44Z</time></trkpt><trkpt lat="44.62434952253739" lon="10.104738208821203"><ele>366.5</ele><time>2026-04-06T12:03:45Z</time></trkpt><trkpt lat="44.624365447006475" lon="10.104613862220107"><ele>368.0</ele><time>2026-04-06T12:03:46Z</time></trkpt><trkpt lat="44.624406409472776" lon="10.10447820259573"><ele>369.5</ele><time>2026-04-06T12:03:47Z</time></trkpt><trkpt lat="44.62443824463496" lon="10.104303159348028"><ele>371.0</ele><time>2026-04-06T12:03:48Z</time></trkpt><trkpt lat="44.62447434268171" lon="10.104097728253038"><ele>373.25</ele><time>2026-04-06T12:03:49Z</time></trkpt><trkpt lat="44.62451121394193" lon="10.103887897328846"><ele>375.5</ele><time>2026-04-06T12:03:50Z</time></trkpt><trkpt lat="44.624547087602515" lon="10.103684068138659"><ele>377.75</ele><time>2026-04-06T12:03:51Z</time></trkpt><trkpt lat="44.624566564899126" lon="10.103504437703592"><ele>380.0</ele><time>2026-04-06T12:03:52Z</time></trkpt><trkpt lat="44.624592807958265" lon="10.103364317855076"><ele>380.6</ele><time>2026-04-06T12:03:53Z</time></trkpt><trkpt lat="44.62461803019999" lon="10.103222422090436"><ele>381.2</ele><time>2026-04-06T12:03:54Z</time></trkpt><trkpt lat="44.62463847274304" lon="10.10308470383815"><ele>381.79999999999995</ele><time>2026-04-06T12:03:55Z</time></trkpt><trkpt lat="44.62467208884811" lon="10.10291018292371"><ele>382.4</ele><time>2026-04-06T12:03:57Z</time></trkpt><trkpt lat="44.62466941779328" lon="10.102808764607635"><ele>383.0</ele><time>2026-04-06T12:03:58Z</time></trkpt><trkpt lat="44.62463564269404" lon="10.102709208889904"><ele>383.0</ele><time>2026-04-06T12:03:59Z</time></trkpt><trkpt lat="44.624570608293205" lon="10.102614240267407"><ele>383.0</ele><time>2026-04-06T12:04:00Z</time></trkpt><trkpt lat="44.624486939337594" lon="10.102537143635697"><ele>383.0</ele><time>2026-04-06T12:04:01Z</time></trkpt><trkpt lat="44.624388972930475" lon="10.10243405409939"><ele>383.0</ele><time>2026-04-06T12:04:02Z</time></trkpt><trkpt lat="44.62430051433178" lon="10.10230924772708"><ele>383.0</ele><time>2026-04-06T12:04:03Z</time></trkpt><trkpt lat="44.62420501069312" lon="10.102168776818989"><ele>386.75</ele><time>2026-04-06T12:04:04Z</time></trkpt><trkpt lat="44.62411728221037" lon="10.102038592299907"><ele>390.5</ele><time>2026-04-06T12:04:05Z</time></trkpt><trkpt lat="44.62404853674258" lon="10.10191484135811"><ele>394.25</ele><time>2026-04-06T12:04:06Z</time></trkpt><trkpt lat="44.62396860302225" lon="10.101808107934835"><ele>398.0</ele><time>2026-04-06T12:04:07Z</time></trkpt><trkpt lat="44.623875566120304" lon="10.10171584590838"><ele>398.0</ele><time>2026-04-06T12:04:08Z</time></trkpt><trkpt lat="44.62378115346617" lon="10.101606070973"><ele>398.0</ele><time>2026-04-06T12:04:09Z</time></trkpt><trkpt lat="44.623693835737306" lon="10.101492387151659"><ele>398.0</ele><time>2026-04-06T12:04:10Z</time></trkpt><trkpt lat="44.623625926215" lon="10.101375279962374"><ele>398.0</ele><time>2026-04-06T12:04:11Z</time></trkpt><trkpt lat="44.62357841870289" lon="10.101245954722062"><ele>398.5</ele><time>2026-04-06T12:04:12Z</time></trkpt><trkpt lat="44.62354977693254" lon="10.10109581679149"><ele>399.0</ele><time>2026-04-06T12:04:13Z</time></trkpt><trkpt lat="44.6235391836361" lon="10.100908232342524"><ele>399.5</ele><time>2026-04-06T12:04:14Z</time></trkpt><trkpt lat="44.62348938288613" lon="10.100713587653955"><ele>400.0</ele><time>2026-04-06T12:04:15Z</time></trkpt><trkpt lat="44.62339301127031" lon="10.100501286560466"><ele>401.33333333333337</ele><time>2026-04-06T12:04:16Z</time></trkpt><trkpt lat="44.623290380002224" lon="10.100265732541512"><ele>402.66666666666663</ele><time>2026-04-06T12:04:17Z</time></trkpt><trkpt lat="44.62318238362131" lon="10.100033579159987"><ele>404.0</ele><time>2026-04-06T12:04:18Z</time></trkpt><trkpt lat="44.623094122636644" lon="10.099842927235368"><ele>405.2</ele><time>2026-04-06T12:04:19Z</time></trkpt><trkpt lat="44.62301804779366" lon="10.099679095978443"><ele>406.4</ele><time>2026-04-06T12:04:20Z</time></trkpt><trkpt lat="44.622963022981075" lon="10.099557495321076"><ele>407.6</ele><time>2026-04-06T12:04:21Z</time></trkpt><trkpt lat="44.62289876069128" lon="10.09948350170964"><ele>408.8</ele><time>2026-04-06T12:04:23Z</time></trkpt><trkpt lat="44.6229197373534" lon="10.099396850720819"><ele>410.0</ele><time>2026-04-06T12:04:32Z</time></trkpt><trkpt lat="44.62286710853823" lon="10.099232796853881"><ele>411.4</ele><time>2026-04-06T12:04:34Z</time></trkpt><trkpt lat="44.62285324534093" lon="10.099078583233437"><ele>412.8</ele><time>2026-04-06T12:04:35Z</time></trkpt><trkpt lat="44.622836925645004" lon="10.098941585296075"><ele>414.20000000000005</ele><time>2026-04-06T12:04:36Z</time></trkpt><trkpt lat="44.62280594365176" lon="10.098811770090043"><ele>415.6</ele><time>2026-04-06T12:04:37Z</time></trkpt><trkpt lat="44.62279489780202" lon="10.098690265031498"><ele>417.0</ele><time>2026-04-06T12:04:38Z</time></trkpt><trkpt lat="44.62277796440091" lon="10.098572397496518"><ele>417.0</ele><time>2026-04-06T12:04:39Z</time></trkpt><trkpt lat="44.6227592055423" lon="10.098413834541757"><ele>417.0</ele><time>2026-04-06T12:04:41Z</time></trkpt><trkpt lat="44.62278704674736" lon="10.098305983961561"><ele>417.0</ele><time>2026-04-06T12:04:43Z</time></trkpt><trkpt lat="44.622816782893565" lon="10.098110199661685"><ele>417.0</ele><time>2026-04-06T12:04:45Z</time></trkpt><trkpt lat="44.62281143887459" lon="10.097989471245365"><ele>417.0</ele><time>2026-04-06T12:04:46Z</time></trkpt><trkpt lat="44.6228100919416" lon="10.097842142241083"><ele>418.0</ele><time>2026-04-06T12:04:48Z</time></trkpt><trkpt lat="44.62279163412579" lon="10.097756646548243"><ele>419.0</ele><time>2026-04-06T12:04:49Z</time></trkpt><trkpt lat="44.6227702316002" lon="10.097646037477709"><ele>420.0</ele><time>2026-04-06T12:04:50Z</time></trkpt><trkpt lat="44.622751726977555" lon="10.097512655051693"><ele>421.0</ele><time>2026-04-06T12:04:51Z</time></trkpt><trkpt lat="44.62273191198066" lon="10.09735424705743"><ele>422.0</ele><time>2026-04-06T12:04:52Z</time></trkpt><trkpt lat="44.622698440228646" lon="10.097185025150317"><ele>423.6</ele><time>2026-04-06T12:04:53Z</time></trkpt><trkpt lat="44.6226839956667" lon="10.097034456703309"><ele>425.20000000000005</ele><time>2026-04-06T12:04:54Z</time></trkpt><trkpt lat="44.622665442048415" lon="10.096885759201315"><ele>426.8</ele><time>2026-04-06T12:04:55Z</time></trkpt><trkpt lat="44.622642505232726" lon="10.096756082310351"><ele>428.4</ele><time>2026-04-06T12:04:56Z</time></trkpt><trkpt lat="44.62259893759704" lon="10.096630877400536"><ele>430.0</ele><time>2026-04-06T12:04:57Z</time></trkpt><trkpt lat="44.62255256931353" lon="10.096494375425268"><ele>432.0</ele><time>2026-04-06T12:04:58Z</time></trkpt><trkpt lat="44.622522329968476" lon="10.096347384091372"><ele>434.0</ele><time>2026-04-06T12:04:59Z</time></trkpt><trkpt lat="44.62249131174619" lon="10.096205712623064"><ele>436.0</ele><time>2026-04-06T12:05:00Z</time></trkpt><trkpt lat="44.62246283693175" lon="10.09606616756824"><ele>438.0</ele><time>2026-04-06T12:05:01Z</time></trkpt><trkpt lat="44.622417565935095" lon="10.09592545824033"><ele>440.0</ele><time>2026-04-06T12:05:02Z</time></trkpt><trkpt lat="44.62239090028581" lon="10.095769988897697"><ele>440.8</ele><time>2026-04-06T12:05:03Z</time></trkpt><trkpt lat="44.62235928512289" lon="10.09560788397771"><ele>441.6</ele><time>2026-04-06T12:05:04Z</time></trkpt><trkpt lat="44.62233053964388" lon="10.095470004544742"><ele>442.4</ele><time>2026-04-06T12:05:05Z</time></trkpt><trkpt lat="44.62231049293192" lon="10.095349800275025"><ele>443.2</ele><time>2026-04-06T12:05:06Z</time></trkpt><trkpt lat="44.62228849989791" lon="10.095257626743718"><ele>444.0</ele><time>2026-04-06T12:05:07Z</time></trkpt><trkpt lat="44.622264048377026" lon="10.095150558103908"><ele>444.0</ele><time>2026-04-06T12:05:08Z</time></trkpt><trkpt lat="44.622248511859794" lon="10.095061183843722"><ele>444.0</ele><time>2026-04-06T12:05:09Z</time></trkpt><trkpt lat="44.622291594354294" lon="10.09528597125607"><ele>444.0</ele><time>2026-04-06T12:06:39Z</time></trkpt><trkpt lat="44.62231650179944" lon="10.095409769338238"><ele>444.0</ele><time>2026-04-06T12:06:40Z</time></trkpt><trkpt lat="44.6223361350035" lon="10.09551964238905"><ele>444.0</ele><time>2026-04-06T12:06:41Z</time></trkpt><trkpt lat="44.62235647684348" lon="10.095625833331605"><ele>444.0</ele><time>2026-04-06T12:06:42Z</time></trkpt><trkpt lat="44.622377115693006" lon="10.09573000388903"><ele>444.0</ele><time>2026-04-06T12:06:43Z</time></trkpt><trkpt lat="44.622398333140985" lon="10.095842528053794"><ele>444.0</ele><time>2026-04-06T12:06:44Z</time></trkpt><trkpt lat="44.62242203745795" lon="10.095961349968189"><ele>444.0</ele><time>2026-04-06T12:06:45Z</time></trkpt><trkpt lat="44.62244644925262" lon="10.096073854466454"><ele>444.0</ele><time>2026-04-06T12:06:46Z</time></trkpt><trkpt lat="44.62246819586073" lon="10.096192528453887"><ele>444.0</ele><time>2026-04-06T12:06:47Z</time></trkpt><trkpt lat="44.62248807959827" lon="10.096295961929263"><ele>443.3333333333333</ele><time>2026-04-06T12:06:48Z</time></trkpt><trkpt lat="44.622512384115716" lon="10.096398341391236"><ele>442.66666666666663</ele><time>2026-04-06T12:06:49Z</time></trkpt><trkpt lat="44.62254383045401" lon="10.096496673867652"><ele>442.0</ele><time>2026-04-06T12:06:50Z</time></trkpt><trkpt lat="44.622559473931574" lon="10.096596431312301"><ele>441.3333333333333</ele><time>2026-04-06T12:06:51Z</time></trkpt><trkpt lat="44.622605775916526" lon="10.096680841366119"><ele>440.66666666666663</ele><time>2026-04-06T12:06:52Z</time></trkpt><trkpt lat="44.62261877818276" lon="10.096779176114314"><ele>440.0</ele><time>2026-04-06T12:06:53Z</time></trkpt><trkpt lat="44.62264483094146" lon="10.096882928696779"><ele>437.5</ele><time>2026-04-06T12:06:54Z</time></trkpt><trkpt lat="44.622663173465774" lon="10.097009910630886"><ele>435.0</ele><time>2026-04-06T12:06:55Z</time></trkpt><trkpt lat="44.622680540533615" lon="10.097193074621144"><ele>432.5</ele><time>2026-04-06T12:06:56Z</time></trkpt><trkpt lat="44.622702952741996" lon="10.097392950491157"><ele>430.0</ele><time>2026-04-06T12:06:57Z</time></trkpt><trkpt lat="44.622740058208905" lon="10.097576724266885"><ele>428.4</ele><time>2026-04-06T12:06:58Z</time></trkpt><trkpt lat="44.62276210163448" lon="10.097739632567423"><ele>426.8</ele><time>2026-04-06T12:06:59Z</time></trkpt><trkpt lat="44.62278197106786" lon="10.097870460339562"><ele>425.20000000000005</ele><time>2026-04-06T12:07:00Z</time></trkpt><trkpt lat="44.62280644842941" lon="10.097964113080009"><ele>423.6</ele><time>2026-04-06T12:07:01Z</time></trkpt><trkpt lat="44.62277860018816" lon="10.098146236735303"><ele>422.0</ele><time>2026-04-06T12:07:03Z</time></trkpt><trkpt lat="44.62277221114666" lon="10.09828721073711"><ele>421.16666666666663</ele><time>2026-04-06T12:07:04Z</time></trkpt><trkpt lat="44.62275199046623" lon="10.098407299484705"><ele>420.3333333333333</ele><time>2026-04-06T12:07:05Z</time></trkpt><trkpt lat="44.622752830074326" lon="10.098515200275955"><ele>419.5</ele><time>2026-04-06T12:07:06Z</time></trkpt><trkpt lat="44.622772483236304" lon="10.098634301542807"><ele>418.66666666666663</ele><time>2026-04-06T12:07:07Z</time></trkpt><trkpt lat="44.62279723059562" lon="10.09876651668512"><ele>417.8333333333333</ele><time>2026-04-06T12:07:08Z</time></trkpt><trkpt lat="44.62279883332469" lon="10.098901651196535"><ele>417.0</ele><time>2026-04-06T12:07:09Z</time></trkpt><trkpt lat="44.62281284319652" lon="10.099021333595667"><ele>415.8333333333333</ele><time>2026-04-06T12:07:10Z</time></trkpt><trkpt lat="44.62283202577868" lon="10.099131714023347"><ele>414.66666666666663</ele><time>2026-04-06T12:07:11Z</time></trkpt><trkpt lat="44.62285666101892" lon="10.099240412151032"><ele>413.5</ele><time>2026-04-06T12:07:12Z</time></trkpt><trkpt lat="44.62288658093448" lon="10.099344169682519"><ele>412.3333333333333</ele><time>2026-04-06T12:07:13Z</time></trkpt><trkpt lat="44.62291252794387" lon="10.099479532753556"><ele>411.16666666666663</ele><time>2026-04-06T12:07:15Z</time></trkpt><trkpt lat="44.622836686672386" lon="10.099486390918598"><ele>410.0</ele><time>2026-04-06T12:07:19Z</time></trkpt><trkpt lat="44.62276606636761" lon="10.099485968371336"><ele>409.66666666666663</ele><time>2026-04-06T12:07:20Z</time></trkpt><trkpt lat="44.622645992096665" lon="10.099493086611195"><ele>409.33333333333337</ele><time>2026-04-06T12:07:21Z</time></trkpt><trkpt lat="44.62247880122632" lon="10.099510488783404"><ele>409.0</ele><time>2026-04-06T12:07:22Z</time></trkpt><trkpt lat="44.62228529748428" lon="10.099525868042171"><ele>409.0</ele><time>2026-04-06T12:07:23Z</time></trkpt><trkpt lat="44.62211519119818" lon="10.099547555885016"><ele>409.0</ele><time>2026-04-06T12:07:24Z</time></trkpt><trkpt lat="44.62197857816113" lon="10.099539622625496"><ele>409.0</ele><time>2026-04-06T12:07:25Z</time></trkpt><trkpt lat="44.621862858467765" lon="10.09953713926768"><ele>409.0</ele><time>2026-04-06T12:07:26Z</time></trkpt><trkpt lat="44.621748329440265" lon="10.099514373505931"><ele>409.4</ele><time>2026-04-06T12:07:27Z</time></trkpt><trkpt lat="44.621632098493265" lon="10.099502120924015"><ele>409.79999999999995</ele><time>2026-04-06T12:07:28Z</time></trkpt><trkpt lat="44.621536114687224" lon="10.099471435145793"><ele>410.20000000000005</ele><time>2026-04-06T12:07:29Z</time></trkpt><trkpt lat="44.62144988986035" lon="10.099437713387351"><ele>410.6</ele><time>2026-04-06T12:07:30Z</time></trkpt><trkpt lat="44.62137408219946" lon="10.099421787414158"><ele>411.0</ele><time>2026-04-06T12:07:31Z</time></trkpt><trkpt lat="44.62129489737087" lon="10.099401960050065"><ele>411.0</ele><time>2026-04-06T12:07:32Z</time></trkpt><trkpt lat="44.621197177422715" lon="10.099384177012764"><ele>411.0</ele><time>2026-04-06T12:07:33Z</time></trkpt><trkpt lat="44.62111547699159" lon="10.099366223578578"><ele>411.0</ele><time>2026-04-06T12:07:34Z</time></trkpt><trkpt lat="44.62102842188795" lon="10.099348366004113"><ele>411.0</ele><time>2026-04-06T12:07:35Z</time></trkpt><trkpt lat="44.62094626049563" lon="10.099333720851552"><ele>411.0</ele><time>2026-04-06T12:07:36Z</time></trkpt><trkpt lat="44.620875755890374" lon="10.0993174721872"><ele>411.0</ele><time>2026-04-06T12:07:37Z</time></trkpt><trkpt lat="44.62081144013709" lon="10.099286354781226"><ele>410.25</ele><time>2026-04-06T12:07:38Z</time></trkpt><trkpt lat="44.620670285615766" lon="10.099282692197255"><ele>409.5</ele><time>2026-04-06T12:07:40Z</time></trkpt><trkpt lat="44.62056586442406" lon="10.099264226704298"><ele>408.75</ele><time>2026-04-06T12:07:41Z</time></trkpt><trkpt lat="44.62043905159849" lon="10.099262996839101"><ele>408.0</ele><time>2026-04-06T12:07:42Z</time></trkpt><trkpt lat="44.62032057284494" lon="10.099260404196466"><ele>407.5</ele><time>2026-04-06T12:07:43Z</time></trkpt><trkpt lat="44.62021095963341" lon="10.09925142093048"><ele>407.0</ele><time>2026-04-06T12:07:44Z</time></trkpt><trkpt lat="44.62009887307002" lon="10.099236085854782"><ele>406.5</ele><time>2026-04-06T12:07:45Z</time></trkpt><trkpt lat="44.619981901527844" lon="10.09920247019312"><ele>406.0</ele><time>2026-04-06T12:07:46Z</time></trkpt><trkpt lat="44.61986401332882" lon="10.099139824884997"><ele>406.0</ele><time>2026-04-06T12:07:47Z</time></trkpt><trkpt lat="44.61975313806098" lon="10.099070857889531"><ele>406.0</ele><time>2026-04-06T12:07:48Z</time></trkpt><trkpt lat="44.619666519363" lon="10.099008495340957"><ele>406.0</ele><time>2026-04-06T12:07:49Z</time></trkpt><trkpt lat="44.61957601552955" lon="10.099039285857373"><ele>406.0</ele><time>2026-04-06T12:07:50Z</time></trkpt><trkpt lat="44.61949883616664" lon="10.099103024497051"><ele>406.0</ele><time>2026-04-06T12:07:51Z</time></trkpt><trkpt lat="44.61944163308958" lon="10.099197185583416"><ele>404.8</ele><time>2026-04-06T12:07:52Z</time></trkpt><trkpt lat="44.61941716942927" lon="10.099321694187438"><ele>403.6</ele><time>2026-04-06T12:07:53Z</time></trkpt><trkpt lat="44.61942507838738" lon="10.099471184278595"><ele>402.4</ele><time>2026-04-06T12:07:54Z</time></trkpt><trkpt lat="44.61945462727221" lon="10.099642265057472"><ele>401.2</ele><time>2026-04-06T12:07:55Z</time></trkpt><trkpt lat="44.619479932445195" lon="10.099802347893267"><ele>400.0</ele><time>2026-04-06T12:07:56Z</time></trkpt><trkpt lat="44.61948748185717" lon="10.099934103173418"><ele>404.0</ele><time>2026-04-06T12:07:57Z</time></trkpt><trkpt lat="44.61946418078463" lon="10.100041536244728"><ele>408.0</ele><time>2026-04-06T12:07:58Z</time></trkpt><trkpt lat="44.61940666534798" lon="10.100150533052409"><ele>412.0</ele><time>2026-04-06T12:07:59Z</time></trkpt><trkpt lat="44.61933370663192" lon="10.10026465449728"><ele>416.0</ele><time>2026-04-06T12:08:00Z</time></trkpt><trkpt lat="44.619247299381" lon="10.100380011103427"><ele>420.0</ele><time>2026-04-06T12:08:01Z</time></trkpt><trkpt lat="44.61917345886527" lon="10.100539221264441"><ele>420.0</ele><time>2026-04-06T12:08:02Z</time></trkpt><trkpt lat="44.61912008923847" lon="10.100707612915176"><ele>420.0</ele><time>2026-04-06T12:08:03Z</time></trkpt><trkpt lat="44.619069345535294" lon="10.100836012001533"><ele>420.0</ele><time>2026-04-06T12:08:04Z</time></trkpt><trkpt lat="44.61900556257733" lon="10.100935202280546"><ele>420.0</ele><time>2026-04-06T12:08:05Z</time></trkpt><trkpt lat="44.618923606422484" lon="10.101033925820385"><ele>420.0</ele><time>2026-04-06T12:08:06Z</time></trkpt><trkpt lat="44.61883572657081" lon="10.10113644950988"><ele>419.8333333333333</ele><time>2026-04-06T12:08:07Z</time></trkpt><trkpt lat="44.61876552705704" lon="10.101217832243726"><ele>419.66666666666663</ele><time>2026-04-06T12:08:08Z</time></trkpt><trkpt lat="44.61871056175291" lon="10.101278693346718"><ele>419.5</ele><time>2026-04-06T12:08:09Z</time></trkpt><trkpt lat="44.618648912846844" lon="10.101314631429858"><ele>419.3333333333333</ele><time>2026-04-06T12:08:10Z</time></trkpt><trkpt lat="44.61857555231056" lon="10.101295661992342"><ele>419.16666666666663</ele><time>2026-04-06T12:08:11Z</time></trkpt><trkpt lat="44.618500735397525" lon="10.101205534282576"><ele>419.0</ele><time>2026-04-06T12:08:12Z</time></trkpt><trkpt lat="44.61840457776853" lon="10.10112096595577"><ele>421.75</ele><time>2026-04-06T12:08:13Z</time></trkpt><trkpt lat="44.61828285480236" lon="10.10102199703762"><ele>424.5</ele><time>2026-04-06T12:08:14Z</time></trkpt><trkpt lat="44.61816545289128" lon="10.100905505289445"><ele>427.25</ele><time>2026-04-06T12:08:15Z</time></trkpt><trkpt lat="44.61805510310828" lon="10.100781853031773"><ele>430.0</ele><time>2026-04-06T12:08:16Z</time></trkpt><trkpt lat="44.61794734386477" lon="10.100615256314445"><ele>431.33333333333337</ele><time>2026-04-06T12:08:17Z</time></trkpt><trkpt lat="44.61782289851101" lon="10.100404373330363"><ele>432.66666666666663</ele><time>2026-04-06T12:08:18Z</time></trkpt><trkpt lat="44.61770760391206" lon="10.100199619036513"><ele>434.0</ele><time>2026-04-06T12:08:19Z</time></trkpt><trkpt lat="44.61758952800901" lon="10.100002987996607"><ele>438.66666666666663</ele><time>2026-04-06T12:08:20Z</time></trkpt><trkpt lat="44.61746475316654" lon="10.099791268707921"><ele>443.33333333333337</ele><time>2026-04-06T12:08:21Z</time></trkpt><trkpt lat="44.61734719072727" lon="10.099577404378637"><ele>448.0</ele><time>2026-04-06T12:08:22Z</time></trkpt><trkpt lat="44.61722775646303" lon="10.099367781003803"><ele>448.0</ele><time>2026-04-06T12:08:23Z</time></trkpt><trkpt lat="44.61711975313559" lon="10.099176131521853"><ele>448.0</ele><time>2026-04-06T12:08:24Z</time></trkpt><trkpt lat="44.617011856384295" lon="10.098988739663127"><ele>448.0</ele><time>2026-04-06T12:08:25Z</time></trkpt><trkpt lat="44.616909644570065" lon="10.098818061376972"><ele>451.0</ele><time>2026-04-06T12:08:26Z</time></trkpt><trkpt lat="44.61682195315414" lon="10.098652192239474"><ele>454.0</ele><time>2026-04-06T12:08:27Z</time></trkpt><trkpt lat="44.616751839469295" lon="10.098477479891729"><ele>457.0</ele><time>2026-04-06T12:08:28Z</time></trkpt><trkpt lat="44.61671848792816" lon="10.098281062128622"><ele>460.0</ele><time>2026-04-06T12:08:29Z</time></trkpt><trkpt lat="44.616697392209836" lon="10.098083601025017"><ele>461.0</ele><time>2026-04-06T12:08:30Z</time></trkpt><trkpt lat="44.616656416690766" lon="10.09785370275498"><ele>462.0</ele><time>2026-04-06T12:08:31Z</time></trkpt><trkpt lat="44.61664935901479" lon="10.097622866674115"><ele>463.0</ele><time>2026-04-06T12:08:32Z</time></trkpt><trkpt lat="44.616625056494165" lon="10.097474251739088"><ele>464.0</ele><time>2026-04-06T12:08:33Z</time></trkpt><trkpt lat="44.616594229526136" lon="10.097306620572919"><ele>465.0</ele><time>2026-04-06T12:08:34Z</time></trkpt><trkpt lat="44.61652912789829" lon="10.097119320649226"><ele>466.0</ele><time>2026-04-06T12:08:35Z</time></trkpt><trkpt lat="44.61642640403361" lon="10.096935881200736"><ele>467.0</ele><time>2026-04-06T12:08:36Z</time></trkpt><trkpt lat="44.61630550284865" lon="10.096754327185915"><ele>466.66666666666663</ele><time>2026-04-06T12:08:37Z</time></trkpt><trkpt lat="44.61615891816766" lon="10.09657375924568"><ele>466.33333333333337</ele><time>2026-04-06T12:08:38Z</time></trkpt><trkpt lat="44.615995026618606" lon="10.09639929968581"><ele>466.0</ele><time>2026-04-06T12:08:39Z</time></trkpt><trkpt lat="44.61583949967931" lon="10.096242386820494"><ele>470.6666666666667</ele><time>2026-04-06T12:08:40Z</time></trkpt><trkpt lat="44.61570394468154" lon="10.096111971439406"><ele>475.33333333333337</ele><time>2026-04-06T12:08:41Z</time></trkpt><trkpt lat="44.615611244225676" lon="10.095948557087098"><ele>480.0</ele><time>2026-04-06T12:08:42Z</time></trkpt><trkpt lat="44.61552284349355" lon="10.095768283151761"><ele>479.25</ele><time>2026-04-06T12:08:43Z</time></trkpt><trkpt lat="44.61541915233903" lon="10.095612270215925"><ele>478.5</ele><time>2026-04-06T12:08:44Z</time></trkpt><trkpt lat="44.615333939815514" lon="10.095485943867912"><ele>477.75</ele><time>2026-04-06T12:08:45Z</time></trkpt><trkpt lat="44.615233033986655" lon="10.095377964923872"><ele>477.0</ele><time>2026-04-06T12:08:46Z</time></trkpt><trkpt lat="44.61511950071069" lon="10.095277906997088"><ele>479.75</ele><time>2026-04-06T12:08:47Z</time></trkpt><trkpt lat="44.615002775823775" lon="10.09515536334884"><ele>482.5</ele><time>2026-04-06T12:08:48Z</time></trkpt><trkpt lat="44.61486388895733" lon="10.095082587529173"><ele>485.25</ele><time>2026-04-06T12:08:49Z</time></trkpt><trkpt lat="44.614740663529176" lon="10.09496663712674"><ele>488.0</ele><time>2026-04-06T12:08:50Z</time></trkpt><trkpt lat="44.61461214912313" lon="10.094876260920417"><ele>488.0</ele><time>2026-04-06T12:08:51Z</time></trkpt><trkpt lat="44.61454168912283" lon="10.094723611700616"><ele>488.0</ele><time>2026-04-06T12:08:52Z</time></trkpt><trkpt lat="44.61446424960388" lon="10.094577848379112"><ele>488.0</ele><time>2026-04-06T12:08:53Z</time></trkpt><trkpt lat="44.61436548102856" lon="10.094427556989826"><ele>488.0</ele><time>2026-04-06T12:08:54Z</time></trkpt><trkpt lat="44.61427654003382" lon="10.094254818678287"><ele>492.0</ele><time>2026-04-06T12:08:55Z</time></trkpt><trkpt lat="44.61416691215482" lon="10.094095301605606"><ele>496.0</ele><time>2026-04-06T12:08:56Z</time></trkpt><trkpt lat="44.61404742551108" lon="10.093938107136058"><ele>500.0</ele><time>2026-04-06T12:08:57Z</time></trkpt><trkpt lat="44.613919756711056" lon="10.093773538096928"><ele>500.0</ele><time>2026-04-06T12:08:58Z</time></trkpt><trkpt lat="44.61379801364521" lon="10.093623657523464"><ele>500.0</ele><time>2026-04-06T12:08:59Z</time></trkpt><trkpt lat="44.61367251310978" lon="10.093480814006945"><ele>500.0</ele><time>2026-04-06T12:09:00Z</time></trkpt><trkpt lat="44.61354722981242" lon="10.093344019072212"><ele>504.0</ele><time>2026-04-06T12:09:01Z</time></trkpt><trkpt lat="44.613418419090976" lon="10.093201617278634"><ele>508.0</ele><time>2026-04-06T12:09:02Z</time></trkpt><trkpt lat="44.613305116742815" lon="10.093071679224705"><ele>512.0</ele><time>2026-04-06T12:09:03Z</time></trkpt><trkpt lat="44.61319844504423" lon="10.092952680535301"><ele>516.0</ele><time>2026-04-06T12:09:04Z</time></trkpt><trkpt lat="44.61309375964063" lon="10.092838187221465"><ele>516.0</ele><time>2026-04-06T12:09:05Z</time></trkpt><trkpt lat="44.61299446457527" lon="10.092718531319722"><ele>516.0</ele><time>2026-04-06T12:09:06Z</time></trkpt><trkpt lat="44.61292300004087" lon="10.092572596426356"><ele>516.0</ele><time>2026-04-06T12:09:07Z</time></trkpt><trkpt lat="44.61283916224061" lon="10.092442911840115"><ele>516.0</ele><time>2026-04-06T12:09:08Z</time></trkpt><trkpt lat="44.61275101343706" lon="10.092322379049692"><ele>520.0</ele><time>2026-04-06T12:09:09Z</time></trkpt><trkpt lat="44.61263575686499" lon="10.09221466592355"><ele>524.0</ele><time>2026-04-06T12:09:10Z</time></trkpt><trkpt lat="44.61248989815264" lon="10.092104644712439"><ele>528.0</ele><time>2026-04-06T12:09:11Z</time></trkpt><trkpt lat="44.61234294108087" lon="10.091994140549268"><ele>528.0</ele><time>2026-04-06T12:09:12Z</time></trkpt><trkpt lat="44.61223316112193" lon="10.09187098324684"><ele>528.0</ele><time>2026-04-06T12:09:13Z</time></trkpt><trkpt lat="44.61213630428166" lon="10.091766133524096"><ele>528.0</ele><time>2026-04-06T12:09:14Z</time></trkpt><trkpt lat="44.61203958458877" lon="10.091666402832118"><ele>528.0</ele><time>2026-04-06T12:09:15Z</time></trkpt><trkpt lat="44.611956439025185" lon="10.091542350609926"><ele>530.0</ele><time>2026-04-06T12:09:16Z</time></trkpt><trkpt lat="44.611874546766536" lon="10.091414898872667"><ele>532.0</ele><time>2026-04-06T12:09:17Z</time></trkpt><trkpt lat="44.61180675375259" lon="10.091290276291328"><ele>534.0</ele><time>2026-04-06T12:09:18Z</time></trkpt><trkpt lat="44.61174890484421" lon="10.091163127333905"><ele>536.0</ele><time>2026-04-06T12:09:19Z</time></trkpt><trkpt lat="44.61170926786278" lon="10.091016520131124"><ele>536.0</ele><time>2026-04-06T12:09:20Z</time></trkpt><trkpt lat="44.611675427739655" lon="10.090865488806019"><ele>536.0</ele><time>2026-04-06T12:09:21Z</time></trkpt><trkpt lat="44.61163766624127" lon="10.090725527227818"><ele>536.0</ele><time>2026-04-06T12:09:22Z</time></trkpt><trkpt lat="44.611603977799824" lon="10.090605164189501"><ele>536.0</ele><time>2026-04-06T12:09:23Z</time></trkpt><trkpt lat="44.61157419602205" lon="10.090500627309298"><ele>536.0</ele><time>2026-04-06T12:09:24Z</time></trkpt><trkpt lat="44.611543133227066" lon="10.090402767566788"><ele>536.0</ele><time>2026-04-06T12:09:25Z</time></trkpt><trkpt lat="44.61151361119253" lon="10.090303651458987"><ele>536.0</ele><time>2026-04-06T12:09:26Z</time></trkpt><trkpt lat="44.611484736888485" lon="10.09019620229793"><ele>536.0</ele><time>2026-04-06T12:09:27Z</time></trkpt><trkpt lat="44.611452033434716" lon="10.090079799984531"><ele>536.0</ele><time>2026-04-06T12:09:28Z</time></trkpt><trkpt lat="44.611413322354" lon="10.089948141847385"><ele>536.0</ele><time>2026-04-06T12:09:29Z</time></trkpt><trkpt lat="44.61137162809393" lon="10.089797212076393"><ele>536.75</ele><time>2026-04-06T12:09:30Z</time></trkpt><trkpt lat="44.611325718113896" lon="10.08963033416076"><ele>537.5</ele><time>2026-04-06T12:09:31Z</time></trkpt><trkpt lat="44.611265503579546" lon="10.089429961229374"><ele>538.25</ele><time>2026-04-06T12:09:32Z</time></trkpt><trkpt lat="44.611212647498164" lon="10.089251991379403"><ele>539.0</ele><time>2026-04-06T12:09:33Z</time></trkpt><trkpt lat="44.61115551357006" lon="10.089057226302378"><ele>541.5</ele><time>2026-04-06T12:09:34Z</time></trkpt><trkpt lat="44.61110024354194" lon="10.088858920484519"><ele>544.0</ele><time>2026-04-06T12:09:35Z</time></trkpt><trkpt lat="44.6110483093434" lon="10.088670613454868"><ele>546.5</ele><time>2026-04-06T12:09:36Z</time></trkpt><trkpt lat="44.61099468962339" lon="10.088485832987685"><ele>549.0</ele><time>2026-04-06T12:09:37Z</time></trkpt><trkpt lat="44.61093704006337" lon="10.088296618364655"><ele>550.0</ele><time>2026-04-06T12:09:38Z</time></trkpt><trkpt lat="44.61087803861942" lon="10.088090911082858"><ele>551.0</ele><time>2026-04-06T12:09:39Z</time></trkpt><trkpt lat="44.61082285961124" lon="10.087868999050514"><ele>552.0</ele><time>2026-04-06T12:09:40Z</time></trkpt><trkpt lat="44.61075796542253" lon="10.087639219406558"><ele>553.6666666666666</ele><time>2026-04-06T12:09:41Z</time></trkpt><trkpt lat="44.61068847979359" lon="10.087405050667924"><ele>555.3333333333333</ele><time>2026-04-06T12:09:42Z</time></trkpt><trkpt lat="44.610631701740424" lon="10.087192017370164"><ele>557.0</ele><time>2026-04-06T12:09:43Z</time></trkpt><trkpt lat="44.61058247860967" lon="10.086989511639025"><ele>557.0</ele><time>2026-04-06T12:09:44Z</time></trkpt><trkpt lat="44.610529264501" lon="10.086782209396263"><ele>557.0</ele><time>2026-04-06T12:09:45Z</time></trkpt><trkpt lat="44.61047401672962" lon="10.086541687600018"><ele>557.0</ele><time>2026-04-06T12:09:46Z</time></trkpt><trkpt lat="44.61044027116259" lon="10.086310627527403"><ele>558.3333333333333</ele><time>2026-04-06T12:09:47Z</time></trkpt><trkpt lat="44.61039001348231" lon="10.086077547317787"><ele>559.6666666666666</ele><time>2026-04-06T12:09:48Z</time></trkpt><trkpt lat="44.61033217005626" lon="10.085839295440675"><ele>561.0</ele><time>2026-04-06T12:09:48.999Z</time></trkpt><trkpt lat="44.610278528192225" lon="10.085611151501187"><ele>566.3333333333334</ele><time>2026-04-06T12:09:49.999Z</time></trkpt><trkpt lat="44.61022675116607" lon="10.085375136800007"><ele>571.6666666666667</ele><time>2026-04-06T12:09:50.999Z</time></trkpt><trkpt lat="44.610191730110145" lon="10.085137614252185"><ele>577.0</ele><time>2026-04-06T12:09:51.999Z</time></trkpt><trkpt lat="44.61017380788635" lon="10.084897031488655"><ele>578.25</ele><time>2026-04-06T12:09:52.999Z</time></trkpt><trkpt lat="44.610158728004116" lon="10.084661336332541"><ele>579.5</ele><time>2026-04-06T12:09:53.999Z</time></trkpt><trkpt lat="44.61012251309463" lon="10.084476995979886"><ele>580.75</ele><time>2026-04-06T12:09:54.999Z</time></trkpt><trkpt lat="44.610098329924746" lon="10.08432135872382"><ele>582.0</ele><time>2026-04-06T12:09:55.999Z</time></trkpt><trkpt lat="44.610065520940815" lon="10.084178563775625"><ele>583.0</ele><time>2026-04-06T12:09:57Z</time></trkpt><trkpt lat="44.60999197939903" lon="10.084029676758169"><ele>584.0</ele><time>2026-04-06T12:09:58Z</time></trkpt><trkpt lat="44.609900030922994" lon="10.083887578095629"><ele>585.0</ele><time>2026-04-06T12:09:59Z</time></trkpt><trkpt lat="44.609802115159965" lon="10.083759058131289"><ele>586.0</ele><time>2026-04-06T12:10:00Z</time></trkpt><trkpt lat="44.60970138749958" lon="10.083651193664986"><ele>586.0</ele><time>2026-04-06T12:10:01Z</time></trkpt><trkpt lat="44.609603489198925" lon="10.083574042194972"><ele>586.0</ele><time>2026-04-06T12:10:02Z</time></trkpt><trkpt lat="44.60954222768655" lon="10.083508197071552"><ele>586.0</ele><time>2026-04-06T12:10:03Z</time></trkpt><trkpt lat="44.60948230168878" lon="10.083390525986363"><ele>586.0</ele><time>2026-04-06T12:10:05Z</time></trkpt><trkpt lat="44.609490646467314" lon="10.083217057094572"><ele>586.0</ele><time>2026-04-06T12:10:07Z</time></trkpt><trkpt lat="44.609507791043164" lon="10.083107114675176"><ele>588.5</ele><time>2026-04-06T12:10:08Z</time></trkpt><trkpt lat="44.609575222271076" lon="10.082987372797179"><ele>591.0</ele><time>2026-04-06T12:10:09Z</time></trkpt><trkpt lat="44.60967743211354" lon="10.08284544410431"><ele>593.5</ele><time>2026-04-06T12:10:10Z</time></trkpt><trkpt lat="44.609806462888685" lon="10.082698290529866"><ele>596.0</ele><time>2026-04-06T12:10:11Z</time></trkpt><trkpt lat="44.60992758549616" lon="10.082581992807011"><ele>596.0</ele><time>2026-04-06T12:10:12Z</time></trkpt><trkpt lat="44.61005864409829" lon="10.082485650359539"><ele>596.0</ele><time>2026-04-06T12:10:13Z</time></trkpt><trkpt lat="44.61022134095639" lon="10.082423555878021"><ele>596.0</ele><time>2026-04-06T12:10:14Z</time></trkpt><trkpt lat="44.61039236297895" lon="10.082370242396564"><ele>598.0</ele><time>2026-04-06T12:10:15Z</time></trkpt><trkpt lat="44.610537284358074" lon="10.082265025867368"><ele>600.0</ele><time>2026-04-06T12:10:16Z</time></trkpt><trkpt lat="44.61066583069831" lon="10.082159326611466"><ele>602.0</ele><time>2026-04-06T12:10:17Z</time></trkpt><trkpt lat="44.61076736114166" lon="10.082055143649598"><ele>604.0</ele><time>2026-04-06T12:10:18Z</time></trkpt><trkpt lat="44.61087339773197" lon="10.08201976436563"><ele>604.0</ele><time>2026-04-06T12:10:19Z</time></trkpt><trkpt lat="44.610981791892286" lon="10.082013086135788"><ele>604.0</ele><time>2026-04-06T12:10:20Z</time></trkpt><trkpt lat="44.61109830883799" lon="10.08204999408055"><ele>604.0</ele><time>2026-04-06T12:10:21Z</time></trkpt><trkpt lat="44.611192821408856" lon="10.08214602480777"><ele>604.0</ele><time>2026-04-06T12:10:22Z</time></trkpt><trkpt lat="44.61125673078145" lon="10.082284482203356"><ele>604.75</ele><time>2026-04-06T12:10:23Z</time></trkpt><trkpt lat="44.611339906904504" lon="10.082427816710112"><ele>605.5</ele><time>2026-04-06T12:10:24Z</time></trkpt><trkpt lat="44.61140952934155" lon="10.082584409206296"><ele>606.25</ele><time>2026-04-06T12:10:25Z</time></trkpt><trkpt lat="44.61149448573498" lon="10.082703579964793"><ele>607.0</ele><time>2026-04-06T12:10:26Z</time></trkpt><trkpt lat="44.6115830328566" lon="10.08278834574997"><ele>607.0</ele><time>2026-04-06T12:10:27Z</time></trkpt><trkpt lat="44.61167048535539" lon="10.0828478244605"><ele>607.0</ele><time>2026-04-06T12:10:28Z</time></trkpt><trkpt lat="44.61176453704631" lon="10.082860449275838"><ele>607.0</ele><time>2026-04-06T12:10:29Z</time></trkpt><trkpt lat="44.61188122178178" lon="10.082844558208349"><ele>607.0</ele><time>2026-04-06T12:10:30Z</time></trkpt><trkpt lat="44.61201400855979" lon="10.08282294949759"><ele>607.0</ele><time>2026-04-06T12:10:31Z</time></trkpt><trkpt lat="44.61216492701411" lon="10.08280523735544"><ele>609.3333333333334</ele><time>2026-04-06T12:10:32Z</time></trkpt><trkpt lat="44.61232259569396" lon="10.082784337142114"><ele>611.6666666666666</ele><time>2026-04-06T12:10:33Z</time></trkpt><trkpt lat="44.61246873999232" lon="10.08276134049434"><ele>614.0</ele><time>2026-04-06T12:10:34Z</time></trkpt><trkpt lat="44.612614056820846" lon="10.08274877997145"><ele>614.0</ele><time>2026-04-06T12:10:35Z</time></trkpt><trkpt lat="44.61275554825742" lon="10.082787359857479"><ele>614.0</ele><time>2026-04-06T12:10:36Z</time></trkpt><trkpt lat="44.61288975768882" lon="10.082851415827982"><ele>614.0</ele><time>2026-04-06T12:10:37Z</time></trkpt><trkpt lat="44.61302214740142" lon="10.082923262213878"><ele>614.0</ele><time>2026-04-06T12:10:38Z</time></trkpt><trkpt lat="44.61316505737969" lon="10.082986660688293"><ele>617.3333333333333</ele><time>2026-04-06T12:10:39Z</time></trkpt><trkpt lat="44.61331426135332" lon="10.083068139291358"><ele>620.6666666666666</ele><time>2026-04-06T12:10:40Z</time></trkpt><trkpt lat="44.613462424638755" lon="10.083173566933455"><ele>624.0</ele><time>2026-04-06T12:10:41Z</time></trkpt><trkpt lat="44.61362717496402" lon="10.08326257961674"><ele>623.0</ele><time>2026-04-06T12:10:42Z</time></trkpt><trkpt lat="44.61379321719433" lon="10.083348907415985"><ele>622.0</ele><time>2026-04-06T12:10:43Z</time></trkpt><trkpt lat="44.61395754105372" lon="10.083411422891619"><ele>621.0</ele><time>2026-04-06T12:10:44Z</time></trkpt><trkpt lat="44.6141087979052" lon="10.08349490775535"><ele>621.0</ele><time>2026-04-06T12:10:45Z</time></trkpt><trkpt lat="44.61423418187582" lon="10.08361645211685"><ele>621.0</ele><time>2026-04-06T12:10:46Z</time></trkpt><trkpt lat="44.614332463345605" lon="10.083746488074384"><ele>621.0</ele><time>2026-04-06T12:10:47Z</time></trkpt><trkpt lat="44.61443546096408" lon="10.08387582819436"><ele>621.0</ele><time>2026-04-06T12:10:48Z</time></trkpt><trkpt lat="44.61454410125246" lon="10.083954533816394"><ele>622.2</ele><time>2026-04-06T12:10:49Z</time></trkpt><trkpt lat="44.61465613829301" lon="10.083965792747968"><ele>623.4000000000001</ele><time>2026-04-06T12:10:50Z</time></trkpt><trkpt lat="44.614745335978036" lon="10.084023529157742"><ele>624.6</ele><time>2026-04-06T12:10:51Z</time></trkpt><trkpt lat="44.61483311556066" lon="10.084096387859882"><ele>625.8000000000001</ele><time>2026-04-06T12:10:52Z</time></trkpt><trkpt lat="44.61491312696422" lon="10.084220734846134"><ele>627.0</ele><time>2026-04-06T12:10:53Z</time></trkpt><trkpt lat="44.61497882021084" lon="10.084358934949954"><ele>627.0</ele><time>2026-04-06T12:10:54Z</time></trkpt><trkpt lat="44.61505959326088" lon="10.084462036830054"><ele>627.0</ele><time>2026-04-06T12:10:55Z</time></trkpt><trkpt lat="44.61512953257461" lon="10.0845360047998"><ele>627.0</ele><time>2026-04-06T12:10:56Z</time></trkpt><trkpt lat="44.61521164107969" lon="10.08456734486507"><ele>627.0</ele><time>2026-04-06T12:10:57Z</time></trkpt><trkpt lat="44.61528851608201" lon="10.084576818336338"><ele>627.0</ele><time>2026-04-06T12:10:58Z</time></trkpt><trkpt lat="44.615369783375236" lon="10.08448741713856"><ele>627.75</ele><time>2026-04-06T12:10:59Z</time></trkpt><trkpt lat="44.61545553450866" lon="10.084384896420131"><ele>628.5</ele><time>2026-04-06T12:11:00Z</time></trkpt><trkpt lat="44.61555181189312" lon="10.08424694425585"><ele>629.25</ele><time>2026-04-06T12:11:01Z</time></trkpt><trkpt lat="44.61566255113764" lon="10.084090030009715"><ele>630.0</ele><time>2026-04-06T12:11:02Z</time></trkpt><trkpt lat="44.61577872587375" lon="10.083939210621832"><ele>632.75</ele><time>2026-04-06T12:11:03Z</time></trkpt><trkpt lat="44.61588890945344" lon="10.083800699936026"><ele>635.5</ele><time>2026-04-06T12:11:04Z</time></trkpt><trkpt lat="44.615983083292974" lon="10.083676920533463"><ele>638.25</ele><time>2026-04-06T12:11:05Z</time></trkpt><trkpt lat="44.61604804147448" lon="10.083566842559854"><ele>641.0</ele><time>2026-04-06T12:11:06Z</time></trkpt><trkpt lat="44.616077861554956" lon="10.083448032098175"><ele>641.0</ele><time>2026-04-06T12:11:07Z</time></trkpt><trkpt lat="44.61607568886775" lon="10.083302853068089"><ele>641.0</ele><time>2026-04-06T12:11:08Z</time></trkpt><trkpt lat="44.61604958956549" lon="10.08313404152642"><ele>641.0</ele><time>2026-04-06T12:11:09Z</time></trkpt><trkpt lat="44.616031068253406" lon="10.082972695427411"><ele>641.0</ele><time>2026-04-06T12:11:10Z</time></trkpt><trkpt lat="44.61606841104135" lon="10.082833672611551"><ele>641.0</ele><time>2026-04-06T12:11:11Z</time></trkpt><trkpt lat="44.61612928120648" lon="10.082714789421557"><ele>642.3333333333333</ele><time>2026-04-06T12:11:12Z</time></trkpt><trkpt lat="44.61623058184748" lon="10.082596108969067"><ele>643.6666666666666</ele><time>2026-04-06T12:11:13Z</time></trkpt><trkpt lat="44.616369149065726" lon="10.082475301081617"><ele>645.0</ele><time>2026-04-06T12:11:14Z</time></trkpt><trkpt lat="44.61649345672524" lon="10.082340532721913"><ele>645.0</ele><time>2026-04-06T12:11:15Z</time></trkpt><trkpt lat="44.61663756823936" lon="10.082200834245583"><ele>645.0</ele><time>2026-04-06T12:11:16Z</time></trkpt><trkpt lat="44.61675038498758" lon="10.082059932570793"><ele>645.0</ele><time>2026-04-06T12:11:17Z</time></trkpt><trkpt lat="44.61683525418036" lon="10.081917620127268"><ele>645.0</ele><time>2026-04-06T12:11:18Z</time></trkpt><trkpt lat="44.616890772665705" lon="10.081783025287882"><ele>645.0</ele><time>2026-04-06T12:11:19Z</time></trkpt><trkpt lat="44.61692821380039" lon="10.081619069515188"><ele>645.0</ele><time>2026-04-06T12:11:20Z</time></trkpt><trkpt lat="44.61695713536726" lon="10.081427567817153"><ele>645.0</ele><time>2026-04-06T12:11:21Z</time></trkpt><trkpt lat="44.61700799597413" lon="10.081230100467222"><ele>649.0</ele><time>2026-04-06T12:11:22Z</time></trkpt><trkpt lat="44.617091851158065" lon="10.081043381389835"><ele>653.0</ele><time>2026-04-06T12:11:23Z</time></trkpt><trkpt lat="44.617183557618645" lon="10.080851401633437"><ele>657.0</ele><time>2026-04-06T12:11:24Z</time></trkpt><trkpt lat="44.61726721712463" lon="10.080688431930591"><ele>657.0</ele><time>2026-04-06T12:11:25Z</time></trkpt><trkpt lat="44.61734910083947" lon="10.080534627496696"><ele>657.0</ele><time>2026-04-06T12:11:26Z</time></trkpt><trkpt lat="44.61743127420735" lon="10.080390836616445"><ele>657.0</ele><time>2026-04-06T12:11:27Z</time></trkpt><trkpt lat="44.61753614002785" lon="10.080300352904317"><ele>657.0</ele><time>2026-04-06T12:11:28Z</time></trkpt><trkpt lat="44.61764443337479" lon="10.080200639832341"><ele>657.0</ele><time>2026-04-06T12:11:29Z</time></trkpt><trkpt lat="44.61776398425058" lon="10.080091862029553"><ele>657.0</ele><time>2026-04-06T12:11:30Z</time></trkpt><trkpt lat="44.617883526996245" lon="10.080004682403393"><ele>657.0</ele><time>2026-04-06T12:11:31Z</time></trkpt><trkpt lat="44.617963901939696" lon="10.079939665872573"><ele>657.0</ele><time>2026-04-06T12:11:32Z</time></trkpt><trkpt lat="44.618028206306924" lon="10.079852405584944"><ele>653.75</ele><time>2026-04-06T12:11:33Z</time></trkpt><trkpt lat="44.61807428447383" lon="10.07971732306956"><ele>650.5</ele><time>2026-04-06T12:11:34Z</time></trkpt><trkpt lat="44.61811042866529" lon="10.07953765978293"><ele>647.25</ele><time>2026-04-06T12:11:35Z</time></trkpt><trkpt lat="44.618193090509536" lon="10.079384682732105"><ele>644.0</ele><time>2026-04-06T12:11:36Z</time></trkpt><trkpt lat="44.61828486911993" lon="10.079227198364194"><ele>644.0</ele><time>2026-04-06T12:11:37Z</time></trkpt><trkpt lat="44.61837483143085" lon="10.079103732069418"><ele>644.0</ele><time>2026-04-06T12:11:38Z</time></trkpt><trkpt lat="44.61847649049014" lon="10.079011087284938"><ele>644.0</ele><time>2026-04-06T12:11:39Z</time></trkpt><trkpt lat="44.618601438278375" lon="10.078927153366788"><ele>644.0</ele><time>2026-04-06T12:11:40Z</time></trkpt><trkpt lat="44.618755201885584" lon="10.078825075756669"><ele>646.3333333333333</ele><time>2026-04-06T12:11:41Z</time></trkpt><trkpt lat="44.61889887874215" lon="10.078672475539438"><ele>648.6666666666666</ele><time>2026-04-06T12:11:42Z</time></trkpt><trkpt lat="44.619046061273295" lon="10.078578975374947"><ele>651.0</ele><time>2026-04-06T12:11:43Z</time></trkpt><trkpt lat="44.61917053597007" lon="10.078491176653294"><ele>651.0</ele><time>2026-04-06T12:11:44Z</time></trkpt><trkpt lat="44.61926968980589" lon="10.078420092414683"><ele>651.0</ele><time>2026-04-06T12:11:45Z</time></trkpt><trkpt lat="44.61934352461648" lon="10.07835917017519"><ele>651.0</ele><time>2026-04-06T12:11:46Z</time></trkpt><trkpt lat="44.61941578873985" lon="10.078263891931979"><ele>651.0</ele><time>2026-04-06T12:11:47Z</time></trkpt><trkpt lat="44.619490919932" lon="10.078128344193866"><ele>651.0</ele><time>2026-04-06T12:11:48Z</time></trkpt><trkpt lat="44.6195756753306" lon="10.078025758817239"><ele>649.75</ele><time>2026-04-06T12:11:49Z</time></trkpt><trkpt lat="44.619658468772855" lon="10.07790155311429"><ele>648.5</ele><time>2026-04-06T12:11:50Z</time></trkpt><trkpt lat="44.61975314090118" lon="10.077761583315853"><ele>647.25</ele><time>2026-04-06T12:11:51Z</time></trkpt><trkpt lat="44.61985723619931" lon="10.077584158472858"><ele>646.0</ele><time>2026-04-06T12:11:52Z</time></trkpt><trkpt lat="44.6199493948095" lon="10.077400917788678"><ele>651.5</ele><time>2026-04-06T12:11:53Z</time></trkpt><trkpt lat="44.620020237296195" lon="10.077229518667949"><ele>657.0</ele><time>2026-04-06T12:11:54Z</time></trkpt><trkpt lat="44.620076563073894" lon="10.077073415861623"><ele>662.5</ele><time>2026-04-06T12:11:55Z</time></trkpt><trkpt lat="44.62011847570841" lon="10.076936394290534"><ele>668.0</ele><time>2026-04-06T12:11:56Z</time></trkpt><trkpt lat="44.62016621307448" lon="10.07681476555152"><ele>668.0</ele><time>2026-04-06T12:11:57Z</time></trkpt><trkpt lat="44.62022834805874" lon="10.076713320415646"><ele>668.0</ele><time>2026-04-06T12:11:58Z</time></trkpt><trkpt lat="44.62031508556122" lon="10.076623085587858"><ele>668.0</ele><time>2026-04-06T12:11:59Z</time></trkpt><trkpt lat="44.620416621430394" lon="10.076559008360963"><ele>668.0</ele><time>2026-04-06T12:12:00Z</time></trkpt><trkpt lat="44.620540666498634" lon="10.076534630725778"><ele>668.0</ele><time>2026-04-06T12:12:01Z</time></trkpt><trkpt lat="44.62068217250985" lon="10.07653813032322"><ele>667.75</ele><time>2026-04-06T12:12:02Z</time></trkpt><trkpt lat="44.62083940140494" lon="10.076577294475493"><ele>667.5</ele><time>2026-04-06T12:12:03Z</time></trkpt><trkpt lat="44.62098367707065" lon="10.076585716443763"><ele>667.25</ele><time>2026-04-06T12:12:04Z</time></trkpt><trkpt lat="44.62109834401534" lon="10.076605991404717"><ele>667.0</ele><time>2026-04-06T12:12:05Z</time></trkpt><trkpt lat="44.62118679469069" lon="10.076591821570721"><ele>665.4000000000001</ele><time>2026-04-06T12:12:06Z</time></trkpt><trkpt lat="44.62127848120406" lon="10.076533919291885"><ele>663.8000000000001</ele><time>2026-04-06T12:12:07Z</time></trkpt><trkpt lat="44.621377249705716" lon="10.0764388463104"><ele>662.2</ele><time>2026-04-06T12:12:08Z</time></trkpt><trkpt lat="44.621478333957086" lon="10.076351710492261"><ele>660.6</ele><time>2026-04-06T12:12:09Z</time></trkpt><trkpt lat="44.62156330311237" lon="10.076297469588205"><ele>659.0</ele><time>2026-04-06T12:12:10Z</time></trkpt><trkpt lat="44.621629400951754" lon="10.076252609323646"><ele>659.0</ele><time>2026-04-06T12:12:11Z</time></trkpt><trkpt lat="44.62171524674416" lon="10.076193518851593"><ele>659.0</ele><time>2026-04-06T12:12:13Z</time></trkpt><trkpt lat="44.62174019354767" lon="10.07609178098458"><ele>659.0</ele><time>2026-04-06T12:12:22Z</time></trkpt><trkpt lat="44.621672588549394" lon="10.075959309417126"><ele>659.0</ele><time>2026-04-06T12:12:24Z</time></trkpt><trkpt lat="44.62160140381814" lon="10.075871118130438"><ele>659.0</ele><time>2026-04-06T12:12:25Z</time></trkpt><trkpt lat="44.62153580753319" lon="10.075757914260983"><ele>658.5</ele><time>2026-04-06T12:12:26Z</time></trkpt><trkpt lat="44.62144824706711" lon="10.075659345856115"><ele>658.0</ele><time>2026-04-06T12:12:27Z</time></trkpt><trkpt lat="44.62134501697639" lon="10.07551561238219"><ele>657.5</ele><time>2026-04-06T12:12:28Z</time></trkpt><trkpt lat="44.621243926449985" lon="10.075373986420626"><ele>657.0</ele><time>2026-04-06T12:12:29Z</time></trkpt><trkpt lat="44.6211511394969" lon="10.075242676937208"><ele>658.5</ele><time>2026-04-06T12:12:30Z</time></trkpt><trkpt lat="44.62105941062971" lon="10.075096162343906"><ele>660.0</ele><time>2026-04-06T12:12:31Z</time></trkpt><trkpt lat="44.62098255943826" lon="10.074949448826612"><ele>661.5</ele><time>2026-04-06T12:12:32Z</time></trkpt><trkpt lat="44.62091929757397" lon="10.07479982287674"><ele>663.0</ele><time>2026-04-06T12:12:33Z</time></trkpt><trkpt lat="44.62085456874474" lon="10.074646194390308"><ele>663.0</ele><time>2026-04-06T12:12:34Z</time></trkpt><trkpt lat="44.62078489520317" lon="10.074501700861221"><ele>663.0</ele><time>2026-04-06T12:12:35Z</time></trkpt><trkpt lat="44.62070005748513" lon="10.074374086040628"><ele>663.0</ele><time>2026-04-06T12:12:36Z</time></trkpt><trkpt lat="44.62059394523954" lon="10.074281037052588"><ele>663.0</ele><time>2026-04-06T12:12:37Z</time></trkpt><trkpt lat="44.62046898596967" lon="10.074213022615767"><ele>663.0</ele><time>2026-04-06T12:12:38Z</time></trkpt><trkpt lat="44.62032628600559" lon="10.074144943996558"><ele>663.0</ele><time>2026-04-06T12:12:39Z</time></trkpt><trkpt lat="44.62019545280895" lon="10.074080480473853"><ele>663.0</ele><time>2026-04-06T12:12:40Z</time></trkpt><trkpt lat="44.62007431416567" lon="10.073996704591362"><ele>663.0</ele><time>2026-04-06T12:12:41Z</time></trkpt><trkpt lat="44.61996181784962" lon="10.073893452901858"><ele>666.25</ele><time>2026-04-06T12:12:42Z</time></trkpt><trkpt lat="44.619898436749146" lon="10.073768293265474"><ele>669.5</ele><time>2026-04-06T12:12:43Z</time></trkpt><trkpt lat="44.619848852867634" lon="10.07362564852445"><ele>672.75</ele><time>2026-04-06T12:12:44Z</time></trkpt><trkpt lat="44.61981728803277" lon="10.073451296602519"><ele>676.0</ele><time>2026-04-06T12:12:45Z</time></trkpt><trkpt lat="44.619814145857404" lon="10.07325139944662"><ele>676.0</ele><time>2026-04-06T12:12:46Z</time></trkpt><trkpt lat="44.61983018571581" lon="10.073022559057568"><ele>676.0</ele><time>2026-04-06T12:12:47Z</time></trkpt><trkpt lat="44.61985134207228" lon="10.072787254202117"><ele>676.0</ele><time>2026-04-06T12:12:48Z</time></trkpt><trkpt lat="44.6198568100259" lon="10.072603958276256"><ele>676.0</ele><time>2026-04-06T12:12:49Z</time></trkpt><trkpt lat="44.619865994476044" lon="10.072468816385413"><ele>676.0</ele><time>2026-04-06T12:12:50Z</time></trkpt><trkpt lat="44.61977175843255" lon="10.072364838510333"><ele>676.0</ele><time>2026-04-06T12:12:52Z</time></trkpt><trkpt lat="44.619648932003294" lon="10.07234377296593"><ele>676.0</ele><time>2026-04-06T12:12:53Z</time></trkpt><trkpt lat="44.6195013441759" lon="10.07234458480953"><ele>678.3333333333334</ele><time>2026-04-06T12:12:54Z</time></trkpt><trkpt lat="44.61936075536341" lon="10.07230910657017"><ele>680.6666666666666</ele><time>2026-04-06T12:12:55Z</time></trkpt><trkpt lat="44.6191707537013" lon="10.072288462581383"><ele>683.0</ele><time>2026-04-06T12:12:56Z</time></trkpt><trkpt lat="44.6189741533227" lon="10.072267101630644"><ele>683.0</ele><time>2026-04-06T12:12:57Z</time></trkpt><trkpt lat="44.61879531624354" lon="10.072247670694166"><ele>683.0</ele><time>2026-04-06T12:12:58Z</time></trkpt><trkpt lat="44.618616749127" lon="10.072227931935755"><ele>683.0</ele><time>2026-04-06T12:12:59Z</time></trkpt><trkpt lat="44.61847897044723" lon="10.072204330387901"><ele>687.25</ele><time>2026-04-06T12:13:00Z</time></trkpt><trkpt lat="44.618361768577785" lon="10.072159828883766"><ele>691.5</ele><time>2026-04-06T12:13:01Z</time></trkpt><trkpt lat="44.61825452129387" lon="10.072090843758103"><ele>695.75</ele><time>2026-04-06T12:13:02Z</time></trkpt><trkpt lat="44.61818203107958" lon="10.071981651311132"><ele>700.0</ele><time>2026-04-06T12:13:03Z</time></trkpt><trkpt lat="44.61812938448144" lon="10.071828797216224"><ele>700.0</ele><time>2026-04-06T12:13:04Z</time></trkpt><trkpt lat="44.61810780471857" lon="10.071651642519804"><ele>700.0</ele><time>2026-04-06T12:13:05Z</time></trkpt><trkpt lat="44.618164659016706" lon="10.071474129159851"><ele>700.0</ele><time>2026-04-06T12:13:06Z</time></trkpt><trkpt lat="44.618211560595746" lon="10.071280842136716"><ele>700.0</ele><time>2026-04-06T12:13:07Z</time></trkpt><trkpt lat="44.618246459314925" lon="10.071101006993686"><ele>701.3333333333334</ele><time>2026-04-06T12:13:08Z</time></trkpt><trkpt lat="44.61824861221276" lon="10.070899588221547"><ele>702.6666666666666</ele><time>2026-04-06T12:13:09Z</time></trkpt><trkpt lat="44.61821789464992" lon="10.070674328731812"><ele>704.0</ele><time>2026-04-06T12:13:10Z</time></trkpt><trkpt lat="44.61818586604433" lon="10.070447957299136"><ele>705.3333333333333</ele><time>2026-04-06T12:13:11Z</time></trkpt><trkpt lat="44.61819884960099" lon="10.070202568187803"><ele>706.6666666666666</ele><time>2026-04-06T12:13:12Z</time></trkpt><trkpt lat="44.6182361911151" lon="10.06994812199324"><ele>708.0</ele><time>2026-04-06T12:13:13Z</time></trkpt><trkpt lat="44.61828015899981" lon="10.06971934558299"><ele>709.0</ele><time>2026-04-06T12:13:14Z</time></trkpt><trkpt lat="44.61832201351453" lon="10.069524323029349"><ele>710.0</ele><time>2026-04-06T12:13:15Z</time></trkpt><trkpt lat="44.61835098961014" lon="10.069361712367888"><ele>711.0</ele><time>2026-04-06T12:13:16Z</time></trkpt><trkpt lat="44.61835014503008" lon="10.06920873690712"><ele>712.0</ele><time>2026-04-06T12:13:17Z</time></trkpt><trkpt lat="44.6183185207057" lon="10.069068198291943"><ele>712.0</ele><time>2026-04-06T12:13:18Z</time></trkpt><trkpt lat="44.61825278566638" lon="10.068921776432944"><ele>712.0</ele><time>2026-04-06T12:13:19Z</time></trkpt><trkpt lat="44.61815976425607" lon="10.06877133383689"><ele>712.0</ele><time>2026-04-06T12:13:20Z</time></trkpt><trkpt lat="44.61804741600015" lon="10.06860026270862"><ele>712.0</ele><time>2026-04-06T12:13:21Z</time></trkpt><trkpt lat="44.61793956967245" lon="10.068413707394523"><ele>711.0</ele><time>2026-04-06T12:13:22Z</time></trkpt><trkpt lat="44.61783813092439" lon="10.068230434015911"><ele>710.0</ele><time>2026-04-06T12:13:23Z</time></trkpt><trkpt lat="44.617754329352906" lon="10.068063360666583"><ele>709.0</ele><time>2026-04-06T12:13:24Z</time></trkpt><trkpt lat="44.617687579698675" lon="10.067875847714454"><ele>712.25</ele><time>2026-04-06T12:13:25Z</time></trkpt><trkpt lat="44.6176654186362" lon="10.06766060439941"><ele>715.5</ele><time>2026-04-06T12:13:26Z</time></trkpt><trkpt lat="44.61762015635781" lon="10.06748008270254"><ele>718.75</ele><time>2026-04-06T12:13:27Z</time></trkpt><trkpt lat="44.61758512327864" lon="10.067321505118866"><ele>722.0</ele><time>2026-04-06T12:13:28Z</time></trkpt><trkpt lat="44.617501654700945" lon="10.067190892600278"><ele>722.0</ele><time>2026-04-06T12:13:29Z</time></trkpt><trkpt lat="44.6173850856154" lon="10.067079227545598"><ele>722.0</ele><time>2026-04-06T12:13:30Z</time></trkpt><trkpt lat="44.617243677977605" lon="10.066975694893065"><ele>722.0</ele><time>2026-04-06T12:13:31Z</time></trkpt><trkpt lat="44.61710192399607" lon="10.066834548991189"><ele>722.0</ele><time>2026-04-06T12:13:32Z</time></trkpt><trkpt lat="44.616986814386415" lon="10.066665077191608"><ele>722.0</ele><time>2026-04-06T12:13:33Z</time></trkpt><trkpt lat="44.616901367169106" lon="10.06650881011464"><ele>722.0</ele><time>2026-04-06T12:13:34Z</time></trkpt><trkpt lat="44.61679568953373" lon="10.06637591857844"><ele>722.0</ele><time>2026-04-06T12:13:35Z</time></trkpt><trkpt lat="44.616655426408805" lon="10.066294960030048"><ele>724.0</ele><time>2026-04-06T12:13:36Z</time></trkpt><trkpt lat="44.6164794408188" lon="10.06625653159396"><ele>726.0</ele><time>2026-04-06T12:13:37Z</time></trkpt><trkpt lat="44.61630140240218" lon="10.06618989454188"><ele>728.0</ele><time>2026-04-06T12:13:38Z</time></trkpt><trkpt lat="44.616100710140664" lon="10.066126669411663"><ele>732.0</ele><time>2026-04-06T12:13:39Z</time></trkpt><trkpt lat="44.61590943693669" lon="10.066089633201752"><ele>736.0</ele><time>2026-04-06T12:13:40Z</time></trkpt><trkpt lat="44.615745785084926" lon="10.066033966407472"><ele>740.0</ele><time>2026-04-06T12:13:41Z</time></trkpt><trkpt lat="44.61560856365435" lon="10.065992710534468"><ele>740.0</ele><time>2026-04-06T12:13:42Z</time></trkpt><trkpt lat="44.615497315556794" lon="10.0659691399344"><ele>740.0</ele><time>2026-04-06T12:13:43Z</time></trkpt><trkpt lat="44.61539373270568" lon="10.065992859919788"><ele>740.0</ele><time>2026-04-06T12:13:44Z</time></trkpt><trkpt lat="44.61528607624398" lon="10.066076911290144"><ele>740.0</ele><time>2026-04-06T12:13:45Z</time></trkpt><trkpt lat="44.615184862051095" lon="10.066234850838455"><ele>739.6666666666666</ele><time>2026-04-06T12:13:46Z</time></trkpt><trkpt lat="44.6150771701575" lon="10.066416030731391"><ele>739.3333333333334</ele><time>2026-04-06T12:13:47Z</time></trkpt><trkpt lat="44.61495277712359" lon="10.066599976880122"><ele>739.0</ele><time>2026-04-06T12:13:48Z</time></trkpt><trkpt lat="44.61483217503472" lon="10.066763544055187"><ele>741.5</ele><time>2026-04-06T12:13:49Z</time></trkpt><trkpt lat="44.614718692576155" lon="10.066928071584117"><ele>744.0</ele><time>2026-04-06T12:13:50Z</time></trkpt><trkpt lat="44.61462237435181" lon="10.067067711625993"><ele>746.5</ele><time>2026-04-06T12:13:51Z</time></trkpt><trkpt lat="44.61455514360642" lon="10.067194301388957"><ele>749.0</ele><time>2026-04-06T12:13:52Z</time></trkpt><trkpt lat="44.61451473823099" lon="10.067339572397643"><ele>751.5</ele><time>2026-04-06T12:13:53Z</time></trkpt><trkpt lat="44.61451892644108" lon="10.06751722090094"><ele>754.0</ele><time>2026-04-06T12:13:54Z</time></trkpt><trkpt lat="44.61455169108971" lon="10.067705554406562"><ele>756.5</ele><time>2026-04-06T12:13:55Z</time></trkpt><trkpt lat="44.61459109118852" lon="10.06788125489384"><ele>759.0</ele><time>2026-04-06T12:13:56Z</time></trkpt><trkpt lat="44.614588640766286" lon="10.06803131708639"><ele>759.0</ele><time>2026-04-06T12:13:57Z</time></trkpt><trkpt lat="44.614553326964675" lon="10.068183974362636"><ele>759.0</ele><time>2026-04-06T12:13:58Z</time></trkpt><trkpt lat="44.61445268081389" lon="10.068304162378341"><ele>759.0</ele><time>2026-04-06T12:13:59Z</time></trkpt><trkpt lat="44.61434793789813" lon="10.06843757314028"><ele>759.0</ele><time>2026-04-06T12:14:00Z</time></trkpt><trkpt lat="44.61423611773096" lon="10.068589406647675"><ele>759.0</ele><time>2026-04-06T12:14:01Z</time></trkpt><trkpt lat="44.61410585237858" lon="10.068736568179704"><ele>759.0</ele><time>2026-04-06T12:14:02Z</time></trkpt><trkpt lat="44.61397399178004" lon="10.068901955377449"><ele>759.0</ele><time>2026-04-06T12:14:03Z</time></trkpt><trkpt lat="44.61383869274402" lon="10.069069678670523"><ele>763.3333333333333</ele><time>2026-04-06T12:14:04Z</time></trkpt><trkpt lat="44.6136827154539" lon="10.06923145907256"><ele>767.6666666666666</ele><time>2026-04-06T12:14:05Z</time></trkpt><trkpt lat="44.61353953608558" lon="10.069400732451808"><ele>772.0</ele><time>2026-04-06T12:14:06Z</time></trkpt><trkpt lat="44.61342556489589" lon="10.06955965257195"><ele>772.0</ele><time>2026-04-06T12:14:07Z</time></trkpt><trkpt lat="44.61330278737201" lon="10.06969362849633"><ele>772.0</ele><time>2026-04-06T12:14:08Z</time></trkpt><trkpt lat="44.61319528593912" lon="10.0698006205051"><ele>772.0</ele><time>2026-04-06T12:14:09Z</time></trkpt><trkpt lat="44.61308529324074" lon="10.069900497544047"><ele>772.0</ele><time>2026-04-06T12:14:10Z</time></trkpt><trkpt lat="44.61297370905411" lon="10.069989039652425"><ele>774.5</ele><time>2026-04-06T12:14:11Z</time></trkpt><trkpt lat="44.61284262808198" lon="10.070052162196427"><ele>777.0</ele><time>2026-04-06T12:14:12Z</time></trkpt><trkpt lat="44.61271114356389" lon="10.070109392164552"><ele>779.5</ele><time>2026-04-06T12:14:13Z</time></trkpt><trkpt lat="44.61256724876072" lon="10.070131971967971"><ele>782.0</ele><time>2026-04-06T12:14:14Z</time></trkpt><trkpt lat="44.61241036020092" lon="10.070134616937871"><ele>782.25</ele><time>2026-04-06T12:14:15Z</time></trkpt><trkpt lat="44.61226801000028" lon="10.070106898168007"><ele>782.5</ele><time>2026-04-06T12:14:16Z</time></trkpt><trkpt lat="44.61213595514039" lon="10.070074720966613"><ele>782.75</ele><time>2026-04-06T12:14:17Z</time></trkpt><trkpt lat="44.611993636558736" lon="10.070038688779894"><ele>783.0</ele><time>2026-04-06T12:14:18Z</time></trkpt><trkpt lat="44.61184408496939" lon="10.070018964890817"><ele>781.75</ele><time>2026-04-06T12:14:19Z</time></trkpt><trkpt lat="44.61169218822634" lon="10.069974817385623"><ele>780.5</ele><time>2026-04-06T12:14:20Z</time></trkpt><trkpt lat="44.61155136395332" lon="10.069929989808081"><ele>779.25</ele><time>2026-04-06T12:14:21Z</time></trkpt><trkpt lat="44.61143046785849" lon="10.069901871336883"><ele>778.0</ele><time>2026-04-06T12:14:22Z</time></trkpt><trkpt lat="44.61132726732404" lon="10.069903116825603"><ele>778.75</ele><time>2026-04-06T12:14:23Z</time></trkpt><trkpt lat="44.611239854315755" lon="10.069952956596289"><ele>779.5</ele><time>2026-04-06T12:14:24Z</time></trkpt><trkpt lat="44.61116547929536" lon="10.070055909116514"><ele>780.25</ele><time>2026-04-06T12:14:25Z</time></trkpt><trkpt lat="44.61110773110661" lon="10.070210609168521"><ele>781.0</ele><time>2026-04-06T12:14:26Z</time></trkpt><trkpt lat="44.61107041585797" lon="10.070404303779718"><ele>781.0</ele><time>2026-04-06T12:14:27Z</time></trkpt><trkpt lat="44.61104560496715" lon="10.07062507805374"><ele>781.0</ele><time>2026-04-06T12:14:28Z</time></trkpt><trkpt lat="44.61101614867757" lon="10.070842692075166"><ele>781.0</ele><time>2026-04-06T12:14:29Z</time></trkpt><trkpt lat="44.610977375058944" lon="10.071044234035044"><ele>782.25</ele><time>2026-04-06T12:14:30Z</time></trkpt><trkpt lat="44.610913764050835" lon="10.071243697508086"><ele>783.5</ele><time>2026-04-06T12:14:31Z</time></trkpt><trkpt lat="44.61087029354261" lon="10.071440406559468"><ele>784.75</ele><time>2026-04-06T12:14:32Z</time></trkpt><trkpt lat="44.61078054389888" lon="10.071577679926998"><ele>786.0</ele><time>2026-04-06T12:14:33Z</time></trkpt><trkpt lat="44.610675474822564" lon="10.071660610252637"><ele>786.25</ele><time>2026-04-06T12:14:34Z</time></trkpt><trkpt lat="44.610542152531906" lon="10.071729973519771"><ele>786.5</ele><time>2026-04-06T12:14:35Z</time></trkpt><trkpt lat="44.61039595599218" lon="10.071775118115461"><ele>786.75</ele><time>2026-04-06T12:14:36Z</time></trkpt><trkpt lat="44.61024325572366" lon="10.071780712924989"><ele>787.0</ele><time>2026-04-06T12:14:37Z</time></trkpt><trkpt lat="44.61008447707893" lon="10.071740190523721"><ele>787.0</ele><time>2026-04-06T12:14:38Z</time></trkpt><trkpt lat="44.60991370125895" lon="10.071686399756272"><ele>787.0</ele><time>2026-04-06T12:14:39Z</time></trkpt><trkpt lat="44.60973231680162" lon="10.07164141284304"><ele>787.0</ele><time>2026-04-06T12:14:40Z</time></trkpt><trkpt lat="44.60955396283405" lon="10.071585736377003"><ele>782.3333333333333</ele><time>2026-04-06T12:14:41Z</time></trkpt><trkpt lat="44.609388791277034" lon="10.071535943205946"><ele>777.6666666666667</ele><time>2026-04-06T12:14:42Z</time></trkpt><trkpt lat="44.609224470210066" lon="10.071487328079485"><ele>773.0</ele><time>2026-04-06T12:14:43Z</time></trkpt><trkpt lat="44.60905951780651" lon="10.071435460172719"><ele>773.0</ele><time>2026-04-06T12:14:44Z</time></trkpt><trkpt lat="44.60888791961618" lon="10.071375544985695"><ele>773.0</ele><time>2026-04-06T12:14:45Z</time></trkpt><trkpt lat="44.60872698946081" lon="10.071322744563766"><ele>773.0</ele><time>2026-04-06T12:14:46Z</time></trkpt><trkpt lat="44.608576992009404" lon="10.071281191594771"><ele>773.0</ele><time>2026-04-06T12:14:47Z</time></trkpt><trkpt lat="44.60843245671681" lon="10.071244965378511"><ele>773.0</ele><time>2026-04-06T12:14:48Z</time></trkpt><trkpt lat="44.60829055871229" lon="10.07122443174875"><ele>773.0</ele><time>2026-04-06T12:14:49Z</time></trkpt><trkpt lat="44.60815694265546" lon="10.071248196395475"><ele>773.0</ele><time>2026-04-06T12:14:50Z</time></trkpt><trkpt lat="44.608034864505626" lon="10.071314896994412"><ele>773.0</ele><time>2026-04-06T12:14:51Z</time></trkpt><trkpt lat="44.60792112458495" lon="10.071416928391832"><ele>773.0</ele><time>2026-04-06T12:14:52Z</time></trkpt><trkpt lat="44.60781623208099" lon="10.071555665183725"><ele>773.0</ele><time>2026-04-06T12:14:53Z</time></trkpt><trkpt lat="44.60772661971702" lon="10.071713208040265"><ele>773.0</ele><time>2026-04-06T12:14:54Z</time></trkpt><trkpt lat="44.60761777878205" lon="10.07182208823856"><ele>774.5</ele><time>2026-04-06T12:14:55Z</time></trkpt><trkpt lat="44.60750948297388" lon="10.071884196158383"><ele>776.0</ele><time>2026-04-06T12:14:56Z</time></trkpt><trkpt lat="44.60739492568045" lon="10.071897213062124"><ele>777.5</ele><time>2026-04-06T12:14:57Z</time></trkpt><trkpt lat="44.607265090953426" lon="10.071899028955107"><ele>779.0</ele><time>2026-04-06T12:14:58Z</time></trkpt><trkpt lat="44.607114380712964" lon="10.071901340150934"><ele>775.3333333333334</ele><time>2026-04-06T12:14:59Z</time></trkpt><trkpt lat="44.606950740936526" lon="10.071923055043822"><ele>771.6666666666667</ele><time>2026-04-06T12:15:00Z</time></trkpt><trkpt lat="44.60679285596777" lon="10.071904975564768"><ele>768.0</ele><time>2026-04-06T12:15:01Z</time></trkpt><trkpt lat="44.60665428218784" lon="10.071905367925588"><ele>768.0</ele><time>2026-04-06T12:15:02Z</time></trkpt><trkpt lat="44.606511968955004" lon="10.071915054480263"><ele>768.0</ele><time>2026-04-06T12:15:03Z</time></trkpt><trkpt lat="44.60639023309708" lon="10.071841156006819"><ele>768.0</ele><time>2026-04-06T12:15:04Z</time></trkpt><trkpt lat="44.606264165297304" lon="10.07179355022759"><ele>768.0</ele><time>2026-04-06T12:15:05Z</time></trkpt><trkpt lat="44.606148380581544" lon="10.071758983285712"><ele>768.3333333333333</ele><time>2026-04-06T12:15:06Z</time></trkpt><trkpt lat="44.60601491816687" lon="10.071789469408158"><ele>768.6666666666666</ele><time>2026-04-06T12:15:07Z</time></trkpt><trkpt lat="44.605863228222994" lon="10.071874656830847"><ele>769.0</ele><time>2026-04-06T12:15:08Z</time></trkpt><trkpt lat="44.60570699308625" lon="10.071977360435701"><ele>769.0</ele><time>2026-04-06T12:15:09Z</time></trkpt><trkpt lat="44.60552312511422" lon="10.072036754632755"><ele>769.0</ele><time>2026-04-06T12:15:10Z</time></trkpt><trkpt lat="44.605352805789956" lon="10.072098352318147"><ele>769.0</ele><time>2026-04-06T12:15:11Z</time></trkpt><trkpt lat="44.60519253830085" lon="10.072172395051421"><ele>768.0</ele><time>2026-04-06T12:15:12Z</time></trkpt><trkpt lat="44.605031750781784" lon="10.072223529250826"><ele>767.0</ele><time>2026-04-06T12:15:13Z</time></trkpt><trkpt lat="44.604875800982896" lon="10.072280126126632"><ele>766.0</ele><time>2026-04-06T12:15:14Z</time></trkpt><trkpt lat="44.60472501591837" lon="10.072335703481437"><ele>766.0</ele><time>2026-04-06T12:15:15Z</time></trkpt><trkpt lat="44.60458120405595" lon="10.0723741238862"><ele>766.0</ele><time>2026-04-06T12:15:16Z</time></trkpt><trkpt lat="44.604442091489624" lon="10.072391657388314"><ele>766.0</ele><time>2026-04-06T12:15:17Z</time></trkpt><trkpt lat="44.60429780816717" lon="10.072379117805458"><ele>766.0</ele><time>2026-04-06T12:15:18Z</time></trkpt><trkpt lat="44.604154034638384" lon="10.07232519535397"><ele>767.3333333333334</ele><time>2026-04-06T12:15:19Z</time></trkpt><trkpt lat="44.60400376810361" lon="10.072267769419469"><ele>768.6666666666667</ele><time>2026-04-06T12:15:20Z</time></trkpt><trkpt lat="44.603859884130685" lon="10.072220848291892"><ele>770.0</ele><time>2026-04-06T12:15:21Z</time></trkpt><trkpt lat="44.6037159640835" lon="10.072177822033556"><ele>771.25</ele><time>2026-04-06T12:15:22Z</time></trkpt><trkpt lat="44.603564205701225" lon="10.072179849134145"><ele>772.5</ele><time>2026-04-06T12:15:23Z</time></trkpt><trkpt lat="44.603424773641954" lon="10.072214411812174"><ele>773.75</ele><time>2026-04-06T12:15:24Z</time></trkpt><trkpt lat="44.603297979844605" lon="10.072208662129777"><ele>775.0</ele><time>2026-04-06T12:15:25Z</time></trkpt><trkpt lat="44.60318370620366" lon="10.072147005222932"><ele>775.0</ele><time>2026-04-06T12:15:26Z</time></trkpt><trkpt lat="44.60309727381201" lon="10.072040326478554"><ele>775.0</ele><time>2026-04-06T12:15:27Z</time></trkpt><trkpt lat="44.60302998700161" lon="10.071864212618221"><ele>775.0</ele><time>2026-04-06T12:15:28Z</time></trkpt><trkpt lat="44.602982907016866" lon="10.071674297400648"><ele>775.0</ele><time>2026-04-06T12:15:29Z</time></trkpt><trkpt lat="44.60292393389948" lon="10.07149922104478"><ele>771.0</ele><time>2026-04-06T12:15:30Z</time></trkpt><trkpt lat="44.60285091370605" lon="10.071288436201971"><ele>767.0</ele><time>2026-04-06T12:15:31Z</time></trkpt><trkpt lat="44.60276668043396" lon="10.071105752153608"><ele>763.0</ele><time>2026-04-06T12:15:32Z</time></trkpt><trkpt lat="44.60270327185307" lon="10.070930043738327"><ele>765.5999999999999</ele><time>2026-04-06T12:15:33Z</time></trkpt><trkpt lat="44.60264339934197" lon="10.070779331435693"><ele>768.1999999999999</ele><time>2026-04-06T12:15:34Z</time></trkpt><trkpt lat="44.60256628933693" lon="10.070691127337929"><ele>770.8</ele><time>2026-04-06T12:15:35Z</time></trkpt><trkpt lat="44.602473428816026" lon="10.070654768945486"><ele>773.4</ele><time>2026-04-06T12:15:36Z</time></trkpt><trkpt lat="44.6023659458594" lon="10.070675733702911"><ele>776.0</ele><time>2026-04-06T12:15:37Z</time></trkpt><trkpt lat="44.602245157386434" lon="10.070766001272368"><ele>779.6666666666667</ele><time>2026-04-06T12:15:38Z</time></trkpt><trkpt lat="44.60211561918607" lon="10.070880624176247"><ele>783.3333333333333</ele><time>2026-04-06T12:15:39Z</time></trkpt><trkpt lat="44.60198579068729" lon="10.071022970038033"><ele>787.0</ele><time>2026-04-06T12:15:40Z</time></trkpt><trkpt lat="44.601867052420104" lon="10.071146409376492"><ele>787.3333333333333</ele><time>2026-04-06T12:15:41Z</time></trkpt><trkpt lat="44.60174785424667" lon="10.071254211278921"><ele>787.6666666666667</ele><time>2026-04-06T12:15:42Z</time></trkpt><trkpt lat="44.60161978384137" lon="10.071369780664925"><ele>788.0</ele><time>2026-04-06T12:15:43Z</time></trkpt><trkpt lat="44.60147861427228" lon="10.071463808378427"><ele>788.0</ele><time>2026-04-06T12:15:44Z</time></trkpt><trkpt lat="44.60134500710901" lon="10.071576649673492"><ele>788.0</ele><time>2026-04-06T12:15:45Z</time></trkpt><trkpt lat="44.60121580954843" lon="10.071685766747768"><ele>788.0</ele><time>2026-04-06T12:15:46Z</time></trkpt><trkpt lat="44.60108983854159" lon="10.071790954286943"><ele>790.2</ele><time>2026-04-06T12:15:47Z</time></trkpt><trkpt lat="44.6009745602234" lon="10.071883975490232"><ele>792.4</ele><time>2026-04-06T12:15:48Z</time></trkpt><trkpt lat="44.60086990344584" lon="10.071923442395356"><ele>794.6</ele><time>2026-04-06T12:15:49Z</time></trkpt><trkpt lat="44.600775883340944" lon="10.071953300625445"><ele>796.8000000000001</ele><time>2026-04-06T12:15:50Z</time></trkpt><trkpt lat="44.60069363047822" lon="10.071865020336245"><ele>799.0</ele><time>2026-04-06T12:15:51Z</time></trkpt><trkpt lat="44.60064974229087" lon="10.07175960188785"><ele>799.0</ele><time>2026-04-06T12:15:52Z</time></trkpt><trkpt lat="44.60061594663536" lon="10.071631739035636"><ele>799.0</ele><time>2026-04-06T12:15:53Z</time></trkpt><trkpt lat="44.600582276794036" lon="10.071467387403434"><ele>799.0</ele><time>2026-04-06T12:15:54Z</time></trkpt><trkpt lat="44.600535457519115" lon="10.071281388095283"><ele>799.0</ele><time>2026-04-06T12:15:55Z</time></trkpt><trkpt lat="44.600466632806175" lon="10.0710998276767"><ele>799.5</ele><time>2026-04-06T12:15:56Z</time></trkpt><trkpt lat="44.6004189196904" lon="10.070925505407056"><ele>800.0</ele><time>2026-04-06T12:15:57Z</time></trkpt><trkpt lat="44.60031276416448" lon="10.070805497919164"><ele>800.5</ele><time>2026-04-06T12:15:58Z</time></trkpt><trkpt lat="44.600191540546916" lon="10.07068886069535"><ele>801.0</ele><time>2026-04-06T12:15:59Z</time></trkpt><trkpt lat="44.60004514265718" lon="10.070581069432428"><ele>801.0</ele><time>2026-04-06T12:16:00Z</time></trkpt><trkpt lat="44.59989051111304" lon="10.070475984900538"><ele>801.0</ele><time>2026-04-06T12:16:01Z</time></trkpt><trkpt lat="44.59974439175329" lon="10.070354217389426"><ele>801.0</ele><time>2026-04-06T12:16:02Z</time></trkpt><trkpt lat="44.59962725705863" lon="10.070249714625524"><ele>801.0</ele><time>2026-04-06T12:16:03Z</time></trkpt><trkpt lat="44.599510852367025" lon="10.070182938589376"><ele>801.0</ele><time>2026-04-06T12:16:04Z</time></trkpt><trkpt lat="44.59937328063844" lon="10.070167779755883"><ele>801.0</ele><time>2026-04-06T12:16:05Z</time></trkpt><trkpt lat="44.599229709375855" lon="10.07020686605535"><ele>801.0</ele><time>2026-04-06T12:16:06Z</time></trkpt><trkpt lat="44.59908944658735" lon="10.070292670815574"><ele>804.0</ele><time>2026-04-06T12:16:07Z</time></trkpt><trkpt lat="44.598954737317236" lon="10.070365665226392"><ele>807.0</ele><time>2026-04-06T12:16:08Z</time></trkpt><trkpt lat="44.59882724525779" lon="10.070347290298377"><ele>810.0</ele><time>2026-04-06T12:16:09Z</time></trkpt><trkpt lat="44.59870426551761" lon="10.07027920036696"><ele>813.0</ele><time>2026-04-06T12:16:10Z</time></trkpt><trkpt lat="44.59856607062149" lon="10.07016390769039"><ele>817.6666666666667</ele><time>2026-04-06T12:16:11Z</time></trkpt><trkpt lat="44.59840069347756" lon="10.070064531252745"><ele>822.3333333333334</ele><time>2026-04-06T12:16:12Z</time></trkpt><trkpt lat="44.59823571453399" lon="10.070003687886176"><ele>827.0</ele><time>2026-04-06T12:16:13Z</time></trkpt><trkpt lat="44.598058861479245" lon="10.070008619445922"><ele>827.0</ele><time>2026-04-06T12:16:14Z</time></trkpt><trkpt lat="44.597877279727406" lon="10.069985094893104"><ele>827.0</ele><time>2026-04-06T12:16:15Z</time></trkpt><trkpt lat="44.59769221195891" lon="10.069989864319936"><ele>827.0</ele><time>2026-04-06T12:16:16Z</time></trkpt><trkpt lat="44.59750972356847" lon="10.069993302452625"><ele>831.6666666666667</ele><time>2026-04-06T12:16:17Z</time></trkpt><trkpt lat="44.59733586573822" lon="10.069993302457986"><ele>836.3333333333333</ele><time>2026-04-06T12:16:18Z</time></trkpt><trkpt lat="44.5971853734013" lon="10.069993302463349"><ele>841.0</ele><time>2026-04-06T12:16:19Z</time></trkpt><trkpt lat="44.597045581049095" lon="10.069991585374577"><ele>841.5</ele><time>2026-04-06T12:16:20Z</time></trkpt><trkpt lat="44.596912084346805" lon="10.06997835254324"><ele>842.0</ele><time>2026-04-06T12:16:21Z</time></trkpt><trkpt lat="44.59677874672292" lon="10.069941192439195"><ele>842.5</ele><time>2026-04-06T12:16:22Z</time></trkpt><trkpt lat="44.596662817389586" lon="10.069883458560716"><ele>843.0</ele><time>2026-04-06T12:16:23Z</time></trkpt><trkpt lat="44.59657788009735" lon="10.069794980764835"><ele>847.25</ele><time>2026-04-06T12:16:24Z</time></trkpt><trkpt lat="44.596505179619136" lon="10.0696848671128"><ele>851.5</ele><time>2026-04-06T12:16:25Z</time></trkpt><trkpt lat="44.59645171775202" lon="10.069518446229116"><ele>855.75</ele><time>2026-04-06T12:16:26Z</time></trkpt><trkpt lat="44.596419645888446" lon="10.069305231242678"><ele>860.0</ele><time>2026-04-06T12:16:27Z</time></trkpt><trkpt lat="44.59636915086324" lon="10.06907182586118"><ele>862.6666666666667</ele><time>2026-04-06T12:16:28Z</time></trkpt><trkpt lat="44.596325323174035" lon="10.068828038524988"><ele>865.3333333333333</ele><time>2026-04-06T12:16:29Z</time></trkpt><trkpt lat="44.59625327393461" lon="10.068582970299346"><ele>868.0</ele><time>2026-04-06T12:16:30Z</time></trkpt><trkpt lat="44.596157748587075" lon="10.068336716757116"><ele>861.6666666666666</ele><time>2026-04-06T12:16:31Z</time></trkpt><trkpt lat="44.59605164332145" lon="10.068111418444294"><ele>855.3333333333333</ele><time>2026-04-06T12:16:32Z</time></trkpt><trkpt lat="44.59595018189681" lon="10.067904823554395"><ele>849.0</ele><time>2026-04-06T12:16:33Z</time></trkpt><trkpt lat="44.59589575737683" lon="10.067677891328486"><ele>853.0</ele><time>2026-04-06T12:16:34Z</time></trkpt><trkpt lat="44.59584306180229" lon="10.067437041396179"><ele>857.0</ele><time>2026-04-06T12:16:35Z</time></trkpt><trkpt lat="44.595788934936685" lon="10.067171651944085"><ele>861.0</ele><time>2026-04-06T12:16:36Z</time></trkpt><trkpt lat="44.59575338885316" lon="10.0668961758718"><ele>861.0</ele><time>2026-04-06T12:16:37Z</time></trkpt><trkpt lat="44.59573055156909" lon="10.066636676911676"><ele>861.0</ele><time>2026-04-06T12:16:38Z</time></trkpt><trkpt lat="44.5957164616193" lon="10.066371858084038"><ele>861.0</ele><time>2026-04-06T12:16:39Z</time></trkpt><trkpt lat="44.5957181397309" lon="10.066097415038659"><ele>863.3333333333333</ele><time>2026-04-06T12:16:40Z</time></trkpt><trkpt lat="44.59573443899186" lon="10.065819485632806"><ele>865.6666666666666</ele><time>2026-04-06T12:16:41Z</time></trkpt><trkpt lat="44.59574755784825" lon="10.06556078412295"><ele>868.0</ele><time>2026-04-06T12:16:42Z</time></trkpt><trkpt lat="44.595744729917506" lon="10.065315367598364"><ele>871.3333333333333</ele><time>2026-04-06T12:16:43Z</time></trkpt><trkpt lat="44.59571801998331" lon="10.065081277726444"><ele>874.6666666666667</ele><time>2026-04-06T12:16:44Z</time></trkpt><trkpt lat="44.59568512549537" lon="10.064851929665418"><ele>878.0</ele><time>2026-04-06T12:16:45Z</time></trkpt><trkpt lat="44.5956656412575" lon="10.064612704952443"><ele>879.6666666666667</ele><time>2026-04-06T12:16:46Z</time></trkpt><trkpt lat="44.59567241159252" lon="10.064359230985406"><ele>881.3333333333333</ele><time>2026-04-06T12:16:47Z</time></trkpt><trkpt lat="44.59568692978896" lon="10.064107852288386"><ele>883.0</ele><time>2026-04-06T12:16:48Z</time></trkpt><trkpt lat="44.595705344268715" lon="10.0638566474594"><ele>883.75</ele><time>2026-04-06T12:16:49Z</time></trkpt><trkpt lat="44.59574571961777" lon="10.063632806954912"><ele>884.5</ele><time>2026-04-06T12:16:50Z</time></trkpt><trkpt lat="44.595799725902694" lon="10.063448340406172"><ele>885.25</ele><time>2026-04-06T12:16:51Z</time></trkpt><trkpt lat="44.595830344155914" lon="10.063269358478024"><ele>886.0</ele><time>2026-04-06T12:16:52Z</time></trkpt><trkpt lat="44.59582258545103" lon="10.063066016275162"><ele>889.6666666666666</ele><time>2026-04-06T12:16:53Z</time></trkpt><trkpt lat="44.595777247397535" lon="10.062850568854264"><ele>893.3333333333333</ele><time>2026-04-06T12:16:54Z</time></trkpt><trkpt lat="44.595697336651405" lon="10.062644272525453"><ele>897.0</ele><time>2026-04-06T12:16:55Z</time></trkpt><trkpt lat="44.59558007953029" lon="10.062451385977306"><ele>895.0</ele><time>2026-04-06T12:16:56Z</time></trkpt><trkpt lat="44.59543612471927" lon="10.062274000451119"><ele>893.0</ele><time>2026-04-06T12:16:57Z</time></trkpt><trkpt lat="44.59528826548967" lon="10.062103964277776"><ele>891.0</ele><time>2026-04-06T12:16:58Z</time></trkpt><trkpt lat="44.59517203253641" lon="10.061950045808873"><ele>891.0</ele><time>2026-04-06T12:16:59Z</time></trkpt><trkpt lat="44.59505907087885" lon="10.061793232696612"><ele>891.0</ele><time>2026-04-06T12:17:00Z</time></trkpt><trkpt lat="44.594954621006494" lon="10.06163054160182"><ele>891.0</ele><time>2026-04-06T12:17:01Z</time></trkpt><trkpt lat="44.59485433866489" lon="10.061445729305172"><ele>891.0</ele><time>2026-04-06T12:17:02Z</time></trkpt><trkpt lat="44.59475638193226" lon="10.06124061454709"><ele>891.0</ele><time>2026-04-06T12:17:03Z</time></trkpt><trkpt lat="44.59467628788217" lon="10.061022536408773"><ele>891.0</ele><time>2026-04-06T12:17:04Z</time></trkpt><trkpt lat="44.594617213731105" lon="10.060797100886443"><ele>889.0</ele><time>2026-04-06T12:17:05Z</time></trkpt><trkpt lat="44.59456877273331" lon="10.060539345184297"><ele>887.0</ele><time>2026-04-06T12:17:06Z</time></trkpt><trkpt lat="44.594529690559376" lon="10.0602572589515"><ele>885.0</ele><time>2026-04-06T12:17:07Z</time></trkpt><trkpt lat="44.59448416624219" lon="10.059980818760785"><ele>882.3333333333333</ele><time>2026-04-06T12:17:08Z</time></trkpt><trkpt lat="44.594433961463395" lon="10.05971830590116"><ele>879.6666666666666</ele><time>2026-04-06T12:17:09Z</time></trkpt><trkpt lat="44.594392978939254" lon="10.059479691999924"><ele>877.0</ele><time>2026-04-06T12:17:10Z</time></trkpt><trkpt lat="44.5943520567268" lon="10.059246495578872"><ele>877.25</ele><time>2026-04-06T12:17:11Z</time></trkpt><trkpt lat="44.59430805731134" lon="10.05904820362691"><ele>877.5</ele><time>2026-04-06T12:17:12Z</time></trkpt><trkpt lat="44.59425132798871" lon="10.058866194370413"><ele>877.75</ele><time>2026-04-06T12:17:13Z</time></trkpt><trkpt lat="44.594169361380516" lon="10.058718576956585"><ele>878.0</ele><time>2026-04-06T12:17:14Z</time></trkpt><trkpt lat="44.5940589669372" lon="10.058608868656234"><ele>878.0</ele><time>2026-04-06T12:17:15Z</time></trkpt><trkpt lat="44.59392209032625" lon="10.058506101974578"><ele>878.0</ele><time>2026-04-06T12:17:16Z</time></trkpt><trkpt lat="44.59377473619147" lon="10.05839447497596"><ele>878.0</ele><time>2026-04-06T12:17:17Z</time></trkpt><trkpt lat="44.59365049592671" lon="10.058270679344078"><ele>879.0</ele><time>2026-04-06T12:17:18Z</time></trkpt><trkpt lat="44.59355430775697" lon="10.058097766759865"><ele>880.0</ele><time>2026-04-06T12:17:19Z</time></trkpt><trkpt lat="44.59346535108223" lon="10.057912332689149"><ele>881.0</ele><time>2026-04-06T12:17:20Z</time></trkpt><trkpt lat="44.59336314836948" lon="10.057717892229636"><ele>881.0</ele><time>2026-04-06T12:17:21Z</time></trkpt><trkpt lat="44.593284412275914" lon="10.05749498214002"><ele>881.0</ele><time>2026-04-06T12:17:22Z</time></trkpt><trkpt lat="44.593218678071764" lon="10.057247959590303"><ele>881.0</ele><time>2026-04-06T12:17:23Z</time></trkpt><trkpt lat="44.59316045457759" lon="10.056965985875248"><ele>884.0</ele><time>2026-04-06T12:17:24Z</time></trkpt><trkpt lat="44.593114477607436" lon="10.056705176775388"><ele>887.0</ele><time>2026-04-06T12:17:25Z</time></trkpt><trkpt lat="44.593070404084024" lon="10.05646015852188"><ele>890.0</ele><time>2026-04-06T12:17:26Z</time></trkpt><trkpt lat="44.59302585549325" lon="10.056259182180261"><ele>891.3333333333334</ele><time>2026-04-06T12:17:27Z</time></trkpt><trkpt lat="44.59295621581796" lon="10.056077350342319"><ele>892.6666666666667</ele><time>2026-04-06T12:17:28Z</time></trkpt><trkpt lat="44.59285627855363" lon="10.05591209696846"><ele>894.0</ele><time>2026-04-06T12:17:29Z</time></trkpt><trkpt lat="44.59273499530886" lon="10.055756271424487"><ele>899.0</ele><time>2026-04-06T12:17:30Z</time></trkpt><trkpt lat="44.592591294445285" lon="10.05559900017929"><ele>904.0</ele><time>2026-04-06T12:17:31Z</time></trkpt><trkpt lat="44.59246987224081" lon="10.055440464792387"><ele>909.0</ele><time>2026-04-06T12:17:32Z</time></trkpt><trkpt lat="44.59236952153125" lon="10.055308681571436"><ele>909.0</ele><time>2026-04-06T12:17:33Z</time></trkpt><trkpt lat="44.592265084233944" lon="10.055222830935952"><ele>909.0</ele><time>2026-04-06T12:17:34Z</time></trkpt><trkpt lat="44.592138710689525" lon="10.055201562327143"><ele>909.0</ele><time>2026-04-06T12:17:35Z</time></trkpt><trkpt lat="44.591992090007295" lon="10.055240046992495"><ele>909.0</ele><time>2026-04-06T12:17:36Z</time></trkpt><trkpt lat="44.59182854285651" lon="10.055312084587037"><ele>910.0</ele><time>2026-04-06T12:17:37Z</time></trkpt><trkpt lat="44.59166811800515" lon="10.055370436199208"><ele>911.0</ele><time>2026-04-06T12:17:38Z</time></trkpt><trkpt lat="44.591521662262345" lon="10.05538186183563"><ele>912.0</ele><time>2026-04-06T12:17:39Z</time></trkpt><trkpt lat="44.59140133677148" lon="10.05540524255031"><ele>913.0</ele><time>2026-04-06T12:17:40Z</time></trkpt><trkpt lat="44.59128987023858" lon="10.05535270597546"><ele>913.0</ele><time>2026-04-06T12:17:41Z</time></trkpt><trkpt lat="44.591192660031886" lon="10.055256727819856"><ele>913.0</ele><time>2026-04-06T12:17:42Z</time></trkpt><trkpt lat="44.591114046137896" lon="10.055105006803943"><ele>913.0</ele><time>2026-04-06T12:17:43Z</time></trkpt><trkpt lat="44.59106187878264" lon="10.054898436730387"><ele>913.0</ele><time>2026-04-06T12:17:44Z</time></trkpt><trkpt lat="44.591002937731716" lon="10.054698846110142"><ele>914.0</ele><time>2026-04-06T12:17:45Z</time></trkpt><trkpt lat="44.59094612741045" lon="10.054521301807931"><ele>915.0</ele><time>2026-04-06T12:17:46Z</time></trkpt><trkpt lat="44.59087058711392" lon="10.054394387024994"><ele>916.0</ele><time>2026-04-06T12:17:47Z</time></trkpt><trkpt lat="44.59075857572366" lon="10.054325170418847"><ele>917.0</ele><time>2026-04-06T12:17:48Z</time></trkpt><trkpt lat="44.59063536963417" lon="10.054291106097715"><ele>917.0</ele><time>2026-04-06T12:17:49Z</time></trkpt><trkpt lat="44.59050939888116" lon="10.054288167737647"><ele>917.0</ele><time>2026-04-06T12:17:50Z</time></trkpt><trkpt lat="44.5903900868292" lon="10.054261137881346"><ele>917.0</ele><time>2026-04-06T12:17:51Z</time></trkpt><trkpt lat="44.590287867418496" lon="10.054162110487892"><ele>917.0</ele><time>2026-04-06T12:17:52Z</time></trkpt><trkpt lat="44.590186930193646" lon="10.054035727649687"><ele>918.5</ele><time>2026-04-06T12:17:53Z</time></trkpt><trkpt lat="44.590074087833926" lon="10.053905879184462"><ele>920.0</ele><time>2026-04-06T12:17:54Z</time></trkpt><trkpt lat="44.58996033081823" lon="10.053777209521142"><ele>921.5</ele><time>2026-04-06T12:17:55Z</time></trkpt><trkpt lat="44.589832267148005" lon="10.053666642440303"><ele>923.0</ele><time>2026-04-06T12:17:56Z</time></trkpt><trkpt lat="44.58971119830772" lon="10.05356285680826"><ele>923.0</ele><time>2026-04-06T12:17:57Z</time></trkpt><trkpt lat="44.589616643902154" lon="10.053457527240328"><ele>923.0</ele><time>2026-04-06T12:17:58Z</time></trkpt><trkpt lat="44.58954696264578" lon="10.053324809115976"><ele>923.0</ele><time>2026-04-06T12:17:59Z</time></trkpt><trkpt lat="44.589501880427264" lon="10.053159813500045"><ele>923.0</ele><time>2026-04-06T12:18:00Z</time></trkpt><trkpt lat="44.58948849354242" lon="10.052971363993251"><ele>926.3333333333334</ele><time>2026-04-06T12:18:01Z</time></trkpt><trkpt lat="44.589493726146905" lon="10.052756364332756"><ele>929.6666666666667</ele><time>2026-04-06T12:18:02Z</time></trkpt><trkpt lat="44.589505297711995" lon="10.05252482683105"><ele>933.0</ele><time>2026-04-06T12:18:03Z</time></trkpt><trkpt lat="44.589521624753786" lon="10.05228075385759"><ele>933.0</ele><time>2026-04-06T12:18:04Z</time></trkpt><trkpt lat="44.589535448194724" lon="10.05202133621255"><ele>933.0</ele><time>2026-04-06T12:18:05Z</time></trkpt><trkpt lat="44.58954231088816" lon="10.051768427860955"><ele>933.0</ele><time>2026-04-06T12:18:06Z</time></trkpt><trkpt lat="44.58954950740557" lon="10.051538025930316"><ele>933.6666666666667</ele><time>2026-04-06T12:18:07Z</time></trkpt><trkpt lat="44.58955100047038" lon="10.051311211840726"><ele>934.3333333333334</ele><time>2026-04-06T12:18:08Z</time></trkpt><trkpt lat="44.589535778664754" lon="10.05108413281193"><ele>935.0</ele><time>2026-04-06T12:18:09Z</time></trkpt><trkpt lat="44.58950761437912" lon="10.05085839766026"><ele>928.0</ele><time>2026-04-06T12:18:10Z</time></trkpt><trkpt lat="44.58946795380086" lon="10.050649818239325"><ele>921.0</ele><time>2026-04-06T12:18:11Z</time></trkpt><trkpt lat="44.58940621198746" lon="10.050446275141441"><ele>914.0</ele><time>2026-04-06T12:18:12Z</time></trkpt><trkpt lat="44.58932828468884" lon="10.050248446025932"><ele>914.0</ele><time>2026-04-06T12:18:13Z</time></trkpt><trkpt lat="44.58923092238613" lon="10.05005649272437"><ele>914.0</ele><time>2026-04-06T12:18:14Z</time></trkpt><trkpt lat="44.589103619384964" lon="10.049870902616659"><ele>914.0</ele><time>2026-04-06T12:18:15Z</time></trkpt><trkpt lat="44.588966513119374" lon="10.049698475462115"><ele>912.3333333333334</ele><time>2026-04-06T12:18:16Z</time></trkpt><trkpt lat="44.588825336418346" lon="10.049531202604864"><ele>910.6666666666667</ele><time>2026-04-06T12:18:17Z</time></trkpt><trkpt lat="44.588683108288706" lon="10.049372180413544"><ele>909.0</ele><time>2026-04-06T12:18:18Z</time></trkpt><trkpt lat="44.588535188959106" lon="10.049240212053148"><ele>909.0</ele><time>2026-04-06T12:18:19Z</time></trkpt><trkpt lat="44.58836731897785" lon="10.049142644183124"><ele>909.0</ele><time>2026-04-06T12:18:20Z</time></trkpt><trkpt lat="44.588183327026044" lon="10.049087190175454"><ele>909.0</ele><time>2026-04-06T12:18:21Z</time></trkpt><trkpt lat="44.588003723729024" lon="10.049081335775627"><ele>910.0</ele><time>2026-04-06T12:18:22Z</time></trkpt><trkpt lat="44.587859390936096" lon="10.049049824647089"><ele>911.0</ele><time>2026-04-06T12:18:23Z</time></trkpt><trkpt lat="44.58772574489233" lon="10.04903270363769"><ele>912.0</ele><time>2026-04-06T12:18:24Z</time></trkpt><trkpt lat="44.58762674439506" lon="10.049031258879863"><ele>913.0</ele><time>2026-04-06T12:18:25Z</time></trkpt><trkpt lat="44.587552112542355" lon="10.04897240976195"><ele>909.5999999999999</ele><time>2026-04-06T12:18:26Z</time></trkpt><trkpt lat="44.587503099691446" lon="10.048857592800944"><ele>906.1999999999999</ele><time>2026-04-06T12:18:27Z</time></trkpt><trkpt lat="44.58749596613588" lon="10.048718106529373"><ele>902.8</ele><time>2026-04-06T12:18:28Z</time></trkpt><trkpt lat="44.587537965113654" lon="10.048578827302505"><ele>899.4</ele><time>2026-04-06T12:18:29Z</time></trkpt><trkpt lat="44.587613205135455" lon="10.048427620675008"><ele>896.0</ele><time>2026-04-06T12:18:30Z</time></trkpt><trkpt lat="44.587675710629334" lon="10.048259329119695"><ele>896.0</ele><time>2026-04-06T12:18:31Z</time></trkpt><trkpt lat="44.587732383062054" lon="10.048106802668464"><ele>895.9999999999999</ele><time>2026-04-06T12:18:32Z</time></trkpt><trkpt lat="44.58778101823609" lon="10.047971047953979"><ele>895.9999999999999</ele><time>2026-04-06T12:18:33Z</time></trkpt><trkpt lat="44.587804495860254" lon="10.047839190759369"><ele>896.0</ele><time>2026-04-06T12:18:34Z</time></trkpt><trkpt lat="44.58779967656145" lon="10.04770921331864"><ele>896.0</ele><time>2026-04-06T12:18:35Z</time></trkpt><trkpt lat="44.58775592992184" lon="10.047599117527755"><ele>896.0</ele><time>2026-04-06T12:18:36Z</time></trkpt><trkpt lat="44.58769323839228" lon="10.047507011650191"><ele>896.0</ele><time>2026-04-06T12:18:37Z</time></trkpt><trkpt lat="44.58759931874009" lon="10.047438119063461"><ele>896.0</ele><time>2026-04-06T12:18:38Z</time></trkpt><trkpt lat="44.587473983684056" lon="10.047406349591224"><ele>896.0</ele><time>2026-04-06T12:18:39Z</time></trkpt><trkpt lat="44.58732216022289" lon="10.047394034424622"><ele>894.6666666666667</ele><time>2026-04-06T12:18:40Z</time></trkpt><trkpt lat="44.587154198664244" lon="10.047373683269907"><ele>893.3333333333333</ele><time>2026-04-06T12:18:41Z</time></trkpt><trkpt lat="44.58699977302639" lon="10.047355872962713"><ele>892.0</ele><time>2026-04-06T12:18:42Z</time></trkpt><trkpt lat="44.586850450902325" lon="10.047341624120484"><ele>892.0</ele><time>2026-04-06T12:18:43Z</time></trkpt><trkpt lat="44.58670613307179" lon="10.047326699164213"><ele>892.0</ele><time>2026-04-06T12:18:44Z</time></trkpt><trkpt lat="44.5865769015171" lon="10.047312782031922"><ele>892.0</ele><time>2026-04-06T12:18:45Z</time></trkpt><trkpt lat="44.58646949658253" lon="10.04727524562078"><ele>892.0</ele><time>2026-04-06T12:18:46Z</time></trkpt><trkpt lat="44.58637001339942" lon="10.047259664547703"><ele>892.0</ele><time>2026-04-06T12:18:47Z</time></trkpt><trkpt lat="44.58627642557684" lon="10.047244487521803"><ele>892.0</ele><time>2026-04-06T12:18:48Z</time></trkpt><trkpt lat="44.586214632121354" lon="10.047144716957817"><ele>892.0</ele><time>2026-04-06T12:18:49Z</time></trkpt><trkpt lat="44.58619537417167" lon="10.047002395074077"><ele>892.0</ele><time>2026-04-06T12:18:50Z</time></trkpt><trkpt lat="44.58621649468971" lon="10.046838943086843"><ele>892.0</ele><time>2026-04-06T12:18:51Z</time></trkpt><trkpt lat="44.586238107591406" lon="10.046679111514955"><ele>890.5</ele><time>2026-04-06T12:18:52Z</time></trkpt><trkpt lat="44.586246376124" lon="10.046534088416545"><ele>889.0</ele><time>2026-04-06T12:18:53Z</time></trkpt><trkpt lat="44.58628408786019" lon="10.046326556607093"><ele>887.5</ele><time>2026-04-06T12:18:54Z</time></trkpt><trkpt lat="44.58634140611725" lon="10.046113433201553"><ele>886.0</ele><time>2026-04-06T12:18:55Z</time></trkpt><trkpt lat="44.58639742629683" lon="10.045901869105506"><ele>880.6666666666666</ele><time>2026-04-06T12:18:56Z</time></trkpt><trkpt lat="44.5864747292198" lon="10.045720084058317"><ele>875.3333333333333</ele><time>2026-04-06T12:18:57Z</time></trkpt><trkpt lat="44.58656119196095" lon="10.045551641149462"><ele>870.0</ele><time>2026-04-06T12:18:58Z</time></trkpt><trkpt lat="44.58665962258767" lon="10.045385764738652"><ele>870.0</ele><time>2026-04-06T12:18:59Z</time></trkpt><trkpt lat="44.586741326533875" lon="10.04520418984963"><ele>870.0</ele><time>2026-04-06T12:19:00Z</time></trkpt><trkpt lat="44.58680903636775" lon="10.045003710315775"><ele>870.0</ele><time>2026-04-06T12:19:01Z</time></trkpt><trkpt lat="44.58685892054573" lon="10.044769260113977"><ele>865.3333333333333</ele><time>2026-04-06T12:19:02Z</time></trkpt><trkpt lat="44.58689396073172" lon="10.044517007750535"><ele>860.6666666666666</ele><time>2026-04-06T12:19:03Z</time></trkpt><trkpt lat="44.58692611015618" lon="10.04427401399282"><ele>856.0</ele><time>2026-04-06T12:19:04Z</time></trkpt><trkpt lat="44.58695468486862" lon="10.044052047189474"><ele>854.3333333333333</ele><time>2026-04-06T12:19:05Z</time></trkpt><trkpt lat="44.586962205927776" lon="10.043828492686057"><ele>852.6666666666667</ele><time>2026-04-06T12:19:06Z</time></trkpt><trkpt lat="44.586954002017116" lon="10.043608396694008"><ele>851.0</ele><time>2026-04-06T12:19:07Z</time></trkpt><trkpt lat="44.586945744176795" lon="10.043402330420642"><ele>851.75</ele><time>2026-04-06T12:19:08Z</time></trkpt><trkpt lat="44.5869663016288" lon="10.043196161511158"><ele>852.5</ele><time>2026-04-06T12:19:09Z</time></trkpt><trkpt lat="44.58701589658139" lon="10.043003327330407"><ele>853.25</ele><time>2026-04-06T12:19:10Z</time></trkpt><trkpt lat="44.5870449184968" lon="10.042816866747419"><ele>854.0</ele><time>2026-04-06T12:19:11Z</time></trkpt><trkpt lat="44.587054804170336" lon="10.042608639129728"><ele>856.6666666666667</ele><time>2026-04-06T12:19:12Z</time></trkpt><trkpt lat="44.586973423552024" lon="10.042388222154798"><ele>859.3333333333333</ele><time>2026-04-06T12:19:13Z</time></trkpt><trkpt lat="44.586879260821725" lon="10.042179513441484"><ele>862.0</ele><time>2026-04-06T12:19:14Z</time></trkpt><trkpt lat="44.58679118328911" lon="10.04198869521136"><ele>862.0</ele><time>2026-04-06T12:19:15Z</time></trkpt><trkpt lat="44.586720141020734" lon="10.04180315171422"><ele>862.0</ele><time>2026-04-06T12:19:16Z</time></trkpt><trkpt lat="44.58666783398395" lon="10.041612182349112"><ele>862.0</ele><time>2026-04-06T12:19:17Z</time></trkpt><trkpt lat="44.58662778947855" lon="10.041422089694722"><ele>862.0</ele><time>2026-04-06T12:19:18Z</time></trkpt><trkpt lat="44.586639466324776" lon="10.041226395119144"><ele>860.6666666666666</ele><time>2026-04-06T12:19:19Z</time></trkpt><trkpt lat="44.58665800132681" lon="10.041009695351272"><ele>859.3333333333333</ele><time>2026-04-06T12:19:20Z</time></trkpt><trkpt lat="44.586694011613694" lon="10.040789072850865"><ele>858.0</ele><time>2026-04-06T12:19:21Z</time></trkpt><trkpt lat="44.58672108011016" lon="10.040557861836165"><ele>854.25</ele><time>2026-04-06T12:19:22Z</time></trkpt><trkpt lat="44.586743139413414" lon="10.040361918763026"><ele>850.5</ele><time>2026-04-06T12:19:23Z</time></trkpt><trkpt lat="44.586772320819335" lon="10.04020661330544"><ele>846.75</ele><time>2026-04-06T12:19:24Z</time></trkpt><trkpt lat="44.586835790066495" lon="10.040075694735359"><ele>843.0</ele><time>2026-04-06T12:19:25Z</time></trkpt><trkpt lat="44.5869347395581" lon="10.03993659075918"><ele>846.6666666666667</ele><time>2026-04-06T12:19:26Z</time></trkpt><trkpt lat="44.587045033720486" lon="10.03976842756185"><ele>850.3333333333334</ele><time>2026-04-06T12:19:27Z</time></trkpt><trkpt lat="44.587171383298276" lon="10.039592126090806"><ele>854.0</ele><time>2026-04-06T12:19:28Z</time></trkpt><trkpt lat="44.58727289706484" lon="10.039413546022221"><ele>854.0</ele><time>2026-04-06T12:19:29Z</time></trkpt><trkpt lat="44.58738421967466" lon="10.039264069767404"><ele>854.0</ele><time>2026-04-06T12:19:30Z</time></trkpt><trkpt lat="44.58747000012597" lon="10.03908795597479"><ele>854.0</ele><time>2026-04-06T12:19:31Z</time></trkpt><trkpt lat="44.5875320980068" lon="10.038876904300043"><ele>848.6666666666667</ele><time>2026-04-06T12:19:32Z</time></trkpt><trkpt lat="44.5875669145805" lon="10.038629755804056"><ele>843.3333333333333</ele><time>2026-04-06T12:19:33Z</time></trkpt><trkpt lat="44.58759835102756" lon="10.038348968966297"><ele>838.0</ele><time>2026-04-06T12:19:34Z</time></trkpt><trkpt lat="44.58763791458336" lon="10.03809051139422"><ele>835.0</ele><time>2026-04-06T12:19:35Z</time></trkpt><trkpt lat="44.58767926253232" lon="10.037840471774164"><ele>832.0</ele><time>2026-04-06T12:19:36Z</time></trkpt><trkpt lat="44.58772052436326" lon="10.037591317675219"><ele>829.0</ele><time>2026-04-06T12:19:37Z</time></trkpt><trkpt lat="44.58775862552484" lon="10.03735229195549"><ele>828.0</ele><time>2026-04-06T12:19:38Z</time></trkpt><trkpt lat="44.587787664957936" lon="10.03713045880385"><ele>827.0</ele><time>2026-04-06T12:19:39Z</time></trkpt><trkpt lat="44.587812858356614" lon="10.03690467119313"><ele>826.0</ele><time>2026-04-06T12:19:40Z</time></trkpt><trkpt lat="44.58782205274664" lon="10.036687538408582"><ele>825.0</ele><time>2026-04-06T12:19:41Z</time></trkpt><trkpt lat="44.5877850846214" lon="10.036472519773591"><ele>824.0</ele><time>2026-04-06T12:19:42Z</time></trkpt><trkpt lat="44.58771666460863" lon="10.036279978353017"><ele>823.0</ele><time>2026-04-06T12:19:43Z</time></trkpt><trkpt lat="44.58763119586551" lon="10.0361053303272"><ele>823.0</ele><time>2026-04-06T12:19:44Z</time></trkpt><trkpt lat="44.587569772711994" lon="10.035936972913653"><ele>823.0</ele><time>2026-04-06T12:19:45Z</time></trkpt><trkpt lat="44.58754139177609" lon="10.035751898260461"><ele>823.0</ele><time>2026-04-06T12:19:46Z</time></trkpt><trkpt lat="44.58758080628252" lon="10.035567136412265"><ele>823.0</ele><time>2026-04-06T12:19:47Z</time></trkpt><trkpt lat="44.587610444702634" lon="10.035380937556964"><ele>821.75</ele><time>2026-04-06T12:19:48Z</time></trkpt><trkpt lat="44.58764009444215" lon="10.03522184912861"><ele>820.5</ele><time>2026-04-06T12:19:49Z</time></trkpt><trkpt lat="44.587624011195764" lon="10.035063628530835"><ele>819.25</ele><time>2026-04-06T12:19:50Z</time></trkpt><trkpt lat="44.58755977442287" lon="10.0349299226298"><ele>818.0</ele><time>2026-04-06T12:19:51Z</time></trkpt><trkpt lat="44.58747014695579" lon="10.034834626819228"><ele>816.5</ele><time>2026-04-06T12:19:52Z</time></trkpt><trkpt lat="44.587351654713586" lon="10.034771122979505"><ele>815.0</ele><time>2026-04-06T12:19:53Z</time></trkpt><trkpt lat="44.58721833730673" lon="10.034734693219631"><ele>813.5</ele><time>2026-04-06T12:19:54Z</time></trkpt><trkpt lat="44.587083938208565" lon="10.034720282209149"><ele>812.0</ele><time>2026-04-06T12:19:55Z</time></trkpt><trkpt lat="44.58696413443085" lon="10.034682962763501"><ele>810.0</ele><time>2026-04-06T12:19:56Z</time></trkpt><trkpt lat="44.5868354318968" lon="10.034651668365472"><ele>808.0</ele><time>2026-04-06T12:19:57Z</time></trkpt><trkpt lat="44.58672067374679" lon="10.034599737256539"><ele>806.0</ele><time>2026-04-06T12:19:58Z</time></trkpt><trkpt lat="44.586593446943816" lon="10.034557749217331"><ele>804.0</ele><time>2026-04-06T12:19:59Z</time></trkpt><trkpt lat="44.58647650985999" lon="10.034519903650477"><ele>804.0</ele><time>2026-04-06T12:20:00Z</time></trkpt><trkpt lat="44.5863620088021" lon="10.03448284643271"><ele>804.0</ele><time>2026-04-06T12:20:01Z</time></trkpt><trkpt lat="44.58624583196862" lon="10.034443822185064"><ele>804.0</ele><time>2026-04-06T12:20:02Z</time></trkpt><trkpt lat="44.58613746246949" lon="10.034406658165306"><ele>804.0</ele><time>2026-04-06T12:20:03Z</time></trkpt><trkpt lat="44.586032062171526" lon="10.034389215793299"><ele>803.4000000000001</ele><time>2026-04-06T12:20:04Z</time></trkpt><trkpt lat="44.585928556464864" lon="10.03433657905398"><ele>802.8</ele><time>2026-04-06T12:20:05Z</time></trkpt><trkpt lat="44.58582557287392" lon="10.03430237388345"><ele>802.2</ele><time>2026-04-06T12:20:06Z</time></trkpt><trkpt lat="44.58572383985432" lon="10.034268584024929"><ele>801.5999999999999</ele><time>2026-04-06T12:20:07Z</time></trkpt><trkpt lat="44.585622651499946" lon="10.034232419088374"><ele>801.0</ele><time>2026-04-06T12:20:08Z</time></trkpt><trkpt lat="44.58552605798279" lon="10.034196160640304"><ele>801.0</ele><time>2026-04-06T12:20:09Z</time></trkpt><trkpt lat="44.585424083662964" lon="10.03415294392425"><ele>801.0</ele><time>2026-04-06T12:20:10Z</time></trkpt><trkpt lat="44.58532686511596" lon="10.0340831352742"><ele>801.0</ele><time>2026-04-06T12:20:11Z</time></trkpt><trkpt lat="44.58523246303451" lon="10.033995979777965"><ele>801.0</ele><time>2026-04-06T12:20:12Z</time></trkpt><trkpt lat="44.58514276855303" lon="10.033895021293988"><ele>801.0</ele><time>2026-04-06T12:20:13Z</time></trkpt><trkpt lat="44.58505633159602" lon="10.033785250305472"><ele>800.0</ele><time>2026-04-06T12:20:14Z</time></trkpt><trkpt lat="44.584977227692825" lon="10.033672035485834"><ele>799.0</ele><time>2026-04-06T12:20:15Z</time></trkpt><trkpt lat="44.584896004951446" lon="10.033554281105992"><ele>798.0</ele><time>2026-04-06T12:20:16Z</time></trkpt><trkpt lat="44.58481486753999" lon="10.033440312850068"><ele>797.0</ele><time>2026-04-06T12:20:17Z</time></trkpt><trkpt lat="44.5847333380888" lon="10.033327647344105"><ele>795.25</ele><time>2026-04-06T12:20:18Z</time></trkpt><trkpt lat="44.58464081830486" lon="10.03322867174243"><ele>793.5</ele><time>2026-04-06T12:20:19Z</time></trkpt><trkpt lat="44.58455639027923" lon="10.033113470683324"><ele>791.75</ele><time>2026-04-06T12:20:20Z</time></trkpt><trkpt lat="44.58446632421729" lon="10.033000990342575"><ele>790.0</ele><time>2026-04-06T12:20:21Z</time></trkpt><trkpt lat="44.58438030233335" lon="10.032868933566272"><ele>790.0</ele><time>2026-04-06T12:20:22Z</time></trkpt><trkpt lat="44.58427816815842" lon="10.03275566760499"><ele>790.0</ele><time>2026-04-06T12:20:23Z</time></trkpt><trkpt lat="44.584166926077295" lon="10.032640995899223"><ele>790.0</ele><time>2026-04-06T12:20:24Z</time></trkpt><trkpt lat="44.58405668024338" lon="10.032533568535236"><ele>790.0</ele><time>2026-04-06T12:20:25Z</time></trkpt><trkpt lat="44.58394512809244" lon="10.032430686879211"><ele>785.0</ele><time>2026-04-06T12:20:26Z</time></trkpt><trkpt lat="44.58381640281697" lon="10.032330095910169"><ele>780.0</ele><time>2026-04-06T12:20:27Z</time></trkpt><trkpt lat="44.583675833377534" lon="10.032252186425588"><ele>775.0</ele><time>2026-04-06T12:20:28Z</time></trkpt><trkpt lat="44.583517671125854" lon="10.032201174305957"><ele>775.0</ele><time>2026-04-06T12:20:29Z</time></trkpt><trkpt lat="44.58336475031295" lon="10.032167237030189"><ele>775.0</ele><time>2026-04-06T12:20:30Z</time></trkpt><trkpt lat="44.58321491351088" lon="10.032113279619939"><ele>775.0</ele><time>2026-04-06T12:20:31Z</time></trkpt><trkpt lat="44.58306871701897" lon="10.032046328100604"><ele>775.0</ele><time>2026-04-06T12:20:32Z</time></trkpt><trkpt lat="44.582912779867854" lon="10.031960050618382"><ele>775.0</ele><time>2026-04-06T12:20:33Z</time></trkpt><trkpt lat="44.5827727271563" lon="10.031854067202804"><ele>775.0</ele><time>2026-04-06T12:20:34Z</time></trkpt><trkpt lat="44.58263712273487" lon="10.031717783504622"><ele>771.6666666666666</ele><time>2026-04-06T12:20:35Z</time></trkpt><trkpt lat="44.582504934271896" lon="10.031564824067992"><ele>768.3333333333333</ele><time>2026-04-06T12:20:36Z</time></trkpt><trkpt lat="44.582375017262024" lon="10.03141118053075"><ele>765.0</ele><time>2026-04-06T12:20:37Z</time></trkpt><trkpt lat="44.58224168111149" lon="10.031252428894883"><ele>765.0</ele><time>2026-04-06T12:20:38Z</time></trkpt><trkpt lat="44.58210727557134" lon="10.031091797860315"><ele>765.0</ele><time>2026-04-06T12:20:39Z</time></trkpt><trkpt lat="44.58197222699212" lon="10.030930911733787"><ele>765.0</ele><time>2026-04-06T12:20:40Z</time></trkpt><trkpt lat="44.58183918457428" lon="10.030804522222025"><ele>766.3333333333333</ele><time>2026-04-06T12:20:41Z</time></trkpt><trkpt lat="44.58172003868127" lon="10.030666306099473"><ele>767.6666666666666</ele><time>2026-04-06T12:20:42Z</time></trkpt><trkpt lat="44.581594844511415" lon="10.03055163639371"><ele>769.0</ele><time>2026-04-06T12:20:43Z</time></trkpt><trkpt lat="44.58144681677883" lon="10.030480208049473"><ele>769.0</ele><time>2026-04-06T12:20:44Z</time></trkpt><trkpt lat="44.58126665377674" lon="10.030442441154223"><ele>769.0</ele><time>2026-04-06T12:20:45Z</time></trkpt><trkpt lat="44.58106671434888" lon="10.030391338061207"><ele>769.0</ele><time>2026-04-06T12:20:46Z</time></trkpt><trkpt lat="44.58088568172401" lon="10.030350450309403"><ele>770.3333333333333</ele><time>2026-04-06T12:20:47Z</time></trkpt><trkpt lat="44.58071755786654" lon="10.030300379193243"><ele>771.6666666666667</ele><time>2026-04-06T12:20:48Z</time></trkpt><trkpt lat="44.580556455772395" lon="10.030233357276627"><ele>773.0</ele><time>2026-04-06T12:20:49Z</time></trkpt><trkpt lat="44.58040125683255" lon="10.030183922203097"><ele>772.0</ele><time>2026-04-06T12:20:50Z</time></trkpt><trkpt lat="44.58024610003784" lon="10.030175909941683"><ele>771.0</ele><time>2026-04-06T12:20:51Z</time></trkpt><trkpt lat="44.58009622888377" lon="10.030173817252104"><ele>770.0</ele><time>2026-04-06T12:20:52Z</time></trkpt><trkpt lat="44.57994070463846" lon="10.030188640325912"><ele>770.0</ele><time>2026-04-06T12:20:53Z</time></trkpt><trkpt lat="44.57977903804662" lon="10.030227476983207"><ele>770.0</ele><time>2026-04-06T12:20:54Z</time></trkpt><trkpt lat="44.57962166108561" lon="10.030279210903048"><ele>770.0</ele><time>2026-04-06T12:20:55Z</time></trkpt><trkpt lat="44.579462661053846" lon="10.030326746716709"><ele>770.0</ele><time>2026-04-06T12:20:56Z</time></trkpt><trkpt lat="44.57932066298917" lon="10.030408453091857"><ele>770.0</ele><time>2026-04-06T12:20:57Z</time></trkpt><trkpt lat="44.57919065602176" lon="10.030500390565495"><ele>770.0</ele><time>2026-04-06T12:20:58Z</time></trkpt><trkpt lat="44.57907295550178" lon="10.030571709312277"><ele>770.0</ele><time>2026-04-06T12:20:59Z</time></trkpt><trkpt lat="44.5789593744838" lon="10.030605896382527"><ele>770.0</ele><time>2026-04-06T12:21:00Z</time></trkpt><trkpt lat="44.578853963960434" lon="10.03061387888002"><ele>770.0</ele><time>2026-04-06T12:21:01Z</time></trkpt><trkpt lat="44.578730716172025" lon="10.030579846351172"><ele>770.0</ele><time>2026-04-06T12:21:02Z</time></trkpt><trkpt lat="44.578598859259806" lon="10.030508678688442"><ele>770.0</ele><time>2026-04-06T12:21:03Z</time></trkpt><trkpt lat="44.57846756800728" lon="10.030399234086474"><ele>768.5</ele><time>2026-04-06T12:21:04Z</time></trkpt><trkpt lat="44.578343611390736" lon="10.030276752467953"><ele>767.0</ele><time>2026-04-06T12:21:05Z</time></trkpt><trkpt lat="44.578243511925976" lon="10.030139214954712"><ele>765.5</ele><time>2026-04-06T12:21:06Z</time></trkpt><trkpt lat="44.578147383484946" lon="10.030004178971437"><ele>764.0</ele><time>2026-04-06T12:21:07Z</time></trkpt><trkpt lat="44.5780883952469" lon="10.029830234094705"><ele>764.0</ele><time>2026-04-06T12:21:08Z</time></trkpt><trkpt lat="44.57804636940375" lon="10.029633717205462"><ele>764.0</ele><time>2026-04-06T12:21:09Z</time></trkpt><trkpt lat="44.578031806146775" lon="10.029422381390916"><ele>764.0</ele><time>2026-04-06T12:21:10Z</time></trkpt><trkpt lat="44.57802636625651" lon="10.029232961562371"><ele>764.0</ele><time>2026-04-06T12:21:11Z</time></trkpt><trkpt lat="44.57798802418849" lon="10.029048881244723"><ele>762.3333333333333</ele><time>2026-04-06T12:21:12Z</time></trkpt><trkpt lat="44.577909267695176" lon="10.028874154977354"><ele>760.6666666666666</ele><time>2026-04-06T12:21:13Z</time></trkpt><trkpt lat="44.57778679201798" lon="10.028715658558175"><ele>759.0</ele><time>2026-04-06T12:21:14Z</time></trkpt><trkpt lat="44.57764510653563" lon="10.028592936242536"><ele>757.0</ele><time>2026-04-06T12:21:15Z</time></trkpt><trkpt lat="44.57753716535298" lon="10.028472083919798"><ele>755.0</ele><time>2026-04-06T12:21:16Z</time></trkpt><trkpt lat="44.57745713956573" lon="10.0283251239021"><ele>753.0</ele><time>2026-04-06T12:21:17Z</time></trkpt><trkpt lat="44.57739348768462" lon="10.028144700792726"><ele>751.0</ele><time>2026-04-06T12:21:18Z</time></trkpt><trkpt lat="44.57735172922999" lon="10.027912589262149"><ele>748.6666666666667</ele><time>2026-04-06T12:21:19Z</time></trkpt><trkpt lat="44.57730567469537" lon="10.027668402185341"><ele>746.3333333333334</ele><time>2026-04-06T12:21:20Z</time></trkpt><trkpt lat="44.57721693124215" lon="10.02741433668263"><ele>744.0</ele><time>2026-04-06T12:21:21Z</time></trkpt><trkpt lat="44.57710931009248" lon="10.027176082836599"><ele>742.6666666666666</ele><time>2026-04-06T12:21:22Z</time></trkpt><trkpt lat="44.57701656528524" lon="10.026943466697935"><ele>741.3333333333333</ele><time>2026-04-06T12:21:23Z</time></trkpt><trkpt lat="44.57695653916999" lon="10.026722378254862"><ele>740.0</ele><time>2026-04-06T12:21:24Z</time></trkpt><trkpt lat="44.57691389995139" lon="10.0265210101025"><ele>740.0</ele><time>2026-04-06T12:21:25Z</time></trkpt><trkpt lat="44.5768648517085" lon="10.026341303884779"><ele>740.0</ele><time>2026-04-06T12:21:26Z</time></trkpt><trkpt lat="44.57677684265859" lon="10.026172886586101"><ele>740.0</ele><time>2026-04-06T12:21:27Z</time></trkpt><trkpt lat="44.57664459915764" lon="10.02601039680644"><ele>740.0</ele><time>2026-04-06T12:21:28Z</time></trkpt><trkpt lat="44.57649790697967" lon="10.025864691628575"><ele>740.0</ele><time>2026-04-06T12:21:29Z</time></trkpt><trkpt lat="44.57635013670657" lon="10.02572893047666"><ele>740.0</ele><time>2026-04-06T12:21:30Z</time></trkpt><trkpt lat="44.57621138030311" lon="10.025588123691993"><ele>738.0</ele><time>2026-04-06T12:21:31Z</time></trkpt><trkpt lat="44.576072480597404" lon="10.02544158342928"><ele>736.0</ele><time>2026-04-06T12:21:32Z</time></trkpt><trkpt lat="44.57593565775933" lon="10.025293310636144"><ele>734.0</ele><time>2026-04-06T12:21:32.999Z</time></trkpt><trkpt lat="44.575797031145264" lon="10.025149989570364"><ele>734.0</ele><time>2026-04-06T12:21:33.999Z</time></trkpt><trkpt lat="44.57566297364123" lon="10.02501421207749"><ele>734.0</ele><time>2026-04-06T12:21:34.999Z</time></trkpt><trkpt lat="44.5755368529392" lon="10.024886343016934"><ele>734.0</ele><time>2026-04-06T12:21:35.999Z</time></trkpt><trkpt lat="44.57539571318669" lon="10.024771428898466"><ele>733.0</ele><time>2026-04-06T12:21:36.999Z</time></trkpt><trkpt lat="44.57522867284714" lon="10.024688553340473"><ele>732.0</ele><time>2026-04-06T12:21:37.999Z</time></trkpt><trkpt lat="44.57504096195956" lon="10.02462947608553"><ele>731.0</ele><time>2026-04-06T12:21:38.999Z</time></trkpt><trkpt lat="44.57485606280173" lon="10.024542486398023"><ele>731.0</ele><time>2026-04-06T12:21:39.999Z</time></trkpt><trkpt lat="44.574665431737024" lon="10.024469329291339"><ele>731.0</ele><time>2026-04-06T12:21:40.999Z</time></trkpt><trkpt lat="44.57447699906611" lon="10.02439725592409"><ele>731.0</ele><time>2026-04-06T12:21:41.999Z</time></trkpt><trkpt lat="44.57428992351817" lon="10.024325296932735"><ele>733.0</ele><time>2026-04-06T12:21:42.999Z</time></trkpt><trkpt lat="44.57411415387863" lon="10.024257133298644"><ele>735.0</ele><time>2026-04-06T12:21:43.999Z</time></trkpt><trkpt lat="44.573946337168245" lon="10.024225085649311"><ele>737.0</ele><time>2026-04-06T12:21:44.999Z</time></trkpt><trkpt lat="44.57379094002443" lon="10.024160982439739"><ele>737.0</ele><time>2026-04-06T12:21:45.999Z</time></trkpt><trkpt lat="44.573641820288906" lon="10.024102634900533"><ele>737.0</ele><time>2026-04-06T12:21:46.999Z</time></trkpt><trkpt lat="44.5735037833178" lon="10.024034442836971"><ele>737.0</ele><time>2026-04-06T12:21:47.999Z</time></trkpt><trkpt lat="44.57340528499161" lon="10.023957745277146"><ele>737.0</ele><time>2026-04-06T12:21:48.999Z</time></trkpt><trkpt lat="44.5733564048147" lon="10.023874746738029"><ele>737.0</ele><time>2026-04-06T12:21:49.999Z</time></trkpt><trkpt lat="44.57330686260353" lon="10.023818486986103"><ele>737.0</ele><time>2026-04-06T12:21:51.999Z</time></trkpt><trkpt lat="44.57324406416504" lon="10.023731968465148"><ele>737.0</ele><time>2026-04-06T12:21:57.999Z</time></trkpt><trkpt lat="44.57321073422948" lon="10.023640198874213"><ele>737.0</ele><time>2026-04-06T12:27:23.999Z</time></trkpt><trkpt lat="44.57314264195351" lon="10.023537000034164"><ele>737.0</ele><time>2026-04-06T12:32:06.999Z</time></trkpt><trkpt lat="44.57309574820246" lon="10.023744822378454"><ele>737.0</ele><time>2026-04-06T12:32:09.999Z</time></trkpt><trkpt lat="44.5731462411897" lon="10.023822911446263"><ele>737.0</ele><time>2026-04-06T12:32:12.999Z</time></trkpt><trkpt lat="44.573203641247254" lon="10.0238630608196"><ele>737.0</ele><time>2026-04-06T12:32:19.999Z</time></trkpt><trkpt lat="44.57327060090136" lon="10.02387096069749"><ele>737.0</ele><time>2026-04-06T12:32:22.999Z</time></trkpt><trkpt lat="44.573266112822985" lon="10.023752993812382"><ele>737.0</ele><time>2026-04-06T12:32:27.999Z</time></trkpt><trkpt lat="44.57319062543536" lon="10.023554656944452"><ele>737.0</ele><time>2026-04-06T12:32:29.999Z</time></trkpt><trkpt lat="44.57314921983443" lon="10.023432734566736"><ele>737.0</ele><time>2026-04-06T12:32:30.999Z</time></trkpt><trkpt lat="44.573098392028854" lon="10.023327538834018"><ele>737.0</ele><time>2026-04-06T12:32:31.999Z</time></trkpt><trkpt lat="44.57304107427473" lon="10.023202787572734"><ele>737.0</ele><time>2026-04-06T12:32:32.999Z</time></trkpt><trkpt lat="44.57297948135456" lon="10.023064821792065"><ele>737.0</ele><time>2026-04-06T12:32:33.999Z</time></trkpt><trkpt lat="44.57291167307042" lon="10.022921629967723"><ele>738.0</ele><time>2026-04-06T12:32:34.999Z</time></trkpt><trkpt lat="44.572845345913095" lon="10.022781236760295"><ele>739.0</ele><time>2026-04-06T12:32:35.999Z</time></trkpt><trkpt lat="44.57276017391331" lon="10.022615538774073"><ele>740.0</ele><time>2026-04-06T12:32:36.999Z</time></trkpt><trkpt lat="44.572667691368245" lon="10.022469486804354"><ele>741.0</ele><time>2026-04-06T12:32:37.997Z</time></trkpt><trkpt lat="44.57256701972009" lon="10.02234388404314"><ele>741.0</ele><time>2026-04-06T12:32:38.997Z</time></trkpt><trkpt lat="44.57245099725097" lon="10.0222382882016"><ele>741.0</ele><time>2026-04-06T12:32:39.997Z</time></trkpt><trkpt lat="44.57232655804088" lon="10.022145275120794"><ele>741.0</ele><time>2026-04-06T12:32:40.997Z</time></trkpt><trkpt lat="44.572192266771935" lon="10.02206878205959"><ele>741.0</ele><time>2026-04-06T12:32:41.997Z</time></trkpt><trkpt lat="44.571999845981246" lon="10.021972744986792"><ele>741.0</ele><time>2026-04-06T12:32:42.997Z</time></trkpt><trkpt lat="44.57185728706172" lon="10.02190589317383"><ele>741.0</ele><time>2026-04-06T12:32:43.997Z</time></trkpt><trkpt lat="44.57172729233853" lon="10.02185045233445"><ele>741.0</ele><time>2026-04-06T12:32:44.997Z</time></trkpt><trkpt lat="44.57161863843812" lon="10.021776258435647"><ele>741.0</ele><time>2026-04-06T12:32:45.997Z</time></trkpt><trkpt lat="44.57150407092549" lon="10.021719769746237"><ele>741.0</ele><time>2026-04-06T12:32:46.997Z</time></trkpt><trkpt lat="44.571392962548934" lon="10.021681165252085"><ele>741.0</ele><time>2026-04-06T12:32:47.997Z</time></trkpt><trkpt lat="44.5712822485636" lon="10.02162274476825"><ele>741.0</ele><time>2026-04-06T12:32:48.997Z</time></trkpt><trkpt lat="44.57117273752618" lon="10.0215308557088"><ele>741.0</ele><time>2026-04-06T12:32:49.997Z</time></trkpt><trkpt lat="44.57105243470535" lon="10.021419831018466"><ele>737.0</ele><time>2026-04-06T12:32:50.997Z</time></trkpt><trkpt lat="44.570937209558934" lon="10.02127451992719"><ele>733.0</ele><time>2026-04-06T12:32:51.997Z</time></trkpt><trkpt lat="44.57081040358599" lon="10.021102360348506"><ele>729.0</ele><time>2026-04-06T12:32:52.997Z</time></trkpt><trkpt lat="44.57069011873753" lon="10.02094960448145"><ele>726.5</ele><time>2026-04-06T12:32:53.997Z</time></trkpt><trkpt lat="44.570576681977315" lon="10.020789506212738"><ele>724.0</ele><time>2026-04-06T12:32:54.998Z</time></trkpt><trkpt lat="44.570474267470495" lon="10.020657174099973"><ele>721.5</ele><time>2026-04-06T12:32:55.998Z</time></trkpt><trkpt lat="44.57038850128153" lon="10.020554781019346"><ele>719.0</ele><time>2026-04-06T12:32:56.998Z</time></trkpt><trkpt lat="44.57029583652956" lon="10.020459447374343"><ele>718.75</ele><time>2026-04-06T12:32:57.998Z</time></trkpt><trkpt lat="44.570158808148875" lon="10.020441790387894"><ele>718.5</ele><time>2026-04-06T12:32:58.998Z</time></trkpt><trkpt lat="44.57001112527176" lon="10.020446626154184"><ele>718.25</ele><time>2026-04-06T12:32:59.998Z</time></trkpt><trkpt lat="44.569846958068894" lon="10.0204455985669"><ele>718.0</ele><time>2026-04-06T12:33:00.998Z</time></trkpt><trkpt lat="44.56968914909398" lon="10.020456925101394"><ele>718.0</ele><time>2026-04-06T12:33:01.998Z</time></trkpt><trkpt lat="44.56953595040125" lon="10.020464747244308"><ele>718.0</ele><time>2026-04-06T12:33:02.998Z</time></trkpt><trkpt lat="44.569399010340106" lon="10.020454570323638"><ele>718.0</ele><time>2026-04-06T12:33:03.998Z</time></trkpt><trkpt lat="44.56926699509024" lon="10.020397966036569"><ele>718.0</ele><time>2026-04-06T12:33:04.998Z</time></trkpt><trkpt lat="44.569134835229214" lon="10.020294132684969"><ele>715.6666666666667</ele><time>2026-04-06T12:33:05.998Z</time></trkpt><trkpt lat="44.56898753214631" lon="10.020160486311497"><ele>713.3333333333334</ele><time>2026-04-06T12:33:06.998Z</time></trkpt><trkpt lat="44.56882253619303" lon="10.020010863367155"><ele>711.0</ele><time>2026-04-06T12:33:07.998Z</time></trkpt><trkpt lat="44.56866568922904" lon="10.019869729161433"><ele>709.3333333333334</ele><time>2026-04-06T12:33:08.998Z</time></trkpt><trkpt lat="44.56850743600437" lon="10.019729059085972"><ele>707.6666666666667</ele><time>2026-04-06T12:33:09.998Z</time></trkpt><trkpt lat="44.56834151395954" lon="10.019582573984431"><ele>706.0</ele><time>2026-04-06T12:33:10.998Z</time></trkpt><trkpt lat="44.56816705327544" lon="10.019428695592493"><ele>706.0</ele><time>2026-04-06T12:33:11.998Z</time></trkpt><trkpt lat="44.56799320714855" lon="10.019276521557972"><ele>706.0</ele><time>2026-04-06T12:33:12.998Z</time></trkpt><trkpt lat="44.56781809299357" lon="10.019124236769887"><ele>706.0</ele><time>2026-04-06T12:33:13.998Z</time></trkpt><trkpt lat="44.567641938022405" lon="10.018971046410979"><ele>708.3333333333334</ele><time>2026-04-06T12:33:14.998Z</time></trkpt><trkpt lat="44.56747213428059" lon="10.018824533911678"><ele>710.6666666666666</ele><time>2026-04-06T12:33:15.998Z</time></trkpt><trkpt lat="44.5673117899582" lon="10.018685698309604"><ele>713.0</ele><time>2026-04-06T12:33:16.998Z</time></trkpt><trkpt lat="44.56716733459497" lon="10.01855876822436"><ele>711.6666666666666</ele><time>2026-04-06T12:33:17.998Z</time></trkpt><trkpt lat="44.567026134070716" lon="10.018435923065743"><ele>710.3333333333334</ele><time>2026-04-06T12:33:18.998Z</time></trkpt><trkpt lat="44.56688448352434" lon="10.01831331820983"><ele>709.0</ele><time>2026-04-06T12:33:19.998Z</time></trkpt><trkpt lat="44.56675435989447" lon="10.018194423486488"><ele>709.0</ele><time>2026-04-06T12:33:20.998Z</time></trkpt><trkpt lat="44.566620416013485" lon="10.018074792287992"><ele>709.0</ele><time>2026-04-06T12:33:21.998Z</time></trkpt><trkpt lat="44.56649595840891" lon="10.017964467720576"><ele>709.0</ele><time>2026-04-06T12:33:22.998Z</time></trkpt><trkpt lat="44.566378428713854" lon="10.017870583076325"><ele>709.0</ele><time>2026-04-06T12:33:23.998Z</time></trkpt><trkpt lat="44.56626040750778" lon="10.017797937348217"><ele>709.25</ele><time>2026-04-06T12:33:24.998Z</time></trkpt><trkpt lat="44.5661444775909" lon="10.017745967721826"><ele>709.5</ele><time>2026-04-06T12:33:25.998Z</time></trkpt><trkpt lat="44.56602001544006" lon="10.017702043750184"><ele>709.75</ele><time>2026-04-06T12:33:26.998Z</time></trkpt><trkpt lat="44.56586827256036" lon="10.017692419896685"><ele>710.0</ele><time>2026-04-06T12:33:27.998Z</time></trkpt><trkpt lat="44.56569208327362" lon="10.017641765619391"><ele>710.0</ele><time>2026-04-06T12:33:28.998Z</time></trkpt><trkpt lat="44.56550610864811" lon="10.017604324648257"><ele>710.0</ele><time>2026-04-06T12:33:29.998Z</time></trkpt><trkpt lat="44.56532948992793" lon="10.017557250720522"><ele>710.0</ele><time>2026-04-06T12:33:30.998Z</time></trkpt><trkpt lat="44.56518373731272" lon="10.017496927055893"><ele>709.25</ele><time>2026-04-06T12:33:31.998Z</time></trkpt><trkpt lat="44.565053245787425" lon="10.017399244063466"><ele>708.5</ele><time>2026-04-06T12:33:32.998Z</time></trkpt><trkpt lat="44.56493226100433" lon="10.017290841108977"><ele>707.75</ele><time>2026-04-06T12:33:33.998Z</time></trkpt><trkpt lat="44.56481584530155" lon="10.017186881760475"><ele>707.0</ele><time>2026-04-06T12:33:34.998Z</time></trkpt><trkpt lat="44.564710156930175" lon="10.017111935885634"><ele>707.0</ele><time>2026-04-06T12:33:35.998Z</time></trkpt><trkpt lat="44.564590658154906" lon="10.017072785281954"><ele>707.0</ele><time>2026-04-06T12:33:36.999Z</time></trkpt><trkpt lat="44.564459706344486" lon="10.017059874798571"><ele>707.0</ele><time>2026-04-06T12:33:37.999Z</time></trkpt><trkpt lat="44.564321891804816" lon="10.017066581930084"><ele>707.0</ele><time>2026-04-06T12:33:38.999Z</time></trkpt><trkpt lat="44.564201774029726" lon="10.017056666839386"><ele>708.25</ele><time>2026-04-06T12:33:39.999Z</time></trkpt><trkpt lat="44.56409666935202" lon="10.017018516247038"><ele>709.5</ele><time>2026-04-06T12:33:40.999Z</time></trkpt><trkpt lat="44.563988863668925" lon="10.016946720276234"><ele>710.75</ele><time>2026-04-06T12:33:41.999Z</time></trkpt><trkpt lat="44.56386812425753" lon="10.016845058595258"><ele>712.0</ele><time>2026-04-06T12:33:42.999Z</time></trkpt><trkpt lat="44.56372775333248" lon="10.016718951012175"><ele>713.3333333333334</ele><time>2026-04-06T12:33:43.999Z</time></trkpt><trkpt lat="44.56359139793132" lon="10.016595380949088"><ele>714.6666666666666</ele><time>2026-04-06T12:33:44.999Z</time></trkpt><trkpt lat="44.56345680004772" lon="10.016459424521663"><ele>716.0</ele><time>2026-04-06T12:33:45.999Z</time></trkpt><trkpt lat="44.56335020740665" lon="10.016318921932"><ele>716.0</ele><time>2026-04-06T12:33:46.999Z</time></trkpt><trkpt lat="44.56326743118293" lon="10.01615833811924"><ele>716.0</ele><time>2026-04-06T12:33:47.999Z</time></trkpt><trkpt lat="44.56320264380263" lon="10.015963871516863"><ele>716.0</ele><time>2026-04-06T12:33:48.999Z</time></trkpt><trkpt lat="44.56314789912833" lon="10.015743598324075"><ele>715.3333333333333</ele><time>2026-04-06T12:33:49.999Z</time></trkpt><trkpt lat="44.56308992292611" lon="10.015509090786693"><ele>714.6666666666666</ele><time>2026-04-06T12:33:50.999Z</time></trkpt><trkpt lat="44.56301579434623" lon="10.015293654681"><ele>714.0</ele><time>2026-04-06T12:33:51.999Z</time></trkpt><trkpt lat="44.56296882017761" lon="10.015111543466826"><ele>715.2</ele><time>2026-04-06T12:33:52.999Z</time></trkpt><trkpt lat="44.562925058428384" lon="10.014967531411218"><ele>716.4000000000001</ele><time>2026-04-06T12:33:53.999Z</time></trkpt><trkpt lat="44.56286353145437" lon="10.01486492177947"><ele>717.6</ele><time>2026-04-06T12:33:54.999Z</time></trkpt><trkpt lat="44.56280526068098" lon="10.014782937064279"><ele>718.8</ele><time>2026-04-06T12:33:55.999Z</time></trkpt><trkpt lat="44.5627074778158" lon="10.01480184371954"><ele>720.0</ele><time>2026-04-06T12:33:56.999Z</time></trkpt><trkpt lat="44.56261956114049" lon="10.014833668359595"><ele>720.0</ele><time>2026-04-06T12:33:57.999Z</time></trkpt><trkpt lat="44.56250885932558" lon="10.014851424336813"><ele>720.0</ele><time>2026-04-06T12:33:58.999Z</time></trkpt><trkpt lat="44.5623800994681" lon="10.014897465632838"><ele>720.0</ele><time>2026-04-06T12:33:59.999Z</time></trkpt><trkpt lat="44.56224029059366" lon="10.01494528255003"><ele>720.0</ele><time>2026-04-06T12:34:00.999Z</time></trkpt><trkpt lat="44.56211227305934" lon="10.014971024656795"><ele>722.0</ele><time>2026-04-06T12:34:01.999Z</time></trkpt><trkpt lat="44.56199054628565" lon="10.014947467331321"><ele>724.0</ele><time>2026-04-06T12:34:02.999Z</time></trkpt><trkpt lat="44.56186385039398" lon="10.01486495790167"><ele>726.0</ele><time>2026-04-06T12:34:03.999Z</time></trkpt><trkpt lat="44.56171152990713" lon="10.014758509384547"><ele>728.0</ele><time>2026-04-06T12:34:04.999Z</time></trkpt><trkpt lat="44.56158428075745" lon="10.014667422651357"><ele>728.0</ele><time>2026-04-06T12:34:05.999Z</time></trkpt><trkpt lat="44.56148262643871" lon="10.014592778467566"><ele>728.0</ele><time>2026-04-06T12:34:06.999Z</time></trkpt><trkpt lat="44.56138522396809" lon="10.0145193394451"><ele>728.0</ele><time>2026-04-06T12:34:07.999Z</time></trkpt><trkpt lat="44.561274343067645" lon="10.014435737701838"><ele>728.0</ele><time>2026-04-06T12:34:08.999Z</time></trkpt><trkpt lat="44.56114985957774" lon="10.014350218800818"><ele>730.75</ele><time>2026-04-06T12:34:09.999Z</time></trkpt><trkpt lat="44.561035441787816" lon="10.014286909675418"><ele>733.5</ele><time>2026-04-06T12:34:10.999Z</time></trkpt><trkpt lat="44.56090652564302" lon="10.014232468613647"><ele>736.25</ele><time>2026-04-06T12:34:11.999Z</time></trkpt><trkpt lat="44.56075225057623" lon="10.014232129113557"><ele>739.0</ele><time>2026-04-06T12:34:12.999Z</time></trkpt><trkpt lat="44.56059156244936" lon="10.014183603389368"><ele>739.0</ele><time>2026-04-06T12:34:13.999Z</time></trkpt><trkpt lat="44.56042810217014" lon="10.014157861116075"><ele>739.0</ele><time>2026-04-06T12:34:14.999Z</time></trkpt><trkpt lat="44.5602919366682" lon="10.014121695601315"><ele>739.0</ele><time>2026-04-06T12:34:15.999Z</time></trkpt><trkpt lat="44.56017788866349" lon="10.014056863280379"><ele>739.0</ele><time>2026-04-06T12:34:16.999Z</time></trkpt><trkpt lat="44.5600711173985" lon="10.013945898661774"><ele>741.75</ele><time>2026-04-06T12:34:17.999Z</time></trkpt><trkpt lat="44.55997561008599" lon="10.013832473451801"><ele>744.5</ele><time>2026-04-06T12:34:18.999Z</time></trkpt><trkpt lat="44.559955486288835" lon="10.013628337233571"><ele>747.25</ele><time>2026-04-06T12:34:19.999Z</time></trkpt><trkpt lat="44.559884865857235" lon="10.013425732607864"><ele>750.0</ele><time>2026-04-06T12:34:20.999Z</time></trkpt><trkpt lat="44.5598314357132" lon="10.013190172315184"><ele>750.0</ele><time>2026-04-06T12:34:21.999Z</time></trkpt><trkpt lat="44.559762913617945" lon="10.01294984293719"><ele>750.0</ele><time>2026-04-06T12:34:22.999Z</time></trkpt><trkpt lat="44.55969348330228" lon="10.012696639208551"><ele>750.0</ele><time>2026-04-06T12:34:23.999Z</time></trkpt><trkpt lat="44.5596350489093" lon="10.012454294659417"><ele>751.0</ele><time>2026-04-06T12:34:24.999Z</time></trkpt><trkpt lat="44.559589292377034" lon="10.012222962480084"><ele>752.0</ele><time>2026-04-06T12:34:25.999Z</time></trkpt><trkpt lat="44.55957632784216" lon="10.011985719923425"><ele>753.0</ele><time>2026-04-06T12:34:26.999Z</time></trkpt><trkpt lat="44.559588853398324" lon="10.011761750182343"><ele>751.75</ele><time>2026-04-06T12:34:27.999Z</time></trkpt><trkpt lat="44.559592523041594" lon="10.01156319499158"><ele>750.5</ele><time>2026-04-06T12:34:28.999Z</time></trkpt><trkpt lat="44.559564994118034" lon="10.011371055183178"><ele>749.25</ele><time>2026-04-06T12:34:29.999Z</time></trkpt><trkpt lat="44.5595054840943" lon="10.011172929035578"><ele>748.0</ele><time>2026-04-06T12:34:30.999Z</time></trkpt><trkpt lat="44.55944417449964" lon="10.010982678593"><ele>753.0</ele><time>2026-04-06T12:34:31.999Z</time></trkpt><trkpt lat="44.559382853440425" lon="10.010821744325813"><ele>758.0</ele><time>2026-04-06T12:34:32.999Z</time></trkpt><trkpt lat="44.559373191661834" lon="10.010634302592281"><ele>763.0</ele><time>2026-04-06T12:34:33.999Z</time></trkpt><trkpt lat="44.55917062149026" lon="10.010604039305862"><ele>763.0</ele><time>2026-04-06T12:34:34.999Z</time></trkpt><trkpt lat="44.559017401007566" lon="10.010533083241794"><ele>763.0</ele><time>2026-04-06T12:34:35.999Z</time></trkpt><trkpt lat="44.55886056793109" lon="10.010436061108255"><ele>763.0</ele><time>2026-04-06T12:34:36.999Z</time></trkpt><trkpt lat="44.55870388453202" lon="10.010298060235003"><ele>769.0</ele><time>2026-04-06T12:34:38Z</time></trkpt><trkpt lat="44.55856426098313" lon="10.010101242625588"><ele>775.0</ele><time>2026-04-06T12:34:39Z</time></trkpt><trkpt lat="44.55842071520108" lon="10.009953024032253"><ele>781.0</ele><time>2026-04-06T12:34:40Z</time></trkpt><trkpt lat="44.558299095903244" lon="10.00980387889026"><ele>781.0</ele><time>2026-04-06T12:34:41Z</time></trkpt><trkpt lat="44.55821503758863" lon="10.009634771981668"><ele>781.0</ele><time>2026-04-06T12:34:42Z</time></trkpt><trkpt lat="44.558154131954765" lon="10.009428969193925"><ele>781.0</ele><time>2026-04-06T12:34:43Z</time></trkpt><trkpt lat="44.55810190635632" lon="10.009195850122577"><ele>778.6666666666666</ele><time>2026-04-06T12:34:43.999Z</time></trkpt><trkpt lat="44.558025608975186" lon="10.008994392904084"><ele>776.3333333333333</ele><time>2026-04-06T12:34:44.999Z</time></trkpt><trkpt lat="44.55794295557577" lon="10.008824656459222"><ele>774.0</ele><time>2026-04-06T12:34:45.999Z</time></trkpt><trkpt lat="44.55783177733586" lon="10.008691475637994"><ele>776.5</ele><time>2026-04-06T12:34:46.999Z</time></trkpt><trkpt lat="44.55773159703776" lon="10.008538436062791"><ele>779.0</ele><time>2026-04-06T12:34:47.999Z</time></trkpt><trkpt lat="44.557646997875835" lon="10.008378551363881"><ele>781.5</ele><time>2026-04-06T12:34:48.999Z</time></trkpt><trkpt lat="44.55758989955164" lon="10.008201847215645"><ele>784.0</ele><time>2026-04-06T12:34:49.999Z</time></trkpt><trkpt lat="44.557559111407" lon="10.008019555493624"><ele>784.0</ele><time>2026-04-06T12:34:50.999Z</time></trkpt><trkpt lat="44.55752123447108" lon="10.00786330625288"><ele>784.0</ele><time>2026-04-06T12:34:51.999Z</time></trkpt><trkpt lat="44.55749355798601" lon="10.007737964988346"><ele>784.0</ele><time>2026-04-06T12:34:52.999Z</time></trkpt><trkpt lat="44.557398041746005" lon="10.007636433697296"><ele>784.0</ele><time>2026-04-06T12:34:53.999Z</time></trkpt><trkpt lat="44.557277070635486" lon="10.00759697011134"><ele>784.0</ele><time>2026-04-06T12:34:54.999Z</time></trkpt><trkpt lat="44.55713465898925" lon="10.007601783095685"><ele>784.0</ele><time>2026-04-06T12:34:55.999Z</time></trkpt><trkpt lat="44.55699002711529" lon="10.007647586794135"><ele>784.0</ele><time>2026-04-06T12:34:56.999Z</time></trkpt><trkpt lat="44.55685686217369" lon="10.007684585203156"><ele>784.0</ele><time>2026-04-06T12:34:57.999Z</time></trkpt><trkpt lat="44.55673974829222" lon="10.007708942546413"><ele>785.0</ele><time>2026-04-06T12:34:58.999Z</time></trkpt><trkpt lat="44.55664150161925" lon="10.007721385968729"><ele>786.0</ele><time>2026-04-06T12:34:59.999Z</time></trkpt><trkpt lat="44.55656578253701" lon="10.007641162001388"><ele>787.0</ele><time>2026-04-06T12:35:00.999Z</time></trkpt><trkpt lat="44.556526652319874" lon="10.007519724758133"><ele>788.0</ele><time>2026-04-06T12:35:01.999Z</time></trkpt><trkpt lat="44.55651050855536" lon="10.007370446296513"><ele>789.0</ele><time>2026-04-06T12:35:02.999Z</time></trkpt><trkpt lat="44.55649423237488" lon="10.00721788026612"><ele>789.0</ele><time>2026-04-06T12:35:03.999Z</time></trkpt><trkpt lat="44.556457532965204" lon="10.007082789324496"><ele>789.0</ele><time>2026-04-06T12:35:04.999Z</time></trkpt><trkpt lat="44.556365691087805" lon="10.006960926861726"><ele>789.0</ele><time>2026-04-06T12:35:06Z</time></trkpt><trkpt lat="44.55626105956525" lon="10.006842711044522"><ele>789.0</ele><time>2026-04-06T12:35:07Z</time></trkpt><trkpt lat="44.55612826101038" lon="10.006708114977522"><ele>793.6666666666667</ele><time>2026-04-06T12:35:08Z</time></trkpt><trkpt lat="44.55599725414045" lon="10.006572928088003"><ele>798.3333333333334</ele><time>2026-04-06T12:35:09Z</time></trkpt><trkpt lat="44.555871288708" lon="10.006446974231668"><ele>803.0</ele><time>2026-04-06T12:35:10Z</time></trkpt><trkpt lat="44.555760857243115" lon="10.006291198966357"><ele>803.0</ele><time>2026-04-06T12:35:11Z</time></trkpt><trkpt lat="44.555658394269685" lon="10.006148297505053"><ele>803.0</ele><time>2026-04-06T12:35:12Z</time></trkpt><trkpt lat="44.55559649314584" lon="10.005968628115967"><ele>803.0</ele><time>2026-04-06T12:35:13Z</time></trkpt><trkpt lat="44.55553608309298" lon="10.005756030489827"><ele>803.0</ele><time>2026-04-06T12:35:14Z</time></trkpt><trkpt lat="44.55548744695845" lon="10.005555675655575"><ele>803.0</ele><time>2026-04-06T12:35:15Z</time></trkpt><trkpt lat="44.55546452997624" lon="10.005381360886462"><ele>803.0</ele><time>2026-04-06T12:35:16Z</time></trkpt><trkpt lat="44.55548104218629" lon="10.005207769817254"><ele>803.0</ele><time>2026-04-06T12:35:17Z</time></trkpt><trkpt lat="44.555528535203614" lon="10.00502417199102"><ele>803.5</ele><time>2026-04-06T12:35:18Z</time></trkpt><trkpt lat="44.55559132183268" lon="10.004828604957911"><ele>804.0</ele><time>2026-04-06T12:35:19Z</time></trkpt><trkpt lat="44.55563112067812" lon="10.00466164018157"><ele>804.5</ele><time>2026-04-06T12:35:20Z</time></trkpt><trkpt lat="44.55564136327598" lon="10.004483408790593"><ele>805.0</ele><time>2026-04-06T12:35:21Z</time></trkpt><trkpt lat="44.555618585410976" lon="10.004307245563284"><ele>804.8</ele><time>2026-04-06T12:35:22Z</time></trkpt><trkpt lat="44.5555845859541" lon="10.004144971288262"><ele>804.6</ele><time>2026-04-06T12:35:23Z</time></trkpt><trkpt lat="44.55552910371216" lon="10.004016933626122"><ele>804.4000000000001</ele><time>2026-04-06T12:35:24Z</time></trkpt><trkpt lat="44.55544964592209" lon="10.003934639802386"><ele>804.2</ele><time>2026-04-06T12:35:25Z</time></trkpt><trkpt lat="44.55534197700155" lon="10.003896121491172"><ele>804.0</ele><time>2026-04-06T12:35:26Z</time></trkpt><trkpt lat="44.555220424399245" lon="10.003894220592995"><ele>807.6666666666667</ele><time>2026-04-06T12:35:27Z</time></trkpt><trkpt lat="44.555063291565595" lon="10.00387756095559"><ele>811.3333333333334</ele><time>2026-04-06T12:35:28Z</time></trkpt><trkpt lat="44.55492384893259" lon="10.003828649458493"><ele>815.0</ele><time>2026-04-06T12:35:29Z</time></trkpt><trkpt lat="44.55479060543724" lon="10.003733500880188"><ele>815.0</ele><time>2026-04-06T12:35:30Z</time></trkpt><trkpt lat="44.554677356422935" lon="10.003620999489607"><ele>815.0</ele><time>2026-04-06T12:35:31Z</time></trkpt><trkpt lat="44.55455869104703" lon="10.003506999958619"><ele>815.0</ele><time>2026-04-06T12:35:32Z</time></trkpt><trkpt lat="44.55443781944806" lon="10.003391818887904"><ele>815.0</ele><time>2026-04-06T12:35:33Z</time></trkpt><trkpt lat="44.554317326283375" lon="10.003288364778275"><ele>817.5</ele><time>2026-04-06T12:35:34Z</time></trkpt><trkpt lat="44.55421465319705" lon="10.00319179865177"><ele>820.0</ele><time>2026-04-06T12:35:35Z</time></trkpt><trkpt lat="44.554133126863526" lon="10.003060576831025"><ele>822.5</ele><time>2026-04-06T12:35:36Z</time></trkpt><trkpt lat="44.55406698461901" lon="10.00288431307228"><ele>825.0</ele><time>2026-04-06T12:35:37Z</time></trkpt><trkpt lat="44.554006429201834" lon="10.0026713676434"><ele>823.3333333333333</ele><time>2026-04-06T12:35:38Z</time></trkpt><trkpt lat="44.55395179089527" lon="10.002438829805763"><ele>821.6666666666666</ele><time>2026-04-06T12:35:39Z</time></trkpt><trkpt lat="44.553898081124" lon="10.002193700149286"><ele>820.0</ele><time>2026-04-06T12:35:40Z</time></trkpt><trkpt lat="44.55383866294147" lon="10.001975354978482"><ele>820.0</ele><time>2026-04-06T12:35:41Z</time></trkpt><trkpt lat="44.55379332927876" lon="10.001781421174892"><ele>820.0</ele><time>2026-04-06T12:35:42Z</time></trkpt><trkpt lat="44.55374148950572" lon="10.001619963881325"><ele>820.0</ele><time>2026-04-06T12:35:43Z</time></trkpt><trkpt lat="44.5536745741176" lon="10.00149575282834"><ele>820.0</ele><time>2026-04-06T12:35:44Z</time></trkpt><trkpt lat="44.55360115083185" lon="10.001381482006341"><ele>821.25</ele><time>2026-04-06T12:35:45Z</time></trkpt><trkpt lat="44.55349016336355" lon="10.001307201035914"><ele>822.5</ele><time>2026-04-06T12:35:46Z</time></trkpt><trkpt lat="44.55337229129704" lon="10.001274828334417"><ele>823.75</ele><time>2026-04-06T12:35:47Z</time></trkpt><trkpt lat="44.553253990070175" lon="10.001309246155857"><ele>825.0</ele><time>2026-04-06T12:35:48Z</time></trkpt><trkpt lat="44.553155629938544" lon="10.001386556725466"><ele>825.0</ele><time>2026-04-06T12:35:49Z</time></trkpt><trkpt lat="44.55305170349144" lon="10.00150551245363"><ele>825.0</ele><time>2026-04-06T12:35:50Z</time></trkpt><trkpt lat="44.55295119167357" lon="10.001648562170963"><ele>825.0</ele><time>2026-04-06T12:35:51Z</time></trkpt><trkpt lat="44.552832964643045" lon="10.001802564849516"><ele>825.0</ele><time>2026-04-06T12:35:52Z</time></trkpt><trkpt lat="44.552726907769284" lon="10.00194831171586"><ele>829.0</ele><time>2026-04-06T12:35:53Z</time></trkpt><trkpt lat="44.55262637304267" lon="10.002056485601061"><ele>833.0</ele><time>2026-04-06T12:35:54Z</time></trkpt><trkpt lat="44.55250781495664" lon="10.002125014658132"><ele>837.0</ele><time>2026-04-06T12:35:55Z</time></trkpt><trkpt lat="44.55237189673346" lon="10.002148225994206"><ele>841.0</ele><time>2026-04-06T12:35:56Z</time></trkpt><trkpt lat="44.55222605207218" lon="10.002166662186935"><ele>841.0</ele><time>2026-04-06T12:35:57Z</time></trkpt><trkpt lat="44.552067705553256" lon="10.002188728028965"><ele>841.0</ele><time>2026-04-06T12:35:58Z</time></trkpt><trkpt lat="44.55191932669106" lon="10.002189842464524"><ele>841.0</ele><time>2026-04-06T12:35:59Z</time></trkpt><trkpt lat="44.5517860047225" lon="10.002157993111313"><ele>841.0</ele><time>2026-04-06T12:36:00Z</time></trkpt><trkpt lat="44.551639252485764" lon="10.0021057601274"><ele>841.5</ele><time>2026-04-06T12:36:01Z</time></trkpt><trkpt lat="44.55150209880611" lon="10.00204925504955"><ele>842.0</ele><time>2026-04-06T12:36:02Z</time></trkpt><trkpt lat="44.55137349664709" lon="10.001999009424196"><ele>842.5</ele><time>2026-04-06T12:36:03Z</time></trkpt><trkpt lat="44.55125836226755" lon="10.001981309558941"><ele>843.0</ele><time>2026-04-06T12:36:04.001Z</time></trkpt><trkpt lat="44.55115231306992" lon="10.00203106977422"><ele>843.0</ele><time>2026-04-06T12:36:05.001Z</time></trkpt><trkpt lat="44.5510614229795" lon="10.002141780950241"><ele>843.0</ele><time>2026-04-06T12:36:06.001Z</time></trkpt><trkpt lat="44.55097022151695" lon="10.00228672706225"><ele>843.0</ele><time>2026-04-06T12:36:07.001Z</time></trkpt><trkpt lat="44.55086652890699" lon="10.002452859023405"><ele>843.0</ele><time>2026-04-06T12:36:08.001Z</time></trkpt><trkpt lat="44.5507561457376" lon="10.002636458770858"><ele>846.6666666666667</ele><time>2026-04-06T12:36:09.001Z</time></trkpt><trkpt lat="44.55064664467931" lon="10.00281859160981"><ele>850.3333333333334</ele><time>2026-04-06T12:36:10.001Z</time></trkpt><trkpt lat="44.550532734268046" lon="10.00300805822073"><ele>854.0</ele><time>2026-04-06T12:36:11.001Z</time></trkpt><trkpt lat="44.55043479948194" lon="10.003182601101077"><ele>856.0</ele><time>2026-04-06T12:36:12.001Z</time></trkpt><trkpt lat="44.550353212342145" lon="10.003331988941031"><ele>858.0</ele><time>2026-04-06T12:36:13.001Z</time></trkpt><trkpt lat="44.55026271856271" lon="10.00344669354255"><ele>860.0</ele><time>2026-04-06T12:36:14.001Z</time></trkpt><trkpt lat="44.5501523791142" lon="10.003530229109781"><ele>862.0</ele><time>2026-04-06T12:36:15.001Z</time></trkpt><trkpt lat="44.55002749529385" lon="10.003601461278226"><ele>862.0</ele><time>2026-04-06T12:36:16.001Z</time></trkpt><trkpt lat="44.54990601067026" lon="10.003631787777522"><ele>862.0</ele><time>2026-04-06T12:36:17.001Z</time></trkpt><trkpt lat="44.549773548451704" lon="10.003615563608129"><ele>862.0</ele><time>2026-04-06T12:36:18.001Z</time></trkpt><trkpt lat="44.54963653394174" lon="10.003558857899474"><ele>862.0</ele><time>2026-04-06T12:36:19.001Z</time></trkpt><trkpt lat="44.549498084493884" lon="10.003535196457513"><ele>862.25</ele><time>2026-04-06T12:36:20.001Z</time></trkpt><trkpt lat="44.54937743696511" lon="10.003575128655312"><ele>862.5</ele><time>2026-04-06T12:36:21.001Z</time></trkpt><trkpt lat="44.54925311689185" lon="10.003636950549964"><ele>862.75</ele><time>2026-04-06T12:36:22.001Z</time></trkpt><trkpt lat="44.549110091276695" lon="10.003698871980312"><ele>863.0</ele><time>2026-04-06T12:36:23.001Z</time></trkpt><trkpt lat="44.548971792859994" lon="10.003790174646124"><ele>863.0</ele><time>2026-04-06T12:36:24.001Z</time></trkpt><trkpt lat="44.548837026423804" lon="10.003878860223052"><ele>863.0</ele><time>2026-04-06T12:36:25.001Z</time></trkpt><trkpt lat="44.54871220916209" lon="10.003958335274035"><ele>863.0</ele><time>2026-04-06T12:36:26.001Z</time></trkpt><trkpt lat="44.54860520100075" lon="10.004024005641293"><ele>863.0</ele><time>2026-04-06T12:36:27.001Z</time></trkpt><trkpt lat="44.548512279481685" lon="10.004056852696081"><ele>864.0</ele><time>2026-04-06T12:36:28.001Z</time></trkpt><trkpt lat="44.548422124919206" lon="10.004057922109036"><ele>865.0</ele><time>2026-04-06T12:36:29.001Z</time></trkpt><trkpt lat="44.54833504492792" lon="10.00401312382387"><ele>866.0</ele><time>2026-04-06T12:36:30.001Z</time></trkpt><trkpt lat="44.548239286126936" lon="10.003953330605322"><ele>867.0</ele><time>2026-04-06T12:36:31.001Z</time></trkpt><trkpt lat="44.548139801833905" lon="10.0039160519078"><ele>868.0</ele><time>2026-04-06T12:36:32.001Z</time></trkpt><trkpt lat="44.54804389286765" lon="10.003868971562355"><ele>868.0</ele><time>2026-04-06T12:36:33.001Z</time></trkpt><trkpt lat="44.547948374627175" lon="10.003816620760054"><ele>868.0</ele><time>2026-04-06T12:36:34.001Z</time></trkpt><trkpt lat="44.54782907091027" lon="10.003811122122434"><ele>868.0</ele><time>2026-04-06T12:36:35.001Z</time></trkpt><trkpt lat="44.547716771662365" lon="10.003836359190158"><ele>868.0</ele><time>2026-04-06T12:36:36.001Z</time></trkpt><trkpt lat="44.54762858585618" lon="10.003865580276555"><ele>868.0</ele><time>2026-04-06T12:36:37.001Z</time></trkpt><trkpt lat="44.54754625186416" lon="10.00389408152849"><ele>869.0</ele><time>2026-04-06T12:36:38.001Z</time></trkpt><trkpt lat="44.54746192903648" lon="10.003916514271515"><ele>870.0</ele><time>2026-04-06T12:36:39.001Z</time></trkpt><trkpt lat="44.54736778514006" lon="10.003921170420535"><ele>871.0</ele><time>2026-04-06T12:36:40.001Z</time></trkpt><trkpt lat="44.547266428646346" lon="10.003909892009165"><ele>872.0</ele><time>2026-04-06T12:36:41.001Z</time></trkpt><trkpt lat="44.54715461680189" lon="10.00388633564164"><ele>873.0</ele><time>2026-04-06T12:36:42.001Z</time></trkpt><trkpt lat="44.54703998074556" lon="10.003859256424935"><ele>873.8</ele><time>2026-04-06T12:36:43.001Z</time></trkpt><trkpt lat="44.54693597946785" lon="10.003830366190956"><ele>874.5999999999999</ele><time>2026-04-06T12:36:44.001Z</time></trkpt><trkpt lat="44.54683229037518" lon="10.00380112449213"><ele>875.4000000000001</ele><time>2026-04-06T12:36:45.001Z</time></trkpt><trkpt lat="44.54673546635531" lon="10.003777002653033"><ele>876.2</ele><time>2026-04-06T12:36:46.001Z</time></trkpt><trkpt lat="44.54663111664656" lon="10.003759989677128"><ele>877.0</ele><time>2026-04-06T12:36:47.001Z</time></trkpt><trkpt lat="44.54651795030415" lon="10.003753947891655"><ele>877.0</ele><time>2026-04-06T12:36:48.001Z</time></trkpt><trkpt lat="44.54640059249276" lon="10.003765810590405"><ele>877.0</ele><time>2026-04-06T12:36:49.001Z</time></trkpt><trkpt lat="44.54628713461005" lon="10.003786620570715"><ele>877.0</ele><time>2026-04-06T12:36:50.001Z</time></trkpt><trkpt lat="44.546177649205546" lon="10.003823245002533"><ele>877.0</ele><time>2026-04-06T12:36:51.001Z</time></trkpt><trkpt lat="44.546072601905315" lon="10.003875115504814"><ele>879.6666666666666</ele><time>2026-04-06T12:36:52.001Z</time></trkpt><trkpt lat="44.54595475105536" lon="10.003964525510519"><ele>882.3333333333333</ele><time>2026-04-06T12:36:53.001Z</time></trkpt><trkpt lat="44.54581322586634" lon="10.004091622570137"><ele>885.0</ele><time>2026-04-06T12:36:54.001Z</time></trkpt><trkpt lat="44.54566211419745" lon="10.004252048787857"><ele>887.75</ele><time>2026-04-06T12:36:55.001Z</time></trkpt><trkpt lat="44.545526869838284" lon="10.004384036445726"><ele>890.5</ele><time>2026-04-06T12:36:56.001Z</time></trkpt><trkpt lat="44.54540363069982" lon="10.00447994858437"><ele>893.25</ele><time>2026-04-06T12:36:57.001Z</time></trkpt><trkpt lat="44.54528195853069" lon="10.004483149932854"><ele>896.0</ele><time>2026-04-06T12:36:58.001Z</time></trkpt><trkpt lat="44.545150862706734" lon="10.004458287149308"><ele>896.6666666666667</ele><time>2026-04-06T12:36:59.001Z</time></trkpt><trkpt lat="44.54500066659499" lon="10.004407148459547"><ele>897.3333333333333</ele><time>2026-04-06T12:37:00.001Z</time></trkpt><trkpt lat="44.5448443785914" lon="10.004339248318288"><ele>898.0</ele><time>2026-04-06T12:37:01.001Z</time></trkpt><trkpt lat="44.544681320035764" lon="10.004268817965983"><ele>897.0</ele><time>2026-04-06T12:37:02.001Z</time></trkpt><trkpt lat="44.544525870371054" lon="10.004202474936152"><ele>896.0</ele><time>2026-04-06T12:37:03.001Z</time></trkpt><trkpt lat="44.54438080271672" lon="10.004144232133296"><ele>895.0</ele><time>2026-04-06T12:37:04.001Z</time></trkpt><trkpt lat="44.54424533117938" lon="10.004101638422991"><ele>895.0</ele><time>2026-04-06T12:37:05.001Z</time></trkpt><trkpt lat="44.54409422261217" lon="10.004087422224583"><ele>895.0</ele><time>2026-04-06T12:37:06.001Z</time></trkpt><trkpt lat="44.543942439752605" lon="10.00411240980755"><ele>895.0</ele><time>2026-04-06T12:37:07.001Z</time></trkpt><trkpt lat="44.54379372243839" lon="10.004143349838236"><ele>898.0</ele><time>2026-04-06T12:37:08.001Z</time></trkpt><trkpt lat="44.543634776159884" lon="10.004162425448165"><ele>901.0</ele><time>2026-04-06T12:37:09.001Z</time></trkpt><trkpt lat="44.54347349190381" lon="10.00417192425174"><ele>904.0</ele><time>2026-04-06T12:37:10.001Z</time></trkpt><trkpt lat="44.54330298858391" lon="10.004161298158385"><ele>904.0</ele><time>2026-04-06T12:37:11.001Z</time></trkpt><trkpt lat="44.54313728194877" lon="10.004138473174468"><ele>904.0</ele><time>2026-04-06T12:37:12.001Z</time></trkpt><trkpt lat="44.54299616567901" lon="10.004101140577685"><ele>904.0</ele><time>2026-04-06T12:37:13.001Z</time></trkpt><trkpt lat="44.542872136512386" lon="10.004032697255166"><ele>904.0</ele><time>2026-04-06T12:37:14.001Z</time></trkpt><trkpt lat="44.5427524240358" lon="10.003930369961768"><ele>909.3333333333333</ele><time>2026-04-06T12:37:15.001Z</time></trkpt><trkpt lat="44.542640809879686" lon="10.003796865401208"><ele>914.6666666666667</ele><time>2026-04-06T12:37:16.001Z</time></trkpt><trkpt lat="44.542541250147366" lon="10.003638947068334"><ele>920.0</ele><time>2026-04-06T12:37:17.001Z</time></trkpt><trkpt lat="44.542461141504766" lon="10.00344757029927"><ele>919.0</ele><time>2026-04-06T12:37:18.001Z</time></trkpt><trkpt lat="44.542405076677106" lon="10.003243804989397"><ele>918.0</ele><time>2026-04-06T12:37:19.001Z</time></trkpt><trkpt lat="44.54236770115131" lon="10.003045350944252"><ele>917.0</ele><time>2026-04-06T12:37:20.001Z</time></trkpt><trkpt lat="44.542322659869086" lon="10.002889716605818"><ele>916.0</ele><time>2026-04-06T12:37:21.001Z</time></trkpt><trkpt lat="44.542267166117476" lon="10.00275857008766"><ele>916.0</ele><time>2026-04-06T12:37:22.001Z</time></trkpt><trkpt lat="44.542177725810774" lon="10.00267753185902"><ele>916.0</ele><time>2026-04-06T12:37:23.001Z</time></trkpt><trkpt lat="44.54205556164954" lon="10.002632443098722"><ele>916.0</ele><time>2026-04-06T12:37:24.001Z</time></trkpt><trkpt lat="44.54191573997542" lon="10.002586638277156"><ele>916.0</ele><time>2026-04-06T12:37:25.001Z</time></trkpt><trkpt lat="44.54176331629282" lon="10.002549152012278"><ele>917.3333333333333</ele><time>2026-04-06T12:37:26.001Z</time></trkpt><trkpt lat="44.5415966846126" lon="10.002509965258081"><ele>918.6666666666667</ele><time>2026-04-06T12:37:27.001Z</time></trkpt><trkpt lat="44.54142814160716" lon="10.002465979852206"><ele>920.0</ele><time>2026-04-06T12:37:28.001Z</time></trkpt><trkpt lat="44.54128844113456" lon="10.002425926632544"><ele>923.6</ele><time>2026-04-06T12:37:29.001Z</time></trkpt><trkpt lat="44.5411732439163" lon="10.002399185774909"><ele>927.2</ele><time>2026-04-06T12:37:30.001Z</time></trkpt><trkpt lat="44.54107393765402" lon="10.002422894331385"><ele>930.8</ele><time>2026-04-06T12:37:31.001Z</time></trkpt><trkpt lat="44.54098444664791" lon="10.002438911413286"><ele>934.4</ele><time>2026-04-06T12:37:32.001Z</time></trkpt><trkpt lat="44.54093629198544" lon="10.002553178882184"><ele>938.0</ele><time>2026-04-06T12:37:33.001Z</time></trkpt><trkpt lat="44.54093128369032" lon="10.002648833424583"><ele>938.25</ele><time>2026-04-06T12:37:34.001Z</time></trkpt><trkpt lat="44.54096605281236" lon="10.002763205591574"><ele>938.5</ele><time>2026-04-06T12:37:35.001Z</time></trkpt><trkpt lat="44.541037533658134" lon="10.00287800026162"><ele>938.75</ele><time>2026-04-06T12:37:36.001Z</time></trkpt><trkpt lat="44.54116155842708" lon="10.00297990789086"><ele>939.0</ele><time>2026-04-06T12:37:37.001Z</time></trkpt><trkpt lat="44.5413207746619" lon="10.003091860544039"><ele>937.0</ele><time>2026-04-06T12:37:38.001Z</time></trkpt><trkpt lat="44.54145654347409" lon="10.003231739922686"><ele>935.0</ele><time>2026-04-06T12:37:39.001Z</time></trkpt><trkpt lat="44.541593940011985" lon="10.003390865134696"><ele>933.0</ele><time>2026-04-06T12:37:40.001Z</time></trkpt><trkpt lat="44.54172418443513" lon="10.003532982283948"><ele>933.0</ele><time>2026-04-06T12:37:41.001Z</time></trkpt><trkpt lat="44.54184678767746" lon="10.00366320676547"><ele>933.0</ele><time>2026-04-06T12:37:42.001Z</time></trkpt><trkpt lat="44.54194406602438" lon="10.00378204143223"><ele>933.0</ele><time>2026-04-06T12:37:43.001Z</time></trkpt><trkpt lat="44.54202632617441" lon="10.003902095526467"><ele>933.0</ele><time>2026-04-06T12:37:44.001Z</time></trkpt><trkpt lat="44.54207163865507" lon="10.004047172888557"><ele>934.0</ele><time>2026-04-06T12:37:45.001Z</time></trkpt><trkpt lat="44.54207973222973" lon="10.004201188110809"><ele>935.0</ele><time>2026-04-06T12:37:46.001Z</time></trkpt><trkpt lat="44.54204784336321" lon="10.004348782585625"><ele>936.0</ele><time>2026-04-06T12:37:47.001Z</time></trkpt><trkpt lat="44.541981040737525" lon="10.004460446488645"><ele>937.0</ele><time>2026-04-06T12:37:48.001Z</time></trkpt><trkpt lat="44.54188322789626" lon="10.004516132304394"><ele>938.0</ele><time>2026-04-06T12:37:49.001Z</time></trkpt><trkpt lat="44.54177950297556" lon="10.00455524844294"><ele>938.0</ele><time>2026-04-06T12:37:50.001Z</time></trkpt><trkpt lat="44.54167902093068" lon="10.004531426055472"><ele>938.0</ele><time>2026-04-06T12:37:51.001Z</time></trkpt><trkpt lat="44.54156314007408" lon="10.004492506047347"><ele>938.0</ele><time>2026-04-06T12:37:52.001Z</time></trkpt><trkpt lat="44.54143276402283" lon="10.004455176110026"><ele>938.0</ele><time>2026-04-06T12:37:53.001Z</time></trkpt><trkpt lat="44.54127925820457" lon="10.004445151624934"><ele>942.3333333333334</ele><time>2026-04-06T12:37:54.001Z</time></trkpt><trkpt lat="44.541114068348776" lon="10.004488016363752"><ele>946.6666666666667</ele><time>2026-04-06T12:37:55.001Z</time></trkpt><trkpt lat="44.54097508644015" lon="10.004569480085497"><ele>951.0</ele><time>2026-04-06T12:37:56.001Z</time></trkpt><trkpt lat="44.540833033622235" lon="10.004651964930932"><ele>951.0</ele><time>2026-04-06T12:37:57.001Z</time></trkpt><trkpt lat="44.540718137287904" lon="10.004730764108636"><ele>951.0</ele><time>2026-04-06T12:37:58.001Z</time></trkpt><trkpt lat="44.54058702115681" lon="10.004781211835507"><ele>951.0</ele><time>2026-04-06T12:37:59.001Z</time></trkpt><trkpt lat="44.54046256845358" lon="10.004803430498606"><ele>951.0</ele><time>2026-04-06T12:38:00.001Z</time></trkpt><trkpt lat="44.540332246836776" lon="10.004784606202533"><ele>955.3333333333333</ele><time>2026-04-06T12:38:01.001Z</time></trkpt><trkpt lat="44.540187749010116" lon="10.00472290128333"><ele>959.6666666666666</ele><time>2026-04-06T12:38:02.001Z</time></trkpt><trkpt lat="44.540026832473785" lon="10.004649469110637"><ele>964.0</ele><time>2026-04-06T12:38:03.001Z</time></trkpt><trkpt lat="44.5398527325466" lon="10.0045694535105"><ele>964.0</ele><time>2026-04-06T12:38:04.001Z</time></trkpt><trkpt lat="44.539658743977" lon="10.004506195435988"><ele>964.0</ele><time>2026-04-06T12:38:05.001Z</time></trkpt><trkpt lat="44.539451665277" lon="10.004465438719084"><ele>964.0</ele><time>2026-04-06T12:38:06.001Z</time></trkpt><trkpt lat="44.53926684755415" lon="10.004429629273274"><ele>965.0</ele><time>2026-04-06T12:38:07.001Z</time></trkpt><trkpt lat="44.53908586166963" lon="10.004392974653186"><ele>966.0</ele><time>2026-04-06T12:38:08.001Z</time></trkpt><trkpt lat="44.53893272914364" lon="10.004357769156078"><ele>967.0</ele><time>2026-04-06T12:38:09.001Z</time></trkpt><trkpt lat="44.53880772639778" lon="10.00430487274521"><ele>965.5</ele><time>2026-04-06T12:38:10.001Z</time></trkpt><trkpt lat="44.53869581314223" lon="10.004223525255608"><ele>964.0</ele><time>2026-04-06T12:38:11.001Z</time></trkpt><trkpt lat="44.538604148387485" lon="10.00410902952008"><ele>962.5</ele><time>2026-04-06T12:38:12.001Z</time></trkpt><trkpt lat="44.538535622208116" lon="10.003982939076165"><ele>961.0</ele><time>2026-04-06T12:38:13.001Z</time></trkpt><trkpt lat="44.53847036586212" lon="10.003826126710518"><ele>961.0</ele><time>2026-04-06T12:38:14.001Z</time></trkpt><trkpt lat="44.53840972385698" lon="10.003641985163144"><ele>961.0</ele><time>2026-04-06T12:38:15.001Z</time></trkpt><trkpt lat="44.538365221942975" lon="10.003443705077368"><ele>961.0</ele><time>2026-04-06T12:38:16.001Z</time></trkpt><trkpt lat="44.53834358384265" lon="10.00323986189818"><ele>961.0</ele><time>2026-04-06T12:38:17.001Z</time></trkpt><trkpt lat="44.53835013565147" lon="10.003031968382812"><ele>959.3333333333333</ele><time>2026-04-06T12:38:18.001Z</time></trkpt><trkpt lat="44.538388556615445" lon="10.002836433440445"><ele>957.6666666666667</ele><time>2026-04-06T12:38:19.001Z</time></trkpt><trkpt lat="44.53844059170434" lon="10.002603214607161"><ele>956.0</ele><time>2026-04-06T12:38:20.001Z</time></trkpt><trkpt lat="44.538499208297026" lon="10.002349779863104"><ele>955.0</ele><time>2026-04-06T12:38:21.001Z</time></trkpt><trkpt lat="44.53855674812005" lon="10.002115432242075"><ele>954.0</ele><time>2026-04-06T12:38:22.001Z</time></trkpt><trkpt lat="44.53859065191403" lon="10.001903706617504"><ele>953.0</ele><time>2026-04-06T12:38:23.001Z</time></trkpt><trkpt lat="44.538615912059925" lon="10.001715588795117"><ele>954.0</ele><time>2026-04-06T12:38:24.001Z</time></trkpt><trkpt lat="44.538593284093764" lon="10.001503398441532"><ele>955.0</ele><time>2026-04-06T12:38:25.001Z</time></trkpt><trkpt lat="44.538535703923685" lon="10.001278066744115"><ele>956.0</ele><time>2026-04-06T12:38:26.002Z</time></trkpt><trkpt lat="44.53844190338735" lon="10.001035838190086"><ele>954.5</ele><time>2026-04-06T12:38:27.002Z</time></trkpt><trkpt lat="44.53833631405199" lon="10.00076110221103"><ele>953.0</ele><time>2026-04-06T12:38:28.002Z</time></trkpt><trkpt lat="44.538233821916066" lon="10.000445496967629"><ele>953.0</ele><time>2026-04-06T12:38:29.002Z</time></trkpt><trkpt lat="44.538115946500106" lon="10.000109617578635"><ele>953.0</ele><time>2026-04-06T12:38:30.002Z</time></trkpt><trkpt lat="44.53799272720954" lon="9.999745827242155"><ele>951.6666666666667</ele><time>2026-04-06T12:38:31.002Z</time></trkpt><trkpt lat="44.53788495256687" lon="9.999419523107463"><ele>950.3333333333333</ele><time>2026-04-06T12:38:32.002Z</time></trkpt><trkpt lat="44.53780841510065" lon="9.99917251646101"><ele>949.0</ele><time>2026-04-06T12:38:33.002Z</time></trkpt><trkpt lat="44.5377409506327" lon="9.998969772675032"><ele>949.0</ele><time>2026-04-06T12:38:34.002Z</time></trkpt><trkpt lat="44.53766872833872" lon="9.998775892181527"><ele>949.0</ele><time>2026-04-06T12:38:35.002Z</time></trkpt><trkpt lat="44.53756866814605" lon="9.998617050543192"><ele>949.0</ele><time>2026-04-06T12:38:36.002Z</time></trkpt><trkpt lat="44.53742846876358" lon="9.998475196986917"><ele>949.0</ele><time>2026-04-06T12:38:37.002Z</time></trkpt><trkpt lat="44.53726131597465" lon="9.99835400546856"><ele>949.0</ele><time>2026-04-06T12:38:38.002Z</time></trkpt><trkpt lat="44.53708131006445" lon="9.998226093008032"><ele>949.0</ele><time>2026-04-06T12:38:39.002Z</time></trkpt><trkpt lat="44.53692386610857" lon="9.998110180757724"><ele>948.75</ele><time>2026-04-06T12:38:40.002Z</time></trkpt><trkpt lat="44.536788042467485" lon="9.998030148296081"><ele>948.5</ele><time>2026-04-06T12:38:41.002Z</time></trkpt><trkpt lat="44.53665327783721" lon="9.997981773324506"><ele>948.25</ele><time>2026-04-06T12:38:42.002Z</time></trkpt><trkpt lat="44.53649578647621" lon="9.997974812917546"><ele>948.0</ele><time>2026-04-06T12:38:43.002Z</time></trkpt><trkpt lat="44.536338187405136" lon="9.998023379706154"><ele>949.0</ele><time>2026-04-06T12:38:44.002Z</time></trkpt><trkpt lat="44.53619811028438" lon="9.998103065167927"><ele>950.0</ele><time>2026-04-06T12:38:45.002Z</time></trkpt><trkpt lat="44.53606846212131" lon="9.998227451255188"><ele>951.0</ele><time>2026-04-06T12:38:46.002Z</time></trkpt><trkpt lat="44.53595229411177" lon="9.99840769165539"><ele>948.6666666666667</ele><time>2026-04-06T12:38:47.002Z</time></trkpt><trkpt lat="44.53583259014711" lon="9.998604323834687"><ele>946.3333333333334</ele><time>2026-04-06T12:38:48.002Z</time></trkpt><trkpt lat="44.53571778719252" lon="9.998751266466273"><ele>944.0</ele><time>2026-04-06T12:38:49.002Z</time></trkpt><trkpt lat="44.535620119636306" lon="9.998851392625042"><ele>944.0</ele><time>2026-04-06T12:38:50.002Z</time></trkpt><trkpt lat="44.5355252301531" lon="9.998881914864528"><ele>944.0000000000001</ele><time>2026-04-06T12:38:51.002Z</time></trkpt><trkpt lat="44.535427966615" lon="9.998863458485246"><ele>944.0000000000001</ele><time>2026-04-06T12:38:52.002Z</time></trkpt><trkpt lat="44.535330877302464" lon="9.998799851969833"><ele>944.0</ele><time>2026-04-06T12:38:53.002Z</time></trkpt><trkpt lat="44.53522716323955" lon="9.998690461773"><ele>944.0</ele><time>2026-04-06T12:38:54.002Z</time></trkpt><trkpt lat="44.53510602684907" lon="9.998549742250127"><ele>945.0</ele><time>2026-04-06T12:38:55.002Z</time></trkpt><trkpt lat="44.53497414803223" lon="9.998402562288714"><ele>946.0</ele><time>2026-04-06T12:38:56.002Z</time></trkpt><trkpt lat="44.53485295077523" lon="9.998281005689298"><ele>947.0</ele><time>2026-04-06T12:38:57.002Z</time></trkpt><trkpt lat="44.53471600626128" lon="9.998187783564365"><ele>947.0</ele><time>2026-04-06T12:38:58.002Z</time></trkpt><trkpt lat="44.53455967100543" lon="9.99813125057503"><ele>947.0</ele><time>2026-04-06T12:38:59.002Z</time></trkpt><trkpt lat="44.53438169205305" lon="9.998128124429831"><ele>947.0</ele><time>2026-04-06T12:39:00.002Z</time></trkpt><trkpt lat="44.53419534366269" lon="9.9980999088475"><ele>944.6666666666667</ele><time>2026-04-06T12:39:01.002Z</time></trkpt><trkpt lat="44.53399543331419" lon="9.998087328393686"><ele>942.3333333333333</ele><time>2026-04-06T12:39:02.002Z</time></trkpt><trkpt lat="44.533787944538936" lon="9.998073882606612"><ele>940.0</ele><time>2026-04-06T12:39:03.002Z</time></trkpt><trkpt lat="44.53359079028963" lon="9.998060785196886"><ele>940.0</ele><time>2026-04-06T12:39:04.002Z</time></trkpt><trkpt lat="44.53339349552477" lon="9.998047678469463"><ele>940.0</ele><time>2026-04-06T12:39:05.002Z</time></trkpt><trkpt lat="44.53320700691714" lon="9.998035289614924"><ele>940.0</ele><time>2026-04-06T12:39:06.002Z</time></trkpt><trkpt lat="44.53303457069736" lon="9.998025237355806"><ele>940.3333333333333</ele><time>2026-04-06T12:39:07.002Z</time></trkpt><trkpt lat="44.53286598115923" lon="9.998019528647363"><ele>940.6666666666667</ele><time>2026-04-06T12:39:08.002Z</time></trkpt><trkpt lat="44.532710962047595" lon="9.998044567377868"><ele>941.0</ele><time>2026-04-06T12:39:09.002Z</time></trkpt><trkpt lat="44.53256706426511" lon="9.998134488934939"><ele>941.0</ele><time>2026-04-06T12:39:10.002Z</time></trkpt><trkpt lat="44.53243961682662" lon="9.998224726264066"><ele>941.0</ele><time>2026-04-06T12:39:11.002Z</time></trkpt><trkpt lat="44.53232910760625" lon="9.998294669169372"><ele>941.0</ele><time>2026-04-06T12:39:12.002Z</time></trkpt><trkpt lat="44.532221107061545" lon="9.99832428319403"><ele>941.0</ele><time>2026-04-06T12:39:13.002Z</time></trkpt><trkpt lat="44.53213301027242" lon="9.998283046235303"><ele>939.0</ele><time>2026-04-06T12:39:14.002Z</time></trkpt><trkpt lat="44.53202447505995" lon="9.998208149365661"><ele>937.0</ele><time>2026-04-06T12:39:15.002Z</time></trkpt><trkpt lat="44.53189924607464" lon="9.998107857023722"><ele>935.0</ele><time>2026-04-06T12:39:16.002Z</time></trkpt><trkpt lat="44.53179039738604" lon="9.99799658783279"><ele>933.0</ele><time>2026-04-06T12:39:17.002Z</time></trkpt><trkpt lat="44.53170471382257" lon="9.997874119448134"><ele>933.0</ele><time>2026-04-06T12:39:18.002Z</time></trkpt><trkpt lat="44.53165223286053" lon="9.997715124592222"><ele>933.0</ele><time>2026-04-06T12:39:19.002Z</time></trkpt><trkpt lat="44.53160130589331" lon="9.99753432098717"><ele>933.0</ele><time>2026-04-06T12:39:20.002Z</time></trkpt><trkpt lat="44.531590121246566" lon="9.997334136974125"><ele>933.0</ele><time>2026-04-06T12:39:21.002Z</time></trkpt><trkpt lat="44.53157125803354" lon="9.997147542128614"><ele>935.0</ele><time>2026-04-06T12:39:22.002Z</time></trkpt><trkpt lat="44.531526869711406" lon="9.996997258921246"><ele>937.0</ele><time>2026-04-06T12:39:23.002Z</time></trkpt><trkpt lat="44.53145335292219" lon="9.996888150234302"><ele>939.0</ele><time>2026-04-06T12:39:24.002Z</time></trkpt><trkpt lat="44.531367762878595" lon="9.996801076881944"><ele>941.0</ele><time>2026-04-06T12:39:25.002Z</time></trkpt><trkpt lat="44.53124419658747" lon="9.996782533923692"><ele>937.0</ele><time>2026-04-06T12:39:26.002Z</time></trkpt><trkpt lat="44.53111790477469" lon="9.996838185159529"><ele>933.0</ele><time>2026-04-06T12:39:27.002Z</time></trkpt><trkpt lat="44.53099412086202" lon="9.99683801636821"><ele>929.0</ele><time>2026-04-06T12:39:28.002Z</time></trkpt><trkpt lat="44.53088948128664" lon="9.99684861546888"><ele>925.0</ele><time>2026-04-06T12:39:29.002Z</time></trkpt><trkpt lat="44.53079645001476" lon="9.996802439835621"><ele>925.0</ele><time>2026-04-06T12:39:30.002Z</time></trkpt><trkpt lat="44.530699907897315" lon="9.996715791598644"><ele>925.0</ele><time>2026-04-06T12:39:31.002Z</time></trkpt><trkpt lat="44.53058668181616" lon="9.99662502527606"><ele>925.0</ele><time>2026-04-06T12:39:32.002Z</time></trkpt><trkpt lat="44.53046631369958" lon="9.99652479185404"><ele>925.0</ele><time>2026-04-06T12:39:33.002Z</time></trkpt><trkpt lat="44.53033484808451" lon="9.996414728475703"><ele>927.0</ele><time>2026-04-06T12:39:34.002Z</time></trkpt><trkpt lat="44.530190745107745" lon="9.996293983020943"><ele>929.0</ele><time>2026-04-06T12:39:35.002Z</time></trkpt><trkpt lat="44.53005622507909" lon="9.996181267179416"><ele>931.0</ele><time>2026-04-06T12:39:36.002Z</time></trkpt><trkpt lat="44.5299152057114" lon="9.996063105451197"><ele>931.0</ele><time>2026-04-06T12:39:37.002Z</time></trkpt><trkpt lat="44.52977664025719" lon="9.995946822367403"><ele>931.0</ele><time>2026-04-06T12:39:38.002Z</time></trkpt><trkpt lat="44.52965144064596" lon="9.995839497215687"><ele>931.0</ele><time>2026-04-06T12:39:39.002Z</time></trkpt><trkpt lat="44.529525576535434" lon="9.995743244677971"><ele>932.5</ele><time>2026-04-06T12:39:40.002Z</time></trkpt><trkpt lat="44.52939999793232" lon="9.995676334537952"><ele>934.0</ele><time>2026-04-06T12:39:41.002Z</time></trkpt><trkpt lat="44.529268833848114" lon="9.995669628606926"><ele>935.5</ele><time>2026-04-06T12:39:42.002Z</time></trkpt><trkpt lat="44.529149158180054" lon="9.995716439086126"><ele>937.0</ele><time>2026-04-06T12:39:43.002Z</time></trkpt><trkpt lat="44.52903525812728" lon="9.995755376644405"><ele>937.0</ele><time>2026-04-06T12:39:44.002Z</time></trkpt><trkpt lat="44.52892366376725" lon="9.995793525983572"><ele>937.0</ele><time>2026-04-06T12:39:45.002Z</time></trkpt><trkpt lat="44.52881181134663" lon="9.995831763541092"><ele>937.0</ele><time>2026-04-06T12:39:46.002Z</time></trkpt><trkpt lat="44.52872510173157" lon="9.99600128004077"><ele>937.0</ele><time>2026-04-06T12:39:47.002Z</time></trkpt><trkpt lat="44.52861452995631" lon="9.995940340496437"><ele>934.5</ele><time>2026-04-06T12:39:48.002Z</time></trkpt><trkpt lat="44.52851130473753" lon="9.995840349458428"><ele>932.0</ele><time>2026-04-06T12:39:49.002Z</time></trkpt><trkpt lat="44.52841366795667" lon="9.995695834560008"><ele>929.5</ele><time>2026-04-06T12:39:50.002Z</time></trkpt><trkpt lat="44.528308689835306" lon="9.99554930491145"><ele>927.0</ele><time>2026-04-06T12:39:51.002Z</time></trkpt><trkpt lat="44.52819619948503" lon="9.99542710734497"><ele>927.0</ele><time>2026-04-06T12:39:52.002Z</time></trkpt><trkpt lat="44.52806620124135" lon="9.995326220695915"><ele>927.0</ele><time>2026-04-06T12:39:53.002Z</time></trkpt><trkpt lat="44.5279249243034" lon="9.995255457933144"><ele>927.0</ele><time>2026-04-06T12:39:54.002Z</time></trkpt><trkpt lat="44.52777555947301" lon="9.995212299256234"><ele>927.75</ele><time>2026-04-06T12:39:55.002Z</time></trkpt><trkpt lat="44.52761443345234" lon="9.995190321077418"><ele>928.5</ele><time>2026-04-06T12:39:56.002Z</time></trkpt><trkpt lat="44.5274732585146" lon="9.995158588538347"><ele>929.25</ele><time>2026-04-06T12:39:57.002Z</time></trkpt><trkpt lat="44.52733972151198" lon="9.995087532426835"><ele>930.0</ele><time>2026-04-06T12:39:58.002Z</time></trkpt><trkpt lat="44.527217681102094" lon="9.994981736358831"><ele>930.0</ele><time>2026-04-06T12:39:59.002Z</time></trkpt><trkpt lat="44.52712289054587" lon="9.99483598395935"><ele>930.0</ele><time>2026-04-06T12:40:00.002Z</time></trkpt><trkpt lat="44.52703851606576" lon="9.994671011742831"><ele>930.0</ele><time>2026-04-06T12:40:01.002Z</time></trkpt><trkpt lat="44.52696709149245" lon="9.994512392601498"><ele>930.0</ele><time>2026-04-06T12:40:02.002Z</time></trkpt><trkpt lat="44.52688081449006" lon="9.994384473086106"><ele>927.0</ele><time>2026-04-06T12:40:03.002Z</time></trkpt><trkpt lat="44.526771354697026" lon="9.994306082119135"><ele>924.0</ele><time>2026-04-06T12:40:04.002Z</time></trkpt><trkpt lat="44.52664531166111" lon="9.994280278036957"><ele>921.0</ele><time>2026-04-06T12:40:05.002Z</time></trkpt><trkpt lat="44.526513939905286" lon="9.994301420776377"><ele>918.0</ele><time>2026-04-06T12:40:06.002Z</time></trkpt><trkpt lat="44.52639054280059" lon="9.994372822068133"><ele>918.0</ele><time>2026-04-06T12:40:07.002Z</time></trkpt><trkpt lat="44.52626365582722" lon="9.994486083454404"><ele>918.0</ele><time>2026-04-06T12:40:08.002Z</time></trkpt><trkpt lat="44.52612949579242" lon="9.994609367812215"><ele>918.0</ele><time>2026-04-06T12:40:09.002Z</time></trkpt><trkpt lat="44.526004038667104" lon="9.994710724169138"><ele>918.6666666666667</ele><time>2026-04-06T12:40:10.002Z</time></trkpt><trkpt lat="44.525871950740594" lon="9.994792823738091"><ele>919.3333333333334</ele><time>2026-04-06T12:40:11.002Z</time></trkpt><trkpt lat="44.52572474168725" lon="9.994842454335712"><ele>920.0</ele><time>2026-04-06T12:40:12.002Z</time></trkpt><trkpt lat="44.525567148136496" lon="9.994871688883904"><ele>920.0</ele><time>2026-04-06T12:40:13.002Z</time></trkpt><trkpt lat="44.525405149797486" lon="9.9948761451571"><ele>920.0</ele><time>2026-04-06T12:40:14.002Z</time></trkpt><trkpt lat="44.5252378224683" lon="9.994865967606628"><ele>920.0</ele><time>2026-04-06T12:40:15.002Z</time></trkpt><trkpt lat="44.52507785775586" lon="9.99486987577609"><ele>921.0</ele><time>2026-04-06T12:40:16.002Z</time></trkpt><trkpt lat="44.52493210666621" lon="9.994884527290928"><ele>922.0</ele><time>2026-04-06T12:40:17.002Z</time></trkpt><trkpt lat="44.52480509840961" lon="9.994919797328853"><ele>923.0</ele><time>2026-04-06T12:40:18.002Z</time></trkpt><trkpt lat="44.52469405840244" lon="9.995010775012702"><ele>924.0</ele><time>2026-04-06T12:40:19.002Z</time></trkpt><trkpt lat="44.52460025420292" lon="9.995144856099651"><ele>922.25</ele><time>2026-04-06T12:40:20.002Z</time></trkpt><trkpt lat="44.52452733078283" lon="9.995323744308092"><ele>920.5</ele><time>2026-04-06T12:40:21.002Z</time></trkpt><trkpt lat="44.524467295010645" lon="9.995491735168901"><ele>918.75</ele><time>2026-04-06T12:40:22.002Z</time></trkpt><trkpt lat="44.52438912334889" lon="9.995612150931839"><ele>917.0</ele><time>2026-04-06T12:40:23.002Z</time></trkpt><trkpt lat="44.52428725920875" lon="9.995696669631323"><ele>917.0</ele><time>2026-04-06T12:40:24.002Z</time></trkpt><trkpt lat="44.52415916791548" lon="9.995736909631404"><ele>917.0</ele><time>2026-04-06T12:40:25.002Z</time></trkpt><trkpt lat="44.52401159958335" lon="9.995731749870147"><ele>917.0</ele><time>2026-04-06T12:40:26.002Z</time></trkpt><trkpt lat="44.523841450477214" lon="9.99572260809581"><ele>917.0</ele><time>2026-04-06T12:40:27.002Z</time></trkpt><trkpt lat="44.52366206104381" lon="9.995728333967897"><ele>917.6666666666667</ele><time>2026-04-06T12:40:28.002Z</time></trkpt><trkpt lat="44.523491901063494" lon="9.995734462568233"><ele>918.3333333333333</ele><time>2026-04-06T12:40:29.002Z</time></trkpt><trkpt lat="44.52331838666787" lon="9.99573684006298"><ele>919.0</ele><time>2026-04-06T12:40:30.002Z</time></trkpt><trkpt lat="44.523148917855934" lon="9.995739440466707"><ele>919.0</ele><time>2026-04-06T12:40:31.002Z</time></trkpt><trkpt lat="44.5229849019712" lon="9.995743282669903"><ele>919.0</ele><time>2026-04-06T12:40:32.002Z</time></trkpt><trkpt lat="44.52282876001658" lon="9.995746784152793"><ele>919.0</ele><time>2026-04-06T12:40:33.002Z</time></trkpt><trkpt lat="44.52268223564088" lon="9.995751224780134"><ele>917.75</ele><time>2026-04-06T12:40:34.002Z</time></trkpt><trkpt lat="44.522547164794325" lon="9.995754270423127"><ele>916.5</ele><time>2026-04-06T12:40:35.002Z</time></trkpt><trkpt lat="44.52241022136085" lon="9.995737188903618"><ele>915.25</ele><time>2026-04-06T12:40:36.002Z</time></trkpt><trkpt lat="44.522283574957605" lon="9.99567582294788"><ele>914.0</ele><time>2026-04-06T12:40:37.002Z</time></trkpt><trkpt lat="44.522164878186985" lon="9.995567249538928"><ele>910.0</ele><time>2026-04-06T12:40:38.002Z</time></trkpt><trkpt lat="44.522055905354826" lon="9.995418021887954"><ele>906.0</ele><time>2026-04-06T12:40:39.002Z</time></trkpt><trkpt lat="44.52195399672237" lon="9.995224721681598"><ele>902.0</ele><time>2026-04-06T12:40:40.002Z</time></trkpt><trkpt lat="44.521834182067906" lon="9.995040890206818"><ele>902.6666666666667</ele><time>2026-04-06T12:40:41.002Z</time></trkpt><trkpt lat="44.521674019612156" lon="9.99487785370323"><ele>903.3333333333333</ele><time>2026-04-06T12:40:42.002Z</time></trkpt><trkpt lat="44.52150950254209" lon="9.994737990405545"><ele>904.0</ele><time>2026-04-06T12:40:43.002Z</time></trkpt><trkpt lat="44.521353601239355" lon="9.99459689762753"><ele>899.6666666666666</ele><time>2026-04-06T12:40:44.002Z</time></trkpt><trkpt lat="44.52120514906586" lon="9.994454602425737"><ele>895.3333333333333</ele><time>2026-04-06T12:40:45.002Z</time></trkpt><trkpt lat="44.521062283666005" lon="9.99432443393217"><ele>891.0</ele><time>2026-04-06T12:40:46.002Z</time></trkpt><trkpt lat="44.52093277934034" lon="9.994207366973425"><ele>892.3333333333333</ele><time>2026-04-06T12:40:47.002Z</time></trkpt><trkpt lat="44.520790655316056" lon="9.994122231169328"><ele>893.6666666666666</ele><time>2026-04-06T12:40:48.002Z</time></trkpt><trkpt lat="44.52062508218611" lon="9.994072797097584"><ele>895.0</ele><time>2026-04-06T12:40:49.002Z</time></trkpt><trkpt lat="44.52043378135781" lon="9.994063786905828"><ele>893.3333333333333</ele><time>2026-04-06T12:40:50.002Z</time></trkpt><trkpt lat="44.52023842471368" lon="9.99407327292973"><ele>891.6666666666667</ele><time>2026-04-06T12:40:51.002Z</time></trkpt><trkpt lat="44.52005546573057" lon="9.994078190131708"><ele>890.0</ele><time>2026-04-06T12:40:52.002Z</time></trkpt><trkpt lat="44.51987912058442" lon="9.994075434430817"><ele>890.0</ele><time>2026-04-06T12:40:53.002Z</time></trkpt><trkpt lat="44.519696265809564" lon="9.994065340924124"><ele>890.0</ele><time>2026-04-06T12:40:54.002Z</time></trkpt><trkpt lat="44.51951848259446" lon="9.994029934965878"><ele>890.0</ele><time>2026-04-06T12:40:55.002Z</time></trkpt><trkpt lat="44.51935389052109" lon="9.993971372877409"><ele>889.6666666666667</ele><time>2026-04-06T12:40:56.002Z</time></trkpt><trkpt lat="44.519191168510886" lon="9.993923707000839"><ele>889.3333333333333</ele><time>2026-04-06T12:40:57.002Z</time></trkpt><trkpt lat="44.51902925239377" lon="9.99390733788119"><ele>889.0</ele><time>2026-04-06T12:40:58.002Z</time></trkpt><trkpt lat="44.518864958292426" lon="9.99390266296524"><ele>888.3333333333333</ele><time>2026-04-06T12:40:59.002Z</time></trkpt><trkpt lat="44.51870932494233" lon="9.993908774408931"><ele>887.6666666666667</ele><time>2026-04-06T12:41:00.002Z</time></trkpt><trkpt lat="44.51856218192738" lon="9.993946843077499"><ele>887.0</ele><time>2026-04-06T12:41:01.002Z</time></trkpt><trkpt lat="44.51842952529151" lon="9.994043734560723"><ele>884.6666666666667</ele><time>2026-04-06T12:41:02.002Z</time></trkpt><trkpt lat="44.51829496053228" lon="9.994187292902572"><ele>882.3333333333333</ele><time>2026-04-06T12:41:03.002Z</time></trkpt><trkpt lat="44.51815730574249" lon="9.994355481031981"><ele>880.0</ele><time>2026-04-06T12:41:04.002Z</time></trkpt><trkpt lat="44.51800779228237" lon="9.994518826760913"><ele>883.0</ele><time>2026-04-06T12:41:05.002Z</time></trkpt><trkpt lat="44.51786159429678" lon="9.994697617034841"><ele>886.0</ele><time>2026-04-06T12:41:06.002Z</time></trkpt><trkpt lat="44.517730842032044" lon="9.994809061652626"><ele>889.0</ele><time>2026-04-06T12:41:07.002Z</time></trkpt><trkpt lat="44.517600403983955" lon="9.994955562960802"><ele>885.0</ele><time>2026-04-06T12:41:08.002Z</time></trkpt><trkpt lat="44.51747430838126" lon="9.995095640060965"><ele>881.0</ele><time>2026-04-06T12:41:09.002Z</time></trkpt><trkpt lat="44.51735467188456" lon="9.995254441170836"><ele>877.0</ele><time>2026-04-06T12:41:10.002Z</time></trkpt><trkpt lat="44.517256671692365" lon="9.995443856096875"><ele>877.0</ele><time>2026-04-06T12:41:11.002Z</time></trkpt><trkpt lat="44.51717902941305" lon="9.995633073950437"><ele>877.0</ele><time>2026-04-06T12:41:12.002Z</time></trkpt><trkpt lat="44.51711573769947" lon="9.995826539341415"><ele>877.0</ele><time>2026-04-06T12:41:13.002Z</time></trkpt><trkpt lat="44.51705964056701" lon="9.995992775682247"><ele>877.0</ele><time>2026-04-06T12:41:14.002Z</time></trkpt><trkpt lat="44.516985370391865" lon="9.99609696581582"><ele>876.75</ele><time>2026-04-06T12:41:15.002Z</time></trkpt><trkpt lat="44.51689931996016" lon="9.996167755374548"><ele>876.5</ele><time>2026-04-06T12:41:16.002Z</time></trkpt><trkpt lat="44.51678477328948" lon="9.996193915593398"><ele>876.25</ele><time>2026-04-06T12:41:17.002Z</time></trkpt><trkpt lat="44.51663919381009" lon="9.996179073691048"><ele>876.0</ele><time>2026-04-06T12:41:18.002Z</time></trkpt><trkpt lat="44.51646813602124" lon="9.99613285862536"><ele>876.0</ele><time>2026-04-06T12:41:19.002Z</time></trkpt><trkpt lat="44.516280574356855" lon="9.996095288522817"><ele>876.0</ele><time>2026-04-06T12:41:20.002Z</time></trkpt><trkpt lat="44.51608651613342" lon="9.996073638460262"><ele>876.0</ele><time>2026-04-06T12:41:21.002Z</time></trkpt><trkpt lat="44.51588110871613" lon="9.996050550874562"><ele>874.6666666666667</ele><time>2026-04-06T12:41:22.002Z</time></trkpt><trkpt lat="44.51568360860496" lon="9.996030490540736"><ele>873.3333333333334</ele><time>2026-04-06T12:41:23.002Z</time></trkpt><trkpt lat="44.51549140900463" lon="9.995978930767563"><ele>872.0</ele><time>2026-04-06T12:41:24.002Z</time></trkpt><trkpt lat="44.515303751703044" lon="9.995956776411946"><ele>870.0</ele><time>2026-04-06T12:41:25.002Z</time></trkpt><trkpt lat="44.51510358103941" lon="9.995927712960944"><ele>868.0</ele><time>2026-04-06T12:41:26.002Z</time></trkpt><trkpt lat="44.51490494606656" lon="9.995900810295808"><ele>866.0</ele><time>2026-04-06T12:41:27.002Z</time></trkpt><trkpt lat="44.51470840967163" lon="9.995874036879822"><ele>865.3333333333334</ele><time>2026-04-06T12:41:28.002Z</time></trkpt><trkpt lat="44.51452501104489" lon="9.995849053162258"><ele>864.6666666666667</ele><time>2026-04-06T12:41:29.002Z</time></trkpt><trkpt lat="44.514354710758674" lon="9.995825853791054"><ele>864.0</ele><time>2026-04-06T12:41:30.002Z</time></trkpt><trkpt lat="44.51418654374599" lon="9.995827601106528"><ele>864.0</ele><time>2026-04-06T12:41:31.002Z</time></trkpt><trkpt lat="44.51402805852694" lon="9.995820830571143"><ele>864.0</ele><time>2026-04-06T12:41:32.002Z</time></trkpt><trkpt lat="44.51385369631347" lon="9.995860648097647"><ele>864.0</ele><time>2026-04-06T12:41:33.002Z</time></trkpt><trkpt lat="44.51366926495501" lon="9.995947912076598"><ele>865.0</ele><time>2026-04-06T12:41:34.002Z</time></trkpt><trkpt lat="44.513484732969204" lon="9.996034158194128"><ele>866.0</ele><time>2026-04-06T12:41:35.002Z</time></trkpt><trkpt lat="44.51331261103665" lon="9.996108665155248"><ele>867.0</ele><time>2026-04-06T12:41:36.002Z</time></trkpt><trkpt lat="44.51315329172885" lon="9.996177244232355"><ele>867.0</ele><time>2026-04-06T12:41:37.002Z</time></trkpt><trkpt lat="44.51301236893856" lon="9.996242664505887"><ele>867.0</ele><time>2026-04-06T12:41:38.002Z</time></trkpt><trkpt lat="44.51288936316941" lon="9.996325454977308"><ele>867.0</ele><time>2026-04-06T12:41:39.002Z</time></trkpt><trkpt lat="44.51277899828008" lon="9.996438778873458"><ele>867.0</ele><time>2026-04-06T12:41:40.002Z</time></trkpt><trkpt lat="44.51270039765273" lon="9.996644246478748"><ele>868.6666666666667</ele><time>2026-04-06T12:41:41.002Z</time></trkpt><trkpt lat="44.51262571554309" lon="9.996856779572942"><ele>870.3333333333334</ele><time>2026-04-06T12:41:42.002Z</time></trkpt><trkpt lat="44.51255587663408" lon="9.997070549062212"><ele>872.0</ele><time>2026-04-06T12:41:43.002Z</time></trkpt><trkpt lat="44.51247998614781" lon="9.99727498528227"><ele>872.0</ele><time>2026-04-06T12:41:44.002Z</time></trkpt><trkpt lat="44.512414300516305" lon="9.99745292091959"><ele>872.0</ele><time>2026-04-06T12:41:45.002Z</time></trkpt><trkpt lat="44.512349115950684" lon="9.99761697520784"><ele>872.0</ele><time>2026-04-06T12:41:46.002Z</time></trkpt><trkpt lat="44.51225241109254" lon="9.99773438382118"><ele>872.0</ele><time>2026-04-06T12:41:47.002Z</time></trkpt><trkpt lat="44.51216184285086" lon="9.997820336364207"><ele>869.25</ele><time>2026-04-06T12:41:48.002Z</time></trkpt><trkpt lat="44.512058498582554" lon="9.997906424925523"><ele>866.5</ele><time>2026-04-06T12:41:49.002Z</time></trkpt><trkpt lat="44.511950660226596" lon="9.9979773000853"><ele>863.75</ele><time>2026-04-06T12:41:50.002Z</time></trkpt><trkpt lat="44.511833600832176" lon="9.99803334823819"><ele>861.0</ele><time>2026-04-06T12:41:51.002Z</time></trkpt><trkpt lat="44.51170822487265" lon="9.998058320020725"><ele>861.0</ele><time>2026-04-06T12:41:52.002Z</time></trkpt><trkpt lat="44.51158012194084" lon="9.998054274343826"><ele>861.0</ele><time>2026-04-06T12:41:53.002Z</time></trkpt><trkpt lat="44.51145726038722" lon="9.998031120660649"><ele>861.0</ele><time>2026-04-06T12:41:54.002Z</time></trkpt><trkpt lat="44.51134413527098" lon="9.997976431495745"><ele>861.0</ele><time>2026-04-06T12:41:55.002Z</time></trkpt><trkpt lat="44.51124652187056" lon="9.997872722167763"><ele>860.5</ele><time>2026-04-06T12:41:56.002Z</time></trkpt><trkpt lat="44.51114816190637" lon="9.997758475797434"><ele>860.0</ele><time>2026-04-06T12:41:57.002Z</time></trkpt><trkpt lat="44.51105576953904" lon="9.997639127223529"><ele>859.5</ele><time>2026-04-06T12:41:58.002Z</time></trkpt><trkpt lat="44.5109649431455" lon="9.997525803841679"><ele>859.0</ele><time>2026-04-06T12:41:59.002Z</time></trkpt><trkpt lat="44.510902836658126" lon="9.997371289105695"><ele>859.0</ele><time>2026-04-06T12:42:00.002Z</time></trkpt><trkpt lat="44.51086491763672" lon="9.997193598849696"><ele>859.0</ele><time>2026-04-06T12:42:01.002Z</time></trkpt><trkpt lat="44.51083350547007" lon="9.997008304727547"><ele>859.0</ele><time>2026-04-06T12:42:02.002Z</time></trkpt><trkpt lat="44.510785443768086" lon="9.996821583478082"><ele>859.0</ele><time>2026-04-06T12:42:03.002Z</time></trkpt><trkpt lat="44.510712644448425" lon="9.996655737381566"><ele>861.75</ele><time>2026-04-06T12:42:04.002Z</time></trkpt><trkpt lat="44.51062436121561" lon="9.996509849807094"><ele>864.5</ele><time>2026-04-06T12:42:05.002Z</time></trkpt><trkpt lat="44.51053203632055" lon="9.996365692768316"><ele>867.25</ele><time>2026-04-06T12:42:06.002Z</time></trkpt><trkpt lat="44.5104418727794" lon="9.996222342536472"><ele>870.0</ele><time>2026-04-06T12:42:07.002Z</time></trkpt><trkpt lat="44.51035558183736" lon="9.99608324518845"><ele>865.25</ele><time>2026-04-06T12:42:08.002Z</time></trkpt><trkpt lat="44.5102559465138" lon="9.995957432248069"><ele>860.5</ele><time>2026-04-06T12:42:09.002Z</time></trkpt><trkpt lat="44.510131583164686" lon="9.995869598576018"><ele>855.75</ele><time>2026-04-06T12:42:10.002Z</time></trkpt><trkpt lat="44.510013050931406" lon="9.995800663884383"><ele>851.0</ele><time>2026-04-06T12:42:11.002Z</time></trkpt><trkpt lat="44.50992504482668" lon="9.9956959604309"><ele>851.0</ele><time>2026-04-06T12:42:12.002Z</time></trkpt><trkpt lat="44.509869764770116" lon="9.99553278031358"><ele>851.0</ele><time>2026-04-06T12:42:13.002Z</time></trkpt><trkpt lat="44.50983261430864" lon="9.995343740834237"><ele>851.0</ele><time>2026-04-06T12:42:14.002Z</time></trkpt><trkpt lat="44.509786371154625" lon="9.995160877943084"><ele>851.0</ele><time>2026-04-06T12:42:15.002Z</time></trkpt><trkpt lat="44.509732917835656" lon="9.994996200133555"><ele>853.0</ele><time>2026-04-06T12:42:16.002Z</time></trkpt><trkpt lat="44.50966434849948" lon="9.994861223120107"><ele>855.0</ele><time>2026-04-06T12:42:17.002Z</time></trkpt><trkpt lat="44.50957236661638" lon="9.994764398949421"><ele>857.0</ele><time>2026-04-06T12:42:18.002Z</time></trkpt><trkpt lat="44.509467318219286" lon="9.994709494516874"><ele>859.0</ele><time>2026-04-06T12:42:19.002Z</time></trkpt><trkpt lat="44.50935983140975" lon="9.994696610970845"><ele>855.0</ele><time>2026-04-06T12:42:20.002Z</time></trkpt><trkpt lat="44.50925395078793" lon="9.99469460912025"><ele>851.0000000000001</ele><time>2026-04-06T12:42:21.002Z</time></trkpt><trkpt lat="44.509142238431025" lon="9.994666525562202"><ele>847.0</ele><time>2026-04-06T12:42:22.002Z</time></trkpt><trkpt lat="44.509030355993524" lon="9.994673928658965"><ele>843.0</ele><time>2026-04-06T12:42:23.002Z</time></trkpt><trkpt lat="44.50892116138957" lon="9.994637278123815"><ele>839.0</ele><time>2026-04-06T12:42:24.002Z</time></trkpt><trkpt lat="44.50881350622671" lon="9.994580023013187"><ele>837.75</ele><time>2026-04-06T12:42:25.002Z</time></trkpt><trkpt lat="44.508730229953635" lon="9.994466511463404"><ele>836.5</ele><time>2026-04-06T12:42:26.002Z</time></trkpt><trkpt lat="44.50864260176477" lon="9.994366451631677"><ele>835.25</ele><time>2026-04-06T12:42:27.002Z</time></trkpt><trkpt lat="44.50857600245079" lon="9.994227975529988"><ele>834.0</ele><time>2026-04-06T12:42:28.002Z</time></trkpt><trkpt lat="44.508514779978064" lon="9.994087306986339"><ele>834.0</ele><time>2026-04-06T12:42:29.002Z</time></trkpt><trkpt lat="44.508462957376224" lon="9.99394810600882"><ele>834.0</ele><time>2026-04-06T12:42:30.002Z</time></trkpt><trkpt lat="44.50841564019063" lon="9.993802801479855"><ele>834.0</ele><time>2026-04-06T12:42:31.002Z</time></trkpt><trkpt lat="44.50837568000517" lon="9.993650809984423"><ele>834.0</ele><time>2026-04-06T12:42:32.002Z</time></trkpt><trkpt lat="44.50833361532335" lon="9.993492072627108"><ele>836.75</ele><time>2026-04-06T12:42:33.002Z</time></trkpt><trkpt lat="44.50828717907228" lon="9.993330095380912"><ele>839.5</ele><time>2026-04-06T12:42:34.002Z</time></trkpt><trkpt lat="44.50823882731147" lon="9.99316519848057"><ele>842.25</ele><time>2026-04-06T12:42:35.002Z</time></trkpt><trkpt lat="44.50818791864033" lon="9.99300324954732"><ele>845.0</ele><time>2026-04-06T12:42:36.002Z</time></trkpt><trkpt lat="44.50812529859595" lon="9.992846508582089"><ele>845.0</ele><time>2026-04-06T12:42:37.002Z</time></trkpt><trkpt lat="44.50804802511688" lon="9.992702750507462"><ele>845.0</ele><time>2026-04-06T12:42:38.002Z</time></trkpt><trkpt lat="44.50795782344727" lon="9.992578020399257"><ele>845.0</ele><time>2026-04-06T12:42:39.002Z</time></trkpt><trkpt lat="44.50785336548192" lon="9.99247204615369"><ele>845.0</ele><time>2026-04-06T12:42:40.002Z</time></trkpt><trkpt lat="44.507737713023495" lon="9.992372744361804"><ele>844.5</ele><time>2026-04-06T12:42:41.002Z</time></trkpt><trkpt lat="44.50762577657424" lon="9.992266468829515"><ele>844.0</ele><time>2026-04-06T12:42:42.002Z</time></trkpt><trkpt lat="44.50751595626408" lon="9.992159033775003"><ele>843.5</ele><time>2026-04-06T12:42:43.002Z</time></trkpt><trkpt lat="44.50741061477093" lon="9.99204674684511"><ele>843.0</ele><time>2026-04-06T12:42:44.002Z</time></trkpt><trkpt lat="44.507304019192865" lon="9.991934831249"><ele>843.0</ele><time>2026-04-06T12:42:45.002Z</time></trkpt><trkpt lat="44.50719975027275" lon="9.991814582605917"><ele>843.0</ele><time>2026-04-06T12:42:46.002Z</time></trkpt><trkpt lat="44.50709906159498" lon="9.991695159952428"><ele>843.0</ele><time>2026-04-06T12:42:47.002Z</time></trkpt><trkpt lat="44.50699505247389" lon="9.991563459121432"><ele>843.0</ele><time>2026-04-06T12:42:48.002Z</time></trkpt><trkpt lat="44.50689297388969" lon="9.991430981307909"><ele>843.0</ele><time>2026-04-06T12:42:49.002Z</time></trkpt><trkpt lat="44.50678835286558" lon="9.991304658589753"><ele>843.0</ele><time>2026-04-06T12:42:50.002Z</time></trkpt><trkpt lat="44.50668655607186" lon="9.991173499304843"><ele>843.0</ele><time>2026-04-06T12:42:51.002Z</time></trkpt><trkpt lat="44.5065862953287" lon="9.991043848652268"><ele>843.0</ele><time>2026-04-06T12:42:52.002Z</time></trkpt><trkpt lat="44.50649296437725" lon="9.990901617862468"><ele>842.5</ele><time>2026-04-06T12:42:53.002Z</time></trkpt><trkpt lat="44.50640565032451" lon="9.990739442193709"><ele>842.0</ele><time>2026-04-06T12:42:54.002Z</time></trkpt><trkpt lat="44.506331778346855" lon="9.990563064880904"><ele>841.5</ele><time>2026-04-06T12:42:55.002Z</time></trkpt><trkpt lat="44.506273413874155" lon="9.990395715134072"><ele>841.0</ele><time>2026-04-06T12:42:56.002Z</time></trkpt><trkpt lat="44.506221881247356" lon="9.99024320747276"><ele>842.25</ele><time>2026-04-06T12:42:57.002Z</time></trkpt><trkpt lat="44.506159845308076" lon="9.990111777904914"><ele>843.5</ele><time>2026-04-06T12:42:58.002Z</time></trkpt><trkpt lat="44.50607446169757" lon="9.989991590997295"><ele>844.75</ele><time>2026-04-06T12:42:59.002Z</time></trkpt><trkpt lat="44.50597216728676" lon="9.989884555697587"><ele>846.0</ele><time>2026-04-06T12:43:00.002Z</time></trkpt><trkpt lat="44.50585969504931" lon="9.989770581809024"><ele>846.0</ele><time>2026-04-06T12:43:01.002Z</time></trkpt><trkpt lat="44.505747580021236" lon="9.989645717736341"><ele>846.0</ele><time>2026-04-06T12:43:02.002Z</time></trkpt><trkpt lat="44.50563147191201" lon="9.98951300436683"><ele>846.0</ele><time>2026-04-06T12:43:03.002Z</time></trkpt><trkpt lat="44.505506880931556" lon="9.989385028229368"><ele>846.0</ele><time>2026-04-06T12:43:04.002Z</time></trkpt><trkpt lat="44.50538558419493" lon="9.989253848981607"><ele>846.75</ele><time>2026-04-06T12:43:05.002Z</time></trkpt><trkpt lat="44.50526643420305" lon="9.989129092505882"><ele>847.5</ele><time>2026-04-06T12:43:06.002Z</time></trkpt><trkpt lat="44.50514120102631" lon="9.989034242992311"><ele>848.25</ele><time>2026-04-06T12:43:07.002Z</time></trkpt><trkpt lat="44.50499807154942" lon="9.988978910717021"><ele>849.0</ele><time>2026-04-06T12:43:08.002Z</time></trkpt><trkpt lat="44.50483814770779" lon="9.988966121323456"><ele>849.0</ele><time>2026-04-06T12:43:09.002Z</time></trkpt><trkpt lat="44.504667076282026" lon="9.988944250154663"><ele>849.0</ele><time>2026-04-06T12:43:10.002Z</time></trkpt><trkpt lat="44.50450290901339" lon="9.988932807851304"><ele>849.0</ele><time>2026-04-06T12:43:11.002Z</time></trkpt><trkpt lat="44.504344478058414" lon="9.98891664239612"><ele>850.3333333333333</ele><time>2026-04-06T12:43:12.002Z</time></trkpt><trkpt lat="44.504199630303205" lon="9.988881418557817"><ele>851.6666666666666</ele><time>2026-04-06T12:43:13.002Z</time></trkpt><trkpt lat="44.50405702728741" lon="9.988814660350274"><ele>853.0</ele><time>2026-04-06T12:43:14.002Z</time></trkpt><trkpt lat="44.503916930354244" lon="9.988709282499535"><ele>853.0</ele><time>2026-04-06T12:43:15.002Z</time></trkpt><trkpt lat="44.50379100881014" lon="9.988601107692585"><ele>853.0</ele><time>2026-04-06T12:43:16.002Z</time></trkpt><trkpt lat="44.503670884919856" lon="9.988478190631167"><ele>853.0</ele><time>2026-04-06T12:43:17.002Z</time></trkpt><trkpt lat="44.50354208202185" lon="9.988347514248312"><ele>853.3333333333333</ele><time>2026-04-06T12:43:18.002Z</time></trkpt><trkpt lat="44.50343269428184" lon="9.988171963628226"><ele>853.6666666666667</ele><time>2026-04-06T12:43:19.002Z</time></trkpt><trkpt lat="44.50335022423234" lon="9.987986969763657"><ele>854.0</ele><time>2026-04-06T12:43:20.002Z</time></trkpt><trkpt lat="44.503271567155146" lon="9.987811380673174"><ele>854.0</ele><time>2026-04-06T12:43:21.002Z</time></trkpt><trkpt lat="44.50319793956939" lon="9.987647553514176"><ele>854.0</ele><time>2026-04-06T12:43:22.002Z</time></trkpt><trkpt lat="44.50312067323953" lon="9.987517717344897"><ele>854.0</ele><time>2026-04-06T12:43:23.002Z</time></trkpt><trkpt lat="44.503030782274216" lon="9.987426273065452"><ele>854.0</ele><time>2026-04-06T12:43:24.002Z</time></trkpt><trkpt lat="44.50294308416955" lon="9.98737078262505"><ele>853.75</ele><time>2026-04-06T12:43:25.002Z</time></trkpt><trkpt lat="44.50282841284616" lon="9.987414235884744"><ele>853.5</ele><time>2026-04-06T12:43:26.002Z</time></trkpt><trkpt lat="44.50269509360045" lon="9.987437437189556"><ele>853.25</ele><time>2026-04-06T12:43:27.002Z</time></trkpt><trkpt lat="44.50255056841071" lon="9.987472398681424"><ele>853.0</ele><time>2026-04-06T12:43:28.002Z</time></trkpt><trkpt lat="44.502425093623174" lon="9.987497953100036"><ele>853.0</ele><time>2026-04-06T12:43:29.002Z</time></trkpt><trkpt lat="44.50231339338018" lon="9.98750496188968"><ele>853.0</ele><time>2026-04-06T12:43:30.002Z</time></trkpt><trkpt lat="44.50221681505267" lon="9.987474173327847"><ele>853.0</ele><time>2026-04-06T12:43:31.002Z</time></trkpt><trkpt lat="44.50212369749595" lon="9.98742648047585"><ele>853.0</ele><time>2026-04-06T12:43:32.002Z</time></trkpt><trkpt lat="44.502070492697904" lon="9.987299532709471"><ele>853.0</ele><time>2026-04-06T12:43:33.002Z</time></trkpt><trkpt lat="44.5020604411575" lon="9.987148082231514"><ele>853.0</ele><time>2026-04-06T12:43:34.002Z</time></trkpt><trkpt lat="44.50209497240021" lon="9.98698773345405"><ele>853.0</ele><time>2026-04-06T12:43:35.002Z</time></trkpt><trkpt lat="44.50216219950214" lon="9.98682188149649"><ele>853.0</ele><time>2026-04-06T12:43:36.002Z</time></trkpt><trkpt lat="44.50222950763962" lon="9.986667011017387"><ele>853.0</ele><time>2026-04-06T12:43:37.002Z</time></trkpt><trkpt lat="44.50225966059091" lon="9.986523025538288"><ele>851.5</ele><time>2026-04-06T12:43:38.002Z</time></trkpt><trkpt lat="44.50225436544351" lon="9.986368089009392"><ele>850.0</ele><time>2026-04-06T12:43:39.002Z</time></trkpt><trkpt lat="44.50220686926274" lon="9.986207737106163"><ele>848.5</ele><time>2026-04-06T12:43:40.002Z</time></trkpt><trkpt lat="44.50212312829335" lon="9.986048073856276"><ele>847.0</ele><time>2026-04-06T12:43:41.002Z</time></trkpt><trkpt lat="44.50202740075693" lon="9.985885269763184"><ele>850.25</ele><time>2026-04-06T12:43:42.002Z</time></trkpt><trkpt lat="44.50192980700517" lon="9.985735072429224"><ele>853.5</ele><time>2026-04-06T12:43:43.002Z</time></trkpt><trkpt lat="44.50181705401804" lon="9.985607163066966"><ele>856.75</ele><time>2026-04-06T12:43:44.002Z</time></trkpt><trkpt lat="44.50170008298202" lon="9.985484297507902"><ele>860.0</ele><time>2026-04-06T12:43:45.002Z</time></trkpt><trkpt lat="44.50159370191503" lon="9.985375025316099"><ele>860.0</ele><time>2026-04-06T12:43:46.002Z</time></trkpt><trkpt lat="44.501511157748666" lon="9.985257694989448"><ele>860.0</ele><time>2026-04-06T12:43:47.002Z</time></trkpt><trkpt lat="44.5014506700668" lon="9.985130795935625"><ele>860.0</ele><time>2026-04-06T12:43:48.002Z</time></trkpt><trkpt lat="44.501432107078124" lon="9.984978584709463"><ele>860.0</ele><time>2026-04-06T12:43:49.002Z</time></trkpt><trkpt lat="44.501459912520346" lon="9.984821087131529"><ele>859.5</ele><time>2026-04-06T12:43:50.002Z</time></trkpt><trkpt lat="44.50155319709558" lon="9.984660910624799"><ele>859.0</ele><time>2026-04-06T12:43:51.002Z</time></trkpt><trkpt lat="44.501644029324" lon="9.984508168671328"><ele>858.5</ele><time>2026-04-06T12:43:52.002Z</time></trkpt><trkpt lat="44.501719919225636" lon="9.984352491263873"><ele>858.0</ele><time>2026-04-06T12:43:53.002Z</time></trkpt><trkpt lat="44.50177314718183" lon="9.984196399540533"><ele>859.75</ele><time>2026-04-06T12:43:54.002Z</time></trkpt><trkpt lat="44.501817649812786" lon="9.984036386595102"><ele>861.5</ele><time>2026-04-06T12:43:55.002Z</time></trkpt><trkpt lat="44.50185660664535" lon="9.98387505888086"><ele>863.25</ele><time>2026-04-06T12:43:56.002Z</time></trkpt><trkpt lat="44.50188725868344" lon="9.98371333975757"><ele>865.0</ele><time>2026-04-06T12:43:57.002Z</time></trkpt><trkpt lat="44.50190278070856" lon="9.98353953064915"><ele>865.0</ele><time>2026-04-06T12:43:58.001Z</time></trkpt><trkpt lat="44.501889768123036" lon="9.983342874156127"><ele>865.0</ele><time>2026-04-06T12:43:59.001Z</time></trkpt><trkpt lat="44.50184655960957" lon="9.983135667186675"><ele>865.0</ele><time>2026-04-06T12:44:00.001Z</time></trkpt><trkpt lat="44.50179911070649" lon="9.98291443296264"><ele>865.0</ele><time>2026-04-06T12:44:01.001Z</time></trkpt><trkpt lat="44.50176255350335" lon="9.982716623920256"><ele>865.0</ele><time>2026-04-06T12:44:02.001Z</time></trkpt><trkpt lat="44.50171050426277" lon="9.98255886860672"><ele>865.0</ele><time>2026-04-06T12:44:03.001Z</time></trkpt><trkpt lat="44.50162174896905" lon="9.982436316001593"><ele>865.0</ele><time>2026-04-06T12:44:04.001Z</time></trkpt><trkpt lat="44.50149508293988" lon="9.982348842053447"><ele>862.3333333333333</ele><time>2026-04-06T12:44:05.001Z</time></trkpt><trkpt lat="44.501323632839146" lon="9.982265548626112"><ele>859.6666666666667</ele><time>2026-04-06T12:44:06.001Z</time></trkpt><trkpt lat="44.50114899928779" lon="9.98217706927931"><ele>857.0</ele><time>2026-04-06T12:44:07.001Z</time></trkpt><trkpt lat="44.50099803781478" lon="9.982069683088959"><ele>857.6666666666667</ele><time>2026-04-06T12:44:08.001Z</time></trkpt><trkpt lat="44.50083706503084" lon="9.981950620253699"><ele>858.3333333333333</ele><time>2026-04-06T12:44:09.001Z</time></trkpt><trkpt lat="44.50070436642796" lon="9.981789798221005"><ele>859.0</ele><time>2026-04-06T12:44:10.001Z</time></trkpt><trkpt lat="44.500573763963324" lon="9.981622246278521"><ele>859.0</ele><time>2026-04-06T12:44:11.001Z</time></trkpt><trkpt lat="44.500486944040055" lon="9.981463388037133"><ele>859.0</ele><time>2026-04-06T12:44:12.001Z</time></trkpt><trkpt lat="44.50037460043507" lon="9.981291405238974"><ele>859.0</ele><time>2026-04-06T12:44:13.001Z</time></trkpt><trkpt lat="44.50026077475383" lon="9.981113508657897"><ele>861.5</ele><time>2026-04-06T12:44:14.001Z</time></trkpt><trkpt lat="44.50014336424648" lon="9.980965687024606"><ele>864.0</ele><time>2026-04-06T12:44:15.001Z</time></trkpt><trkpt lat="44.50007308452423" lon="9.980797148683925"><ele>866.5</ele><time>2026-04-06T12:44:16.001Z</time></trkpt><trkpt lat="44.50004525554201" lon="9.980617628178226"><ele>869.0</ele><time>2026-04-06T12:44:17.001Z</time></trkpt><trkpt lat="44.50004848056108" lon="9.980413419744428"><ele>869.0</ele><time>2026-04-06T12:44:18.001Z</time></trkpt><trkpt lat="44.500092373369945" lon="9.980197724329233"><ele>869.0</ele><time>2026-04-06T12:44:19.001Z</time></trkpt><trkpt lat="44.50009059818212" lon="9.97996655842474"><ele>869.0</ele><time>2026-04-06T12:44:20.001Z</time></trkpt><trkpt lat="44.50009594758733" lon="9.979764050536609"><ele>868.5</ele><time>2026-04-06T12:44:21.001Z</time></trkpt><trkpt lat="44.500081960419564" lon="9.97957615563181"><ele>868.0</ele><time>2026-04-06T12:44:22.001Z</time></trkpt><trkpt lat="44.50002890067857" lon="9.979400352372362"><ele>867.5</ele><time>2026-04-06T12:44:23.001Z</time></trkpt><trkpt lat="44.499952208932505" lon="9.979234109568122"><ele>867.0</ele><time>2026-04-06T12:44:24.001Z</time></trkpt><trkpt lat="44.49988291214894" lon="9.97903040026188"><ele>866.0</ele><time>2026-04-06T12:44:25.001Z</time></trkpt><trkpt lat="44.499815422177925" lon="9.978816887704278"><ele>865.0</ele><time>2026-04-06T12:44:26.001Z</time></trkpt><trkpt lat="44.4997631166739" lon="9.978619181890025"><ele>864.0</ele><time>2026-04-06T12:44:27.001Z</time></trkpt><trkpt lat="44.4997778749565" lon="9.97840779724467"><ele>863.6666666666667</ele><time>2026-04-06T12:44:28.001Z</time></trkpt><trkpt lat="44.49977558211369" lon="9.978181046143058"><ele>863.3333333333334</ele><time>2026-04-06T12:44:29.001Z</time></trkpt><trkpt lat="44.49980470019689" lon="9.977945874482891"><ele>863.0</ele><time>2026-04-06T12:44:30.001Z</time></trkpt><trkpt lat="44.49981551451008" lon="9.977727791782927"><ele>862.0</ele><time>2026-04-06T12:44:31.001Z</time></trkpt><trkpt lat="44.49980561278233" lon="9.977512980271024"><ele>861.0</ele><time>2026-04-06T12:44:32.001Z</time></trkpt><trkpt lat="44.499770547371305" lon="9.977291437273038"><ele>860.0</ele><time>2026-04-06T12:44:33.001Z</time></trkpt><trkpt lat="44.49970192120365" lon="9.977070887372511"><ele>860.0</ele><time>2026-04-06T12:44:34.001Z</time></trkpt><trkpt lat="44.49961577738387" lon="9.976840463817611"><ele>860.0</ele><time>2026-04-06T12:44:35.001Z</time></trkpt><trkpt lat="44.49953166477147" lon="9.976607823971234"><ele>860.0</ele><time>2026-04-06T12:44:36.001Z</time></trkpt><trkpt lat="44.499473080988444" lon="9.97637787219575"><ele>867.3333333333334</ele><time>2026-04-06T12:44:37.002Z</time></trkpt><trkpt lat="44.49941738059763" lon="9.97616321783131"><ele>874.6666666666667</ele><time>2026-04-06T12:44:38.002Z</time></trkpt><trkpt lat="44.49939601879396" lon="9.975951956284213"><ele>882.0</ele><time>2026-04-06T12:44:39.002Z</time></trkpt><trkpt lat="44.49937820772747" lon="9.975739300049415"><ele>882.0</ele><time>2026-04-06T12:44:40.002Z</time></trkpt><trkpt lat="44.49936315939287" lon="9.97555962894837"><ele>882.0</ele><time>2026-04-06T12:44:41.002Z</time></trkpt><trkpt lat="44.49932092226325" lon="9.975422307092618"><ele>882.0</ele><time>2026-04-06T12:44:42.002Z</time></trkpt><trkpt lat="44.49928092727954" lon="9.975331651799552"><ele>882.0</ele><time>2026-04-06T12:44:43.002Z</time></trkpt><trkpt lat="44.49919484780361" lon="9.975272134853254"><ele>882.0</ele><time>2026-04-06T12:44:44.002Z</time></trkpt><trkpt lat="44.49907425580477" lon="9.975263707920044"><ele>882.0</ele><time>2026-04-06T12:44:45.002Z</time></trkpt><trkpt lat="44.49892349637573" lon="9.975288091420891"><ele>882.0</ele><time>2026-04-06T12:44:46.002Z</time></trkpt><trkpt lat="44.49874680116659" lon="9.97527587770601"><ele>882.0</ele><time>2026-04-06T12:44:47.002Z</time></trkpt><trkpt lat="44.49857456019119" lon="9.975201032262058"><ele>878.3333333333333</ele><time>2026-04-06T12:44:48.002Z</time></trkpt><trkpt lat="44.49840573265953" lon="9.97511500461723"><ele>874.6666666666666</ele><time>2026-04-06T12:44:49.002Z</time></trkpt><trkpt lat="44.49822649054493" lon="9.975039908963472"><ele>871.0</ele><time>2026-04-06T12:44:50.002Z</time></trkpt><trkpt lat="44.49806171113948" lon="9.974941256156958"><ele>880.3333333333333</ele><time>2026-04-06T12:44:51.002Z</time></trkpt><trkpt lat="44.49791362135015" lon="9.974854572495635"><ele>889.6666666666667</ele><time>2026-04-06T12:44:52.002Z</time></trkpt><trkpt lat="44.49779915006583" lon="9.974714270858314"><ele>899.0</ele><time>2026-04-06T12:44:53.002Z</time></trkpt><trkpt lat="44.49768236705318" lon="9.974530614919825"><ele>899.0</ele><time>2026-04-06T12:44:54.002Z</time></trkpt><trkpt lat="44.49757414458629" lon="9.974353726482375"><ele>899.0</ele><time>2026-04-06T12:44:55.002Z</time></trkpt><trkpt lat="44.4974711251873" lon="9.97421028698229"><ele>899.0</ele><time>2026-04-06T12:44:56.002Z</time></trkpt><trkpt lat="44.49735381358513" lon="9.974116504974331"><ele>899.0</ele><time>2026-04-06T12:44:57.002Z</time></trkpt><trkpt lat="44.49723328755688" lon="9.974033445117376"><ele>894.6666666666667</ele><time>2026-04-06T12:44:58.002Z</time></trkpt><trkpt lat="44.497084103136196" lon="9.973998369864166"><ele>890.3333333333333</ele><time>2026-04-06T12:44:59.002Z</time></trkpt><trkpt lat="44.49690551710727" lon="9.973993111781821"><ele>886.0</ele><time>2026-04-06T12:45:00.002Z</time></trkpt><trkpt lat="44.49675320750886" lon="9.97390457472031"><ele>886.0</ele><time>2026-04-06T12:45:01.002Z</time></trkpt><trkpt lat="44.49657666113384" lon="9.973775819090479"><ele>886.0</ele><time>2026-04-06T12:45:02.002Z</time></trkpt><trkpt lat="44.496372224672136" lon="9.973694536734515"><ele>886.0</ele><time>2026-04-06T12:45:03.002Z</time></trkpt><trkpt lat="44.49615145588691" lon="9.973650560409935"><ele>890.6666666666666</ele><time>2026-04-06T12:45:04.002Z</time></trkpt><trkpt lat="44.495951559368564" lon="9.973608962689683"><ele>895.3333333333333</ele><time>2026-04-06T12:45:05.002Z</time></trkpt><trkpt lat="44.49575689125332" lon="9.973526683969403"><ele>900.0</ele><time>2026-04-06T12:45:06.002Z</time></trkpt><trkpt lat="44.495579362574404" lon="9.973485093727586"><ele>895.0</ele><time>2026-04-06T12:45:07.002Z</time></trkpt><trkpt lat="44.49541312847528" lon="9.973388980096876"><ele>890.0</ele><time>2026-04-06T12:45:08.002Z</time></trkpt><trkpt lat="44.49524479352163" lon="9.973280238985966"><ele>885.0</ele><time>2026-04-06T12:45:09.002Z</time></trkpt><trkpt lat="44.49506911876183" lon="9.973164119649123"><ele>885.0</ele><time>2026-04-06T12:45:10.002Z</time></trkpt><trkpt lat="44.494897675590316" lon="9.973050504292608"><ele>885.0</ele><time>2026-04-06T12:45:11.002Z</time></trkpt><trkpt lat="44.49473075494066" lon="9.972939755185799"><ele>885.0</ele><time>2026-04-06T12:45:12.002Z</time></trkpt><trkpt lat="44.49457117049574" lon="9.972833800693325"><ele>884.0</ele><time>2026-04-06T12:45:13.002Z</time></trkpt><trkpt lat="44.49441851793284" lon="9.972732448587669"><ele>883.0</ele><time>2026-04-06T12:45:14.002Z</time></trkpt><trkpt lat="44.494286862213436" lon="9.97264130122013"><ele>882.0</ele><time>2026-04-06T12:45:15.002Z</time></trkpt><trkpt lat="44.49417742154479" lon="9.972554322920876"><ele>881.0</ele><time>2026-04-06T12:45:16.002Z</time></trkpt><trkpt lat="44.49408790427956" lon="9.972451047158396"><ele>881.0</ele><time>2026-04-06T12:45:17.002Z</time></trkpt><trkpt lat="44.494042800334746" lon="9.972317345690389"><ele>880.9999999999999</ele><time>2026-04-06T12:45:18.002Z</time></trkpt><trkpt lat="44.494010774403804" lon="9.972167895264445"><ele>880.9999999999999</ele><time>2026-04-06T12:45:19.002Z</time></trkpt><trkpt lat="44.49398964732247" lon="9.972000576328066"><ele>881.0</ele><time>2026-04-06T12:45:20.002Z</time></trkpt><trkpt lat="44.49399668677879" lon="9.97185365644473"><ele>881.0</ele><time>2026-04-06T12:45:21.002Z</time></trkpt><trkpt lat="44.49403564804039" lon="9.97172212357315"><ele>879.0</ele><time>2026-04-06T12:45:22.002Z</time></trkpt><trkpt lat="44.49409598355122" lon="9.971603754865123"><ele>877.0</ele><time>2026-04-06T12:45:23.002Z</time></trkpt><trkpt lat="44.49415838393467" lon="9.971447533520207"><ele>875.0</ele><time>2026-04-06T12:45:24.002Z</time></trkpt><trkpt lat="44.49417974517172" lon="9.971263211417408"><ele>873.0</ele><time>2026-04-06T12:45:25.002Z</time></trkpt><trkpt lat="44.494151386836094" lon="9.971093851783388"><ele>873.0</ele><time>2026-04-06T12:45:26.002Z</time></trkpt><trkpt lat="44.494066411757025" lon="9.970956709562543"><ele>873.0</ele><time>2026-04-06T12:45:27.002Z</time></trkpt><trkpt lat="44.49395493021562" lon="9.970850914219252"><ele>873.0</ele><time>2026-04-06T12:45:28.002Z</time></trkpt><trkpt lat="44.493803728536236" lon="9.970753004867348"><ele>873.0</ele><time>2026-04-06T12:45:29.002Z</time></trkpt><trkpt lat="44.493669052221335" lon="9.970620687704942"><ele>879.3333333333333</ele><time>2026-04-06T12:45:30.002Z</time></trkpt><trkpt lat="44.493536425181" lon="9.970498459446544"><ele>885.6666666666666</ele><time>2026-04-06T12:45:31.002Z</time></trkpt><trkpt lat="44.49342403173527" lon="9.970351056202597"><ele>892.0</ele><time>2026-04-06T12:45:32.002Z</time></trkpt><trkpt lat="44.493360570105715" lon="9.970154098251669"><ele>884.3333333333333</ele><time>2026-04-06T12:45:33.002Z</time></trkpt><trkpt lat="44.49329865375553" lon="9.969948589552194"><ele>876.6666666666667</ele><time>2026-04-06T12:45:34.002Z</time></trkpt><trkpt lat="44.49323775960564" lon="9.969742104325904"><ele>869.0</ele><time>2026-04-06T12:45:35.002Z</time></trkpt><trkpt lat="44.493175408809186" lon="9.969530679664166"><ele>869.0</ele><time>2026-04-06T12:45:36.002Z</time></trkpt><trkpt lat="44.49311309404116" lon="9.969319376989873"><ele>869.0</ele><time>2026-04-06T12:45:37.002Z</time></trkpt><trkpt lat="44.493043797647935" lon="9.96912910062116"><ele>869.0</ele><time>2026-04-06T12:45:38.002Z</time></trkpt><trkpt lat="44.49299568036695" lon="9.968923100886345"><ele>869.3333333333334</ele><time>2026-04-06T12:45:39.002Z</time></trkpt><trkpt lat="44.49292149416373" lon="9.968732932965757"><ele>869.6666666666667</ele><time>2026-04-06T12:45:40.002Z</time></trkpt><trkpt lat="44.492865130163494" lon="9.96853228219155"><ele>870.0</ele><time>2026-04-06T12:45:41.002Z</time></trkpt><trkpt lat="44.49280352602492" lon="9.968321706885646"><ele>870.0</ele><time>2026-04-06T12:45:42.002Z</time></trkpt><trkpt lat="44.49274258633646" lon="9.968096368605272"><ele>870.0</ele><time>2026-04-06T12:45:43.002Z</time></trkpt><trkpt lat="44.49268591477235" lon="9.9678712469236"><ele>870.0</ele><time>2026-04-06T12:45:44.002Z</time></trkpt><trkpt lat="44.492640871523214" lon="9.967650453775935"><ele>869.3333333333333</ele><time>2026-04-06T12:45:45.002Z</time></trkpt><trkpt lat="44.4926209605856" lon="9.96742886035751"><ele>868.6666666666666</ele><time>2026-04-06T12:45:46.002Z</time></trkpt><trkpt lat="44.49261982826561" lon="9.967207186345876"><ele>868.0</ele><time>2026-04-06T12:45:47.002Z</time></trkpt><trkpt lat="44.49261519439032" lon="9.967004456888128"><ele>868.0</ele><time>2026-04-06T12:45:48.001Z</time></trkpt><trkpt lat="44.49259470233862" lon="9.966826828398906"><ele>868.0</ele><time>2026-04-06T12:45:49.001Z</time></trkpt><trkpt lat="44.492583487320026" lon="9.966664586219864"><ele>868.0</ele><time>2026-04-06T12:45:50.001Z</time></trkpt><trkpt lat="44.49239699056395" lon="9.966585060564901"><ele>868.0</ele><time>2026-04-06T12:45:51.001Z</time></trkpt><trkpt lat="44.49226940359746" lon="9.966517122966875"><ele>867.25</ele><time>2026-04-06T12:45:52.001Z</time></trkpt><trkpt lat="44.49213368795637" lon="9.966462578192697"><ele>866.5</ele><time>2026-04-06T12:45:53.001Z</time></trkpt><trkpt lat="44.49199374327733" lon="9.966393630134949"><ele>865.75</ele><time>2026-04-06T12:45:54.001Z</time></trkpt><trkpt lat="44.4918591791751" lon="9.966281490501698"><ele>865.0</ele><time>2026-04-06T12:45:55.001Z</time></trkpt><trkpt lat="44.49171211253959" lon="9.966201277345395"><ele>867.3333333333333</ele><time>2026-04-06T12:45:56.001Z</time></trkpt><trkpt lat="44.49155772210481" lon="9.96611693294985"><ele>869.6666666666667</ele><time>2026-04-06T12:45:57.001Z</time></trkpt><trkpt lat="44.491405181954434" lon="9.966033600355903"><ele>872.0</ele><time>2026-04-06T12:45:58.001Z</time></trkpt><trkpt lat="44.4912504288122" lon="9.965956440703437"><ele>871.0</ele><time>2026-04-06T12:45:59.001Z</time></trkpt><trkpt lat="44.49108156123953" lon="9.965892827397695"><ele>870.0</ele><time>2026-04-06T12:46:00.001Z</time></trkpt><trkpt lat="44.49091728251821" lon="9.965853744492307"><ele>869.0</ele><time>2026-04-06T12:46:01.001Z</time></trkpt><trkpt lat="44.49074796635882" lon="9.96585028151831"><ele>869.0</ele><time>2026-04-06T12:46:02.001Z</time></trkpt><trkpt lat="44.49057350242497" lon="9.965858626105076"><ele>869.0</ele><time>2026-04-06T12:46:03.001Z</time></trkpt><trkpt lat="44.49041025778393" lon="9.965874523493238"><ele>869.0</ele><time>2026-04-06T12:46:04.001Z</time></trkpt><trkpt lat="44.4902628213645" lon="9.965902700357363"><ele>871.0</ele><time>2026-04-06T12:46:05.001Z</time></trkpt><trkpt lat="44.49012620781841" lon="9.965965254416995"><ele>873.0</ele><time>2026-04-06T12:46:06.001Z</time></trkpt><trkpt lat="44.49001234481125" lon="9.96609993335233"><ele>875.0</ele><time>2026-04-06T12:46:07.001Z</time></trkpt><trkpt lat="44.48989833786214" lon="9.96623453873056"><ele>877.0</ele><time>2026-04-06T12:46:08.001Z</time></trkpt><trkpt lat="44.48976878625274" lon="9.966364012295548"><ele>877.0</ele><time>2026-04-06T12:46:09.001Z</time></trkpt><trkpt lat="44.489650601304625" lon="9.966507016125826"><ele>877.0</ele><time>2026-04-06T12:46:10.001Z</time></trkpt><trkpt lat="44.48954183985852" lon="9.966635651377427"><ele>877.0</ele><time>2026-04-06T12:46:11.001Z</time></trkpt><trkpt lat="44.48944731416366" lon="9.96672943523353"><ele>877.0</ele><time>2026-04-06T12:46:12.001Z</time></trkpt><trkpt lat="44.48935542747927" lon="9.966772247462787"><ele>877.0</ele><time>2026-04-06T12:46:13.001Z</time></trkpt><trkpt lat="44.48926385149801" lon="9.966771958521404"><ele>877.0</ele><time>2026-04-06T12:46:14.001Z</time></trkpt><trkpt lat="44.48918285286336" lon="9.966699607571009"><ele>877.0</ele><time>2026-04-06T12:46:15.001Z</time></trkpt><trkpt lat="44.489100467710855" lon="9.966583913823568"><ele>877.0</ele><time>2026-04-06T12:46:16.001Z</time></trkpt><trkpt lat="44.48900039997493" lon="9.966425158111754"><ele>877.0</ele><time>2026-04-06T12:46:17.001Z</time></trkpt><trkpt lat="44.48889998501216" lon="9.966277703058898"><ele>877.0</ele><time>2026-04-06T12:46:18.001Z</time></trkpt><trkpt lat="44.48881076965576" lon="9.966155900638395"><ele>877.0</ele><time>2026-04-06T12:46:19.001Z</time></trkpt><trkpt lat="44.488709841569325" lon="9.966050514865872"><ele>877.0</ele><time>2026-04-06T12:46:20.001Z</time></trkpt><trkpt lat="44.48856600635987" lon="9.966011451667887"><ele>877.0</ele><time>2026-04-06T12:46:21.001Z</time></trkpt><trkpt lat="44.48843248835352" lon="9.96605695482543"><ele>877.0</ele><time>2026-04-06T12:46:22.001Z</time></trkpt><trkpt lat="44.488299007251044" lon="9.966118905264269"><ele>877.0</ele><time>2026-04-06T12:46:23.001Z</time></trkpt><trkpt lat="44.488165506069706" lon="9.966197275216091"><ele>877.0</ele><time>2026-04-06T12:46:24.001Z</time></trkpt><trkpt lat="44.48805586324808" lon="9.966231994039452"><ele>877.0</ele><time>2026-04-06T12:46:25.001Z</time></trkpt><trkpt lat="44.48795319105658" lon="9.966211514131077"><ele>877.0</ele><time>2026-04-06T12:46:26.001Z</time></trkpt><trkpt lat="44.487856996598865" lon="9.966153752026253"><ele>877.0</ele><time>2026-04-06T12:46:27.001Z</time></trkpt><trkpt lat="44.487789801648276" lon="9.966014276921323"><ele>877.0</ele><time>2026-04-06T12:46:28.001Z</time></trkpt><trkpt lat="44.487709541384106" lon="9.965851479393843"><ele>874.6666666666666</ele><time>2026-04-06T12:46:29.001Z</time></trkpt><trkpt lat="44.487611664375656" lon="9.965667741934855"><ele>872.3333333333333</ele><time>2026-04-06T12:46:30.001Z</time></trkpt><trkpt lat="44.48751706920643" lon="9.965485023883422"><ele>870.0</ele><time>2026-04-06T12:46:31.001Z</time></trkpt><trkpt lat="44.48742665265372" lon="9.965310041618784"><ele>870.0</ele><time>2026-04-06T12:46:32.001Z</time></trkpt><trkpt lat="44.48734379767665" lon="9.965130617513655"><ele>870.0</ele><time>2026-04-06T12:46:33.001Z</time></trkpt><trkpt lat="44.48727997966826" lon="9.96497789251228"><ele>870.0</ele><time>2026-04-06T12:46:34.001Z</time></trkpt><trkpt lat="44.48718651484721" lon="9.964842807748239"><ele>870.0</ele><time>2026-04-06T12:46:35.001Z</time></trkpt><trkpt lat="44.48707065016572" lon="9.964731460227373"><ele>872.0</ele><time>2026-04-06T12:46:36.001Z</time></trkpt><trkpt lat="44.4869370533667" lon="9.964653173539613"><ele>874.0</ele><time>2026-04-06T12:46:37.001Z</time></trkpt><trkpt lat="44.48679829064492" lon="9.96463426669804"><ele>876.0</ele><time>2026-04-06T12:46:38.001Z</time></trkpt><trkpt lat="44.48663990042922" lon="9.964638647619458"><ele>878.0</ele><time>2026-04-06T12:46:39.001Z</time></trkpt><trkpt lat="44.486472249822285" lon="9.964726977820755"><ele>878.0</ele><time>2026-04-06T12:46:40.001Z</time></trkpt><trkpt lat="44.486325204159556" lon="9.964800991360397"><ele>878.0</ele><time>2026-04-06T12:46:41.001Z</time></trkpt><trkpt lat="44.486199027754076" lon="9.964831821954816"><ele>878.0</ele><time>2026-04-06T12:46:42.001Z</time></trkpt><trkpt lat="44.48609437822245" lon="9.964878764854515"><ele>878.0</ele><time>2026-04-06T12:46:43.001Z</time></trkpt><trkpt lat="44.48599688201121" lon="9.96493353475567"><ele>880.5999999999999</ele><time>2026-04-06T12:46:44.001Z</time></trkpt><trkpt lat="44.48590490484356" lon="9.964915746593013"><ele>883.1999999999999</ele><time>2026-04-06T12:46:45.001Z</time></trkpt><trkpt lat="44.485819153081536" lon="9.964911187647314"><ele>885.8</ele><time>2026-04-06T12:46:46.001Z</time></trkpt><trkpt lat="44.48574906586299" lon="9.964822285506429"><ele>888.4</ele><time>2026-04-06T12:46:47.001Z</time></trkpt><trkpt lat="44.48567909239583" lon="9.964723857900289"><ele>891.0</ele><time>2026-04-06T12:46:48.001Z</time></trkpt><trkpt lat="44.48564722604466" lon="9.964572647896922"><ele>891.0</ele><time>2026-04-06T12:46:49.001Z</time></trkpt><trkpt lat="44.48562495493757" lon="9.964414896911608"><ele>891.0</ele><time>2026-04-06T12:46:50.001Z</time></trkpt><trkpt lat="44.48562380598368" lon="9.964247223863438"><ele>891.0</ele><time>2026-04-06T12:46:51.001Z</time></trkpt><trkpt lat="44.48564283041638" lon="9.964072650603633"><ele>891.0</ele><time>2026-04-06T12:46:52.001Z</time></trkpt><trkpt lat="44.485686140698185" lon="9.963905130269126"><ele>891.0</ele><time>2026-04-06T12:46:53.001Z</time></trkpt><trkpt lat="44.48574238866274" lon="9.963744513245764"><ele>891.0</ele><time>2026-04-06T12:46:54.001Z</time></trkpt><trkpt lat="44.485822033804205" lon="9.96358551058484"><ele>891.0</ele><time>2026-04-06T12:46:55.001Z</time></trkpt><trkpt lat="44.485917415785444" lon="9.963415930608841"><ele>891.0</ele><time>2026-04-06T12:46:56.001Z</time></trkpt><trkpt lat="44.48599971504589" lon="9.963238958345087"><ele>891.0</ele><time>2026-04-06T12:46:57.001Z</time></trkpt><trkpt lat="44.48605640454476" lon="9.963064034022407"><ele>891.0</ele><time>2026-04-06T12:46:58.001Z</time></trkpt><trkpt lat="44.486092607112205" lon="9.962876310678617"><ele>891.0</ele><time>2026-04-06T12:46:59.001Z</time></trkpt><trkpt lat="44.48608788554955" lon="9.962673568257575"><ele>891.0</ele><time>2026-04-06T12:47:00.001Z</time></trkpt><trkpt lat="44.48605244856226" lon="9.962453199367907"><ele>891.3333333333333</ele><time>2026-04-06T12:47:01.001Z</time></trkpt><trkpt lat="44.48599598004071" lon="9.962209781916794"><ele>891.6666666666666</ele><time>2026-04-06T12:47:02.001Z</time></trkpt><trkpt lat="44.485949962378406" lon="9.961947699565513"><ele>892.0</ele><time>2026-04-06T12:47:03.001Z</time></trkpt><trkpt lat="44.48590408604293" lon="9.961655961051598"><ele>892.0</ele><time>2026-04-06T12:47:04.001Z</time></trkpt><trkpt lat="44.48585891452187" lon="9.961381520706686"><ele>892.0</ele><time>2026-04-06T12:47:05.001Z</time></trkpt><trkpt lat="44.48581406747196" lon="9.961113360252245"><ele>892.0</ele><time>2026-04-06T12:47:06.001Z</time></trkpt><trkpt lat="44.48576897241608" lon="9.960850974988036"><ele>892.3333333333333</ele><time>2026-04-06T12:47:07.001Z</time></trkpt><trkpt lat="44.485721986849676" lon="9.960578862200284"><ele>892.6666666666667</ele><time>2026-04-06T12:47:08.001Z</time></trkpt><trkpt lat="44.48568712498303" lon="9.960309435521495"><ele>893.0</ele><time>2026-04-06T12:47:09.001Z</time></trkpt><trkpt lat="44.485656512115355" lon="9.960031643869351"><ele>892.3333333333334</ele><time>2026-04-06T12:47:10.001Z</time></trkpt><trkpt lat="44.48564767382086" lon="9.959769300084778"><ele>891.6666666666667</ele><time>2026-04-06T12:47:11.001Z</time></trkpt><trkpt lat="44.48565143554899" lon="9.959535782571235"><ele>891.0</ele><time>2026-04-06T12:47:12.001Z</time></trkpt><trkpt lat="44.48565417008545" lon="9.959327691935862"><ele>891.5</ele><time>2026-04-06T12:47:13.001Z</time></trkpt><trkpt lat="44.4856378032374" lon="9.959165207103057"><ele>892.0</ele><time>2026-04-06T12:47:14.001Z</time></trkpt><trkpt lat="44.48558712675109" lon="9.95903348979129"><ele>892.5</ele><time>2026-04-06T12:47:15.001Z</time></trkpt><trkpt lat="44.48549301446782" lon="9.95893664905095"><ele>893.0</ele><time>2026-04-06T12:47:16.001Z</time></trkpt><trkpt lat="44.48537853723106" lon="9.958857995435737"><ele>899.3333333333334</ele><time>2026-04-06T12:47:17.001Z</time></trkpt><trkpt lat="44.48523643058876" lon="9.95881754852383"><ele>905.6666666666667</ele><time>2026-04-06T12:47:18.001Z</time></trkpt><trkpt lat="44.485075489549445" lon="9.958768576325735"><ele>912.0</ele><time>2026-04-06T12:47:19.002Z</time></trkpt><trkpt lat="44.48489989379819" lon="9.958739437590996"><ele>912.0</ele><time>2026-04-06T12:47:20.002Z</time></trkpt><trkpt lat="44.48473833580677" lon="9.958706624539987"><ele>912.0</ele><time>2026-04-06T12:47:21.002Z</time></trkpt><trkpt lat="44.484610083071395" lon="9.958664116484215"><ele>912.0</ele><time>2026-04-06T12:47:22.002Z</time></trkpt><trkpt lat="44.48450073301872" lon="9.95859984693202"><ele>912.0</ele><time>2026-04-06T12:47:23.002Z</time></trkpt><trkpt lat="44.484410133984426" lon="9.95851967612587"><ele>915.25</ele><time>2026-04-06T12:47:24.002Z</time></trkpt><trkpt lat="44.48437652556807" lon="9.958369724089444"><ele>918.5</ele><time>2026-04-06T12:47:25.002Z</time></trkpt><trkpt lat="44.48441035773181" lon="9.958188541620226"><ele>921.75</ele><time>2026-04-06T12:47:26.002Z</time></trkpt><trkpt lat="44.48443249544568" lon="9.957976178274572"><ele>925.0</ele><time>2026-04-06T12:47:27.002Z</time></trkpt><trkpt lat="44.48446036641141" lon="9.95775283849937"><ele>924.6666666666666</ele><time>2026-04-06T12:47:28.002Z</time></trkpt><trkpt lat="44.48448009687632" lon="9.957506099719717"><ele>924.3333333333333</ele><time>2026-04-06T12:47:29.002Z</time></trkpt><trkpt lat="44.48449967719553" lon="9.957242513342049"><ele>924.0</ele><time>2026-04-06T12:47:30.002Z</time></trkpt><trkpt lat="44.48451999130556" lon="9.956959921005106"><ele>925.0</ele><time>2026-04-06T12:47:31.002Z</time></trkpt><trkpt lat="44.48454926075386" lon="9.956681687143327"><ele>926.0</ele><time>2026-04-06T12:47:32.002Z</time></trkpt><trkpt lat="44.48457354673678" lon="9.956416644306662"><ele>927.0</ele><time>2026-04-06T12:47:33.002Z</time></trkpt><trkpt lat="44.484601412875776" lon="9.956147384190835"><ele>922.6666666666667</ele><time>2026-04-06T12:47:34.002Z</time></trkpt><trkpt lat="44.48465460948249" lon="9.955867552406412"><ele>918.3333333333334</ele><time>2026-04-06T12:47:35.002Z</time></trkpt><trkpt lat="44.48472839369174" lon="9.955612542475587"><ele>914.0</ele><time>2026-04-06T12:47:36.002Z</time></trkpt><trkpt lat="44.48479940279175" lon="9.955376386517615"><ele>914.0</ele><time>2026-04-06T12:47:37.002Z</time></trkpt><trkpt lat="44.48485800938756" lon="9.95512805891318"><ele>914.0</ele><time>2026-04-06T12:47:38.002Z</time></trkpt><trkpt lat="44.484906104826905" lon="9.954876899308422"><ele>914.0</ele><time>2026-04-06T12:47:39.002Z</time></trkpt><trkpt lat="44.48495971985903" lon="9.95462839127856"><ele>918.6666666666667</ele><time>2026-04-06T12:47:40.001Z</time></trkpt><trkpt lat="44.48501179179839" lon="9.954381157531659"><ele>923.3333333333333</ele><time>2026-04-06T12:47:41.001Z</time></trkpt><trkpt lat="44.485049500199416" lon="9.954130123284632"><ele>928.0</ele><time>2026-04-06T12:47:42.001Z</time></trkpt><trkpt lat="44.48506334322551" lon="9.953878769853919"><ele>930.3333333333333</ele><time>2026-04-06T12:47:43.001Z</time></trkpt><trkpt lat="44.4850553538349" lon="9.953630850470718"><ele>932.6666666666667</ele><time>2026-04-06T12:47:44.001Z</time></trkpt><trkpt lat="44.4850231267548" lon="9.953393824107563"><ele>935.0</ele><time>2026-04-06T12:47:45.001Z</time></trkpt><trkpt lat="44.48496797890823" lon="9.953150348558058"><ele>935.3333333333334</ele><time>2026-04-06T12:47:46.001Z</time></trkpt><trkpt lat="44.48488603694358" lon="9.952900552627687"><ele>935.6666666666667</ele><time>2026-04-06T12:47:47.001Z</time></trkpt><trkpt lat="44.4847935626601" lon="9.952665284788122"><ele>936.0</ele><time>2026-04-06T12:47:48.001Z</time></trkpt><trkpt lat="44.484695755232664" lon="9.952440484607614"><ele>945.3333333333333</ele><time>2026-04-06T12:47:49.001Z</time></trkpt><trkpt lat="44.484576473155364" lon="9.95223073490809"><ele>954.6666666666666</ele><time>2026-04-06T12:47:50.001Z</time></trkpt><trkpt lat="44.484455731995915" lon="9.9520245621137"><ele>964.0</ele><time>2026-04-06T12:47:51.001Z</time></trkpt><trkpt lat="44.48435826041323" lon="9.951815285309413"><ele>961.6666666666666</ele><time>2026-04-06T12:47:52.001Z</time></trkpt><trkpt lat="44.484291920554234" lon="9.951574673337063"><ele>959.3333333333333</ele><time>2026-04-06T12:47:53.001Z</time></trkpt><trkpt lat="44.484230068941976" lon="9.951314570803701"><ele>957.0</ele><time>2026-04-06T12:47:54.001Z</time></trkpt><trkpt lat="44.484169744307614" lon="9.951059550603587"><ele>954.6666666666667</ele><time>2026-04-06T12:47:55.001Z</time></trkpt><trkpt lat="44.484121504833894" lon="9.95083911589936"><ele>952.3333333333334</ele><time>2026-04-06T12:47:56.001Z</time></trkpt><trkpt lat="44.484066979979694" lon="9.9506349803135"><ele>950.0</ele><time>2026-04-06T12:47:57.001Z</time></trkpt><trkpt lat="44.48398752800158" lon="9.950445551793631"><ele>950.0</ele><time>2026-04-06T12:47:58.001Z</time></trkpt><trkpt lat="44.48390093050496" lon="9.950277365259726"><ele>950.0</ele><time>2026-04-06T12:47:59.001Z</time></trkpt><trkpt lat="44.48378665191812" lon="9.950145125757599"><ele>950.0</ele><time>2026-04-06T12:48:00.001Z</time></trkpt><trkpt lat="44.48366880325734" lon="9.950041094797639"><ele>950.0</ele><time>2026-04-06T12:48:01.001Z</time></trkpt><trkpt lat="44.48352547120925" lon="9.949959606342267"><ele>951.6666666666667</ele><time>2026-04-06T12:48:02.001Z</time></trkpt><trkpt lat="44.4833600843542" lon="9.949937459374624"><ele>953.3333333333333</ele><time>2026-04-06T12:48:03.001Z</time></trkpt><trkpt lat="44.483184852581374" lon="9.949919912438324"><ele>955.0</ele><time>2026-04-06T12:48:04.001Z</time></trkpt><trkpt lat="44.48303125736674" lon="9.949943287721497"><ele>959.25</ele><time>2026-04-06T12:48:05.001Z</time></trkpt><trkpt lat="44.48289833766628" lon="9.949950481820055"><ele>963.5</ele><time>2026-04-06T12:48:06.001Z</time></trkpt><trkpt lat="44.48277978609968" lon="9.949894367739349"><ele>967.75</ele><time>2026-04-06T12:48:07.001Z</time></trkpt><trkpt lat="44.4826527890801" lon="9.949779517787512"><ele>972.0</ele><time>2026-04-06T12:48:08.001Z</time></trkpt><trkpt lat="44.482507417816564" lon="9.949671447751012"><ele>972.0</ele><time>2026-04-06T12:48:09.001Z</time></trkpt><trkpt lat="44.48237289052927" lon="9.949539850851174"><ele>972.0</ele><time>2026-04-06T12:48:10.001Z</time></trkpt><trkpt lat="44.48221726608543" lon="9.949371677322008"><ele>972.0</ele><time>2026-04-06T12:48:11.001Z</time></trkpt><trkpt lat="44.48206848974675" lon="9.949231207426882"><ele>972.5</ele><time>2026-04-06T12:48:12.001Z</time></trkpt><trkpt lat="44.48195145915395" lon="9.949096915981286"><ele>973.0</ele><time>2026-04-06T12:48:13.001Z</time></trkpt><trkpt lat="44.48188094218266" lon="9.948950713924281"><ele>973.5</ele><time>2026-04-06T12:48:14.001Z</time></trkpt><trkpt lat="44.481830293648585" lon="9.948782499750374"><ele>974.0</ele><time>2026-04-06T12:48:15.001Z</time></trkpt><trkpt lat="44.48178860335293" lon="9.948610384991856"><ele>974.0</ele><time>2026-04-06T12:48:16.001Z</time></trkpt><trkpt lat="44.481735434569444" lon="9.948474946092757"><ele>974.0000000000001</ele><time>2026-04-06T12:48:17.001Z</time></trkpt><trkpt lat="44.48168131462808" lon="9.948394689174338"><ele>974.0000000000001</ele><time>2026-04-06T12:48:18.001Z</time></trkpt><trkpt lat="44.481595438305966" lon="9.948373474825289"><ele>974.0</ele><time>2026-04-06T12:48:19.001Z</time></trkpt><trkpt lat="44.48149922434839" lon="9.948397564495393"><ele>974.0</ele><time>2026-04-06T12:48:20.001Z</time></trkpt><trkpt lat="44.48138343798748" lon="9.94850160419889"><ele>972.6666666666667</ele><time>2026-04-06T12:48:21.001Z</time></trkpt><trkpt lat="44.481264526019025" lon="9.948660081169658"><ele>971.3333333333333</ele><time>2026-04-06T12:48:22.001Z</time></trkpt><trkpt lat="44.4811435738564" lon="9.948864317835511"><ele>970.0</ele><time>2026-04-06T12:48:23.001Z</time></trkpt><trkpt lat="44.480998959773636" lon="9.949071730211692"><ele>975.0</ele><time>2026-04-06T12:48:24.001Z</time></trkpt><trkpt lat="44.480863790572556" lon="9.94926701245665"><ele>980.0</ele><time>2026-04-06T12:48:25.001Z</time></trkpt><trkpt lat="44.48074512282045" lon="9.949437572729535"><ele>985.0</ele><time>2026-04-06T12:48:26.001Z</time></trkpt><trkpt lat="44.48063479666745" lon="9.949585843221067"><ele>985.0</ele><time>2026-04-06T12:48:27.001Z</time></trkpt><trkpt lat="44.48053848578351" lon="9.94971682196223"><ele>985.0</ele><time>2026-04-06T12:48:28.001Z</time></trkpt><trkpt lat="44.48042966948923" lon="9.949800797683658"><ele>985.0</ele><time>2026-04-06T12:48:29.001Z</time></trkpt><trkpt lat="44.48027547191122" lon="9.949768275187676"><ele>985.0</ele><time>2026-04-06T12:48:30.001Z</time></trkpt><trkpt lat="44.48011336737359" lon="9.949792761490437"><ele>984.6666666666666</ele><time>2026-04-06T12:48:31.001Z</time></trkpt><trkpt lat="44.47994864556326" lon="9.94981764313186"><ele>984.3333333333333</ele><time>2026-04-06T12:48:32.001Z</time></trkpt><trkpt lat="44.479787830119015" lon="9.949841934711651"><ele>984.0</ele><time>2026-04-06T12:48:33.001Z</time></trkpt><trkpt lat="44.47962700919376" lon="9.949866992875263"><ele>984.0</ele><time>2026-04-06T12:48:34.001Z</time></trkpt><trkpt lat="44.47946621395275" lon="9.949913090854904"><ele>984.0</ele><time>2026-04-06T12:48:35.001Z</time></trkpt><trkpt lat="44.47930727528129" lon="9.949934922033716"><ele>984.0</ele><time>2026-04-06T12:48:36.001Z</time></trkpt><trkpt lat="44.47915970113163" lon="9.949955521703151"><ele>984.0</ele><time>2026-04-06T12:48:37.001Z</time></trkpt><trkpt lat="44.47901457481868" lon="9.949984365098791"><ele>984.0</ele><time>2026-04-06T12:48:38.001Z</time></trkpt><trkpt lat="44.47885905114168" lon="9.950005025221767"><ele>984.0</ele><time>2026-04-06T12:48:39.001Z</time></trkpt><trkpt lat="44.47870389610627" lon="9.950027375649292"><ele>988.75</ele><time>2026-04-06T12:48:40.001Z</time></trkpt><trkpt lat="44.47855069444959" lon="9.950052080115904"><ele>993.5</ele><time>2026-04-06T12:48:41.001Z</time></trkpt><trkpt lat="44.47840735188849" lon="9.950075260456382"><ele>998.25</ele><time>2026-04-06T12:48:42.001Z</time></trkpt><trkpt lat="44.478277715725355" lon="9.950089849797314"><ele>1003.0</ele><time>2026-04-06T12:48:43.001Z</time></trkpt><trkpt lat="44.47814821559919" lon="9.950064519106032"><ele>1002.25</ele><time>2026-04-06T12:48:44.001Z</time></trkpt><trkpt lat="44.478020166087255" lon="9.949985365518362"><ele>1001.5</ele><time>2026-04-06T12:48:45.001Z</time></trkpt><trkpt lat="44.477896835390816" lon="9.949890486245817"><ele>1000.75</ele><time>2026-04-06T12:48:46.001Z</time></trkpt><trkpt lat="44.47779648166157" lon="9.94977817889102"><ele>1000.0</ele><time>2026-04-06T12:48:47.001Z</time></trkpt><trkpt lat="44.477722003906194" lon="9.949634996686202"><ele>1000.0</ele><time>2026-04-06T12:48:48.001Z</time></trkpt><trkpt lat="44.477710748619174" lon="9.949461681390806"><ele>1000.0</ele><time>2026-04-06T12:48:49.001Z</time></trkpt><trkpt lat="44.47773080016396" lon="9.949272987556425"><ele>1000.0</ele><time>2026-04-06T12:48:50.001Z</time></trkpt><trkpt lat="44.47772373469385" lon="9.94907315301955"><ele>1000.0</ele><time>2026-04-06T12:48:51.001Z</time></trkpt><trkpt lat="44.4777211317939" lon="9.94887043729122"><ele>998.75</ele><time>2026-04-06T12:48:52.001Z</time></trkpt><trkpt lat="44.47767926478031" lon="9.948674939636678"><ele>997.5</ele><time>2026-04-06T12:48:53.001Z</time></trkpt><trkpt lat="44.477615770119684" lon="9.948487291299411"><ele>996.25</ele><time>2026-04-06T12:48:54.001Z</time></trkpt><trkpt lat="44.47753744362809" lon="9.948340231512006"><ele>995.0</ele><time>2026-04-06T12:48:55.001Z</time></trkpt><trkpt lat="44.47743013026056" lon="9.948227432085408"><ele>992.3333333333334</ele><time>2026-04-06T12:48:56.001Z</time></trkpt><trkpt lat="44.47730727042232" lon="9.948145093570393"><ele>989.6666666666667</ele><time>2026-04-06T12:48:57.001Z</time></trkpt><trkpt lat="44.477147415691185" lon="9.9480974354374"><ele>987.0</ele><time>2026-04-06T12:48:58.001Z</time></trkpt><trkpt lat="44.4770113525024" lon="9.947991437573386"><ele>989.0</ele><time>2026-04-06T12:48:59.001Z</time></trkpt><trkpt lat="44.476877002727534" lon="9.947856208967051"><ele>991.0</ele><time>2026-04-06T12:49:00.001Z</time></trkpt><trkpt lat="44.47676368162227" lon="9.947680261079666"><ele>993.0</ele><time>2026-04-06T12:49:01.001Z</time></trkpt><trkpt lat="44.47667549357712" lon="9.947466373055143"><ele>993.0</ele><time>2026-04-06T12:49:02.001Z</time></trkpt><trkpt lat="44.47659409922528" lon="9.9472773320515"><ele>993.0</ele><time>2026-04-06T12:49:03.001Z</time></trkpt><trkpt lat="44.47650325461819" lon="9.947127003046322"><ele>993.0</ele><time>2026-04-06T12:49:04.001Z</time></trkpt><trkpt lat="44.47638814803674" lon="9.947000878382365"><ele>993.0</ele><time>2026-04-06T12:49:05.001Z</time></trkpt><trkpt lat="44.47624851314042" lon="9.946908545347242"><ele>993.0</ele><time>2026-04-06T12:49:06.001Z</time></trkpt><trkpt lat="44.47609595471617" lon="9.946832141509327"><ele>993.0</ele><time>2026-04-06T12:49:07.001Z</time></trkpt><trkpt lat="44.4759422910243" lon="9.94672769194528"><ele>993.0</ele><time>2026-04-06T12:49:08.001Z</time></trkpt><trkpt lat="44.47577245522576" lon="9.946628789044636"><ele>993.0</ele><time>2026-04-06T12:49:09.001Z</time></trkpt><trkpt lat="44.4756039591212" lon="9.946540503645227"><ele>993.0</ele><time>2026-04-06T12:49:10.001Z</time></trkpt><trkpt lat="44.47541600145316" lon="9.946504089467206"><ele>993.0</ele><time>2026-04-06T12:49:11.001Z</time></trkpt><trkpt lat="44.475238434285544" lon="9.946481702548134"><ele>996.6666666666667</ele><time>2026-04-06T12:49:12.001Z</time></trkpt><trkpt lat="44.475060762218384" lon="9.946447332304892"><ele>1000.3333333333334</ele><time>2026-04-06T12:49:13.001Z</time></trkpt><trkpt lat="44.47488747531768" lon="9.94639187151128"><ele>1004.0</ele><time>2026-04-06T12:49:14.001Z</time></trkpt><trkpt lat="44.47471766374353" lon="9.946322787791948"><ele>1007.0</ele><time>2026-04-06T12:49:15.001Z</time></trkpt><trkpt lat="44.47457868164626" lon="9.946260506839964"><ele>1010.0</ele><time>2026-04-06T12:49:16.001Z</time></trkpt><trkpt lat="44.47447196316661" lon="9.946187974493244"><ele>1013.0</ele><time>2026-04-06T12:49:17.001Z</time></trkpt><trkpt lat="44.474377367065486" lon="9.94610865200376"><ele>1016.0</ele><time>2026-04-06T12:49:18.001Z</time></trkpt><trkpt lat="44.474350534836255" lon="9.945930264745677"><ele>1013.6666666666667</ele><time>2026-04-06T12:49:19.001Z</time></trkpt><trkpt lat="44.474314575123806" lon="9.945721970628298"><ele>1011.3333333333333</ele><time>2026-04-06T12:49:20.001Z</time></trkpt><trkpt lat="44.4742675264707" lon="9.945492665665453"><ele>1009.0</ele><time>2026-04-06T12:49:21.001Z</time></trkpt><trkpt lat="44.47423156343393" lon="9.94525943974317"><ele>1008.0</ele><time>2026-04-06T12:49:22.001Z</time></trkpt><trkpt lat="44.47418782908177" lon="9.945010895194127"><ele>1007.0</ele><time>2026-04-06T12:49:23.001Z</time></trkpt><trkpt lat="44.47413140270296" lon="9.944761644629896"><ele>1006.0</ele><time>2026-04-06T12:49:24.001Z</time></trkpt><trkpt lat="44.47405462496603" lon="9.944506621455023"><ele>1006.0</ele><time>2026-04-06T12:49:25.002Z</time></trkpt><trkpt lat="44.47397877825707" lon="9.944276302941926"><ele>1006.0</ele><time>2026-04-06T12:49:26.002Z</time></trkpt><trkpt lat="44.47389070595379" lon="9.944051235684004"><ele>1006.0</ele><time>2026-04-06T12:49:27.002Z</time></trkpt><trkpt lat="44.47379957404177" lon="9.943827563679857"><ele>1010.0</ele><time>2026-04-06T12:49:28.002Z</time></trkpt><trkpt lat="44.473712267490974" lon="9.94361872025896"><ele>1014.0</ele><time>2026-04-06T12:49:29.002Z</time></trkpt><trkpt lat="44.47362974384579" lon="9.943427721840628"><ele>1018.0</ele><time>2026-04-06T12:49:30.002Z</time></trkpt><trkpt lat="44.4735720978063" lon="9.943262426022308"><ele>1018.5</ele><time>2026-04-06T12:49:31.002Z</time></trkpt><trkpt lat="44.47354313920669" lon="9.943082215826909"><ele>1019.0</ele><time>2026-04-06T12:49:32.002Z</time></trkpt><trkpt lat="44.473576380410584" lon="9.942890618399241"><ele>1019.5</ele><time>2026-04-06T12:49:33.002Z</time></trkpt><trkpt lat="44.47358385538324" lon="9.942683179085414"><ele>1020.0</ele><time>2026-04-06T12:49:34.002Z</time></trkpt><trkpt lat="44.473623340787725" lon="9.94249472889041"><ele>1024.75</ele><time>2026-04-06T12:49:35.002Z</time></trkpt><trkpt lat="44.473689297749466" lon="9.94233191477644"><ele>1029.5</ele><time>2026-04-06T12:49:36.002Z</time></trkpt><trkpt lat="44.47381171507833" lon="9.942220538450163"><ele>1034.25</ele><time>2026-04-06T12:49:37.002Z</time></trkpt><trkpt lat="44.47393781962226" lon="9.942084963336614"><ele>1039.0</ele><time>2026-04-06T12:49:38.001Z</time></trkpt><trkpt lat="44.474071586790146" lon="9.9419544975276"><ele>1033.4</ele><time>2026-04-06T12:49:39.001Z</time></trkpt><trkpt lat="44.474182011392465" lon="9.94182707698754"><ele>1027.8000000000002</ele><time>2026-04-06T12:49:40.001Z</time></trkpt><trkpt lat="44.47427004001339" lon="9.941722779054219"><ele>1022.1999999999999</ele><time>2026-04-06T12:49:41.001Z</time></trkpt><trkpt lat="44.47432909087799" lon="9.941619697952737"><ele>1016.5999999999999</ele><time>2026-04-06T12:49:42.001Z</time></trkpt><trkpt lat="44.47434015611993" lon="9.941507525840882"><ele>1011.0</ele><time>2026-04-06T12:49:43.001Z</time></trkpt><trkpt lat="44.47429801830457" lon="9.941390963542277"><ele>1011.0</ele><time>2026-04-06T12:49:44.001Z</time></trkpt><trkpt lat="44.47420040430147" lon="9.941298155619206"><ele>1011.0</ele><time>2026-04-06T12:49:45.001Z</time></trkpt><trkpt lat="44.47407259272362" lon="9.941227283604853"><ele>1011.0</ele><time>2026-04-06T12:49:46.001Z</time></trkpt><trkpt lat="44.4739383452818" lon="9.941118342586725"><ele>1011.0</ele><time>2026-04-06T12:49:47.001Z</time></trkpt><trkpt lat="44.473824892311605" lon="9.940944990405157"><ele>1017.3333333333333</ele><time>2026-04-06T12:49:48.001Z</time></trkpt><trkpt lat="44.47371989661057" lon="9.940737848985595"><ele>1023.6666666666666</ele><time>2026-04-06T12:49:49.001Z</time></trkpt><trkpt lat="44.47361898308893" lon="9.940554323938077"><ele>1030.0</ele><time>2026-04-06T12:49:50.001Z</time></trkpt><trkpt lat="44.47352725089931" lon="9.940398302081043"><ele>1030.0</ele><time>2026-04-06T12:49:51.001Z</time></trkpt><trkpt lat="44.47341588737323" lon="9.940281502910755"><ele>1030.0</ele><time>2026-04-06T12:49:52.001Z</time></trkpt><trkpt lat="44.473285429861114" lon="9.940205321211955"><ele>1030.0</ele><time>2026-04-06T12:49:53.001Z</time></trkpt><trkpt lat="44.47312841894416" lon="9.940187109781784"><ele>1030.0</ele><time>2026-04-06T12:49:54.001Z</time></trkpt><trkpt lat="44.47296072722788" lon="9.940195698828285"><ele>1033.0</ele><time>2026-04-06T12:49:55.001Z</time></trkpt><trkpt lat="44.47279705928534" lon="9.940180639304886"><ele>1036.0</ele><time>2026-04-06T12:49:56.001Z</time></trkpt><trkpt lat="44.472645649291515" lon="9.940141620890788"><ele>1039.0</ele><time>2026-04-06T12:49:57.001Z</time></trkpt><trkpt lat="44.4725059451462" lon="9.94009731365617"><ele>1034.75</ele><time>2026-04-06T12:49:58.001Z</time></trkpt><trkpt lat="44.472397204436994" lon="9.940045635030021"><ele>1030.5</ele><time>2026-04-06T12:49:59.001Z</time></trkpt><trkpt lat="44.47232144643884" lon="9.939961046854863"><ele>1026.25</ele><time>2026-04-06T12:50:00.001Z</time></trkpt><trkpt lat="44.47228104084617" lon="9.939812681700422"><ele>1022.0</ele><time>2026-04-06T12:50:01.001Z</time></trkpt><trkpt lat="44.472257830746074" lon="9.939639680765168"><ele>1022.0</ele><time>2026-04-06T12:50:02.001Z</time></trkpt><trkpt lat="44.47221783355055" lon="9.939429144788162"><ele>1022.0</ele><time>2026-04-06T12:50:03.001Z</time></trkpt><trkpt lat="44.4721765474861" lon="9.939239055350775"><ele>1022.0</ele><time>2026-04-06T12:50:04.001Z</time></trkpt><trkpt lat="44.47217187150047" lon="9.939081401532256"><ele>1022.0</ele><time>2026-04-06T12:50:05.001Z</time></trkpt><trkpt lat="44.47224538325735" lon="9.938966713167673"><ele>1021.2</ele><time>2026-04-06T12:50:06.001Z</time></trkpt><trkpt lat="44.47233280871508" lon="9.938899587295428"><ele>1020.4000000000001</ele><time>2026-04-06T12:50:07.001Z</time></trkpt><trkpt lat="44.47242107763514" lon="9.938790157460845"><ele>1019.5999999999999</ele><time>2026-04-06T12:50:08.001Z</time></trkpt><trkpt lat="44.472513208681704" lon="9.938705453380583"><ele>1018.8</ele><time>2026-04-06T12:50:09.001Z</time></trkpt><trkpt lat="44.47256782235904" lon="9.938580099349297"><ele>1018.0</ele><time>2026-04-06T12:50:10.001Z</time></trkpt><trkpt lat="44.47259314615524" lon="9.938406037023537"><ele>1019.6666666666666</ele><time>2026-04-06T12:50:11.001Z</time></trkpt><trkpt lat="44.47260445975338" lon="9.938176912418863"><ele>1021.3333333333333</ele><time>2026-04-06T12:50:12.001Z</time></trkpt><trkpt lat="44.472615977697" lon="9.937935017730407"><ele>1023.0</ele><time>2026-04-06T12:50:13.001Z</time></trkpt><trkpt lat="44.47264222336203" lon="9.937677462958707"><ele>1024.3333333333333</ele><time>2026-04-06T12:50:14.001Z</time></trkpt><trkpt lat="44.47267145924557" lon="9.937407422826464"><ele>1025.6666666666665</ele><time>2026-04-06T12:50:15.001Z</time></trkpt><trkpt lat="44.47270875406138" lon="9.937147945016399"><ele>1027.0</ele><time>2026-04-06T12:50:16.001Z</time></trkpt><trkpt lat="44.47275961423901" lon="9.936923970011199"><ele>1027.5</ele><time>2026-04-06T12:50:17.001Z</time></trkpt><trkpt lat="44.47282418825623" lon="9.936717556277653"><ele>1028.0</ele><time>2026-04-06T12:50:18.001Z</time></trkpt><trkpt lat="44.4728645037743" lon="9.936539016923012"><ele>1028.5</ele><time>2026-04-06T12:50:19.001Z</time></trkpt><trkpt lat="44.472868570200504" lon="9.936351079223328"><ele>1029.0</ele><time>2026-04-06T12:50:20.001Z</time></trkpt><trkpt lat="44.47282784881052" lon="9.936178996824195"><ele>1029.0</ele><time>2026-04-06T12:50:21.001Z</time></trkpt><trkpt lat="44.47274781797183" lon="9.936027043878706"><ele>1029.0</ele><time>2026-04-06T12:50:22.001Z</time></trkpt><trkpt lat="44.47262633879397" lon="9.935881514272465"><ele>1029.0</ele><time>2026-04-06T12:50:23.001Z</time></trkpt><trkpt lat="44.472485890551916" lon="9.93573508663599"><ele>1029.3333333333333</ele><time>2026-04-06T12:50:24.001Z</time></trkpt><trkpt lat="44.472335780798026" lon="9.935580436919933"><ele>1029.6666666666665</ele><time>2026-04-06T12:50:25.001Z</time></trkpt><trkpt lat="44.472215078233965" lon="9.935429388867522"><ele>1030.0</ele><time>2026-04-06T12:50:26.001Z</time></trkpt><trkpt lat="44.47210405351012" lon="9.935285635107418"><ele>1030.0</ele><time>2026-04-06T12:50:27.001Z</time></trkpt><trkpt lat="44.47199773141735" lon="9.935180437965565"><ele>1030.0</ele><time>2026-04-06T12:50:28.001Z</time></trkpt><trkpt lat="44.47187468521147" lon="9.93512770602928"><ele>1030.0</ele><time>2026-04-06T12:50:29.001Z</time></trkpt><trkpt lat="44.47174316947816" lon="9.935119112949426"><ele>1030.0</ele><time>2026-04-06T12:50:30.001Z</time></trkpt><trkpt lat="44.47161800287413" lon="9.935146885064219"><ele>1030.0</ele><time>2026-04-06T12:50:31.001Z</time></trkpt><trkpt lat="44.47151684484213" lon="9.935138223926387"><ele>1030.0</ele><time>2026-04-06T12:50:32.001Z</time></trkpt><trkpt lat="44.47144833019821" lon="9.935056695171722"><ele>1030.0</ele><time>2026-04-06T12:50:33.001Z</time></trkpt><trkpt lat="44.47142583128564" lon="9.93492199136606"><ele>1030.0</ele><time>2026-04-06T12:50:34.001Z</time></trkpt><trkpt lat="44.47146330025015" lon="9.93475392726722"><ele>1030.0</ele><time>2026-04-06T12:50:35.001Z</time></trkpt><trkpt lat="44.47148462811815" lon="9.934568095294585"><ele>1028.3333333333333</ele><time>2026-04-06T12:50:36.001Z</time></trkpt><trkpt lat="44.47151631156652" lon="9.934348904866448"><ele>1026.6666666666667</ele><time>2026-04-06T12:50:37.001Z</time></trkpt><trkpt lat="44.47160636251415" lon="9.934133707931345"><ele>1025.0</ele><time>2026-04-06T12:50:38.001Z</time></trkpt><trkpt lat="44.47169047388507" lon="9.933919440807294"><ele>1025.0</ele><time>2026-04-06T12:50:39.001Z</time></trkpt><trkpt lat="44.47179804191864" lon="9.93371431282288"><ele>1025.0</ele><time>2026-04-06T12:50:40.001Z</time></trkpt><trkpt lat="44.47189023341214" lon="9.93350829932523"><ele>1025.0</ele><time>2026-04-06T12:50:41.001Z</time></trkpt><trkpt lat="44.4719760089852" lon="9.933303397392377"><ele>1028.75</ele><time>2026-04-06T12:50:42.001Z</time></trkpt><trkpt lat="44.472050166269135" lon="9.933125266902957"><ele>1032.5</ele><time>2026-04-06T12:50:43.001Z</time></trkpt><trkpt lat="44.47211793935553" lon="9.932956414548343"><ele>1036.25</ele><time>2026-04-06T12:50:44.001Z</time></trkpt><trkpt lat="44.47217252141284" lon="9.932781792173355"><ele>1040.0</ele><time>2026-04-06T12:50:45.001Z</time></trkpt><trkpt lat="44.47222134175308" lon="9.932580206107184"><ele>1032.0</ele><time>2026-04-06T12:50:46.001Z</time></trkpt><trkpt lat="44.47227214286088" lon="9.93236404923754"><ele>1024.0</ele><time>2026-04-06T12:50:47.001Z</time></trkpt><trkpt lat="44.47232045723629" lon="9.932150124472706"><ele>1016.0</ele><time>2026-04-06T12:50:48.001Z</time></trkpt><trkpt lat="44.47237364291916" lon="9.931924310585982"><ele>1019.3333333333334</ele><time>2026-04-06T12:50:49.001Z</time></trkpt><trkpt lat="44.472428966079" lon="9.931697716391051"><ele>1022.6666666666667</ele><time>2026-04-06T12:50:50.001Z</time></trkpt><trkpt lat="44.47246914503294" lon="9.93148221291102"><ele>1026.0</ele><time>2026-04-06T12:50:51.001Z</time></trkpt><trkpt lat="44.47249072719407" lon="9.931266654141211"><ele>1026.0</ele><time>2026-04-06T12:50:52.001Z</time></trkpt><trkpt lat="44.47249167757176" lon="9.931047544061338"><ele>1026.0</ele><time>2026-04-06T12:50:53.001Z</time></trkpt><trkpt lat="44.47248037973313" lon="9.930844842934796"><ele>1026.0</ele><time>2026-04-06T12:50:54.001Z</time></trkpt><trkpt lat="44.472442343773864" lon="9.930651310396325"><ele>1026.0</ele><time>2026-04-06T12:50:55.001Z</time></trkpt><trkpt lat="44.472387580057266" lon="9.930466358664374"><ele>1027.0</ele><time>2026-04-06T12:50:56Z</time></trkpt><trkpt lat="44.47231939480432" lon="9.930285555201632"><ele>1028.0</ele><time>2026-04-06T12:50:57Z</time></trkpt><trkpt lat="44.47224372845497" lon="9.930105056930435"><ele>1029.0</ele><time>2026-04-06T12:50:58Z</time></trkpt><trkpt lat="44.472170612704986" lon="9.929916962157646"><ele>1030.0</ele><time>2026-04-06T12:50:59Z</time></trkpt><trkpt lat="44.47212167546671" lon="9.929750324958665"><ele>1033.0</ele><time>2026-04-06T12:51:00Z</time></trkpt><trkpt lat="44.472049079404975" lon="9.929572805277472"><ele>1036.0</ele><time>2026-04-06T12:51:01Z</time></trkpt><trkpt lat="44.47197749011723" lon="9.929403539110366"><ele>1039.0</ele><time>2026-04-06T12:51:02Z</time></trkpt><trkpt lat="44.47190803022991" lon="9.929240041751397"><ele>1042.0</ele><time>2026-04-06T12:51:03Z</time></trkpt><trkpt lat="44.47183932206814" lon="9.929081066128857"><ele>1042.0</ele><time>2026-04-06T12:51:04Z</time></trkpt><trkpt lat="44.47177353112546" lon="9.928933065921932"><ele>1042.0</ele><time>2026-04-06T12:51:05Z</time></trkpt><trkpt lat="44.47171177864072" lon="9.928780239810138"><ele>1042.0</ele><time>2026-04-06T12:51:06Z</time></trkpt><trkpt lat="44.471648188125414" lon="9.928630446114694"><ele>1042.0</ele><time>2026-04-06T12:51:07Z</time></trkpt><trkpt lat="44.471590208490376" lon="9.928494032254804"><ele>1041.3333333333333</ele><time>2026-04-06T12:51:08Z</time></trkpt><trkpt lat="44.47154552261659" lon="9.92836982297295"><ele>1040.6666666666665</ele><time>2026-04-06T12:51:09Z</time></trkpt><trkpt lat="44.471504226559844" lon="9.9282876790885"><ele>1040.0</ele><time>2026-04-06T12:51:10Z</time></trkpt><trkpt lat="44.47147155092829" lon="9.928169595082244"><ele>1039.3333333333333</ele><time>2026-04-06T12:51:12Z</time></trkpt><trkpt lat="44.471380698112995" lon="9.928241002378723"><ele>1038.6666666666667</ele><time>2026-04-06T12:56:45Z</time></trkpt><trkpt lat="44.47143226087864" lon="9.928295256163004"><ele>1038.0</ele><time>2026-04-06T12:56:49Z</time></trkpt><trkpt lat="44.47145170562887" lon="9.928192503299606"><ele>1038.0</ele><time>2026-04-06T12:56:52Z</time></trkpt><trkpt lat="44.471432165041634" lon="9.928089424077521"><ele>1038.0</ele><time>2026-04-06T12:56:53Z</time></trkpt><trkpt lat="44.47139122719" lon="9.927959956609424"><ele>1038.0</ele><time>2026-04-06T12:56:54Z</time></trkpt><trkpt lat="44.47135585421449" lon="9.927823955704303"><ele>1038.0</ele><time>2026-04-06T12:56:55Z</time></trkpt><trkpt lat="44.471332720117864" lon="9.927652949810671"><ele>1038.0</ele><time>2026-04-06T12:56:56Z</time></trkpt><trkpt lat="44.47133051177349" lon="9.927461183267901"><ele>1034.0</ele><time>2026-04-06T12:56:57Z</time></trkpt><trkpt lat="44.47148758566813" lon="9.923156469656654"><ele>1034.0</ele><time>2026-04-06T12:57:58.001Z</time></trkpt><trkpt lat="44.47142892197238" lon="9.923017503589973"><ele>1034.0</ele><time>2026-04-06T12:58:00.001Z</time></trkpt><trkpt lat="44.4713883095486" lon="9.922936967058439"><ele>1034.0</ele><time>2026-04-06T12:58:01.001Z</time></trkpt><trkpt lat="44.471349910518114" lon="9.922850752677329"><ele>1034.0</ele><time>2026-04-06T12:58:02.001Z</time></trkpt><trkpt lat="44.47131830732345" lon="9.922752563591464"><ele>1034.0</ele><time>2026-04-06T12:58:03.001Z</time></trkpt><trkpt lat="44.47129649093488" lon="9.922650721967221"><ele>1034.0</ele><time>2026-04-06T12:58:04.001Z</time></trkpt><trkpt lat="44.47128484624045" lon="9.92253489951612"><ele>1036.5</ele><time>2026-04-06T12:58:05.001Z</time></trkpt><trkpt lat="44.471282145771305" lon="9.92241172308017"><ele>1039.0</ele><time>2026-04-06T12:58:06Z</time></trkpt><trkpt lat="44.47128575928716" lon="9.922287891783235"><ele>1041.5</ele><time>2026-04-06T12:58:07Z</time></trkpt><trkpt lat="44.471289999085826" lon="9.922170133478494"><ele>1044.0</ele><time>2026-04-06T12:58:08Z</time></trkpt><trkpt lat="44.47127600108808" lon="9.922053088586638"><ele>1046.5</ele><time>2026-04-06T12:58:09Z</time></trkpt><trkpt lat="44.47126984095251" lon="9.921938444021057"><ele>1049.0</ele><time>2026-04-06T12:58:10Z</time></trkpt><trkpt lat="44.47123527615084" lon="9.921808343500542"><ele>1043.4</ele><time>2026-04-06T12:58:11Z</time></trkpt><trkpt lat="44.47116980945617" lon="9.92168687585352"><ele>1037.8000000000002</ele><time>2026-04-06T12:58:12Z</time></trkpt><trkpt lat="44.471083087784194" lon="9.921569958015413"><ele>1032.1999999999998</ele><time>2026-04-06T12:58:13Z</time></trkpt><trkpt lat="44.47099951104471" lon="9.921463014434638"><ele>1026.6</ele><time>2026-04-06T12:58:14Z</time></trkpt><trkpt lat="44.47093194610707" lon="9.921366360012783"><ele>1021.0</ele><time>2026-04-06T12:58:15Z</time></trkpt><trkpt lat="44.47087108096008" lon="9.921283088471542"><ele>1021.0</ele><time>2026-04-06T12:58:16Z</time></trkpt><trkpt lat="44.47081669423422" lon="9.92120252696254"><ele>1021.0</ele><time>2026-04-06T12:58:17Z</time></trkpt><trkpt lat="44.47077810971192" lon="9.921125431037053"><ele>1021.0</ele><time>2026-04-06T12:58:18Z</time></trkpt><trkpt lat="44.46948289849362" lon="9.922054065961758"><ele>1020.5</ele><time>2026-04-06T13:00:58Z</time></trkpt><trkpt lat="44.46942549790553" lon="9.922228345143333"><ele>1020.0</ele><time>2026-04-06T13:00:59Z</time></trkpt><trkpt lat="44.46938356663337" lon="9.922383414846271"><ele>1019.5</ele><time>2026-04-06T13:01:00Z</time></trkpt><trkpt lat="44.46933674563125" lon="9.922517132742874"><ele>1019.0</ele><time>2026-04-06T13:01:01Z</time></trkpt><trkpt lat="44.46926342452926" lon="9.922592989256433"><ele>1019.0</ele><time>2026-04-06T13:01:02Z</time></trkpt><trkpt lat="44.469166883521076" lon="9.922581003389716"><ele>1019.0000000000001</ele><time>2026-04-06T13:01:03Z</time></trkpt><trkpt lat="44.46906249763594" lon="9.922528755438988"><ele>1019.0000000000001</ele><time>2026-04-06T13:01:04Z</time></trkpt><trkpt lat="44.468985709005096" lon="9.922433123036924"><ele>1019.0</ele><time>2026-04-06T13:01:05Z</time></trkpt><trkpt lat="44.46890358228391" lon="9.922288971305864"><ele>1019.0</ele><time>2026-04-06T13:01:06Z</time></trkpt><trkpt lat="44.46880509272747" lon="9.922099863374877"><ele>1017.6666666666667</ele><time>2026-04-06T13:01:07Z</time></trkpt><trkpt lat="44.46868911703129" lon="9.921878960234297"><ele>1016.3333333333333</ele><time>2026-04-06T13:01:08Z</time></trkpt><trkpt lat="44.46856703354383" lon="9.92167950178069"><ele>1015.0</ele><time>2026-04-06T13:01:09Z</time></trkpt><trkpt lat="44.46846435241113" lon="9.921456881320463"><ele>1015.0</ele><time>2026-04-06T13:01:10Z</time></trkpt><trkpt lat="44.46835071563862" lon="9.921254241473596"><ele>1015.0</ele><time>2026-04-06T13:01:11Z</time></trkpt><trkpt lat="44.46822431822645" lon="9.921077449910417"><ele>1015.0</ele><time>2026-04-06T13:01:12Z</time></trkpt><trkpt lat="44.46809489654175" lon="9.920918500887645"><ele>1013.6666666666666</ele><time>2026-04-06T13:01:13Z</time></trkpt><trkpt lat="44.467970799604686" lon="9.920768008403689"><ele>1012.3333333333333</ele><time>2026-04-06T13:01:14Z</time></trkpt><trkpt lat="44.46785249400832" lon="9.92061502899398"><ele>1011.0</ele><time>2026-04-06T13:01:15Z</time></trkpt><trkpt lat="44.467721568820565" lon="9.920480061296276"><ele>1011.0</ele><time>2026-04-06T13:01:16Z</time></trkpt><trkpt lat="44.46759230233763" lon="9.920378320737752"><ele>1011.0</ele><time>2026-04-06T13:01:17Z</time></trkpt><trkpt lat="44.46744665956839" lon="9.920308538472986"><ele>1011.0</ele><time>2026-04-06T13:01:18Z</time></trkpt><trkpt lat="44.4672749909058" lon="9.920279506709296"><ele>1008.3333333333333</ele><time>2026-04-06T13:01:19Z</time></trkpt><trkpt lat="44.46707763339742" lon="9.92027865747912"><ele>1005.6666666666666</ele><time>2026-04-06T13:01:20Z</time></trkpt><trkpt lat="44.466876604379266" lon="9.920268511296666"><ele>1003.0</ele><time>2026-04-06T13:01:21Z</time></trkpt><trkpt lat="44.46668188482863" lon="9.920252404131793"><ele>1003.0</ele><time>2026-04-06T13:01:22Z</time></trkpt><trkpt lat="44.46648679527522" lon="9.920236282118154"><ele>1003.0</ele><time>2026-04-06T13:01:23Z</time></trkpt><trkpt lat="44.46630092669694" lon="9.920229556674968"><ele>1003.0</ele><time>2026-04-06T13:01:24Z</time></trkpt><trkpt lat="44.4661258558904" lon="9.920237994303921"><ele>1003.3333333333333</ele><time>2026-04-06T13:01:25Z</time></trkpt><trkpt lat="44.46594801694504" lon="9.920292017708496"><ele>1003.6666666666667</ele><time>2026-04-06T13:01:26Z</time></trkpt><trkpt lat="44.4657671754182" lon="9.920383855877429"><ele>1004.0</ele><time>2026-04-06T13:01:27Z</time></trkpt><trkpt lat="44.46558616387387" lon="9.92048379998365"><ele>1003.0</ele><time>2026-04-06T13:01:27.999Z</time></trkpt><trkpt lat="44.46541945879327" lon="9.920578682556986"><ele>1002.0</ele><time>2026-04-06T13:01:28.999Z</time></trkpt><trkpt lat="44.46527555327692" lon="9.920652998388192"><ele>1001.0</ele><time>2026-04-06T13:01:29.999Z</time></trkpt><trkpt lat="44.465145760840585" lon="9.920666082489934"><ele>1001.0</ele><time>2026-04-06T13:01:30.999Z</time></trkpt><trkpt lat="44.46502783309028" lon="9.920643297351909"><ele>1001.0</ele><time>2026-04-06T13:01:31.999Z</time></trkpt><trkpt lat="44.464919272761556" lon="9.920557544773843"><ele>1001.0</ele><time>2026-04-06T13:01:32.999Z</time></trkpt><trkpt lat="44.464783566335775" lon="9.920440968909949"><ele>1001.0</ele><time>2026-04-06T13:01:33.999Z</time></trkpt><trkpt lat="44.46462417354442" lon="9.920307038557223"><ele>1003.6666666666667</ele><time>2026-04-06T13:01:34.999Z</time></trkpt><trkpt lat="44.46445260576119" lon="9.920162764865077"><ele>1006.3333333333333</ele><time>2026-04-06T13:01:35.999Z</time></trkpt><trkpt lat="44.46428558427848" lon="9.920034819299717"><ele>1009.0</ele><time>2026-04-06T13:01:36.999Z</time></trkpt><trkpt lat="44.46410406921834" lon="9.91993164129215"><ele>1009.0</ele><time>2026-04-06T13:01:37.999Z</time></trkpt><trkpt lat="44.463936017817005" lon="9.919848848860589"><ele>1009.0</ele><time>2026-04-06T13:01:38.999Z</time></trkpt><trkpt lat="44.46378347924101" lon="9.919767465369832"><ele>1009.0</ele><time>2026-04-06T13:01:39.999Z</time></trkpt><trkpt lat="44.46365760728196" lon="9.919674400624887"><ele>1009.75</ele><time>2026-04-06T13:01:40.999Z</time></trkpt><trkpt lat="44.4635608977843" lon="9.919545014971026"><ele>1010.5</ele><time>2026-04-06T13:01:41.999Z</time></trkpt><trkpt lat="44.463478931101726" lon="9.919391184532579"><ele>1011.25</ele><time>2026-04-06T13:01:42.999Z</time></trkpt><trkpt lat="44.46340019131907" lon="9.919244089999742"><ele>1012.0</ele><time>2026-04-06T13:01:43.999Z</time></trkpt><trkpt lat="44.46331696393593" lon="9.919147653488018"><ele>1012.0</ele><time>2026-04-06T13:01:44.999Z</time></trkpt><trkpt lat="44.46321848151574" lon="9.919087887470194"><ele>1012.0</ele><time>2026-04-06T13:01:45.999Z</time></trkpt><trkpt lat="44.46311913717334" lon="9.919081271595944"><ele>1012.0</ele><time>2026-04-06T13:01:46.999Z</time></trkpt><trkpt lat="44.46302565111661" lon="9.919131679492327"><ele>1012.0</ele><time>2026-04-06T13:01:47.999Z</time></trkpt><trkpt lat="44.46294091107555" lon="9.919231290415272"><ele>1012.0</ele><time>2026-04-06T13:01:48.999Z</time></trkpt><trkpt lat="44.462856845698035" lon="9.919378881314879"><ele>1012.0</ele><time>2026-04-06T13:01:49.999Z</time></trkpt><trkpt lat="44.462745718262425" lon="9.919587885709445"><ele>1012.0</ele><time>2026-04-06T13:01:50.999Z</time></trkpt><trkpt lat="44.46262907006697" lon="9.919818936580022"><ele>1012.0</ele><time>2026-04-06T13:01:51.999Z</time></trkpt><trkpt lat="44.462541838356394" lon="9.919997239198278"><ele>1008.6666666666666</ele><time>2026-04-06T13:01:52.999Z</time></trkpt><trkpt lat="44.462472612132096" lon="9.920221911878832"><ele>1005.3333333333333</ele><time>2026-04-06T13:01:53.999Z</time></trkpt><trkpt lat="44.46242789420971" lon="9.92048267638413"><ele>1002.0</ele><time>2026-04-06T13:01:54.999Z</time></trkpt><trkpt lat="44.46239892277453" lon="9.92074986977776"><ele>996.0</ele><time>2026-04-06T13:01:55.999Z</time></trkpt><trkpt lat="44.46237907472769" lon="9.92099613356787"><ele>990.0</ele><time>2026-04-06T13:01:56.999Z</time></trkpt><trkpt lat="44.45552063541833" lon="9.919160742043992"><ele>982.3333333333333</ele><time>2026-04-06T13:02:58Z</time></trkpt><trkpt lat="44.45544231931641" lon="9.919042643503243"><ele>974.6666666666666</ele><time>2026-04-06T13:02:59Z</time></trkpt><trkpt lat="44.45534002203666" lon="9.918870490700549"><ele>967.0</ele><time>2026-04-06T13:03:00Z</time></trkpt><trkpt lat="44.45522523397006" lon="9.918668014220641"><ele>967.0</ele><time>2026-04-06T13:03:01Z</time></trkpt><trkpt lat="44.455102177790536" lon="9.918458887227473"><ele>967.0</ele><time>2026-04-06T13:03:02Z</time></trkpt><trkpt lat="44.45495671550762" lon="9.918285558600232"><ele>967.0</ele><time>2026-04-06T13:03:03Z</time></trkpt><trkpt lat="44.454790270537934" lon="9.918143126674549"><ele>968.3333333333333</ele><time>2026-04-06T13:03:04Z</time></trkpt><trkpt lat="44.45460163754973" lon="9.918026411549693"><ele>969.6666666666667</ele><time>2026-04-06T13:03:05Z</time></trkpt><trkpt lat="44.45441814468568" lon="9.917923969548777"><ele>971.0</ele><time>2026-04-06T13:03:06Z</time></trkpt><trkpt lat="44.45425318145657" lon="9.91784131899461"><ele>971.0</ele><time>2026-04-06T13:03:07Z</time></trkpt><trkpt lat="44.45409244123164" lon="9.91778595160816"><ele>971.0</ele><time>2026-04-06T13:03:08Z</time></trkpt><trkpt lat="44.453922645099986" lon="9.917769037023133"><ele>971.0</ele><time>2026-04-06T13:03:09Z</time></trkpt><trkpt lat="44.453759052745305" lon="9.917775074834015"><ele>972.5</ele><time>2026-04-06T13:03:10Z</time></trkpt><trkpt lat="44.45360955964027" lon="9.917791572821235"><ele>974.0</ele><time>2026-04-06T13:03:11Z</time></trkpt><trkpt lat="44.45346309136568" lon="9.917832638729356"><ele>975.5</ele><time>2026-04-06T13:03:12Z</time></trkpt><trkpt lat="44.45332477420803" lon="9.917910716974271"><ele>977.0</ele><time>2026-04-06T13:03:13Z</time></trkpt><trkpt lat="44.453198912113606" lon="9.918020527749825"><ele>977.0</ele><time>2026-04-06T13:03:14Z</time></trkpt><trkpt lat="44.45308675020725" lon="9.91816139233524"><ele>977.0</ele><time>2026-04-06T13:03:15Z</time></trkpt><trkpt lat="44.45298709669123" lon="9.918330240381799"><ele>977.0</ele><time>2026-04-06T13:03:16Z</time></trkpt><trkpt lat="44.45290093537374" lon="9.918481315739417"><ele>977.0</ele><time>2026-04-06T13:03:17Z</time></trkpt><trkpt lat="44.452784763964786" lon="9.918581974604553"><ele>976.0</ele><time>2026-04-06T13:03:18Z</time></trkpt><trkpt lat="44.452668303675246" lon="9.91867242897836"><ele>975.0</ele><time>2026-04-06T13:03:18.999Z</time></trkpt><trkpt lat="44.45255235769332" lon="9.918754653085188"><ele>974.0</ele><time>2026-04-06T13:03:19.999Z</time></trkpt><trkpt lat="44.45244697023789" lon="9.918817475062221"><ele>973.0</ele><time>2026-04-06T13:03:20.999Z</time></trkpt><trkpt lat="44.45234424210149" lon="9.918854584873166"><ele>973.0</ele><time>2026-04-06T13:03:21.999Z</time></trkpt><trkpt lat="44.4522396785294" lon="9.918866447425664"><ele>973.0</ele><time>2026-04-06T13:03:22.999Z</time></trkpt><trkpt lat="44.45211227458407" lon="9.918868376024534"><ele>973.0</ele><time>2026-04-06T13:03:23.999Z</time></trkpt><trkpt lat="44.451982972452946" lon="9.918899316047991"><ele>973.0</ele><time>2026-04-06T13:03:24.999Z</time></trkpt><trkpt lat="44.45184539054807" lon="9.918931389080647"><ele>972.75</ele><time>2026-04-06T13:03:25.999Z</time></trkpt><trkpt lat="44.45170425627208" lon="9.91900657253722"><ele>972.5</ele><time>2026-04-06T13:03:26.999Z</time></trkpt><trkpt lat="44.451572053710755" lon="9.91908813683415"><ele>972.25</ele><time>2026-04-06T13:03:27.999Z</time></trkpt><trkpt lat="44.451454791491685" lon="9.919183077974816"><ele>972.0</ele><time>2026-04-06T13:03:28.999Z</time></trkpt><trkpt lat="44.45135714454849" lon="9.91929962911083"><ele>971.25</ele><time>2026-04-06T13:03:29.999Z</time></trkpt><trkpt lat="44.45126674945862" lon="9.919424024074994"><ele>970.5</ele><time>2026-04-06T13:03:30.999Z</time></trkpt><trkpt lat="44.45117305863408" lon="9.919527897864839"><ele>969.75</ele><time>2026-04-06T13:03:31.999Z</time></trkpt><trkpt lat="44.45108783748858" lon="9.919641573158508"><ele>969.0</ele><time>2026-04-06T13:03:32.999Z</time></trkpt><trkpt lat="44.451007095052724" lon="9.91974975185837"><ele>969.0</ele><time>2026-04-06T13:03:33.999Z</time></trkpt><trkpt lat="44.450937081288785" lon="9.919837050996012"><ele>969.0</ele><time>2026-04-06T13:03:34.999Z</time></trkpt><trkpt lat="44.45086835720185" lon="9.919876956812734"><ele>969.0</ele><time>2026-04-06T13:03:35.999Z</time></trkpt><trkpt lat="44.45079900881912" lon="9.919867608807882"><ele>969.0</ele><time>2026-04-06T13:03:36.999Z</time></trkpt><trkpt lat="44.45075527804999" lon="9.919748732044892"><ele>969.0</ele><time>2026-04-06T13:03:37.999Z</time></trkpt><trkpt lat="44.45076877414919" lon="9.919608493600352"><ele>969.0</ele><time>2026-04-06T13:03:38.999Z</time></trkpt><trkpt lat="44.45084165407134" lon="9.919467275038588"><ele>969.0</ele><time>2026-04-06T13:03:39.999Z</time></trkpt><trkpt lat="44.450973148116915" lon="9.919341596462134"><ele>969.0</ele><time>2026-04-06T13:03:40.999Z</time></trkpt><trkpt lat="44.451139682469304" lon="9.919200422068501"><ele>969.0</ele><time>2026-04-06T13:03:41.999Z</time></trkpt><trkpt lat="44.45128368758996" lon="9.919042103953808"><ele>970.0</ele><time>2026-04-06T13:03:42.999Z</time></trkpt><trkpt lat="44.451416214231116" lon="9.918883769859498"><ele>971.0</ele><time>2026-04-06T13:03:43.999Z</time></trkpt><trkpt lat="44.45153388247118" lon="9.918733451595816"><ele>972.0</ele><time>2026-04-06T13:03:44.999Z</time></trkpt><trkpt lat="44.45165000373261" lon="9.918575109792245"><ele>972.0</ele><time>2026-04-06T13:03:45.999Z</time></trkpt><trkpt lat="44.45176448229704" lon="9.918409507505547"><ele>972.0</ele><time>2026-04-06T13:03:46.999Z</time></trkpt><trkpt lat="44.45185871543514" lon="9.918227974106825"><ele>972.0</ele><time>2026-04-06T13:03:47.999Z</time></trkpt><trkpt lat="44.45193013089978" lon="9.918021081794132"><ele>966.3333333333333</ele><time>2026-04-06T13:03:48.999Z</time></trkpt><trkpt lat="44.45198203554101" lon="9.917793132245743"><ele>960.6666666666666</ele><time>2026-04-06T13:03:49.999Z</time></trkpt><trkpt lat="44.45201500036224" lon="9.917558037315994"><ele>955.0</ele><time>2026-04-06T13:03:50.999Z</time></trkpt><trkpt lat="44.45203892633111" lon="9.917336827860202"><ele>952.0</ele><time>2026-04-06T13:03:51.999Z</time></trkpt><trkpt lat="44.45210031293027" lon="9.917130255627418"><ele>949.0</ele><time>2026-04-06T13:03:52.999Z</time></trkpt><trkpt lat="44.45221678164242" lon="9.916961936392994"><ele>946.0</ele><time>2026-04-06T13:03:53.999Z</time></trkpt><trkpt lat="44.452321570018846" lon="9.916760794427786"><ele>947.3333333333333</ele><time>2026-04-06T13:03:54.999Z</time></trkpt><trkpt lat="44.452432725703765" lon="9.916589391150175"><ele>948.6666666666667</ele><time>2026-04-06T13:03:55.999Z</time></trkpt><trkpt lat="44.452531057440495" lon="9.916420773530856"><ele>950.0</ele><time>2026-04-06T13:03:56.999Z</time></trkpt><trkpt lat="44.449827405072384" lon="9.90900569791879"><ele>929.25</ele><time>2026-04-06T13:04:58Z</time></trkpt><trkpt lat="44.449666169748035" lon="9.908970863512739"><ele>908.5</ele><time>2026-04-06T13:04:59Z</time></trkpt><trkpt lat="44.44952265352474" lon="9.908946251182817"><ele>887.75</ele><time>2026-04-06T13:05:00Z</time></trkpt><trkpt lat="44.44939961013648" lon="9.908924886587505"><ele>867.0</ele><time>2026-04-06T13:05:01Z</time></trkpt><trkpt lat="44.44930110670084" lon="9.908892868698809"><ele>866.2</ele><time>2026-04-06T13:05:02Z</time></trkpt><trkpt lat="44.449211566310446" lon="9.908838452333905"><ele>865.4000000000001</ele><time>2026-04-06T13:05:03Z</time></trkpt><trkpt lat="44.44916465086359" lon="9.908707827282278"><ele>864.5999999999999</ele><time>2026-04-06T13:05:04Z</time></trkpt><trkpt lat="44.449128539509424" lon="9.908557693742177"><ele>863.8</ele><time>2026-04-06T13:05:05Z</time></trkpt><trkpt lat="44.44914231109861" lon="9.908396931270502"><ele>863.0</ele><time>2026-04-06T13:05:06Z</time></trkpt><trkpt lat="44.44920044201907" lon="9.908270670639709"><ele>863.0</ele><time>2026-04-06T13:05:07Z</time></trkpt><trkpt lat="44.449291907563335" lon="9.908165403122625"><ele>863.0</ele><time>2026-04-06T13:05:08Z</time></trkpt><trkpt lat="44.449414473986494" lon="9.908096980162124"><ele>863.0</ele><time>2026-04-06T13:05:09Z</time></trkpt><trkpt lat="44.44950271245747" lon="9.90800379060341"><ele>863.0</ele><time>2026-04-06T13:05:10Z</time></trkpt><trkpt lat="44.44955967676996" lon="9.907850278704531"><ele>863.0</ele><time>2026-04-06T13:05:11Z</time></trkpt><trkpt lat="44.4496093538083" lon="9.907671791871891"><ele>863.0</ele><time>2026-04-06T13:05:12Z</time></trkpt><trkpt lat="44.44962201354876" lon="9.907499768264518"><ele>863.0</ele><time>2026-04-06T13:05:13Z</time></trkpt><trkpt lat="44.449610015795095" lon="9.907340575677198"><ele>863.0</ele><time>2026-04-06T13:05:14Z</time></trkpt><trkpt lat="44.44957566451576" lon="9.907198406568297"><ele>862.2</ele><time>2026-04-06T13:05:15Z</time></trkpt><trkpt lat="44.44951223277629" lon="9.907108238206556"><ele>861.4</ele><time>2026-04-06T13:05:16Z</time></trkpt><trkpt lat="44.44942027267913" lon="9.907066972694693"><ele>860.6000000000001</ele><time>2026-04-06T13:05:17Z</time></trkpt><trkpt lat="44.449308867375386" lon="9.907083345928335"><ele>859.8000000000001</ele><time>2026-04-06T13:05:18Z</time></trkpt><trkpt lat="44.44919353396554" lon="9.907177289253665"><ele>859.0</ele><time>2026-04-06T13:05:19Z</time></trkpt><trkpt lat="44.44909219107538" lon="9.90732193422137"><ele>859.0</ele><time>2026-04-06T13:05:20Z</time></trkpt><trkpt lat="44.44900840915999" lon="9.907429288848606"><ele>859.0000000000001</ele><time>2026-04-06T13:05:21Z</time></trkpt><trkpt lat="44.44892653083564" lon="9.907474468688065"><ele>859.0000000000001</ele><time>2026-04-06T13:05:22Z</time></trkpt><trkpt lat="44.44882552444008" lon="9.907443264110707"><ele>859.0</ele><time>2026-04-06T13:05:24Z</time></trkpt><trkpt lat="44.44881242525949" lon="9.907343703345726"><ele>859.0</ele><time>2026-04-06T13:05:25Z</time></trkpt><trkpt lat="44.44885939501181" lon="9.907244501765753"><ele>859.0</ele><time>2026-04-06T13:05:26Z</time></trkpt><trkpt lat="44.448938485421465" lon="9.907143685884556"><ele>859.0</ele><time>2026-04-06T13:05:27Z</time></trkpt><trkpt lat="44.449036543221524" lon="9.907004045559292"><ele>859.0</ele><time>2026-04-06T13:05:28Z</time></trkpt><trkpt lat="44.44914460762942" lon="9.90685753675161"><ele>859.0</ele><time>2026-04-06T13:05:29Z</time></trkpt><trkpt lat="44.44925568188764" lon="9.90674500204785"><ele>859.0</ele><time>2026-04-06T13:05:30Z</time></trkpt><trkpt lat="44.44938637133534" lon="9.906680725801223"><ele>859.0</ele><time>2026-04-06T13:05:31Z</time></trkpt><trkpt lat="44.449509171770636" lon="9.906626322566307"><ele>859.0</ele><time>2026-04-06T13:05:32Z</time></trkpt><trkpt lat="44.44960575630314" lon="9.906557456773246"><ele>859.0</ele><time>2026-04-06T13:05:33Z</time></trkpt><trkpt lat="44.449660319137074" lon="9.906474905508325"><ele>858.9999999999999</ele><time>2026-04-06T13:05:34Z</time></trkpt><trkpt lat="44.449658818147725" lon="9.906374261758176"><ele>859.0</ele><time>2026-04-06T13:05:35Z</time></trkpt><trkpt lat="44.449625431227446" lon="9.906290405546844"><ele>859.0</ele><time>2026-04-06T13:05:36Z</time></trkpt><trkpt lat="44.449558417820434" lon="9.90625686657852"><ele>859.0</ele><time>2026-04-06T13:05:37Z</time></trkpt><trkpt lat="44.44947551403498" lon="9.906267871915473"><ele>858.9999999999999</ele><time>2026-04-06T13:05:38Z</time></trkpt><trkpt lat="44.44937181837554" lon="9.906327122226145"><ele>859.0</ele><time>2026-04-06T13:05:39Z</time></trkpt><trkpt lat="44.44924706350716" lon="9.906420383810389"><ele>856.0</ele><time>2026-04-06T13:05:40Z</time></trkpt><trkpt lat="44.44911804063155" lon="9.906506248378152"><ele>853.0</ele><time>2026-04-06T13:05:41Z</time></trkpt><trkpt lat="44.44898580515236" lon="9.906589661957772"><ele>850.0</ele><time>2026-04-06T13:05:42Z</time></trkpt><trkpt lat="44.44884977977435" lon="9.906670025345754"><ele>847.0</ele><time>2026-04-06T13:05:43Z</time></trkpt><trkpt lat="44.44872026294786" lon="9.906755718510803"><ele>845.25</ele><time>2026-04-06T13:05:44Z</time></trkpt><trkpt lat="44.44860506639132" lon="9.906866767483066"><ele>843.5</ele><time>2026-04-06T13:05:45Z</time></trkpt><trkpt lat="44.448497929877426" lon="9.906994187567005"><ele>841.75</ele><time>2026-04-06T13:05:46Z</time></trkpt><trkpt lat="44.44839576960052" lon="9.907119207065085"><ele>840.0</ele><time>2026-04-06T13:05:47Z</time></trkpt><trkpt lat="44.44830915835789" lon="9.907236043386062"><ele>840.0</ele><time>2026-04-06T13:05:48Z</time></trkpt><trkpt lat="44.448231439989364" lon="9.907372191285315"><ele>840.0</ele><time>2026-04-06T13:05:49Z</time></trkpt><trkpt lat="44.44817640606239" lon="9.907543351541733"><ele>840.0</ele><time>2026-04-06T13:05:50Z</time></trkpt><trkpt lat="44.448114925269934" lon="9.907720155954163"><ele>840.0</ele><time>2026-04-06T13:05:51Z</time></trkpt><trkpt lat="44.44805060391138" lon="9.90787866267459"><ele>840.0</ele><time>2026-04-06T13:05:52Z</time></trkpt><trkpt lat="44.44799205316433" lon="9.908027024422312"><ele>840.0</ele><time>2026-04-06T13:05:53Z</time></trkpt><trkpt lat="44.44788531910207" lon="9.90810807357599"><ele>840.0</ele><time>2026-04-06T13:05:54Z</time></trkpt><trkpt lat="44.44778315051522" lon="9.90822224252175"><ele>840.0</ele><time>2026-04-06T13:05:55Z</time></trkpt><trkpt lat="44.447660050857316" lon="9.908304010926171"><ele>835.0</ele><time>2026-04-06T13:05:56Z</time></trkpt><trkpt lat="44.4475423940576" lon="9.908409600840978"><ele>830.0</ele><time>2026-04-06T13:05:57Z</time></trkpt><trkpt lat="44.44436916377332" lon="9.906575213715646"><ele>811.5</ele><time>2026-04-06T13:06:58Z</time></trkpt><trkpt lat="44.4444223286297" lon="9.906735372485194"><ele>793.0</ele><time>2026-04-06T13:06:59Z</time></trkpt><trkpt lat="44.44447537920403" lon="9.906886809056951"><ele>774.5</ele><time>2026-04-06T13:07:00Z</time></trkpt><trkpt lat="44.44449342480335" lon="9.907049183447768"><ele>756.0</ele><time>2026-04-06T13:07:01Z</time></trkpt><trkpt lat="44.44448011716261" lon="9.907210938474696"><ele>756.0</ele><time>2026-04-06T13:07:02Z</time></trkpt><trkpt lat="44.44443857139037" lon="9.907382874168253"><ele>756.0</ele><time>2026-04-06T13:07:03Z</time></trkpt><trkpt lat="44.44435971250292" lon="9.907555605356112"><ele>756.0</ele><time>2026-04-06T13:07:04Z</time></trkpt><trkpt lat="44.44425251684426" lon="9.907722725830721"><ele>756.0</ele><time>2026-04-06T13:07:05Z</time></trkpt><trkpt lat="44.4441473824557" lon="9.907868339062306"><ele>757.5</ele><time>2026-04-06T13:07:06Z</time></trkpt><trkpt lat="44.44404200019975" lon="9.908020562675292"><ele>759.0</ele><time>2026-04-06T13:07:07Z</time></trkpt><trkpt lat="44.443960630381376" lon="9.908176564789777"><ele>760.5</ele><time>2026-04-06T13:07:08Z</time></trkpt><trkpt lat="44.44390628249012" lon="9.908361336126429"><ele>762.0</ele><time>2026-04-06T13:07:09Z</time></trkpt><trkpt lat="44.443876927294106" lon="9.908570851305434"><ele>762.0</ele><time>2026-04-06T13:07:10Z</time></trkpt><trkpt lat="44.44384578297309" lon="9.908786472307238"><ele>762.0</ele><time>2026-04-06T13:07:11Z</time></trkpt><trkpt lat="44.44380056828515" lon="9.908972595591706"><ele>762.0</ele><time>2026-04-06T13:07:12Z</time></trkpt><trkpt lat="44.44373490916641" lon="9.909143322009529"><ele>762.0</ele><time>2026-04-06T13:07:13Z</time></trkpt><trkpt lat="44.44365662535161" lon="9.909301192743163"><ele>759.5</ele><time>2026-04-06T13:07:14Z</time></trkpt><trkpt lat="44.443568805647175" lon="9.909447230212496"><ele>757.0</ele><time>2026-04-06T13:07:15Z</time></trkpt><trkpt lat="44.44346737180726" lon="9.909574561256655"><ele>754.5</ele><time>2026-04-06T13:07:16Z</time></trkpt><trkpt lat="44.44334931685882" lon="9.909681327387084"><ele>752.0</ele><time>2026-04-06T13:07:17Z</time></trkpt><trkpt lat="44.44321254266409" lon="9.909753734949701"><ele>752.0</ele><time>2026-04-06T13:07:18Z</time></trkpt><trkpt lat="44.44306975849997" lon="9.909798575194028"><ele>752.0</ele><time>2026-04-06T13:07:19Z</time></trkpt><trkpt lat="44.44293128547633" lon="9.909840553530973"><ele>752.0</ele><time>2026-04-06T13:07:20Z</time></trkpt><trkpt lat="44.44278291703835" lon="9.909883931174795"><ele>752.0</ele><time>2026-04-06T13:07:21Z</time></trkpt><trkpt lat="44.442638088515736" lon="9.909900827738062"><ele>748.75</ele><time>2026-04-06T13:07:22Z</time></trkpt><trkpt lat="44.44249752959554" lon="9.909879186847137"><ele>745.5</ele><time>2026-04-06T13:07:23Z</time></trkpt><trkpt lat="44.44237071962428" lon="9.909817198494153"><ele>742.25</ele><time>2026-04-06T13:07:24Z</time></trkpt><trkpt lat="44.44225732197335" lon="9.909723352968035"><ele>739.0</ele><time>2026-04-06T13:07:25Z</time></trkpt><trkpt lat="44.44218021748981" lon="9.90958581760831"><ele>737.75</ele><time>2026-04-06T13:07:26Z</time></trkpt><trkpt lat="44.44208810042024" lon="9.909446504997602"><ele>736.5</ele><time>2026-04-06T13:07:27Z</time></trkpt><trkpt lat="44.441997162085755" lon="9.909344018121006"><ele>735.25</ele><time>2026-04-06T13:07:28Z</time></trkpt><trkpt lat="44.44189231927587" lon="9.909283698037653"><ele>734.0</ele><time>2026-04-06T13:07:29Z</time></trkpt><trkpt lat="44.441774881556356" lon="9.909331922671242"><ele>734.0</ele><time>2026-04-06T13:07:30Z</time></trkpt><trkpt lat="44.44166124605073" lon="9.909421270758907"><ele>734.0</ele><time>2026-04-06T13:07:31Z</time></trkpt><trkpt lat="44.44154805539865" lon="9.909578062264968"><ele>734.0</ele><time>2026-04-06T13:07:32Z</time></trkpt><trkpt lat="44.44141758717835" lon="9.909747464661482"><ele>732.3333333333333</ele><time>2026-04-06T13:07:33Z</time></trkpt><trkpt lat="44.4412898159715" lon="9.909887917644102"><ele>730.6666666666666</ele><time>2026-04-06T13:07:34Z</time></trkpt><trkpt lat="44.44116004415818" lon="9.91004373332994"><ele>729.0</ele><time>2026-04-06T13:07:35Z</time></trkpt><trkpt lat="44.441017199681724" lon="9.910134603763188"><ele>729.0</ele><time>2026-04-06T13:07:36Z</time></trkpt><trkpt lat="44.44086740657752" lon="9.910211604624196"><ele>729.0</ele><time>2026-04-06T13:07:37Z</time></trkpt><trkpt lat="44.44070741137785" lon="9.910273011606145"><ele>729.0</ele><time>2026-04-06T13:07:38Z</time></trkpt><trkpt lat="44.440537147439315" lon="9.910327614751987"><ele>724.6666666666666</ele><time>2026-04-06T13:07:39Z</time></trkpt><trkpt lat="44.44037059868786" lon="9.910376901639882"><ele>720.3333333333333</ele><time>2026-04-06T13:07:40Z</time></trkpt><trkpt lat="44.44020015636092" lon="9.910398183952637"><ele>716.0</ele><time>2026-04-06T13:07:41Z</time></trkpt><trkpt lat="44.44002274081107" lon="9.910412659024212"><ele>716.0</ele><time>2026-04-06T13:07:42Z</time></trkpt><trkpt lat="44.43984852575947" lon="9.910427114486666"><ele>716.0</ele><time>2026-04-06T13:07:43Z</time></trkpt><trkpt lat="44.43969699105569" lon="9.910434196347477"><ele>716.0</ele><time>2026-04-06T13:07:44Z</time></trkpt><trkpt lat="44.43957215623305" lon="9.910428545148793"><ele>715.8</ele><time>2026-04-06T13:07:45Z</time></trkpt><trkpt lat="44.43946426969409" lon="9.9103754739465"><ele>715.5999999999999</ele><time>2026-04-06T13:07:46Z</time></trkpt><trkpt lat="44.439405228307834" lon="9.910291490955144"><ele>715.4</ele><time>2026-04-06T13:07:47Z</time></trkpt><trkpt lat="44.439362047669206" lon="9.910139955971163"><ele>715.2</ele><time>2026-04-06T13:07:48Z</time></trkpt><trkpt lat="44.43929411383649" lon="9.909993462396834"><ele>715.0</ele><time>2026-04-06T13:07:49Z</time></trkpt><trkpt lat="44.43921171585521" lon="9.909901777811115"><ele>714.0</ele><time>2026-04-06T13:07:50Z</time></trkpt><trkpt lat="44.439072501043704" lon="9.90980600114091"><ele>713.0</ele><time>2026-04-06T13:07:51Z</time></trkpt><trkpt lat="44.43891886293478" lon="9.909792320255185"><ele>712.0</ele><time>2026-04-06T13:07:52Z</time></trkpt><trkpt lat="44.43873719989595" lon="9.909815329317155"><ele>712.0</ele><time>2026-04-06T13:07:53Z</time></trkpt><trkpt lat="44.43855091103754" lon="9.909796292435969"><ele>712.0</ele><time>2026-04-06T13:07:54Z</time></trkpt><trkpt lat="44.43836561105747" lon="9.909785096105304"><ele>712.0</ele><time>2026-04-06T13:07:55Z</time></trkpt><trkpt lat="44.43818653438334" lon="9.909733905467126"><ele>712.0</ele><time>2026-04-06T13:07:56Z</time></trkpt><trkpt lat="44.4380209536212" lon="9.909692958764206"><ele>712.0</ele><time>2026-04-06T13:07:57Z</time></trkpt><trkpt lat="44.430147228112574" lon="9.908670246900787"><ele>699.5</ele><time>2026-04-06T13:08:58Z</time></trkpt><trkpt lat="44.43003257570369" lon="9.908691055447482"><ele>687.0</ele><time>2026-04-06T13:08:59Z</time></trkpt><trkpt lat="44.429907864005735" lon="9.908681607387395"><ele>674.5</ele><time>2026-04-06T13:09:00Z</time></trkpt><trkpt lat="44.4298004994162" lon="9.908646111638278"><ele>662.0</ele><time>2026-04-06T13:09:01Z</time></trkpt><trkpt lat="44.42971371067345" lon="9.908563975419925"><ele>661.0</ele><time>2026-04-06T13:09:02Z</time></trkpt><trkpt lat="44.42962732257139" lon="9.908434921215099"><ele>660.0</ele><time>2026-04-06T13:09:03Z</time></trkpt><trkpt lat="44.42951602714863" lon="9.908350032236035"><ele>659.0</ele><time>2026-04-06T13:09:04Z</time></trkpt><trkpt lat="44.429388786401624" lon="9.908332808479248"><ele>658.0</ele><time>2026-04-06T13:09:05Z</time></trkpt><trkpt lat="44.42923756985254" lon="9.90836988754934"><ele>658.0</ele><time>2026-04-06T13:09:06Z</time></trkpt><trkpt lat="44.429063089088714" lon="9.908432800674229"><ele>658.0</ele><time>2026-04-06T13:09:07Z</time></trkpt><trkpt lat="44.42889384767032" lon="9.908456572542686"><ele>658.0</ele><time>2026-04-06T13:09:08Z</time></trkpt><trkpt lat="44.42873957031794" lon="9.908469785485643"><ele>657.6666666666667</ele><time>2026-04-06T13:09:09Z</time></trkpt><trkpt lat="44.428588367044505" lon="9.908435197268433"><ele>657.3333333333334</ele><time>2026-04-06T13:09:10Z</time></trkpt><trkpt lat="44.42844163735268" lon="9.908368001609785"><ele>657.0</ele><time>2026-04-06T13:09:11Z</time></trkpt><trkpt lat="44.42828074933455" lon="9.908291388093959"><ele>656.6666666666666</ele><time>2026-04-06T13:09:12Z</time></trkpt><trkpt lat="44.4281213229845" lon="9.90818245774212"><ele>656.3333333333333</ele><time>2026-04-06T13:09:13Z</time></trkpt><trkpt lat="44.427948425699135" lon="9.90809637301534"><ele>656.0</ele><time>2026-04-06T13:09:14Z</time></trkpt><trkpt lat="44.42776320966096" lon="9.908043223112955"><ele>656.0</ele><time>2026-04-06T13:09:15Z</time></trkpt><trkpt lat="44.427587198211135" lon="9.907966763134576"><ele>656.0</ele><time>2026-04-06T13:09:16Z</time></trkpt><trkpt lat="44.42740975809487" lon="9.907888667512905"><ele>656.0</ele><time>2026-04-06T13:09:17Z</time></trkpt><trkpt lat="44.42723018941643" lon="9.907819535626281"><ele>652.6666666666666</ele><time>2026-04-06T13:09:18Z</time></trkpt><trkpt lat="44.42705766544764" lon="9.907738006223218"><ele>649.3333333333334</ele><time>2026-04-06T13:09:19Z</time></trkpt><trkpt lat="44.426901255150966" lon="9.907666265795084"><ele>646.0</ele><time>2026-04-06T13:09:20Z</time></trkpt><trkpt lat="44.426763594911556" lon="9.907617854835676"><ele>646.0</ele><time>2026-04-06T13:09:21Z</time></trkpt><trkpt lat="44.42661821533702" lon="9.90762025332231"><ele>646.0</ele><time>2026-04-06T13:09:22Z</time></trkpt><trkpt lat="44.42647680334352" lon="9.90767975823646"><ele>646.0</ele><time>2026-04-06T13:09:23Z</time></trkpt><trkpt lat="44.426335051899116" lon="9.907737840721591"><ele>646.0</ele><time>2026-04-06T13:09:24Z</time></trkpt><trkpt lat="44.42622326142838" lon="9.907785050007456"><ele>646.5</ele><time>2026-04-06T13:09:25Z</time></trkpt><trkpt lat="44.426119500870556" lon="9.907809615733873"><ele>647.0</ele><time>2026-04-06T13:09:26Z</time></trkpt><trkpt lat="44.42603242254767" lon="9.907711909543966"><ele>647.5</ele><time>2026-04-06T13:09:27Z</time></trkpt><trkpt lat="44.42596588713665" lon="9.907580500084585"><ele>648.0</ele><time>2026-04-06T13:09:28Z</time></trkpt><trkpt lat="44.42589903027375" lon="9.907412207982512"><ele>648.0</ele><time>2026-04-06T13:09:29Z</time></trkpt><trkpt lat="44.42582100292414" lon="9.907208011270948"><ele>648.0</ele><time>2026-04-06T13:09:30Z</time></trkpt><trkpt lat="44.42573246796208" lon="9.906979267662553"><ele>648.0</ele><time>2026-04-06T13:09:31Z</time></trkpt><trkpt lat="44.42562027581045" lon="9.906770701318164"><ele>652.0</ele><time>2026-04-06T13:09:32Z</time></trkpt><trkpt lat="44.425492876073086" lon="9.906589128914778"><ele>656.0</ele><time>2026-04-06T13:09:33Z</time></trkpt><trkpt lat="44.425379423845776" lon="9.906407105666826"><ele>660.0</ele><time>2026-04-06T13:09:34Z</time></trkpt><trkpt lat="44.42526367434557" lon="9.90624925958504"><ele>651.3333333333334</ele><time>2026-04-06T13:09:35Z</time></trkpt><trkpt lat="44.425126861897255" lon="9.906123417847667"><ele>642.6666666666667</ele><time>2026-04-06T13:09:36Z</time></trkpt><trkpt lat="44.42497651188573" lon="9.906013117901498"><ele>634.0</ele><time>2026-04-06T13:09:37Z</time></trkpt><trkpt lat="44.42483481044226" lon="9.905916286783139"><ele>631.6666666666667</ele><time>2026-04-06T13:09:38Z</time></trkpt><trkpt lat="44.42470433234081" lon="9.905793201430672"><ele>629.3333333333334</ele><time>2026-04-06T13:09:39Z</time></trkpt><trkpt lat="44.4245941414132" lon="9.905652927832342"><ele>627.0</ele><time>2026-04-06T13:09:40Z</time></trkpt><trkpt lat="44.42449205614825" lon="9.905483681222051"><ele>627.0</ele><time>2026-04-06T13:09:41Z</time></trkpt><trkpt lat="44.42439511702921" lon="9.905296369020482"><ele>627.0</ele><time>2026-04-06T13:09:42Z</time></trkpt><trkpt lat="44.424318007293856" lon="9.905118419536553"><ele>627.0</ele><time>2026-04-06T13:09:43Z</time></trkpt><trkpt lat="44.42426476712285" lon="9.904934043862534"><ele>630.25</ele><time>2026-04-06T13:09:44Z</time></trkpt><trkpt lat="44.42423293309117" lon="9.904746610639656"><ele>633.5</ele><time>2026-04-06T13:09:45Z</time></trkpt><trkpt lat="44.424191644924115" lon="9.904577133529013"><ele>636.75</ele><time>2026-04-06T13:09:46Z</time></trkpt><trkpt lat="44.42412921392801" lon="9.904440106092197"><ele>640.0</ele><time>2026-04-06T13:09:47Z</time></trkpt><trkpt lat="44.424012099175066" lon="9.904327913963247"><ele>640.3333333333334</ele><time>2026-04-06T13:09:48Z</time></trkpt><trkpt lat="44.423848965161355" lon="9.904235570281228"><ele>640.6666666666666</ele><time>2026-04-06T13:09:49Z</time></trkpt><trkpt lat="44.423676365835895" lon="9.904152732024315"><ele>641.0</ele><time>2026-04-06T13:09:50Z</time></trkpt><trkpt lat="44.423519924904454" lon="9.90408444648389"><ele>639.0</ele><time>2026-04-06T13:09:51Z</time></trkpt><trkpt lat="44.42335771674055" lon="9.904041131636065"><ele>637.0</ele><time>2026-04-06T13:09:52Z</time></trkpt><trkpt lat="44.42320150875492" lon="9.904021724106478"><ele>635.0</ele><time>2026-04-06T13:09:53Z</time></trkpt><trkpt lat="44.423048960204234" lon="9.904022952644713"><ele>633.5</ele><time>2026-04-06T13:09:54Z</time></trkpt><trkpt lat="44.42290331379132" lon="9.904048253403642"><ele>632.0</ele><time>2026-04-06T13:09:55Z</time></trkpt><trkpt lat="44.422762277600825" lon="9.904106811690452"><ele>630.5</ele><time>2026-04-06T13:09:56Z</time></trkpt><trkpt lat="44.42263485585106" lon="9.904217922465534"><ele>629.0</ele><time>2026-04-06T13:09:57Z</time></trkpt><trkpt lat="44.416546999675816" lon="9.902301905569372"><ele>622.75</ele><time>2026-04-06T13:11:02Z</time></trkpt><trkpt lat="44.41640565173054" lon="9.90225772739489"><ele>616.5</ele><time>2026-04-06T13:11:14Z</time></trkpt><trkpt lat="44.41628209441132" lon="9.902233910703895"><ele>610.25</ele><time>2026-04-06T13:11:15Z</time></trkpt><trkpt lat="44.41615360606495" lon="9.902208707374722"><ele>604.0</ele><time>2026-04-06T13:11:16Z</time></trkpt><trkpt lat="44.41601488833574" lon="9.902180191389466"><ele>603.0</ele><time>2026-04-06T13:11:17Z</time></trkpt><trkpt lat="44.41589762489755" lon="9.902154970967288"><ele>602.0</ele><time>2026-04-06T13:11:18Z</time></trkpt><trkpt lat="44.41579636459141" lon="9.90212469336848"><ele>601.0</ele><time>2026-04-06T13:11:19Z</time></trkpt><trkpt lat="44.415702120661706" lon="9.902057680268475"><ele>600.0</ele><time>2026-04-06T13:11:20Z</time></trkpt><trkpt lat="44.415617560352935" lon="9.901937939946658"><ele>599.0</ele><time>2026-04-06T13:11:21Z</time></trkpt><trkpt lat="44.415537064351284" lon="9.901755337487145"><ele>594.6666666666666</ele><time>2026-04-06T13:11:22Z</time></trkpt><trkpt lat="44.415471895770565" lon="9.901510704873095"><ele>590.3333333333334</ele><time>2026-04-06T13:11:23Z</time></trkpt><trkpt lat="44.41538722816172" lon="9.901275432190104"><ele>586.0</ele><time>2026-04-06T13:11:24Z</time></trkpt><trkpt lat="44.415283085170145" lon="9.901043638847248"><ele>593.0</ele><time>2026-04-06T13:11:25Z</time></trkpt><trkpt lat="44.41513152604836" lon="9.900819728795865"><ele>600.0</ele><time>2026-04-06T13:11:26Z</time></trkpt><trkpt lat="44.41499713726728" lon="9.900606559306365"><ele>607.0</ele><time>2026-04-06T13:11:27Z</time></trkpt><trkpt lat="44.41490351917976" lon="9.900387422706979"><ele>607.0</ele><time>2026-04-06T13:11:28Z</time></trkpt><trkpt lat="44.41484420609017" lon="9.900153627518014"><ele>607.0</ele><time>2026-04-06T13:11:29Z</time></trkpt><trkpt lat="44.4147503075678" lon="9.899980561586817"><ele>607.0</ele><time>2026-04-06T13:11:30Z</time></trkpt><trkpt lat="44.41463881439553" lon="9.899836232460542"><ele>603.3333333333334</ele><time>2026-04-06T13:11:31Z</time></trkpt><trkpt lat="44.41454809544042" lon="9.899654881712525"><ele>599.6666666666666</ele><time>2026-04-06T13:11:32Z</time></trkpt><trkpt lat="44.41451073066849" lon="9.89940895737628"><ele>596.0</ele><time>2026-04-06T13:11:33Z</time></trkpt><trkpt lat="44.4144615606123" lon="9.899135385341328"><ele>596.0</ele><time>2026-04-06T13:11:34Z</time></trkpt><trkpt lat="44.41443428340258" lon="9.89882328654808"><ele>596.0</ele><time>2026-04-06T13:11:35Z</time></trkpt><trkpt lat="44.4143993233136" lon="9.898516895401732"><ele>596.0</ele><time>2026-04-06T13:11:36Z</time></trkpt><trkpt lat="44.41436894112368" lon="9.898256721247218"><ele>599.6666666666666</ele><time>2026-04-06T13:11:37Z</time></trkpt><trkpt lat="44.41433606755881" lon="9.898022400485988"><ele>603.3333333333334</ele><time>2026-04-06T13:11:38Z</time></trkpt><trkpt lat="44.414282795384366" lon="9.89781731379737"><ele>607.0</ele><time>2026-04-06T13:11:39Z</time></trkpt><trkpt lat="44.414205066704355" lon="9.897634317344737"><ele>602.3333333333334</ele><time>2026-04-06T13:11:40Z</time></trkpt><trkpt lat="44.41410509633019" lon="9.897487865797485"><ele>597.6666666666666</ele><time>2026-04-06T13:11:41Z</time></trkpt><trkpt lat="44.41397185286209" lon="9.89735974973402"><ele>593.0</ele><time>2026-04-06T13:11:42Z</time></trkpt><trkpt lat="44.413814428026726" lon="9.897268970633124"><ele>593.0</ele><time>2026-04-06T13:11:43Z</time></trkpt><trkpt lat="44.41365831216044" lon="9.897205174048155"><ele>593.0</ele><time>2026-04-06T13:11:44Z</time></trkpt><trkpt lat="44.41353947076979" lon="9.897113732706373"><ele>593.0</ele><time>2026-04-06T13:11:45Z</time></trkpt><trkpt lat="44.41344116563967" lon="9.897031051682642"><ele>593.0</ele><time>2026-04-06T13:11:46Z</time></trkpt><trkpt lat="44.413372627851544" lon="9.896910672703164"><ele>593.0</ele><time>2026-04-06T13:11:47Z</time></trkpt><trkpt lat="44.41333940947795" lon="9.896766341189085"><ele>593.0</ele><time>2026-04-06T13:11:48Z</time></trkpt><trkpt lat="44.41330664773393" lon="9.89658923423808"><ele>593.0</ele><time>2026-04-06T13:11:49Z</time></trkpt><trkpt lat="44.4132728308851" lon="9.896377378657027"><ele>593.0</ele><time>2026-04-06T13:11:50Z</time></trkpt><trkpt lat="44.41323550863603" lon="9.89612789388325"><ele>601.0</ele><time>2026-04-06T13:11:51Z</time></trkpt><trkpt lat="44.41320358877553" lon="9.89586160954571"><ele>609.0</ele><time>2026-04-06T13:11:52Z</time></trkpt><trkpt lat="44.41317554929038" lon="9.89559283953175"><ele>617.0</ele><time>2026-04-06T13:11:53Z</time></trkpt><trkpt lat="44.41314667811337" lon="9.895331671806069"><ele>617.0</ele><time>2026-04-06T13:11:54Z</time></trkpt><trkpt lat="44.413118476081316" lon="9.895094460119841"><ele>617.0</ele><time>2026-04-06T13:11:55Z</time></trkpt><trkpt lat="44.41308426063614" lon="9.89487407037871"><ele>617.0</ele><time>2026-04-06T13:11:56Z</time></trkpt><trkpt lat="44.41305208672297" lon="9.89468590339365"><ele>514.0</ele><time>2026-04-06T13:11:57Z</time></trkpt><trkpt lat="44.40632451450092" lon="9.88557631732237"><ele>514.0</ele><time>2026-04-06T13:12:58Z</time></trkpt><trkpt lat="44.4061871930257" lon="9.885447212310764"><ele>514.0</ele><time>2026-04-06T13:12:59Z</time></trkpt><trkpt lat="44.40606665428395" lon="9.885335740227296"><ele>514.0</ele><time>2026-04-06T13:13:00Z</time></trkpt><trkpt lat="44.40594726874136" lon="9.885206648843686"><ele>520.3333333333334</ele><time>2026-04-06T13:13:01Z</time></trkpt><trkpt lat="44.40583995559402" lon="9.885028638463805"><ele>526.6666666666666</ele><time>2026-04-06T13:13:02Z</time></trkpt><trkpt lat="44.405757052895154" lon="9.884821245698667"><ele>533.0</ele><time>2026-04-06T13:13:03Z</time></trkpt><trkpt lat="44.40563696179506" lon="9.884628282167949"><ele>533.0</ele><time>2026-04-06T13:13:04Z</time></trkpt><trkpt lat="44.405503845055485" lon="9.884423062066142"><ele>533.0</ele><time>2026-04-06T13:13:05Z</time></trkpt><trkpt lat="44.405356156322036" lon="9.884234819983009"><ele>533.0</ele><time>2026-04-06T13:13:06Z</time></trkpt><trkpt lat="44.40520467939935" lon="9.884071263848307"><ele>530.3333333333333</ele><time>2026-04-06T13:13:07Z</time></trkpt><trkpt lat="44.40504011593698" lon="9.88392202747577"><ele>527.6666666666666</ele><time>2026-04-06T13:13:08Z</time></trkpt><trkpt lat="44.40487317907217" lon="9.883779476820147"><ele>525.0</ele><time>2026-04-06T13:13:09Z</time></trkpt><trkpt lat="44.404694238000765" lon="9.883661958672848"><ele>520.3333333333334</ele><time>2026-04-06T13:13:10Z</time></trkpt><trkpt lat="44.40450695355992" lon="9.883572172796061"><ele>515.6666666666667</ele><time>2026-04-06T13:13:11Z</time></trkpt><trkpt lat="44.4043405621502" lon="9.883492513467795"><ele>511.0</ele><time>2026-04-06T13:13:12Z</time></trkpt><trkpt lat="44.404198182858366" lon="9.883417561426075"><ele>511.0</ele><time>2026-04-06T13:13:13Z</time></trkpt><trkpt lat="44.404064935193404" lon="9.88335295053959"><ele>511.0</ele><time>2026-04-06T13:13:14Z</time></trkpt><trkpt lat="44.40394195727801" lon="9.883291492555212"><ele>511.0</ele><time>2026-04-06T13:13:15Z</time></trkpt><trkpt lat="44.40384515846696" lon="9.883231696248227"><ele>511.0</ele><time>2026-04-06T13:13:16Z</time></trkpt><trkpt lat="44.40375274690771" lon="9.883196028993794"><ele>510.6</ele><time>2026-04-06T13:13:17Z</time></trkpt><trkpt lat="44.4036441450978" lon="9.883270102078766"><ele>510.20000000000005</ele><time>2026-04-06T13:13:19Z</time></trkpt><trkpt lat="44.403630635949305" lon="9.883392542030249"><ele>509.79999999999995</ele><time>2026-04-06T13:13:20Z</time></trkpt><trkpt lat="44.403665060962105" lon="9.88351531620976"><ele>509.4</ele><time>2026-04-06T13:13:21Z</time></trkpt><trkpt lat="44.4037420220525" lon="9.883601362568179"><ele>509.0</ele><time>2026-04-06T13:13:22Z</time></trkpt><trkpt lat="44.403861357781864" lon="9.883657651876925"><ele>509.0</ele><time>2026-04-06T13:13:23Z</time></trkpt><trkpt lat="44.40400604569639" lon="9.883748066186827"><ele>509.0</ele><time>2026-04-06T13:13:24Z</time></trkpt><trkpt lat="44.404157976455416" lon="9.883890695050223"><ele>509.0</ele><time>2026-04-06T13:13:25Z</time></trkpt><trkpt lat="44.40430901526294" lon="9.884079854932333"><ele>509.0</ele><time>2026-04-06T13:13:26Z</time></trkpt><trkpt lat="44.40441255424746" lon="9.884248363987782"><ele>509.0</ele><time>2026-04-06T13:13:27Z</time></trkpt><trkpt lat="44.40450946321909" lon="9.884399689489852"><ele>509.0</ele><time>2026-04-06T13:13:28Z</time></trkpt><trkpt lat="44.40461211501262" lon="9.88453114781206"><ele>509.0</ele><time>2026-04-06T13:13:29Z</time></trkpt><trkpt lat="44.40470179891318" lon="9.884642913839878"><ele>509.49999999999994</ele><time>2026-04-06T13:13:30Z</time></trkpt><trkpt lat="44.404785401463634" lon="9.88473812222759"><ele>510.0</ele><time>2026-04-06T13:13:31Z</time></trkpt><trkpt lat="44.4048606100921" lon="9.88482195349293"><ele>510.5</ele><time>2026-04-06T13:13:32Z</time></trkpt><trkpt lat="44.40490951799185" lon="9.8848995583055"><ele>511.0</ele><time>2026-04-06T13:13:33Z</time></trkpt><trkpt lat="44.404908326916896" lon="9.884999639522063"><ele>511.49999999999994</ele><time>2026-04-06T13:13:34Z</time></trkpt><trkpt lat="44.40485378990133" lon="9.885099295808768"><ele>512.0</ele><time>2026-04-06T13:13:35Z</time></trkpt><trkpt lat="44.40476695460851" lon="9.88513757725587"><ele>508.0</ele><time>2026-04-06T13:13:36Z</time></trkpt><trkpt lat="44.40467269033771" lon="9.885102447995216"><ele>504.0</ele><time>2026-04-06T13:13:37Z</time></trkpt><trkpt lat="44.404583918980435" lon="9.884983421510979"><ele>500.0</ele><time>2026-04-06T13:13:38Z</time></trkpt><trkpt lat="44.40448001894307" lon="9.884852645797979"><ele>496.0</ele><time>2026-04-06T13:13:39Z</time></trkpt><trkpt lat="44.40435100916286" lon="9.884749092434197"><ele>495.75</ele><time>2026-04-06T13:13:40Z</time></trkpt><trkpt lat="44.404220528080494" lon="9.884657083177006"><ele>495.5</ele><time>2026-04-06T13:13:41Z</time></trkpt><trkpt lat="44.404094183879884" lon="9.884554575388712"><ele>495.25</ele><time>2026-04-06T13:13:42Z</time></trkpt><trkpt lat="44.40397565591491" lon="9.884448612142334"><ele>495.0</ele><time>2026-04-06T13:13:43Z</time></trkpt><trkpt lat="44.40387257088706" lon="9.88433116725324"><ele>495.0</ele><time>2026-04-06T13:13:44Z</time></trkpt><trkpt lat="44.403789231079394" lon="9.884197574788352"><ele>495.0</ele><time>2026-04-06T13:13:45Z</time></trkpt><trkpt lat="44.40369194357474" lon="9.88408881479727"><ele>495.0</ele><time>2026-04-06T13:13:46Z</time></trkpt><trkpt lat="44.403561307168246" lon="9.884024607839393"><ele>495.0</ele><time>2026-04-06T13:13:47Z</time></trkpt><trkpt lat="44.40340852691157" lon="9.883997114606748"><ele>495.0</ele><time>2026-04-06T13:13:48Z</time></trkpt><trkpt lat="44.40324787760654" lon="9.883965635083548"><ele>495.0</ele><time>2026-04-06T13:13:49Z</time></trkpt><trkpt lat="44.40310246931972" lon="9.8839007243267"><ele>495.0</ele><time>2026-04-06T13:13:50Z</time></trkpt><trkpt lat="44.40297242565842" lon="9.883817160686677"><ele>491.75</ele><time>2026-04-06T13:13:51Z</time></trkpt><trkpt lat="44.40283318746351" lon="9.883765662997556"><ele>488.5</ele><time>2026-04-06T13:13:52Z</time></trkpt><trkpt lat="44.402684193689865" lon="9.883755700401316"><ele>485.25</ele><time>2026-04-06T13:13:53Z</time></trkpt><trkpt lat="44.40253110935251" lon="9.883779547907945"><ele>482.0</ele><time>2026-04-06T13:13:54Z</time></trkpt><trkpt lat="44.40237889469648" lon="9.883795335444457"><ele>482.0</ele><time>2026-04-06T13:13:55Z</time></trkpt><trkpt lat="44.40223606851942" lon="9.883771408546574"><ele>482.0</ele><time>2026-04-06T13:13:56Z</time></trkpt><trkpt lat="44.402102853311" lon="9.883704460449493"><ele>482.0</ele><time>2026-04-06T13:13:57Z</time></trkpt><trkpt lat="44.401823416749444" lon="9.885133320967748"><ele>470.66666666666663</ele><time>2026-04-06T13:14:58Z</time></trkpt><trkpt lat="44.401655504408964" lon="9.885095517310091"><ele>459.33333333333337</ele><time>2026-04-06T13:14:59Z</time></trkpt><trkpt lat="44.401483938670566" lon="9.885032604566659"><ele>448.0</ele><time>2026-04-06T13:15:00Z</time></trkpt><trkpt lat="44.401312520659076" lon="9.884953123854961"><ele>439.6666666666667</ele><time>2026-04-06T13:15:01Z</time></trkpt><trkpt lat="44.40115036147776" lon="9.88488115943123"><ele>431.33333333333337</ele><time>2026-04-06T13:15:02Z</time></trkpt><trkpt lat="44.400993265256844" lon="9.884805919446839"><ele>423.0</ele><time>2026-04-06T13:15:03Z</time></trkpt><trkpt lat="44.400841864794245" lon="9.884703952538564"><ele>423.0</ele><time>2026-04-06T13:15:04Z</time></trkpt><trkpt lat="44.40070427430038" lon="9.884558746793418"><ele>423.0</ele><time>2026-04-06T13:15:05Z</time></trkpt><trkpt lat="44.4005711993719" lon="9.884407280944833"><ele>423.0</ele><time>2026-04-06T13:15:06Z</time></trkpt><trkpt lat="44.40043346275595" lon="9.884288383655177"><ele>423.33333333333337</ele><time>2026-04-06T13:15:07Z</time></trkpt><trkpt lat="44.4002761896183" lon="9.88421233739784"><ele>423.6666666666667</ele><time>2026-04-06T13:15:08Z</time></trkpt><trkpt lat="44.40012302808949" lon="9.88415044236642"><ele>424.0</ele><time>2026-04-06T13:15:09Z</time></trkpt><trkpt lat="44.39999359065253" lon="9.88400852196512"><ele>424.0</ele><time>2026-04-06T13:15:10Z</time></trkpt><trkpt lat="44.3998512865977" lon="9.883872865556404"><ele>424.0</ele><time>2026-04-06T13:15:11Z</time></trkpt><trkpt lat="44.39972492226848" lon="9.88373008038666"><ele>424.0</ele><time>2026-04-06T13:15:12Z</time></trkpt><trkpt lat="44.399603202424544" lon="9.883603844643428"><ele>421.0</ele><time>2026-04-06T13:15:13Z</time></trkpt><trkpt lat="44.399497260559336" lon="9.883489145342466"><ele>418.0</ele><time>2026-04-06T13:15:14Z</time></trkpt><trkpt lat="44.3994179170046" lon="9.883370943769895"><ele>415.0</ele><time>2026-04-06T13:15:15Z</time></trkpt><trkpt lat="44.39937346267471" lon="9.883218381140935"><ele>412.0</ele><time>2026-04-06T13:15:16Z</time></trkpt><trkpt lat="44.39937149119035" lon="9.883039526058809"><ele>412.0</ele><time>2026-04-06T13:15:17Z</time></trkpt><trkpt lat="44.39938805971723" lon="9.882857928490312"><ele>412.0</ele><time>2026-04-06T13:15:18Z</time></trkpt><trkpt lat="44.39935196657269" lon="9.88270079531124"><ele>412.0</ele><time>2026-04-06T13:15:19Z</time></trkpt><trkpt lat="44.39925497178952" lon="9.882584873976205"><ele>412.0</ele><time>2026-04-06T13:15:20Z</time></trkpt><trkpt lat="44.399124831835614" lon="9.882506750760728"><ele>414.25</ele><time>2026-04-06T13:15:21Z</time></trkpt><trkpt lat="44.398984220452945" lon="9.882463867266694"><ele>416.5</ele><time>2026-04-06T13:15:22Z</time></trkpt><trkpt lat="44.398863409523464" lon="9.882409107000221"><ele>418.75</ele><time>2026-04-06T13:15:23Z</time></trkpt><trkpt lat="44.398763395174385" lon="9.88232012438477"><ele>421.0</ele><time>2026-04-06T13:15:24Z</time></trkpt><trkpt lat="44.398693043113376" lon="9.882185435770536"><ele>415.8</ele><time>2026-04-06T13:15:25Z</time></trkpt><trkpt lat="44.3986512032747" lon="9.882027557686813"><ele>410.6</ele><time>2026-04-06T13:15:26Z</time></trkpt><trkpt lat="44.398612844530206" lon="9.881874074841306"><ele>405.4</ele><time>2026-04-06T13:15:27Z</time></trkpt><trkpt lat="44.39856809174119" lon="9.881749015307363"><ele>400.2</ele><time>2026-04-06T13:15:28Z</time></trkpt><trkpt lat="44.39852186174387" lon="9.881641406477462"><ele>395.0</ele><time>2026-04-06T13:15:29Z</time></trkpt><trkpt lat="44.39846635241653" lon="9.881592315760866"><ele>395.0</ele><time>2026-04-06T13:15:30Z</time></trkpt><trkpt lat="44.39839589012152" lon="9.881597585635765"><ele>395.0</ele><time>2026-04-06T13:15:31Z</time></trkpt><trkpt lat="44.39833374761765" lon="9.881670917930034"><ele>395.0</ele><time>2026-04-06T13:15:32Z</time></trkpt><trkpt lat="44.398350071560436" lon="9.88184511440758"><ele>395.0</ele><time>2026-04-06T13:15:33Z</time></trkpt><trkpt lat="44.398382692457744" lon="9.881993651201158"><ele>395.0</ele><time>2026-04-06T13:15:34Z</time></trkpt><trkpt lat="44.39843758108014" lon="9.88214426225129"><ele>394.0</ele><time>2026-04-06T13:15:35Z</time></trkpt><trkpt lat="44.3985189241851" lon="9.882315188687075"><ele>393.0</ele><time>2026-04-06T13:15:36Z</time></trkpt><trkpt lat="44.39860620758074" lon="9.882472248039296"><ele>392.0</ele><time>2026-04-06T13:15:37Z</time></trkpt><trkpt lat="44.39867107021477" lon="9.882635399180149"><ele>391.0</ele><time>2026-04-06T13:15:38Z</time></trkpt><trkpt lat="44.39871729852874" lon="9.88280633366557"><ele>388.25</ele><time>2026-04-06T13:15:39Z</time></trkpt><trkpt lat="44.39875526703975" lon="9.88300140593344"><ele>385.5</ele><time>2026-04-06T13:15:40Z</time></trkpt><trkpt lat="44.39875468054314" lon="9.883207911808196"><ele>382.75</ele><time>2026-04-06T13:15:41Z</time></trkpt><trkpt lat="44.39875429790863" lon="9.883414034096958"><ele>380.0</ele><time>2026-04-06T13:15:42Z</time></trkpt><trkpt lat="44.39876546315459" lon="9.88360434119261"><ele>376.75</ele><time>2026-04-06T13:15:43Z</time></trkpt><trkpt lat="44.39880790367815" lon="9.883785704649865"><ele>373.5</ele><time>2026-04-06T13:15:44Z</time></trkpt><trkpt lat="44.39887901150478" lon="9.88394728431927"><ele>370.25</ele><time>2026-04-06T13:15:45Z</time></trkpt><trkpt lat="44.39895527445797" lon="9.884105873663895"><ele>367.0</ele><time>2026-04-06T13:15:46Z</time></trkpt><trkpt lat="44.39905375969755" lon="9.88425548922318"><ele>370.66666666666663</ele><time>2026-04-06T13:15:47Z</time></trkpt><trkpt lat="44.39916901902561" lon="9.884425517027823"><ele>374.3333333333333</ele><time>2026-04-06T13:15:48Z</time></trkpt><trkpt lat="44.39927037650683" lon="9.884615907401757"><ele>378.0</ele><time>2026-04-06T13:15:49Z</time></trkpt><trkpt lat="44.39936893760092" lon="9.884835614030766"><ele>378.0</ele><time>2026-04-06T13:15:50Z</time></trkpt><trkpt lat="44.39946556426417" lon="9.885045974161743"><ele>378.0</ele><time>2026-04-06T13:15:51Z</time></trkpt><trkpt lat="44.39955570116966" lon="9.88522632319687"><ele>378.0</ele><time>2026-04-06T13:15:52Z</time></trkpt><trkpt lat="44.39963799534394" lon="9.885361870124202"><ele>376.75</ele><time>2026-04-06T13:15:53Z</time></trkpt><trkpt lat="44.39974006923188" lon="9.885460813661938"><ele>375.5</ele><time>2026-04-06T13:15:54Z</time></trkpt><trkpt lat="44.39987073723131" lon="9.885520033531401"><ele>374.25</ele><time>2026-04-06T13:15:55Z</time></trkpt><trkpt lat="44.400029270770524" lon="9.885566106325596"><ele>373.0</ele><time>2026-04-06T13:15:56Z</time></trkpt><trkpt lat="44.400175921047236" lon="9.88566393165837"><ele>308.0</ele><time>2026-04-06T13:15:57Z</time></trkpt><trkpt lat="44.39678997657747" lon="9.883547641256033"><ele>310.5</ele><time>2026-04-06T13:16:58Z</time></trkpt><trkpt lat="44.39673112879423" lon="9.883370987885439"><ele>313.0</ele><time>2026-04-06T13:16:59Z</time></trkpt><trkpt lat="44.396667513033925" lon="9.883214835478979"><ele>315.5</ele><time>2026-04-06T13:17:00Z</time></trkpt><trkpt lat="44.39658448068742" lon="9.88308804341072"><ele>318.0</ele><time>2026-04-06T13:17:01Z</time></trkpt><trkpt lat="44.396471393514084" lon="9.882979938999116"><ele>310.6666666666667</ele><time>2026-04-06T13:17:02Z</time></trkpt><trkpt lat="44.3963348908014" lon="9.882901332943057"><ele>303.33333333333337</ele><time>2026-04-06T13:17:03Z</time></trkpt><trkpt lat="44.39617230445168" lon="9.882837937052086"><ele>296.0</ele><time>2026-04-06T13:17:04Z</time></trkpt><trkpt lat="44.39597069736421" lon="9.88277186271999"><ele>296.0</ele><time>2026-04-06T13:17:05Z</time></trkpt><trkpt lat="44.395763137578996" lon="9.8827081600808"><ele>296.0</ele><time>2026-04-06T13:17:06Z</time></trkpt><trkpt lat="44.39556750795656" lon="9.882645572008297"><ele>296.0</ele><time>2026-04-06T13:17:07Z</time></trkpt><trkpt lat="44.39538488718022" lon="9.882585720132264"><ele>297.6666666666667</ele><time>2026-04-06T13:17:08Z</time></trkpt><trkpt lat="44.39520660243242" lon="9.882536145004158"><ele>299.3333333333333</ele><time>2026-04-06T13:17:09Z</time></trkpt><trkpt lat="44.395034574884995" lon="9.882508589288717"><ele>301.0</ele><time>2026-04-06T13:17:10Z</time></trkpt><trkpt lat="44.394863959888866" lon="9.882515878861412"><ele>301.0</ele><time>2026-04-06T13:17:11Z</time></trkpt><trkpt lat="44.394713973798716" lon="9.882529908652495"><ele>301.0</ele><time>2026-04-06T13:17:12Z</time></trkpt><trkpt lat="44.39457971511735" lon="9.882522359589966"><ele>301.0</ele><time>2026-04-06T13:17:13Z</time></trkpt><trkpt lat="44.39444473005517" lon="9.882476968461862"><ele>301.0</ele><time>2026-04-06T13:17:14Z</time></trkpt><trkpt lat="44.394326172110766" lon="9.882391809925418"><ele>295.66666666666663</ele><time>2026-04-06T13:17:15Z</time></trkpt><trkpt lat="44.3942172110348" lon="9.882271160538123"><ele>290.3333333333333</ele><time>2026-04-06T13:17:16Z</time></trkpt><trkpt lat="44.394113839978694" lon="9.88210311015639"><ele>285.0</ele><time>2026-04-06T13:17:17Z</time></trkpt><trkpt lat="44.394000362185494" lon="9.88191333006694"><ele>285.0</ele><time>2026-04-06T13:17:18Z</time></trkpt><trkpt lat="44.39388496530042" lon="9.881721561526192"><ele>285.0</ele><time>2026-04-06T13:17:19Z</time></trkpt><trkpt lat="44.39377864557637" lon="9.88154514664266"><ele>285.0</ele><time>2026-04-06T13:17:20Z</time></trkpt><trkpt lat="44.39368438365569" lon="9.881399210226686"><ele>284.75</ele><time>2026-04-06T13:17:21Z</time></trkpt><trkpt lat="44.3936014614577" lon="9.881300203697693"><ele>284.5</ele><time>2026-04-06T13:17:22Z</time></trkpt><trkpt lat="44.39350483388192" lon="9.881238562711236"><ele>284.25</ele><time>2026-04-06T13:17:23Z</time></trkpt><trkpt lat="44.39339126878204" lon="9.88124166986978"><ele>284.0</ele><time>2026-04-06T13:17:24Z</time></trkpt><trkpt lat="44.3932717487987" lon="9.88129398816624"><ele>284.0</ele><time>2026-04-06T13:17:25Z</time></trkpt><trkpt lat="44.39315412582349" lon="9.881400548048088"><ele>284.0</ele><time>2026-04-06T13:17:26Z</time></trkpt><trkpt lat="44.393041795383645" lon="9.881535322796093"><ele>284.0</ele><time>2026-04-06T13:17:27Z</time></trkpt><trkpt lat="44.39291616003898" lon="9.88167462922441"><ele>284.0</ele><time>2026-04-06T13:17:28Z</time></trkpt><trkpt lat="44.39278734076079" lon="9.881801882461966"><ele>285.0</ele><time>2026-04-06T13:17:29Z</time></trkpt><trkpt lat="44.39267438379518" lon="9.88191428298214"><ele>286.0</ele><time>2026-04-06T13:17:30Z</time></trkpt><trkpt lat="44.392564329651584" lon="9.882019473565439"><ele>287.0</ele><time>2026-04-06T13:17:31Z</time></trkpt><trkpt lat="44.392462552773736" lon="9.8821258209563"><ele>288.0</ele><time>2026-04-06T13:17:32Z</time></trkpt><trkpt lat="44.39236770818617" lon="9.882228161066926"><ele>288.0</ele><time>2026-04-06T13:17:33Z</time></trkpt><trkpt lat="44.392273027724364" lon="9.882325900216706"><ele>288.0</ele><time>2026-04-06T13:17:34Z</time></trkpt><trkpt lat="44.392181141859524" lon="9.882420673040812"><ele>288.0</ele><time>2026-04-06T13:17:35Z</time></trkpt><trkpt lat="44.39209142456804" lon="9.882511773888464"><ele>288.0</ele><time>2026-04-06T13:17:36Z</time></trkpt><trkpt lat="44.39200425455883" lon="9.882602745938573"><ele>286.5</ele><time>2026-04-06T13:17:37Z</time></trkpt><trkpt lat="44.39191668331316" lon="9.882687889948809"><ele>285.0</ele><time>2026-04-06T13:17:38Z</time></trkpt><trkpt lat="44.391821710449996" lon="9.882757839651259"><ele>283.5</ele><time>2026-04-06T13:17:39Z</time></trkpt><trkpt lat="44.39172516945117" lon="9.882854662909413"><ele>282.0</ele><time>2026-04-06T13:17:40Z</time></trkpt><trkpt lat="44.39162276691654" lon="9.882957817748176"><ele>282.0</ele><time>2026-04-06T13:17:41Z</time></trkpt><trkpt lat="44.39151874879026" lon="9.883062822042127"><ele>282.0</ele><time>2026-04-06T13:17:42Z</time></trkpt><trkpt lat="44.39143380533379" lon="9.883174979644886"><ele>282.0</ele><time>2026-04-06T13:17:43Z</time></trkpt><trkpt lat="44.39134171012634" lon="9.88325925921652"><ele>282.0</ele><time>2026-04-06T13:17:44Z</time></trkpt><trkpt lat="44.391250379960724" lon="9.883349298689728"><ele>281.0</ele><time>2026-04-06T13:17:45Z</time></trkpt><trkpt lat="44.391171682146705" lon="9.883433571417479"><ele>280.0</ele><time>2026-04-06T13:17:46Z</time></trkpt><trkpt lat="44.39109112803764" lon="9.883517969160344"><ele>279.0</ele><time>2026-04-06T13:17:47Z</time></trkpt><trkpt lat="44.39101195209179" lon="9.883596746307946"><ele>278.0</ele><time>2026-04-06T13:17:48Z</time></trkpt><trkpt lat="44.39092081414909" lon="9.8836792526472"><ele>277.0</ele><time>2026-04-06T13:17:49Z</time></trkpt><trkpt lat="44.39080901397402" lon="9.883783537829574"><ele>277.0</ele><time>2026-04-06T13:17:50Z</time></trkpt><trkpt lat="44.39068778158735" lon="9.883890673019174"><ele>277.0</ele><time>2026-04-06T13:17:51Z</time></trkpt><trkpt lat="44.39056206021408" lon="9.883965523231135"><ele>277.0</ele><time>2026-04-06T13:17:52Z</time></trkpt><trkpt lat="44.39043159761817" lon="9.884050199101377"><ele>277.0</ele><time>2026-04-06T13:17:53Z</time></trkpt><trkpt lat="44.390285532401805" lon="9.884133044373906"><ele>277.0</ele><time>2026-04-06T13:17:54Z</time></trkpt><trkpt lat="44.3901433207136" lon="9.8842042631837"><ele>277.0</ele><time>2026-04-06T13:17:55Z</time></trkpt><trkpt lat="44.3900090828995" lon="9.884258226371745"><ele>277.0</ele><time>2026-04-06T13:17:56Z</time></trkpt><trkpt lat="44.389877953319406" lon="9.884297703835802"><ele>277.0</ele><time>2026-04-06T13:17:57Z</time></trkpt><trkpt lat="44.3813680650772" lon="9.884700354279374"><ele>273.75</ele><time>2026-04-06T13:18:58Z</time></trkpt><trkpt lat="44.38122288844752" lon="9.88462355156296"><ele>270.5</ele><time>2026-04-06T13:18:59Z</time></trkpt><trkpt lat="44.38109582130827" lon="9.884554798203448"><ele>267.25</ele><time>2026-04-06T13:19:00Z</time></trkpt><trkpt lat="44.38096800617265" lon="9.88448255585603"><ele>264.0</ele><time>2026-04-06T13:19:01Z</time></trkpt><trkpt lat="44.3808429051128" lon="9.884407437911547"><ele>264.0</ele><time>2026-04-06T13:19:02Z</time></trkpt><trkpt lat="44.38071450825012" lon="9.884327567354855"><ele>264.0</ele><time>2026-04-06T13:19:03Z</time></trkpt><trkpt lat="44.38057789525779" lon="9.884242585273187"><ele>264.0</ele><time>2026-04-06T13:19:04.061Z</time></trkpt><trkpt lat="44.38039791998009" lon="9.884118861362314"><ele>259.0</ele><time>2026-04-06T13:19:05.067Z</time></trkpt><trkpt lat="44.38021624556765" lon="9.88406430270845"><ele>254.0</ele><time>2026-04-06T13:19:06.059Z</time></trkpt><trkpt lat="44.38006975135401" lon="9.884033203352459"><ele>249.0</ele><time>2026-04-06T13:19:07.058Z</time></trkpt><trkpt lat="44.379558251867934" lon="9.884228733209069"><ele>250.0</ele><time>2026-04-06T13:19:12Z</time></trkpt><trkpt lat="44.3794366880166" lon="9.884275228495154"><ele>251.0</ele><time>2026-04-06T13:19:13Z</time></trkpt><trkpt lat="44.379245108554066" lon="9.884181078605673"><ele>252.0</ele><time>2026-04-06T13:19:14Z</time></trkpt><trkpt lat="44.37913977839377" lon="9.884255832800019"><ele>253.0</ele><time>2026-04-06T13:19:15Z</time></trkpt><trkpt lat="44.379035925389836" lon="9.88429772732097"><ele>253.0</ele><time>2026-04-06T13:19:16Z</time></trkpt><trkpt lat="44.37891871784547" lon="9.884340699919976"><ele>253.0</ele><time>2026-04-06T13:19:17Z</time></trkpt><trkpt lat="44.37875956998297" lon="9.884438727204095"><ele>253.0</ele><time>2026-04-06T13:19:18Z</time></trkpt><trkpt lat="44.37863248546845" lon="9.884503859583733"><ele>253.0</ele><time>2026-04-06T13:19:19Z</time></trkpt><trkpt lat="44.37848405168349" lon="9.88456878489"><ele>251.33333333333331</ele><time>2026-04-06T13:19:20Z</time></trkpt><trkpt lat="44.37832637184633" lon="9.884639940607308"><ele>249.66666666666669</ele><time>2026-04-06T13:19:21Z</time></trkpt><trkpt lat="44.378173352286986" lon="9.884677871085325"><ele>248.0</ele><time>2026-04-06T13:19:22Z</time></trkpt><trkpt lat="44.37803668838596" lon="9.884728828138245"><ele>247.0</ele><time>2026-04-06T13:19:23Z</time></trkpt><trkpt lat="44.3779135620181" lon="9.884774855109203"><ele>246.0</ele><time>2026-04-06T13:19:24Z</time></trkpt><trkpt lat="44.37778981033684" lon="9.884821302905406"><ele>245.0</ele><time>2026-04-06T13:19:25Z</time></trkpt><trkpt lat="44.37766357621292" lon="9.884868682468309"><ele>244.0</ele><time>2026-04-06T13:19:26Z</time></trkpt><trkpt lat="44.37753393373371" lon="9.884917341302375"><ele>244.0</ele><time>2026-04-06T13:19:27Z</time></trkpt><trkpt lat="44.377398026709116" lon="9.884968351451"><ele>244.0</ele><time>2026-04-06T13:19:28Z</time></trkpt><trkpt lat="44.377263894203125" lon="9.885018421456593"><ele>244.0</ele><time>2026-04-06T13:19:29Z</time></trkpt><trkpt lat="44.377139596549554" lon="9.885059833575461"><ele>244.0</ele><time>2026-04-06T13:19:30Z</time></trkpt><trkpt lat="44.377030121699036" lon="9.88511959926919"><ele>246.5</ele><time>2026-04-06T13:19:31Z</time></trkpt><trkpt lat="44.37690879763507" lon="9.885141419592706"><ele>249.0</ele><time>2026-04-06T13:19:32Z</time></trkpt><trkpt lat="44.37678800595698" lon="9.885163934838571"><ele>251.5</ele><time>2026-04-06T13:19:33Z</time></trkpt><trkpt lat="44.376665811695645" lon="9.885193054608939"><ele>254.0</ele><time>2026-04-06T13:19:34Z</time></trkpt><trkpt lat="44.37655599146288" lon="9.885244217069635"><ele>254.0</ele><time>2026-04-06T13:19:35Z</time></trkpt><trkpt lat="44.376454782773436" lon="9.885296749600055"><ele>253.99999999999997</ele><time>2026-04-06T13:19:36Z</time></trkpt><trkpt lat="44.376361076697926" lon="9.885353960985169"><ele>253.99999999999997</ele><time>2026-04-06T13:19:37Z</time></trkpt><trkpt lat="44.376270983159934" lon="9.88541298018424"><ele>254.0</ele><time>2026-04-06T13:19:38Z</time></trkpt><trkpt lat="44.37616918950926" lon="9.88547222772944"><ele>254.0</ele><time>2026-04-06T13:19:39Z</time></trkpt><trkpt lat="44.376057737494655" lon="9.885530061148822"><ele>251.5</ele><time>2026-04-06T13:19:40Z</time></trkpt><trkpt lat="44.375938122345346" lon="9.885589828631351"><ele>249.0</ele><time>2026-04-06T13:19:41Z</time></trkpt><trkpt lat="44.37581868137726" lon="9.885666009709636"><ele>246.5</ele><time>2026-04-06T13:19:42Z</time></trkpt><trkpt lat="44.37570091608716" lon="9.885728425028516"><ele>244.0</ele><time>2026-04-06T13:19:43Z</time></trkpt><trkpt lat="44.375599162661764" lon="9.885811670073611"><ele>242.75</ele><time>2026-04-06T13:19:44Z</time></trkpt><trkpt lat="44.37550549983338" lon="9.885891933009573"><ele>241.5</ele><time>2026-04-06T13:19:45Z</time></trkpt><trkpt lat="44.37540452875125" lon="9.8859795716084"><ele>240.25</ele><time>2026-04-06T13:19:46Z</time></trkpt><trkpt lat="44.37529705072127" lon="9.886073983277429"><ele>239.0</ele><time>2026-04-06T13:19:47Z</time></trkpt><trkpt lat="44.37518366524355" lon="9.886172059365299"><ele>239.0</ele><time>2026-04-06T13:19:48Z</time></trkpt><trkpt lat="44.37506485844044" lon="9.886234997244559"><ele>239.0</ele><time>2026-04-06T13:19:49Z</time></trkpt><trkpt lat="44.37495048285381" lon="9.88626618546549"><ele>239.0</ele><time>2026-04-06T13:19:50Z</time></trkpt><trkpt lat="44.374842755899635" lon="9.886297192285646"><ele>239.0</ele><time>2026-04-06T13:19:51Z</time></trkpt><trkpt lat="44.374748885595345" lon="9.886349169413055"><ele>238.2</ele><time>2026-04-06T13:19:52Z</time></trkpt><trkpt lat="44.37464612102347" lon="9.886356385288483"><ele>237.39999999999998</ele><time>2026-04-06T13:19:53Z</time></trkpt><trkpt lat="44.374543176791995" lon="9.886387374597621"><ele>236.6</ele><time>2026-04-06T13:19:54Z</time></trkpt><trkpt lat="44.37443760505495" lon="9.886419356574939"><ele>235.8</ele><time>2026-04-06T13:19:55Z</time></trkpt><trkpt lat="44.37433462525758" lon="9.886450623212395"><ele>235.0</ele><time>2026-04-06T13:19:56Z</time></trkpt><trkpt lat="44.37424165116215" lon="9.886478851976014"><ele>246.0</ele><time>2026-04-06T13:19:57Z</time></trkpt><trkpt lat="44.366523343133714" lon="9.885153365883989"><ele>246.0</ele><time>2026-04-06T13:20:58Z</time></trkpt><trkpt lat="44.36637473756295" lon="9.885150944449856"><ele>246.0</ele><time>2026-04-06T13:20:59Z</time></trkpt><trkpt lat="44.366230766963554" lon="9.885145964557157"><ele>246.0</ele><time>2026-04-06T13:21:00Z</time></trkpt><trkpt lat="44.36608157957104" lon="9.885130861004424"><ele>246.0</ele><time>2026-04-06T13:21:01Z</time></trkpt><trkpt lat="44.36594341469049" lon="9.885103368964431"><ele>241.75</ele><time>2026-04-06T13:21:02Z</time></trkpt><trkpt lat="44.36581157337821" lon="9.88507666382007"><ele>237.5</ele><time>2026-04-06T13:21:03Z</time></trkpt><trkpt lat="44.36568154575853" lon="9.885050326038238"><ele>233.25</ele><time>2026-04-06T13:21:04Z</time></trkpt><trkpt lat="44.365554939473284" lon="9.88502641811973"><ele>229.0</ele><time>2026-04-06T13:21:05Z</time></trkpt><trkpt lat="44.36543171164484" lon="9.88500420709805"><ele>227.5</ele><time>2026-04-06T13:21:06Z</time></trkpt><trkpt lat="44.36530982131923" lon="9.884988410973815"><ele>226.0</ele><time>2026-04-06T13:21:07Z</time></trkpt><trkpt lat="44.36518974895524" lon="9.884987075099186"><ele>224.5</ele><time>2026-04-06T13:21:08Z</time></trkpt><trkpt lat="44.36507389934881" lon="9.88499682573392"><ele>223.0</ele><time>2026-04-06T13:21:09Z</time></trkpt><trkpt lat="44.364956269529735" lon="9.88501695524892"><ele>223.0</ele><time>2026-04-06T13:21:10Z</time></trkpt><trkpt lat="44.36483835993001" lon="9.885069682494118"><ele>223.0</ele><time>2026-04-06T13:21:11Z</time></trkpt><trkpt lat="44.364725477767706" lon="9.885143397413007"><ele>223.0</ele><time>2026-04-06T13:21:12Z</time></trkpt><trkpt lat="44.364613074008005" lon="9.88522986723452"><ele>223.0</ele><time>2026-04-06T13:21:13Z</time></trkpt><trkpt lat="44.36450973881052" lon="9.885326752171075"><ele>223.25</ele><time>2026-04-06T13:21:14Z</time></trkpt><trkpt lat="44.364412455368864" lon="9.885436497460898"><ele>223.5</ele><time>2026-04-06T13:21:15Z</time></trkpt><trkpt lat="44.36432553047522" lon="9.885557001276885"><ele>223.75</ele><time>2026-04-06T13:21:16Z</time></trkpt><trkpt lat="44.3642470090926" lon="9.885685360791259"><ele>224.0</ele><time>2026-04-06T13:21:17Z</time></trkpt><trkpt lat="44.364182897361204" lon="9.88583698396186"><ele>226.0</ele><time>2026-04-06T13:21:18Z</time></trkpt><trkpt lat="44.36409839662934" lon="9.885989977433844"><ele>228.0</ele><time>2026-04-06T13:21:19Z</time></trkpt><trkpt lat="44.364014896958935" lon="9.886152412498642"><ele>230.0</ele><time>2026-04-06T13:21:20Z</time></trkpt><trkpt lat="44.363936599631096" lon="9.886289001232475"><ele>232.0</ele><time>2026-04-06T13:21:21Z</time></trkpt><trkpt lat="44.363851232838535" lon="9.886409597907075"><ele>227.5</ele><time>2026-04-06T13:21:22Z</time></trkpt><trkpt lat="44.36378725580423" lon="9.8865570710844"><ele>223.0</ele><time>2026-04-06T13:21:23Z</time></trkpt><trkpt lat="44.36371089038561" lon="9.886688075507903"><ele>218.5</ele><time>2026-04-06T13:21:24Z</time></trkpt><trkpt lat="44.36364791432862" lon="9.886811192296138"><ele>214.0</ele><time>2026-04-06T13:21:25Z</time></trkpt><trkpt lat="44.363606496443275" lon="9.88694123101715"><ele>214.0</ele><time>2026-04-06T13:21:26Z</time></trkpt><trkpt lat="44.363574625383734" lon="9.887096483077606"><ele>214.0</ele><time>2026-04-06T13:21:27Z</time></trkpt><trkpt lat="44.36357697659286" lon="9.887272036677743"><ele>214.0</ele><time>2026-04-06T13:21:28Z</time></trkpt><trkpt lat="44.36358385986038" lon="9.88744525026571"><ele>214.0</ele><time>2026-04-06T13:21:29Z</time></trkpt><trkpt lat="44.36359460513879" lon="9.88760244120806"><ele>213.39999999999998</ele><time>2026-04-06T13:21:30Z</time></trkpt><trkpt lat="44.36360297405018" lon="9.887748198991323"><ele>212.79999999999998</ele><time>2026-04-06T13:21:31Z</time></trkpt><trkpt lat="44.363611906061124" lon="9.887892419238977"><ele>212.2</ele><time>2026-04-06T13:21:32Z</time></trkpt><trkpt lat="44.36362538662005" lon="9.888018472065694"><ele>211.60000000000002</ele><time>2026-04-06T13:21:33Z</time></trkpt><trkpt lat="44.36366123106639" lon="9.888144807835822"><ele>211.0</ele><time>2026-04-06T13:21:34Z</time></trkpt><trkpt lat="44.36370423241636" lon="9.888289378444503"><ele>211.0</ele><time>2026-04-06T13:21:35Z</time></trkpt><trkpt lat="44.36377368134624" lon="9.888413313560571"><ele>211.0</ele><time>2026-04-06T13:21:36Z</time></trkpt><trkpt lat="44.36387117697269" lon="9.88858799465364"><ele>211.0</ele><time>2026-04-06T13:21:37Z</time></trkpt><trkpt lat="44.36391915436292" lon="9.88877928922064"><ele>211.0</ele><time>2026-04-06T13:21:38Z</time></trkpt><trkpt lat="44.36398846316623" lon="9.889043451151828"><ele>213.0</ele><time>2026-04-06T13:21:39Z</time></trkpt><trkpt lat="44.36407259717769" lon="9.889355706347862"><ele>215.0</ele><time>2026-04-06T13:21:40Z</time></trkpt><trkpt lat="44.36414955179753" lon="9.889642395123865"><ele>215.0</ele><time>2026-04-06T13:21:41Z</time></trkpt><trkpt lat="44.36421705312215" lon="9.889896958106062"><ele>215.0</ele><time>2026-04-06T13:21:42Z</time></trkpt><trkpt lat="44.36426863572222" lon="9.89014590879952"><ele>215.0</ele><time>2026-04-06T13:21:43Z</time></trkpt><trkpt lat="44.36429807186026" lon="9.890371646652756"><ele>214.33333333333334</ele><time>2026-04-06T13:21:44Z</time></trkpt><trkpt lat="44.364318479676996" lon="9.89059376366327"><ele>213.66666666666669</ele><time>2026-04-06T13:21:45Z</time></trkpt><trkpt lat="44.36433302333314" lon="9.89083350061194"><ele>213.0</ele><time>2026-04-06T13:21:46Z</time></trkpt><trkpt lat="44.3643437018042" lon="9.89107806284701"><ele>212.33333333333331</ele><time>2026-04-06T13:21:47Z</time></trkpt><trkpt lat="44.364357786344954" lon="9.891325697790352"><ele>211.66666666666666</ele><time>2026-04-06T13:21:48Z</time></trkpt><trkpt lat="44.364373086639745" lon="9.891579747884435"><ele>211.0</ele><time>2026-04-06T13:21:49Z</time></trkpt><trkpt lat="44.36438964569426" lon="9.89185469635546"><ele>211.0</ele><time>2026-04-06T13:21:50Z</time></trkpt><trkpt lat="44.36440500475956" lon="9.892124578359324"><ele>211.0</ele><time>2026-04-06T13:21:51Z</time></trkpt><trkpt lat="44.364419644010844" lon="9.892381708311655"><ele>211.0</ele><time>2026-04-06T13:21:52Z</time></trkpt><trkpt lat="44.364428251789974" lon="9.892629054281691"><ele>211.0</ele><time>2026-04-06T13:21:53Z</time></trkpt><trkpt lat="44.36449012905451" lon="9.892875900262798"><ele>211.0</ele><time>2026-04-06T13:21:54Z</time></trkpt><trkpt lat="44.36446983002263" lon="9.893101624993623"><ele>211.0</ele><time>2026-04-06T13:21:55Z</time></trkpt><trkpt lat="44.36444369103565" lon="9.893348970212791"><ele>211.5</ele><time>2026-04-06T13:21:56Z</time></trkpt><trkpt lat="44.36437125680745" lon="9.893595123547742"><ele>212.0</ele><time>2026-04-06T13:21:57Z</time></trkpt><trkpt lat="44.35842026653894" lon="9.901727634113984"><ele>209.0</ele><time>2026-04-06T13:22:58Z</time></trkpt><trkpt lat="44.358304376823746" lon="9.901858013936724"><ele>206.0</ele><time>2026-04-06T13:22:59Z</time></trkpt><trkpt lat="44.358185767511955" lon="9.901989668433153"><ele>203.0</ele><time>2026-04-06T13:23:00Z</time></trkpt><trkpt lat="44.358061938385504" lon="9.902123013165408"><ele>202.66666666666669</ele><time>2026-04-06T13:23:01Z</time></trkpt><trkpt lat="44.35792900017096" lon="9.902249072643922"><ele>202.33333333333331</ele><time>2026-04-06T13:23:02Z</time></trkpt><trkpt lat="44.357786180673806" lon="9.902368804257001"><ele>202.0</ele><time>2026-04-06T13:23:03Z</time></trkpt><trkpt lat="44.35763888764092" lon="9.902475364159386"><ele>202.0</ele><time>2026-04-06T13:23:04Z</time></trkpt><trkpt lat="44.35747608159887" lon="9.902541311645809"><ele>202.0</ele><time>2026-04-06T13:23:05Z</time></trkpt><trkpt lat="44.35731715731632" lon="9.902630084198366"><ele>202.0</ele><time>2026-04-06T13:23:06Z</time></trkpt><trkpt lat="44.35716668226974" lon="9.902738379242633"><ele>202.0</ele><time>2026-04-06T13:23:07Z</time></trkpt><trkpt lat="44.356992549696805" lon="9.902810554026164"><ele>202.0</ele><time>2026-04-06T13:23:08Z</time></trkpt><trkpt lat="44.3568384783458" lon="9.90289621199631"><ele>202.0</ele><time>2026-04-06T13:23:09Z</time></trkpt><trkpt lat="44.356676617199355" lon="9.902986456895041"><ele>202.0</ele><time>2026-04-06T13:23:10Z</time></trkpt><trkpt lat="44.356520099770144" lon="9.903074155375709"><ele>202.0</ele><time>2026-04-06T13:23:11Z</time></trkpt><trkpt lat="44.35635850528219" lon="9.903164698590961"><ele>202.0</ele><time>2026-04-06T13:23:12Z</time></trkpt><trkpt lat="44.35620390892313" lon="9.903274457611905"><ele>201.66666666666666</ele><time>2026-04-06T13:23:13Z</time></trkpt><trkpt lat="44.356043505223525" lon="9.90336175308358"><ele>201.33333333333331</ele><time>2026-04-06T13:23:14Z</time></trkpt><trkpt lat="44.35588408124679" lon="9.903428238483647"><ele>201.0</ele><time>2026-04-06T13:23:15Z</time></trkpt><trkpt lat="44.3557274889942" lon="9.903515210855794"><ele>200.33333333333331</ele><time>2026-04-06T13:23:16Z</time></trkpt><trkpt lat="44.35556146998265" lon="9.90361807373424"><ele>199.66666666666666</ele><time>2026-04-06T13:23:17Z</time></trkpt><trkpt lat="44.355397245612075" lon="9.903770384528366"><ele>199.0</ele><time>2026-04-06T13:23:18Z</time></trkpt><trkpt lat="44.35520990719318" lon="9.903895938603785"><ele>199.0</ele><time>2026-04-06T13:23:19Z</time></trkpt><trkpt lat="44.35504573200712" lon="9.90403018185199"><ele>199.0</ele><time>2026-04-06T13:23:20Z</time></trkpt><trkpt lat="44.35488896933128" lon="9.90415816759817"><ele>199.0</ele><time>2026-04-06T13:23:21Z</time></trkpt><trkpt lat="44.354740858642785" lon="9.904278724422351"><ele>198.66666666666666</ele><time>2026-04-06T13:23:22Z</time></trkpt><trkpt lat="44.35458904679723" lon="9.904402293858405"><ele>198.33333333333331</ele><time>2026-04-06T13:23:23Z</time></trkpt><trkpt lat="44.35443965609002" lon="9.904524180464257"><ele>198.0</ele><time>2026-04-06T13:23:24Z</time></trkpt><trkpt lat="44.35428684497114" lon="9.90464914724447"><ele>198.0</ele><time>2026-04-06T13:23:25Z</time></trkpt><trkpt lat="44.354134182056995" lon="9.90477399282715"><ele>198.0</ele><time>2026-04-06T13:23:26Z</time></trkpt><trkpt lat="44.35397292454222" lon="9.904905025094791"><ele>198.0</ele><time>2026-04-06T13:23:27Z</time></trkpt><trkpt lat="44.35381513500857" lon="9.905032807390747"><ele>197.33333333333331</ele><time>2026-04-06T13:23:28Z</time></trkpt><trkpt lat="44.35365135971421" lon="9.905165437140502"><ele>196.66666666666666</ele><time>2026-04-06T13:23:29Z</time></trkpt><trkpt lat="44.35350028564992" lon="9.905287781083299"><ele>196.0</ele><time>2026-04-06T13:23:30Z</time></trkpt><trkpt lat="44.3533603249651" lon="9.905401095394227"><ele>196.0</ele><time>2026-04-06T13:23:31Z</time></trkpt><trkpt lat="44.353216574051224" lon="9.905518589607535"><ele>196.0</ele><time>2026-04-06T13:23:32Z</time></trkpt><trkpt lat="44.35307354482351" lon="9.90563500284033"><ele>196.0</ele><time>2026-04-06T13:23:33Z</time></trkpt><trkpt lat="44.35293218932137" lon="9.905750053808125"><ele>195.0</ele><time>2026-04-06T13:23:34Z</time></trkpt><trkpt lat="44.35278996796794" lon="9.905856956092885"><ele>194.0</ele><time>2026-04-06T13:23:35Z</time></trkpt><trkpt lat="44.352649034931034" lon="9.905949573280846"><ele>193.0</ele><time>2026-04-06T13:23:36Z</time></trkpt><trkpt lat="44.35250951518774" lon="9.906029177748088"><ele>193.0</ele><time>2026-04-06T13:23:37Z</time></trkpt><trkpt lat="44.352358339538924" lon="9.90610149059787"><ele>193.0</ele><time>2026-04-06T13:23:38Z</time></trkpt><trkpt lat="44.3521964157165" lon="9.906171325044234"><ele>193.0</ele><time>2026-04-06T13:23:39Z</time></trkpt><trkpt lat="44.35204087219307" lon="9.906238407793202"><ele>192.66666666666666</ele><time>2026-04-06T13:23:40Z</time></trkpt><trkpt lat="44.35189079595677" lon="9.906303132617747"><ele>192.33333333333331</ele><time>2026-04-06T13:23:41Z</time></trkpt><trkpt lat="44.3517451849168" lon="9.906365931690535"><ele>192.0</ele><time>2026-04-06T13:23:42Z</time></trkpt><trkpt lat="44.35160047622052" lon="9.906428334133178"><ele>192.0</ele><time>2026-04-06T13:23:43Z</time></trkpt><trkpt lat="44.351466150084825" lon="9.90648618915843"><ele>192.0</ele><time>2026-04-06T13:23:44Z</time></trkpt><trkpt lat="44.35132474227153" lon="9.906547094302958"><ele>192.0</ele><time>2026-04-06T13:23:45Z</time></trkpt><trkpt lat="44.3511884191443" lon="9.906602008078655"><ele>192.0</ele><time>2026-04-06T13:23:46Z</time></trkpt><trkpt lat="44.35104440649084" lon="9.906659087378298"><ele>191.25</ele><time>2026-04-06T13:23:47Z</time></trkpt><trkpt lat="44.35090376545159" lon="9.90671133125522"><ele>190.5</ele><time>2026-04-06T13:23:48Z</time></trkpt><trkpt lat="44.35075748772234" lon="9.906763418817397"><ele>189.75</ele><time>2026-04-06T13:23:49Z</time></trkpt><trkpt lat="44.35061033905771" lon="9.906816931594863"><ele>189.0</ele><time>2026-04-06T13:23:50Z</time></trkpt><trkpt lat="44.350460623215454" lon="9.90687102285013"><ele>188.75</ele><time>2026-04-06T13:23:51Z</time></trkpt><trkpt lat="44.35032677215954" lon="9.906922319663122"><ele>188.5</ele><time>2026-04-06T13:23:52Z</time></trkpt><trkpt lat="44.35020225952798" lon="9.906974392163614"><ele>188.25</ele><time>2026-04-06T13:23:53Z</time></trkpt><trkpt lat="44.35008866508023" lon="9.9070478167744"><ele>188.0</ele><time>2026-04-06T13:23:54Z</time></trkpt><trkpt lat="44.34997433737844" lon="9.907103734358317"><ele>188.0</ele><time>2026-04-06T13:23:55Z</time></trkpt><trkpt lat="44.34984954475009" lon="9.90714138109557"><ele>188.0</ele><time>2026-04-06T13:23:56Z</time></trkpt><trkpt lat="44.349724050388474" lon="9.907205942173269"><ele>188.0</ele><time>2026-04-06T13:23:57Z</time></trkpt><trkpt lat="44.34258039247043" lon="9.911113991276407"><ele>186.66666666666666</ele><time>2026-04-06T13:24:57.999Z</time></trkpt><trkpt lat="44.3424087728093" lon="9.911089355491871"><ele>185.33333333333334</ele><time>2026-04-06T13:24:58.999Z</time></trkpt><trkpt lat="44.342234846923034" lon="9.911079198038111"><ele>184.0</ele><time>2026-04-06T13:24:59.999Z</time></trkpt><trkpt lat="44.342061164380226" lon="9.9111086518663"><ele>183.33333333333334</ele><time>2026-04-06T13:25:00.999Z</time></trkpt><trkpt lat="44.34188704140981" lon="9.911123016273175"><ele>182.66666666666666</ele><time>2026-04-06T13:25:01.999Z</time></trkpt><trkpt lat="44.34170923037302" lon="9.911123910050517"><ele>182.0</ele><time>2026-04-06T13:25:03Z</time></trkpt><trkpt lat="44.3415336773167" lon="9.911151882190666"><ele>182.0</ele><time>2026-04-06T13:25:04Z</time></trkpt><trkpt lat="44.34136981272891" lon="9.911185672258528"><ele>182.0</ele><time>2026-04-06T13:25:05Z</time></trkpt><trkpt lat="44.34120502906939" lon="9.911228819613978"><ele>182.0</ele><time>2026-04-06T13:25:06Z</time></trkpt><trkpt lat="44.3410442082296" lon="9.91128103516559"><ele>182.0</ele><time>2026-04-06T13:25:07Z</time></trkpt><trkpt lat="44.34089089546626" lon="9.911364171383898"><ele>182.0</ele><time>2026-04-06T13:25:08Z</time></trkpt><trkpt lat="44.34072598421936" lon="9.911441663812887"><ele>182.0</ele><time>2026-04-06T13:25:09Z</time></trkpt><trkpt lat="44.340566601218335" lon="9.91151983848259"><ele>182.0</ele><time>2026-04-06T13:25:10Z</time></trkpt><trkpt lat="44.340400488554835" lon="9.911602303825507"><ele>182.0</ele><time>2026-04-06T13:25:11Z</time></trkpt><trkpt lat="44.340234269013465" lon="9.911695942933232"><ele>182.0</ele><time>2026-04-06T13:25:12Z</time></trkpt><trkpt lat="44.34006978804159" lon="9.911791224331669"><ele>182.33333333333331</ele><time>2026-04-06T13:25:13Z</time></trkpt><trkpt lat="44.33991331802149" lon="9.911901498437144"><ele>182.66666666666666</ele><time>2026-04-06T13:25:14Z</time></trkpt><trkpt lat="44.33975418057228" lon="9.912011804135842"><ele>183.0</ele><time>2026-04-06T13:25:15Z</time></trkpt><trkpt lat="44.33960832761819" lon="9.912138102380332"><ele>182.0</ele><time>2026-04-06T13:25:16Z</time></trkpt><trkpt lat="44.33946846825762" lon="9.912268163325288"><ele>181.0</ele><time>2026-04-06T13:25:17Z</time></trkpt><trkpt lat="44.339331601259396" lon="9.912393236062895"><ele>180.0</ele><time>2026-04-06T13:25:18Z</time></trkpt><trkpt lat="44.33921494311474" lon="9.912524822548457"><ele>180.25</ele><time>2026-04-06T13:25:19Z</time></trkpt><trkpt lat="44.33911474678304" lon="9.912680052612615"><ele>180.5</ele><time>2026-04-06T13:25:20Z</time></trkpt><trkpt lat="44.33902394764679" lon="9.91281990725272"><ele>180.75</ele><time>2026-04-06T13:25:21Z</time></trkpt><trkpt lat="44.338941135814714" lon="9.912961147502637"><ele>181.0</ele><time>2026-04-06T13:25:22Z</time></trkpt><trkpt lat="44.3388531146511" lon="9.913115547259517"><ele>179.0</ele><time>2026-04-06T13:25:23Z</time></trkpt><trkpt lat="44.33876578038859" lon="9.913282837093371"><ele>177.0</ele><time>2026-04-06T13:25:24Z</time></trkpt><trkpt lat="44.33867500352434" lon="9.913453078271454"><ele>175.0</ele><time>2026-04-06T13:25:25Z</time></trkpt><trkpt lat="44.33858484945409" lon="9.913619943874421"><ele>175.0</ele><time>2026-04-06T13:25:26Z</time></trkpt><trkpt lat="44.33848846604796" lon="9.913793583418204"><ele>175.0</ele><time>2026-04-06T13:25:27Z</time></trkpt><trkpt lat="44.3383846773302" lon="9.91394051412583"><ele>175.0</ele><time>2026-04-06T13:25:28Z</time></trkpt><trkpt lat="44.33829843845557" lon="9.914095644576578"><ele>175.0</ele><time>2026-04-06T13:25:29Z</time></trkpt><trkpt lat="44.33820875607147" lon="9.914257129507403"><ele>174.75</ele><time>2026-04-06T13:25:30Z</time></trkpt><trkpt lat="44.3381225890514" lon="9.914412284586103"><ele>174.5</ele><time>2026-04-06T13:25:31Z</time></trkpt><trkpt lat="44.33804351356472" lon="9.914591849259901"><ele>174.25</ele><time>2026-04-06T13:25:32Z</time></trkpt><trkpt lat="44.33794360783928" lon="9.914734317409078"><ele>174.0</ele><time>2026-04-06T13:25:33Z</time></trkpt><trkpt lat="44.33787192663641" lon="9.914899240724376"><ele>173.0</ele><time>2026-04-06T13:25:34Z</time></trkpt><trkpt lat="44.33777730568403" lon="9.91502977742198"><ele>172.0</ele><time>2026-04-06T13:25:35Z</time></trkpt><trkpt lat="44.337693532163065" lon="9.915179419697083"><ele>171.0</ele><time>2026-04-06T13:25:36Z</time></trkpt><trkpt lat="44.33761291506824" lon="9.915324208908833"><ele>170.0</ele><time>2026-04-06T13:25:37Z</time></trkpt><trkpt lat="44.33752905125996" lon="9.915474829403006"><ele>169.75</ele><time>2026-04-06T13:25:38Z</time></trkpt><trkpt lat="44.33744646546465" lon="9.91562492991748"><ele>169.5</ele><time>2026-04-06T13:25:39Z</time></trkpt><trkpt lat="44.337378844379906" lon="9.915785979705218"><ele>169.25</ele><time>2026-04-06T13:25:40Z</time></trkpt><trkpt lat="44.33729726274816" lon="9.915938109738468"><ele>169.0</ele><time>2026-04-06T13:25:41Z</time></trkpt><trkpt lat="44.337216699168266" lon="9.916089737334843"><ele>168.25</ele><time>2026-04-06T13:25:42Z</time></trkpt><trkpt lat="44.33712394495664" lon="9.916245221552964"><ele>167.5</ele><time>2026-04-06T13:25:43Z</time></trkpt><trkpt lat="44.33706365061353" lon="9.916430749289386"><ele>166.75</ele><time>2026-04-06T13:25:44Z</time></trkpt><trkpt lat="44.33698977108843" lon="9.916622864606243"><ele>166.0</ele><time>2026-04-06T13:25:45Z</time></trkpt><trkpt lat="44.33692643746594" lon="9.91682279494897"><ele>165.66666666666669</ele><time>2026-04-06T13:25:46Z</time></trkpt><trkpt lat="44.33686669282513" lon="9.917012896891505"><ele>165.33333333333334</ele><time>2026-04-06T13:25:47Z</time></trkpt><trkpt lat="44.33679397407627" lon="9.917220113964849"><ele>165.0</ele><time>2026-04-06T13:25:48Z</time></trkpt><trkpt lat="44.33672484939648" lon="9.917433531397826"><ele>164.66666666666666</ele><time>2026-04-06T13:25:49Z</time></trkpt><trkpt lat="44.33665649671528" lon="9.917653583497584"><ele>164.33333333333331</ele><time>2026-04-06T13:25:50Z</time></trkpt><trkpt lat="44.33656338013657" lon="9.91788141467016"><ele>164.0</ele><time>2026-04-06T13:25:51Z</time></trkpt><trkpt lat="44.33648068172043" lon="9.918130329719261"><ele>164.0</ele><time>2026-04-06T13:25:52Z</time></trkpt><trkpt lat="44.33641013840704" lon="9.918391033540631"><ele>164.0</ele><time>2026-04-06T13:25:53Z</time></trkpt><trkpt lat="44.33632358531411" lon="9.918635248313155"><ele>164.0</ele><time>2026-04-06T13:25:54Z</time></trkpt><trkpt lat="44.33622954491467" lon="9.918906058681983"><ele>163.66666666666666</ele><time>2026-04-06T13:25:55Z</time></trkpt><trkpt lat="44.3361423923077" lon="9.919152653134052"><ele>163.33333333333334</ele><time>2026-04-06T13:25:56Z</time></trkpt><trkpt lat="44.33605536485889" lon="9.919401645682404"><ele>163.0</ele><time>2026-04-06T13:25:57Z</time></trkpt><trkpt lat="44.331205650283565" lon="9.931503603638545"><ele>160.33333333333334</ele><time>2026-04-06T13:26:57.999Z</time></trkpt><trkpt lat="44.33111383247589" lon="9.931691836963067"><ele>157.66666666666666</ele><time>2026-04-06T13:26:58.999Z</time></trkpt><trkpt lat="44.331027969401624" lon="9.931874422092857"><ele>155.0</ele><time>2026-04-06T13:26:59.999Z</time></trkpt><trkpt lat="44.33094316088298" lon="9.93205733424221"><ele>155.0</ele><time>2026-04-06T13:27:00.999Z</time></trkpt><trkpt lat="44.33085834077259" lon="9.932225199116793"><ele>155.0</ele><time>2026-04-06T13:27:01.999Z</time></trkpt><trkpt lat="44.33077140921684" lon="9.932415791123516"><ele>155.0</ele><time>2026-04-06T13:27:02.999Z</time></trkpt><trkpt lat="44.33068271411158" lon="9.932609373642348"><ele>154.66666666666666</ele><time>2026-04-06T13:27:03.999Z</time></trkpt><trkpt lat="44.33059578352934" lon="9.932800058962455"><ele>154.33333333333334</ele><time>2026-04-06T13:27:04.999Z</time></trkpt><trkpt lat="44.330497659110286" lon="9.933000495568974"><ele>154.0</ele><time>2026-04-06T13:27:05.999Z</time></trkpt><trkpt lat="44.33041172284714" lon="9.93320049369459"><ele>154.0</ele><time>2026-04-06T13:27:06.999Z</time></trkpt><trkpt lat="44.330313941270404" lon="9.933373595731833"><ele>154.0</ele><time>2026-04-06T13:27:07.999Z</time></trkpt><trkpt lat="44.33022130244201" lon="9.933568872558205"><ele>154.0</ele><time>2026-04-06T13:27:09Z</time></trkpt><trkpt lat="44.33012776707692" lon="9.933766422033388"><ele>154.66666666666669</ele><time>2026-04-06T13:27:10Z</time></trkpt><trkpt lat="44.33002905532367" lon="9.933974210397121"><ele>155.33333333333334</ele><time>2026-04-06T13:27:11Z</time></trkpt><trkpt lat="44.329923218671205" lon="9.934196031170595"><ele>156.0</ele><time>2026-04-06T13:27:12Z</time></trkpt><trkpt lat="44.32981109306817" lon="9.9344218351331"><ele>155.0</ele><time>2026-04-06T13:27:13Z</time></trkpt><trkpt lat="44.32969948032377" lon="9.934634315535263"><ele>154.0</ele><time>2026-04-06T13:27:14Z</time></trkpt><trkpt lat="44.32958114529568" lon="9.934844065221608"><ele>153.0</ele><time>2026-04-06T13:27:15Z</time></trkpt><trkpt lat="44.3294605248465" lon="9.935054902314846"><ele>153.0</ele><time>2026-04-06T13:27:16Z</time></trkpt><trkpt lat="44.32933652192262" lon="9.935271652044815"><ele>153.0</ele><time>2026-04-06T13:27:17Z</time></trkpt><trkpt lat="44.32921607791604" lon="9.93548171356887"><ele>153.0</ele><time>2026-04-06T13:27:18Z</time></trkpt><trkpt lat="44.32911593131056" lon="9.935700309722161"><ele>152.66666666666666</ele><time>2026-04-06T13:27:19Z</time></trkpt><trkpt lat="44.328998129902416" lon="9.935914774366083"><ele>152.33333333333331</ele><time>2026-04-06T13:27:20Z</time></trkpt><trkpt lat="44.32887363458938" lon="9.936137060050347"><ele>152.0</ele><time>2026-04-06T13:27:21Z</time></trkpt><trkpt lat="44.328746666282996" lon="9.936369311975053"><ele>152.0</ele><time>2026-04-06T13:27:22Z</time></trkpt><trkpt lat="44.32861292198044" lon="9.93659605325863"><ele>152.0</ele><time>2026-04-06T13:27:23Z</time></trkpt><trkpt lat="44.328484159619784" lon="9.93681452700569"><ele>152.0</ele><time>2026-04-06T13:27:24Z</time></trkpt><trkpt lat="44.32834781372362" lon="9.937021195611548"><ele>152.0</ele><time>2026-04-06T13:27:25Z</time></trkpt><trkpt lat="44.32822960118551" lon="9.937230363213153"><ele>152.0</ele><time>2026-04-06T13:27:26Z</time></trkpt><trkpt lat="44.328117074952466" lon="9.937464646476638"><ele>152.0</ele><time>2026-04-06T13:27:27Z</time></trkpt><trkpt lat="44.32800141689954" lon="9.937669950744493"><ele>152.0</ele><time>2026-04-06T13:27:28Z</time></trkpt><trkpt lat="44.327892351265945" lon="9.937863476306886"><ele>152.0</ele><time>2026-04-06T13:27:29Z</time></trkpt><trkpt lat="44.32778645872911" lon="9.938049823109692"><ele>152.0</ele><time>2026-04-06T13:27:30Z</time></trkpt><trkpt lat="44.327683822047625" lon="9.938217082728091"><ele>152.66666666666666</ele><time>2026-04-06T13:27:31Z</time></trkpt><trkpt lat="44.32758952586534" lon="9.938391294606822"><ele>153.33333333333334</ele><time>2026-04-06T13:27:32Z</time></trkpt><trkpt lat="44.32746996924968" lon="9.938541731011066"><ele>154.0</ele><time>2026-04-06T13:27:33Z</time></trkpt><trkpt lat="44.32734860847205" lon="9.938683201290008"><ele>153.0</ele><time>2026-04-06T13:27:34Z</time></trkpt><trkpt lat="44.32721145236357" lon="9.938793715498766"><ele>152.0</ele><time>2026-04-06T13:27:35Z</time></trkpt><trkpt lat="44.32705341542399" lon="9.938896293216262"><ele>151.0</ele><time>2026-04-06T13:27:36Z</time></trkpt><trkpt lat="44.32688304896509" lon="9.938988183207224"><ele>151.0</ele><time>2026-04-06T13:27:37Z</time></trkpt><trkpt lat="44.32671812666909" lon="9.939083230807384"><ele>151.0</ele><time>2026-04-06T13:27:38Z</time></trkpt><trkpt lat="44.326553581101045" lon="9.939178061257508"><ele>151.0</ele><time>2026-04-06T13:27:39Z</time></trkpt><trkpt lat="44.32638437413396" lon="9.939273478211673"><ele>152.0</ele><time>2026-04-06T13:27:40Z</time></trkpt><trkpt lat="44.326212555510324" lon="9.939370092161617"><ele>153.0</ele><time>2026-04-06T13:27:41Z</time></trkpt><trkpt lat="44.32603220899759" lon="9.939471501778085"><ele>154.0</ele><time>2026-04-06T13:27:42Z</time></trkpt><trkpt lat="44.32585238674867" lon="9.939572617501623"><ele>154.0</ele><time>2026-04-06T13:27:43Z</time></trkpt><trkpt lat="44.32566768630951" lon="9.939676476277956"><ele>154.0</ele><time>2026-04-06T13:27:44Z</time></trkpt><trkpt lat="44.32548457337318" lon="9.9397813516213"><ele>154.0</ele><time>2026-04-06T13:27:45Z</time></trkpt><trkpt lat="44.32529973790601" lon="9.939921993063578"><ele>153.66666666666669</ele><time>2026-04-06T13:27:46Z</time></trkpt><trkpt lat="44.325110304733826" lon="9.940023389124136"><ele>153.33333333333334</ele><time>2026-04-06T13:27:47Z</time></trkpt><trkpt lat="44.32492463659818" lon="9.94011557535098"><ele>153.0</ele><time>2026-04-06T13:27:48Z</time></trkpt><trkpt lat="44.32473990394352" lon="9.940212252748179"><ele>150.66666666666666</ele><time>2026-04-06T13:27:49Z</time></trkpt><trkpt lat="44.32454137956267" lon="9.940305714001276"><ele>148.33333333333331</ele><time>2026-04-06T13:27:50Z</time></trkpt><trkpt lat="44.32433479062645" lon="9.940405086048882"><ele>146.0</ele><time>2026-04-06T13:27:51Z</time></trkpt><trkpt lat="44.324118008423454" lon="9.940503916349353"><ele>146.0</ele><time>2026-04-06T13:27:52Z</time></trkpt><trkpt lat="44.323889085809206" lon="9.940608035559684"><ele>146.0</ele><time>2026-04-06T13:27:53Z</time></trkpt><trkpt lat="44.32364800407618" lon="9.940717588654504"><ele>146.0</ele><time>2026-04-06T13:27:54Z</time></trkpt><trkpt lat="44.323404838782714" lon="9.940840997477375"><ele>146.0</ele><time>2026-04-06T13:27:55Z</time></trkpt><trkpt lat="44.32316754987701" lon="9.940948923979404"><ele>145.0</ele><time>2026-04-06T13:27:56Z</time></trkpt><trkpt lat="44.322942608943166" lon="9.94105421350024"><ele>144.0</ele><time>2026-04-06T13:27:57Z</time></trkpt><trkpt lat="44.31015799649072" lon="9.946589414873085"><ele>143.33333333333334</ele><time>2026-04-06T13:28:57.999Z</time></trkpt><trkpt lat="44.309952907574925" lon="9.946552905844978"><ele>142.66666666666669</ele><time>2026-04-06T13:28:58.999Z</time></trkpt><trkpt lat="44.30974530035773" lon="9.946517024533875"><ele>142.0</ele><time>2026-04-06T13:28:59.999Z</time></trkpt><trkpt lat="44.309543394907706" lon="9.946482128672697"><ele>142.0</ele><time>2026-04-06T13:29:00.999Z</time></trkpt><trkpt lat="44.30935210353882" lon="9.946451619607023"><ele>142.0</ele><time>2026-04-06T13:29:01.999Z</time></trkpt><trkpt lat="44.30916195483764" lon="9.94642934460541"><ele>142.0</ele><time>2026-04-06T13:29:02.999Z</time></trkpt><trkpt lat="44.30896108507451" lon="9.94642282501373"><ele>142.5</ele><time>2026-04-06T13:29:03.999Z</time></trkpt><trkpt lat="44.30873813330879" lon="9.946434341947667"><ele>143.0</ele><time>2026-04-06T13:29:04.999Z</time></trkpt><trkpt lat="44.30851361532737" lon="9.946482117216497"><ele>143.0</ele><time>2026-04-06T13:29:05.999Z</time></trkpt><trkpt lat="44.308283201289214" lon="9.94653498975469"><ele>143.0</ele><time>2026-04-06T13:29:06.999Z</time></trkpt><trkpt lat="44.30804339128461" lon="9.946590018058961"><ele>143.0</ele><time>2026-04-06T13:29:07.999Z</time></trkpt><trkpt lat="44.30779921714568" lon="9.946659299713367"><ele>143.0</ele><time>2026-04-06T13:29:08.999Z</time></trkpt><trkpt lat="44.30754465599843" lon="9.946660922814596"><ele>143.0</ele><time>2026-04-06T13:29:09.999Z</time></trkpt><trkpt lat="44.307294151552455" lon="9.946632397540833"><ele>143.0</ele><time>2026-04-06T13:29:10.999Z</time></trkpt><trkpt lat="44.30707849007584" lon="9.946603598192011"><ele>143.0</ele><time>2026-04-06T13:29:11.999Z</time></trkpt><trkpt lat="44.306886800534876" lon="9.946573032251372"><ele>143.0</ele><time>2026-04-06T13:29:12.999Z</time></trkpt><trkpt lat="44.30671183623255" lon="9.946554318237899"><ele>143.0</ele><time>2026-04-06T13:29:13.999Z</time></trkpt><trkpt lat="44.30654457705671" lon="9.946545124209285"><ele>143.33333333333331</ele><time>2026-04-06T13:29:15Z</time></trkpt><trkpt lat="44.30639292342162" lon="9.946567460925964"><ele>143.66666666666666</ele><time>2026-04-06T13:29:16Z</time></trkpt><trkpt lat="44.306235642825655" lon="9.946642211167175"><ele>144.0</ele><time>2026-04-06T13:29:17Z</time></trkpt><trkpt lat="44.306062875640926" lon="9.946743735713467"><ele>144.66666666666666</ele><time>2026-04-06T13:29:18Z</time></trkpt><trkpt lat="44.30588147455915" lon="9.946854527472308"><ele>145.33333333333331</ele><time>2026-04-06T13:29:19Z</time></trkpt><trkpt lat="44.30569284630929" lon="9.946970012039037"><ele>146.0</ele><time>2026-04-06T13:29:20Z</time></trkpt><trkpt lat="44.30551985693239" lon="9.947061966443552"><ele>146.0</ele><time>2026-04-06T13:29:21Z</time></trkpt><trkpt lat="44.305352501536234" lon="9.947128006565478"><ele>146.0</ele><time>2026-04-06T13:29:22Z</time></trkpt><trkpt lat="44.3051861676875" lon="9.947175772273603"><ele>146.0</ele><time>2026-04-06T13:29:23Z</time></trkpt><trkpt lat="44.30502384779811" lon="9.947214444371328"><ele>146.0</ele><time>2026-04-06T13:29:24Z</time></trkpt><trkpt lat="44.30485762513059" lon="9.947259000860495"><ele>146.0</ele><time>2026-04-06T13:29:25Z</time></trkpt><trkpt lat="44.304694126544504" lon="9.94730153741916"><ele>146.0</ele><time>2026-04-06T13:29:26Z</time></trkpt><trkpt lat="44.30454482063958" lon="9.947343696402797"><ele>145.33333333333331</ele><time>2026-04-06T13:29:27Z</time></trkpt><trkpt lat="44.30438981676315" lon="9.947384938126714"><ele>144.66666666666666</ele><time>2026-04-06T13:29:28Z</time></trkpt><trkpt lat="44.30423806147672" lon="9.947425907995308"><ele>144.0</ele><time>2026-04-06T13:29:29Z</time></trkpt><trkpt lat="44.30408734980497" lon="9.947472063446412"><ele>144.0</ele><time>2026-04-06T13:29:30Z</time></trkpt><trkpt lat="44.30394193571466" lon="9.947510335201205"><ele>144.0</ele><time>2026-04-06T13:29:31Z</time></trkpt><trkpt lat="44.30379048154445" lon="9.947550296038383"><ele>144.0</ele><time>2026-04-06T13:29:32Z</time></trkpt><trkpt lat="44.303645815212214" lon="9.947584638439304"><ele>144.0</ele><time>2026-04-06T13:29:33Z</time></trkpt><trkpt lat="44.30349792126091" lon="9.947629114743815"><ele>144.33333333333334</ele><time>2026-04-06T13:29:34Z</time></trkpt><trkpt lat="44.30334920836732" lon="9.947669860794562"><ele>144.66666666666669</ele><time>2026-04-06T13:29:35Z</time></trkpt><trkpt lat="44.303198471371594" lon="9.947704816501313"><ele>145.0</ele><time>2026-04-06T13:29:36Z</time></trkpt><trkpt lat="44.30305472558572" lon="9.947737591061408"><ele>145.0</ele><time>2026-04-06T13:29:37Z</time></trkpt><trkpt lat="44.30290524217406" lon="9.947777018427617"><ele>145.0</ele><time>2026-04-06T13:29:38Z</time></trkpt><trkpt lat="44.30275570773156" lon="9.947821988727844"><ele>145.0</ele><time>2026-04-06T13:29:39Z</time></trkpt><trkpt lat="44.30260518824291" lon="9.94787306617753"><ele>145.0</ele><time>2026-04-06T13:29:40Z</time></trkpt><trkpt lat="44.302459370872356" lon="9.947918900743062"><ele>145.0</ele><time>2026-04-06T13:29:41Z</time></trkpt><trkpt lat="44.30231629787347" lon="9.947967545294018"><ele>145.0</ele><time>2026-04-06T13:29:42Z</time></trkpt><trkpt lat="44.30217610501494" lon="9.948012810021595"><ele>145.0</ele><time>2026-04-06T13:29:43Z</time></trkpt><trkpt lat="44.302036230330366" lon="9.94806057489421"><ele>145.25</ele><time>2026-04-06T13:29:44Z</time></trkpt><trkpt lat="44.30189048562792" lon="9.948123984159349"><ele>145.5</ele><time>2026-04-06T13:29:45Z</time></trkpt><trkpt lat="44.30174763525899" lon="9.948182684073869"><ele>145.75</ele><time>2026-04-06T13:29:46Z</time></trkpt><trkpt lat="44.301620292333816" lon="9.948234833288787"><ele>146.0</ele><time>2026-04-06T13:29:47Z</time></trkpt><trkpt lat="44.30149701067645" lon="9.948285512417081"><ele>145.0</ele><time>2026-04-06T13:29:48Z</time></trkpt><trkpt lat="44.301372275036705" lon="9.948337452543075"><ele>144.0</ele><time>2026-04-06T13:29:49Z</time></trkpt><trkpt lat="44.301240444356154" lon="9.948391447281208"><ele>143.0</ele><time>2026-04-06T13:29:50Z</time></trkpt><trkpt lat="44.30110425612462" lon="9.948445800768063"><ele>142.0</ele><time>2026-04-06T13:29:51Z</time></trkpt><trkpt lat="44.30096144026121" lon="9.94850172469905"><ele>142.0</ele><time>2026-04-06T13:29:52Z</time></trkpt><trkpt lat="44.30081656944679" lon="9.94855896974845"><ele>142.0</ele><time>2026-04-06T13:29:53Z</time></trkpt><trkpt lat="44.30067019685468" lon="9.948613267377352"><ele>142.0</ele><time>2026-04-06T13:29:54Z</time></trkpt><trkpt lat="44.30052353084857" lon="9.948666817819921"><ele>141.66666666666669</ele><time>2026-04-06T13:29:55Z</time></trkpt><trkpt lat="44.30038038112808" lon="9.948714064057846"><ele>141.33333333333334</ele><time>2026-04-06T13:29:56Z</time></trkpt><trkpt lat="44.300245227062895" lon="9.948756907221133"><ele>141.0</ele><time>2026-04-06T13:29:57Z</time></trkpt><trkpt lat="44.29436205238543" lon="9.951017321954954"><ele>138.33333333333334</ele><time>2026-04-06T13:30:57.999Z</time></trkpt><trkpt lat="44.294221416246096" lon="9.951067288187476"><ele>135.66666666666669</ele><time>2026-04-06T13:30:58.999Z</time></trkpt><trkpt lat="44.294072458146026" lon="9.951119499688733"><ele>133.0</ele><time>2026-04-06T13:30:59.999Z</time></trkpt><trkpt lat="44.29391918852331" lon="9.95117422497604"><ele>132.0</ele><time>2026-04-06T13:31:00.999Z</time></trkpt><trkpt lat="44.29376558064147" lon="9.951229342027586"><ele>131.0</ele><time>2026-04-06T13:31:01.999Z</time></trkpt><trkpt lat="44.29362306498899" lon="9.951280479002428"><ele>130.0</ele><time>2026-04-06T13:31:02.999Z</time></trkpt><trkpt lat="44.29348696430791" lon="9.951329174101142"><ele>129.0</ele><time>2026-04-06T13:31:03.999Z</time></trkpt><trkpt lat="44.29334675049441" lon="9.951379187279448"><ele>129.0</ele><time>2026-04-06T13:31:04.999Z</time></trkpt><trkpt lat="44.29319991311151" lon="9.951431563033427"><ele>129.0</ele><time>2026-04-06T13:31:05.999Z</time></trkpt><trkpt lat="44.29305388957316" lon="9.951483648496216"><ele>129.0</ele><time>2026-04-06T13:31:06.999Z</time></trkpt><trkpt lat="44.29290531545419" lon="9.951578970553365"><ele>128.66666666666666</ele><time>2026-04-06T13:31:07.999Z</time></trkpt><trkpt lat="44.292744239811064" lon="9.951630846693643"><ele>128.33333333333331</ele><time>2026-04-06T13:31:08.999Z</time></trkpt><trkpt lat="44.292573975975394" lon="9.95169582283675"><ele>128.0</ele><time>2026-04-06T13:31:09.999Z</time></trkpt><trkpt lat="44.29240663826426" lon="9.9517511417107"><ele>127.66666666666666</ele><time>2026-04-06T13:31:10.999Z</time></trkpt><trkpt lat="44.292243236769515" lon="9.951791666220839"><ele>127.33333333333334</ele><time>2026-04-06T13:31:11.999Z</time></trkpt><trkpt lat="44.29207157104044" lon="9.95180403653736"><ele>127.0</ele><time>2026-04-06T13:31:12.999Z</time></trkpt><trkpt lat="44.29190980870883" lon="9.951757485419238"><ele>127.0</ele><time>2026-04-06T13:31:13.999Z</time></trkpt><trkpt lat="44.29174755639418" lon="9.951734224126382"><ele>127.0</ele><time>2026-04-06T13:31:14.999Z</time></trkpt><trkpt lat="44.29157696877465" lon="9.951698776728907"><ele>127.0</ele><time>2026-04-06T13:31:15.999Z</time></trkpt><trkpt lat="44.29142332464174" lon="9.95166346591001"><ele>128.5</ele><time>2026-04-06T13:31:16.999Z</time></trkpt><trkpt lat="44.291288099433785" lon="9.951632743392553"><ele>130.0</ele><time>2026-04-06T13:31:17.999Z</time></trkpt><trkpt lat="44.291158540802115" lon="9.951604622227899"><ele>131.5</ele><time>2026-04-06T13:31:18.999Z</time></trkpt><trkpt lat="44.29103549339386" lon="9.95157850404988"><ele>133.0</ele><time>2026-04-06T13:31:19.999Z</time></trkpt><trkpt lat="44.29092880109584" lon="9.951546928527392"><ele>133.0</ele><time>2026-04-06T13:31:21Z</time></trkpt><trkpt lat="44.290824884207666" lon="9.951506916355068"><ele>133.0</ele><time>2026-04-06T13:31:22Z</time></trkpt><trkpt lat="44.2907309548276" lon="9.951442905350474"><ele>133.0</ele><time>2026-04-06T13:31:23Z</time></trkpt><trkpt lat="44.29067265588714" lon="9.951398996295238"><ele>133.0</ele><time>2026-04-06T13:31:24Z</time></trkpt><trkpt lat="44.29060812999364" lon="9.951269605258325"><ele>133.0</ele><time>2026-04-06T13:31:25Z</time></trkpt><trkpt lat="44.29055946017148" lon="9.951164770451228"><ele>133.5</ele><time>2026-04-06T13:31:26Z</time></trkpt><trkpt lat="44.29051569407914" lon="9.951063704987732"><ele>134.0</ele><time>2026-04-06T13:31:27Z</time></trkpt><trkpt lat="44.290467264191385" lon="9.950958240184463"><ele>134.5</ele><time>2026-04-06T13:31:28Z</time></trkpt><trkpt lat="44.290420385628614" lon="9.950866281513312"><ele>135.0</ele><time>2026-04-06T13:31:29Z</time></trkpt><trkpt lat="44.290375028253706" lon="9.950761209147394"><ele>135.5</ele><time>2026-04-06T13:31:30Z</time></trkpt><trkpt lat="44.29034243440625" lon="9.950675138564433"><ele>136.0</ele><time>2026-04-06T13:31:31Z</time></trkpt><trkpt lat="44.29030557258549" lon="9.950583775545168"><ele>136.0</ele><time>2026-04-06T13:31:32Z</time></trkpt><trkpt lat="44.29027191022374" lon="9.95047896714579"><ele>136.0</ele><time>2026-04-06T13:31:33Z</time></trkpt><trkpt lat="44.29021741901445" lon="9.950381742559056"><ele>136.0</ele><time>2026-04-06T13:31:34Z</time></trkpt><trkpt lat="44.29017673581013" lon="9.950268572870138"><ele>136.0</ele><time>2026-04-06T13:31:35Z</time></trkpt><trkpt lat="44.29012534499399" lon="9.950148535669245"><ele>136.0</ele><time>2026-04-06T13:31:36Z</time></trkpt><trkpt lat="44.29007892625823" lon="9.950040112108326"><ele>135.4</ele><time>2026-04-06T13:31:37Z</time></trkpt><trkpt lat="44.290037490649354" lon="9.949943327996255"><ele>134.8</ele><time>2026-04-06T13:31:38Z</time></trkpt><trkpt lat="44.289989609957885" lon="9.949831489614166"><ele>134.20000000000002</ele><time>2026-04-06T13:31:39Z</time></trkpt><trkpt lat="44.28992667189682" lon="9.949684797618575"><ele>133.6</ele><time>2026-04-06T13:31:40Z</time></trkpt><trkpt lat="44.289874523877764" lon="9.949563259938401"><ele>133.0</ele><time>2026-04-06T13:31:41Z</time></trkpt><trkpt lat="44.28982790429535" lon="9.949454693855794"><ele>133.0</ele><time>2026-04-06T13:31:42Z</time></trkpt><trkpt lat="44.2897734013471" lon="9.949328046963663"><ele>133.0</ele><time>2026-04-06T13:31:43Z</time></trkpt><trkpt lat="44.28970979366058" lon="9.94921886423026"><ele>133.0</ele><time>2026-04-06T13:31:44Z</time></trkpt><trkpt lat="44.289664771043306" lon="9.949108301733492"><ele>133.0</ele><time>2026-04-06T13:31:45Z</time></trkpt><trkpt lat="44.28961709490438" lon="9.949000897784195"><ele>133.0</ele><time>2026-04-06T13:31:46Z</time></trkpt><trkpt lat="44.28957919479968" lon="9.948898834343101"><ele>133.16666666666669</ele><time>2026-04-06T13:31:47Z</time></trkpt><trkpt lat="44.28953699081386" lon="9.94878972066152"><ele>133.33333333333334</ele><time>2026-04-06T13:31:48Z</time></trkpt><trkpt lat="44.28949665156587" lon="9.948676784954511"><ele>133.5</ele><time>2026-04-06T13:31:49Z</time></trkpt><trkpt lat="44.28945649058835" lon="9.948568584896506"><ele>133.66666666666666</ele><time>2026-04-06T13:31:50Z</time></trkpt><trkpt lat="44.28940631184577" lon="9.948464617841607"><ele>133.83333333333331</ele><time>2026-04-06T13:31:51Z</time></trkpt><trkpt lat="44.28935851798649" lon="9.948363472706516"><ele>134.0</ele><time>2026-04-06T13:31:52Z</time></trkpt><trkpt lat="44.289309430717566" lon="9.948266743182733"><ele>133.0</ele><time>2026-04-06T13:31:53Z</time></trkpt><trkpt lat="44.289246417214926" lon="9.948186019499188"><ele>132.0</ele><time>2026-04-06T13:31:54Z</time></trkpt><trkpt lat="44.28918216524905" lon="9.948104554331147"><ele>131.0</ele><time>2026-04-06T13:31:55Z</time></trkpt><trkpt lat="44.28910781758575" lon="9.948042729527003"><ele>130.0</ele><time>2026-04-06T13:31:56Z</time></trkpt><trkpt lat="44.289021819872936" lon="9.947996503996174"><ele>129.0</ele><time>2026-04-06T13:31:57Z</time></trkpt><trkpt lat="44.28133629125367" lon="9.950867948373386"><ele>126.33333333333334</ele><time>2026-04-06T13:32:58Z</time></trkpt><trkpt lat="44.281165651337126" lon="9.950957316062121"><ele>123.66666666666667</ele><time>2026-04-06T13:32:59Z</time></trkpt><trkpt lat="44.280984242437775" lon="9.95109314261145"><ele>121.0</ele><time>2026-04-06T13:33:00Z</time></trkpt><trkpt lat="44.28078032732297" lon="9.951228147891266"><ele>119.33333333333334</ele><time>2026-04-06T13:33:01Z</time></trkpt><trkpt lat="44.28059047707073" lon="9.951329014738505"><ele>117.66666666666666</ele><time>2026-04-06T13:33:02Z</time></trkpt><trkpt lat="44.280416720035355" lon="9.951442589231396"><ele>116.0</ele><time>2026-04-06T13:33:03Z</time></trkpt><trkpt lat="44.28025145206097" lon="9.9515506149297"><ele>116.0</ele><time>2026-04-06T13:33:04Z</time></trkpt><trkpt lat="44.28007970392408" lon="9.951641880901045"><ele>116.0</ele><time>2026-04-06T13:33:05Z</time></trkpt><trkpt lat="44.27990224529884" lon="9.951687301354847"><ele>116.0</ele><time>2026-04-06T13:33:06Z</time></trkpt><trkpt lat="44.27970911054379" lon="9.951710952978683"><ele>120.66666666666666</ele><time>2026-04-06T13:33:07Z</time></trkpt><trkpt lat="44.27952148170608" lon="9.95179398255597"><ele>125.33333333333334</ele><time>2026-04-06T13:33:08Z</time></trkpt><trkpt lat="44.27933133935861" lon="9.951879528662532"><ele>130.0</ele><time>2026-04-06T13:33:09Z</time></trkpt><trkpt lat="44.27914973046622" lon="9.951974948557147"><ele>130.0</ele><time>2026-04-06T13:33:10Z</time></trkpt><trkpt lat="44.27898019621983" lon="9.952067013884804"><ele>130.0</ele><time>2026-04-06T13:33:11Z</time></trkpt><trkpt lat="44.278813042794624" lon="9.952152141498296"><ele>130.0</ele><time>2026-04-06T13:33:12Z</time></trkpt><trkpt lat="44.27862854510956" lon="9.952220378667418"><ele>129.33333333333334</ele><time>2026-04-06T13:33:13Z</time></trkpt><trkpt lat="44.27844652236636" lon="9.952312579047124"><ele>128.66666666666666</ele><time>2026-04-06T13:33:14Z</time></trkpt><trkpt lat="44.27826948742278" lon="9.952435612090733"><ele>128.0</ele><time>2026-04-06T13:33:15Z</time></trkpt><trkpt lat="44.278083264746236" lon="9.952545364187253"><ele>128.0</ele><time>2026-04-06T13:33:16Z</time></trkpt><trkpt lat="44.27788209693136" lon="9.952639719727031"><ele>128.0</ele><time>2026-04-06T13:33:17Z</time></trkpt><trkpt lat="44.27768455187457" lon="9.952756353616"><ele>128.0</ele><time>2026-04-06T13:33:18Z</time></trkpt><trkpt lat="44.277476528923884" lon="9.952879172900198"><ele>122.5</ele><time>2026-04-06T13:33:19Z</time></trkpt><trkpt lat="44.27725704781852" lon="9.953009224985802"><ele>117.0</ele><time>2026-04-06T13:33:20Z</time></trkpt><trkpt lat="44.27702178603308" lon="9.95314948201584"><ele>117.0</ele><time>2026-04-06T13:33:21Z</time></trkpt><trkpt lat="44.276773549755205" lon="9.953297474199339"><ele>117.0</ele><time>2026-04-06T13:33:22Z</time></trkpt><trkpt lat="44.27650677556839" lon="9.95345918026164"><ele>123.5</ele><time>2026-04-06T13:33:23Z</time></trkpt><trkpt lat="44.276243454131524" lon="9.95361779018162"><ele>130.0</ele><time>2026-04-06T13:33:24Z</time></trkpt><trkpt lat="44.276010320748796" lon="9.953757984138008"><ele>130.0</ele><time>2026-04-06T13:33:25Z</time></trkpt><trkpt lat="44.27579577422351" lon="9.953887001116897"><ele>130.0</ele><time>2026-04-06T13:33:26Z</time></trkpt><trkpt lat="44.27559476943965" lon="9.954006204687913"><ele>135.0</ele><time>2026-04-06T13:33:27Z</time></trkpt><trkpt lat="44.27540323342988" lon="9.954117229875877"><ele>140.0</ele><time>2026-04-06T13:33:28Z</time></trkpt><trkpt lat="44.275221348698274" lon="9.954222593865486"><ele>145.0</ele><time>2026-04-06T13:33:29Z</time></trkpt><trkpt lat="44.275042880975576" lon="9.95432761409067"><ele>145.0</ele><time>2026-04-06T13:33:30Z</time></trkpt><trkpt lat="44.274868783588325" lon="9.954430078709288"><ele>145.0</ele><time>2026-04-06T13:33:31Z</time></trkpt><trkpt lat="44.274699817751404" lon="9.95452725622896"><ele>145.0</ele><time>2026-04-06T13:33:32Z</time></trkpt><trkpt lat="44.27453791545946" lon="9.954640782227084"><ele>141.0</ele><time>2026-04-06T13:33:33Z</time></trkpt><trkpt lat="44.27437159653258" lon="9.954720601675906"><ele>137.0</ele><time>2026-04-06T13:33:34Z</time></trkpt><trkpt lat="44.27418953185581" lon="9.954767507554898"><ele>133.0</ele><time>2026-04-06T13:33:35Z</time></trkpt><trkpt lat="44.27400149095345" lon="9.954818800365917"><ele>134.0</ele><time>2026-04-06T13:33:36Z</time></trkpt><trkpt lat="44.273815495875496" lon="9.954870946589121"><ele>135.0</ele><time>2026-04-06T13:33:37Z</time></trkpt><trkpt lat="44.273646175572566" lon="9.954904753707481"><ele>136.0</ele><time>2026-04-06T13:33:38Z</time></trkpt><trkpt lat="44.273486202453" lon="9.954899055764013"><ele>136.0</ele><time>2026-04-06T13:33:39Z</time></trkpt><trkpt lat="44.27331120863055" lon="9.954878135408324"><ele>136.0</ele><time>2026-04-06T13:33:40Z</time></trkpt><trkpt lat="44.27311799868693" lon="9.954872836821615"><ele>136.0</ele><time>2026-04-06T13:33:41Z</time></trkpt><trkpt lat="44.27291159537269" lon="9.954844064246462"><ele>136.66666666666669</ele><time>2026-04-06T13:33:42Z</time></trkpt><trkpt lat="44.272709913941526" lon="9.954793021972915"><ele>137.33333333333334</ele><time>2026-04-06T13:33:43Z</time></trkpt><trkpt lat="44.27252461259127" lon="9.954764999176996"><ele>138.0</ele><time>2026-04-06T13:33:44Z</time></trkpt><trkpt lat="44.272361114880276" lon="9.954740539993411"><ele>138.5</ele><time>2026-04-06T13:33:45Z</time></trkpt><trkpt lat="44.27220977501612" lon="9.954717899581054"><ele>139.0</ele><time>2026-04-06T13:33:46Z</time></trkpt><trkpt lat="44.2720765885846" lon="9.954675560433197"><ele>139.5</ele><time>2026-04-06T13:33:47Z</time></trkpt><trkpt lat="44.27195761725653" lon="9.95460969644622"><ele>140.0</ele><time>2026-04-06T13:33:48Z</time></trkpt><trkpt lat="44.27186035128304" lon="9.954487737746545"><ele>140.0</ele><time>2026-04-06T13:33:49Z</time></trkpt><trkpt lat="44.27180293002746" lon="9.95432174084491"><ele>140.0</ele><time>2026-04-06T13:33:50Z</time></trkpt><trkpt lat="44.27174679148668" lon="9.954141606253074"><ele>140.0</ele><time>2026-04-06T13:33:51Z</time></trkpt><trkpt lat="44.271677397851406" lon="9.953994497843498"><ele>140.0</ele><time>2026-04-06T13:33:52Z</time></trkpt><trkpt lat="44.271547979760946" lon="9.95391093149033"><ele>148.0</ele><time>2026-04-06T13:33:53Z</time></trkpt><trkpt lat="44.27139646930255" lon="9.953827134829032"><ele>156.0</ele><time>2026-04-06T13:33:54Z</time></trkpt><trkpt lat="44.271218979277" lon="9.953758404843521"><ele>164.0</ele><time>2026-04-06T13:33:55Z</time></trkpt><trkpt lat="44.27105339357603" lon="9.95366084514892"><ele>164.0</ele><time>2026-04-06T13:33:56Z</time></trkpt><trkpt lat="44.27087916715617" lon="9.953573373307336"><ele>164.0</ele><time>2026-04-06T13:33:57Z</time></trkpt><trkpt lat="44.261280123255965" lon="9.953537512976077"><ele>155.33333333333331</ele><time>2026-04-06T13:34:58Z</time></trkpt><trkpt lat="44.26109731124886" lon="9.953557543513739"><ele>146.66666666666666</ele><time>2026-04-06T13:34:59Z</time></trkpt><trkpt lat="44.26092853693805" lon="9.953585051417727"><ele>138.0</ele><time>2026-04-06T13:35:00Z</time></trkpt><trkpt lat="44.26075953633182" lon="9.953647231152676"><ele>135.66666666666666</ele><time>2026-04-06T13:35:01Z</time></trkpt><trkpt lat="44.26058957276281" lon="9.953745275630823"><ele>133.33333333333331</ele><time>2026-04-06T13:35:02Z</time></trkpt><trkpt lat="44.26043689429029" lon="9.953870659105181"><ele>131.0</ele><time>2026-04-06T13:35:03Z</time></trkpt><trkpt lat="44.2602928631215" lon="9.953990387622936"><ele>131.0</ele><time>2026-04-06T13:35:04Z</time></trkpt><trkpt lat="44.26015567233646" lon="9.954016284707398"><ele>131.0</ele><time>2026-04-06T13:35:05Z</time></trkpt><trkpt lat="44.26000973276906" lon="9.95400704992827"><ele>131.0</ele><time>2026-04-06T13:35:06Z</time></trkpt><trkpt lat="44.2598485914409" lon="9.95402465438081"><ele>131.0</ele><time>2026-04-06T13:35:07Z</time></trkpt><trkpt lat="44.2596789177044" lon="9.954058293977893"><ele>134.33333333333331</ele><time>2026-04-06T13:35:08Z</time></trkpt><trkpt lat="44.25951231701495" lon="9.954139883423005"><ele>137.66666666666666</ele><time>2026-04-06T13:35:09Z</time></trkpt><trkpt lat="44.25935667991388" lon="9.954237751284412"><ele>141.0</ele><time>2026-04-06T13:35:10Z</time></trkpt><trkpt lat="44.25922557722434" lon="9.954355959104285"><ele>141.0</ele><time>2026-04-06T13:35:11Z</time></trkpt><trkpt lat="44.259098403347885" lon="9.954510060389632"><ele>141.0</ele><time>2026-04-06T13:35:12Z</time></trkpt><trkpt lat="44.25898475668472" lon="9.954699318829443"><ele>141.0</ele><time>2026-04-06T13:35:13Z</time></trkpt><trkpt lat="44.25886837997765" lon="9.95486660430826"><ele>146.0</ele><time>2026-04-06T13:35:13.999Z</time></trkpt><trkpt lat="44.25872596329927" lon="9.9550017896393"><ele>151.0</ele><time>2026-04-06T13:35:14.999Z</time></trkpt><trkpt lat="44.25856206736787" lon="9.955106602493693"><ele>156.0</ele><time>2026-04-06T13:35:15.999Z</time></trkpt><trkpt lat="44.258382309723665" lon="9.95519139064267"><ele>156.0</ele><time>2026-04-06T13:35:16.999Z</time></trkpt><trkpt lat="44.25820352697518" lon="9.955268777799315"><ele>156.0</ele><time>2026-04-06T13:35:17.999Z</time></trkpt><trkpt lat="44.2580184620529" lon="9.955338835247389"><ele>156.0</ele><time>2026-04-06T13:35:18.999Z</time></trkpt><trkpt lat="44.257842038241975" lon="9.95538974118416"><ele>151.75</ele><time>2026-04-06T13:35:19.999Z</time></trkpt><trkpt lat="44.257686009107054" lon="9.955416265415653"><ele>147.5</ele><time>2026-04-06T13:35:20.999Z</time></trkpt><trkpt lat="44.25754868034437" lon="9.95545219665144"><ele>143.25</ele><time>2026-04-06T13:35:21.999Z</time></trkpt><trkpt lat="44.25741806879269" lon="9.955528657803486"><ele>139.0</ele><time>2026-04-06T13:35:22.999Z</time></trkpt><trkpt lat="44.25729080601806" lon="9.955653441330538"><ele>140.0</ele><time>2026-04-06T13:35:23.999Z</time></trkpt><trkpt lat="44.25716191947361" lon="9.955825377933998"><ele>141.0</ele><time>2026-04-06T13:35:24.999Z</time></trkpt><trkpt lat="44.25702727283198" lon="9.956024576218976"><ele>142.0</ele><time>2026-04-06T13:35:25.999Z</time></trkpt><trkpt lat="44.25688807631981" lon="9.956200774969512"><ele>142.0</ele><time>2026-04-06T13:35:26.999Z</time></trkpt><trkpt lat="44.2567395669068" lon="9.956336314414626"><ele>142.0</ele><time>2026-04-06T13:35:27.999Z</time></trkpt><trkpt lat="44.25657323887293" lon="9.956387952080934"><ele>142.0</ele><time>2026-04-06T13:35:28.999Z</time></trkpt><trkpt lat="44.25638725717436" lon="9.956452249346983"><ele>145.66666666666669</ele><time>2026-04-06T13:35:29.999Z</time></trkpt><trkpt lat="44.25618746785565" lon="9.956500353517319"><ele>149.33333333333334</ele><time>2026-04-06T13:35:30.999Z</time></trkpt><trkpt lat="44.25598318647879" lon="9.956612280735254"><ele>153.0</ele><time>2026-04-06T13:35:31.999Z</time></trkpt><trkpt lat="44.25578394503713" lon="9.95675616249157"><ele>147.66666666666666</ele><time>2026-04-06T13:35:33Z</time></trkpt><trkpt lat="44.255588666568805" lon="9.956910362791652"><ele>142.33333333333331</ele><time>2026-04-06T13:35:34Z</time></trkpt><trkpt lat="44.25539482923251" lon="9.957052536654201"><ele>137.0</ele><time>2026-04-06T13:35:35Z</time></trkpt><trkpt lat="44.25520813304697" lon="9.957180175224778"><ele>137.0</ele><time>2026-04-06T13:35:36Z</time></trkpt><trkpt lat="44.25503162959754" lon="9.957305881588292"><ele>137.0</ele><time>2026-04-06T13:35:37Z</time></trkpt><trkpt lat="44.25486932123754" lon="9.957415490824715"><ele>137.0</ele><time>2026-04-06T13:35:38Z</time></trkpt><trkpt lat="44.25471043341073" lon="9.957524277484008"><ele>137.33333333333331</ele><time>2026-04-06T13:35:39Z</time></trkpt><trkpt lat="44.25456247025503" lon="9.957637319166237"><ele>137.66666666666666</ele><time>2026-04-06T13:35:40Z</time></trkpt><trkpt lat="44.25443147536317" lon="9.957762065219548"><ele>138.0</ele><time>2026-04-06T13:35:41Z</time></trkpt><trkpt lat="44.254313474072816" lon="9.95789119366913"><ele>138.0</ele><time>2026-04-06T13:35:42Z</time></trkpt><trkpt lat="44.254203946287426" lon="9.958008416579489"><ele>138.0</ele><time>2026-04-06T13:35:43Z</time></trkpt><trkpt lat="44.2540820965547" lon="9.958090777891877"><ele>138.0</ele><time>2026-04-06T13:35:44Z</time></trkpt><trkpt lat="44.25395037808224" lon="9.958214204438304"><ele>138.0</ele><time>2026-04-06T13:35:45Z</time></trkpt><trkpt lat="44.253794836431624" lon="9.958161851085642"><ele>135.66666666666666</ele><time>2026-04-06T13:35:46Z</time></trkpt><trkpt lat="44.253655462435304" lon="9.95813438409755"><ele>133.33333333333331</ele><time>2026-04-06T13:35:47Z</time></trkpt><trkpt lat="44.25352081285276" lon="9.958035808422235"><ele>131.0</ele><time>2026-04-06T13:35:48Z</time></trkpt><trkpt lat="44.25338670413634" lon="9.957872237995801"><ele>131.0</ele><time>2026-04-06T13:35:49Z</time></trkpt><trkpt lat="44.25325633252275" lon="9.957656753516892"><ele>131.0</ele><time>2026-04-06T13:35:50Z</time></trkpt><trkpt lat="44.25309235910464" lon="9.957461762550455"><ele>131.0</ele><time>2026-04-06T13:35:51Z</time></trkpt><trkpt lat="44.25293205492081" lon="9.957270951152456"><ele>131.33333333333331</ele><time>2026-04-06T13:35:52Z</time></trkpt><trkpt lat="44.25278906706312" lon="9.95709850703732"><ele>131.66666666666666</ele><time>2026-04-06T13:35:53Z</time></trkpt><trkpt lat="44.25266138672513" lon="9.956923770890608"><ele>132.0</ele><time>2026-04-06T13:35:54Z</time></trkpt><trkpt lat="44.25256510687253" lon="9.956731764216311"><ele>130.33333333333334</ele><time>2026-04-06T13:35:55Z</time></trkpt><trkpt lat="44.25248236190338" lon="9.95652133013232"><ele>128.66666666666669</ele><time>2026-04-06T13:35:56Z</time></trkpt><trkpt lat="44.25242323787841" lon="9.956326971337674"><ele>127.0</ele><time>2026-04-06T13:35:57Z</time></trkpt><trkpt lat="44.24627715071884" lon="9.960404385534801"><ele>117.75</ele><time>2026-04-06T13:36:58Z</time></trkpt><trkpt lat="44.24616933655743" lon="9.960491831106358"><ele>108.5</ele><time>2026-04-06T13:36:59Z</time></trkpt><trkpt lat="44.24605756573385" lon="9.960560467032863"><ele>99.25</ele><time>2026-04-06T13:37:00Z</time></trkpt><trkpt lat="44.245939401370585" lon="9.960604661098948"><ele>90.0</ele><time>2026-04-06T13:37:01Z</time></trkpt><trkpt lat="44.24581420467182" lon="9.96059235768358"><ele>90.0</ele><time>2026-04-06T13:37:02Z</time></trkpt><trkpt lat="44.24567622240476" lon="9.960577163034232"><ele>90.0</ele><time>2026-04-06T13:37:03Z</time></trkpt><trkpt lat="44.245547805783794" lon="9.960585712221484"><ele>90.0</ele><time>2026-04-06T13:37:04Z</time></trkpt><trkpt lat="44.24544057293806" lon="9.96060085559615"><ele>90.0</ele><time>2026-04-06T13:37:05Z</time></trkpt><trkpt lat="44.24533679469195" lon="9.96059650999288"><ele>90.0</ele><time>2026-04-06T13:37:06Z</time></trkpt><trkpt lat="44.24524437960556" lon="9.960617195357871"><ele>90.0</ele><time>2026-04-06T13:37:07Z</time></trkpt><trkpt lat="44.245154126736686" lon="9.96063661456142"><ele>90.0</ele><time>2026-04-06T13:37:08Z</time></trkpt><trkpt lat="44.245060423642414" lon="9.960655667018152"><ele>90.0</ele><time>2026-04-06T13:37:09Z</time></trkpt><trkpt lat="44.24495756400294" lon="9.960672459254454"><ele>90.0</ele><time>2026-04-06T13:37:10Z</time></trkpt><trkpt lat="44.24484462939506" lon="9.960683012150266"><ele>92.0</ele><time>2026-04-06T13:37:11Z</time></trkpt><trkpt lat="44.24472691594111" lon="9.960675553228212"><ele>94.0</ele><time>2026-04-06T13:37:12Z</time></trkpt><trkpt lat="44.24461133207307" lon="9.960648677554987"><ele>96.0</ele><time>2026-04-06T13:37:13Z</time></trkpt><trkpt lat="44.2445073672081" lon="9.960601675101021"><ele>98.0</ele><time>2026-04-06T13:37:14Z</time></trkpt><trkpt lat="44.24441014135474" lon="9.960522756898687"><ele>98.0</ele><time>2026-04-06T13:37:15Z</time></trkpt><trkpt lat="44.24431472846441" lon="9.960419565433863"><ele>98.0</ele><time>2026-04-06T13:37:16Z</time></trkpt><trkpt lat="44.244216316360195" lon="9.960313684704646"><ele>98.0</ele><time>2026-04-06T13:37:17Z</time></trkpt><trkpt lat="44.24412743136292" lon="9.960218053963837"><ele>98.0</ele><time>2026-04-06T13:37:18Z</time></trkpt><trkpt lat="44.24404424503502" lon="9.960128554607515"><ele>98.0</ele><time>2026-04-06T13:37:19Z</time></trkpt><trkpt lat="44.243964312861166" lon="9.960042556038696"><ele>98.0</ele><time>2026-04-06T13:37:20Z</time></trkpt><trkpt lat="44.24388568963768" lon="9.959959316804214"><ele>98.0</ele><time>2026-04-06T13:37:21Z</time></trkpt><trkpt lat="44.24380376262822" lon="9.959872881796654"><ele>98.0</ele><time>2026-04-06T13:37:22Z</time></trkpt><trkpt lat="44.2437226294207" lon="9.959787284329547"><ele>98.0</ele><time>2026-04-06T13:37:23Z</time></trkpt><trkpt lat="44.243638289808665" lon="9.959698303956388"><ele>97.80000000000001</ele><time>2026-04-06T13:37:24Z</time></trkpt><trkpt lat="44.243549827117874" lon="9.959605653240425"><ele>97.6</ele><time>2026-04-06T13:37:25Z</time></trkpt><trkpt lat="44.24345911436304" lon="9.959510881434765"><ele>97.4</ele><time>2026-04-06T13:37:26Z</time></trkpt><trkpt lat="44.24336903698042" lon="9.95941913880841"><ele>97.19999999999999</ele><time>2026-04-06T13:37:27Z</time></trkpt><trkpt lat="44.243281646575284" lon="9.959341311908528"><ele>97.0</ele><time>2026-04-06T13:37:28Z</time></trkpt><trkpt lat="44.243190731195895" lon="9.959282308881429"><ele>96.75</ele><time>2026-04-06T13:37:29Z</time></trkpt><trkpt lat="44.243081499312225" lon="9.959243925923829"><ele>96.5</ele><time>2026-04-06T13:37:29.999Z</time></trkpt><trkpt lat="44.242964314254245" lon="9.959261869865097"><ele>96.25</ele><time>2026-04-06T13:37:30.999Z</time></trkpt><trkpt lat="44.24284247109788" lon="9.95928047855788"><ele>96.0</ele><time>2026-04-06T13:37:31.999Z</time></trkpt><trkpt lat="44.242717153529576" lon="9.959276564978882"><ele>96.0</ele><time>2026-04-06T13:37:32.999Z</time></trkpt><trkpt lat="44.24259028692477" lon="9.959293640521302"><ele>96.0</ele><time>2026-04-06T13:37:33.999Z</time></trkpt><trkpt lat="44.24246450638693" lon="9.959310269729531"><ele>96.0</ele><time>2026-04-06T13:37:34.999Z</time></trkpt><trkpt lat="44.242338596538815" lon="9.959327089164487"><ele>96.0</ele><time>2026-04-06T13:37:35.999Z</time></trkpt><trkpt lat="44.24222013837606" lon="9.959343150689412"><ele>94.75</ele><time>2026-04-06T13:37:36.999Z</time></trkpt><trkpt lat="44.2421003909668" lon="9.959359387022955"><ele>93.5</ele><time>2026-04-06T13:37:37.999Z</time></trkpt><trkpt lat="44.24197367664598" lon="9.959376568445373"><ele>92.25</ele><time>2026-04-06T13:37:39Z</time></trkpt><trkpt lat="44.241835715451984" lon="9.959394087286682"><ele>91.0</ele><time>2026-04-06T13:37:40Z</time></trkpt><trkpt lat="44.241698998131945" lon="9.959412190453211"><ele>91.0</ele><time>2026-04-06T13:37:41Z</time></trkpt><trkpt lat="44.24155716505281" lon="9.959430325561023"><ele>91.0</ele><time>2026-04-06T13:37:42Z</time></trkpt><trkpt lat="44.24141416845709" lon="9.959448609457825"><ele>91.0</ele><time>2026-04-06T13:37:43Z</time></trkpt><trkpt lat="44.24127162311305" lon="9.959466835643708"><ele>91.0</ele><time>2026-04-06T13:37:44Z</time></trkpt><trkpt lat="44.241134022154654" lon="9.959484429622217"><ele>90.0</ele><time>2026-04-06T13:37:45Z</time></trkpt><trkpt lat="44.2410086615997" lon="9.959500458533899"><ele>89.0</ele><time>2026-04-06T13:37:46Z</time></trkpt><trkpt lat="44.24088685576666" lon="9.959516032915543"><ele>88.0</ele><time>2026-04-06T13:37:47Z</time></trkpt><trkpt lat="44.2407707427423" lon="9.959530879389694"><ele>87.0</ele><time>2026-04-06T13:37:48Z</time></trkpt><trkpt lat="44.24064848292857" lon="9.959576602901935"><ele>86.25</ele><time>2026-04-06T13:37:49Z</time></trkpt><trkpt lat="44.24051685387878" lon="9.959593800213353"><ele>85.5</ele><time>2026-04-06T13:37:50Z</time></trkpt><trkpt lat="44.240378692155566" lon="9.959612322752733"><ele>84.75</ele><time>2026-04-06T13:37:51Z</time></trkpt><trkpt lat="44.24024344162225" lon="9.959631104955877"><ele>84.0</ele><time>2026-04-06T13:37:52Z</time></trkpt><trkpt lat="44.240101802493875" lon="9.95964763690516"><ele>84.0</ele><time>2026-04-06T13:37:53Z</time></trkpt><trkpt lat="44.23996218474708" lon="9.959632354825898"><ele>84.0</ele><time>2026-04-06T13:37:54Z</time></trkpt><trkpt lat="44.23981602101278" lon="9.959649825496948"><ele>84.0</ele><time>2026-04-06T13:37:55Z</time></trkpt><trkpt lat="44.23967476248404" lon="9.959666709885077"><ele>84.0</ele><time>2026-04-06T13:37:56Z</time></trkpt><trkpt lat="44.23953578730959" lon="9.959683321325937"><ele>73.0</ele><time>2026-04-06T13:37:57Z</time></trkpt><trkpt lat="44.231392113231806" lon="9.961292883290795"><ele>73.0</ele><time>2026-04-06T13:38:58Z</time></trkpt><trkpt lat="44.23131555909087" lon="9.961453445559753"><ele>73.0</ele><time>2026-04-06T13:38:59Z</time></trkpt><trkpt lat="44.23123162329063" lon="9.961610882177053"><ele>73.0</ele><time>2026-04-06T13:39:00Z</time></trkpt><trkpt lat="44.231163792957425" lon="9.961781130144727"><ele>73.0</ele><time>2026-04-06T13:39:01Z</time></trkpt><trkpt lat="44.231107004162716" lon="9.961944356708962"><ele>73.0</ele><time>2026-04-06T13:39:02Z</time></trkpt><trkpt lat="44.23106329183479" lon="9.96212193782674"><ele>73.0</ele><time>2026-04-06T13:39:03Z</time></trkpt><trkpt lat="44.231026186676964" lon="9.962292428168594"><ele>73.0</ele><time>2026-04-06T13:39:04Z</time></trkpt><trkpt lat="44.230999061721654" lon="9.962454229789897"><ele>73.0</ele><time>2026-04-06T13:39:05Z</time></trkpt><trkpt lat="44.230970281912946" lon="9.962612714845063"><ele>73.25</ele><time>2026-04-06T13:39:06Z</time></trkpt><trkpt lat="44.23094325829066" lon="9.962781069032737"><ele>73.5</ele><time>2026-04-06T13:39:07Z</time></trkpt><trkpt lat="44.230909885855695" lon="9.962953353747945"><ele>73.75</ele><time>2026-04-06T13:39:08Z</time></trkpt><trkpt lat="44.230888226014166" lon="9.963126908601575"><ele>74.0</ele><time>2026-04-06T13:39:09Z</time></trkpt><trkpt lat="44.23086197704009" lon="9.963271371705257"><ele>74.75</ele><time>2026-04-06T13:39:10Z</time></trkpt><trkpt lat="44.23083390217046" lon="9.963419968257615"><ele>75.5</ele><time>2026-04-06T13:39:11Z</time></trkpt><trkpt lat="44.230808271444886" lon="9.963570660001444"><ele>76.25</ele><time>2026-04-06T13:39:12Z</time></trkpt><trkpt lat="44.2307790603295" lon="9.963731275800146"><ele>77.0</ele><time>2026-04-06T13:39:13Z</time></trkpt><trkpt lat="44.230743395724836" lon="9.96389818852683"><ele>77.0</ele><time>2026-04-06T13:39:14Z</time></trkpt><trkpt lat="44.23069747919126" lon="9.964067240922907"><ele>77.0</ele><time>2026-04-06T13:39:15Z</time></trkpt><trkpt lat="44.23063705521956" lon="9.964222052447028"><ele>77.0</ele><time>2026-04-06T13:39:16Z</time></trkpt><trkpt lat="44.23056588279008" lon="9.964363040662258"><ele>77.0</ele><time>2026-04-06T13:39:17Z</time></trkpt><trkpt lat="44.23047392412556" lon="9.964468676480516"><ele>76.4</ele><time>2026-04-06T13:39:18Z</time></trkpt><trkpt lat="44.23038791005296" lon="9.964564555075492"><ele>75.80000000000001</ele><time>2026-04-06T13:39:19Z</time></trkpt><trkpt lat="44.23030344383025" lon="9.964640632388985"><ele>75.2</ele><time>2026-04-06T13:39:20Z</time></trkpt><trkpt lat="44.23022002092624" lon="9.964701042291347"><ele>74.60000000000001</ele><time>2026-04-06T13:39:21Z</time></trkpt><trkpt lat="44.230127714060515" lon="9.964755479382001"><ele>74.0</ele><time>2026-04-06T13:39:22Z</time></trkpt><trkpt lat="44.23003556246007" lon="9.964800337489994"><ele>74.0</ele><time>2026-04-06T13:39:23Z</time></trkpt><trkpt lat="44.22993395756318" lon="9.964839767952288"><ele>74.0</ele><time>2026-04-06T13:39:24Z</time></trkpt><trkpt lat="44.22982088302444" lon="9.96487921141849"><ele>74.0</ele><time>2026-04-06T13:39:24.999Z</time></trkpt><trkpt lat="44.229713723672525" lon="9.964916594064116"><ele>74.0</ele><time>2026-04-06T13:39:25.999Z</time></trkpt><trkpt lat="44.22960556653443" lon="9.964954339644363"><ele>74.0</ele><time>2026-04-06T13:39:26.999Z</time></trkpt><trkpt lat="44.22949403901221" lon="9.96499326148367"><ele>72.0</ele><time>2026-04-06T13:39:27.999Z</time></trkpt><trkpt lat="44.22938557408914" lon="9.96503160684271"><ele>70.0</ele><time>2026-04-06T13:39:28.999Z</time></trkpt><trkpt lat="44.229273894808856" lon="9.96507140315383"><ele>68.0</ele><time>2026-04-06T13:39:29.999Z</time></trkpt><trkpt lat="44.229161816347286" lon="9.96511134171847"><ele>66.0</ele><time>2026-04-06T13:39:30.999Z</time></trkpt><trkpt lat="44.22904703925362" lon="9.965152295928505"><ele>66.2</ele><time>2026-04-06T13:39:31.999Z</time></trkpt><trkpt lat="44.22894526949658" lon="9.965190661736628"><ele>66.39999999999999</ele><time>2026-04-06T13:39:32.999Z</time></trkpt><trkpt lat="44.228834600357025" lon="9.965234099547635"><ele>66.6</ele><time>2026-04-06T13:39:33.999Z</time></trkpt><trkpt lat="44.22872252297068" lon="9.965277796100077"><ele>66.8</ele><time>2026-04-06T13:39:34.999Z</time></trkpt><trkpt lat="44.22861980930283" lon="9.965317560355693"><ele>67.0</ele><time>2026-04-06T13:39:35.999Z</time></trkpt><trkpt lat="44.228514898071346" lon="9.965357402393767"><ele>67.0</ele><time>2026-04-06T13:39:36.999Z</time></trkpt><trkpt lat="44.228395597370444" lon="9.965402183876892"><ele>67.0</ele><time>2026-04-06T13:39:37.999Z</time></trkpt><trkpt lat="44.22829346108948" lon="9.965473037655913"><ele>67.0</ele><time>2026-04-06T13:39:38.999Z</time></trkpt><trkpt lat="44.2281847947132" lon="9.965510408809164"><ele>67.0</ele><time>2026-04-06T13:39:39.999Z</time></trkpt><trkpt lat="44.228067446563195" lon="9.96556945422049"><ele>66.75</ele><time>2026-04-06T13:39:40.999Z</time></trkpt><trkpt lat="44.227945644964294" lon="9.965615232435155"><ele>66.5</ele><time>2026-04-06T13:39:41.999Z</time></trkpt><trkpt lat="44.227815528701555" lon="9.965671597653735"><ele>66.25</ele><time>2026-04-06T13:39:42.999Z</time></trkpt><trkpt lat="44.2276689241274" lon="9.96567714978672"><ele>66.0</ele><time>2026-04-06T13:39:43.999Z</time></trkpt><trkpt lat="44.22753879859581" lon="9.965726926307505"><ele>66.0</ele><time>2026-04-06T13:39:45Z</time></trkpt><trkpt lat="44.22742454875303" lon="9.965772262435875"><ele>66.0</ele><time>2026-04-06T13:39:46Z</time></trkpt><trkpt lat="44.227307269104884" lon="9.965831859762499"><ele>66.0</ele><time>2026-04-06T13:39:47Z</time></trkpt><trkpt lat="44.227189743500205" lon="9.965914844346752"><ele>66.0</ele><time>2026-04-06T13:39:48Z</time></trkpt><trkpt lat="44.22707594943381" lon="9.966027035495138"><ele>65.33333333333333</ele><time>2026-04-06T13:39:49Z</time></trkpt><trkpt lat="44.226973563947425" lon="9.96616289357047"><ele>64.66666666666666</ele><time>2026-04-06T13:39:50Z</time></trkpt><trkpt lat="44.226854264118245" lon="9.966345487059847"><ele>64.0</ele><time>2026-04-06T13:39:51Z</time></trkpt><trkpt lat="44.22672032025981" lon="9.966565909179684"><ele>64.66666666666666</ele><time>2026-04-06T13:39:52Z</time></trkpt><trkpt lat="44.22659399854121" lon="9.96678033471157"><ele>65.33333333333333</ele><time>2026-04-06T13:39:53Z</time></trkpt><trkpt lat="44.22649758581561" lon="9.966961228404859"><ele>66.0</ele><time>2026-04-06T13:39:54Z</time></trkpt><trkpt lat="44.226397723701254" lon="9.967135535315611"><ele>66.0</ele><time>2026-04-06T13:39:55Z</time></trkpt><trkpt lat="44.22628741317079" lon="9.96728110418093"><ele>66.0</ele><time>2026-04-06T13:39:56Z</time></trkpt><trkpt lat="44.2261944398324" lon="9.967425332832645"><ele>66.0</ele><time>2026-04-06T13:39:57Z</time></trkpt><trkpt lat="44.22136472871172" lon="9.97158720309247"><ele>65.33333333333333</ele><time>2026-04-06T13:40:58Z</time></trkpt><trkpt lat="44.22140267460441" lon="9.971797041288033"><ele>64.66666666666666</ele><time>2026-04-06T13:40:59Z</time></trkpt><trkpt lat="44.22144453116352" lon="9.97205783424302"><ele>64.0</ele><time>2026-04-06T13:41:00Z</time></trkpt><trkpt lat="44.22148857389507" lon="9.972321495292418"><ele>64.0</ele><time>2026-04-06T13:41:01Z</time></trkpt><trkpt lat="44.22151434846702" lon="9.972563390092791"><ele>64.0</ele><time>2026-04-06T13:41:02Z</time></trkpt><trkpt lat="44.22154854263357" lon="9.97277904452074"><ele>64.0</ele><time>2026-04-06T13:41:03Z</time></trkpt><trkpt lat="44.221601996051234" lon="9.972985196003316"><ele>64.0</ele><time>2026-04-06T13:41:04Z</time></trkpt><trkpt lat="44.22162601042536" lon="9.97320142247843"><ele>64.0</ele><time>2026-04-06T13:41:05Z</time></trkpt><trkpt lat="44.2216461936525" lon="9.973440980553642"><ele>64.0</ele><time>2026-04-06T13:41:06Z</time></trkpt><trkpt lat="44.221664650700404" lon="9.973688402075028"><ele>63.5</ele><time>2026-04-06T13:41:07Z</time></trkpt><trkpt lat="44.22168314437216" lon="9.973908826657736"><ele>63.0</ele><time>2026-04-06T13:41:08Z</time></trkpt><trkpt lat="44.22170096927823" lon="9.974100311922006"><ele>62.5</ele><time>2026-04-06T13:41:09Z</time></trkpt><trkpt lat="44.221724293520715" lon="9.974270980263015"><ele>62.0</ele><time>2026-04-06T13:41:10Z</time></trkpt><trkpt lat="44.22174962087892" lon="9.974430839521936"><ele>62.8</ele><time>2026-04-06T13:41:11Z</time></trkpt><trkpt lat="44.22178132831488" lon="9.97453645635281"><ele>63.6</ele><time>2026-04-06T13:41:12Z</time></trkpt><trkpt lat="44.22187519133608" lon="9.974629885243363"><ele>64.39999999999999</ele><time>2026-04-06T13:41:14Z</time></trkpt><trkpt lat="44.22194848713413" lon="9.974655232330813"><ele>65.2</ele><time>2026-04-06T13:41:15Z</time></trkpt><trkpt lat="44.22205037401876" lon="9.974675559382222"><ele>66.0</ele><time>2026-04-06T13:41:15.999Z</time></trkpt><trkpt lat="44.222176986067964" lon="9.97469313194892"><ele>66.5</ele><time>2026-04-06T13:41:16.999Z</time></trkpt><trkpt lat="44.22231640978209" lon="9.974720076936558"><ele>67.0</ele><time>2026-04-06T13:41:17.999Z</time></trkpt><trkpt lat="44.222450403218865" lon="9.974753092090397"><ele>67.5</ele><time>2026-04-06T13:41:18.999Z</time></trkpt><trkpt lat="44.22258723144072" lon="9.974787984679917"><ele>68.0</ele><time>2026-04-06T13:41:19.999Z</time></trkpt><trkpt lat="44.222722090156935" lon="9.97481047214287"><ele>68.0</ele><time>2026-04-06T13:41:20.999Z</time></trkpt><trkpt lat="44.22283920813525" lon="9.974794278788433"><ele>68.0</ele><time>2026-04-06T13:41:21.999Z</time></trkpt><trkpt lat="44.22294104266695" lon="9.974737422226234"><ele>68.0</ele><time>2026-04-06T13:41:22.999Z</time></trkpt><trkpt lat="44.22303649734961" lon="9.974642190269954"><ele>68.0</ele><time>2026-04-06T13:41:23.999Z</time></trkpt><trkpt lat="44.22311083188505" lon="9.974519988360463"><ele>67.75</ele><time>2026-04-06T13:41:24.999Z</time></trkpt><trkpt lat="44.22315491323106" lon="9.97436813853138"><ele>67.5</ele><time>2026-04-06T13:41:25.999Z</time></trkpt><trkpt lat="44.2231729722222" lon="9.974215949002705"><ele>67.25</ele><time>2026-04-06T13:41:26.999Z</time></trkpt><trkpt lat="44.223170672020736" lon="9.974038846093617"><ele>67.0</ele><time>2026-04-06T13:41:27.999Z</time></trkpt><trkpt lat="44.22314732594693" lon="9.973819223178864"><ele>66.0</ele><time>2026-04-06T13:41:28.999Z</time></trkpt><trkpt lat="44.22311093953335" lon="9.973567411614773"><ele>65.0</ele><time>2026-04-06T13:41:29.999Z</time></trkpt><trkpt lat="44.2230794688668" lon="9.973336879793349"><ele>64.0</ele><time>2026-04-06T13:41:30.999Z</time></trkpt><trkpt lat="44.22305822929097" lon="9.97312561036821"><ele>64.0</ele><time>2026-04-06T13:41:31.999Z</time></trkpt><trkpt lat="44.2230437396528" lon="9.972945742233321"><ele>64.0</ele><time>2026-04-06T13:41:32.999Z</time></trkpt><trkpt lat="44.22303604903384" lon="9.972800592836888"><ele>64.0</ele><time>2026-04-06T13:41:33.999Z</time></trkpt><trkpt lat="44.22303975404065" lon="9.972690007025163"><ele>64.0</ele><time>2026-04-06T13:41:34.999Z</time></trkpt><trkpt lat="44.22311794175264" lon="9.972522597019818"><ele>63.5</ele><time>2026-04-06T13:41:36.999Z</time></trkpt><trkpt lat="44.22319567761658" lon="9.972469631677244"><ele>63.0</ele><time>2026-04-06T13:41:37.999Z</time></trkpt><trkpt lat="44.22328977847053" lon="9.972403329702235"><ele>62.5</ele><time>2026-04-06T13:41:38.999Z</time></trkpt><trkpt lat="44.22344483062658" lon="9.972410529741452"><ele>62.0</ele><time>2026-04-06T13:41:39.999Z</time></trkpt><trkpt lat="44.22359542759037" lon="9.972402352888205"><ele>62.0</ele><time>2026-04-06T13:41:40.999Z</time></trkpt><trkpt lat="44.22371653801573" lon="9.972410023574415"><ele>62.0</ele><time>2026-04-06T13:41:41.999Z</time></trkpt><trkpt lat="44.22379753788266" lon="9.972395765965759"><ele>62.0</ele><time>2026-04-06T13:41:42.999Z</time></trkpt><trkpt lat="44.22386504737298" lon="9.972517175747917"><ele>62.0</ele><time>2026-04-06T13:41:43.999Z</time></trkpt><trkpt lat="44.22391909693319" lon="9.972583303203965"><ele>62.0</ele><time>2026-04-06T13:41:45.999Z</time></trkpt><trkpt lat="44.21706067604637" lon="9.976398870996183"><ele>66.66666666666667</ele><time>2026-04-06T13:42:57.999Z</time></trkpt><trkpt lat="44.2168746513562" lon="9.976453780123103"><ele>71.33333333333333</ele><time>2026-04-06T13:42:58.999Z</time></trkpt><trkpt lat="44.21670945942664" lon="9.976504334043934"><ele>76.0</ele><time>2026-04-06T13:42:59.999Z</time></trkpt><trkpt lat="44.21655418359373" lon="9.976557026527415"><ele>77.66666666666666</ele><time>2026-04-06T13:43:00.999Z</time></trkpt><trkpt lat="44.21639663256927" lon="9.976604649721038"><ele>79.33333333333333</ele><time>2026-04-06T13:43:01.999Z</time></trkpt><trkpt lat="44.21624230742979" lon="9.976647692828122"><ele>81.0</ele><time>2026-04-06T13:43:02.999Z</time></trkpt><trkpt lat="44.2160903830954" lon="9.976689664574609"><ele>78.25</ele><time>2026-04-06T13:43:03.999Z</time></trkpt><trkpt lat="44.215949536710326" lon="9.976741668944351"><ele>75.5</ele><time>2026-04-06T13:43:04.999Z</time></trkpt><trkpt lat="44.21580329203443" lon="9.97678704820058"><ele>72.75</ele><time>2026-04-06T13:43:05.999Z</time></trkpt><trkpt lat="44.21566997225044" lon="9.976844769481175"><ele>70.0</ele><time>2026-04-06T13:43:06.999Z</time></trkpt><trkpt lat="44.21553261139401" lon="9.976937607107432"><ele>69.33333333333333</ele><time>2026-04-06T13:43:07.999Z</time></trkpt><trkpt lat="44.21540301768762" lon="9.97705518465763"><ele>68.66666666666667</ele><time>2026-04-06T13:43:08.999Z</time></trkpt><trkpt lat="44.21527790982062" lon="9.977168419879227"><ele>68.0</ele><time>2026-04-06T13:43:09.999Z</time></trkpt><trkpt lat="44.21514547960606" lon="9.977265040937743"><ele>68.0</ele><time>2026-04-06T13:43:10.999Z</time></trkpt><trkpt lat="44.21498941551962" lon="9.977331843979318"><ele>68.0</ele><time>2026-04-06T13:43:11.999Z</time></trkpt><trkpt lat="44.21480338945873" lon="9.977337312703563"><ele>68.0</ele><time>2026-04-06T13:43:12.999Z</time></trkpt><trkpt lat="44.2145874922439" lon="9.977339811398618"><ele>68.0</ele><time>2026-04-06T13:43:13.999Z</time></trkpt><trkpt lat="44.214374336424335" lon="9.977377652855195"><ele>68.0</ele><time>2026-04-06T13:43:14.999Z</time></trkpt><trkpt lat="44.21416942417963" lon="9.977434265361278"><ele>68.0</ele><time>2026-04-06T13:43:15.999Z</time></trkpt><trkpt lat="44.21398312154155" lon="9.977503793302784"><ele>67.33333333333334</ele><time>2026-04-06T13:43:16.999Z</time></trkpt><trkpt lat="44.21381165607235" lon="9.977572086284844"><ele>66.66666666666667</ele><time>2026-04-06T13:43:17.999Z</time></trkpt><trkpt lat="44.21364891614043" lon="9.977630776182217"><ele>66.0</ele><time>2026-04-06T13:43:18.999Z</time></trkpt><trkpt lat="44.21347287112332" lon="9.97764240060809"><ele>66.0</ele><time>2026-04-06T13:43:19.999Z</time></trkpt><trkpt lat="44.21327109773405" lon="9.977644561073417"><ele>66.0</ele><time>2026-04-06T13:43:20.999Z</time></trkpt><trkpt lat="44.2130519153564" lon="9.977646279931248"><ele>66.0</ele><time>2026-04-06T13:43:21.999Z</time></trkpt><trkpt lat="44.21284939170856" lon="9.97764712888898"><ele>67.33333333333333</ele><time>2026-04-06T13:43:22.999Z</time></trkpt><trkpt lat="44.21265756123644" lon="9.977670661475127"><ele>68.66666666666666</ele><time>2026-04-06T13:43:23.999Z</time></trkpt><trkpt lat="44.21247525011472" lon="9.97767124162671"><ele>70.0</ele><time>2026-04-06T13:43:24.999Z</time></trkpt><trkpt lat="44.212304009447166" lon="9.977652759341138"><ele>71.0</ele><time>2026-04-06T13:43:25.999Z</time></trkpt><trkpt lat="44.212151598204684" lon="9.977655613824611"><ele>72.0</ele><time>2026-04-06T13:43:26.999Z</time></trkpt><trkpt lat="44.21201701513288" lon="9.977657852228473"><ele>73.0</ele><time>2026-04-06T13:43:27.999Z</time></trkpt><trkpt lat="44.21188019045829" lon="9.977651860393411"><ele>74.0</ele><time>2026-04-06T13:43:28.999Z</time></trkpt><trkpt lat="44.21173164171107" lon="9.977648000193142"><ele>74.0</ele><time>2026-04-06T13:43:29.999Z</time></trkpt><trkpt lat="44.21157872207016" lon="9.977583519677882"><ele>74.0</ele><time>2026-04-06T13:43:30.999Z</time></trkpt><trkpt lat="44.21143737339191" lon="9.977534312307323"><ele>74.0</ele><time>2026-04-06T13:43:31.999Z</time></trkpt><trkpt lat="44.21130573518974" lon="9.977519466439972"><ele>74.0</ele><time>2026-04-06T13:43:32.999Z</time></trkpt><trkpt lat="44.21118233427473" lon="9.977545394847038"><ele>73.4</ele><time>2026-04-06T13:43:33.999Z</time></trkpt><trkpt lat="44.21106280466096" lon="9.977566976761885"><ele>72.80000000000001</ele><time>2026-04-06T13:43:34.999Z</time></trkpt><trkpt lat="44.21095095715556" lon="9.977593820323982"><ele>72.19999999999999</ele><time>2026-04-06T13:43:35.999Z</time></trkpt><trkpt lat="44.21086350885609" lon="9.977578028893198"><ele>71.6</ele><time>2026-04-06T13:43:36.999Z</time></trkpt><trkpt lat="44.21076899131158" lon="9.977524464318037"><ele>71.0</ele><time>2026-04-06T13:43:37.999Z</time></trkpt><trkpt lat="44.210672294482514" lon="9.977393983032437"><ele>74.0</ele><time>2026-04-06T13:43:38.999Z</time></trkpt><trkpt lat="44.21057275050875" lon="9.977250826726696"><ele>77.0</ele><time>2026-04-06T13:43:39.999Z</time></trkpt><trkpt lat="44.21044060270852" lon="9.977149628070125"><ele>80.0</ele><time>2026-04-06T13:43:40.999Z</time></trkpt><trkpt lat="44.210253578872354" lon="9.97707336806131"><ele>80.0</ele><time>2026-04-06T13:43:41.999Z</time></trkpt><trkpt lat="44.21002087395817" lon="9.977011685221228"><ele>80.0</ele><time>2026-04-06T13:43:42.999Z</time></trkpt><trkpt lat="44.209771258779234" lon="9.976949385496628"><ele>80.66666666666667</ele><time>2026-04-06T13:43:43.999Z</time></trkpt><trkpt lat="44.209550105457254" lon="9.976889862468047"><ele>81.33333333333333</ele><time>2026-04-06T13:43:44.999Z</time></trkpt><trkpt lat="44.20936429290366" lon="9.976844537616394"><ele>82.0</ele><time>2026-04-06T13:43:45.999Z</time></trkpt><trkpt lat="44.209208057388906" lon="9.97681027798692"><ele>82.0</ele><time>2026-04-06T13:43:46.999Z</time></trkpt><trkpt lat="44.20906612219907" lon="9.976785753123336"><ele>82.0</ele><time>2026-04-06T13:43:47.999Z</time></trkpt><trkpt lat="44.2089472325761" lon="9.97677041668153"><ele>82.0</ele><time>2026-04-06T13:43:48.999Z</time></trkpt><trkpt lat="44.20883134667427" lon="9.976764443007125"><ele>82.0</ele><time>2026-04-06T13:43:49.999Z</time></trkpt><trkpt lat="44.208730382488746" lon="9.976742582606812"><ele>79.6</ele><time>2026-04-06T13:43:50.999Z</time></trkpt><trkpt lat="44.20865043462471" lon="9.976710022912755"><ele>77.19999999999999</ele><time>2026-04-06T13:43:51.999Z</time></trkpt><trkpt lat="44.20858333329862" lon="9.976683249055945"><ele>74.8</ele><time>2026-04-06T13:43:52.999Z</time></trkpt><trkpt lat="44.208464541217865" lon="9.976710776802461"><ele>72.4</ele><time>2026-04-06T13:43:54.999Z</time></trkpt><trkpt lat="44.208406162132896" lon="9.976858451499014"><ele>70.0</ele><time>2026-04-06T13:43:55.999Z</time></trkpt><trkpt lat="44.20833175378494" lon="9.977018315656203"><ele>66.0</ele><time>2026-04-06T13:43:56.999Z</time></trkpt><trkpt lat="44.20119511208427" lon="9.98473427595755"><ele>66.0</ele><time>2026-04-06T13:44:57.999Z</time></trkpt><trkpt lat="44.20122388371108" lon="9.984867383498027"><ele>66.0</ele><time>2026-04-06T13:44:59.999Z</time></trkpt><trkpt lat="44.20128040716609" lon="9.985004519749333"><ele>66.0</ele><time>2026-04-06T13:45:42.999Z</time></trkpt><trkpt lat="44.201320680395305" lon="9.985168693713863"><ele>66.0</ele><time>2026-04-06T13:45:43.999Z</time></trkpt><trkpt lat="44.20136293378805" lon="9.985358912010934"><ele>66.0</ele><time>2026-04-06T13:45:44.999Z</time></trkpt><trkpt lat="44.201378185455326" lon="9.98554775759122"><ele>66.0</ele><time>2026-04-06T13:45:45.999Z</time></trkpt><trkpt lat="44.201355606222705" lon="9.985737373620053"><ele>66.0</ele><time>2026-04-06T13:45:46.999Z</time></trkpt><trkpt lat="44.20132273189042" lon="9.985985528999167"><ele>66.0</ele><time>2026-04-06T13:45:47.999Z</time></trkpt><trkpt lat="44.20128871058581" lon="9.986243783916336"><ele>66.0</ele><time>2026-04-06T13:45:48.999Z</time></trkpt><trkpt lat="44.20127365791584" lon="9.986551228922362"><ele>66.0</ele><time>2026-04-06T13:45:49.999Z</time></trkpt><trkpt lat="44.20128476806473" lon="9.986907496297142"><ele>66.33333333333333</ele><time>2026-04-06T13:45:50.999Z</time></trkpt><trkpt lat="44.201290550940314" lon="9.987226296822719"><ele>66.66666666666666</ele><time>2026-04-06T13:45:51.999Z</time></trkpt><trkpt lat="44.2012814201967" lon="9.987507217655867"><ele>67.0</ele><time>2026-04-06T13:45:52.999Z</time></trkpt><trkpt lat="44.20126639101108" lon="9.987766028592954"><ele>67.0</ele><time>2026-04-06T13:45:53.999Z</time></trkpt><trkpt lat="44.201274544990866" lon="9.987991801682304"><ele>67.0</ele><time>2026-04-06T13:45:54.999Z</time></trkpt><trkpt lat="44.20128798160381" lon="9.988194067505828"><ele>67.0</ele><time>2026-04-06T13:45:55.999Z</time></trkpt><trkpt lat="44.20131584640664" lon="9.988425774819852"><ele>72.0</ele><time>2026-04-06T13:45:56.999Z</time></trkpt><trkpt lat="44.20328834696457" lon="9.99624951983402"><ele>75.0</ele><time>2026-04-06T13:46:33Z</time></trkpt><trkpt lat="44.20319730697268" lon="10.000565143753345"><ele>75.75</ele><time>2026-04-06T13:46:58Z</time></trkpt><trkpt lat="44.20312601675545" lon="10.000724132106885"><ele>76.5</ele><time>2026-04-06T13:46:59Z</time></trkpt><trkpt lat="44.20306754046958" lon="10.000903828802421"><ele>77.25</ele><time>2026-04-06T13:47:00Z</time></trkpt><trkpt lat="44.20302759011348" lon="10.001107547282896"><ele>78.0</ele><time>2026-04-06T13:47:01Z</time></trkpt><trkpt lat="44.2029948862742" lon="10.001336970669964"><ele>79.33333333333333</ele><time>2026-04-06T13:47:02Z</time></trkpt><trkpt lat="44.2029537918262" lon="10.001561211363304"><ele>80.66666666666666</ele><time>2026-04-06T13:47:03Z</time></trkpt><trkpt lat="44.20291251673588" lon="10.001811830487219"><ele>82.0</ele><time>2026-04-06T13:47:04Z</time></trkpt><trkpt lat="44.20286921363495" lon="10.002045829851166"><ele>82.0</ele><time>2026-04-06T13:47:05Z</time></trkpt><trkpt lat="44.202832861625815" lon="10.002272396783601"><ele>82.0</ele><time>2026-04-06T13:47:06Z</time></trkpt><trkpt lat="44.20280204271364" lon="10.002509938252834"><ele>82.0</ele><time>2026-04-06T13:47:07Z</time></trkpt><trkpt lat="44.20278150042848" lon="10.00274479070473"><ele>82.0</ele><time>2026-04-06T13:47:08Z</time></trkpt><trkpt lat="44.202771922598096" lon="10.002992492646937"><ele>82.0</ele><time>2026-04-06T13:47:09Z</time></trkpt><trkpt lat="44.20277534973673" lon="10.003237748138854"><ele>82.0</ele><time>2026-04-06T13:47:10Z</time></trkpt><trkpt lat="44.202795568108655" lon="10.00348100191368"><ele>83.0</ele><time>2026-04-06T13:47:11Z</time></trkpt><trkpt lat="44.2028323263359" lon="10.003721947413366"><ele>84.0</ele><time>2026-04-06T13:47:12Z</time></trkpt><trkpt lat="44.20288347974678" lon="10.003969471161847"><ele>85.0</ele><time>2026-04-06T13:47:13Z</time></trkpt><trkpt lat="44.202929159703885" lon="10.004193539852142"><ele>85.33333333333333</ele><time>2026-04-06T13:47:14Z</time></trkpt><trkpt lat="44.202968917505125" lon="10.004431892475939"><ele>85.66666666666667</ele><time>2026-04-06T13:47:15Z</time></trkpt><trkpt lat="44.20301026855433" lon="10.004662438439464"><ele>86.0</ele><time>2026-04-06T13:47:16Z</time></trkpt><trkpt lat="44.20304941539975" lon="10.004889909410002"><ele>85.75</ele><time>2026-04-06T13:47:17Z</time></trkpt><trkpt lat="44.20308322940393" lon="10.005093683580338"><ele>85.5</ele><time>2026-04-06T13:47:18Z</time></trkpt><trkpt lat="44.20311745274821" lon="10.005290934198717"><ele>85.25</ele><time>2026-04-06T13:47:19Z</time></trkpt><trkpt lat="44.20315113246577" lon="10.005487317464954"><ele>85.0</ele><time>2026-04-06T13:47:20Z</time></trkpt><trkpt lat="44.20318713392585" lon="10.00569286051841"><ele>83.5</ele><time>2026-04-06T13:47:21Z</time></trkpt><trkpt lat="44.20322441219138" lon="10.00589768541849"><ele>82.0</ele><time>2026-04-06T13:47:22Z</time></trkpt><trkpt lat="44.2032608894898" lon="10.00609949758191"><ele>80.5</ele><time>2026-04-06T13:47:23Z</time></trkpt><trkpt lat="44.203295843877584" lon="10.006294591442423"><ele>79.0</ele><time>2026-04-06T13:47:24Z</time></trkpt><trkpt lat="44.2033309408577" lon="10.006486314210429"><ele>79.0</ele><time>2026-04-06T13:47:25Z</time></trkpt><trkpt lat="44.20335844459002" lon="10.006651624473431"><ele>79.0</ele><time>2026-04-06T13:47:26Z</time></trkpt><trkpt lat="44.20339083283339" lon="10.006825952644077"><ele>79.0</ele><time>2026-04-06T13:47:26.999Z</time></trkpt><trkpt lat="44.20342674157351" lon="10.0070020980676"><ele>79.0</ele><time>2026-04-06T13:47:27.999Z</time></trkpt><trkpt lat="44.20346025189887" lon="10.007179676948516"><ele>79.25</ele><time>2026-04-06T13:47:28.999Z</time></trkpt><trkpt lat="44.20349380297383" lon="10.007367256153298"><ele>79.5</ele><time>2026-04-06T13:47:29.999Z</time></trkpt><trkpt lat="44.20352398510405" lon="10.007546415203368"><ele>79.75</ele><time>2026-04-06T13:47:30.999Z</time></trkpt><trkpt lat="44.203541327301885" lon="10.007743571188"><ele>80.0</ele><time>2026-04-06T13:47:31.999Z</time></trkpt><trkpt lat="44.203575765462155" lon="10.00793536424312"><ele>80.5</ele><time>2026-04-06T13:47:32.999Z</time></trkpt><trkpt lat="44.203610041420205" lon="10.008128900086847"><ele>81.0</ele><time>2026-04-06T13:47:33.999Z</time></trkpt><trkpt lat="44.203645697586566" lon="10.008323613021636"><ele>81.5</ele><time>2026-04-06T13:47:34.999Z</time></trkpt><trkpt lat="44.20369551989633" lon="10.008509096360191"><ele>82.0</ele><time>2026-04-06T13:47:35.999Z</time></trkpt><trkpt lat="44.203731044544504" lon="10.00870311389643"><ele>82.25</ele><time>2026-04-06T13:47:36.999Z</time></trkpt><trkpt lat="44.203759902833305" lon="10.0088960302022"><ele>82.5</ele><time>2026-04-06T13:47:37.999Z</time></trkpt><trkpt lat="44.20379213524519" lon="10.009090420980428"><ele>82.75</ele><time>2026-04-06T13:47:38.999Z</time></trkpt><trkpt lat="44.20382634783901" lon="10.009283548205694"><ele>83.0</ele><time>2026-04-06T13:47:39.999Z</time></trkpt><trkpt lat="44.20386021740675" lon="10.009481114867656"><ele>83.0</ele><time>2026-04-06T13:47:40.999Z</time></trkpt><trkpt lat="44.203894959064705" lon="10.009676090984888"><ele>83.0</ele><time>2026-04-06T13:47:41.999Z</time></trkpt><trkpt lat="44.20392434642626" lon="10.00987384583385"><ele>83.0</ele><time>2026-04-06T13:47:42.999Z</time></trkpt><trkpt lat="44.20395292058321" lon="10.010082686566692"><ele>83.0</ele><time>2026-04-06T13:47:43.999Z</time></trkpt><trkpt lat="44.20397156332036" lon="10.01028891766834"><ele>82.75</ele><time>2026-04-06T13:47:44.999Z</time></trkpt><trkpt lat="44.203982933482926" lon="10.010496876878523"><ele>82.5</ele><time>2026-04-06T13:47:45.999Z</time></trkpt><trkpt lat="44.20398779342285" lon="10.01069561045142"><ele>82.25</ele><time>2026-04-06T13:47:46.999Z</time></trkpt><trkpt lat="44.2039871662378" lon="10.010892792951298"><ele>82.0</ele><time>2026-04-06T13:47:47.999Z</time></trkpt><trkpt lat="44.20397893109673" lon="10.011092998568012"><ele>82.5</ele><time>2026-04-06T13:47:48.999Z</time></trkpt><trkpt lat="44.2039588553942" lon="10.011288404847653"><ele>83.0</ele><time>2026-04-06T13:47:49.999Z</time></trkpt><trkpt lat="44.20394025212688" lon="10.011479450715283"><ele>83.5</ele><time>2026-04-06T13:47:50.999Z</time></trkpt><trkpt lat="44.20392079642334" lon="10.011658201272848"><ele>84.0</ele><time>2026-04-06T13:47:51.999Z</time></trkpt><trkpt lat="44.20390174299082" lon="10.01183001550915"><ele>84.25</ele><time>2026-04-06T13:47:52.999Z</time></trkpt><trkpt lat="44.203884353982545" lon="10.011988372234942"><ele>84.5</ele><time>2026-04-06T13:47:53.999Z</time></trkpt><trkpt lat="44.20386712325112" lon="10.012151459480716"><ele>84.75</ele><time>2026-04-06T13:47:54.999Z</time></trkpt><trkpt lat="44.20385128484957" lon="10.012310132669805"><ele>85.0</ele><time>2026-04-06T13:47:55.999Z</time></trkpt><trkpt lat="44.20383444974572" lon="10.012473411453051"><ele>104.0</ele><time>2026-04-06T13:47:56.999Z</time></trkpt><trkpt lat="44.20144197614692" lon="10.020653141247042"><ele>108.0</ele><time>2026-04-06T13:48:58Z</time></trkpt><trkpt lat="44.20145790783415" lon="10.02096344462265"><ele>112.0</ele><time>2026-04-06T13:48:59Z</time></trkpt><trkpt lat="44.20147322860204" lon="10.021315628988706"><ele>116.0</ele><time>2026-04-06T13:49:00Z</time></trkpt><trkpt lat="44.201483871274114" lon="10.021698965310911"><ele>120.0</ele><time>2026-04-06T13:49:01Z</time></trkpt><trkpt lat="44.20149659419591" lon="10.02204539855549"><ele>112.0</ele><time>2026-04-06T13:49:02Z</time></trkpt><trkpt lat="44.201504112784725" lon="10.022359771580513"><ele>104.0</ele><time>2026-04-06T13:49:03Z</time></trkpt><trkpt lat="44.20151623838033" lon="10.02265081442826"><ele>96.0</ele><time>2026-04-06T13:49:04Z</time></trkpt><trkpt lat="44.20154443095455" lon="10.022923094301875"><ele>96.0</ele><time>2026-04-06T13:49:05Z</time></trkpt><trkpt lat="44.201588737135964" lon="10.023192003889635"><ele>96.0</ele><time>2026-04-06T13:49:06Z</time></trkpt><trkpt lat="44.20165590377999" lon="10.023455909836295"><ele>96.0</ele><time>2026-04-06T13:49:07Z</time></trkpt><trkpt lat="44.201718330669294" lon="10.023745185794903"><ele>97.0</ele><time>2026-04-06T13:49:08Z</time></trkpt><trkpt lat="44.20177732466355" lon="10.024041082878712"><ele>98.0</ele><time>2026-04-06T13:49:09Z</time></trkpt><trkpt lat="44.20183634969241" lon="10.024322439434723"><ele>99.0</ele><time>2026-04-06T13:49:10Z</time></trkpt><trkpt lat="44.20189247396931" lon="10.024590341898657"><ele>100.66666666666666</ele><time>2026-04-06T13:49:11Z</time></trkpt><trkpt lat="44.201946331391" lon="10.024854059765833"><ele>102.33333333333333</ele><time>2026-04-06T13:49:12Z</time></trkpt><trkpt lat="44.201994353066944" lon="10.025107566954029"><ele>104.0</ele><time>2026-04-06T13:49:13Z</time></trkpt><trkpt lat="44.20204403398225" lon="10.025361363486248"><ele>105.33333333333333</ele><time>2026-04-06T13:49:14Z</time></trkpt><trkpt lat="44.20208985674775" lon="10.025589470579785"><ele>106.66666666666666</ele><time>2026-04-06T13:49:15Z</time></trkpt><trkpt lat="44.20213862685487" lon="10.025823575239835"><ele>108.0</ele><time>2026-04-06T13:49:16Z</time></trkpt><trkpt lat="44.20218753083964" lon="10.02605779872501"><ele>109.33333333333334</ele><time>2026-04-06T13:49:17Z</time></trkpt><trkpt lat="44.20222189115031" lon="10.026279297463962"><ele>110.66666666666667</ele><time>2026-04-06T13:49:18Z</time></trkpt><trkpt lat="44.20223616003753" lon="10.02650861620074"><ele>112.0</ele><time>2026-04-06T13:49:19Z</time></trkpt><trkpt lat="44.202224328917744" lon="10.026748977607017"><ele>112.33333333333334</ele><time>2026-04-06T13:49:20Z</time></trkpt><trkpt lat="44.202178224386984" lon="10.026980906226603"><ele>112.66666666666666</ele><time>2026-04-06T13:49:21Z</time></trkpt><trkpt lat="44.20211498280882" lon="10.02721391973571"><ele>113.0</ele><time>2026-04-06T13:49:22Z</time></trkpt><trkpt lat="44.20205527801213" lon="10.027420265930694"><ele>110.5</ele><time>2026-04-06T13:49:23Z</time></trkpt><trkpt lat="44.20200851031582" lon="10.027598411378872"><ele>108.0</ele><time>2026-04-06T13:49:24Z</time></trkpt><trkpt lat="44.20197294993553" lon="10.027768597154367"><ele>105.5</ele><time>2026-04-06T13:49:25Z</time></trkpt><trkpt lat="44.20196786947294" lon="10.027924558534083"><ele>103.0</ele><time>2026-04-06T13:49:26Z</time></trkpt><trkpt lat="44.201989235569684" lon="10.028078547123338"><ele>103.0</ele><time>2026-04-06T13:49:27Z</time></trkpt><trkpt lat="44.20203724241726" lon="10.028225244764942"><ele>103.0</ele><time>2026-04-06T13:49:28Z</time></trkpt><trkpt lat="44.20211701286713" lon="10.028361779238157"><ele>103.0</ele><time>2026-04-06T13:49:29Z</time></trkpt><trkpt lat="44.20222044190084" lon="10.028474903037402"><ele>103.0</ele><time>2026-04-06T13:49:30Z</time></trkpt><trkpt lat="44.202335039452215" lon="10.028572542336844"><ele>99.25</ele><time>2026-04-06T13:49:31Z</time></trkpt><trkpt lat="44.20243810205695" lon="10.028647037380276"><ele>95.5</ele><time>2026-04-06T13:49:32Z</time></trkpt><trkpt lat="44.20253118499076" lon="10.028725421543086"><ele>91.75</ele><time>2026-04-06T13:49:33Z</time></trkpt><trkpt lat="44.202626338109475" lon="10.028811121809559"><ele>88.0</ele><time>2026-04-06T13:49:34Z</time></trkpt><trkpt lat="44.20273158368946" lon="10.028901105799706"><ele>88.0</ele><time>2026-04-06T13:49:35Z</time></trkpt><trkpt lat="44.202841125395935" lon="10.028996422693798"><ele>88.0</ele><time>2026-04-06T13:49:36Z</time></trkpt><trkpt lat="44.2029543372374" lon="10.029094043798267"><ele>88.0</ele><time>2026-04-06T13:49:37Z</time></trkpt><trkpt lat="44.2030590390956" lon="10.02918742553964"><ele>88.0</ele><time>2026-04-06T13:49:38Z</time></trkpt><trkpt lat="44.20314559873509" lon="10.029285920986714"><ele>89.25</ele><time>2026-04-06T13:49:39Z</time></trkpt><trkpt lat="44.20320817720174" lon="10.029407504406954"><ele>90.5</ele><time>2026-04-06T13:49:40Z</time></trkpt><trkpt lat="44.20324255691464" lon="10.029557344494863"><ele>91.75</ele><time>2026-04-06T13:49:41Z</time></trkpt><trkpt lat="44.203246509622325" lon="10.029722320319403"><ele>93.0</ele><time>2026-04-06T13:49:42Z</time></trkpt><trkpt lat="44.20321581520912" lon="10.02989477581674"><ele>92.75</ele><time>2026-04-06T13:49:43Z</time></trkpt><trkpt lat="44.20315762916711" lon="10.030066984106185"><ele>92.5</ele><time>2026-04-06T13:49:44Z</time></trkpt><trkpt lat="44.20309593438976" lon="10.03024663128655"><ele>92.25</ele><time>2026-04-06T13:49:44.999Z</time></trkpt><trkpt lat="44.20303098063924" lon="10.030465497432264"><ele>92.0</ele><time>2026-04-06T13:49:45.999Z</time></trkpt><trkpt lat="44.20295158824153" lon="10.030708126737789"><ele>92.66666666666667</ele><time>2026-04-06T13:49:46.999Z</time></trkpt><trkpt lat="44.20285265343739" lon="10.03097527576575"><ele>93.33333333333333</ele><time>2026-04-06T13:49:47.999Z</time></trkpt><trkpt lat="44.20274557023318" lon="10.031262533916525"><ele>94.0</ele><time>2026-04-06T13:49:48.999Z</time></trkpt><trkpt lat="44.20263680331444" lon="10.031585445559239"><ele>95.0</ele><time>2026-04-06T13:49:49.999Z</time></trkpt><trkpt lat="44.20252957160108" lon="10.03190739419529"><ele>96.0</ele><time>2026-04-06T13:49:50.999Z</time></trkpt><trkpt lat="44.20242220378478" lon="10.032230468238758"><ele>95.0</ele><time>2026-04-06T13:49:51.999Z</time></trkpt><trkpt lat="44.202321669683485" lon="10.032529696143914"><ele>94.0</ele><time>2026-04-06T13:49:52.999Z</time></trkpt><trkpt lat="44.20222573746435" lon="10.03281733587357"><ele>94.0</ele><time>2026-04-06T13:49:53.999Z</time></trkpt><trkpt lat="44.20213061304401" lon="10.033103533014865"><ele>94.0</ele><time>2026-04-06T13:49:54.999Z</time></trkpt><trkpt lat="44.202037614353486" lon="10.033379471520606"><ele>94.0</ele><time>2026-04-06T13:49:55.999Z</time></trkpt><trkpt lat="44.20194272843066" lon="10.03366715711385"><ele>105.0</ele><time>2026-04-06T13:49:56.999Z</time></trkpt><trkpt lat="44.1991952949774" lon="10.049524265298205"><ele>105.0</ele><time>2026-04-06T13:50:58Z</time></trkpt><trkpt lat="44.19929361747102" lon="10.04968383692785"><ele>105.0</ele><time>2026-04-06T13:50:59Z</time></trkpt><trkpt lat="44.199399886072335" lon="10.049809970447447"><ele>105.0</ele><time>2026-04-06T13:51:00Z</time></trkpt><trkpt lat="44.199514860329984" lon="10.049917625827149"><ele>105.0</ele><time>2026-04-06T13:51:01Z</time></trkpt><trkpt lat="44.19963313768383" lon="10.050006601075934"><ele>105.4</ele><time>2026-04-06T13:51:02Z</time></trkpt><trkpt lat="44.19974703294026" lon="10.050082784706069"><ele>105.8</ele><time>2026-04-06T13:51:03Z</time></trkpt><trkpt lat="44.19985559063394" lon="10.050141982355854"><ele>106.19999999999999</ele><time>2026-04-06T13:51:04Z</time></trkpt><trkpt lat="44.199956341958654" lon="10.050197740675358"><ele>106.6</ele><time>2026-04-06T13:51:05Z</time></trkpt><trkpt lat="44.200039677861255" lon="10.05025696741815"><ele>107.0</ele><time>2026-04-06T13:51:06Z</time></trkpt><trkpt lat="44.20012576343677" lon="10.050374205196304"><ele>108.25</ele><time>2026-04-06T13:51:07Z</time></trkpt><trkpt lat="44.200163382418445" lon="10.050534317158577"><ele>109.5</ele><time>2026-04-06T13:51:08Z</time></trkpt><trkpt lat="44.20020572752085" lon="10.050702734500243"><ele>110.75</ele><time>2026-04-06T13:51:09Z</time></trkpt><trkpt lat="44.20025754147492" lon="10.050862262527728"><ele>112.0</ele><time>2026-04-06T13:51:10Z</time></trkpt><trkpt lat="44.20030978590751" lon="10.051016557071726"><ele>112.19999999999999</ele><time>2026-04-06T13:51:11Z</time></trkpt><trkpt lat="44.200361678520565" lon="10.05116831924965"><ele>112.39999999999999</ele><time>2026-04-06T13:51:12Z</time></trkpt><trkpt lat="44.200408725022236" lon="10.051305196033255"><ele>112.60000000000001</ele><time>2026-04-06T13:51:13Z</time></trkpt><trkpt lat="44.20045134645693" lon="10.05143532359386"><ele>112.80000000000001</ele><time>2026-04-06T13:51:14Z</time></trkpt><trkpt lat="44.20048982399026" lon="10.051553324070916"><ele>113.0</ele><time>2026-04-06T13:51:15Z</time></trkpt><trkpt lat="44.2005227276127" lon="10.051663700988605"><ele>113.4</ele><time>2026-04-06T13:51:16Z</time></trkpt><trkpt lat="44.20055243072651" lon="10.051779292908714"><ele>113.80000000000001</ele><time>2026-04-06T13:51:17Z</time></trkpt><trkpt lat="44.20058808810972" lon="10.051914321538549"><ele>114.2</ele><time>2026-04-06T13:51:18Z</time></trkpt><trkpt lat="44.20060950196736" lon="10.05205885900378"><ele>114.6</ele><time>2026-04-06T13:51:19Z</time></trkpt><trkpt lat="44.20061738297038" lon="10.052215002355764"><ele>115.0</ele><time>2026-04-06T13:51:20Z</time></trkpt><trkpt lat="44.20061973515166" lon="10.052372577994955"><ele>115.0</ele><time>2026-04-06T13:51:21Z</time></trkpt><trkpt lat="44.20061526286777" lon="10.052533734766874"><ele>115.0</ele><time>2026-04-06T13:51:22Z</time></trkpt><trkpt lat="44.20060666762844" lon="10.052728415273437"><ele>115.0</ele><time>2026-04-06T13:51:23Z</time></trkpt><trkpt lat="44.20059665603456" lon="10.05295928557767"><ele>115.0</ele><time>2026-04-06T13:51:24Z</time></trkpt><trkpt lat="44.200575553621114" lon="10.053189191043419"><ele>114.75</ele><time>2026-04-06T13:51:25Z</time></trkpt><trkpt lat="44.200562699217286" lon="10.053387237662866"><ele>114.5</ele><time>2026-04-06T13:51:26Z</time></trkpt><trkpt lat="44.20054988885118" lon="10.053574672754477"><ele>114.25</ele><time>2026-04-06T13:51:27Z</time></trkpt><trkpt lat="44.20053681326618" lon="10.053748116738225"><ele>114.0</ele><time>2026-04-06T13:51:28Z</time></trkpt><trkpt lat="44.200523307653334" lon="10.053919295888747"><ele>114.0</ele><time>2026-04-06T13:51:29Z</time></trkpt><trkpt lat="44.20051110306263" lon="10.05408546093796"><ele>114.0</ele><time>2026-04-06T13:51:30Z</time></trkpt><trkpt lat="44.200498650943125" lon="10.054250247724042"><ele>114.0</ele><time>2026-04-06T13:51:31Z</time></trkpt><trkpt lat="44.200486457818286" lon="10.054414423440532"><ele>114.0</ele><time>2026-04-06T13:51:32Z</time></trkpt><trkpt lat="44.20047772993413" lon="10.054579520682326"><ele>114.0</ele><time>2026-04-06T13:51:33Z</time></trkpt><trkpt lat="44.200468777283845" lon="10.054750463654749"><ele>114.0</ele><time>2026-04-06T13:51:34Z</time></trkpt><trkpt lat="44.20045743802225" lon="10.054925407366284"><ele>114.0</ele><time>2026-04-06T13:51:35Z</time></trkpt><trkpt lat="44.200449232796274" lon="10.05509961454165"><ele>114.0</ele><time>2026-04-06T13:51:36Z</time></trkpt><trkpt lat="44.20043779768886" lon="10.0552665128704"><ele>114.4</ele><time>2026-04-06T13:51:37Z</time></trkpt><trkpt lat="44.200422991404515" lon="10.055416172903998"><ele>114.80000000000001</ele><time>2026-04-06T13:51:38Z</time></trkpt><trkpt lat="44.20040824832967" lon="10.055561907304858"><ele>115.19999999999999</ele><time>2026-04-06T13:51:39Z</time></trkpt><trkpt lat="44.20039734667945" lon="10.055711108077968"><ele>115.6</ele><time>2026-04-06T13:51:40Z</time></trkpt><trkpt lat="44.200398407767054" lon="10.055866771721183"><ele>116.0</ele><time>2026-04-06T13:51:41Z</time></trkpt><trkpt lat="44.200414605203406" lon="10.056021581396086"><ele>116.0</ele><time>2026-04-06T13:51:42Z</time></trkpt><trkpt lat="44.20045048825017" lon="10.056182784240779"><ele>116.0</ele><time>2026-04-06T13:51:42.999Z</time></trkpt><trkpt lat="44.20049561430698" lon="10.056334289463226"><ele>116.0</ele><time>2026-04-06T13:51:43.999Z</time></trkpt><trkpt lat="44.20053452790395" lon="10.05647485173137"><ele>116.0</ele><time>2026-04-06T13:51:44.999Z</time></trkpt><trkpt lat="44.200571510676895" lon="10.056618590504188"><ele>114.75</ele><time>2026-04-06T13:51:45.999Z</time></trkpt><trkpt lat="44.20062647657404" lon="10.056769696866247"><ele>113.5</ele><time>2026-04-06T13:51:46.999Z</time></trkpt><trkpt lat="44.2006675313489" lon="10.056922136255725"><ele>112.25</ele><time>2026-04-06T13:51:47.999Z</time></trkpt><trkpt lat="44.2007058854981" lon="10.057077303295854"><ele>111.0</ele><time>2026-04-06T13:51:48.999Z</time></trkpt><trkpt lat="44.200746090014036" lon="10.0572228964093"><ele>113.8</ele><time>2026-04-06T13:51:49.999Z</time></trkpt><trkpt lat="44.20078315633003" lon="10.057362160564711"><ele>116.6</ele><time>2026-04-06T13:51:50.999Z</time></trkpt><trkpt lat="44.20081918740644" lon="10.057493821511423"><ele>119.4</ele><time>2026-04-06T13:51:51.999Z</time></trkpt><trkpt lat="44.200857376591514" lon="10.057638249935716"><ele>122.2</ele><time>2026-04-06T13:51:52.999Z</time></trkpt><trkpt lat="44.200895847881405" lon="10.057785789959466"><ele>125.0</ele><time>2026-04-06T13:51:53.999Z</time></trkpt><trkpt lat="44.200940413424405" lon="10.057940885950119"><ele>125.0</ele><time>2026-04-06T13:51:54.999Z</time></trkpt><trkpt lat="44.20098377381879" lon="10.058098481619236"><ele>125.0</ele><time>2026-04-06T13:51:55.999Z</time></trkpt><trkpt lat="44.201026846873376" lon="10.058256998698603"><ele>125.0</ele><time>2026-04-06T13:51:56.999Z</time></trkpt><trkpt lat="44.20451652573358" lon="10.066249760928782"><ele>124.75</ele><time>2026-04-06T13:52:58Z</time></trkpt><trkpt lat="44.204492102863306" lon="10.0663363925425"><ele>124.5</ele><time>2026-04-06T13:53:21Z</time></trkpt><trkpt lat="44.204450441159956" lon="10.066468669200827"><ele>124.25</ele><time>2026-04-06T13:53:22Z</time></trkpt><trkpt lat="44.20439204272684" lon="10.06665522366767"><ele>124.0</ele><time>2026-04-06T13:53:23Z</time></trkpt><trkpt lat="44.2043371860918" lon="10.066846135241036"><ele>124.0</ele><time>2026-04-06T13:53:24Z</time></trkpt><trkpt lat="44.20428098372694" lon="10.06706685048211"><ele>124.0</ele><time>2026-04-06T13:53:25Z</time></trkpt><trkpt lat="44.20422261954829" lon="10.067279831602018"><ele>124.0</ele><time>2026-04-06T13:53:26Z</time></trkpt><trkpt lat="44.20417101170896" lon="10.06748437008363"><ele>124.0</ele><time>2026-04-06T13:53:27Z</time></trkpt><trkpt lat="44.204112458545374" lon="10.067698518491921"><ele>124.0</ele><time>2026-04-06T13:53:28Z</time></trkpt><trkpt lat="44.20405133887579" lon="10.067915752980472"><ele>124.0</ele><time>2026-04-06T13:53:29Z</time></trkpt><trkpt lat="44.20397219208359" lon="10.06813193028086"><ele>123.66666666666667</ele><time>2026-04-06T13:53:30Z</time></trkpt><trkpt lat="44.20388263714224" lon="10.068320678158711"><ele>123.33333333333334</ele><time>2026-04-06T13:53:31Z</time></trkpt><trkpt lat="44.20378963215073" lon="10.068513364106266"><ele>123.0</ele><time>2026-04-06T13:53:32Z</time></trkpt><trkpt lat="44.2036929514052" lon="10.068700053429502"><ele>123.0</ele><time>2026-04-06T13:53:33Z</time></trkpt><trkpt lat="44.20359023166415" lon="10.068908491795945"><ele>123.0</ele><time>2026-04-06T13:53:34Z</time></trkpt><trkpt lat="44.20347529802998" lon="10.069134074209444"><ele>123.0</ele><time>2026-04-06T13:53:35Z</time></trkpt><trkpt lat="44.20336868602194" lon="10.069348576360788"><ele>122.5</ele><time>2026-04-06T13:53:36Z</time></trkpt><trkpt lat="44.20327637443418" lon="10.069532050694624"><ele>122.0</ele><time>2026-04-06T13:53:37Z</time></trkpt><trkpt lat="44.203203293078786" lon="10.069684871928786"><ele>121.5</ele><time>2026-04-06T13:53:38Z</time></trkpt><trkpt lat="44.20315614638256" lon="10.069833947575573"><ele>121.0</ele><time>2026-04-06T13:53:39Z</time></trkpt><trkpt lat="44.20315084468439" lon="10.069979552178197"><ele>123.0</ele><time>2026-04-06T13:53:40Z</time></trkpt><trkpt lat="44.203187056565596" lon="10.070137735111478"><ele>125.0</ele><time>2026-04-06T13:53:41Z</time></trkpt><trkpt lat="44.20327955355887" lon="10.070306975902716"><ele>127.0</ele><time>2026-04-06T13:53:42Z</time></trkpt><trkpt lat="44.20340286749634" lon="10.070474412361312"><ele>129.0</ele><time>2026-04-06T13:53:42.999Z</time></trkpt><trkpt lat="44.20353830269301" lon="10.070667177719493"><ele>136.0</ele><time>2026-04-06T13:53:43.999Z</time></trkpt><trkpt lat="44.203683644789095" lon="10.070890433435718"><ele>143.0</ele><time>2026-04-06T13:53:44.999Z</time></trkpt><trkpt lat="44.20383888469077" lon="10.071135982350118"><ele>143.0</ele><time>2026-04-06T13:53:45.999Z</time></trkpt><trkpt lat="44.203993020477675" lon="10.07136887351475"><ele>143.0</ele><time>2026-04-06T13:53:46.999Z</time></trkpt><trkpt lat="44.20414779029947" lon="10.071605218888962"><ele>140.66666666666666</ele><time>2026-04-06T13:53:47.999Z</time></trkpt><trkpt lat="44.20429058131944" lon="10.071822180192045"><ele>138.33333333333334</ele><time>2026-04-06T13:53:48.999Z</time></trkpt><trkpt lat="44.204423190430276" lon="10.072022802774224"><ele>136.0</ele><time>2026-04-06T13:53:49.999Z</time></trkpt><trkpt lat="44.20453935332289" lon="10.072201917930563"><ele>136.0</ele><time>2026-04-06T13:53:50.999Z</time></trkpt><trkpt lat="44.20464327004589" lon="10.072371248409484"><ele>136.0</ele><time>2026-04-06T13:53:51.999Z</time></trkpt><trkpt lat="44.204735503325004" lon="10.072556194496508"><ele>136.0</ele><time>2026-04-06T13:53:52.999Z</time></trkpt><trkpt lat="44.20479242713123" lon="10.072785138132245"><ele>135.0</ele><time>2026-04-06T13:53:53.999Z</time></trkpt><trkpt lat="44.20486913304694" lon="10.073016191294139"><ele>134.0</ele><time>2026-04-06T13:53:54.999Z</time></trkpt><trkpt lat="44.20493786353241" lon="10.073273944002374"><ele>133.0</ele><time>2026-04-06T13:53:55.999Z</time></trkpt><trkpt lat="44.20501412219761" lon="10.07354154068344"><ele>178.0</ele><time>2026-04-06T13:53:56.999Z</time></trkpt><trkpt lat="44.20568849677414" lon="10.083659184146885"><ele>176.33333333333334</ele><time>2026-04-06T13:54:58Z</time></trkpt><trkpt lat="44.205501333196715" lon="10.083606891228232"><ele>174.66666666666666</ele><time>2026-04-06T13:54:59Z</time></trkpt><trkpt lat="44.205313465654406" lon="10.08357456602732"><ele>173.0</ele><time>2026-04-06T13:55:00Z</time></trkpt><trkpt lat="44.205116166129386" lon="10.08355984060675"><ele>173.0</ele><time>2026-04-06T13:55:01Z</time></trkpt><trkpt lat="44.20493014172839" lon="10.083514479023973"><ele>173.0</ele><time>2026-04-06T13:55:02Z</time></trkpt><trkpt lat="44.20476362147231" lon="10.083485852592654"><ele>173.0</ele><time>2026-04-06T13:55:03Z</time></trkpt><trkpt lat="44.204616424867055" lon="10.083464393423919"><ele>172.66666666666666</ele><time>2026-04-06T13:55:04Z</time></trkpt><trkpt lat="44.20450021170119" lon="10.083352268283734"><ele>172.33333333333334</ele><time>2026-04-06T13:55:05Z</time></trkpt><trkpt lat="44.20438549719251" lon="10.08322290602671"><ele>172.0</ele><time>2026-04-06T13:55:06Z</time></trkpt><trkpt lat="44.20425415683425" lon="10.083087395589086"><ele>172.0</ele><time>2026-04-06T13:55:07Z</time></trkpt><trkpt lat="44.20408548422365" lon="10.082999595405566"><ele>172.0</ele><time>2026-04-06T13:55:08Z</time></trkpt><trkpt lat="44.20392120300589" lon="10.082900720848572"><ele>172.0</ele><time>2026-04-06T13:55:09Z</time></trkpt><trkpt lat="44.20375687336404" lon="10.082821835276894"><ele>168.66666666666669</ele><time>2026-04-06T13:55:10Z</time></trkpt><trkpt lat="44.20360352215131" lon="10.082748738220362"><ele>165.33333333333334</ele><time>2026-04-06T13:55:11Z</time></trkpt><trkpt lat="44.20345449017303" lon="10.082669531077972"><ele>162.0</ele><time>2026-04-06T13:55:12Z</time></trkpt><trkpt lat="44.20331273163074" lon="10.082599107867761"><ele>162.0</ele><time>2026-04-06T13:55:13Z</time></trkpt><trkpt lat="44.20318371241233" lon="10.082570544271121"><ele>162.0</ele><time>2026-04-06T13:55:14Z</time></trkpt><trkpt lat="44.2030723017838" lon="10.082594054976367"><ele>162.0</ele><time>2026-04-06T13:55:15Z</time></trkpt><trkpt lat="44.20295719807204" lon="10.082677518133151"><ele>162.0</ele><time>2026-04-06T13:55:16Z</time></trkpt><trkpt lat="44.202838552038536" lon="10.08280914276417"><ele>158.75</ele><time>2026-04-06T13:55:17Z</time></trkpt><trkpt lat="44.202743782173144" lon="10.08293978031625"><ele>155.5</ele><time>2026-04-06T13:55:18Z</time></trkpt><trkpt lat="44.202666592753076" lon="10.083080482684045"><ele>152.25</ele><time>2026-04-06T13:55:19Z</time></trkpt><trkpt lat="44.202617518153986" lon="10.083231653951747"><ele>149.0</ele><time>2026-04-06T13:55:20Z</time></trkpt><trkpt lat="44.202594997663766" lon="10.083410819785954"><ele>148.0</ele><time>2026-04-06T13:55:21Z</time></trkpt><trkpt lat="44.202602314993165" lon="10.083609958935773"><ele>147.0</ele><time>2026-04-06T13:55:22Z</time></trkpt><trkpt lat="44.20263297679061" lon="10.08383274524026"><ele>146.0</ele><time>2026-04-06T13:55:23Z</time></trkpt><trkpt lat="44.202661498633816" lon="10.084066995585328"><ele>144.0</ele><time>2026-04-06T13:55:24Z</time></trkpt><trkpt lat="44.20268426194082" lon="10.08428507445531"><ele>142.0</ele><time>2026-04-06T13:55:25Z</time></trkpt><trkpt lat="44.20269676915929" lon="10.084493128288523"><ele>140.0</ele><time>2026-04-06T13:55:26Z</time></trkpt><trkpt lat="44.202695168554335" lon="10.084708158940606"><ele>140.0</ele><time>2026-04-06T13:55:27Z</time></trkpt><trkpt lat="44.20264986658018" lon="10.084905257593983"><ele>140.0</ele><time>2026-04-06T13:55:28Z</time></trkpt><trkpt lat="44.202613369110985" lon="10.08509529572446"><ele>140.0</ele><time>2026-04-06T13:55:29Z</time></trkpt><trkpt lat="44.202581138371606" lon="10.08526179026679"><ele>140.0</ele><time>2026-04-06T13:55:30Z</time></trkpt><trkpt lat="44.202550786557076" lon="10.085418578737896"><ele>139.5</ele><time>2026-04-06T13:55:31Z</time></trkpt><trkpt lat="44.20253998383268" lon="10.085572530771024"><ele>139.0</ele><time>2026-04-06T13:55:32Z</time></trkpt><trkpt lat="44.202491971380354" lon="10.085720513104553"><ele>138.5</ele><time>2026-04-06T13:55:33Z</time></trkpt><trkpt lat="44.202474628206566" lon="10.085901536014967"><ele>138.0</ele><time>2026-04-06T13:55:34Z</time></trkpt><trkpt lat="44.20246732090378" lon="10.086137173973151"><ele>139.33333333333334</ele><time>2026-04-06T13:55:35Z</time></trkpt><trkpt lat="44.202472492136145" lon="10.086408727712179"><ele>140.66666666666669</ele><time>2026-04-06T13:55:36Z</time></trkpt><trkpt lat="44.20248512533087" lon="10.086651254000929"><ele>142.0</ele><time>2026-04-06T13:55:37Z</time></trkpt><trkpt lat="44.20249995487012" lon="10.086877194628716"><ele>142.25</ele><time>2026-04-06T13:55:38Z</time></trkpt><trkpt lat="44.20251233774144" lon="10.087088239726738"><ele>142.5</ele><time>2026-04-06T13:55:38.999Z</time></trkpt><trkpt lat="44.20252356140093" lon="10.087298275835803"><ele>142.75</ele><time>2026-04-06T13:55:39.999Z</time></trkpt><trkpt lat="44.20252448520665" lon="10.087485738499991"><ele>143.0</ele><time>2026-04-06T13:55:40.999Z</time></trkpt><trkpt lat="44.20248281709083" lon="10.087654546223183"><ele>143.0</ele><time>2026-04-06T13:55:41.999Z</time></trkpt><trkpt lat="44.20244663771613" lon="10.087827566768214"><ele>143.0</ele><time>2026-04-06T13:55:42.999Z</time></trkpt><trkpt lat="44.202405300726944" lon="10.08800586154405"><ele>143.0</ele><time>2026-04-06T13:55:43.999Z</time></trkpt><trkpt lat="44.20238203177328" lon="10.08815759190161"><ele>143.0</ele><time>2026-04-06T13:55:44.999Z</time></trkpt><trkpt lat="44.20234874086774" lon="10.088282090455019"><ele>141.20000000000002</ele><time>2026-04-06T13:55:45.999Z</time></trkpt><trkpt lat="44.20230891189986" lon="10.08837438650652"><ele>139.4</ele><time>2026-04-06T13:55:46.999Z</time></trkpt><trkpt lat="44.20224045781499" lon="10.088430357496904"><ele>137.60000000000002</ele><time>2026-04-06T13:55:47.999Z</time></trkpt><trkpt lat="44.202144004923454" lon="10.08838105604355"><ele>135.8</ele><time>2026-04-06T13:55:48.999Z</time></trkpt><trkpt lat="44.20202238880553" lon="10.088390913077134"><ele>134.0</ele><time>2026-04-06T13:55:49.999Z</time></trkpt><trkpt lat="44.20186129978813" lon="10.088400346879043"><ele>134.0</ele><time>2026-04-06T13:55:50.999Z</time></trkpt><trkpt lat="44.20168026531837" lon="10.088409570859227"><ele>134.0</ele><time>2026-04-06T13:55:51.999Z</time></trkpt><trkpt lat="44.20151070548247" lon="10.088417688524386"><ele>134.0</ele><time>2026-04-06T13:55:52.999Z</time></trkpt><trkpt lat="44.20136879648331" lon="10.08843003348719"><ele>132.75</ele><time>2026-04-06T13:55:53.999Z</time></trkpt><trkpt lat="44.20124193352461" lon="10.08842344044143"><ele>131.5</ele><time>2026-04-06T13:55:54.999Z</time></trkpt><trkpt lat="44.201124221715204" lon="10.088398487791382"><ele>130.25</ele><time>2026-04-06T13:55:55.999Z</time></trkpt><trkpt lat="44.2010321096168" lon="10.08833258178596"><ele>129.0</ele><time>2026-04-06T13:55:56.999Z</time></trkpt><trkpt lat="44.20020476102181" lon="10.10357971686917"><ele>137.5</ele><time>2026-04-06T13:56:58Z</time></trkpt><trkpt lat="44.20002319431075" lon="10.103875611206695"><ele>146.0</ele><time>2026-04-06T13:56:59Z</time></trkpt><trkpt lat="44.199847745385036" lon="10.104156872769964"><ele>146.5</ele><time>2026-04-06T13:57:00Z</time></trkpt><trkpt lat="44.19969017466673" lon="10.104413210236464"><ele>147.0</ele><time>2026-04-06T13:57:01Z</time></trkpt><trkpt lat="44.19955289554799" lon="10.104646265949064"><ele>147.0</ele><time>2026-04-06T13:57:02Z</time></trkpt><trkpt lat="44.19941490111022" lon="10.10486299913171"><ele>147.0</ele><time>2026-04-06T13:57:03Z</time></trkpt><trkpt lat="44.19928510389966" lon="10.105070255800207"><ele>147.0</ele><time>2026-04-06T13:57:04Z</time></trkpt><trkpt lat="44.19914836781712" lon="10.105269776328207"><ele>148.33333333333334</ele><time>2026-04-06T13:57:05Z</time></trkpt><trkpt lat="44.19898787616099" lon="10.105439378194106"><ele>149.66666666666669</ele><time>2026-04-06T13:57:06Z</time></trkpt><trkpt lat="44.19881320856724" lon="10.105628073100057"><ele>151.0</ele><time>2026-04-06T13:57:07Z</time></trkpt><trkpt lat="44.198626863300255" lon="10.105794140831017"><ele>155.0</ele><time>2026-04-06T13:57:08Z</time></trkpt><trkpt lat="44.19841642745923" lon="10.105944848617478"><ele>159.0</ele><time>2026-04-06T13:57:09Z</time></trkpt><trkpt lat="44.19820009284851" lon="10.10607341471787"><ele>157.66666666666666</ele><time>2026-04-06T13:57:10Z</time></trkpt><trkpt lat="44.19798955294241" lon="10.106182072086826"><ele>156.33333333333331</ele><time>2026-04-06T13:57:11Z</time></trkpt><trkpt lat="44.19780018986964" lon="10.106274799196402"><ele>155.0</ele><time>2026-04-06T13:57:12Z</time></trkpt><trkpt lat="44.19763069135663" lon="10.106364971680758"><ele>155.0</ele><time>2026-04-06T13:57:13Z</time></trkpt><trkpt lat="44.19747287206894" lon="10.106456412467494"><ele>155.0</ele><time>2026-04-06T13:57:14Z</time></trkpt><trkpt lat="44.19731702618998" lon="10.106543357842199"><ele>155.0</ele><time>2026-04-06T13:57:15Z</time></trkpt><trkpt lat="44.19716812307498" lon="10.10663397673812"><ele>156.33333333333331</ele><time>2026-04-06T13:57:16Z</time></trkpt><trkpt lat="44.19703069997534" lon="10.1067605587978"><ele>157.66666666666666</ele><time>2026-04-06T13:57:17Z</time></trkpt><trkpt lat="44.196893780179245" lon="10.10692709593043"><ele>159.0</ele><time>2026-04-06T13:57:18Z</time></trkpt><trkpt lat="44.19674635432449" lon="10.107089048228772"><ele>159.0</ele><time>2026-04-06T13:57:19Z</time></trkpt><trkpt lat="44.1966006574807" lon="10.107205231454227"><ele>159.0</ele><time>2026-04-06T13:57:20Z</time></trkpt><trkpt lat="44.196461944272166" lon="10.10728493515983"><ele>159.0</ele><time>2026-04-06T13:57:21Z</time></trkpt><trkpt lat="44.19634118821277" lon="10.107378722040835"><ele>159.33333333333334</ele><time>2026-04-06T13:57:22Z</time></trkpt><trkpt lat="44.196243274837286" lon="10.107500614729657"><ele>159.66666666666669</ele><time>2026-04-06T13:57:23Z</time></trkpt><trkpt lat="44.196134272521654" lon="10.107669750932692"><ele>160.0</ele><time>2026-04-06T13:57:24Z</time></trkpt><trkpt lat="44.19601974240313" lon="10.107880009752227"><ele>160.0</ele><time>2026-04-06T13:57:25Z</time></trkpt><trkpt lat="44.19589231577232" lon="10.108109730822205"><ele>160.0</ele><time>2026-04-06T13:57:26Z</time></trkpt><trkpt lat="44.19575912875796" lon="10.1083448169146"><ele>160.0</ele><time>2026-04-06T13:57:27Z</time></trkpt><trkpt lat="44.195636994208954" lon="10.108550077072367"><ele>159.66666666666669</ele><time>2026-04-06T13:57:28Z</time></trkpt><trkpt lat="44.19552105483212" lon="10.108737130870574"><ele>159.33333333333334</ele><time>2026-04-06T13:57:29Z</time></trkpt><trkpt lat="44.195413304634066" lon="10.108915320330897"><ele>159.0</ele><time>2026-04-06T13:57:30Z</time></trkpt><trkpt lat="44.19533072037851" lon="10.109080097480588"><ele>161.33333333333334</ele><time>2026-04-06T13:57:31Z</time></trkpt><trkpt lat="44.1952628351341" lon="10.109262647972923"><ele>163.66666666666669</ele><time>2026-04-06T13:57:32Z</time></trkpt><trkpt lat="44.19520300409439" lon="10.10945477561337"><ele>166.0</ele><time>2026-04-06T13:57:33Z</time></trkpt><trkpt lat="44.195156781159554" lon="10.109668468676535"><ele>166.0</ele><time>2026-04-06T13:57:34Z</time></trkpt><trkpt lat="44.19512539598093" lon="10.10985440409753"><ele>166.0</ele><time>2026-04-06T13:57:35Z</time></trkpt><trkpt lat="44.195097614396744" lon="10.109980821887108"><ele>166.0</ele><time>2026-04-06T13:57:36Z</time></trkpt><trkpt lat="44.19506819906063" lon="10.110060829467825"><ele>166.0</ele><time>2026-04-06T13:57:37Z</time></trkpt><trkpt lat="44.19496324179689" lon="10.110095454391749"><ele>166.0</ele><time>2026-04-06T13:57:39Z</time></trkpt><trkpt lat="44.19487033237515" lon="10.110061573156951"><ele>164.33333333333334</ele><time>2026-04-06T13:57:40Z</time></trkpt><trkpt lat="44.194750336808305" lon="10.109999785066737"><ele>162.66666666666666</ele><time>2026-04-06T13:57:41Z</time></trkpt><trkpt lat="44.19458534721995" lon="10.109910920136954"><ele>161.0</ele><time>2026-04-06T13:57:42Z</time></trkpt><trkpt lat="44.19438763489349" lon="10.10980396045508"><ele>161.0</ele><time>2026-04-06T13:57:43Z</time></trkpt><trkpt lat="44.194220208672604" lon="10.109703727694681"><ele>161.0</ele><time>2026-04-06T13:57:44Z</time></trkpt><trkpt lat="44.19409667045085" lon="10.109609738331367"><ele>161.0</ele><time>2026-04-06T13:57:45Z</time></trkpt><trkpt lat="44.194001769660865" lon="10.109520798557085"><ele>161.0</ele><time>2026-04-06T13:57:45.999Z</time></trkpt><trkpt lat="44.193913657322604" lon="10.109442013683568"><ele>161.5</ele><time>2026-04-06T13:57:46.999Z</time></trkpt><trkpt lat="44.19382076043729" lon="10.109368173045434"><ele>162.0</ele><time>2026-04-06T13:57:47.999Z</time></trkpt><trkpt lat="44.19370432689769" lon="10.109266376109426"><ele>162.5</ele><time>2026-04-06T13:57:48.999Z</time></trkpt><trkpt lat="44.19357291324588" lon="10.109143688346053"><ele>163.0</ele><time>2026-04-06T13:57:49.999Z</time></trkpt><trkpt lat="44.193440401947846" lon="10.1090156079373"><ele>163.0</ele><time>2026-04-06T13:57:50.999Z</time></trkpt><trkpt lat="44.1933109104109" lon="10.108890772173996"><ele>163.0</ele><time>2026-04-06T13:57:51.999Z</time></trkpt><trkpt lat="44.19318217837763" lon="10.108766012014259"><ele>163.0</ele><time>2026-04-06T13:57:52.999Z</time></trkpt><trkpt lat="44.193063499911254" lon="10.108657432662277"><ele>163.0</ele><time>2026-04-06T13:57:53.999Z</time></trkpt><trkpt lat="44.192945171360854" lon="10.108560216521854"><ele>163.0</ele><time>2026-04-06T13:57:54.999Z</time></trkpt><trkpt lat="44.19282780457697" lon="10.10847236693865"><ele>163.0</ele><time>2026-04-06T13:57:55.999Z</time></trkpt><trkpt lat="44.19273371273299" lon="10.10839065319238"><ele>163.0</ele><time>2026-04-06T13:57:56.999Z</time></trkpt><trkpt lat="44.18504948634233" lon="10.112125514781763"><ele>166.5</ele><time>2026-04-06T13:58:58Z</time></trkpt><trkpt lat="44.18491850746131" lon="10.112366856090285"><ele>170.0</ele><time>2026-04-06T13:58:59Z</time></trkpt><trkpt lat="44.18477334801294" lon="10.112649675772023"><ele>170.0</ele><time>2026-04-06T13:59:00Z</time></trkpt><trkpt lat="44.184632796630964" lon="10.112917378820171"><ele>170.0</ele><time>2026-04-06T13:59:01Z</time></trkpt><trkpt lat="44.18450898047702" lon="10.113127060360398"><ele>170.0</ele><time>2026-04-06T13:59:02Z</time></trkpt><trkpt lat="44.184407998644836" lon="10.113300862594743"><ele>170.5</ele><time>2026-04-06T13:59:03Z</time></trkpt><trkpt lat="44.1843240977164" lon="10.113447962541066"><ele>171.0</ele><time>2026-04-06T13:59:04Z</time></trkpt><trkpt lat="44.184232717806836" lon="10.113574094592044"><ele>171.5</ele><time>2026-04-06T13:59:05Z</time></trkpt><trkpt lat="44.184122044492014" lon="10.113663835033094"><ele>172.0</ele><time>2026-04-06T13:59:06Z</time></trkpt><trkpt lat="44.18397310841221" lon="10.113736481993936"><ele>172.0</ele><time>2026-04-06T13:59:07Z</time></trkpt><trkpt lat="44.18378592507599" lon="10.113792524820438"><ele>172.0</ele><time>2026-04-06T13:59:08Z</time></trkpt><trkpt lat="44.18356683159641" lon="10.113838021329718"><ele>172.0</ele><time>2026-04-06T13:59:09Z</time></trkpt><trkpt lat="44.18338056976872" lon="10.113883899563247"><ele>172.0</ele><time>2026-04-06T13:59:10Z</time></trkpt><trkpt lat="44.18320836991548" lon="10.113929552764844"><ele>172.0</ele><time>2026-04-06T13:59:11Z</time></trkpt><trkpt lat="44.18304092836047" lon="10.11395705544958"><ele>172.0</ele><time>2026-04-06T13:59:12Z</time></trkpt><trkpt lat="44.18286826962114" lon="10.113958477642525"><ele>172.0</ele><time>2026-04-06T13:59:13Z</time></trkpt><trkpt lat="44.18268734069247" lon="10.11392780696977"><ele>172.0</ele><time>2026-04-06T13:59:14Z</time></trkpt><trkpt lat="44.1824953398842" lon="10.113889960807885"><ele>172.0</ele><time>2026-04-06T13:59:15Z</time></trkpt><trkpt lat="44.18229968127192" lon="10.11384854398494"><ele>172.0</ele><time>2026-04-06T13:59:16Z</time></trkpt><trkpt lat="44.18214198742724" lon="10.113812878832299"><ele>172.0</ele><time>2026-04-06T13:59:17Z</time></trkpt><trkpt lat="44.18199324682391" lon="10.113750895658011"><ele>172.0</ele><time>2026-04-06T13:59:18Z</time></trkpt><trkpt lat="44.181856540586104" lon="10.113666354166043"><ele>172.0</ele><time>2026-04-06T13:59:19Z</time></trkpt><trkpt lat="44.181734849519074" lon="10.113521484002941"><ele>172.0</ele><time>2026-04-06T13:59:20Z</time></trkpt><trkpt lat="44.18158462718106" lon="10.11338884106037"><ele>172.0</ele><time>2026-04-06T13:59:21Z</time></trkpt><trkpt lat="44.18141843944623" lon="10.113233992721732"><ele>172.0</ele><time>2026-04-06T13:59:22Z</time></trkpt><trkpt lat="44.18126848820525" lon="10.113091396777282"><ele>172.0</ele><time>2026-04-06T13:59:23Z</time></trkpt><trkpt lat="44.18113062739117" lon="10.112966693499446"><ele>172.0</ele><time>2026-04-06T13:59:24Z</time></trkpt><trkpt lat="44.1810038908847" lon="10.112865783745557"><ele>172.0</ele><time>2026-04-06T13:59:25Z</time></trkpt><trkpt lat="44.18088039716849" lon="10.11281055108295"><ele>172.0</ele><time>2026-04-06T13:59:26Z</time></trkpt><trkpt lat="44.18074119096507" lon="10.112751131775617"><ele>172.0</ele><time>2026-04-06T13:59:27Z</time></trkpt><trkpt lat="44.18058838963765" lon="10.112719568676969"><ele>172.0</ele><time>2026-04-06T13:59:28Z</time></trkpt><trkpt lat="44.18045780188726" lon="10.112698140478598"><ele>172.8</ele><time>2026-04-06T13:59:29Z</time></trkpt><trkpt lat="44.18034397686283" lon="10.112694084142886"><ele>173.6</ele><time>2026-04-06T13:59:30Z</time></trkpt><trkpt lat="44.18024178792419" lon="10.11271844294695"><ele>174.4</ele><time>2026-04-06T13:59:31Z</time></trkpt><trkpt lat="44.180154834600636" lon="10.112768480378719"><ele>175.20000000000002</ele><time>2026-04-06T13:59:32Z</time></trkpt><trkpt lat="44.1800814109794" lon="10.112852023327843"><ele>176.0</ele><time>2026-04-06T13:59:33Z</time></trkpt><trkpt lat="44.180035567504525" lon="10.112954370135027"><ele>176.0</ele><time>2026-04-06T13:59:34Z</time></trkpt><trkpt lat="44.180004323862875" lon="10.113079371696253"><ele>176.0</ele><time>2026-04-06T13:59:35Z</time></trkpt><trkpt lat="44.17996639042428" lon="10.113243792314833"><ele>176.0</ele><time>2026-04-06T13:59:36Z</time></trkpt><trkpt lat="44.17991603904786" lon="10.113411731966856"><ele>176.0</ele><time>2026-04-06T13:59:37Z</time></trkpt><trkpt lat="44.179860626958074" lon="10.113613676233172"><ele>175.66666666666666</ele><time>2026-04-06T13:59:38Z</time></trkpt><trkpt lat="44.179794530250625" lon="10.113851346540333"><ele>175.33333333333334</ele><time>2026-04-06T13:59:39Z</time></trkpt><trkpt lat="44.17972965949789" lon="10.114069410280319"><ele>175.0</ele><time>2026-04-06T13:59:40Z</time></trkpt><trkpt lat="44.17966716293672" lon="10.114271232510724"><ele>175.5</ele><time>2026-04-06T13:59:41Z</time></trkpt><trkpt lat="44.17960611106361" lon="10.11446128751896"><ele>176.0</ele><time>2026-04-06T13:59:42Z</time></trkpt><trkpt lat="44.17955556688974" lon="10.11465011171133"><ele>176.5</ele><time>2026-04-06T13:59:43Z</time></trkpt><trkpt lat="44.17948036089472" lon="10.11479541264289"><ele>177.0</ele><time>2026-04-06T13:59:44Z</time></trkpt><trkpt lat="44.17941102471453" lon="10.114941423941364"><ele>178.0</ele><time>2026-04-06T13:59:45Z</time></trkpt><trkpt lat="44.17931001190037" lon="10.115012873181575"><ele>179.0</ele><time>2026-04-06T13:59:46Z</time></trkpt><trkpt lat="44.17921956738234" lon="10.115064549032374"><ele>180.0</ele><time>2026-04-06T13:59:46.999Z</time></trkpt><trkpt lat="44.17911208675842" lon="10.115079155188521"><ele>181.0</ele><time>2026-04-06T13:59:47.999Z</time></trkpt><trkpt lat="44.17896521060963" lon="10.115115674015108"><ele>181.66666666666669</ele><time>2026-04-06T13:59:48.999Z</time></trkpt><trkpt lat="44.178796270031015" lon="10.115160188908156"><ele>182.33333333333334</ele><time>2026-04-06T13:59:49.999Z</time></trkpt><trkpt lat="44.178629668760955" lon="10.115191430704833"><ele>183.0</ele><time>2026-04-06T13:59:50.999Z</time></trkpt><trkpt lat="44.17848636378936" lon="10.11518105392194"><ele>183.0</ele><time>2026-04-06T13:59:51.999Z</time></trkpt><trkpt lat="44.178351055683706" lon="10.11514620128263"><ele>183.0</ele><time>2026-04-06T13:59:52.999Z</time></trkpt><trkpt lat="44.178227910112014" lon="10.1150571518156"><ele>183.0</ele><time>2026-04-06T13:59:53.999Z</time></trkpt><trkpt lat="44.17808851447239" lon="10.114928985843918"><ele>183.0</ele><time>2026-04-06T13:59:54.999Z</time></trkpt><trkpt lat="44.1779407194782" lon="10.114780954606127"><ele>184.5</ele><time>2026-04-06T13:59:55.999Z</time></trkpt><trkpt lat="44.177786138211985" lon="10.114607183103082"><ele>186.0</ele><time>2026-04-06T13:59:56.999Z</time></trkpt><trkpt lat="44.17236560828617" lon="10.11260971104545"><ele>192.20000000000002</ele><time>2026-04-06T14:00:58Z</time></trkpt><trkpt lat="44.17240480761582" lon="10.112511940422245"><ele>198.4</ele><time>2026-04-06T14:00:59Z</time></trkpt><trkpt lat="44.17245874645309" lon="10.112423875504783"><ele>204.6</ele><time>2026-04-06T14:01:00Z</time></trkpt><trkpt lat="44.172553280193654" lon="10.112408862477517"><ele>210.8</ele><time>2026-04-06T14:01:01Z</time></trkpt><trkpt lat="44.17268019564918" lon="10.112424028414134"><ele>217.0</ele><time>2026-04-06T14:01:02Z</time></trkpt><trkpt lat="44.172822644154984" lon="10.112446235217796"><ele>217.0</ele><time>2026-04-06T14:01:03Z</time></trkpt><trkpt lat="44.17293756102891" lon="10.112453197345591"><ele>217.0</ele><time>2026-04-06T14:01:04Z</time></trkpt><trkpt lat="44.17301599392909" lon="10.11244218755251"><ele>217.0</ele><time>2026-04-06T14:01:05Z</time></trkpt><trkpt lat="44.17307064989578" lon="10.11239578315374"><ele>217.0</ele><time>2026-04-06T14:01:06Z</time></trkpt><trkpt lat="44.173099911951354" lon="10.112224260451057"><ele>217.0</ele><time>2026-04-06T14:01:08Z</time></trkpt><trkpt lat="44.17305211786728" lon="10.112128183777207"><ele>220.0</ele><time>2026-04-06T14:01:09Z</time></trkpt><trkpt lat="44.172915939016505" lon="10.112151935992687"><ele>223.0</ele><time>2026-04-06T14:01:10Z</time></trkpt><trkpt lat="44.17279805297712" lon="10.11216063150257"><ele>226.0</ele><time>2026-04-06T14:01:11Z</time></trkpt><trkpt lat="44.17266617662263" lon="10.112145732907852"><ele>229.0</ele><time>2026-04-06T14:01:12Z</time></trkpt><trkpt lat="44.1725656855709" lon="10.112058982906776"><ele>229.0</ele><time>2026-04-06T14:01:13Z</time></trkpt><trkpt lat="44.1724386102504" lon="10.111970283450304"><ele>229.0</ele><time>2026-04-06T14:01:14Z</time></trkpt><trkpt lat="44.172292000823326" lon="10.11188471865339"><ele>229.0</ele><time>2026-04-06T14:01:15Z</time></trkpt><trkpt lat="44.17216871661501" lon="10.111814563755376"><ele>229.0</ele><time>2026-04-06T14:01:16Z</time></trkpt><trkpt lat="44.17207027379734" lon="10.111753057437806"><ele>228.99999999999997</ele><time>2026-04-06T14:01:17Z</time></trkpt><trkpt lat="44.172008081666945" lon="10.111696907723841"><ele>229.0</ele><time>2026-04-06T14:01:18Z</time></trkpt><trkpt lat="44.17197792168681" lon="10.111556745954786"><ele>229.0</ele><time>2026-04-06T14:01:20Z</time></trkpt><trkpt lat="44.1720141136601" lon="10.111473728626974"><ele>229.0</ele><time>2026-04-06T14:01:21Z</time></trkpt><trkpt lat="44.172076730400875" lon="10.111418974714752"><ele>228.99999999999997</ele><time>2026-04-06T14:01:22Z</time></trkpt><trkpt lat="44.172169257123116" lon="10.111413910167988"><ele>229.0</ele><time>2026-04-06T14:01:23Z</time></trkpt><trkpt lat="44.17226378657986" lon="10.111421643471882"><ele>231.39999999999998</ele><time>2026-04-06T14:01:24Z</time></trkpt><trkpt lat="44.17236132002887" lon="10.111434591365366"><ele>233.79999999999998</ele><time>2026-04-06T14:01:25Z</time></trkpt><trkpt lat="44.17247400275867" lon="10.111440987224764"><ele>236.20000000000002</ele><time>2026-04-06T14:01:26Z</time></trkpt><trkpt lat="44.17258508253564" lon="10.111440270594759"><ele>238.60000000000002</ele><time>2026-04-06T14:01:27Z</time></trkpt><trkpt lat="44.17269007381545" lon="10.111445652151751"><ele>241.0</ele><time>2026-04-06T14:01:28Z</time></trkpt><trkpt lat="44.17278964171886" lon="10.11144955121909"><ele>240.99999999999997</ele><time>2026-04-06T14:01:29Z</time></trkpt><trkpt lat="44.172886028942784" lon="10.11144547361708"><ele>241.0</ele><time>2026-04-06T14:01:30Z</time></trkpt><trkpt lat="44.172978137142756" lon="10.111442472878808"><ele>241.0</ele><time>2026-04-06T14:01:31Z</time></trkpt><trkpt lat="44.173064849181735" lon="10.11144225081943"><ele>241.0</ele><time>2026-04-06T14:01:32Z</time></trkpt><trkpt lat="44.17314946860218" lon="10.111440154110818"><ele>240.99999999999997</ele><time>2026-04-06T14:01:33Z</time></trkpt><trkpt lat="44.17323423611226" lon="10.111422765450975"><ele>241.0</ele><time>2026-04-06T14:01:34Z</time></trkpt><trkpt lat="44.17331082960326" lon="10.111386228268652"><ele>241.33333333333331</ele><time>2026-04-06T14:01:35Z</time></trkpt><trkpt lat="44.17338776556052" lon="10.111327750681815"><ele>241.66666666666666</ele><time>2026-04-06T14:01:36Z</time></trkpt><trkpt lat="44.173448583577" lon="10.111250945949566"><ele>242.0</ele><time>2026-04-06T14:01:37Z</time></trkpt><trkpt lat="44.173496084771315" lon="10.111144326173816"><ele>242.33333333333331</ele><time>2026-04-06T14:01:38Z</time></trkpt><trkpt lat="44.17351433728294" lon="10.111035547767436"><ele>242.66666666666666</ele><time>2026-04-06T14:01:39Z</time></trkpt><trkpt lat="44.17349798873119" lon="10.110917322646795"><ele>243.0</ele><time>2026-04-06T14:01:40Z</time></trkpt><trkpt lat="44.173449647001924" lon="10.110818483525989"><ele>242.60000000000002</ele><time>2026-04-06T14:01:41Z</time></trkpt><trkpt lat="44.17337610051861" lon="10.11073984603449"><ele>242.20000000000002</ele><time>2026-04-06T14:01:42Z</time></trkpt><trkpt lat="44.17328186182402" lon="10.110682918150962"><ele>241.8</ele><time>2026-04-06T14:01:43Z</time></trkpt><trkpt lat="44.173178138465396" lon="10.110636271252803"><ele>241.4</ele><time>2026-04-06T14:01:44Z</time></trkpt><trkpt lat="44.17308396661665" lon="10.11055294971566"><ele>241.0</ele><time>2026-04-06T14:01:45Z</time></trkpt><trkpt lat="44.17297287906304" lon="10.110477122952265"><ele>243.0</ele><time>2026-04-06T14:01:46Z</time></trkpt><trkpt lat="44.172852874630344" lon="10.110395209634028"><ele>245.0</ele><time>2026-04-06T14:01:47Z</time></trkpt><trkpt lat="44.172719141257105" lon="10.110304035021802"><ele>247.0</ele><time>2026-04-06T14:01:48Z</time></trkpt><trkpt lat="44.172567263547364" lon="10.11020184794373"><ele>247.0</ele><time>2026-04-06T14:01:49Z</time></trkpt><trkpt lat="44.17241940643161" lon="10.110102365950722"><ele>247.0</ele><time>2026-04-06T14:01:50Z</time></trkpt><trkpt lat="44.17225814096791" lon="10.109993862506808"><ele>247.0</ele><time>2026-04-06T14:01:50.999Z</time></trkpt><trkpt lat="44.17210641923944" lon="10.10989178034929"><ele>250.25</ele><time>2026-04-06T14:01:51.999Z</time></trkpt><trkpt lat="44.171976930886586" lon="10.109804657337026"><ele>253.5</ele><time>2026-04-06T14:01:52.999Z</time></trkpt><trkpt lat="44.17186762690708" lon="10.109731114769872"><ele>256.75</ele><time>2026-04-06T14:01:53.999Z</time></trkpt><trkpt lat="44.17176208639751" lon="10.109659262308966"><ele>260.0</ele><time>2026-04-06T14:01:54.999Z</time></trkpt><trkpt lat="44.171659073654105" lon="10.109584547380914"><ele>260.0</ele><time>2026-04-06T14:01:55.999Z</time></trkpt><trkpt lat="44.17155290167377" lon="10.109490087772087"><ele>260.0</ele><time>2026-04-06T14:01:56.999Z</time></trkpt><trkpt lat="44.170318404469555" lon="10.106819498225345"><ele>277.0</ele><time>2026-04-06T14:02:58Z</time></trkpt><trkpt lat="44.170351977036084" lon="10.106617651418912"><ele>294.0</ele><time>2026-04-06T14:02:59Z</time></trkpt><trkpt lat="44.17040745794796" lon="10.106408899743949"><ele>311.0</ele><time>2026-04-06T14:03:00Z</time></trkpt><trkpt lat="44.17046017288335" lon="10.106198475784483"><ele>314.0</ele><time>2026-04-06T14:03:01Z</time></trkpt><trkpt lat="44.17050634753155" lon="10.105982204681704"><ele>317.0</ele><time>2026-04-06T14:03:02Z</time></trkpt><trkpt lat="44.170555030714745" lon="10.105802682218497"><ele>320.0</ele><time>2026-04-06T14:03:03Z</time></trkpt><trkpt lat="44.1705946336741" lon="10.105669940484532"><ele>323.0</ele><time>2026-04-06T14:03:04Z</time></trkpt><trkpt lat="44.17060576442148" lon="10.105559490471393"><ele>325.2</ele><time>2026-04-06T14:03:05Z</time></trkpt><trkpt lat="44.17059933221405" lon="10.10546702057394"><ele>327.4</ele><time>2026-04-06T14:03:06Z</time></trkpt><trkpt lat="44.170544692545654" lon="10.10538747728448"><ele>329.59999999999997</ele><time>2026-04-06T14:03:07Z</time></trkpt><trkpt lat="44.17044299494529" lon="10.105369626107265"><ele>331.79999999999995</ele><time>2026-04-06T14:03:08Z</time></trkpt><trkpt lat="44.17035675631384" lon="10.105443288623851"><ele>334.0</ele><time>2026-04-06T14:03:09Z</time></trkpt><trkpt lat="44.170310808875534" lon="10.105623580565458"><ele>331.25</ele><time>2026-04-06T14:03:10Z</time></trkpt><trkpt lat="44.17028124906388" lon="10.105787103117926"><ele>328.5</ele><time>2026-04-06T14:03:11Z</time></trkpt><trkpt lat="44.17023886889283" lon="10.105971246355885"><ele>325.75</ele><time>2026-04-06T14:03:12Z</time></trkpt><trkpt lat="44.17020115211968" lon="10.10610700560987"><ele>323.0</ele><time>2026-04-06T14:03:13Z</time></trkpt><trkpt lat="44.170151152978114" lon="10.106211807217331"><ele>323.0</ele><time>2026-04-06T14:03:14Z</time></trkpt><trkpt lat="44.170083478338896" lon="10.106252682986412"><ele>323.0</ele><time>2026-04-06T14:03:15Z</time></trkpt><trkpt lat="44.1700175433954" lon="10.10624214307387"><ele>323.0</ele><time>2026-04-06T14:03:16Z</time></trkpt><trkpt lat="44.16997483414986" lon="10.106170778880855"><ele>323.0</ele><time>2026-04-06T14:03:17Z</time></trkpt><trkpt lat="44.16996891406197" lon="10.106055475805796"><ele>323.0</ele><time>2026-04-06T14:03:18Z</time></trkpt><trkpt lat="44.17002430507546" lon="10.105922827658073"><ele>323.0</ele><time>2026-04-06T14:03:19Z</time></trkpt><trkpt lat="44.17008777421777" lon="10.105740810240507"><ele>326.6666666666667</ele><time>2026-04-06T14:03:20Z</time></trkpt><trkpt lat="44.17016362109574" lon="10.105509834143211"><ele>330.3333333333333</ele><time>2026-04-06T14:03:21Z</time></trkpt><trkpt lat="44.17023490750128" lon="10.105292745806453"><ele>334.0</ele><time>2026-04-06T14:03:22Z</time></trkpt><trkpt lat="44.17028172419538" lon="10.105165285201016"><ele>334.0</ele><time>2026-04-06T14:03:23Z</time></trkpt><trkpt lat="44.170357926398914" lon="10.105058912950554"><ele>334.0</ele><time>2026-04-06T14:03:24Z</time></trkpt><trkpt lat="44.17045060872454" lon="10.105014077516508"><ele>334.0</ele><time>2026-04-06T14:03:25Z</time></trkpt><trkpt lat="44.17050090313636" lon="10.104952841781175"><ele>334.0</ele><time>2026-04-06T14:03:26Z</time></trkpt><trkpt lat="44.17053841665855" lon="10.104820016241181"><ele>334.0</ele><time>2026-04-06T14:03:28Z</time></trkpt><trkpt lat="44.17043372801921" lon="10.104715686966026"><ele>334.0</ele><time>2026-04-06T14:03:29Z</time></trkpt><trkpt lat="44.170346361447116" lon="10.104723803011565"><ele>334.0</ele><time>2026-04-06T14:03:30Z</time></trkpt><trkpt lat="44.17025301158738" lon="10.104851191940527"><ele>334.0</ele><time>2026-04-06T14:03:31Z</time></trkpt><trkpt lat="44.170142380570816" lon="10.10497068687755"><ele>334.0</ele><time>2026-04-06T14:03:32Z</time></trkpt><trkpt lat="44.17001351177524" lon="10.10512771148234"><ele>334.0</ele><time>2026-04-06T14:03:33Z</time></trkpt><trkpt lat="44.1698815762525" lon="10.105259805549647"><ele>334.0</ele><time>2026-04-06T14:03:34Z</time></trkpt><trkpt lat="44.16974696798525" lon="10.105425237556302"><ele>334.0</ele><time>2026-04-06T14:03:35Z</time></trkpt><trkpt lat="44.16963684294109" lon="10.10555406709304"><ele>335.6</ele><time>2026-04-06T14:03:36Z</time></trkpt><trkpt lat="44.16954506599376" lon="10.105645526115675"><ele>337.2</ele><time>2026-04-06T14:03:37Z</time></trkpt><trkpt lat="44.169441077034" lon="10.105675013789542"><ele>338.8</ele><time>2026-04-06T14:03:38Z</time></trkpt><trkpt lat="44.16934115137092" lon="10.105683694084545"><ele>340.40000000000003</ele><time>2026-04-06T14:03:39Z</time></trkpt><trkpt lat="44.16927726582148" lon="10.105649658241516"><ele>342.0</ele><time>2026-04-06T14:03:40Z</time></trkpt><trkpt lat="44.169256688307115" lon="10.105531208611481"><ele>342.0</ele><time>2026-04-06T14:03:42Z</time></trkpt><trkpt lat="44.16941926480241" lon="10.105418431283487"><ele>342.0</ele><time>2026-04-06T14:03:44Z</time></trkpt><trkpt lat="44.16949099092427" lon="10.105321703025375"><ele>342.0</ele><time>2026-04-06T14:03:45Z</time></trkpt><trkpt lat="44.1695325024389" lon="10.105195771389553"><ele>342.0</ele><time>2026-04-06T14:03:46Z</time></trkpt><trkpt lat="44.169551323109516" lon="10.105091909305886"><ele>342.0</ele><time>2026-04-06T14:03:47Z</time></trkpt><trkpt lat="44.16955732818077" lon="10.104988655836747"><ele>342.0</ele><time>2026-04-06T14:03:48Z</time></trkpt><trkpt lat="44.169556348427385" lon="10.104880390976437"><ele>342.0</ele><time>2026-04-06T14:03:49Z</time></trkpt><trkpt lat="44.16951863573081" lon="10.104769142549673"><ele>342.0</ele><time>2026-04-06T14:03:50Z</time></trkpt><trkpt lat="44.16951577327357" lon="10.104656456385714"><ele>342.0</ele><time>2026-04-06T14:03:51Z</time></trkpt><trkpt lat="44.169508054721994" lon="10.104552663789299"><ele>342.0</ele><time>2026-04-06T14:03:51.999Z</time></trkpt><trkpt lat="44.169519907731235" lon="10.104400418680857"><ele>342.0</ele><time>2026-04-06T14:03:52.999Z</time></trkpt><trkpt lat="44.169531428429046" lon="10.104255717497496"><ele>342.0</ele><time>2026-04-06T14:03:53.999Z</time></trkpt><trkpt lat="44.1695226924153" lon="10.10413354195226"><ele>342.0</ele><time>2026-04-06T14:03:54.999Z</time></trkpt><trkpt lat="44.16949606009018" lon="10.104049223693798"><ele>342.0</ele><time>2026-04-06T14:03:55.999Z</time></trkpt><trkpt lat="44.16797409591413" lon="10.102483111725556"><ele>348.8</ele><time>2026-04-06T14:04:58Z</time></trkpt><trkpt lat="44.16787058611642" lon="10.102494366661526"><ele>355.6</ele><time>2026-04-06T14:05:09Z</time></trkpt><trkpt lat="44.167792899793206" lon="10.102448993652366"><ele>362.40000000000003</ele><time>2026-04-06T14:05:10Z</time></trkpt><trkpt lat="44.16772893853184" lon="10.102305822758746"><ele>369.20000000000005</ele><time>2026-04-06T14:05:12Z</time></trkpt><trkpt lat="44.16771023925704" lon="10.102179206486516"><ele>376.0</ele><time>2026-04-06T14:05:13Z</time></trkpt><trkpt lat="44.167664693100264" lon="10.102035035180977"><ele>379.0</ele><time>2026-04-06T14:05:14Z</time></trkpt><trkpt lat="44.167594428430185" lon="10.10192618548913"><ele>382.0</ele><time>2026-04-06T14:05:15Z</time></trkpt><trkpt lat="44.167522936999845" lon="10.101810169494684"><ele>385.0</ele><time>2026-04-06T14:05:16Z</time></trkpt><trkpt lat="44.16744881797856" lon="10.10167750253311"><ele>388.0</ele><time>2026-04-06T14:05:17Z</time></trkpt><trkpt lat="44.167360612198316" lon="10.101504907729074"><ele>391.0</ele><time>2026-04-06T14:05:18Z</time></trkpt><trkpt lat="44.16727349999307" lon="10.10137523810685"><ele>394.0</ele><time>2026-04-06T14:05:19Z</time></trkpt><trkpt lat="44.16718958352337" lon="10.101258578653209"><ele>397.0</ele><time>2026-04-06T14:05:20Z</time></trkpt><trkpt lat="44.16709846751727" lon="10.101161227362045"><ele>400.0</ele><time>2026-04-06T14:05:21Z</time></trkpt><trkpt lat="44.16699935126883" lon="10.10107230748245"><ele>400.0</ele><time>2026-04-06T14:05:22Z</time></trkpt><trkpt lat="44.16688033269043" lon="10.101000605472032"><ele>400.0</ele><time>2026-04-06T14:05:23Z</time></trkpt><trkpt lat="44.16674153715638" lon="10.10093591641094"><ele>400.0</ele><time>2026-04-06T14:05:24Z</time></trkpt><trkpt lat="44.16659131192411" lon="10.100885191348928"><ele>400.0</ele><time>2026-04-06T14:05:25Z</time></trkpt><trkpt lat="44.16646328951183" lon="10.10084326199517"><ele>399.6</ele><time>2026-04-06T14:05:26Z</time></trkpt><trkpt lat="44.16635342037563" lon="10.100806300467871"><ele>399.2</ele><time>2026-04-06T14:05:27Z</time></trkpt><trkpt lat="44.166262524105264" lon="10.100775158882671"><ele>398.79999999999995</ele><time>2026-04-06T14:05:28Z</time></trkpt><trkpt lat="44.16619897170852" lon="10.100721675961955"><ele>398.4</ele><time>2026-04-06T14:05:29Z</time></trkpt><trkpt lat="44.166140508690646" lon="10.100686482915942"><ele>398.0</ele><time>2026-04-06T14:05:30Z</time></trkpt><trkpt lat="44.1660355511008" lon="10.100593951244825"><ele>402.79999999999995</ele><time>2026-04-06T14:05:32Z</time></trkpt><trkpt lat="44.16596607473101" lon="10.10051092696356"><ele>407.6</ele><time>2026-04-06T14:05:33Z</time></trkpt><trkpt lat="44.165867753521376" lon="10.100422415861681"><ele>412.4</ele><time>2026-04-06T14:05:34Z</time></trkpt><trkpt lat="44.16577467247804" lon="10.100313115759255"><ele>417.20000000000005</ele><time>2026-04-06T14:05:35Z</time></trkpt><trkpt lat="44.16568633218304" lon="10.100220266586364"><ele>422.0</ele><time>2026-04-06T14:05:36Z</time></trkpt><trkpt lat="44.16560007061687" lon="10.100128970764452"><ele>422.5</ele><time>2026-04-06T14:05:37Z</time></trkpt><trkpt lat="44.1654930594456" lon="10.100063925189374"><ele>423.0</ele><time>2026-04-06T14:05:38Z</time></trkpt><trkpt lat="44.16537366319884" lon="10.100047797095264"><ele>423.5</ele><time>2026-04-06T14:05:39Z</time></trkpt><trkpt lat="44.1652679428405" lon="10.100073690562398"><ele>424.0</ele><time>2026-04-06T14:05:40Z</time></trkpt><trkpt lat="44.16514745070105" lon="10.100115953699337"><ele>424.0</ele><time>2026-04-06T14:05:41Z</time></trkpt><trkpt lat="44.16501222431172" lon="10.100123941931596"><ele>424.0</ele><time>2026-04-06T14:05:42Z</time></trkpt><trkpt lat="44.16490940710459" lon="10.100121137221729"><ele>424.0</ele><time>2026-04-06T14:05:43Z</time></trkpt><trkpt lat="44.16483128088745" lon="10.10009378440967"><ele>424.0</ele><time>2026-04-06T14:05:44Z</time></trkpt><trkpt lat="44.16475479209295" lon="10.100029408699674"><ele>424.0</ele><time>2026-04-06T14:05:44.999Z</time></trkpt><trkpt lat="44.164672985270016" lon="10.099936576934073"><ele>425.83333333333337</ele><time>2026-04-06T14:05:45.999Z</time></trkpt><trkpt lat="44.164594193470236" lon="10.099892573227411"><ele>427.6666666666667</ele><time>2026-04-06T14:05:46.999Z</time></trkpt><trkpt lat="44.16451135292107" lon="10.099890362018192"><ele>429.5</ele><time>2026-04-06T14:05:47.999Z</time></trkpt><trkpt lat="44.164431347406115" lon="10.099898948348294"><ele>431.33333333333337</ele><time>2026-04-06T14:05:48.999Z</time></trkpt><trkpt lat="44.16436418123206" lon="10.099920544111832"><ele>433.1666666666667</ele><time>2026-04-06T14:05:49.999Z</time></trkpt><trkpt lat="44.164276623313796" lon="10.100042333431528"><ele>435.0</ele><time>2026-04-06T14:05:51.999Z</time></trkpt><trkpt lat="44.16424058498747" lon="10.100213930908057"><ele>435.0</ele><time>2026-04-06T14:05:53.999Z</time></trkpt><trkpt lat="44.164204639883856" lon="10.100290641138955"><ele>435.0</ele><time>2026-04-06T14:05:54.999Z</time></trkpt><trkpt lat="44.1641057006989" lon="10.100400679295227"><ele>435.0</ele><time>2026-04-06T14:05:56.999Z</time></trkpt><trkpt lat="44.163513509589954" lon="10.100591581167686"><ele>440.0</ele><time>2026-04-06T14:06:57.999Z</time></trkpt><trkpt lat="44.16352411272779" lon="10.100425200959974"><ele>445.0</ele><time>2026-04-06T14:07:00Z</time></trkpt><trkpt lat="44.163545762580476" lon="10.10033220283283"><ele>450.0</ele><time>2026-04-06T14:07:02Z</time></trkpt><trkpt lat="44.16365387433515" lon="10.10047128682232"><ele>455.0</ele><time>2026-04-06T14:07:05Z</time></trkpt><trkpt lat="44.16364871604796" lon="10.10058376416843"><ele>460.0</ele><time>2026-04-06T14:07:06Z</time></trkpt><trkpt lat="44.16364337749085" lon="10.100702165969814"><ele>460.1666666666667</ele><time>2026-04-06T14:07:07Z</time></trkpt><trkpt lat="44.16365235706496" lon="10.100802798776034"><ele>460.33333333333337</ele><time>2026-04-06T14:07:08Z</time></trkpt><trkpt lat="44.16366322745359" lon="10.10090255796832"><ele>460.5</ele><time>2026-04-06T14:07:09Z</time></trkpt><trkpt lat="44.16367343741739" lon="10.101005336405725"><ele>460.66666666666663</ele><time>2026-04-06T14:07:10Z</time></trkpt><trkpt lat="44.163677726955264" lon="10.101099098474432"><ele>460.8333333333333</ele><time>2026-04-06T14:07:11Z</time></trkpt><trkpt lat="44.16370635958983" lon="10.10119360802219"><ele>461.0</ele><time>2026-04-06T14:07:13Z</time></trkpt><trkpt lat="44.16381113137369" lon="10.101129109421429"><ele>460.99999999999994</ele><time>2026-04-06T14:07:15Z</time></trkpt><trkpt lat="44.16381526833772" lon="10.100944172792403"><ele>461.0</ele><time>2026-04-06T14:07:17Z</time></trkpt><trkpt lat="44.163836359884066" lon="10.100852029338029"><ele>461.0</ele><time>2026-04-06T14:07:18Z</time></trkpt><trkpt lat="44.16384743637379" lon="10.100757167492675"><ele>461.0</ele><time>2026-04-06T14:07:19Z</time></trkpt><trkpt lat="44.16386625524421" lon="10.100659664804525"><ele>460.99999999999994</ele><time>2026-04-06T14:07:20Z</time></trkpt><trkpt lat="44.163895009263896" lon="10.100577515214974"><ele>461.0</ele><time>2026-04-06T14:07:21Z</time></trkpt><trkpt lat="44.16399666104005" lon="10.100495253422771"><ele>457.28571428571433</ele><time>2026-04-06T14:07:23Z</time></trkpt><trkpt lat="44.16406246501763" lon="10.100466121747203"><ele>453.5714285714286</ele><time>2026-04-06T14:07:24Z</time></trkpt><trkpt lat="44.1641331183844" lon="10.100432831937288"><ele>449.8571428571429</ele><time>2026-04-06T14:07:25Z</time></trkpt><trkpt lat="44.16419667110288" lon="10.100376103947022"><ele>446.14285714285717</ele><time>2026-04-06T14:07:26Z</time></trkpt><trkpt lat="44.164250560953676" lon="10.100299906037161"><ele>442.42857142857144</ele><time>2026-04-06T14:07:27Z</time></trkpt><trkpt lat="44.16426703215444" lon="10.100183931050235"><ele>438.7142857142858</ele><time>2026-04-06T14:07:28Z</time></trkpt><trkpt lat="44.164291462378195" lon="10.100100353054728"><ele>435.0</ele><time>2026-04-06T14:07:29Z</time></trkpt><trkpt lat="44.164312975345034" lon="10.100017546690715"><ele>435.0</ele><time>2026-04-06T14:07:30Z</time></trkpt><trkpt lat="44.16440451876192" lon="10.099930889854953"><ele>435.0</ele><time>2026-04-06T14:07:32Z</time></trkpt><trkpt lat="44.164470536387995" lon="10.099931962858856"><ele>435.0</ele><time>2026-04-06T14:07:33Z</time></trkpt><trkpt lat="44.164549075872856" lon="10.099926181595992"><ele>435.0</ele><time>2026-04-06T14:07:34Z</time></trkpt><trkpt lat="44.16461907545037" lon="10.099953919539164"><ele>435.0</ele><time>2026-04-06T14:07:35Z</time></trkpt><trkpt lat="44.164691625235456" lon="10.099987396467121"><ele>435.0</ele><time>2026-04-06T14:07:36Z</time></trkpt><trkpt lat="44.16475880921053" lon="10.10006407302635"><ele>435.0</ele><time>2026-04-06T14:07:37Z</time></trkpt><trkpt lat="44.16482220593776" lon="10.100134549080755"><ele>435.0</ele><time>2026-04-06T14:07:38Z</time></trkpt><trkpt lat="44.16489691136208" lon="10.1001775093273"><ele>435.0</ele><time>2026-04-06T14:07:39Z</time></trkpt><trkpt lat="44.16498030135857" lon="10.100174118317272"><ele>435.0</ele><time>2026-04-06T14:07:40Z</time></trkpt><trkpt lat="44.165062987085165" lon="10.100160531220599"><ele>435.0</ele><time>2026-04-06T14:07:41Z</time></trkpt><trkpt lat="44.1651446551357" lon="10.10013767581722"><ele>435.0</ele><time>2026-04-06T14:07:42Z</time></trkpt><trkpt lat="44.165224945374774" lon="10.100119645178502"><ele>433.1666666666667</ele><time>2026-04-06T14:07:43Z</time></trkpt><trkpt lat="44.165310548753716" lon="10.100099798957364"><ele>431.33333333333337</ele><time>2026-04-06T14:07:44Z</time></trkpt><trkpt lat="44.16539032559503" lon="10.100076877743126"><ele>429.5</ele><time>2026-04-06T14:07:45Z</time></trkpt><trkpt lat="44.16547317645902" lon="10.100097527548781"><ele>427.6666666666667</ele><time>2026-04-06T14:07:46Z</time></trkpt><trkpt lat="44.16555355959744" lon="10.100125076267087"><ele>425.83333333333337</ele><time>2026-04-06T14:07:46.999Z</time></trkpt><trkpt lat="44.16562475225891" lon="10.100191511908307"><ele>424.0</ele><time>2026-04-06T14:07:47.999Z</time></trkpt><trkpt lat="44.1656919928654" lon="10.100264346659346"><ele>423.6666666666667</ele><time>2026-04-06T14:07:48.999Z</time></trkpt><trkpt lat="44.16575231150001" lon="10.100329921171163"><ele>423.33333333333337</ele><time>2026-04-06T14:07:49.999Z</time></trkpt><trkpt lat="44.16582072199907" lon="10.100386693509257"><ele>423.0</ele><time>2026-04-06T14:07:50.999Z</time></trkpt><trkpt lat="44.165887782216956" lon="10.100461710602168"><ele>422.66666666666663</ele><time>2026-04-06T14:07:51.999Z</time></trkpt><trkpt lat="44.16594868308311" lon="10.100528180594479"><ele>422.3333333333333</ele><time>2026-04-06T14:07:52.999Z</time></trkpt><trkpt lat="44.166001114712124" lon="10.100586117624553"><ele>422.0</ele><time>2026-04-06T14:07:53.999Z</time></trkpt><trkpt lat="44.16605763085625" lon="10.100656285605972"><ele>422.0</ele><time>2026-04-06T14:07:55.999Z</time></trkpt><trkpt lat="44.1663179398097" lon="10.100706581706685"><ele>422.0</ele><time>2026-04-06T14:15:58.999Z</time></trkpt><trkpt lat="44.166358105588614" lon="10.100637572817089"><ele>422.0</ele><time>2026-04-06T14:16:07.999Z</time></trkpt><trkpt lat="44.16643229599995" lon="10.100634306707128"><ele>422.0</ele><time>2026-04-06T14:16:22.999Z</time></trkpt><trkpt lat="44.16650354761312" lon="10.100648256631088"><ele>423.75</ele><time>2026-04-06T14:16:30.999Z</time></trkpt><trkpt lat="44.166570417038" lon="10.100647758648721"><ele>425.5</ele><time>2026-04-06T14:16:37.999Z</time></trkpt><trkpt lat="44.166619526249654" lon="10.100585815677455"><ele>427.25</ele><time>2026-04-06T14:16:53.999Z</time></trkpt><trkpt lat="44.1668963029995" lon="10.100587201966123"><ele>429.0</ele><time>2026-04-06T14:25:58.07Z</time></trkpt><trkpt lat="44.16764234216216" lon="10.099947970717118"><ele>429.0</ele><time>2026-04-06T14:26:20.998Z</time></trkpt><trkpt lat="44.167519547001405" lon="10.099983719358594"><ele>429.0</ele><time>2026-04-06T14:26:21.998Z</time></trkpt><trkpt lat="44.167368829988554" lon="10.100034629737214"><ele>429.0</ele><time>2026-04-06T14:26:22.998Z</time></trkpt><trkpt lat="44.16725274534887" lon="10.100085305018544"><ele>429.0</ele><time>2026-04-06T14:26:23.998Z</time></trkpt><trkpt lat="44.167173165671784" lon="10.100125396096908"><ele>429.0</ele><time>2026-04-06T14:26:24.998Z</time></trkpt><trkpt lat="44.167115727454565" lon="10.100188996171408"><ele>429.0</ele><time>2026-04-06T14:26:27Z</time></trkpt><trkpt lat="44.16692720255793" lon="10.100290969101716"><ele>429.0</ele><time>2026-04-06T14:26:28Z</time></trkpt><trkpt lat="44.1667139377595" lon="10.100429710904509"><ele>429.0</ele><time>2026-04-06T14:26:29Z</time></trkpt><trkpt lat="44.16665568907735" lon="10.100485353671722"><ele>429.0</ele><time>2026-04-06T14:26:35Z</time></trkpt><trkpt lat="44.166604058838494" lon="10.100548212391104"><ele>429.0</ele><time>2026-04-06T14:26:43Z</time></trkpt><trkpt lat="44.16655048392531" lon="10.100600485824376"><ele>429.0</ele><time>2026-04-06T14:26:53Z</time></trkpt><trkpt lat="44.166116730596286" lon="10.100641374504104"><ele>419.33333333333337</ele><time>2026-04-06T14:27:57.999Z</time></trkpt><trkpt lat="44.16645430541383" lon="10.100856052443733"><ele>409.6666666666667</ele><time>2026-04-06T14:35:58Z</time></trkpt><trkpt lat="44.16651659901251" lon="10.100875466094612"><ele>400.0</ele><time>2026-04-06T14:35:59Z</time></trkpt><trkpt lat="44.16658305490117" lon="10.100897417363175"><ele>400.00000000000006</ele><time>2026-04-06T14:35:59.999Z</time></trkpt><trkpt lat="44.16664476359782" lon="10.100920094881065"><ele>400.0</ele><time>2026-04-06T14:36:00.999Z</time></trkpt><trkpt lat="44.16670779389315" lon="10.100942261342214"><ele>400.0</ele><time>2026-04-06T14:36:01.999Z</time></trkpt><trkpt lat="44.16677536333005" lon="10.100967809144523"><ele>400.0</ele><time>2026-04-06T14:36:02.999Z</time></trkpt><trkpt lat="44.166838938731246" lon="10.100996220802994"><ele>400.0</ele><time>2026-04-06T14:36:03.999Z</time></trkpt><trkpt lat="44.166898341197346" lon="10.101026743312701"><ele>400.00000000000006</ele><time>2026-04-06T14:36:04.999Z</time></trkpt><trkpt lat="44.1670024516538" lon="10.101090898201289"><ele>400.0</ele><time>2026-04-06T14:36:06.999Z</time></trkpt><trkpt lat="44.16709607570655" lon="10.101184537320156"><ele>400.0</ele><time>2026-04-06T14:36:08.999Z</time></trkpt><trkpt lat="44.1671915258812" lon="10.101295057087198"><ele>400.0</ele><time>2026-04-06T14:36:10.999Z</time></trkpt><trkpt lat="44.16728105471629" lon="10.101419218173803"><ele>400.0</ele><time>2026-04-06T14:36:12.999Z</time></trkpt><trkpt lat="44.167324077702034" lon="10.101486124720983"><ele>400.0</ele><time>2026-04-06T14:36:13.999Z</time></trkpt><trkpt lat="44.1673708777196" lon="10.101559634201612"><ele>400.0</ele><time>2026-04-06T14:36:14.999Z</time></trkpt><trkpt lat="44.167419413948934" lon="10.101639807187077"><ele>397.6</ele><time>2026-04-06T14:36:15.999Z</time></trkpt><trkpt lat="44.16746318648935" lon="10.101715983905045"><ele>395.2</ele><time>2026-04-06T14:36:16.999Z</time></trkpt><trkpt lat="44.16750200046383" lon="10.101788763211633"><ele>392.79999999999995</ele><time>2026-04-06T14:36:17.999Z</time></trkpt><trkpt lat="44.16757317663904" lon="10.101917393554466"><ele>390.4</ele><time>2026-04-06T14:36:19.999Z</time></trkpt><trkpt lat="44.16763851499195" lon="10.102060654905333"><ele>388.0</ele><time>2026-04-06T14:36:21.999Z</time></trkpt><trkpt lat="44.16767578836015" lon="10.102166710305767"><ele>388.00000000000006</ele><time>2026-04-06T14:36:22.999Z</time></trkpt><trkpt lat="44.16769246428053" lon="10.102263294071859"><ele>388.0</ele><time>2026-04-06T14:36:23.999Z</time></trkpt><trkpt lat="44.16773946667629" lon="10.102419797773496"><ele>388.0</ele><time>2026-04-06T14:36:25.999Z</time></trkpt><trkpt lat="44.16783228102394" lon="10.102509809826618"><ele>388.0</ele><time>2026-04-06T14:36:27.999Z</time></trkpt><trkpt lat="44.16789808724317" lon="10.102508437080287"><ele>388.00000000000006</ele><time>2026-04-06T14:36:28.999Z</time></trkpt><trkpt lat="44.16796844348618" lon="10.10251796780806"><ele>388.0</ele><time>2026-04-06T14:36:29.999Z</time></trkpt><trkpt lat="44.168050011854774" lon="10.10247771585973"><ele>385.59999999999997</ele><time>2026-04-06T14:36:30.999Z</time></trkpt><trkpt lat="44.168138666266806" lon="10.102471664126064"><ele>383.2</ele><time>2026-04-06T14:36:31.999Z</time></trkpt><trkpt lat="44.16823138832063" lon="10.102467450703424"><ele>380.8</ele><time>2026-04-06T14:36:32.999Z</time></trkpt><trkpt lat="44.16832280676133" lon="10.102474742700027"><ele>378.4</ele><time>2026-04-06T14:36:33.999Z</time></trkpt><trkpt lat="44.16845051742914" lon="10.102524899436496"><ele>376.0</ele><time>2026-04-06T14:36:35.999Z</time></trkpt><trkpt lat="44.16851508752857" lon="10.102563057437381"><ele>375.8</ele><time>2026-04-06T14:36:36.999Z</time></trkpt><trkpt lat="44.16864626931526" lon="10.10262618121061"><ele>375.6</ele><time>2026-04-06T14:36:38.999Z</time></trkpt><trkpt lat="44.168719117428786" lon="10.10262561605007"><ele>375.4</ele><time>2026-04-06T14:36:39.999Z</time></trkpt><trkpt lat="44.16879866448899" lon="10.102623468685726"><ele>375.2</ele><time>2026-04-06T14:36:40.999Z</time></trkpt><trkpt lat="44.16887847729581" lon="10.102587685982737"><ele>375.0</ele><time>2026-04-06T14:36:41.999Z</time></trkpt><trkpt lat="44.16895180045247" lon="10.102511028682398"><ele>375.0</ele><time>2026-04-06T14:36:42.999Z</time></trkpt><trkpt lat="44.169006434895124" lon="10.102437369284694"><ele>375.0</ele><time>2026-04-06T14:36:43.999Z</time></trkpt><trkpt lat="44.169056488145515" lon="10.102369675674487"><ele>375.0</ele><time>2026-04-06T14:36:44.999Z</time></trkpt><trkpt lat="44.16912100805043" lon="10.102250489919413"><ele>375.0</ele><time>2026-04-06T14:36:46.999Z</time></trkpt><trkpt lat="44.169181046217766" lon="10.102192330934258"><ele>375.0</ele><time>2026-04-06T14:36:48.999Z</time></trkpt><trkpt lat="44.16947456867361" lon="10.104551576092488"><ele>368.4</ele><time>2026-04-06T14:37:59Z</time></trkpt><trkpt lat="44.16949703535145" lon="10.104666673925736"><ele>361.8</ele><time>2026-04-06T14:38:13.999Z</time></trkpt><trkpt lat="44.169502573683104" lon="10.104773374252941"><ele>355.20000000000005</ele><time>2026-04-06T14:38:14.999Z</time></trkpt><trkpt lat="44.169524924501445" lon="10.104901722236928"><ele>348.6</ele><time>2026-04-06T14:38:15.999Z</time></trkpt><trkpt lat="44.169525703519994" lon="10.10505347566602"><ele>342.0</ele><time>2026-04-06T14:38:16.999Z</time></trkpt><trkpt lat="44.16950295926925" lon="10.105188505282497"><ele>342.0</ele><time>2026-04-06T14:38:17.999Z</time></trkpt><trkpt lat="44.169464840299455" lon="10.105302342838364"><ele>342.0</ele><time>2026-04-06T14:38:18.999Z</time></trkpt><trkpt lat="44.16940119566429" lon="10.1054061210972"><ele>342.0</ele><time>2026-04-06T14:38:19.999Z</time></trkpt><trkpt lat="44.16932800166372" lon="10.105494742457793"><ele>342.0</ele><time>2026-04-06T14:38:20.999Z</time></trkpt><trkpt lat="44.16927875924582" lon="10.105558729138052"><ele>342.0</ele><time>2026-04-06T14:38:21.999Z</time></trkpt><trkpt lat="44.16924848849799" lon="10.105638250721011"><ele>342.0</ele><time>2026-04-06T14:38:23.999Z</time></trkpt><trkpt lat="44.169365240346416" lon="10.105744874222204"><ele>342.0</ele><time>2026-04-06T14:38:24.999Z</time></trkpt><trkpt lat="44.169470899009205" lon="10.105699546643592"><ele>342.0</ele><time>2026-04-06T14:38:25.999Z</time></trkpt><trkpt lat="44.169588946003444" lon="10.105634631703161"><ele>342.0</ele><time>2026-04-06T14:38:26.999Z</time></trkpt><trkpt lat="44.169723011497375" lon="10.105511449466647"><ele>342.0</ele><time>2026-04-06T14:38:27.999Z</time></trkpt><trkpt lat="44.169848245038246" lon="10.105363434285207"><ele>342.0</ele><time>2026-04-06T14:38:28.999Z</time></trkpt><trkpt lat="44.169956635228125" lon="10.10521215475659"><ele>342.0</ele><time>2026-04-06T14:38:29.999Z</time></trkpt><trkpt lat="44.17006717220554" lon="10.10508254707261"><ele>342.0</ele><time>2026-04-06T14:38:30.999Z</time></trkpt><trkpt lat="44.17017658104777" lon="10.104971716633628"><ele>342.0</ele><time>2026-04-06T14:38:31.999Z</time></trkpt><trkpt lat="44.17026891678909" lon="10.104889421983335"><ele>342.0</ele><time>2026-04-06T14:38:32.999Z</time></trkpt><trkpt lat="44.17033720362302" lon="10.10483107147415"><ele>342.0</ele><time>2026-04-06T14:38:33.999Z</time></trkpt><trkpt lat="44.17044423256173" lon="10.104799635391489"><ele>342.0</ele><time>2026-04-06T14:38:35.999Z</time></trkpt><trkpt lat="44.17048082078695" lon="10.104945960568505"><ele>342.0</ele><time>2026-04-06T14:38:37.999Z</time></trkpt><trkpt lat="44.170435749548396" lon="10.10502725751604"><ele>342.0</ele><time>2026-04-06T14:38:38.999Z</time></trkpt><trkpt lat="44.17032397485251" lon="10.105052155913837"><ele>339.3333333333333</ele><time>2026-04-06T14:38:39.999Z</time></trkpt><trkpt lat="44.17023126296714" lon="10.10516914875691"><ele>336.66666666666663</ele><time>2026-04-06T14:38:40.999Z</time></trkpt><trkpt lat="44.17016712587964" lon="10.105390291044497"><ele>334.0</ele><time>2026-04-06T14:38:41.999Z</time></trkpt><trkpt lat="44.17010467725662" lon="10.105594856570775"><ele>331.79999999999995</ele><time>2026-04-06T14:38:42.999Z</time></trkpt><trkpt lat="44.17004391340373" lon="10.105773426378862"><ele>329.59999999999997</ele><time>2026-04-06T14:38:43.999Z</time></trkpt><trkpt lat="44.169988663211" lon="10.105920490682319"><ele>327.4</ele><time>2026-04-06T14:38:44.999Z</time></trkpt><trkpt lat="44.16995328834814" lon="10.106032354799519"><ele>325.2</ele><time>2026-04-06T14:38:45.999Z</time></trkpt><trkpt lat="44.169946135906045" lon="10.106126168515921"><ele>323.0</ele><time>2026-04-06T14:38:46.999Z</time></trkpt><trkpt lat="44.169970934787266" lon="10.106210748801425"><ele>323.0</ele><time>2026-04-06T14:38:47.999Z</time></trkpt><trkpt lat="44.17001520373557" lon="10.106279703947289"><ele>323.0</ele><time>2026-04-06T14:38:48.999Z</time></trkpt><trkpt lat="44.17010431791613" lon="10.106289841264255"><ele>323.0</ele><time>2026-04-06T14:38:49.999Z</time></trkpt><trkpt lat="44.17019535336603" lon="10.106242269794022"><ele>323.0</ele><time>2026-04-06T14:38:50.999Z</time></trkpt><trkpt lat="44.17024745954954" lon="10.106070978517858"><ele>323.0</ele><time>2026-04-06T14:38:51.999Z</time></trkpt><trkpt lat="44.1702989159548" lon="10.105891723254896"><ele>325.75</ele><time>2026-04-06T14:38:52.999Z</time></trkpt><trkpt lat="44.17033414722971" lon="10.105690073301878"><ele>328.5</ele><time>2026-04-06T14:38:53.999Z</time></trkpt><trkpt lat="44.17037374472351" lon="10.105545861827252"><ele>331.25</ele><time>2026-04-06T14:38:54.999Z</time></trkpt><trkpt lat="44.17041943090295" lon="10.105461688495389"><ele>334.0</ele><time>2026-04-06T14:38:55.999Z</time></trkpt><trkpt lat="44.17059032421958" lon="10.10839658485533"><ele>321.59999999999997</ele><time>2026-04-06T14:39:58Z</time></trkpt><trkpt lat="44.170685860561115" lon="10.108393189850627"><ele>309.2</ele><time>2026-04-06T14:39:59Z</time></trkpt><trkpt lat="44.170777373578275" lon="10.108394781620115"><ele>296.79999999999995</ele><time>2026-04-06T14:40:00Z</time></trkpt><trkpt lat="44.17085905738114" lon="10.108398241762247"><ele>284.4</ele><time>2026-04-06T14:40:01Z</time></trkpt><trkpt lat="44.17093550988542" lon="10.108476199202991"><ele>272.0</ele><time>2026-04-06T14:40:02Z</time></trkpt><trkpt lat="44.171005214049465" lon="10.10858542747655"><ele>272.0</ele><time>2026-04-06T14:40:03Z</time></trkpt><trkpt lat="44.171064338947076" lon="10.108702698058257"><ele>272.0</ele><time>2026-04-06T14:40:04Z</time></trkpt><trkpt lat="44.171121621550085" lon="10.108823092684892"><ele>272.0</ele><time>2026-04-06T14:40:04.999Z</time></trkpt><trkpt lat="44.171185267473916" lon="10.108950361795802"><ele>272.0</ele><time>2026-04-06T14:40:05.999Z</time></trkpt><trkpt lat="44.17124266222513" lon="10.109056363211813"><ele>272.0</ele><time>2026-04-06T14:40:06.999Z</time></trkpt><trkpt lat="44.17129183883501" lon="10.10915860461753"><ele>269.6</ele><time>2026-04-06T14:40:07.999Z</time></trkpt><trkpt lat="44.17133564992668" lon="10.109252924481732"><ele>267.2</ele><time>2026-04-06T14:40:08.999Z</time></trkpt><trkpt lat="44.17139662225202" lon="10.109370405671623"><ele>264.8</ele><time>2026-04-06T14:40:09.999Z</time></trkpt><trkpt lat="44.17146794051209" lon="10.109455083571824"><ele>262.4</ele><time>2026-04-06T14:40:10.999Z</time></trkpt><trkpt lat="44.17155778596284" lon="10.109536427744205"><ele>260.0</ele><time>2026-04-06T14:40:11.999Z</time></trkpt><trkpt lat="44.171645421628874" lon="10.1096088365843"><ele>260.0</ele><time>2026-04-06T14:40:12.999Z</time></trkpt><trkpt lat="44.17173347995857" lon="10.109678923622122"><ele>260.0</ele><time>2026-04-06T14:40:13.999Z</time></trkpt><trkpt lat="44.17183023034025" lon="10.109745849392592"><ele>260.0</ele><time>2026-04-06T14:40:14.999Z</time></trkpt><trkpt lat="44.171924656939595" lon="10.109804736949165"><ele>260.0</ele><time>2026-04-06T14:40:15.999Z</time></trkpt><trkpt lat="44.172020272145524" lon="10.109870806211433"><ele>260.0</ele><time>2026-04-06T14:40:16.999Z</time></trkpt><trkpt lat="44.17211842478171" lon="10.109939547312665"><ele>256.75</ele><time>2026-04-06T14:40:17.999Z</time></trkpt><trkpt lat="44.172218810661576" lon="10.110013691752766"><ele>253.5</ele><time>2026-04-06T14:40:18.999Z</time></trkpt><trkpt lat="44.17231977020213" lon="10.110086244627304"><ele>250.25</ele><time>2026-04-06T14:40:19.999Z</time></trkpt><trkpt lat="44.17242886960564" lon="10.11016177086238"><ele>247.0</ele><time>2026-04-06T14:40:20.999Z</time></trkpt><trkpt lat="44.17253845817526" lon="10.110236575645327"><ele>247.0</ele><time>2026-04-06T14:40:21.999Z</time></trkpt><trkpt lat="44.17264889958778" lon="10.110308254454104"><ele>247.0</ele><time>2026-04-06T14:40:22.999Z</time></trkpt><trkpt lat="44.1727629782623" lon="10.110382304504034"><ele>247.0</ele><time>2026-04-06T14:40:23.999Z</time></trkpt><trkpt lat="44.17287537651842" lon="10.11045832956314"><ele>247.0</ele><time>2026-04-06T14:40:24.999Z</time></trkpt><trkpt lat="44.17298273980308" lon="10.110530635341524"><ele>247.0</ele><time>2026-04-06T14:40:25.999Z</time></trkpt><trkpt lat="44.1730920152186" lon="10.110597267885064"><ele>247.0</ele><time>2026-04-06T14:40:26.999Z</time></trkpt><trkpt lat="44.173198031102835" lon="10.11066082827729"><ele>247.0</ele><time>2026-04-06T14:40:27.999Z</time></trkpt><trkpt lat="44.173295661935185" lon="10.110734801468096"><ele>247.0</ele><time>2026-04-06T14:40:28.999Z</time></trkpt><trkpt lat="44.173383750636305" lon="10.110789802974525"><ele>247.0</ele><time>2026-04-06T14:40:29.999Z</time></trkpt><trkpt lat="44.173442054972725" lon="10.11086248131145"><ele>246.33333333333331</ele><time>2026-04-06T14:40:30.999Z</time></trkpt><trkpt lat="44.17347955480592" lon="10.11095767378326"><ele>245.66666666666666</ele><time>2026-04-06T14:40:31.999Z</time></trkpt><trkpt lat="44.173488174220466" lon="10.111071079765114"><ele>245.0</ele><time>2026-04-06T14:40:32.999Z</time></trkpt><trkpt lat="44.17346527861273" lon="10.111183206405066"><ele>244.33333333333331</ele><time>2026-04-06T14:40:33.999Z</time></trkpt><trkpt lat="44.1734100393213" lon="10.111272527572787"><ele>243.66666666666666</ele><time>2026-04-06T14:40:34.999Z</time></trkpt><trkpt lat="44.17333345943842" lon="10.111341931607397"><ele>243.0</ele><time>2026-04-06T14:40:35.999Z</time></trkpt><trkpt lat="44.173243006537824" lon="10.111389399919656"><ele>242.60000000000002</ele><time>2026-04-06T14:40:36.999Z</time></trkpt><trkpt lat="44.17313806438908" lon="10.111380959243618"><ele>242.20000000000002</ele><time>2026-04-06T14:40:37.999Z</time></trkpt><trkpt lat="44.173034246996046" lon="10.111390703982902"><ele>241.8</ele><time>2026-04-06T14:40:38.999Z</time></trkpt><trkpt lat="44.17292625437405" lon="10.111385498277501"><ele>241.4</ele><time>2026-04-06T14:40:39.999Z</time></trkpt><trkpt lat="44.17282654109273" lon="10.111403807401146"><ele>241.0</ele><time>2026-04-06T14:40:40.999Z</time></trkpt><trkpt lat="44.17272415147681" lon="10.111401373277737"><ele>241.0</ele><time>2026-04-06T14:40:41.999Z</time></trkpt><trkpt lat="44.17262847343849" lon="10.111402472516303"><ele>241.00000000000003</ele><time>2026-04-06T14:40:42.999Z</time></trkpt><trkpt lat="44.17252297043043" lon="10.111403331430504"><ele>241.00000000000003</ele><time>2026-04-06T14:40:43.999Z</time></trkpt><trkpt lat="44.17241339212676" lon="10.111405538274234"><ele>241.0</ele><time>2026-04-06T14:40:44.999Z</time></trkpt><trkpt lat="44.172303282937044" lon="10.111409337628528"><ele>241.0</ele><time>2026-04-06T14:40:45.999Z</time></trkpt><trkpt lat="44.17220507458156" lon="10.111408628914775"><ele>239.8</ele><time>2026-04-06T14:40:46.999Z</time></trkpt><trkpt lat="44.172116106937416" lon="10.111406941990447"><ele>238.60000000000002</ele><time>2026-04-06T14:40:47.999Z</time></trkpt><trkpt lat="44.17204426097203" lon="10.111418293208162"><ele>237.4</ele><time>2026-04-06T14:40:48.999Z</time></trkpt><trkpt lat="44.171945165829605" lon="10.111514793660927"><ele>236.2</ele><time>2026-04-06T14:40:50.999Z</time></trkpt><trkpt lat="44.171942686869606" lon="10.111634854830037"><ele>235.0</ele><time>2026-04-06T14:40:51.999Z</time></trkpt><trkpt lat="44.17197898086976" lon="10.111740155462607"><ele>233.8</ele><time>2026-04-06T14:40:52.999Z</time></trkpt><trkpt lat="44.17205129547907" lon="10.111822986429557"><ele>232.6</ele><time>2026-04-06T14:40:53.999Z</time></trkpt><trkpt lat="44.17214570397032" lon="10.111864296407244"><ele>231.39999999999998</ele><time>2026-04-06T14:40:54.999Z</time></trkpt><trkpt lat="44.17223793579521" lon="10.111918212557411"><ele>230.2</ele><time>2026-04-06T14:40:55.999Z</time></trkpt><trkpt lat="44.172338226675016" lon="10.111972265796078"><ele>229.0</ele><time>2026-04-06T14:40:56.999Z</time></trkpt><trkpt lat="44.17313944875038" lon="10.115413029285898"><ele>223.39999999999998</ele><time>2026-04-06T14:41:58Z</time></trkpt><trkpt lat="44.17321658508775" lon="10.115569296165397"><ele>217.79999999999998</ele><time>2026-04-06T14:42:02Z</time></trkpt><trkpt lat="44.173302452722254" lon="10.115627269066655"><ele>212.2</ele><time>2026-04-06T14:42:03Z</time></trkpt><trkpt lat="44.17338020402431" lon="10.115671392826222"><ele>206.60000000000002</ele><time>2026-04-06T14:42:04Z</time></trkpt><trkpt lat="44.17346052729838" lon="10.115720635231948"><ele>201.0</ele><time>2026-04-06T14:42:05Z</time></trkpt><trkpt lat="44.17354287395864" lon="10.115754217108355"><ele>201.0</ele><time>2026-04-06T14:42:06Z</time></trkpt><trkpt lat="44.1736175189369" lon="10.11576761391261"><ele>201.0</ele><time>2026-04-06T14:42:07Z</time></trkpt><trkpt lat="44.17370731311786" lon="10.115766904126565"><ele>201.0</ele><time>2026-04-06T14:42:08Z</time></trkpt><trkpt lat="44.17379941006516" lon="10.115751357757246"><ele>201.0</ele><time>2026-04-06T14:42:09Z</time></trkpt><trkpt lat="44.17389517926056" lon="10.115737150109732"><ele>201.0</ele><time>2026-04-06T14:42:09.999Z</time></trkpt><trkpt lat="44.173991324077676" lon="10.115748813330782"><ele>200.60000000000002</ele><time>2026-04-06T14:42:10.999Z</time></trkpt><trkpt lat="44.17408972823098" lon="10.115771822418536"><ele>200.2</ele><time>2026-04-06T14:42:11.999Z</time></trkpt><trkpt lat="44.17419117302245" lon="10.115805974129668"><ele>199.8</ele><time>2026-04-06T14:42:12.999Z</time></trkpt><trkpt lat="44.17428988160819" lon="10.115825996272108"><ele>199.39999999999998</ele><time>2026-04-06T14:42:13.999Z</time></trkpt><trkpt lat="44.174392545784116" lon="10.11581188824484"><ele>199.0</ele><time>2026-04-06T14:42:14.999Z</time></trkpt><trkpt lat="44.17449886708248" lon="10.115781825121172"><ele>197.0</ele><time>2026-04-06T14:42:15.999Z</time></trkpt><trkpt lat="44.174607757291426" lon="10.115727337903426"><ele>195.0</ele><time>2026-04-06T14:42:16.999Z</time></trkpt><trkpt lat="44.174693361390396" lon="10.1156661917631"><ele>193.0</ele><time>2026-04-06T14:42:17.999Z</time></trkpt><trkpt lat="44.17477851055864" lon="10.115580643168402"><ele>191.0</ele><time>2026-04-06T14:42:18.999Z</time></trkpt><trkpt lat="44.17486399583442" lon="10.11549054815842"><ele>189.0</ele><time>2026-04-06T14:42:19.999Z</time></trkpt><trkpt lat="44.174962793691286" lon="10.115439690460832"><ele>188.6</ele><time>2026-04-06T14:42:20.999Z</time></trkpt><trkpt lat="44.175075725462705" lon="10.115448691460655"><ele>188.2</ele><time>2026-04-06T14:42:21.999Z</time></trkpt><trkpt lat="44.17518446801679" lon="10.115419702838038"><ele>187.79999999999998</ele><time>2026-04-06T14:42:22.999Z</time></trkpt><trkpt lat="44.175282987961026" lon="10.115400420586775"><ele>187.39999999999998</ele><time>2026-04-06T14:42:23.999Z</time></trkpt><trkpt lat="44.175372035238595" lon="10.115350919000397"><ele>187.0</ele><time>2026-04-06T14:42:24.999Z</time></trkpt><trkpt lat="44.17545378871789" lon="10.115283448370649"><ele>187.0</ele><time>2026-04-06T14:42:25.999Z</time></trkpt><trkpt lat="44.175536316383514" lon="10.115204034069412"><ele>187.0</ele><time>2026-04-06T14:42:26.999Z</time></trkpt><trkpt lat="44.17561960726072" lon="10.115118350372663"><ele>187.0</ele><time>2026-04-06T14:42:27.999Z</time></trkpt><trkpt lat="44.175699508102035" lon="10.115037968508519"><ele>187.0</ele><time>2026-04-06T14:42:28.999Z</time></trkpt><trkpt lat="44.175772688044276" lon="10.114941789992805"><ele>187.0</ele><time>2026-04-06T14:42:29.999Z</time></trkpt><trkpt lat="44.17583391661347" lon="10.114832042382577"><ele>186.39999999999998</ele><time>2026-04-06T14:42:30.999Z</time></trkpt><trkpt lat="44.175902922834034" lon="10.11472903904964"><ele>185.79999999999998</ele><time>2026-04-06T14:42:31.999Z</time></trkpt><trkpt lat="44.175976184170004" lon="10.114648055804263"><ele>185.2</ele><time>2026-04-06T14:42:32.999Z</time></trkpt><trkpt lat="44.1760370867139" lon="10.114552814041929"><ele>184.6</ele><time>2026-04-06T14:42:33.999Z</time></trkpt><trkpt lat="44.1761225473851" lon="10.114484680507562"><ele>184.0</ele><time>2026-04-06T14:42:34.999Z</time></trkpt><trkpt lat="44.17619882533128" lon="10.114439463578577"><ele>184.0</ele><time>2026-04-06T14:42:35.999Z</time></trkpt><trkpt lat="44.17627154820018" lon="10.114395560573362"><ele>184.0</ele><time>2026-04-06T14:42:36.999Z</time></trkpt><trkpt lat="44.17634368958039" lon="10.114373925984953"><ele>184.0</ele><time>2026-04-06T14:42:37.999Z</time></trkpt><trkpt lat="44.176410932372555" lon="10.114346251439848"><ele>184.0</ele><time>2026-04-06T14:42:38.999Z</time></trkpt><trkpt lat="44.17647655896783" lon="10.114320285920678"><ele>184.0</ele><time>2026-04-06T14:42:39.999Z</time></trkpt><trkpt lat="44.17655016448835" lon="10.11428898091785"><ele>184.0</ele><time>2026-04-06T14:42:40.999Z</time></trkpt><trkpt lat="44.176632897433116" lon="10.114251802035831"><ele>184.79999999999998</ele><time>2026-04-06T14:42:41.999Z</time></trkpt><trkpt lat="44.17672171658629" lon="10.114196632099308"><ele>185.6</ele><time>2026-04-06T14:42:42.999Z</time></trkpt><trkpt lat="44.176821010762296" lon="10.11418813723824"><ele>186.4</ele><time>2026-04-06T14:42:43.999Z</time></trkpt><trkpt lat="44.17691112819729" lon="10.114170745063094"><ele>187.2</ele><time>2026-04-06T14:42:44.999Z</time></trkpt><trkpt lat="44.17699645005733" lon="10.114146338125323"><ele>188.0</ele><time>2026-04-06T14:42:45.999Z</time></trkpt><trkpt lat="44.177085602561085" lon="10.114155442664762"><ele>188.0</ele><time>2026-04-06T14:42:46.999Z</time></trkpt><trkpt lat="44.177169041369176" lon="10.114192172159802"><ele>188.0</ele><time>2026-04-06T14:42:47.999Z</time></trkpt><trkpt lat="44.17725292554439" lon="10.114198320803807"><ele>188.0</ele><time>2026-04-06T14:42:48.999Z</time></trkpt><trkpt lat="44.17732864373894" lon="10.114235257303177"><ele>188.0</ele><time>2026-04-06T14:42:49.999Z</time></trkpt><trkpt lat="44.17740483026927" lon="10.11427565037798"><ele>188.0</ele><time>2026-04-06T14:42:50.999Z</time></trkpt><trkpt lat="44.17749892696178" lon="10.114347447969926"><ele>188.0</ele><time>2026-04-06T14:42:51.999Z</time></trkpt><trkpt lat="44.17760625608012" lon="10.1144351922632"><ele>187.5</ele><time>2026-04-06T14:42:52.999Z</time></trkpt><trkpt lat="44.17771608027154" lon="10.114555520257536"><ele>187.0</ele><time>2026-04-06T14:42:53.999Z</time></trkpt><trkpt lat="44.17781804812575" lon="10.114678908051852"><ele>186.5</ele><time>2026-04-06T14:42:54.999Z</time></trkpt><trkpt lat="44.17792978918584" lon="10.114812308463451"><ele>186.0</ele><time>2026-04-06T14:42:55.999Z</time></trkpt><trkpt lat="44.17804758476176" lon="10.114934181750376"><ele>175.0</ele><time>2026-04-06T14:42:56.999Z</time></trkpt><trkpt lat="44.182762948641276" lon="10.11396441628339"><ele>175.0</ele><time>2026-04-06T14:43:58Z</time></trkpt><trkpt lat="44.182881557990534" lon="10.11398357098003"><ele>175.0</ele><time>2026-04-06T14:43:59Z</time></trkpt><trkpt lat="44.18299147445088" lon="10.113972840262194"><ele>175.0</ele><time>2026-04-06T14:44:00Z</time></trkpt><trkpt lat="44.18311030520223" lon="10.11397075123952"><ele>175.0</ele><time>2026-04-06T14:44:01Z</time></trkpt><trkpt lat="44.18321856644807" lon="10.113952657813092"><ele>174.25</ele><time>2026-04-06T14:44:02Z</time></trkpt><trkpt lat="44.183334974771654" lon="10.113925366136025"><ele>173.5</ele><time>2026-04-06T14:44:03Z</time></trkpt><trkpt lat="44.18345223575012" lon="10.113896983992966"><ele>172.75</ele><time>2026-04-06T14:44:04Z</time></trkpt><trkpt lat="44.183572412085766" lon="10.113868721278921"><ele>172.0</ele><time>2026-04-06T14:44:05Z</time></trkpt><trkpt lat="44.18369508173202" lon="10.113840151858017"><ele>172.0</ele><time>2026-04-06T14:44:06Z</time></trkpt><trkpt lat="44.18382391181189" lon="10.113809264113204"><ele>172.0</ele><time>2026-04-06T14:44:07Z</time></trkpt><trkpt lat="44.183947842288106" lon="10.113768045462237"><ele>172.0</ele><time>2026-04-06T14:44:08Z</time></trkpt><trkpt lat="44.18407103631472" lon="10.113712067502187"><ele>172.0</ele><time>2026-04-06T14:44:09Z</time></trkpt><trkpt lat="44.18419278715418" lon="10.11363343564304"><ele>171.5</ele><time>2026-04-06T14:44:10Z</time></trkpt><trkpt lat="44.18430426450616" lon="10.11353961503935"><ele>171.0</ele><time>2026-04-06T14:44:10.999Z</time></trkpt><trkpt lat="44.18440295218153" lon="10.113398994640223"><ele>170.5</ele><time>2026-04-06T14:44:11.999Z</time></trkpt><trkpt lat="44.18449321861879" lon="10.113225560917787"><ele>170.0</ele><time>2026-04-06T14:44:12.999Z</time></trkpt><trkpt lat="44.184582455108256" lon="10.11305108441561"><ele>170.0</ele><time>2026-04-06T14:44:13.999Z</time></trkpt><trkpt lat="44.18467163571829" lon="10.112890757067525"><ele>170.0</ele><time>2026-04-06T14:44:14.999Z</time></trkpt><trkpt lat="44.18476187932607" lon="10.112730124587195"><ele>170.0</ele><time>2026-04-06T14:44:15.999Z</time></trkpt><trkpt lat="44.18484549295357" lon="10.112568557579788"><ele>170.0</ele><time>2026-04-06T14:44:16.999Z</time></trkpt><trkpt lat="44.18494417656171" lon="10.112428333962619"><ele>170.75</ele><time>2026-04-06T14:44:17.999Z</time></trkpt><trkpt lat="44.185029877305986" lon="10.11227931559522"><ele>171.5</ele><time>2026-04-06T14:44:18.999Z</time></trkpt><trkpt lat="44.18511204046839" lon="10.112136448452954"><ele>172.25</ele><time>2026-04-06T14:44:19.999Z</time></trkpt><trkpt lat="44.18518520260359" lon="10.111993126838891"><ele>173.0</ele><time>2026-04-06T14:44:20.999Z</time></trkpt><trkpt lat="44.18527587973237" lon="10.111886382711745"><ele>173.0</ele><time>2026-04-06T14:44:21.999Z</time></trkpt><trkpt lat="44.18537319324503" lon="10.111812602203756"><ele>173.0</ele><time>2026-04-06T14:44:22.999Z</time></trkpt><trkpt lat="44.185488377251325" lon="10.111788037946623"><ele>173.0</ele><time>2026-04-06T14:44:23.999Z</time></trkpt><trkpt lat="44.185603008693825" lon="10.11173503401163"><ele>173.0</ele><time>2026-04-06T14:44:24.999Z</time></trkpt><trkpt lat="44.185706847075934" lon="10.111702575559091"><ele>172.60000000000002</ele><time>2026-04-06T14:44:25.999Z</time></trkpt><trkpt lat="44.18579948865673" lon="10.111646765190397"><ele>172.20000000000002</ele><time>2026-04-06T14:44:26.999Z</time></trkpt><trkpt lat="44.18589661981234" lon="10.111597196175113"><ele>171.8</ele><time>2026-04-06T14:44:27.999Z</time></trkpt><trkpt lat="44.18598693871527" lon="10.111495210697246"><ele>171.4</ele><time>2026-04-06T14:44:28.999Z</time></trkpt><trkpt lat="44.18606304447703" lon="10.11137527897042"><ele>171.0</ele><time>2026-04-06T14:44:29.999Z</time></trkpt><trkpt lat="44.18614442968202" lon="10.11128928955901"><ele>171.0</ele><time>2026-04-06T14:44:30.999Z</time></trkpt><trkpt lat="44.18622566218087" lon="10.111188593021199"><ele>171.0</ele><time>2026-04-06T14:44:31.999Z</time></trkpt><trkpt lat="44.186312850131955" lon="10.111088286479482"><ele>171.0</ele><time>2026-04-06T14:44:32.999Z</time></trkpt><trkpt lat="44.18640349750413" lon="10.110983571115424"><ele>171.0</ele><time>2026-04-06T14:44:33.999Z</time></trkpt><trkpt lat="44.18649430399903" lon="10.110868314049995"><ele>170.8</ele><time>2026-04-06T14:44:34.999Z</time></trkpt><trkpt lat="44.1865825663726" lon="10.110756392470936"><ele>170.60000000000002</ele><time>2026-04-06T14:44:35.999Z</time></trkpt><trkpt lat="44.186677627728024" lon="10.11067162363404"><ele>170.4</ele><time>2026-04-06T14:44:36.999Z</time></trkpt><trkpt lat="44.18675545613116" lon="10.110570327162248"><ele>170.2</ele><time>2026-04-06T14:44:37.999Z</time></trkpt><trkpt lat="44.18684219646396" lon="10.110486092696755"><ele>170.0</ele><time>2026-04-06T14:44:38.999Z</time></trkpt><trkpt lat="44.18693945424401" lon="10.110408597923218"><ele>170.0</ele><time>2026-04-06T14:44:39.999Z</time></trkpt><trkpt lat="44.187041624927744" lon="10.11033257544639"><ele>170.0</ele><time>2026-04-06T14:44:40.999Z</time></trkpt><trkpt lat="44.18714086750547" lon="10.110263573878825"><ele>170.0</ele><time>2026-04-06T14:44:41.999Z</time></trkpt><trkpt lat="44.18724020318373" lon="10.110199362739891"><ele>170.0</ele><time>2026-04-06T14:44:42.999Z</time></trkpt><trkpt lat="44.187336172308875" lon="10.110132159862115"><ele>170.0</ele><time>2026-04-06T14:44:43.999Z</time></trkpt><trkpt lat="44.18743071654177" lon="10.110056301945137"><ele>169.6</ele><time>2026-04-06T14:44:44.999Z</time></trkpt><trkpt lat="44.18752028684088" lon="10.109974485395346"><ele>169.2</ele><time>2026-04-06T14:44:45.999Z</time></trkpt><trkpt lat="44.187603274449174" lon="10.109873326066651"><ele>168.8</ele><time>2026-04-06T14:44:46.999Z</time></trkpt><trkpt lat="44.18766265681565" lon="10.109758660089739"><ele>168.4</ele><time>2026-04-06T14:44:47.999Z</time></trkpt><trkpt lat="44.1877046290384" lon="10.109637461266487"><ele>168.0</ele><time>2026-04-06T14:44:48.999Z</time></trkpt><trkpt lat="44.18774624274904" lon="10.109508496253143"><ele>168.0</ele><time>2026-04-06T14:44:49.999Z</time></trkpt><trkpt lat="44.18779592633194" lon="10.10939139270288"><ele>168.0</ele><time>2026-04-06T14:44:50.999Z</time></trkpt><trkpt lat="44.18785620585775" lon="10.109276241369734"><ele>168.0</ele><time>2026-04-06T14:44:51.999Z</time></trkpt><trkpt lat="44.187924243248375" lon="10.10918957109853"><ele>168.0</ele><time>2026-04-06T14:44:52.999Z</time></trkpt><trkpt lat="44.18799917804539" lon="10.109108320778637"><ele>168.0</ele><time>2026-04-06T14:44:53.999Z</time></trkpt><trkpt lat="44.18808036840002" lon="10.109040338202533"><ele>167.33333333333334</ele><time>2026-04-06T14:44:54.999Z</time></trkpt><trkpt lat="44.18816965434298" lon="10.108999135277683"><ele>166.66666666666669</ele><time>2026-04-06T14:44:55.999Z</time></trkpt><trkpt lat="44.18825253177947" lon="10.108997774000464"><ele>166.0</ele><time>2026-04-06T14:44:56.999Z</time></trkpt><trkpt lat="44.19145400913639" lon="10.10857601653366"><ele>165.8</ele><time>2026-04-06T14:45:58Z</time></trkpt><trkpt lat="44.19155289899133" lon="10.108559420389854"><ele>165.60000000000002</ele><time>2026-04-06T14:46:00Z</time></trkpt><trkpt lat="44.19162611042525" lon="10.108549721166819"><ele>165.4</ele><time>2026-04-06T14:46:02Z</time></trkpt><trkpt lat="44.19171207317248" lon="10.108535242329365"><ele>165.2</ele><time>2026-04-06T14:46:04Z</time></trkpt><trkpt lat="44.191818783716116" lon="10.10850956575765"><ele>165.0</ele><time>2026-04-06T14:46:06Z</time></trkpt><trkpt lat="44.191916263211915" lon="10.1084855917036"><ele>165.0</ele><time>2026-04-06T14:46:08Z</time></trkpt><trkpt lat="44.192003528723696" lon="10.108445842486033"><ele>165.0</ele><time>2026-04-06T14:46:10Z</time></trkpt><trkpt lat="44.192083106226356" lon="10.108436845105695"><ele>165.0</ele><time>2026-04-06T14:46:12Z</time></trkpt><trkpt lat="44.19215046259203" lon="10.108411286031439"><ele>165.0</ele><time>2026-04-06T14:46:14Z</time></trkpt><trkpt lat="44.19221437135699" lon="10.108387035187203"><ele>165.0</ele><time>2026-04-06T14:46:16Z</time></trkpt><trkpt lat="44.19231782282558" lon="10.108349951898253"><ele>165.0</ele><time>2026-04-06T14:46:18Z</time></trkpt><trkpt lat="44.192388509290396" lon="10.108336160985774"><ele>164.66666666666666</ele><time>2026-04-06T14:46:18.999Z</time></trkpt><trkpt lat="44.19246185114163" lon="10.1083318247574"><ele>164.33333333333334</ele><time>2026-04-06T14:46:19.999Z</time></trkpt><trkpt lat="44.19253831000024" lon="10.108337643496752"><ele>164.0</ele><time>2026-04-06T14:46:20.999Z</time></trkpt><trkpt lat="44.192659045696594" lon="10.108378060664597"><ele>163.66666666666669</ele><time>2026-04-06T14:46:22.999Z</time></trkpt><trkpt lat="44.192722500554765" lon="10.10840715760039"><ele>163.33333333333334</ele><time>2026-04-06T14:46:23.999Z</time></trkpt><trkpt lat="44.19279782576478" lon="10.10842754508455"><ele>163.0</ele><time>2026-04-06T14:46:24.999Z</time></trkpt><trkpt lat="44.19286363323208" lon="10.108508534706974"><ele>163.0</ele><time>2026-04-06T14:46:25.999Z</time></trkpt><trkpt lat="44.19293479512003" lon="10.10857363206688"><ele>163.0</ele><time>2026-04-06T14:46:26.999Z</time></trkpt><trkpt lat="44.193012857568704" lon="10.1086434564642"><ele>163.0</ele><time>2026-04-06T14:46:27.999Z</time></trkpt><trkpt lat="44.193087778184314" lon="10.108710470587273"><ele>163.0</ele><time>2026-04-06T14:46:28.999Z</time></trkpt><trkpt lat="44.1931699448114" lon="10.10878439787788"><ele>163.0</ele><time>2026-04-06T14:46:29.999Z</time></trkpt><trkpt lat="44.19325494309428" lon="10.108836418840573"><ele>163.0</ele><time>2026-04-06T14:46:30.999Z</time></trkpt><trkpt lat="44.19333098444781" lon="10.108910487497116"><ele>163.0</ele><time>2026-04-06T14:46:31.999Z</time></trkpt><trkpt lat="44.1934077625302" lon="10.108985095984771"><ele>163.0</ele><time>2026-04-06T14:46:32.999Z</time></trkpt><trkpt lat="44.193468722936984" lon="10.109050974470156"><ele>163.0</ele><time>2026-04-06T14:46:33.999Z</time></trkpt><trkpt lat="44.19354443363249" lon="10.109120230914161"><ele>163.0</ele><time>2026-04-06T14:46:34.999Z</time></trkpt><trkpt lat="44.19361762373895" lon="10.109181478268944"><ele>163.0</ele><time>2026-04-06T14:46:35.999Z</time></trkpt><trkpt lat="44.193685980696124" lon="10.109242688080954"><ele>163.0</ele><time>2026-04-06T14:46:36.999Z</time></trkpt><trkpt lat="44.19375427507705" lon="10.109313645817647"><ele>163.0</ele><time>2026-04-06T14:46:37.999Z</time></trkpt><trkpt lat="44.19383291239646" lon="10.109377577825352"><ele>163.0</ele><time>2026-04-06T14:46:38.999Z</time></trkpt><trkpt lat="44.1939013523484" lon="10.109446595391004"><ele>163.0</ele><time>2026-04-06T14:46:39.999Z</time></trkpt><trkpt lat="44.19398661260902" lon="10.109503531077099"><ele>163.0</ele><time>2026-04-06T14:46:40.999Z</time></trkpt><trkpt lat="44.1940621700729" lon="10.109580843041838"><ele>163.0</ele><time>2026-04-06T14:46:41.999Z</time></trkpt><trkpt lat="44.19414722396283" lon="10.10965442421039"><ele>162.60000000000002</ele><time>2026-04-06T14:46:42.999Z</time></trkpt><trkpt lat="44.194235684601956" lon="10.109727196003208"><ele>162.20000000000002</ele><time>2026-04-06T14:46:43.999Z</time></trkpt><trkpt lat="44.194333897654424" lon="10.109784499758469"><ele>161.8</ele><time>2026-04-06T14:46:44.999Z</time></trkpt><trkpt lat="44.19442863654887" lon="10.109832428747596"><ele>161.4</ele><time>2026-04-06T14:46:45.999Z</time></trkpt><trkpt lat="44.19451591425428" lon="10.109877940857729"><ele>161.0</ele><time>2026-04-06T14:46:46.999Z</time></trkpt><trkpt lat="44.194594200796246" lon="10.109912901287814"><ele>160.85714285714286</ele><time>2026-04-06T14:46:47.999Z</time></trkpt><trkpt lat="44.194659943876744" lon="10.109945901818115"><ele>160.71428571428572</ele><time>2026-04-06T14:46:48.999Z</time></trkpt><trkpt lat="44.194728022752884" lon="10.109974341859102"><ele>160.57142857142856</ele><time>2026-04-06T14:46:49.999Z</time></trkpt><trkpt lat="44.19479252799928" lon="10.110009329016775"><ele>160.42857142857144</ele><time>2026-04-06T14:46:50.999Z</time></trkpt><trkpt lat="44.19486628331916" lon="10.11004523107796"><ele>160.28571428571428</ele><time>2026-04-06T14:46:51.999Z</time></trkpt><trkpt lat="44.19492911020671" lon="10.110074079858073"><ele>160.14285714285714</ele><time>2026-04-06T14:46:52.999Z</time></trkpt><trkpt lat="44.19499869103846" lon="10.110103090992983"><ele>160.0</ele><time>2026-04-06T14:46:54.999Z</time></trkpt><trkpt lat="44.200365783716286" lon="10.103384300001128"><ele>158.66666666666669</ele><time>2026-04-06T14:47:58Z</time></trkpt><trkpt lat="44.20048210630001" lon="10.103187442126245"><ele>157.33333333333334</ele><time>2026-04-06T14:47:59Z</time></trkpt><trkpt lat="44.20060704117161" lon="10.102980405564745"><ele>156.0</ele><time>2026-04-06T14:48:00Z</time></trkpt><trkpt lat="44.20072784137692" lon="10.102771479696347"><ele>155.66666666666666</ele><time>2026-04-06T14:48:01Z</time></trkpt><trkpt lat="44.200842977350746" lon="10.102553548317001"><ele>155.33333333333331</ele><time>2026-04-06T14:48:02Z</time></trkpt><trkpt lat="44.20095822682606" lon="10.102324071877366"><ele>155.0</ele><time>2026-04-06T14:48:03Z</time></trkpt><trkpt lat="44.20106109072587" lon="10.102092824784497"><ele>161.66666666666666</ele><time>2026-04-06T14:48:04Z</time></trkpt><trkpt lat="44.20116610087918" lon="10.101847185202164"><ele>168.33333333333334</ele><time>2026-04-06T14:48:05Z</time></trkpt><trkpt lat="44.201267104327506" lon="10.10160041677684"><ele>175.0</ele><time>2026-04-06T14:48:06Z</time></trkpt><trkpt lat="44.201369461323594" lon="10.10136383400517"><ele>173.66666666666669</ele><time>2026-04-06T14:48:07Z</time></trkpt><trkpt lat="44.2014756361759" lon="10.101134024426091"><ele>172.33333333333334</ele><time>2026-04-06T14:48:08Z</time></trkpt><trkpt lat="44.20158068345176" lon="10.100907976902464"><ele>171.0</ele><time>2026-04-06T14:48:09Z</time></trkpt><trkpt lat="44.201686998127364" lon="10.100682057973216"><ele>171.0</ele><time>2026-04-06T14:48:10Z</time></trkpt><trkpt lat="44.201791341526885" lon="10.10045446984253"><ele>171.0</ele><time>2026-04-06T14:48:11Z</time></trkpt><trkpt lat="44.201899247723055" lon="10.100208279641766"><ele>171.0</ele><time>2026-04-06T14:48:12.07Z</time></trkpt><trkpt lat="44.2021070547903" lon="10.09937680195324"><ele>168.0</ele><time>2026-04-06T14:48:15Z</time></trkpt><trkpt lat="44.20220938064163" lon="10.099148590307784"><ele>165.0</ele><time>2026-04-06T14:48:16Z</time></trkpt><trkpt lat="44.202313134285745" lon="10.098920362523913"><ele>162.0</ele><time>2026-04-06T14:48:17Z</time></trkpt><trkpt lat="44.202407824636616" lon="10.098675270164703"><ele>155.0</ele><time>2026-04-06T14:48:18Z</time></trkpt><trkpt lat="44.202502166009246" lon="10.098429036097963"><ele>148.0</ele><time>2026-04-06T14:48:19Z</time></trkpt><trkpt lat="44.202577163522975" lon="10.098182979166662"><ele>141.0</ele><time>2026-04-06T14:48:20Z</time></trkpt><trkpt lat="44.20266727331103" lon="10.097949115376588"><ele>141.0</ele><time>2026-04-06T14:48:21Z</time></trkpt><trkpt lat="44.20275656228064" lon="10.097708228554158"><ele>141.0</ele><time>2026-04-06T14:48:22Z</time></trkpt><trkpt lat="44.20283245150384" lon="10.097463280132787"><ele>141.0</ele><time>2026-04-06T14:48:23Z</time></trkpt><trkpt lat="44.20289843786516" lon="10.09721203751595"><ele>141.0</ele><time>2026-04-06T14:48:24Z</time></trkpt><trkpt lat="44.20296050064887" lon="10.096959727582453"><ele>141.0</ele><time>2026-04-06T14:48:25Z</time></trkpt><trkpt lat="44.20301242873622" lon="10.096699389464408"><ele>141.0</ele><time>2026-04-06T14:48:25.999Z</time></trkpt><trkpt lat="44.20306759091918" lon="10.096441570392459"><ele>141.33333333333334</ele><time>2026-04-06T14:48:26.999Z</time></trkpt><trkpt lat="44.20308495043966" lon="10.096173602768092"><ele>141.66666666666669</ele><time>2026-04-06T14:48:27.999Z</time></trkpt><trkpt lat="44.203108127698634" lon="10.095906826312104"><ele>142.0</ele><time>2026-04-06T14:48:28.999Z</time></trkpt><trkpt lat="44.20311187144244" lon="10.095645553747813"><ele>142.33333333333334</ele><time>2026-04-06T14:48:29.999Z</time></trkpt><trkpt lat="44.20311318710634" lon="10.095381719884825"><ele>142.66666666666666</ele><time>2026-04-06T14:48:30.999Z</time></trkpt><trkpt lat="44.2030995999083" lon="10.095124005583262"><ele>143.0</ele><time>2026-04-06T14:48:31.999Z</time></trkpt><trkpt lat="44.203083205120755" lon="10.094867627464978"><ele>143.0</ele><time>2026-04-06T14:48:32.999Z</time></trkpt><trkpt lat="44.20305632482581" lon="10.094620624068975"><ele>143.0</ele><time>2026-04-06T14:48:33.999Z</time></trkpt><trkpt lat="44.20302075006851" lon="10.094380015789413"><ele>143.0</ele><time>2026-04-06T14:48:34.999Z</time></trkpt><trkpt lat="44.20298585421424" lon="10.094145867183398"><ele>142.33333333333331</ele><time>2026-04-06T14:48:35.999Z</time></trkpt><trkpt lat="44.202938681671654" lon="10.09391241965349"><ele>141.66666666666666</ele><time>2026-04-06T14:48:36.999Z</time></trkpt><trkpt lat="44.20289195763298" lon="10.09368124629621"><ele>141.0</ele><time>2026-04-06T14:48:37.999Z</time></trkpt><trkpt lat="44.20284274884464" lon="10.093452448904468"><ele>141.33333333333334</ele><time>2026-04-06T14:48:38.999Z</time></trkpt><trkpt lat="44.202799303637654" lon="10.093218184101561"><ele>141.66666666666669</ele><time>2026-04-06T14:48:39.999Z</time></trkpt><trkpt lat="44.20275206082866" lon="10.09298300665092"><ele>142.0</ele><time>2026-04-06T14:48:40.999Z</time></trkpt><trkpt lat="44.20270142122529" lon="10.09275709027658"><ele>142.0</ele><time>2026-04-06T14:48:41.999Z</time></trkpt><trkpt lat="44.20265805378137" lon="10.0925311945626"><ele>142.0</ele><time>2026-04-06T14:48:42.999Z</time></trkpt><trkpt lat="44.20260926761541" lon="10.09230958645354"><ele>142.0</ele><time>2026-04-06T14:48:43.999Z</time></trkpt><trkpt lat="44.20256471664504" lon="10.092084951695355"><ele>142.33333333333334</ele><time>2026-04-06T14:48:44.999Z</time></trkpt><trkpt lat="44.202518241751086" lon="10.091860992305417"><ele>142.66666666666666</ele><time>2026-04-06T14:48:45.999Z</time></trkpt><trkpt lat="44.20247225911097" lon="10.091635767507492"><ele>143.0</ele><time>2026-04-06T14:48:46.999Z</time></trkpt><trkpt lat="44.202431737745194" lon="10.091421750398517"><ele>143.0</ele><time>2026-04-06T14:48:47.999Z</time></trkpt><trkpt lat="44.20238672598809" lon="10.091216385985238"><ele>143.0</ele><time>2026-04-06T14:48:48.999Z</time></trkpt><trkpt lat="44.202345811915514" lon="10.091003566140015"><ele>143.0</ele><time>2026-04-06T14:48:49.999Z</time></trkpt><trkpt lat="44.20230204038551" lon="10.090797865970222"><ele>141.75</ele><time>2026-04-06T14:48:50.999Z</time></trkpt><trkpt lat="44.202263886796025" lon="10.09059858031836"><ele>140.5</ele><time>2026-04-06T14:48:51.999Z</time></trkpt><trkpt lat="44.20222490756524" lon="10.090415261835021"><ele>139.25</ele><time>2026-04-06T14:48:52.999Z</time></trkpt><trkpt lat="44.20218795224498" lon="10.09021679961451"><ele>138.0</ele><time>2026-04-06T14:48:53.999Z</time></trkpt><trkpt lat="44.2021465633853" lon="10.090009354260692"><ele>138.0</ele><time>2026-04-06T14:48:54.999Z</time></trkpt><trkpt lat="44.202104261701734" lon="10.089800359632555"><ele>138.0</ele><time>2026-04-06T14:48:55.999Z</time></trkpt><trkpt lat="44.20206384571541" lon="10.089593217772002"><ele>138.0</ele><time>2026-04-06T14:48:56.999Z</time></trkpt><trkpt lat="44.20271765100514" lon="10.085081417416784"><ele>138.5</ele><time>2026-04-06T14:49:58Z</time></trkpt><trkpt lat="44.20274858935316" lon="10.084925532151209"><ele>139.0</ele><time>2026-04-06T14:49:59Z</time></trkpt><trkpt lat="44.2027631869866" lon="10.08475248536151"><ele>139.5</ele><time>2026-04-06T14:50:00Z</time></trkpt><trkpt lat="44.20277236560947" lon="10.08457972272953"><ele>140.0</ele><time>2026-04-06T14:50:01Z</time></trkpt><trkpt lat="44.202760632410765" lon="10.08439373270336"><ele>140.0</ele><time>2026-04-06T14:50:02Z</time></trkpt><trkpt lat="44.202740142377195" lon="10.084209228194446"><ele>140.0</ele><time>2026-04-06T14:50:03Z</time></trkpt><trkpt lat="44.20275905881127" lon="10.083995213860186"><ele>140.0</ele><time>2026-04-06T14:50:04Z</time></trkpt><trkpt lat="44.20274198467081" lon="10.083852476301386"><ele>140.0</ele><time>2026-04-06T14:50:05Z</time></trkpt><trkpt lat="44.202725989151354" lon="10.083715289954853"><ele>141.2</ele><time>2026-04-06T14:50:06Z</time></trkpt><trkpt lat="44.202713879865165" lon="10.083596996916098"><ele>142.4</ele><time>2026-04-06T14:50:07Z</time></trkpt><trkpt lat="44.202705235417234" lon="10.08346757552423"><ele>143.6</ele><time>2026-04-06T14:50:08Z</time></trkpt><trkpt lat="44.20270538869048" lon="10.083332488255698"><ele>144.8</ele><time>2026-04-06T14:50:09Z</time></trkpt><trkpt lat="44.20274425714666" lon="10.083201982969745"><ele>146.0</ele><time>2026-04-06T14:50:10Z</time></trkpt><trkpt lat="44.202787553123095" lon="10.083070772995237"><ele>146.6</ele><time>2026-04-06T14:50:11Z</time></trkpt><trkpt lat="44.20285248817257" lon="10.082949234995318"><ele>147.2</ele><time>2026-04-06T14:50:12Z</time></trkpt><trkpt lat="44.202931916792856" lon="10.08284522383117"><ele>147.8</ele><time>2026-04-06T14:50:13Z</time></trkpt><trkpt lat="44.20301366592297" lon="10.08275318876532"><ele>148.4</ele><time>2026-04-06T14:50:14Z</time></trkpt><trkpt lat="44.20309059609406" lon="10.082678740536622"><ele>149.0</ele><time>2026-04-06T14:50:15Z</time></trkpt><trkpt lat="44.20317056567151" lon="10.08262243752844"><ele>151.6</ele><time>2026-04-06T14:50:16Z</time></trkpt><trkpt lat="44.20326290020227" lon="10.082591900067154"><ele>154.2</ele><time>2026-04-06T14:50:17Z</time></trkpt><trkpt lat="44.203363738441396" lon="10.08263271354285"><ele>156.79999999999998</ele><time>2026-04-06T14:50:18Z</time></trkpt><trkpt lat="44.20345849984762" lon="10.082703998224439"><ele>159.4</ele><time>2026-04-06T14:50:19Z</time></trkpt><trkpt lat="44.20356280251973" lon="10.082757493232592"><ele>162.0</ele><time>2026-04-06T14:50:20Z</time></trkpt><trkpt lat="44.20367388230625" lon="10.0828146143954"><ele>162.0</ele><time>2026-04-06T14:50:21Z</time></trkpt><trkpt lat="44.20377733402879" lon="10.082867813005361"><ele>162.0</ele><time>2026-04-06T14:50:22Z</time></trkpt><trkpt lat="44.20388571859929" lon="10.082923170487142"><ele>162.0</ele><time>2026-04-06T14:50:23Z</time></trkpt><trkpt lat="44.20398518772751" lon="10.082974021698242"><ele>162.0</ele><time>2026-04-06T14:50:24Z</time></trkpt><trkpt lat="44.20408757830975" lon="10.083028962935153"><ele>162.0</ele><time>2026-04-06T14:50:25Z</time></trkpt><trkpt lat="44.20418039769529" lon="10.08308468468169"><ele>164.25</ele><time>2026-04-06T14:50:26Z</time></trkpt><trkpt lat="44.204271691928014" lon="10.083160376858066"><ele>166.5</ele><time>2026-04-06T14:50:27Z</time></trkpt><trkpt lat="44.204359814800924" lon="10.083253793573322"><ele>168.75</ele><time>2026-04-06T14:50:28Z</time></trkpt><trkpt lat="44.20445318117779" lon="10.083353090627341"><ele>171.0</ele><time>2026-04-06T14:50:29Z</time></trkpt><trkpt lat="44.204548795283884" lon="10.083446764106373"><ele>171.0</ele><time>2026-04-06T14:50:30Z</time></trkpt><trkpt lat="44.20465669622497" lon="10.083508499138546"><ele>171.0</ele><time>2026-04-06T14:50:31Z</time></trkpt><trkpt lat="44.2047690828323" lon="10.083533913078641"><ele>171.0</ele><time>2026-04-06T14:50:32Z</time></trkpt><trkpt lat="44.20488569241583" lon="10.083554109367032"><ele>171.0</ele><time>2026-04-06T14:50:33Z</time></trkpt><trkpt lat="44.2050090547687" lon="10.083573393239257"><ele>171.5</ele><time>2026-04-06T14:50:34Z</time></trkpt><trkpt lat="44.20512848014326" lon="10.083591818691755"><ele>172.0</ele><time>2026-04-06T14:50:34.999Z</time></trkpt><trkpt lat="44.205247130295426" lon="10.0836076212919"><ele>172.5</ele><time>2026-04-06T14:50:35.999Z</time></trkpt><trkpt lat="44.205371162012426" lon="10.083624846817273"><ele>173.0</ele><time>2026-04-06T14:50:36.999Z</time></trkpt><trkpt lat="44.20549609695268" lon="10.083646735577128"><ele>173.0</ele><time>2026-04-06T14:50:37.999Z</time></trkpt><trkpt lat="44.205626086063056" lon="10.083682071498034"><ele>173.0</ele><time>2026-04-06T14:50:38.999Z</time></trkpt><trkpt lat="44.20575569194398" lon="10.083738668259574"><ele>173.0</ele><time>2026-04-06T14:50:39.999Z</time></trkpt><trkpt lat="44.20588269495266" lon="10.08380219214949"><ele>173.0</ele><time>2026-04-06T14:50:40.999Z</time></trkpt><trkpt lat="44.20600779976788" lon="10.083867665772763"><ele>173.4</ele><time>2026-04-06T14:50:41.999Z</time></trkpt><trkpt lat="44.206120517603985" lon="10.083925337864754"><ele>173.8</ele><time>2026-04-06T14:50:42.999Z</time></trkpt><trkpt lat="44.20622687049037" lon="10.083977858666596"><ele>174.2</ele><time>2026-04-06T14:50:43.999Z</time></trkpt><trkpt lat="44.2063268483774" lon="10.084021230403884"><ele>174.6</ele><time>2026-04-06T14:50:44.999Z</time></trkpt><trkpt lat="44.20642442175693" lon="10.084049791920805"><ele>175.0</ele><time>2026-04-06T14:50:45.999Z</time></trkpt><trkpt lat="44.20652378220371" lon="10.084036095333385"><ele>175.0</ele><time>2026-04-06T14:50:46.999Z</time></trkpt><trkpt lat="44.20661205922033" lon="10.08403171906175"><ele>175.0</ele><time>2026-04-06T14:50:47.999Z</time></trkpt><trkpt lat="44.2067015783581" lon="10.083996938400773"><ele>175.0</ele><time>2026-04-06T14:50:48.999Z</time></trkpt><trkpt lat="44.206788423631714" lon="10.083929181024962"><ele>175.0</ele><time>2026-04-06T14:50:49.999Z</time></trkpt><trkpt lat="44.20685237318948" lon="10.083835634157378"><ele>175.0</ele><time>2026-04-06T14:50:50.999Z</time></trkpt><trkpt lat="44.206908604792204" lon="10.083741250702303"><ele>175.0</ele><time>2026-04-06T14:50:51.999Z</time></trkpt><trkpt lat="44.20690767824216" lon="10.083539692656935"><ele>175.0</ele><time>2026-04-06T14:50:53.999Z</time></trkpt><trkpt lat="44.20686820599525" lon="10.083401217028985"><ele>175.0</ele><time>2026-04-06T14:50:54.999Z</time></trkpt><trkpt lat="44.20680146880991" lon="10.083284076628464"><ele>175.0</ele><time>2026-04-06T14:50:55.999Z</time></trkpt><trkpt lat="44.20672124724113" lon="10.083175100926471"><ele>152.0</ele><time>2026-04-06T14:50:56.999Z</time></trkpt><trkpt lat="44.20593443095173" lon="10.078314079294836"><ele>150.6</ele><time>2026-04-06T14:51:58Z</time></trkpt><trkpt lat="44.20594644379743" lon="10.078168534363147"><ele>149.2</ele><time>2026-04-06T14:51:59Z</time></trkpt><trkpt lat="44.20594739773321" lon="10.078018080807876"><ele>147.8</ele><time>2026-04-06T14:52:00Z</time></trkpt><trkpt lat="44.205930093940935" lon="10.077882629348128"><ele>146.4</ele><time>2026-04-06T14:52:01Z</time></trkpt><trkpt lat="44.20589643989504" lon="10.077742600272641"><ele>145.0</ele><time>2026-04-06T14:52:02Z</time></trkpt><trkpt lat="44.20584597587837" lon="10.077609214569982"><ele>145.0</ele><time>2026-04-06T14:52:03Z</time></trkpt><trkpt lat="44.20579643195293" lon="10.07748132049343"><ele>145.0</ele><time>2026-04-06T14:52:04Z</time></trkpt><trkpt lat="44.205741968686205" lon="10.077346393038749"><ele>145.0</ele><time>2026-04-06T14:52:05Z</time></trkpt><trkpt lat="44.20569118800854" lon="10.07721255024423"><ele>145.0</ele><time>2026-04-06T14:52:06Z</time></trkpt><trkpt lat="44.20564492499072" lon="10.077077289307296"><ele>145.0</ele><time>2026-04-06T14:52:07Z</time></trkpt><trkpt lat="44.205605869921435" lon="10.076933143844126"><ele>151.0</ele><time>2026-04-06T14:52:08Z</time></trkpt><trkpt lat="44.205579542441434" lon="10.076784983014408"><ele>157.0</ele><time>2026-04-06T14:52:09Z</time></trkpt><trkpt lat="44.205565767053315" lon="10.076630531551004"><ele>163.0</ele><time>2026-04-06T14:52:10Z</time></trkpt><trkpt lat="44.205557232184404" lon="10.076477914951152"><ele>169.0</ele><time>2026-04-06T14:52:11Z</time></trkpt><trkpt lat="44.205548139285035" lon="10.076327740234072"><ele>175.0</ele><time>2026-04-06T14:52:12Z</time></trkpt><trkpt lat="44.20554320228675" lon="10.076182109196845"><ele>175.16666666666669</ele><time>2026-04-06T14:52:13Z</time></trkpt><trkpt lat="44.20553838570999" lon="10.076047817212253"><ele>175.33333333333334</ele><time>2026-04-06T14:52:14Z</time></trkpt><trkpt lat="44.205533035241785" lon="10.075926104272922"><ele>175.5</ele><time>2026-04-06T14:52:15Z</time></trkpt><trkpt lat="44.20553037685308" lon="10.075828449220644"><ele>175.66666666666666</ele><time>2026-04-06T14:52:16Z</time></trkpt><trkpt lat="44.20553328567035" lon="10.075709309081565"><ele>175.83333333333331</ele><time>2026-04-06T14:52:18Z</time></trkpt><trkpt lat="44.205551450201455" lon="10.075607055918296"><ele>176.0</ele><time>2026-04-06T14:52:20Z</time></trkpt><trkpt lat="44.20551473363863" lon="10.0754783091689"><ele>174.75</ele><time>2026-04-06T14:52:33Z</time></trkpt><trkpt lat="44.20550017606975" lon="10.075350202788918"><ele>173.5</ele><time>2026-04-06T14:52:34Z</time></trkpt><trkpt lat="44.205488236057725" lon="10.07515006414773"><ele>172.25</ele><time>2026-04-06T14:52:35Z</time></trkpt><trkpt lat="44.20545958333625" lon="10.074936949591168"><ele>171.0</ele><time>2026-04-06T14:52:36Z</time></trkpt><trkpt lat="44.20539387176171" lon="10.074684795289016"><ele>167.25</ele><time>2026-04-06T14:52:37Z</time></trkpt><trkpt lat="44.205322911519964" lon="10.074470026751301"><ele>163.5</ele><time>2026-04-06T14:52:38Z</time></trkpt><trkpt lat="44.20527316468477" lon="10.07428139702299"><ele>159.75</ele><time>2026-04-06T14:52:39Z</time></trkpt><trkpt lat="44.2052269923713" lon="10.074105965348275"><ele>156.0</ele><time>2026-04-06T14:52:40Z</time></trkpt><trkpt lat="44.2051793527396" lon="10.073927993343132"><ele>152.25</ele><time>2026-04-06T14:52:41Z</time></trkpt><trkpt lat="44.20512515351849" lon="10.073743679002256"><ele>148.5</ele><time>2026-04-06T14:52:42Z</time></trkpt><trkpt lat="44.20507360665406" lon="10.073567994062921"><ele>144.75</ele><time>2026-04-06T14:52:42.999Z</time></trkpt><trkpt lat="44.205022356303495" lon="10.073386240999529"><ele>141.0</ele><time>2026-04-06T14:52:43.999Z</time></trkpt><trkpt lat="44.204971617618654" lon="10.073200458450584"><ele>139.0</ele><time>2026-04-06T14:52:44.999Z</time></trkpt><trkpt lat="44.204923841782524" lon="10.073025285887768"><ele>137.0</ele><time>2026-04-06T14:52:45.999Z</time></trkpt><trkpt lat="44.20487441017541" lon="10.072844782206372"><ele>135.0</ele><time>2026-04-06T14:52:46.999Z</time></trkpt><trkpt lat="44.20482549063152" lon="10.072672500948919"><ele>133.0</ele><time>2026-04-06T14:52:47.999Z</time></trkpt><trkpt lat="44.20477237165835" lon="10.072514765352441"><ele>133.75</ele><time>2026-04-06T14:52:48.999Z</time></trkpt><trkpt lat="44.2047034543144" lon="10.07236184125818"><ele>134.5</ele><time>2026-04-06T14:52:49.999Z</time></trkpt><trkpt lat="44.20461321485225" lon="10.072214582645891"><ele>135.25</ele><time>2026-04-06T14:52:50.999Z</time></trkpt><trkpt lat="44.20452534780928" lon="10.072088230416067"><ele>136.0</ele><time>2026-04-06T14:52:51.999Z</time></trkpt><trkpt lat="44.20443965556099" lon="10.071967809221775"><ele>136.0</ele><time>2026-04-06T14:52:52.999Z</time></trkpt><trkpt lat="44.2043498340899" lon="10.071833914432757"><ele>136.0</ele><time>2026-04-06T14:52:53.999Z</time></trkpt><trkpt lat="44.20425951456232" lon="10.071690864394316"><ele>136.0</ele><time>2026-04-06T14:52:54.999Z</time></trkpt><trkpt lat="44.204163986815715" lon="10.071542976464514"><ele>136.0</ele><time>2026-04-06T14:52:55.999Z</time></trkpt><trkpt lat="44.20407488475802" lon="10.071412003880344"><ele>119.0</ele><time>2026-04-06T14:52:56.999Z</time></trkpt><trkpt lat="44.20462758299124" lon="10.065898251922965"><ele>118.99999999999999</ele><time>2026-04-06T14:53:58Z</time></trkpt><trkpt lat="44.204644749630134" lon="10.065785612228053"><ele>119.0</ele><time>2026-04-06T14:53:59Z</time></trkpt><trkpt lat="44.20464252263253" lon="10.065664610431849"><ele>119.0</ele><time>2026-04-06T14:54:00Z</time></trkpt><trkpt lat="44.20463141589773" lon="10.065536631723848"><ele>119.0</ele><time>2026-04-06T14:54:01Z</time></trkpt><trkpt lat="44.20462378803193" lon="10.06541020960661"><ele>118.99999999999999</ele><time>2026-04-06T14:54:02Z</time></trkpt><trkpt lat="44.20461250097019" lon="10.065291155741994"><ele>119.0</ele><time>2026-04-06T14:54:03Z</time></trkpt><trkpt lat="44.20459139291263" lon="10.065185349784914"><ele>119.66666666666666</ele><time>2026-04-06T14:54:04Z</time></trkpt><trkpt lat="44.20455093784274" lon="10.065092125580131"><ele>120.33333333333333</ele><time>2026-04-06T14:54:05Z</time></trkpt><trkpt lat="44.20449121965949" lon="10.064995692324624"><ele>121.0</ele><time>2026-04-06T14:54:06Z</time></trkpt><trkpt lat="44.20442857640673" lon="10.06490154989547"><ele>121.66666666666666</ele><time>2026-04-06T14:54:07Z</time></trkpt><trkpt lat="44.20436064571795" lon="10.064808939843692"><ele>122.33333333333333</ele><time>2026-04-06T14:54:08Z</time></trkpt><trkpt lat="44.20430026476114" lon="10.064719414687161"><ele>123.0</ele><time>2026-04-06T14:54:09Z</time></trkpt><trkpt lat="44.204246314713345" lon="10.064633702312445"><ele>121.83333333333333</ele><time>2026-04-06T14:54:10Z</time></trkpt><trkpt lat="44.20419312035237" lon="10.064553670928255"><ele>120.66666666666666</ele><time>2026-04-06T14:54:11Z</time></trkpt><trkpt lat="44.20413980401183" lon="10.064471778474548"><ele>119.5</ele><time>2026-04-06T14:54:12Z</time></trkpt><trkpt lat="44.20408267472176" lon="10.064389302644381"><ele>118.33333333333333</ele><time>2026-04-06T14:54:13Z</time></trkpt><trkpt lat="44.204021496809744" lon="10.064300958487038"><ele>117.16666666666666</ele><time>2026-04-06T14:54:14Z</time></trkpt><trkpt lat="44.20396064140128" lon="10.064209606733007"><ele>116.0</ele><time>2026-04-06T14:54:15Z</time></trkpt><trkpt lat="44.2038985509456" lon="10.0641140454866"><ele>117.19999999999999</ele><time>2026-04-06T14:54:16Z</time></trkpt><trkpt lat="44.20383633882852" lon="10.064010771054123"><ele>118.39999999999999</ele><time>2026-04-06T14:54:17Z</time></trkpt><trkpt lat="44.203775694438846" lon="10.063901751880682"><ele>119.6</ele><time>2026-04-06T14:54:18Z</time></trkpt><trkpt lat="44.20371219026401" lon="10.063784624362384"><ele>120.8</ele><time>2026-04-06T14:54:19Z</time></trkpt><trkpt lat="44.2036490957806" lon="10.063659931531452"><ele>122.0</ele><time>2026-04-06T14:54:20Z</time></trkpt><trkpt lat="44.20358199504905" lon="10.063535135487912"><ele>122.0</ele><time>2026-04-06T14:54:21Z</time></trkpt><trkpt lat="44.203519927949856" lon="10.063400763095185"><ele>121.99999999999999</ele><time>2026-04-06T14:54:22Z</time></trkpt><trkpt lat="44.20346400951254" lon="10.063259408881121"><ele>121.99999999999999</ele><time>2026-04-06T14:54:23Z</time></trkpt><trkpt lat="44.203401346993765" lon="10.063147104707141"><ele>122.0</ele><time>2026-04-06T14:54:24Z</time></trkpt><trkpt lat="44.203340546007574" lon="10.063016851778029"><ele>122.0</ele><time>2026-04-06T14:54:25Z</time></trkpt><trkpt lat="44.203291739166104" lon="10.06288052270923"><ele>121.0</ele><time>2026-04-06T14:54:26Z</time></trkpt><trkpt lat="44.20325966429457" lon="10.062754598739273"><ele>119.99999999999999</ele><time>2026-04-06T14:54:27Z</time></trkpt><trkpt lat="44.20322925808012" lon="10.06263700809486"><ele>118.99999999999999</ele><time>2026-04-06T14:54:28Z</time></trkpt><trkpt lat="44.20319110983919" lon="10.062514730115977"><ele>118.0</ele><time>2026-04-06T14:54:29Z</time></trkpt><trkpt lat="44.20314673163076" lon="10.062394007417648"><ele>117.0</ele><time>2026-04-06T14:54:30Z</time></trkpt><trkpt lat="44.203105218166414" lon="10.062275522630985"><ele>117.0</ele><time>2026-04-06T14:54:31Z</time></trkpt><trkpt lat="44.203060857183175" lon="10.062152306915188"><ele>116.99999999999999</ele><time>2026-04-06T14:54:32Z</time></trkpt><trkpt lat="44.203013400289194" lon="10.062030177839215"><ele>116.99999999999999</ele><time>2026-04-06T14:54:33Z</time></trkpt><trkpt lat="44.202963680460364" lon="10.061901828621936"><ele>117.0</ele><time>2026-04-06T14:54:34Z</time></trkpt><trkpt lat="44.202913861238876" lon="10.061770644744945"><ele>117.0</ele><time>2026-04-06T14:54:35Z</time></trkpt><trkpt lat="44.202864952976356" lon="10.06163366049508"><ele>118.8</ele><time>2026-04-06T14:54:36Z</time></trkpt><trkpt lat="44.20281938100391" lon="10.06149934917605"><ele>120.6</ele><time>2026-04-06T14:54:37Z</time></trkpt><trkpt lat="44.202778879543025" lon="10.061365199158042"><ele>122.39999999999999</ele><time>2026-04-06T14:54:38Z</time></trkpt><trkpt lat="44.20273647202631" lon="10.06122743618876"><ele>124.19999999999999</ele><time>2026-04-06T14:54:39Z</time></trkpt><trkpt lat="44.20268577334113" lon="10.061097570689638"><ele>126.0</ele><time>2026-04-06T14:54:40Z</time></trkpt><trkpt lat="44.2026384781571" lon="10.060966172098986"><ele>126.0</ele><time>2026-04-06T14:54:41Z</time></trkpt><trkpt lat="44.202592869847756" lon="10.06083854512723"><ele>126.0</ele><time>2026-04-06T14:54:42Z</time></trkpt><trkpt lat="44.20254617684279" lon="10.060711042488977"><ele>126.0</ele><time>2026-04-06T14:54:43Z</time></trkpt><trkpt lat="44.202495407620546" lon="10.060580726846458"><ele>126.0</ele><time>2026-04-06T14:54:44Z</time></trkpt><trkpt lat="44.20244261671327" lon="10.060451132111435"><ele>126.0</ele><time>2026-04-06T14:54:45Z</time></trkpt><trkpt lat="44.20238597344902" lon="10.06033429315723"><ele>126.8</ele><time>2026-04-06T14:54:46Z</time></trkpt><trkpt lat="44.202326819525446" lon="10.060217013356612"><ele>127.6</ele><time>2026-04-06T14:54:46.999Z</time></trkpt><trkpt lat="44.20227013114291" lon="10.06009243435202"><ele>128.4</ele><time>2026-04-06T14:54:47.999Z</time></trkpt><trkpt lat="44.202210417584986" lon="10.059973457688494"><ele>129.2</ele><time>2026-04-06T14:54:48.999Z</time></trkpt><trkpt lat="44.20215347900643" lon="10.059853610035121"><ele>130.0</ele><time>2026-04-06T14:54:49.999Z</time></trkpt><trkpt lat="44.202098960221555" lon="10.059733748876166"><ele>130.0</ele><time>2026-04-06T14:54:50.999Z</time></trkpt><trkpt lat="44.20204086588696" lon="10.059615138268873"><ele>130.0</ele><time>2026-04-06T14:54:51.999Z</time></trkpt><trkpt lat="44.20197628177455" lon="10.059502555533156"><ele>130.0</ele><time>2026-04-06T14:54:52.999Z</time></trkpt><trkpt lat="44.201909456527154" lon="10.059391523530588"><ele>130.0</ele><time>2026-04-06T14:54:53.999Z</time></trkpt><trkpt lat="44.201836529797525" lon="10.05928564237864"><ele>130.0</ele><time>2026-04-06T14:54:54.999Z</time></trkpt><trkpt lat="44.201760324856004" lon="10.059182299014832"><ele>121.0</ele><time>2026-04-06T14:54:55.999Z</time></trkpt><trkpt lat="44.201676544145315" lon="10.059084218101903"><ele>112.0</ele><time>2026-04-06T14:54:56.999Z</time></trkpt><trkpt lat="44.20021822494074" lon="10.050549468274546"><ele>112.0</ele><time>2026-04-06T14:55:58Z</time></trkpt><trkpt lat="44.20017703839301" lon="10.050429224549186"><ele>111.99999999999999</ele><time>2026-04-06T14:55:59Z</time></trkpt><trkpt lat="44.20012787237984" lon="10.050308463813051"><ele>111.99999999999999</ele><time>2026-04-06T14:56:00Z</time></trkpt><trkpt lat="44.2000661967338" lon="10.050201984621893"><ele>112.0</ele><time>2026-04-06T14:56:01Z</time></trkpt><trkpt lat="44.19997715287279" lon="10.050130045517507"><ele>112.0</ele><time>2026-04-06T14:56:02Z</time></trkpt><trkpt lat="44.19987551394831" lon="10.050075582666803"><ele>111.0</ele><time>2026-04-06T14:56:03Z</time></trkpt><trkpt lat="44.199782123723345" lon="10.050026624564142"><ele>109.99999999999999</ele><time>2026-04-06T14:56:04Z</time></trkpt><trkpt lat="44.199700744297914" lon="10.049965505325186"><ele>108.99999999999999</ele><time>2026-04-06T14:56:05Z</time></trkpt><trkpt lat="44.1996177752215" lon="10.049888376122832"><ele>108.0</ele><time>2026-04-06T14:56:06Z</time></trkpt><trkpt lat="44.19953193485401" lon="10.049800504545043"><ele>107.0</ele><time>2026-04-06T14:56:07Z</time></trkpt><trkpt lat="44.19944385470664" lon="10.049700334948108"><ele>106.5</ele><time>2026-04-06T14:56:08Z</time></trkpt><trkpt lat="44.19935893166973" lon="10.049584699861654"><ele>106.0</ele><time>2026-04-06T14:56:09Z</time></trkpt><trkpt lat="44.199280964546766" lon="10.049457659806022"><ele>105.5</ele><time>2026-04-06T14:56:10Z</time></trkpt><trkpt lat="44.19921000635809" lon="10.049315824460468"><ele>105.0</ele><time>2026-04-06T14:56:11Z</time></trkpt><trkpt lat="44.199143686547416" lon="10.049163825125293"><ele>105.25</ele><time>2026-04-06T14:56:12Z</time></trkpt><trkpt lat="44.199087464869486" lon="10.049010194474782"><ele>105.5</ele><time>2026-04-06T14:56:13Z</time></trkpt><trkpt lat="44.199042123731424" lon="10.048867271504447"><ele>105.75</ele><time>2026-04-06T14:56:14Z</time></trkpt><trkpt lat="44.19899703214577" lon="10.048720028167876"><ele>106.0</ele><time>2026-04-06T14:56:15Z</time></trkpt><trkpt lat="44.19895571924415" lon="10.048565902426182"><ele>105.5</ele><time>2026-04-06T14:56:16Z</time></trkpt><trkpt lat="44.19891114463531" lon="10.048402136433536"><ele>105.0</ele><time>2026-04-06T14:56:17Z</time></trkpt><trkpt lat="44.19886249001857" lon="10.04823214530439"><ele>104.5</ele><time>2026-04-06T14:56:18Z</time></trkpt><trkpt lat="44.19881292939501" lon="10.048061696385766"><ele>104.0</ele><time>2026-04-06T14:56:19Z</time></trkpt><trkpt lat="44.1987666448458" lon="10.047900104122384"><ele>103.75</ele><time>2026-04-06T14:56:20Z</time></trkpt><trkpt lat="44.19872896904024" lon="10.04774853097772"><ele>103.5</ele><time>2026-04-06T14:56:21Z</time></trkpt><trkpt lat="44.19868544007022" lon="10.047596992203555"><ele>103.25</ele><time>2026-04-06T14:56:22Z</time></trkpt><trkpt lat="44.19864250851375" lon="10.047443170525327"><ele>103.0</ele><time>2026-04-06T14:56:23Z</time></trkpt><trkpt lat="44.19859845790623" lon="10.04728342214761"><ele>103.0</ele><time>2026-04-06T14:56:24Z</time></trkpt><trkpt lat="44.19855663685249" lon="10.047120249876379"><ele>103.0</ele><time>2026-04-06T14:56:25Z</time></trkpt><trkpt lat="44.19851770863247" lon="10.04696864763017"><ele>103.0</ele><time>2026-04-06T14:56:26Z</time></trkpt><trkpt lat="44.19847973013401" lon="10.046824972615102"><ele>103.0</ele><time>2026-04-06T14:56:27Z</time></trkpt><trkpt lat="44.198443948029265" lon="10.046676339956447"><ele>103.0</ele><time>2026-04-06T14:56:28Z</time></trkpt><trkpt lat="44.198408512613256" lon="10.046519416802736"><ele>103.0</ele><time>2026-04-06T14:56:29Z</time></trkpt><trkpt lat="44.19837909134426" lon="10.04635555960099"><ele>103.0</ele><time>2026-04-06T14:56:30Z</time></trkpt><trkpt lat="44.19835736256005" lon="10.046187786669856"><ele>103.0</ele><time>2026-04-06T14:56:31Z</time></trkpt><trkpt lat="44.198344905626605" lon="10.046015938368095"><ele>103.0</ele><time>2026-04-06T14:56:32Z</time></trkpt><trkpt lat="44.19834325053884" lon="10.04583481293854"><ele>103.0</ele><time>2026-04-06T14:56:33Z</time></trkpt><trkpt lat="44.198346496735965" lon="10.045653791288242"><ele>103.0</ele><time>2026-04-06T14:56:34Z</time></trkpt><trkpt lat="44.198362213433064" lon="10.045469682019064"><ele>103.0</ele><time>2026-04-06T14:56:35Z</time></trkpt><trkpt lat="44.1983774813951" lon="10.045283326952141"><ele>103.25</ele><time>2026-04-06T14:56:36Z</time></trkpt><trkpt lat="44.19839433344492" lon="10.045112053142228"><ele>103.5</ele><time>2026-04-06T14:56:37Z</time></trkpt><trkpt lat="44.19840512928038" lon="10.04493683490664"><ele>103.75</ele><time>2026-04-06T14:56:38Z</time></trkpt><trkpt lat="44.198400408750096" lon="10.044763309328138"><ele>104.0</ele><time>2026-04-06T14:56:39Z</time></trkpt><trkpt lat="44.19838607492425" lon="10.044586231938327"><ele>104.0</ele><time>2026-04-06T14:56:40Z</time></trkpt><trkpt lat="44.19836421710842" lon="10.044415556928532"><ele>104.0</ele><time>2026-04-06T14:56:41Z</time></trkpt><trkpt lat="44.19834076151587" lon="10.044235073529306"><ele>104.0</ele><time>2026-04-06T14:56:42Z</time></trkpt><trkpt lat="44.19831687176006" lon="10.044057706741944"><ele>104.0</ele><time>2026-04-06T14:56:43Z</time></trkpt><trkpt lat="44.19829404057115" lon="10.043886079069093"><ele>104.0</ele><time>2026-04-06T14:56:44Z</time></trkpt><trkpt lat="44.198277045952366" lon="10.04371931422787"><ele>104.0</ele><time>2026-04-06T14:56:44.999Z</time></trkpt><trkpt lat="44.19826497739958" lon="10.043547447619924"><ele>104.0</ele><time>2026-04-06T14:56:45.999Z</time></trkpt><trkpt lat="44.19826734555184" lon="10.043364451937254"><ele>104.0</ele><time>2026-04-06T14:56:46.999Z</time></trkpt><trkpt lat="44.19827980020637" lon="10.043182875990858"><ele>104.0</ele><time>2026-04-06T14:56:47.999Z</time></trkpt><trkpt lat="44.198304377129915" lon="10.043002464714778"><ele>104.0</ele><time>2026-04-06T14:56:48.999Z</time></trkpt><trkpt lat="44.198340740585266" lon="10.042833905699283"><ele>104.0</ele><time>2026-04-06T14:56:49.999Z</time></trkpt><trkpt lat="44.198379604504034" lon="10.042665403435967"><ele>104.0</ele><time>2026-04-06T14:56:50.999Z</time></trkpt><trkpt lat="44.198422974519495" lon="10.042498354158246"><ele>103.0</ele><time>2026-04-06T14:56:51.999Z</time></trkpt><trkpt lat="44.198470885062996" lon="10.042314310093893"><ele>102.0</ele><time>2026-04-06T14:56:52.999Z</time></trkpt><trkpt lat="44.19852144209218" lon="10.042128562869795"><ele>101.0</ele><time>2026-04-06T14:56:53.999Z</time></trkpt><trkpt lat="44.198572290057946" lon="10.041934302815998"><ele>100.0</ele><time>2026-04-06T14:56:54.999Z</time></trkpt><trkpt lat="44.19862388895982" lon="10.041744447146312"><ele>100.5</ele><time>2026-04-06T14:56:55.999Z</time></trkpt><trkpt lat="44.198672119855395" lon="10.041556060629036"><ele>101.0</ele><time>2026-04-06T14:56:56.999Z</time></trkpt><trkpt lat="44.20281128317561" lon="10.03126924692247"><ele>99.25</ele><time>2026-04-06T14:57:58Z</time></trkpt><trkpt lat="44.20286419459601" lon="10.031116970426087"><ele>97.5</ele><time>2026-04-06T14:57:59Z</time></trkpt><trkpt lat="44.20291739869551" lon="10.030959484195998"><ele>95.75</ele><time>2026-04-06T14:58:00Z</time></trkpt><trkpt lat="44.202969456027226" lon="10.030804367848095"><ele>94.0</ele><time>2026-04-06T14:58:01Z</time></trkpt><trkpt lat="44.20302150161185" lon="10.030649731644468"><ele>93.80000000000001</ele><time>2026-04-06T14:58:02Z</time></trkpt><trkpt lat="44.20306824630031" lon="10.030502358881039"><ele>93.60000000000001</ele><time>2026-04-06T14:58:03Z</time></trkpt><trkpt lat="44.20312106606925" lon="10.030357503684652"><ele>93.4</ele><time>2026-04-06T14:58:04Z</time></trkpt><trkpt lat="44.20317192463066" lon="10.030231426893835"><ele>93.2</ele><time>2026-04-06T14:58:05Z</time></trkpt><trkpt lat="44.20321463698085" lon="10.030094581341663"><ele>93.0</ele><time>2026-04-06T14:58:06Z</time></trkpt><trkpt lat="44.203257010947205" lon="10.029952835992063"><ele>93.0</ele><time>2026-04-06T14:58:07Z</time></trkpt><trkpt lat="44.20329853919057" lon="10.029813799881087"><ele>93.0</ele><time>2026-04-06T14:58:08Z</time></trkpt><trkpt lat="44.203323735385624" lon="10.029676742930647"><ele>93.0</ele><time>2026-04-06T14:58:09Z</time></trkpt><trkpt lat="44.20332067923393" lon="10.02954468979869"><ele>93.0</ele><time>2026-04-06T14:58:10Z</time></trkpt><trkpt lat="44.20329215458311" lon="10.029404201674186"><ele>93.0</ele><time>2026-04-06T14:58:11Z</time></trkpt><trkpt lat="44.203240935273854" lon="10.029257510617729"><ele>91.75</ele><time>2026-04-06T14:58:12Z</time></trkpt><trkpt lat="44.20315438142202" lon="10.02913842158447"><ele>90.5</ele><time>2026-04-06T14:58:13Z</time></trkpt><trkpt lat="44.20304107544297" lon="10.029038052080402"><ele>89.25</ele><time>2026-04-06T14:58:14Z</time></trkpt><trkpt lat="44.20293019408429" lon="10.028964023713518"><ele>88.0</ele><time>2026-04-06T14:58:15Z</time></trkpt><trkpt lat="44.202843617119484" lon="10.028877935088765"><ele>88.0</ele><time>2026-04-06T14:58:16Z</time></trkpt><trkpt lat="44.20275637485905" lon="10.028797691723645"><ele>88.0</ele><time>2026-04-06T14:58:17Z</time></trkpt><trkpt lat="44.20265869287949" lon="10.028725850936745"><ele>88.0</ele><time>2026-04-06T14:58:18Z</time></trkpt><trkpt lat="44.20257869898583" lon="10.02864565728711"><ele>88.0</ele><time>2026-04-06T14:58:19Z</time></trkpt><trkpt lat="44.20249145787209" lon="10.028564232643557"><ele>88.0</ele><time>2026-04-06T14:58:20Z</time></trkpt><trkpt lat="44.202387688097225" lon="10.028487588111785"><ele>90.5</ele><time>2026-04-06T14:58:21Z</time></trkpt><trkpt lat="44.20228080209665" lon="10.028404596689029"><ele>93.0</ele><time>2026-04-06T14:58:22Z</time></trkpt><trkpt lat="44.202171183068295" lon="10.028308520674774"><ele>95.5</ele><time>2026-04-06T14:58:23Z</time></trkpt><trkpt lat="44.20208973256532" lon="10.028188538549323"><ele>98.0</ele><time>2026-04-06T14:58:24Z</time></trkpt><trkpt lat="44.20203582638294" lon="10.028050651786671"><ele>99.25</ele><time>2026-04-06T14:58:25Z</time></trkpt><trkpt lat="44.202017024726594" lon="10.02789463355124"><ele>100.5</ele><time>2026-04-06T14:58:26Z</time></trkpt><trkpt lat="44.20202318378225" lon="10.027733965023991"><ele>101.75</ele><time>2026-04-06T14:58:27Z</time></trkpt><trkpt lat="44.20207430392326" lon="10.02757959752548"><ele>103.0</ele><time>2026-04-06T14:58:28Z</time></trkpt><trkpt lat="44.20211580252253" lon="10.027410932185912"><ele>105.5</ele><time>2026-04-06T14:58:29Z</time></trkpt><trkpt lat="44.20216074028392" lon="10.0272396760907"><ele>108.0</ele><time>2026-04-06T14:58:30Z</time></trkpt><trkpt lat="44.20220631413565" lon="10.027069300635477"><ele>110.5</ele><time>2026-04-06T14:58:31Z</time></trkpt><trkpt lat="44.20224775171975" lon="10.02690343380591"><ele>113.0</ele><time>2026-04-06T14:58:32Z</time></trkpt><trkpt lat="44.202273487498026" lon="10.026738799894012"><ele>112.75</ele><time>2026-04-06T14:58:33Z</time></trkpt><trkpt lat="44.202299592285954" lon="10.02657849326128"><ele>112.5</ele><time>2026-04-06T14:58:34Z</time></trkpt><trkpt lat="44.20231412584111" lon="10.026417612717621"><ele>112.25</ele><time>2026-04-06T14:58:35Z</time></trkpt><trkpt lat="44.20230439078799" lon="10.026247289244797"><ele>112.0</ele><time>2026-04-06T14:58:36Z</time></trkpt><trkpt lat="44.20226003421179" lon="10.026065593902578"><ele>112.0</ele><time>2026-04-06T14:58:37Z</time></trkpt><trkpt lat="44.20221783455825" lon="10.02588224825989"><ele>112.0</ele><time>2026-04-06T14:58:38Z</time></trkpt><trkpt lat="44.20217859056685" lon="10.025704326867713"><ele>112.0</ele><time>2026-04-06T14:58:39Z</time></trkpt><trkpt lat="44.20213979269613" lon="10.025527163314647"><ele>112.0</ele><time>2026-04-06T14:58:40Z</time></trkpt><trkpt lat="44.202104211799416" lon="10.025354716625639"><ele>111.0</ele><time>2026-04-06T14:58:41Z</time></trkpt><trkpt lat="44.20206874821691" lon="10.025185614034937"><ele>110.0</ele><time>2026-04-06T14:58:42Z</time></trkpt><trkpt lat="44.20203244590654" lon="10.02500948449979"><ele>109.0</ele><time>2026-04-06T14:58:43Z</time></trkpt><trkpt lat="44.202000009257375" lon="10.024858236981585"><ele>108.0</ele><time>2026-04-06T14:58:44Z</time></trkpt><trkpt lat="44.20196998588006" lon="10.024709185232142"><ele>107.0</ele><time>2026-04-06T14:58:45Z</time></trkpt><trkpt lat="44.201941623887315" lon="10.02455791722122"><ele>106.0</ele><time>2026-04-06T14:58:46Z</time></trkpt><trkpt lat="44.20190927858583" lon="10.02439895181649"><ele>105.0</ele><time>2026-04-06T14:58:46.999Z</time></trkpt><trkpt lat="44.20187881795077" lon="10.024237831510545"><ele>104.0</ele><time>2026-04-06T14:58:47.999Z</time></trkpt><trkpt lat="44.20184381839095" lon="10.02407247577688"><ele>102.75</ele><time>2026-04-06T14:58:48.999Z</time></trkpt><trkpt lat="44.20180701232865" lon="10.023900843713099"><ele>101.5</ele><time>2026-04-06T14:58:49.999Z</time></trkpt><trkpt lat="44.201769188707075" lon="10.023725140130248"><ele>100.25</ele><time>2026-04-06T14:58:50.999Z</time></trkpt><trkpt lat="44.2017376594397" lon="10.023557793501892"><ele>99.0</ele><time>2026-04-06T14:58:51.999Z</time></trkpt><trkpt lat="44.201704464852575" lon="10.023389382467265"><ele>98.25</ele><time>2026-04-06T14:58:52.999Z</time></trkpt><trkpt lat="44.201673597715974" lon="10.02321861452527"><ele>97.5</ele><time>2026-04-06T14:58:53.999Z</time></trkpt><trkpt lat="44.20164421673277" lon="10.023056283428005"><ele>96.75</ele><time>2026-04-06T14:58:54.999Z</time></trkpt><trkpt lat="44.201614563110944" lon="10.02288007460564"><ele>96.0</ele><time>2026-04-06T14:58:55.999Z</time></trkpt><trkpt lat="44.20158852529104" lon="10.022704346770208"><ele>85.0</ele><time>2026-04-06T14:58:56.999Z</time></trkpt><trkpt lat="44.20366224670919" lon="10.014602525871766"><ele>85.0</ele><time>2026-04-06T14:59:57.998Z</time></trkpt><trkpt lat="44.20368335385475" lon="10.01441231896439"><ele>85.0</ele><time>2026-04-06T14:59:58.998Z</time></trkpt><trkpt lat="44.20370361588539" lon="10.014234795886273"><ele>85.0</ele><time>2026-04-06T14:59:59.998Z</time></trkpt><trkpt lat="44.203717920536334" lon="10.014069457433722"><ele>85.0</ele><time>2026-04-06T15:00:01Z</time></trkpt><trkpt lat="44.20373084536699" lon="10.013914082552708"><ele>84.83333333333333</ele><time>2026-04-06T15:00:02Z</time></trkpt><trkpt lat="44.203748966748705" lon="10.01377794134608"><ele>84.66666666666666</ele><time>2026-04-06T15:00:03Z</time></trkpt><trkpt lat="44.20375979957836" lon="10.013655635443612"><ele>84.5</ele><time>2026-04-06T15:00:04Z</time></trkpt><trkpt lat="44.20376893388242" lon="10.013565201868056"><ele>84.33333333333333</ele><time>2026-04-06T15:00:05Z</time></trkpt><trkpt lat="44.20377224334978" lon="10.013428608754186"><ele>84.16666666666667</ele><time>2026-04-06T15:00:07Z</time></trkpt><trkpt lat="44.20371579135475" lon="10.013362627527554"><ele>84.0</ele><time>2026-04-06T15:00:09Z</time></trkpt><trkpt lat="44.203967644290806" lon="10.009906150796157"><ele>83.66666666666667</ele><time>2026-04-06T15:14:57.999Z</time></trkpt><trkpt lat="44.20392974006645" lon="10.009688736850421"><ele>83.33333333333334</ele><time>2026-04-06T15:14:58.999Z</time></trkpt><trkpt lat="44.20389105862933" lon="10.009471054146653"><ele>83.0</ele><time>2026-04-06T15:14:59.999Z</time></trkpt><trkpt lat="44.20385067880108" lon="10.009259018223844"><ele>83.33333333333334</ele><time>2026-04-06T15:15:00.999Z</time></trkpt><trkpt lat="44.20381586564231" lon="10.009039768913802"><ele>83.66666666666667</ele><time>2026-04-06T15:15:01.999Z</time></trkpt><trkpt lat="44.20377652706274" lon="10.008814341835922"><ele>84.0</ele><time>2026-04-06T15:15:02.999Z</time></trkpt><trkpt lat="44.20373810882431" lon="10.008594293093733"><ele>84.0</ele><time>2026-04-06T15:15:03.999Z</time></trkpt><trkpt lat="44.20369942624969" lon="10.008371212951435"><ele>84.0</ele><time>2026-04-06T15:15:04.999Z</time></trkpt><trkpt lat="44.20366036012847" lon="10.008145002678972"><ele>84.0</ele><time>2026-04-06T15:15:05.999Z</time></trkpt><trkpt lat="44.203621192156504" lon="10.007913046869847"><ele>83.33333333333333</ele><time>2026-04-06T15:15:06.999Z</time></trkpt><trkpt lat="44.203580132065326" lon="10.007684179716922"><ele>82.66666666666666</ele><time>2026-04-06T15:15:07.999Z</time></trkpt><trkpt lat="44.203540588893816" lon="10.007451720792831"><ele>82.0</ele><time>2026-04-06T15:15:08.999Z</time></trkpt><trkpt lat="44.20349639936469" lon="10.007207472393981"><ele>81.33333333333333</ele><time>2026-04-06T15:15:09.999Z</time></trkpt><trkpt lat="44.203452150855654" lon="10.00696756396499"><ele>80.66666666666667</ele><time>2026-04-06T15:15:10.999Z</time></trkpt><trkpt lat="44.20340773881979" lon="10.006717400347748"><ele>80.0</ele><time>2026-04-06T15:15:11.999Z</time></trkpt><trkpt lat="44.20336598807786" lon="10.006469013019954"><ele>79.66666666666667</ele><time>2026-04-06T15:15:12.999Z</time></trkpt><trkpt lat="44.20332286490601" lon="10.006226228169748"><ele>79.33333333333333</ele><time>2026-04-06T15:15:13.999Z</time></trkpt><trkpt lat="44.20327873632432" lon="10.005992530565786"><ele>79.0</ele><time>2026-04-06T15:15:14.999Z</time></trkpt><trkpt lat="44.2032335396079" lon="10.00574185545544"><ele>79.0</ele><time>2026-04-06T15:15:15.999Z</time></trkpt><trkpt lat="44.20318910436153" lon="10.005480863554503"><ele>79.0</ele><time>2026-04-06T15:15:16.999Z</time></trkpt><trkpt lat="44.203144198971124" lon="10.005240336863752"><ele>79.0</ele><time>2026-04-06T15:15:17.999Z</time></trkpt><trkpt lat="44.20310246802731" lon="10.00499278940012"><ele>81.33333333333333</ele><time>2026-04-06T15:15:18.999Z</time></trkpt><trkpt lat="44.203056559521045" lon="10.004745915145422"><ele>83.66666666666667</ele><time>2026-04-06T15:15:19.999Z</time></trkpt><trkpt lat="44.20301475313733" lon="10.004511182672898"><ele>86.0</ele><time>2026-04-06T15:15:20.998Z</time></trkpt><trkpt lat="44.20298040134018" lon="10.004287870047287"><ele>85.66666666666667</ele><time>2026-04-06T15:15:21.998Z</time></trkpt><trkpt lat="44.20294665559602" lon="10.004085637859715"><ele>85.33333333333333</ele><time>2026-04-06T15:15:22.998Z</time></trkpt><trkpt lat="44.202914636323676" lon="10.00387280570673"><ele>85.0</ele><time>2026-04-06T15:15:23.998Z</time></trkpt><trkpt lat="44.202876510270954" lon="10.003661365332425"><ele>85.0</ele><time>2026-04-06T15:15:24.998Z</time></trkpt><trkpt lat="44.2028428469863" lon="10.003447308497435"><ele>85.0</ele><time>2026-04-06T15:15:25.998Z</time></trkpt><trkpt lat="44.202815022776264" lon="10.003226301304018"><ele>85.0</ele><time>2026-04-06T15:15:26.998Z</time></trkpt><trkpt lat="44.20280446012712" lon="10.003001225307147"><ele>84.33333333333333</ele><time>2026-04-06T15:15:27.998Z</time></trkpt><trkpt lat="44.20281415482535" lon="10.002794125682904"><ele>83.66666666666667</ele><time>2026-04-06T15:15:28.998Z</time></trkpt><trkpt lat="44.20282664919267" lon="10.002581764635307"><ele>83.0</ele><time>2026-04-06T15:15:29.998Z</time></trkpt><trkpt lat="44.20285165925518" lon="10.002377212214052"><ele>83.0</ele><time>2026-04-06T15:15:30.998Z</time></trkpt><trkpt lat="44.20288572978333" lon="10.0021576422703"><ele>83.0</ele><time>2026-04-06T15:15:31.998Z</time></trkpt><trkpt lat="44.20292603247727" lon="10.00195264470569"><ele>83.0</ele><time>2026-04-06T15:15:32.998Z</time></trkpt><trkpt lat="44.20296473750996" lon="10.001748603298388"><ele>82.75</ele><time>2026-04-06T15:15:33.998Z</time></trkpt><trkpt lat="44.20299576838154" lon="10.00156089487156"><ele>82.5</ele><time>2026-04-06T15:15:34.999Z</time></trkpt><trkpt lat="44.20302479691395" lon="10.001380220620543"><ele>82.25</ele><time>2026-04-06T15:15:35.999Z</time></trkpt><trkpt lat="44.203053624909096" lon="10.001218899881978"><ele>82.0</ele><time>2026-04-06T15:15:36.999Z</time></trkpt><trkpt lat="44.20308100695153" lon="10.001080500875586"><ele>82.0</ele><time>2026-04-06T15:15:37.999Z</time></trkpt><trkpt lat="44.20310905886664" lon="10.000945813163758"><ele>82.0</ele><time>2026-04-06T15:15:38.999Z</time></trkpt><trkpt lat="44.20314460862579" lon="10.000789933311362"><ele>82.0</ele><time>2026-04-06T15:15:39.999Z</time></trkpt><trkpt lat="44.203173080026026" lon="10.00066699220406"><ele>82.0</ele><time>2026-04-06T15:15:40.999Z</time></trkpt><trkpt lat="44.203221212098846" lon="10.00054938175855"><ele>82.0</ele><time>2026-04-06T15:15:41.999Z</time></trkpt><trkpt lat="44.20330014137548" lon="10.000457972500989"><ele>80.25</ele><time>2026-04-06T15:15:42.999Z</time></trkpt><trkpt lat="44.203375481560784" lon="10.000344077348007"><ele>78.5</ele><time>2026-04-06T15:15:43.999Z</time></trkpt><trkpt lat="44.20345542175115" lon="10.000233565559778"><ele>76.75</ele><time>2026-04-06T15:15:44.999Z</time></trkpt><trkpt lat="44.203539606354674" lon="10.000111740892391"><ele>75.0</ele><time>2026-04-06T15:15:45.999Z</time></trkpt><trkpt lat="44.20364781661733" lon="10.00005034036585"><ele>75.0</ele><time>2026-04-06T15:15:46.999Z</time></trkpt><trkpt lat="44.20373212707264" lon="9.999969077105197"><ele>75.0</ele><time>2026-04-06T15:15:47.999Z</time></trkpt><trkpt lat="44.20381156642779" lon="9.999890649719065"><ele>75.0</ele><time>2026-04-06T15:15:48.999Z</time></trkpt><trkpt lat="44.20388802624532" lon="9.999805141413322"><ele>75.0</ele><time>2026-04-06T15:15:49.999Z</time></trkpt><trkpt lat="44.20396204528317" lon="9.999759412694695"><ele>75.0</ele><time>2026-04-06T15:15:50.999Z</time></trkpt><trkpt lat="44.20406651284264" lon="9.999712308933823"><ele>74.5</ele><time>2026-04-06T15:15:52.999Z</time></trkpt><trkpt lat="44.20413993577587" lon="9.999659435347683"><ele>74.0</ele><time>2026-04-06T15:15:54.999Z</time></trkpt><trkpt lat="44.202509966936866" lon="9.99091354853776"><ele>72.5</ele><time>2026-04-06T15:16:57.999Z</time></trkpt><trkpt lat="44.2024362358557" lon="9.99079278843407"><ele>71.0</ele><time>2026-04-06T15:16:58.999Z</time></trkpt><trkpt lat="44.202329175490306" lon="9.990680894895215"><ele>69.5</ele><time>2026-04-06T15:16:59.999Z</time></trkpt><trkpt lat="44.20220568337181" lon="9.99057159316915"><ele>68.0</ele><time>2026-04-06T15:17:00.999Z</time></trkpt><trkpt lat="44.20207801114338" lon="9.990439047769032"><ele>67.0</ele><time>2026-04-06T15:17:01.999Z</time></trkpt><trkpt lat="44.20196039496381" lon="9.990308407700491"><ele>66.0</ele><time>2026-04-06T15:17:02.999Z</time></trkpt><trkpt lat="44.20184369432454" lon="9.990176698343225"><ele>65.0</ele><time>2026-04-06T15:17:03.999Z</time></trkpt><trkpt lat="44.20172965986322" lon="9.990040658179584"><ele>65.0</ele><time>2026-04-06T15:17:04.999Z</time></trkpt><trkpt lat="44.20163564464855" lon="9.989894131926574"><ele>65.0</ele><time>2026-04-06T15:17:05.999Z</time></trkpt><trkpt lat="44.20157873902141" lon="9.989711842230578"><ele>65.0</ele><time>2026-04-06T15:17:06.999Z</time></trkpt><trkpt lat="44.20151908744463" lon="9.989521825851773"><ele>65.0</ele><time>2026-04-06T15:17:07.999Z</time></trkpt><trkpt lat="44.201475273332534" lon="9.989292551293625"><ele>65.0</ele><time>2026-04-06T15:17:08.999Z</time></trkpt><trkpt lat="44.20143250572093" lon="9.989062510245466"><ele>65.0</ele><time>2026-04-06T15:17:09.999Z</time></trkpt><trkpt lat="44.20139441718371" lon="9.988846753259576"><ele>65.0</ele><time>2026-04-06T15:17:10.999Z</time></trkpt><trkpt lat="44.20136525946263" lon="9.988651286525565"><ele>65.0</ele><time>2026-04-06T15:17:11.999Z</time></trkpt><trkpt lat="44.20133997037418" lon="9.988464361781748"><ele>65.0</ele><time>2026-04-06T15:17:12.999Z</time></trkpt><trkpt lat="44.201318281651524" lon="9.988288531877146"><ele>65.0</ele><time>2026-04-06T15:17:13.999Z</time></trkpt><trkpt lat="44.20130263287619" lon="9.988136149690947"><ele>65.0</ele><time>2026-04-06T15:17:14.999Z</time></trkpt><trkpt lat="44.20129500233" lon="9.988003814452888"><ele>65.33333333333334</ele><time>2026-04-06T15:17:15.999Z</time></trkpt><trkpt lat="44.20129314436604" lon="9.987885459519857"><ele>65.66666666666667</ele><time>2026-04-06T15:17:16.999Z</time></trkpt><trkpt lat="44.2012979327761" lon="9.98776502239512"><ele>66.0</ele><time>2026-04-06T15:17:17.998Z</time></trkpt><trkpt lat="44.20131057513177" lon="9.987643720065659"><ele>66.33333333333333</ele><time>2026-04-06T15:17:18.998Z</time></trkpt><trkpt lat="44.20132037668252" lon="9.987525786201353"><ele>66.66666666666666</ele><time>2026-04-06T15:17:19.998Z</time></trkpt><trkpt lat="44.20132666776044" lon="9.98741145226933"><ele>67.0</ele><time>2026-04-06T15:17:20.998Z</time></trkpt><trkpt lat="44.201329525665145" lon="9.987306203751737"><ele>67.0</ele><time>2026-04-06T15:17:21.998Z</time></trkpt><trkpt lat="44.201326832770434" lon="9.987201657752829"><ele>67.0</ele><time>2026-04-06T15:17:22.998Z</time></trkpt><trkpt lat="44.201325065570614" lon="9.987094807302368"><ele>67.0</ele><time>2026-04-06T15:17:23.998Z</time></trkpt><trkpt lat="44.20131685157791" lon="9.986967986550447"><ele>67.0</ele><time>2026-04-06T15:17:24.998Z</time></trkpt><trkpt lat="44.20131179329376" lon="9.98682629419148"><ele>67.0</ele><time>2026-04-06T15:17:25.998Z</time></trkpt><trkpt lat="44.20130974303148" lon="9.986664270846282"><ele>66.75</ele><time>2026-04-06T15:17:26.998Z</time></trkpt><trkpt lat="44.2013056043952" lon="9.986496770844086"><ele>66.5</ele><time>2026-04-06T15:17:27.998Z</time></trkpt><trkpt lat="44.20130943571054" lon="9.98633646192655"><ele>66.25</ele><time>2026-04-06T15:17:28.998Z</time></trkpt><trkpt lat="44.20132840496193" lon="9.986187978465606"><ele>66.0</ele><time>2026-04-06T15:17:29.998Z</time></trkpt><trkpt lat="44.201351045599026" lon="9.986034328032703"><ele>66.0</ele><time>2026-04-06T15:17:30.998Z</time></trkpt><trkpt lat="44.201375114127686" lon="9.985879741085762"><ele>66.0</ele><time>2026-04-06T15:17:31.998Z</time></trkpt><trkpt lat="44.2014005741415" lon="9.985736323245224"><ele>66.0</ele><time>2026-04-06T15:17:32.998Z</time></trkpt><trkpt lat="44.201418957928674" lon="9.985601498160374"><ele>66.0</ele><time>2026-04-06T15:17:33.998Z</time></trkpt><trkpt lat="44.20141576688857" lon="9.985472659697868"><ele>66.0</ele><time>2026-04-06T15:17:34.998Z</time></trkpt><trkpt lat="44.201391864449604" lon="9.985342159725144"><ele>66.0</ele><time>2026-04-06T15:17:35.998Z</time></trkpt><trkpt lat="44.20135825936852" lon="9.985210491735792"><ele>66.0</ele><time>2026-04-06T15:17:36.998Z</time></trkpt><trkpt lat="44.20132666699732" lon="9.985065100545281"><ele>66.0</ele><time>2026-04-06T15:17:37.998Z</time></trkpt><trkpt lat="44.20129430111516" lon="9.984902159895682"><ele>66.0</ele><time>2026-04-06T15:17:38.998Z</time></trkpt><trkpt lat="44.20125411234872" lon="9.984742737759722"><ele>66.0</ele><time>2026-04-06T15:17:39.998Z</time></trkpt><trkpt lat="44.201217527468145" lon="9.984595174420164"><ele>66.0</ele><time>2026-04-06T15:17:40.999Z</time></trkpt><trkpt lat="44.20118686581189" lon="9.98444873362468"><ele>66.0</ele><time>2026-04-06T15:17:41.999Z</time></trkpt><trkpt lat="44.20115133697793" lon="9.984300728160234"><ele>66.0</ele><time>2026-04-06T15:17:42.999Z</time></trkpt><trkpt lat="44.20111588611083" lon="9.984143827584193"><ele>66.0</ele><time>2026-04-06T15:17:43.999Z</time></trkpt><trkpt lat="44.20109031453529" lon="9.983991466233384"><ele>66.0</ele><time>2026-04-06T15:17:44.999Z</time></trkpt><trkpt lat="44.20108095654743" lon="9.98385129053305"><ele>66.0</ele><time>2026-04-06T15:17:45.999Z</time></trkpt><trkpt lat="44.2010869561944" lon="9.983707288307263"><ele>66.0</ele><time>2026-04-06T15:17:46.999Z</time></trkpt><trkpt lat="44.20111057044915" lon="9.983568213563274"><ele>66.0</ele><time>2026-04-06T15:17:47.999Z</time></trkpt><trkpt lat="44.20114731684096" lon="9.98342079148262"><ele>65.5</ele><time>2026-04-06T15:17:48.999Z</time></trkpt><trkpt lat="44.20119659309278" lon="9.983279879237902"><ele>65.0</ele><time>2026-04-06T15:17:49.999Z</time></trkpt><trkpt lat="44.20125844326957" lon="9.98313816228084"><ele>64.5</ele><time>2026-04-06T15:17:50.999Z</time></trkpt><trkpt lat="44.20133319043248" lon="9.982992685448528"><ele>64.0</ele><time>2026-04-06T15:17:51.999Z</time></trkpt><trkpt lat="44.20142249686916" lon="9.982838027963865"><ele>65.75</ele><time>2026-04-06T15:17:52.999Z</time></trkpt><trkpt lat="44.201520919266066" lon="9.982673328224044"><ele>67.5</ele><time>2026-04-06T15:17:53.999Z</time></trkpt><trkpt lat="44.201617658314" lon="9.982515056592742"><ele>69.25</ele><time>2026-04-06T15:17:54.999Z</time></trkpt><trkpt lat="44.20171552262297" lon="9.982385657670944"><ele>71.0</ele><time>2026-04-06T15:17:55.999Z</time></trkpt><trkpt lat="44.2018286245297" lon="9.982258715552591"><ele>60.0</ele><time>2026-04-06T15:17:56.999Z</time></trkpt><trkpt lat="44.20706315414529" lon="9.978232034217381"><ele>60.0</ele><time>2026-04-06T15:18:57.999Z</time></trkpt><trkpt lat="44.20711676808922" lon="9.978132084962429"><ele>60.0</ele><time>2026-04-06T15:18:58.999Z</time></trkpt><trkpt lat="44.207173203264276" lon="9.978028170319721"><ele>60.0</ele><time>2026-04-06T15:18:59.999Z</time></trkpt><trkpt lat="44.207224605421985" lon="9.977938138272958"><ele>60.0</ele><time>2026-04-06T15:19:00.999Z</time></trkpt><trkpt lat="44.20728182235567" lon="9.977844272074423"><ele>60.0</ele><time>2026-04-06T15:19:01.999Z</time></trkpt><trkpt lat="44.20735062775365" lon="9.977760891032858"><ele>60.0</ele><time>2026-04-06T15:19:02.999Z</time></trkpt><trkpt lat="44.20739318431542" lon="9.977674205656596"><ele>60.166666666666664</ele><time>2026-04-06T15:19:03.999Z</time></trkpt><trkpt lat="44.207452512816374" lon="9.977592812121143"><ele>60.33333333333333</ele><time>2026-04-06T15:19:04.999Z</time></trkpt><trkpt lat="44.207526396419354" lon="9.977531771227806"><ele>60.5</ele><time>2026-04-06T15:19:05.999Z</time></trkpt><trkpt lat="44.20759473799693" lon="9.977464593643772"><ele>60.666666666666664</ele><time>2026-04-06T15:19:06.999Z</time></trkpt><trkpt lat="44.207670971699166" lon="9.977412831638686"><ele>60.83333333333333</ele><time>2026-04-06T15:19:07.999Z</time></trkpt><trkpt lat="44.20776289562047" lon="9.977362464755485"><ele>61.0</ele><time>2026-04-06T15:19:08.999Z</time></trkpt><trkpt lat="44.20786782520102" lon="9.977293484892716"><ele>61.0</ele><time>2026-04-06T15:19:09.999Z</time></trkpt><trkpt lat="44.20797242170951" lon="9.977252580112284"><ele>60.99999999999999</ele><time>2026-04-06T15:19:10.999Z</time></trkpt><trkpt lat="44.2080761256712" lon="9.97720297006331"><ele>60.99999999999999</ele><time>2026-04-06T15:19:11.999Z</time></trkpt><trkpt lat="44.2081727495036" lon="9.977155078908567"><ele>61.0</ele><time>2026-04-06T15:19:12.999Z</time></trkpt><trkpt lat="44.20826889073161" lon="9.977100145211947"><ele>61.0</ele><time>2026-04-06T15:19:13.998Z</time></trkpt><trkpt lat="44.208341666580786" lon="9.977032920870887"><ele>61.33333333333333</ele><time>2026-04-06T15:19:14.998Z</time></trkpt><trkpt lat="44.20841064460333" lon="9.976968342938422"><ele>61.666666666666664</ele><time>2026-04-06T15:19:15.998Z</time></trkpt><trkpt lat="44.20847355645817" lon="9.976898650810208"><ele>62.0</ele><time>2026-04-06T15:19:16.998Z</time></trkpt><trkpt lat="44.20852411167519" lon="9.976827653050538"><ele>62.33333333333333</ele><time>2026-04-06T15:19:17.998Z</time></trkpt><trkpt lat="44.20856299374623" lon="9.976750492880631"><ele>62.666666666666664</ele><time>2026-04-06T15:19:18.998Z</time></trkpt><trkpt lat="44.208574199489505" lon="9.976647984745613"><ele>63.0</ele><time>2026-04-06T15:19:19.998Z</time></trkpt><trkpt lat="44.208543495500244" lon="9.97654637224241"><ele>63.0</ele><time>2026-04-06T15:19:20.998Z</time></trkpt><trkpt lat="44.208490007317465" lon="9.97644373921406"><ele>63.0</ele><time>2026-04-06T15:19:21.998Z</time></trkpt><trkpt lat="44.208446557783176" lon="9.976322232583751"><ele>63.0</ele><time>2026-04-06T15:19:22.998Z</time></trkpt><trkpt lat="44.20842545244766" lon="9.976210633813068"><ele>63.0</ele><time>2026-04-06T15:19:23.998Z</time></trkpt><trkpt lat="44.20844302055321" lon="9.976094281009216"><ele>63.0</ele><time>2026-04-06T15:19:24.998Z</time></trkpt><trkpt lat="44.208471610343665" lon="9.975962050467333"><ele>62.8</ele><time>2026-04-06T15:19:25.998Z</time></trkpt><trkpt lat="44.208484607739834" lon="9.975800998258553"><ele>62.599999999999994</ele><time>2026-04-06T15:19:26.998Z</time></trkpt><trkpt lat="44.208513339109665" lon="9.97565127304098"><ele>62.400000000000006</ele><time>2026-04-06T15:19:27.998Z</time></trkpt><trkpt lat="44.20853657822682" lon="9.975503507262902"><ele>62.2</ele><time>2026-04-06T15:19:28.998Z</time></trkpt><trkpt lat="44.20856859269807" lon="9.975373314702933"><ele>62.0</ele><time>2026-04-06T15:19:29.998Z</time></trkpt><trkpt lat="44.208584834582645" lon="9.975250686979969"><ele>62.00000000000001</ele><time>2026-04-06T15:19:30.998Z</time></trkpt><trkpt lat="44.208580082671915" lon="9.975143700688065"><ele>62.0</ele><time>2026-04-06T15:19:31.998Z</time></trkpt><trkpt lat="44.20857543341005" lon="9.975047056477452"><ele>62.0</ele><time>2026-04-06T15:19:32.998Z</time></trkpt><trkpt lat="44.20856025582769" lon="9.97494725819687"><ele>62.0</ele><time>2026-04-06T15:19:33.998Z</time></trkpt><trkpt lat="44.208505234205134" lon="9.974859244977576"><ele>62.00000000000001</ele><time>2026-04-06T15:19:34.998Z</time></trkpt><trkpt lat="44.20845693877554" lon="9.974746300965593"><ele>62.0</ele><time>2026-04-06T15:19:35.998Z</time></trkpt><trkpt lat="44.20840887859757" lon="9.974644707805217"><ele>62.50000000000001</ele><time>2026-04-06T15:19:36.998Z</time></trkpt><trkpt lat="44.208354968452404" lon="9.974550122213909"><ele>63.0</ele><time>2026-04-06T15:19:37.998Z</time></trkpt><trkpt lat="44.20830074615214" lon="9.974456872254994"><ele>63.5</ele><time>2026-04-06T15:19:38.998Z</time></trkpt><trkpt lat="44.2082416911888" lon="9.97437086049981"><ele>64.0</ele><time>2026-04-06T15:19:39.998Z</time></trkpt><trkpt lat="44.20817604595401" lon="9.974289140058037"><ele>64.5</ele><time>2026-04-06T15:19:40.998Z</time></trkpt><trkpt lat="44.208109504343206" lon="9.974218570731539"><ele>65.0</ele><time>2026-04-06T15:19:41.998Z</time></trkpt><trkpt lat="44.20804694362922" lon="9.974152994731835"><ele>63.833333333333336</ele><time>2026-04-06T15:19:42.998Z</time></trkpt><trkpt lat="44.207991091393254" lon="9.974090919132138"><ele>62.66666666666667</ele><time>2026-04-06T15:19:43.998Z</time></trkpt><trkpt lat="44.20791317463498" lon="9.973965145101072"><ele>61.5</ele><time>2026-04-06T15:19:45.999Z</time></trkpt><trkpt lat="44.20787269311758" lon="9.973885540006817"><ele>60.33333333333333</ele><time>2026-04-06T15:19:46.999Z</time></trkpt><trkpt lat="44.20782798319958" lon="9.973797142039505"><ele>59.166666666666664</ele><time>2026-04-06T15:19:47.999Z</time></trkpt><trkpt lat="44.20777934653063" lon="9.973699493811495"><ele>58.0</ele><time>2026-04-06T15:19:48.999Z</time></trkpt><trkpt lat="44.20774450468579" lon="9.973625313497246"><ele>57.99999999999999</ele><time>2026-04-06T15:19:49.999Z</time></trkpt><trkpt lat="44.20771110454367" lon="9.973549053603525"><ele>58.0</ele><time>2026-04-06T15:19:50.999Z</time></trkpt><trkpt lat="44.207679849255975" lon="9.973460404705955"><ele>58.0</ele><time>2026-04-06T15:19:51.999Z</time></trkpt><trkpt lat="44.20766512990536" lon="9.973363205181101"><ele>58.0</ele><time>2026-04-06T15:19:52.999Z</time></trkpt><trkpt lat="44.207682027064756" lon="9.973254799503739"><ele>57.99999999999999</ele><time>2026-04-06T15:19:53.999Z</time></trkpt><trkpt lat="44.20765981440787" lon="9.973142971709297"><ele>58.0</ele><time>2026-04-06T15:19:54.999Z</time></trkpt><trkpt lat="44.20764293901487" lon="9.973020109085313"><ele>58.5</ele><time>2026-04-06T15:19:55.999Z</time></trkpt><trkpt lat="44.20761843252867" lon="9.972907538665217"><ele>59.0</ele><time>2026-04-06T15:19:56.999Z</time></trkpt><trkpt lat="44.20813897302993" lon="9.97055295210241"><ele>59.0</ele><time>2026-04-06T15:20:57.997Z</time></trkpt><trkpt lat="44.20813952879774" lon="9.970451347153459"><ele>59.0</ele><time>2026-04-06T15:21:22.996Z</time></trkpt><trkpt lat="44.20794909736272" lon="9.970402920906379"><ele>59.0</ele><time>2026-04-06T15:21:24.996Z</time></trkpt><trkpt lat="44.20781264413235" lon="9.970386869889655"><ele>59.0</ele><time>2026-04-06T15:21:25.996Z</time></trkpt><trkpt lat="44.207670982996476" lon="9.970361481419246"><ele>59.0</ele><time>2026-04-06T15:21:26.996Z</time></trkpt><trkpt lat="44.20751852354985" lon="9.970356659254008"><ele>59.0</ele><time>2026-04-06T15:21:27.996Z</time></trkpt><trkpt lat="44.20739242780985" lon="9.970325260994413"><ele>59.0</ele><time>2026-04-06T15:21:28.996Z</time></trkpt><trkpt lat="44.207289479488956" lon="9.970307244771652"><ele>59.0</ele><time>2026-04-06T15:21:29.996Z</time></trkpt><trkpt lat="44.20719792955214" lon="9.970292908818728"><ele>57.800000000000004</ele><time>2026-04-06T15:21:30.996Z</time></trkpt><trkpt lat="44.20710850842155" lon="9.970276255202847"><ele>56.60000000000001</ele><time>2026-04-06T15:21:31.996Z</time></trkpt><trkpt lat="44.20700436871282" lon="9.970254639034374"><ele>55.4</ele><time>2026-04-06T15:21:32.996Z</time></trkpt><trkpt lat="44.206892232305364" lon="9.97021056895694"><ele>54.2</ele><time>2026-04-06T15:21:33.996Z</time></trkpt><trkpt lat="44.20677755564517" lon="9.970211905238163"><ele>53.0</ele><time>2026-04-06T15:21:34.996Z</time></trkpt><trkpt lat="44.206667974246294" lon="9.970167567112489"><ele>53.0</ele><time>2026-04-06T15:21:35.996Z</time></trkpt><trkpt lat="44.206556379697886" lon="9.970167176549902"><ele>53.0</ele><time>2026-04-06T15:21:36.996Z</time></trkpt><trkpt lat="44.206443484190295" lon="9.970145041717679"><ele>53.0</ele><time>2026-04-06T15:21:37.996Z</time></trkpt><trkpt lat="44.206330140239885" lon="9.970121865269073"><ele>53.0</ele><time>2026-04-06T15:21:38.996Z</time></trkpt><trkpt lat="44.20621362134977" lon="9.970088803417882"><ele>54.2</ele><time>2026-04-06T15:21:39.996Z</time></trkpt><trkpt lat="44.206096365129746" lon="9.970080767971702"><ele>55.4</ele><time>2026-04-06T15:21:40.996Z</time></trkpt><trkpt lat="44.20598068557866" lon="9.970050693379193"><ele>56.60000000000001</ele><time>2026-04-06T15:21:41.996Z</time></trkpt><trkpt lat="44.205877927385366" lon="9.970030507066753"><ele>57.800000000000004</ele><time>2026-04-06T15:21:42.996Z</time></trkpt><trkpt lat="44.20577635438302" lon="9.970010721495303"><ele>59.0</ele><time>2026-04-06T15:21:43.996Z</time></trkpt><trkpt lat="44.20568552691936" lon="9.9699577810609"><ele>60.0</ele><time>2026-04-06T15:21:44.996Z</time></trkpt><trkpt lat="44.205595702977526" lon="9.969897110833617"><ele>61.00000000000001</ele><time>2026-04-06T15:21:45.996Z</time></trkpt><trkpt lat="44.20551082568659" lon="9.96982153311951"><ele>62.00000000000001</ele><time>2026-04-06T15:21:46.996Z</time></trkpt><trkpt lat="44.205442173914115" lon="9.969728128759838"><ele>63.0</ele><time>2026-04-06T15:21:47.996Z</time></trkpt><trkpt lat="44.205371539700145" lon="9.969616604835668"><ele>64.0</ele><time>2026-04-06T15:21:48.996Z</time></trkpt><trkpt lat="44.205297298997706" lon="9.969487978113985"><ele>64.0</ele><time>2026-04-06T15:21:49.996Z</time></trkpt><trkpt lat="44.20518787039711" lon="9.96938004748829"><ele>64.0</ele><time>2026-04-06T15:21:50.996Z</time></trkpt><trkpt lat="44.20510974353777" lon="9.969227139047467"><ele>64.0</ele><time>2026-04-06T15:21:51.997Z</time></trkpt><trkpt lat="44.205037307466434" lon="9.969087478990243"><ele>64.0</ele><time>2026-04-06T15:21:52.997Z</time></trkpt><trkpt lat="44.20496869602234" lon="9.968961211642812"><ele>63.666666666666664</ele><time>2026-04-06T15:21:53.997Z</time></trkpt><trkpt lat="44.20489928231742" lon="9.968823933007705"><ele>63.33333333333333</ele><time>2026-04-06T15:21:54.997Z</time></trkpt><trkpt lat="44.20480527385202" lon="9.968661673936989"><ele>63.0</ele><time>2026-04-06T15:21:55.997Z</time></trkpt><trkpt lat="44.20468419838378" lon="9.968448161576532"><ele>102.0</ele><time>2026-04-06T15:21:56.997Z</time></trkpt><trkpt lat="44.19955544223437" lon="9.95921816988613"><ele>98.0</ele><time>2026-04-06T15:22:57.999Z</time></trkpt><trkpt lat="44.19952321502526" lon="9.959033901200188"><ele>94.0</ele><time>2026-04-06T15:22:58.999Z</time></trkpt><trkpt lat="44.199496445139246" lon="9.958853442513487"><ele>90.0</ele><time>2026-04-06T15:22:59.999Z</time></trkpt><trkpt lat="44.199474548419104" lon="9.958668817706187"><ele>86.0</ele><time>2026-04-06T15:23:00.999Z</time></trkpt><trkpt lat="44.19946055594157" lon="9.958475312960651"><ele>84.5</ele><time>2026-04-06T15:23:01.999Z</time></trkpt><trkpt lat="44.19945576757843" lon="9.958280584023345"><ele>83.0</ele><time>2026-04-06T15:23:02.999Z</time></trkpt><trkpt lat="44.19945157039833" lon="9.958091072088015"><ele>81.5</ele><time>2026-04-06T15:23:03.999Z</time></trkpt><trkpt lat="44.19944524561649" lon="9.957907679508855"><ele>80.0</ele><time>2026-04-06T15:23:04.999Z</time></trkpt><trkpt lat="44.19943665584864" lon="9.957727400312784"><ele>80.0</ele><time>2026-04-06T15:23:05.999Z</time></trkpt><trkpt lat="44.199427542336764" lon="9.95756178186157"><ele>80.0</ele><time>2026-04-06T15:23:06.999Z</time></trkpt><trkpt lat="44.199421912479224" lon="9.957397194451211"><ele>80.0</ele><time>2026-04-06T15:23:07.999Z</time></trkpt><trkpt lat="44.19941636306175" lon="9.957230906135063"><ele>80.0</ele><time>2026-04-06T15:23:08.999Z</time></trkpt><trkpt lat="44.199410335367055" lon="9.9570582701898"><ele>79.25</ele><time>2026-04-06T15:23:09.999Z</time></trkpt><trkpt lat="44.199408788878266" lon="9.956880391866768"><ele>78.5</ele><time>2026-04-06T15:23:10.999Z</time></trkpt><trkpt lat="44.19941666801558" lon="9.95669478674073"><ele>77.75</ele><time>2026-04-06T15:23:11.999Z</time></trkpt><trkpt lat="44.19944337481621" lon="9.956506343712256"><ele>77.0</ele><time>2026-04-06T15:23:12.999Z</time></trkpt><trkpt lat="44.19947828250062" lon="9.956315965783771"><ele>77.0</ele><time>2026-04-06T15:23:13.999Z</time></trkpt><trkpt lat="44.19951543453119" lon="9.956135918947536"><ele>77.0</ele><time>2026-04-06T15:23:14.999Z</time></trkpt><trkpt lat="44.199547944699724" lon="9.955965460413736"><ele>77.0</ele><time>2026-04-06T15:23:15.999Z</time></trkpt><trkpt lat="44.199581987720336" lon="9.9558045279511"><ele>77.0</ele><time>2026-04-06T15:23:16.999Z</time></trkpt><trkpt lat="44.19960997723073" lon="9.955643325748047"><ele>77.0</ele><time>2026-04-06T15:23:17.999Z</time></trkpt><trkpt lat="44.1996297229134" lon="9.955480792567792"><ele>77.0</ele><time>2026-04-06T15:23:18.999Z</time></trkpt><trkpt lat="44.199624891612636" lon="9.955321234948814"><ele>77.0</ele><time>2026-04-06T15:23:19.999Z</time></trkpt><trkpt lat="44.199597246027544" lon="9.955169087649622"><ele>77.0</ele><time>2026-04-06T15:23:20.999Z</time></trkpt><trkpt lat="44.19952567471947" lon="9.955008747771991"><ele>75.0</ele><time>2026-04-06T15:23:21.999Z</time></trkpt><trkpt lat="44.19943205387127" lon="9.954856710636152"><ele>73.0</ele><time>2026-04-06T15:23:22.999Z</time></trkpt><trkpt lat="44.199345540440156" lon="9.954714881117981"><ele>71.0</ele><time>2026-04-06T15:23:23.999Z</time></trkpt><trkpt lat="44.19926776639935" lon="9.954572673762101"><ele>69.0</ele><time>2026-04-06T15:23:24.999Z</time></trkpt><trkpt lat="44.19919416332101" lon="9.954423960091034"><ele>69.0</ele><time>2026-04-06T15:23:25.999Z</time></trkpt><trkpt lat="44.199120770652854" lon="9.954266163155372"><ele>69.0</ele><time>2026-04-06T15:23:26.999Z</time></trkpt><trkpt lat="44.19905248129911" lon="9.954106277157429"><ele>69.0</ele><time>2026-04-06T15:23:27.999Z</time></trkpt><trkpt lat="44.198999274046095" lon="9.953944908593497"><ele>69.0</ele><time>2026-04-06T15:23:28.999Z</time></trkpt><trkpt lat="44.19896172284222" lon="9.95377810910981"><ele>72.5</ele><time>2026-04-06T15:23:29.999Z</time></trkpt><trkpt lat="44.198933462051244" lon="9.953603891353715"><ele>76.0</ele><time>2026-04-06T15:23:30.999Z</time></trkpt><trkpt lat="44.19891029189867" lon="9.953434661385966"><ele>79.5</ele><time>2026-04-06T15:23:31.999Z</time></trkpt><trkpt lat="44.19888922805417" lon="9.953277267697732"><ele>83.0</ele><time>2026-04-06T15:23:32.999Z</time></trkpt><trkpt lat="44.19886916798761" lon="9.953130346540394"><ele>83.0</ele><time>2026-04-06T15:23:33.999Z</time></trkpt><trkpt lat="44.19884349279628" lon="9.952981510448732"><ele>83.0</ele><time>2026-04-06T15:23:34.999Z</time></trkpt><trkpt lat="44.198813120017306" lon="9.95282686197683"><ele>83.0</ele><time>2026-04-06T15:23:35.999Z</time></trkpt><trkpt lat="44.198777203822864" lon="9.9526798466236"><ele>83.0</ele><time>2026-04-06T15:23:36.999Z</time></trkpt><trkpt lat="44.19872275518769" lon="9.952541932796443"><ele>83.0</ele><time>2026-04-06T15:23:37.999Z</time></trkpt><trkpt lat="44.198655150733465" lon="9.95242297654089"><ele>80.75</ele><time>2026-04-06T15:23:38.999Z</time></trkpt><trkpt lat="44.198569103084786" lon="9.952327488420705"><ele>78.5</ele><time>2026-04-06T15:23:39.999Z</time></trkpt><trkpt lat="44.19845346612194" lon="9.95225848581851"><ele>76.25</ele><time>2026-04-06T15:23:40.999Z</time></trkpt><trkpt lat="44.198304711157455" lon="9.952206150523581"><ele>74.0</ele><time>2026-04-06T15:23:41.999Z</time></trkpt><trkpt lat="44.19814491618114" lon="9.952159025507255"><ele>74.0</ele><time>2026-04-06T15:23:42.999Z</time></trkpt><trkpt lat="44.19800462393844" lon="9.952106856933174"><ele>74.0</ele><time>2026-04-06T15:23:43.999Z</time></trkpt><trkpt lat="44.19787726150106" lon="9.952052923061432"><ele>74.0</ele><time>2026-04-06T15:23:44.999Z</time></trkpt><trkpt lat="44.19775874942028" lon="9.952004939033875"><ele>74.0</ele><time>2026-04-06T15:23:45.999Z</time></trkpt><trkpt lat="44.19764252384846" lon="9.95196774413876"><ele>74.0</ele><time>2026-04-06T15:23:46.999Z</time></trkpt><trkpt lat="44.197525869021916" lon="9.951942215863067"><ele>74.0</ele><time>2026-04-06T15:23:47.999Z</time></trkpt><trkpt lat="44.19740267726658" lon="9.951943174697178"><ele>74.0</ele><time>2026-04-06T15:23:48.998Z</time></trkpt><trkpt lat="44.19727876066152" lon="9.951959795544493"><ele>74.0</ele><time>2026-04-06T15:23:49.998Z</time></trkpt><trkpt lat="44.19715675185807" lon="9.951974826134476"><ele>73.60000000000001</ele><time>2026-04-06T15:23:50.998Z</time></trkpt><trkpt lat="44.19704201834005" lon="9.951990637570892"><ele>73.2</ele><time>2026-04-06T15:23:51.998Z</time></trkpt><trkpt lat="44.1969381922263" lon="9.95201057597637"><ele>72.80000000000001</ele><time>2026-04-06T15:23:52.998Z</time></trkpt><trkpt lat="44.196842600381174" lon="9.952048156770193"><ele>72.4</ele><time>2026-04-06T15:23:53.998Z</time></trkpt><trkpt lat="44.19674223429913" lon="9.952101069095946"><ele>72.0</ele><time>2026-04-06T15:23:54.998Z</time></trkpt><trkpt lat="44.19663977676107" lon="9.952151368205962"><ele>72.0</ele><time>2026-04-06T15:23:55.998Z</time></trkpt><trkpt lat="44.19653411274409" lon="9.952188534985153"><ele>72.0</ele><time>2026-04-06T15:23:56.998Z</time></trkpt><trkpt lat="44.1925734446047" lon="9.942109318010504"><ele>72.75</ele><time>2026-04-06T15:24:57.999Z</time></trkpt><trkpt lat="44.19244940428932" lon="9.942054746480053"><ele>73.5</ele><time>2026-04-06T15:24:58.999Z</time></trkpt><trkpt lat="44.19231082594908" lon="9.94202236804269"><ele>74.25</ele><time>2026-04-06T15:24:59.999Z</time></trkpt><trkpt lat="44.19216824742113" lon="9.942023038396732"><ele>75.0</ele><time>2026-04-06T15:25:00.999Z</time></trkpt><trkpt lat="44.192027804349344" lon="9.942043006671753"><ele>78.5</ele><time>2026-04-06T15:25:01.999Z</time></trkpt><trkpt lat="44.19188184476094" lon="9.942063355287416"><ele>82.0</ele><time>2026-04-06T15:25:02.999Z</time></trkpt><trkpt lat="44.19174820472237" lon="9.942071672201982"><ele>85.5</ele><time>2026-04-06T15:25:03.999Z</time></trkpt><trkpt lat="44.191617299245436" lon="9.942049886740431"><ele>89.0</ele><time>2026-04-06T15:25:04.999Z</time></trkpt><trkpt lat="44.19148328929753" lon="9.942023932187235"><ele>94.5</ele><time>2026-04-06T15:25:05.999Z</time></trkpt><trkpt lat="44.19134601554388" lon="9.94199572731564"><ele>100.0</ele><time>2026-04-06T15:25:06.999Z</time></trkpt><trkpt lat="44.191211860504886" lon="9.941946753886604"><ele>105.5</ele><time>2026-04-06T15:25:07.999Z</time></trkpt><trkpt lat="44.191068513068494" lon="9.94186637413652"><ele>111.0</ele><time>2026-04-06T15:25:08.999Z</time></trkpt><trkpt lat="44.19092654944728" lon="9.941786629450505"><ele>101.33333333333333</ele><time>2026-04-06T15:25:09.999Z</time></trkpt><trkpt lat="44.190775206535804" lon="9.94169965022098"><ele>91.66666666666666</ele><time>2026-04-06T15:25:10.999Z</time></trkpt><trkpt lat="44.19062951536992" lon="9.941615506759886"><ele>82.0</ele><time>2026-04-06T15:25:11.999Z</time></trkpt><trkpt lat="44.19049218278823" lon="9.941537945399357"><ele>82.0</ele><time>2026-04-06T15:25:12.999Z</time></trkpt><trkpt lat="44.190351499187855" lon="9.941464336623808"><ele>82.0</ele><time>2026-04-06T15:25:13.999Z</time></trkpt><trkpt lat="44.190216156787905" lon="9.941402977178933"><ele>82.0</ele><time>2026-04-06T15:25:14.999Z</time></trkpt><trkpt lat="44.190081511454586" lon="9.941348655968145"><ele>82.0</ele><time>2026-04-06T15:25:15.999Z</time></trkpt><trkpt lat="44.1899436523997" lon="9.941315224836075"><ele>92.75</ele><time>2026-04-06T15:25:16.999Z</time></trkpt><trkpt lat="44.1898288726605" lon="9.941240782407494"><ele>103.5</ele><time>2026-04-06T15:25:17.999Z</time></trkpt><trkpt lat="44.189716365849385" lon="9.941162285894638"><ele>114.25</ele><time>2026-04-06T15:25:18.999Z</time></trkpt><trkpt lat="44.18959628463375" lon="9.941066282681902"><ele>125.0</ele><time>2026-04-06T15:25:19.999Z</time></trkpt><trkpt lat="44.18947882991239" lon="9.940949536256063"><ele>111.0</ele><time>2026-04-06T15:25:20.999Z</time></trkpt><trkpt lat="44.189347469848876" lon="9.940808105209856"><ele>97.0</ele><time>2026-04-06T15:25:21.999Z</time></trkpt><trkpt lat="44.18920168153981" lon="9.94064472755911"><ele>83.0</ele><time>2026-04-06T15:25:22.999Z</time></trkpt><trkpt lat="44.18905456919346" lon="9.940475985791734"><ele>98.33333333333334</ele><time>2026-04-06T15:25:23.999Z</time></trkpt><trkpt lat="44.18893049487992" lon="9.940333528455897"><ele>113.66666666666667</ele><time>2026-04-06T15:25:24.999Z</time></trkpt><trkpt lat="44.18880563647164" lon="9.940193819063094"><ele>129.0</ele><time>2026-04-06T15:25:25.999Z</time></trkpt><trkpt lat="44.18867881532961" lon="9.940050151361858"><ele>112.0</ele><time>2026-04-06T15:25:26.999Z</time></trkpt><trkpt lat="44.188554922994925" lon="9.939908046915667"><ele>95.0</ele><time>2026-04-06T15:25:27.999Z</time></trkpt><trkpt lat="44.188435026564875" lon="9.939770525972403"><ele>78.0</ele><time>2026-04-06T15:25:28.999Z</time></trkpt><trkpt lat="44.1883162254193" lon="9.939639259702291"><ele>78.0</ele><time>2026-04-06T15:25:29.999Z</time></trkpt><trkpt lat="44.188193507759806" lon="9.939513980536411"><ele>78.0</ele><time>2026-04-06T15:25:30.999Z</time></trkpt><trkpt lat="44.18804001407373" lon="9.93938570086238"><ele>78.0</ele><time>2026-04-06T15:25:31.999Z</time></trkpt><trkpt lat="44.18786265776357" lon="9.939236070150518"><ele>73.5</ele><time>2026-04-06T15:25:32.999Z</time></trkpt><trkpt lat="44.187668610253645" lon="9.939054853446878"><ele>69.0</ele><time>2026-04-06T15:25:33.999Z</time></trkpt><trkpt lat="44.18748807735179" lon="9.93887432534901"><ele>86.5</ele><time>2026-04-06T15:25:34.999Z</time></trkpt><trkpt lat="44.18728679014682" lon="9.938712696708992"><ele>104.0</ele><time>2026-04-06T15:25:35.999Z</time></trkpt><trkpt lat="44.18709465416164" lon="9.938556964943471"><ele>104.0</ele><time>2026-04-06T15:25:36.999Z</time></trkpt><trkpt lat="44.186938175837696" lon="9.938393688233825"><ele>104.0</ele><time>2026-04-06T15:25:37.999Z</time></trkpt><trkpt lat="44.186782975356486" lon="9.938204775951137"><ele>104.0</ele><time>2026-04-06T15:25:38.999Z</time></trkpt><trkpt lat="44.18662303575614" lon="9.938016275380843"><ele>100.66666666666666</ele><time>2026-04-06T15:25:39.999Z</time></trkpt><trkpt lat="44.186445361016794" lon="9.937851780844495"><ele>97.33333333333333</ele><time>2026-04-06T15:25:40.999Z</time></trkpt><trkpt lat="44.18627027617566" lon="9.93770039796962"><ele>94.0</ele><time>2026-04-06T15:25:41.999Z</time></trkpt><trkpt lat="44.18612109390054" lon="9.937548131027638"><ele>86.0</ele><time>2026-04-06T15:25:42.999Z</time></trkpt><trkpt lat="44.185982542561476" lon="9.937372457353304"><ele>78.0</ele><time>2026-04-06T15:25:43.999Z</time></trkpt><trkpt lat="44.18585509991355" lon="9.93718550972578"><ele>70.0</ele><time>2026-04-06T15:25:44.999Z</time></trkpt><trkpt lat="44.18573076747486" lon="9.936989791705605"><ele>70.33333333333333</ele><time>2026-04-06T15:25:45.999Z</time></trkpt><trkpt lat="44.18560596607019" lon="9.936784957690879"><ele>70.66666666666667</ele><time>2026-04-06T15:25:46.999Z</time></trkpt><trkpt lat="44.185500213403024" lon="9.93660172999419"><ele>71.0</ele><time>2026-04-06T15:25:47.999Z</time></trkpt><trkpt lat="44.18539702566713" lon="9.936417654770269"><ele>71.0</ele><time>2026-04-06T15:25:48.999Z</time></trkpt><trkpt lat="44.185299311855" lon="9.936232891052443"><ele>71.0</ele><time>2026-04-06T15:25:49.999Z</time></trkpt><trkpt lat="44.18520243471363" lon="9.93604313613551"><ele>71.0</ele><time>2026-04-06T15:25:50.999Z</time></trkpt><trkpt lat="44.18511480200568" lon="9.935865985240087"><ele>68.0</ele><time>2026-04-06T15:25:51.999Z</time></trkpt><trkpt lat="44.18502772512885" lon="9.93568842933249"><ele>65.0</ele><time>2026-04-06T15:25:52.999Z</time></trkpt><trkpt lat="44.18495024535735" lon="9.935514950216266"><ele>62.0</ele><time>2026-04-06T15:25:53.999Z</time></trkpt><trkpt lat="44.18488086365653" lon="9.935340912223102"><ele>59.0</ele><time>2026-04-06T15:25:54.999Z</time></trkpt><trkpt lat="44.18482169475398" lon="9.935173810042953"><ele>59.0</ele><time>2026-04-06T15:25:55.999Z</time></trkpt><trkpt lat="44.184768414537416" lon="9.935006910150923"><ele>59.0</ele><time>2026-04-06T15:25:56.999Z</time></trkpt><trkpt lat="44.18411649866924" lon="9.925737514823231"><ele>57.0</ele><time>2026-04-06T15:26:57.999Z</time></trkpt><trkpt lat="44.18398636961437" lon="9.925824755989241"><ele>55.0</ele><time>2026-04-06T15:26:58.999Z</time></trkpt><trkpt lat="44.18381507022395" lon="9.925901591770232"><ele>53.0</ele><time>2026-04-06T15:26:59.999Z</time></trkpt><trkpt lat="44.18362074955631" lon="9.926009038101496"><ele>56.0</ele><time>2026-04-06T15:27:00.999Z</time></trkpt><trkpt lat="44.18342885187879" lon="9.926137090303097"><ele>59.0</ele><time>2026-04-06T15:27:01.999Z</time></trkpt><trkpt lat="44.183247019589665" lon="9.926243613238263"><ele>62.0</ele><time>2026-04-06T15:27:02.999Z</time></trkpt><trkpt lat="44.183068114257416" lon="9.926361788209908"><ele>62.0</ele><time>2026-04-06T15:27:03.999Z</time></trkpt><trkpt lat="44.18289443237099" lon="9.926479987678581"><ele>62.0</ele><time>2026-04-06T15:27:04.999Z</time></trkpt><trkpt lat="44.18272025456298" lon="9.92659126423953"><ele>62.0</ele><time>2026-04-06T15:27:05.999Z</time></trkpt><trkpt lat="44.182541757945884" lon="9.926697714809155"><ele>65.33333333333334</ele><time>2026-04-06T15:27:06.999Z</time></trkpt><trkpt lat="44.182362352566955" lon="9.926798626778778"><ele>68.66666666666667</ele><time>2026-04-06T15:27:07.999Z</time></trkpt><trkpt lat="44.18218088221675" lon="9.926887906705964"><ele>72.0</ele><time>2026-04-06T15:27:08.999Z</time></trkpt><trkpt lat="44.18200499850374" lon="9.926966406760918"><ele>72.0</ele><time>2026-04-06T15:27:09.999Z</time></trkpt><trkpt lat="44.18181644205529" lon="9.92703258489323"><ele>72.0</ele><time>2026-04-06T15:27:10.999Z</time></trkpt><trkpt lat="44.18163004008265" lon="9.927081185451117"><ele>72.0</ele><time>2026-04-06T15:27:11.999Z</time></trkpt><trkpt lat="44.181460150194475" lon="9.927131451661857"><ele>65.66666666666667</ele><time>2026-04-06T15:27:12.999Z</time></trkpt><trkpt lat="44.1812863609703" lon="9.927202798953454"><ele>59.333333333333336</ele><time>2026-04-06T15:27:13.999Z</time></trkpt><trkpt lat="44.18111460145739" lon="9.927287080857267"><ele>53.0</ele><time>2026-04-06T15:27:14.999Z</time></trkpt><trkpt lat="44.18093735902265" lon="9.927396886850616"><ele>53.0</ele><time>2026-04-06T15:27:15.999Z</time></trkpt><trkpt lat="44.18075913975991" lon="9.927528238639166"><ele>53.0</ele><time>2026-04-06T15:27:16.999Z</time></trkpt><trkpt lat="44.180566799239315" lon="9.927676681611342"><ele>53.0</ele><time>2026-04-06T15:27:17.999Z</time></trkpt><trkpt lat="44.18038934009919" lon="9.927799251382531"><ele>54.0</ele><time>2026-04-06T15:27:18.999Z</time></trkpt><trkpt lat="44.18021277670764" lon="9.927896493932353"><ele>55.0</ele><time>2026-04-06T15:27:19.999Z</time></trkpt><trkpt lat="44.18002757053028" lon="9.927990698867289"><ele>56.0</ele><time>2026-04-06T15:27:20.999Z</time></trkpt><trkpt lat="44.17984718536931" lon="9.928069018253883"><ele>56.0</ele><time>2026-04-06T15:27:21.999Z</time></trkpt><trkpt lat="44.179656668357374" lon="9.92814818587509"><ele>56.0</ele><time>2026-04-06T15:27:22.999Z</time></trkpt><trkpt lat="44.17947478617983" lon="9.92819028701389"><ele>56.0</ele><time>2026-04-06T15:27:23.999Z</time></trkpt><trkpt lat="44.17929805409047" lon="9.92818516451542"><ele>56.0</ele><time>2026-04-06T15:27:24.999Z</time></trkpt><trkpt lat="44.17913792363213" lon="9.928181251199845"><ele>56.0</ele><time>2026-04-06T15:27:25.999Z</time></trkpt><trkpt lat="44.17899169418824" lon="9.92824027287572"><ele>56.0</ele><time>2026-04-06T15:27:26.999Z</time></trkpt><trkpt lat="44.17883556994597" lon="9.928324730187665"><ele>57.333333333333336</ele><time>2026-04-06T15:27:27.999Z</time></trkpt><trkpt lat="44.1786591425499" lon="9.928444115918882"><ele>58.66666666666667</ele><time>2026-04-06T15:27:28.999Z</time></trkpt><trkpt lat="44.17845735693262" lon="9.92849411482351"><ele>60.0</ele><time>2026-04-06T15:27:29.999Z</time></trkpt><trkpt lat="44.1782460507642" lon="9.928550529719757"><ele>54.333333333333336</ele><time>2026-04-06T15:27:30.999Z</time></trkpt><trkpt lat="44.17804652925197" lon="9.928638715390617"><ele>48.66666666666667</ele><time>2026-04-06T15:27:31.999Z</time></trkpt><trkpt lat="44.177829295404685" lon="9.928708850142067"><ele>43.0</ele><time>2026-04-06T15:27:32.999Z</time></trkpt><trkpt lat="44.177596776603146" lon="9.928748095152256"><ele>43.0</ele><time>2026-04-06T15:27:33.999Z</time></trkpt><trkpt lat="44.17738086642097" lon="9.928804305763816"><ele>43.0</ele><time>2026-04-06T15:27:34.999Z</time></trkpt><trkpt lat="44.17716962195046" lon="9.928856175904482"><ele>43.0</ele><time>2026-04-06T15:27:35.999Z</time></trkpt><trkpt lat="44.17697479787204" lon="9.928902407153124"><ele>42.333333333333336</ele><time>2026-04-06T15:27:36.999Z</time></trkpt><trkpt lat="44.176793825585186" lon="9.928945681832591"><ele>41.666666666666664</ele><time>2026-04-06T15:27:37.999Z</time></trkpt><trkpt lat="44.176620525550526" lon="9.928985739867311"><ele>41.0</ele><time>2026-04-06T15:27:38.999Z</time></trkpt><trkpt lat="44.17647307770129" lon="9.929008220647011"><ele>47.0</ele><time>2026-04-06T15:27:39.999Z</time></trkpt><trkpt lat="44.176332038356016" lon="9.928987527817439"><ele>53.0</ele><time>2026-04-06T15:27:40.999Z</time></trkpt><trkpt lat="44.17620829221359" lon="9.9289101471019"><ele>59.0</ele><time>2026-04-06T15:27:41.999Z</time></trkpt><trkpt lat="44.1760808387519" lon="9.928794964032619"><ele>65.0</ele><time>2026-04-06T15:27:42.999Z</time></trkpt><trkpt lat="44.17594207305222" lon="9.928663610638408"><ele>65.0</ele><time>2026-04-06T15:27:43.999Z</time></trkpt><trkpt lat="44.17578674050487" lon="9.928573198313504"><ele>65.0</ele><time>2026-04-06T15:27:44.999Z</time></trkpt><trkpt lat="44.17563186007252" lon="9.92850560375945"><ele>65.0</ele><time>2026-04-06T15:27:45.999Z</time></trkpt><trkpt lat="44.175470806677524" lon="9.928481384349867"><ele>66.0</ele><time>2026-04-06T15:27:46.999Z</time></trkpt><trkpt lat="44.17531429995792" lon="9.928477602140493"><ele>67.0</ele><time>2026-04-06T15:27:47.999Z</time></trkpt><trkpt lat="44.175171031851406" lon="9.928465117067367"><ele>68.0</ele><time>2026-04-06T15:27:48.999Z</time></trkpt><trkpt lat="44.17504132168605" lon="9.928416460131144"><ele>69.0</ele><time>2026-04-06T15:27:49.999Z</time></trkpt><trkpt lat="44.174907209994686" lon="9.92831830073552"><ele>63.33333333333333</ele><time>2026-04-06T15:27:50.999Z</time></trkpt><trkpt lat="44.174786722141846" lon="9.928141282258128"><ele>57.666666666666664</ele><time>2026-04-06T15:27:51.999Z</time></trkpt><trkpt lat="44.17464949896686" lon="9.928018768046439"><ele>52.0</ele><time>2026-04-06T15:27:52.999Z</time></trkpt><trkpt lat="44.1745330565069" lon="9.927921166027334"><ele>52.0</ele><time>2026-04-06T15:27:53.999Z</time></trkpt><trkpt lat="44.17442344347484" lon="9.927866040402513"><ele>52.0</ele><time>2026-04-06T15:27:54.999Z</time></trkpt><trkpt lat="44.17434596142252" lon="9.927756017183174"><ele>52.0</ele><time>2026-04-06T15:27:55.999Z</time></trkpt><trkpt lat="44.17427814137533" lon="9.927653419490971"><ele>52.0</ele><time>2026-04-06T15:27:56.999Z</time></trkpt><trkpt lat="44.167645401912274" lon="9.92196377097709"><ele>51.400000000000006</ele><time>2026-04-06T15:28:57.999Z</time></trkpt><trkpt lat="44.16758127764046" lon="9.921850234647067"><ele>50.800000000000004</ele><time>2026-04-06T15:28:58.999Z</time></trkpt><trkpt lat="44.16751822452549" lon="9.921735755431092"><ele>50.2</ele><time>2026-04-06T15:28:59.999Z</time></trkpt><trkpt lat="44.16745682884048" lon="9.92162280778952"><ele>49.6</ele><time>2026-04-06T15:29:00.999Z</time></trkpt><trkpt lat="44.16739888069695" lon="9.921516202447526"><ele>49.0</ele><time>2026-04-06T15:29:01.999Z</time></trkpt><trkpt lat="44.16734484311478" lon="9.92141654683589"><ele>48.6</ele><time>2026-04-06T15:29:02.999Z</time></trkpt><trkpt lat="44.167288042633146" lon="9.921310489050875"><ele>48.2</ele><time>2026-04-06T15:29:03.999Z</time></trkpt><trkpt lat="44.16723388405318" lon="9.921198645208682"><ele>47.800000000000004</ele><time>2026-04-06T15:29:04.999Z</time></trkpt><trkpt lat="44.167174244194726" lon="9.921072549565801"><ele>47.400000000000006</ele><time>2026-04-06T15:29:05.999Z</time></trkpt><trkpt lat="44.167111520470705" lon="9.92094290581173"><ele>47.0</ele><time>2026-04-06T15:29:06.999Z</time></trkpt><trkpt lat="44.167043924770674" lon="9.920806470579958"><ele>47.0</ele><time>2026-04-06T15:29:07.999Z</time></trkpt><trkpt lat="44.16697032941819" lon="9.920671920751609"><ele>47.0</ele><time>2026-04-06T15:29:08.999Z</time></trkpt><trkpt lat="44.166887098002434" lon="9.920549016240575"><ele>47.0</ele><time>2026-04-06T15:29:09.999Z</time></trkpt><trkpt lat="44.166790237292915" lon="9.920435288564432"><ele>47.0</ele><time>2026-04-06T15:29:10.999Z</time></trkpt><trkpt lat="44.16669252680342" lon="9.920329115426231"><ele>47.0</ele><time>2026-04-06T15:29:11.999Z</time></trkpt><trkpt lat="44.1665976081821" lon="9.920229611293642"><ele>47.0</ele><time>2026-04-06T15:29:12.999Z</time></trkpt><trkpt lat="44.16650919120028" lon="9.920142087323564"><ele>47.0</ele><time>2026-04-06T15:29:13.999Z</time></trkpt><trkpt lat="44.166435992880245" lon="9.920069126627393"><ele>47.0</ele><time>2026-04-06T15:29:14.999Z</time></trkpt><trkpt lat="44.166368786333635" lon="9.91999666280403"><ele>47.0</ele><time>2026-04-06T15:29:15.999Z</time></trkpt><trkpt lat="44.1663013160844" lon="9.919919857623848"><ele>50.0</ele><time>2026-04-06T15:29:16.999Z</time></trkpt><trkpt lat="44.166290118899184" lon="9.919796295069379"><ele>53.0</ele><time>2026-04-06T15:29:17.999Z</time></trkpt><trkpt lat="44.16630337995256" lon="9.919672803165822"><ele>56.0</ele><time>2026-04-06T15:29:18.999Z</time></trkpt><trkpt lat="44.166317613339636" lon="9.919533991648095"><ele>59.0</ele><time>2026-04-06T15:29:19.999Z</time></trkpt><trkpt lat="44.166330845424525" lon="9.919392335694"><ele>62.0</ele><time>2026-04-06T15:29:20.999Z</time></trkpt><trkpt lat="44.166341270162334" lon="9.919255036991819"><ele>60.8</ele><time>2026-04-06T15:29:21.999Z</time></trkpt><trkpt lat="44.16634845062489" lon="9.919113807966001"><ele>59.6</ele><time>2026-04-06T15:29:22.999Z</time></trkpt><trkpt lat="44.16634420590492" lon="9.918964383579333"><ele>58.39999999999999</ele><time>2026-04-06T15:29:23.999Z</time></trkpt><trkpt lat="44.16632976866228" lon="9.918809096574611"><ele>57.199999999999996</ele><time>2026-04-06T15:29:24.999Z</time></trkpt><trkpt lat="44.16630689412583" lon="9.918647671780112"><ele>56.0</ele><time>2026-04-06T15:29:25.999Z</time></trkpt><trkpt lat="44.16628131947952" lon="9.918491744697377"><ele>56.0</ele><time>2026-04-06T15:29:26.999Z</time></trkpt><trkpt lat="44.16625540287043" lon="9.918337316186522"><ele>56.0</ele><time>2026-04-06T15:29:27.999Z</time></trkpt><trkpt lat="44.16621379780743" lon="9.918182086872285"><ele>56.0</ele><time>2026-04-06T15:29:28.999Z</time></trkpt><trkpt lat="44.16616044636271" lon="9.918033513802962"><ele>56.0</ele><time>2026-04-06T15:29:29.999Z</time></trkpt><trkpt lat="44.16610680210515" lon="9.917890628217837"><ele>56.0</ele><time>2026-04-06T15:29:30.999Z</time></trkpt><trkpt lat="44.16605455726702" lon="9.917751008239222"><ele>55.99999999999999</ele><time>2026-04-06T15:29:31.999Z</time></trkpt><trkpt lat="44.166008995120535" lon="9.917629980679594"><ele>55.99999999999999</ele><time>2026-04-06T15:29:32.999Z</time></trkpt><trkpt lat="44.165962062417485" lon="9.917505906996903"><ele>56.0</ele><time>2026-04-06T15:29:33.999Z</time></trkpt><trkpt lat="44.16591522325977" lon="9.917384149590513"><ele>56.0</ele><time>2026-04-06T15:29:34.999Z</time></trkpt><trkpt lat="44.16586760353212" lon="9.917263682275863"><ele>55.8</ele><time>2026-04-06T15:29:35.999Z</time></trkpt><trkpt lat="44.165813825039145" lon="9.917144469364969"><ele>55.599999999999994</ele><time>2026-04-06T15:29:36.999Z</time></trkpt><trkpt lat="44.16572773628434" lon="9.917037575897872"><ele>55.4</ele><time>2026-04-06T15:29:37.999Z</time></trkpt><trkpt lat="44.16563968018" lon="9.916943199725829"><ele>55.2</ele><time>2026-04-06T15:29:38.999Z</time></trkpt><trkpt lat="44.165555816696205" lon="9.91685416760317"><ele>55.0</ele><time>2026-04-06T15:29:39.999Z</time></trkpt><trkpt lat="44.165477238177544" lon="9.916770650184532"><ele>55.666666666666664</ele><time>2026-04-06T15:29:40.999Z</time></trkpt><trkpt lat="44.16541196251858" lon="9.91669943324458"><ele>56.33333333333333</ele><time>2026-04-06T15:29:41.999Z</time></trkpt><trkpt lat="44.16535582505504" lon="9.916635386214644"><ele>57.0</ele><time>2026-04-06T15:29:42.999Z</time></trkpt><trkpt lat="44.165304638077664" lon="9.916572599812419"><ele>57.66666666666667</ele><time>2026-04-06T15:29:43.999Z</time></trkpt><trkpt lat="44.16525646618283" lon="9.916496061399524"><ele>58.333333333333336</ele><time>2026-04-06T15:29:44.999Z</time></trkpt><trkpt lat="44.16520605374689" lon="9.916404715389666"><ele>59.0</ele><time>2026-04-06T15:29:45.999Z</time></trkpt><trkpt lat="44.165156090522636" lon="9.916311401715797"><ele>59.00000000000001</ele><time>2026-04-06T15:29:46.999Z</time></trkpt><trkpt lat="44.16510961612588" lon="9.9162246040314"><ele>59.0</ele><time>2026-04-06T15:29:47.999Z</time></trkpt><trkpt lat="44.16506468423936" lon="9.916152190961599"><ele>59.0</ele><time>2026-04-06T15:29:48.999Z</time></trkpt><trkpt lat="44.16500310653131" lon="9.916080015521208"><ele>59.0</ele><time>2026-04-06T15:29:49.999Z</time></trkpt><trkpt lat="44.16492514375777" lon="9.91603259854644"><ele>59.00000000000001</ele><time>2026-04-06T15:29:50.999Z</time></trkpt><trkpt lat="44.16484460495424" lon="9.916008307119466"><ele>59.0</ele><time>2026-04-06T15:29:51.999Z</time></trkpt><trkpt lat="44.16474371556377" lon="9.916102383084727"><ele>58.0</ele><time>2026-04-06T15:29:52.999Z</time></trkpt><trkpt lat="44.16465891739991" lon="9.916128324390396"><ele>57.0</ele><time>2026-04-06T15:29:53.999Z</time></trkpt><trkpt lat="44.16454505459254" lon="9.91615935097163"><ele>56.0</ele><time>2026-04-06T15:29:55.999Z</time></trkpt><trkpt lat="44.16448085226694" lon="9.916185282394334"><ele>55.0</ele><time>2026-04-06T15:29:56.999Z</time></trkpt><trkpt lat="44.15882752194531" lon="9.91689891304829"><ele>51.2</ele><time>2026-04-06T15:30:57.999Z</time></trkpt><trkpt lat="44.158739647328936" lon="9.916977322789029"><ele>47.4</ele><time>2026-04-06T15:30:58.999Z</time></trkpt><trkpt lat="44.15864534773154" lon="9.917040172782283"><ele>43.6</ele><time>2026-04-06T15:30:59.999Z</time></trkpt><trkpt lat="44.158555261802356" lon="9.91710683050239"><ele>39.8</ele><time>2026-04-06T15:31:00.999Z</time></trkpt><trkpt lat="44.15847642913272" lon="9.917155698155062"><ele>36.0</ele><time>2026-04-06T15:31:01.999Z</time></trkpt><trkpt lat="44.158381721835624" lon="9.917228153187848"><ele>36.0</ele><time>2026-04-06T15:31:02.999Z</time></trkpt><trkpt lat="44.158282387941824" lon="9.91729743320434"><ele>36.0</ele><time>2026-04-06T15:31:03.999Z</time></trkpt><trkpt lat="44.15817439531712" lon="9.91735567162994"><ele>36.0</ele><time>2026-04-06T15:31:04.999Z</time></trkpt><trkpt lat="44.15805878060946" lon="9.917413145553542"><ele>36.0</ele><time>2026-04-06T15:31:05.999Z</time></trkpt><trkpt lat="44.15793548147718" lon="9.917470417001159"><ele>35.6</ele><time>2026-04-06T15:31:06.999Z</time></trkpt><trkpt lat="44.15782270431085" lon="9.917517668698437"><ele>35.2</ele><time>2026-04-06T15:31:07.999Z</time></trkpt><trkpt lat="44.157727931066034" lon="9.917552428987504"><ele>34.8</ele><time>2026-04-06T15:31:08.999Z</time></trkpt><trkpt lat="44.15763382067184" lon="9.917593864554936"><ele>34.4</ele><time>2026-04-06T15:31:09.999Z</time></trkpt><trkpt lat="44.1575437268512" lon="9.917628570846059"><ele>34.0</ele><time>2026-04-06T15:31:10.999Z</time></trkpt><trkpt lat="44.1574446520847" lon="9.917665874233329"><ele>33.6</ele><time>2026-04-06T15:31:11.999Z</time></trkpt><trkpt lat="44.15734685822427" lon="9.91770380503099"><ele>33.2</ele><time>2026-04-06T15:31:12.999Z</time></trkpt><trkpt lat="44.157241826585874" lon="9.917747126052202"><ele>32.800000000000004</ele><time>2026-04-06T15:31:13.999Z</time></trkpt><trkpt lat="44.15712643404362" lon="9.917771841203045"><ele>32.4</ele><time>2026-04-06T15:31:14.999Z</time></trkpt><trkpt lat="44.15702663391678" lon="9.917829013513147"><ele>32.0</ele><time>2026-04-06T15:31:15.999Z</time></trkpt><trkpt lat="44.15691537071497" lon="9.917869433408796"><ele>32.0</ele><time>2026-04-06T15:31:16.999Z</time></trkpt><trkpt lat="44.15680014413956" lon="9.917919796796493"><ele>32.0</ele><time>2026-04-06T15:31:17.999Z</time></trkpt><trkpt lat="44.15668871506022" lon="9.917958882916922"><ele>32.0</ele><time>2026-04-06T15:31:18.999Z</time></trkpt><trkpt lat="44.156577724322126" lon="9.917999581521611"><ele>32.0</ele><time>2026-04-06T15:31:19.999Z</time></trkpt><trkpt lat="44.15647028606385" lon="9.918038042875022"><ele>30.75</ele><time>2026-04-06T15:31:20.999Z</time></trkpt><trkpt lat="44.156358131170926" lon="9.91808941001341"><ele>29.5</ele><time>2026-04-06T15:31:21.999Z</time></trkpt><trkpt lat="44.156243483043" lon="9.918133408876477"><ele>28.25</ele><time>2026-04-06T15:31:22.999Z</time></trkpt><trkpt lat="44.1561268292016" lon="9.918180011994334"><ele>27.0</ele><time>2026-04-06T15:31:23.999Z</time></trkpt><trkpt lat="44.156009094561334" lon="9.91822595366311"><ele>27.0</ele><time>2026-04-06T15:31:24.999Z</time></trkpt><trkpt lat="44.155900837886165" lon="9.918265936246272"><ele>27.000000000000004</ele><time>2026-04-06T15:31:25.999Z</time></trkpt><trkpt lat="44.155801962269145" lon="9.918305402642144"><ele>27.000000000000004</ele><time>2026-04-06T15:31:26.999Z</time></trkpt><trkpt lat="44.1557093643013" lon="9.918339675002317"><ele>27.0</ele><time>2026-04-06T15:31:27.999Z</time></trkpt><trkpt lat="44.15562656168002" lon="9.918370776747322"><ele>27.0</ele><time>2026-04-06T15:31:28.999Z</time></trkpt><trkpt lat="44.155556702181656" lon="9.918394280343772"><ele>27.333333333333332</ele><time>2026-04-06T15:31:29.999Z</time></trkpt><trkpt lat="44.15548579523994" lon="9.918418362212169"><ele>27.666666666666664</ele><time>2026-04-06T15:31:30.999Z</time></trkpt><trkpt lat="44.15537408181084" lon="9.918444561218807"><ele>28.0</ele><time>2026-04-06T15:31:32.999Z</time></trkpt><trkpt lat="44.1553087780324" lon="9.918456943769769"><ele>28.333333333333332</ele><time>2026-04-06T15:31:33.999Z</time></trkpt><trkpt lat="44.155243250963224" lon="9.918469438274498"><ele>28.666666666666664</ele><time>2026-04-06T15:31:34.999Z</time></trkpt><trkpt lat="44.15515487736053" lon="9.918489993109553"><ele>29.0</ele><time>2026-04-06T15:31:35.999Z</time></trkpt><trkpt lat="44.15505643285404" lon="9.918520034362649"><ele>28.999999999999996</ele><time>2026-04-06T15:31:36.999Z</time></trkpt><trkpt lat="44.15497417201854" lon="9.918560893176178"><ele>29.0</ele><time>2026-04-06T15:31:37.999Z</time></trkpt><trkpt lat="44.15490469877287" lon="9.918592321934007"><ele>29.0</ele><time>2026-04-06T15:31:38.999Z</time></trkpt><trkpt lat="44.154842631222536" lon="9.918621137502711"><ele>29.0</ele><time>2026-04-06T15:31:39.999Z</time></trkpt><trkpt lat="44.15473298098322" lon="9.918655302877081"><ele>28.999999999999996</ele><time>2026-04-06T15:31:41.999Z</time></trkpt><trkpt lat="44.15462431630156" lon="9.918642260285711"><ele>29.0</ele><time>2026-04-06T15:31:43.999Z</time></trkpt><trkpt lat="44.154542161025205" lon="9.918592508811479"><ele>28.6</ele><time>2026-04-06T15:31:45.999Z</time></trkpt><trkpt lat="44.15449317027299" lon="9.91852345968062"><ele>28.2</ele><time>2026-04-06T15:31:47.999Z</time></trkpt><trkpt lat="44.15440112796643" lon="9.918424736751446"><ele>27.800000000000004</ele><time>2026-04-06T15:31:49.999Z</time></trkpt><trkpt lat="44.15432722875432" lon="9.918350035786293"><ele>27.400000000000002</ele><time>2026-04-06T15:31:50.999Z</time></trkpt><trkpt lat="44.15424394533646" lon="9.918262353231187"><ele>27.0</ele><time>2026-04-06T15:31:51.999Z</time></trkpt><trkpt lat="44.15418620410473" lon="9.918172213573694"><ele>26.8</ele><time>2026-04-06T15:31:52.999Z</time></trkpt><trkpt lat="44.15412904626384" lon="9.918048636082574"><ele>26.6</ele><time>2026-04-06T15:31:53.999Z</time></trkpt><trkpt lat="44.15409061511895" lon="9.917923129111688"><ele>26.400000000000002</ele><time>2026-04-06T15:31:54.999Z</time></trkpt><trkpt lat="44.15405160171167" lon="9.917790298733053"><ele>26.200000000000003</ele><time>2026-04-06T15:31:55.999Z</time></trkpt><trkpt lat="44.154021739606925" lon="9.91767545362222"><ele>26.0</ele><time>2026-04-06T15:31:56.999Z</time></trkpt><trkpt lat="44.146150382659044" lon="9.908334919781693"><ele>20.0</ele><time>2026-04-06T15:32:57.999Z</time></trkpt><trkpt lat="44.145904055927296" lon="9.908131939798013"><ele>14.0</ele><time>2026-04-06T15:32:58.999Z</time></trkpt><trkpt lat="44.145661366262644" lon="9.907919868479247"><ele>14.0</ele><time>2026-04-06T15:32:59.999Z</time></trkpt><trkpt lat="44.14542286118347" lon="9.907705426237605"><ele>14.0</ele><time>2026-04-06T15:33:00.999Z</time></trkpt><trkpt lat="44.145184922233064" lon="9.907491345712145"><ele>14.5</ele><time>2026-04-06T15:33:01.999Z</time></trkpt><trkpt lat="44.14494533597179" lon="9.907284634051177"><ele>15.0</ele><time>2026-04-06T15:33:02.999Z</time></trkpt><trkpt lat="44.1446942172912" lon="9.907057485156987"><ele>15.0</ele><time>2026-04-06T15:33:03.999Z</time></trkpt><trkpt lat="44.14446359835702" lon="9.906810042181005"><ele>15.0</ele><time>2026-04-06T15:33:04.999Z</time></trkpt><trkpt lat="44.144237908551744" lon="9.906555602204206"><ele>15.0</ele><time>2026-04-06T15:33:05.999Z</time></trkpt><trkpt lat="44.144046656816634" lon="9.906502746527252"><ele>15.0</ele><time>2026-04-06T15:33:06.999Z</time></trkpt><trkpt lat="44.143845889084" lon="9.906331645079616"><ele>15.0</ele><time>2026-04-06T15:33:07.999Z</time></trkpt><trkpt lat="44.14364124766356" lon="9.906152186628045"><ele>15.0</ele><time>2026-04-06T15:33:08.999Z</time></trkpt><trkpt lat="44.143434612944105" lon="9.905964418396458"><ele>15.0</ele><time>2026-04-06T15:33:09.999Z</time></trkpt><trkpt lat="44.14321836199567" lon="9.9057738355104"><ele>14.5</ele><time>2026-04-06T15:33:10.999Z</time></trkpt><trkpt lat="44.142990618156226" lon="9.905575637989411"><ele>14.0</ele><time>2026-04-06T15:33:11.999Z</time></trkpt><trkpt lat="44.142757613077656" lon="9.905372397423275"><ele>14.0</ele><time>2026-04-06T15:33:12.999Z</time></trkpt><trkpt lat="44.142530519846076" lon="9.905177601497517"><ele>14.0</ele><time>2026-04-06T15:33:13.999Z</time></trkpt><trkpt lat="44.14231664664425" lon="9.904995138671623"><ele>15.0</ele><time>2026-04-06T15:33:14.999Z</time></trkpt><trkpt lat="44.14210305310947" lon="9.904806552141583"><ele>16.0</ele><time>2026-04-06T15:33:15.999Z</time></trkpt><trkpt lat="44.14188874128112" lon="9.90461425557091"><ele>16.0</ele><time>2026-04-06T15:33:16.999Z</time></trkpt><trkpt lat="44.14166803227252" lon="9.90442112264998"><ele>16.0</ele><time>2026-04-06T15:33:17.999Z</time></trkpt><trkpt lat="44.14145290736645" lon="9.904222382943743"><ele>16.5</ele><time>2026-04-06T15:33:18.999Z</time></trkpt><trkpt lat="44.141227729767216" lon="9.904032760020813"><ele>17.0</ele><time>2026-04-06T15:33:19.999Z</time></trkpt><trkpt lat="44.14100298268778" lon="9.903830859247327"><ele>17.0</ele><time>2026-04-06T15:33:20.999Z</time></trkpt><trkpt lat="44.14077794936087" lon="9.903634967076153"><ele>17.0</ele><time>2026-04-06T15:33:21.999Z</time></trkpt><trkpt lat="44.14055859589632" lon="9.903438564260945"><ele>15.0</ele><time>2026-04-06T15:33:22.999Z</time></trkpt><trkpt lat="44.14033624750609" lon="9.903237350807764"><ele>13.0</ele><time>2026-04-06T15:33:23.999Z</time></trkpt><trkpt lat="44.140115107686654" lon="9.903029684718641"><ele>13.0</ele><time>2026-04-06T15:33:24.999Z</time></trkpt><trkpt lat="44.13989605852996" lon="9.902828712550164"><ele>13.0</ele><time>2026-04-06T15:33:25.999Z</time></trkpt><trkpt lat="44.13967418523596" lon="9.902620332861638"><ele>16.0</ele><time>2026-04-06T15:33:26.999Z</time></trkpt><trkpt lat="44.13945293192259" lon="9.90241381951806"><ele>19.0</ele><time>2026-04-06T15:33:27.999Z</time></trkpt><trkpt lat="44.13922727766255" lon="9.902236344996979"><ele>17.0</ele><time>2026-04-06T15:33:28.999Z</time></trkpt><trkpt lat="44.13900490664397" lon="9.902044939183247"><ele>15.0</ele><time>2026-04-06T15:33:29.999Z</time></trkpt><trkpt lat="44.1387846653019" lon="9.901846020891377"><ele>14.5</ele><time>2026-04-06T15:33:30.999Z</time></trkpt><trkpt lat="44.13856550915311" lon="9.901652547896699"><ele>14.0</ele><time>2026-04-06T15:33:31.999Z</time></trkpt><trkpt lat="44.13835609590555" lon="9.901471330798778"><ele>14.0</ele><time>2026-04-06T15:33:32.999Z</time></trkpt><trkpt lat="44.138161126521474" lon="9.901306358915685"><ele>14.0</ele><time>2026-04-06T15:33:33.999Z</time></trkpt><trkpt lat="44.13797370901535" lon="9.901137507920492"><ele>14.0</ele><time>2026-04-06T15:33:34.999Z</time></trkpt><trkpt lat="44.13778196599627" lon="9.900965365516042"><ele>14.0</ele><time>2026-04-06T15:33:35.999Z</time></trkpt><trkpt lat="44.13758504611971" lon="9.900781603492138"><ele>14.5</ele><time>2026-04-06T15:33:36.999Z</time></trkpt><trkpt lat="44.137379068065286" lon="9.900615149395978"><ele>15.0</ele><time>2026-04-06T15:33:37.999Z</time></trkpt><trkpt lat="44.13718219595334" lon="9.900432720197657"><ele>15.0</ele><time>2026-04-06T15:33:38.999Z</time></trkpt><trkpt lat="44.13697676883667" lon="9.900256390784929"><ele>15.0</ele><time>2026-04-06T15:33:39.999Z</time></trkpt><trkpt lat="44.13676595075263" lon="9.900070462678439"><ele>15.5</ele><time>2026-04-06T15:33:40.999Z</time></trkpt><trkpt lat="44.136560390933795" lon="9.89988772739485"><ele>16.0</ele><time>2026-04-06T15:33:41.999Z</time></trkpt><trkpt lat="44.13636997259728" lon="9.899719283303364"><ele>16.666666666666664</ele><time>2026-04-06T15:33:42.999Z</time></trkpt><trkpt lat="44.13618669558781" lon="9.899556662378885"><ele>17.333333333333332</ele><time>2026-04-06T15:33:43.999Z</time></trkpt><trkpt lat="44.13600533780698" lon="9.89938526806756"><ele>18.0</ele><time>2026-04-06T15:33:44.999Z</time></trkpt><trkpt lat="44.135845310514355" lon="9.899218473282012"><ele>18.0</ele><time>2026-04-06T15:33:45.999Z</time></trkpt><trkpt lat="44.13567914864697" lon="9.899056099058274"><ele>18.0</ele><time>2026-04-06T15:33:46.999Z</time></trkpt><trkpt lat="44.13551079919391" lon="9.898913483837648"><ele>18.0</ele><time>2026-04-06T15:33:47.999Z</time></trkpt><trkpt lat="44.13532614977125" lon="9.898785805160477"><ele>18.0</ele><time>2026-04-06T15:33:48.999Z</time></trkpt><trkpt lat="44.13513600606611" lon="9.898661771383157"><ele>18.0</ele><time>2026-04-06T15:33:49.999Z</time></trkpt><trkpt lat="44.134966219085065" lon="9.898552341796814"><ele>18.0</ele><time>2026-04-06T15:33:50.999Z</time></trkpt><trkpt lat="44.13480711989344" lon="9.898459504682064"><ele>18.75</ele><time>2026-04-06T15:33:51.999Z</time></trkpt><trkpt lat="44.13466791766387" lon="9.89838861417086"><ele>19.5</ele><time>2026-04-06T15:33:52.999Z</time></trkpt><trkpt lat="44.134542469528114" lon="9.898336325564506"><ele>20.25</ele><time>2026-04-06T15:33:53.999Z</time></trkpt><trkpt lat="44.13440636533895" lon="9.898266122928785"><ele>21.0</ele><time>2026-04-06T15:33:54.999Z</time></trkpt><trkpt lat="44.13429680147477" lon="9.89822545359416"><ele>21.0</ele><time>2026-04-06T15:33:55.999Z</time></trkpt><trkpt lat="44.134200893681815" lon="9.898180091181976"><ele>21.0</ele><time>2026-04-06T15:33:56.999Z</time></trkpt><trkpt lat="44.12862201629608" lon="9.894455430584005"><ele>22.0</ele><time>2026-04-06T15:34:57.999Z</time></trkpt><trkpt lat="44.12849092252663" lon="9.894425586511053"><ele>23.0</ele><time>2026-04-06T15:34:58.999Z</time></trkpt><trkpt lat="44.12836045030514" lon="9.89437952890755"><ele>24.0</ele><time>2026-04-06T15:34:59.999Z</time></trkpt><trkpt lat="44.12823550397905" lon="9.894299916313846"><ele>25.0</ele><time>2026-04-06T15:35:00.999Z</time></trkpt><trkpt lat="44.12812197594468" lon="9.894175583594702"><ele>25.0</ele><time>2026-04-06T15:35:01.999Z</time></trkpt><trkpt lat="44.12802499102377" lon="9.894047681228326"><ele>25.0</ele><time>2026-04-06T15:35:02.999Z</time></trkpt><trkpt lat="44.127933535222674" lon="9.893935752985898"><ele>25.0</ele><time>2026-04-06T15:35:03.999Z</time></trkpt><trkpt lat="44.12784914611553" lon="9.893847188885044"><ele>25.0</ele><time>2026-04-06T15:35:04.999Z</time></trkpt><trkpt lat="44.127772754963544" lon="9.893762009621218"><ele>25.000000000000004</ele><time>2026-04-06T15:35:05.999Z</time></trkpt><trkpt lat="44.12770054698948" lon="9.893677470481235"><ele>25.0</ele><time>2026-04-06T15:35:06.999Z</time></trkpt><trkpt lat="44.12762907398187" lon="9.893594824331341"><ele>25.0</ele><time>2026-04-06T15:35:07.999Z</time></trkpt><trkpt lat="44.127561768791466" lon="9.893523665912346"><ele>25.0</ele><time>2026-04-06T15:35:08.999Z</time></trkpt><trkpt lat="44.127495941406146" lon="9.89345465585621"><ele>25.000000000000004</ele><time>2026-04-06T15:35:09.999Z</time></trkpt><trkpt lat="44.12743389659955" lon="9.893387444554381"><ele>25.0</ele><time>2026-04-06T15:35:10.999Z</time></trkpt><trkpt lat="44.12736835869828" lon="9.893317487914215"><ele>25.28571428571429</ele><time>2026-04-06T15:35:11.999Z</time></trkpt><trkpt lat="44.12730995381725" lon="9.893249491859336"><ele>25.571428571428573</ele><time>2026-04-06T15:35:12.999Z</time></trkpt><trkpt lat="44.127256610069615" lon="9.893186214302164"><ele>25.857142857142858</ele><time>2026-04-06T15:35:13.999Z</time></trkpt><trkpt lat="44.127205155302775" lon="9.893130078360251"><ele>26.142857142857146</ele><time>2026-04-06T15:35:14.999Z</time></trkpt><trkpt lat="44.127155559697265" lon="9.893074259451097"><ele>26.428571428571427</ele><time>2026-04-06T15:35:15.999Z</time></trkpt><trkpt lat="44.12709590082251" lon="9.893011221985885"><ele>26.714285714285715</ele><time>2026-04-06T15:35:16.999Z</time></trkpt><trkpt lat="44.12703244606118" lon="9.892938516370686"><ele>27.0</ele><time>2026-04-06T15:35:17.999Z</time></trkpt><trkpt lat="44.1269644206688" lon="9.892864899041387"><ele>27.0</ele><time>2026-04-06T15:35:18.999Z</time></trkpt><trkpt lat="44.12690726025705" lon="9.892804574488633"><ele>27.0</ele><time>2026-04-06T15:35:19.999Z</time></trkpt><trkpt lat="44.12681403955268" lon="9.892703851443322"><ele>27.0</ele><time>2026-04-06T15:35:21.999Z</time></trkpt><trkpt lat="44.126762888609896" lon="9.892642901214938"><ele>27.0</ele><time>2026-04-06T15:35:22.999Z</time></trkpt><trkpt lat="44.12670839366282" lon="9.892576425705691"><ele>27.0</ele><time>2026-04-06T15:35:23.999Z</time></trkpt><trkpt lat="44.12665009971282" lon="9.892500236201114"><ele>27.0</ele><time>2026-04-06T15:35:24.999Z</time></trkpt><trkpt lat="44.126586903596326" lon="9.892408344812344"><ele>27.400000000000002</ele><time>2026-04-06T15:35:25.999Z</time></trkpt><trkpt lat="44.12652758649102" lon="9.892298288439642"><ele>27.800000000000004</ele><time>2026-04-06T15:35:26.999Z</time></trkpt><trkpt lat="44.12646856755569" lon="9.892175512066268"><ele>28.2</ele><time>2026-04-06T15:35:27.999Z</time></trkpt><trkpt lat="44.12639960131692" lon="9.892034734996358"><ele>28.6</ele><time>2026-04-06T15:35:28.999Z</time></trkpt><trkpt lat="44.126335414535475" lon="9.891903552719722"><ele>29.0</ele><time>2026-04-06T15:35:29.999Z</time></trkpt><trkpt lat="44.12627033788226" lon="9.891772382892292"><ele>29.75</ele><time>2026-04-06T15:35:30.999Z</time></trkpt><trkpt lat="44.12619558829935" lon="9.891635376598853"><ele>30.5</ele><time>2026-04-06T15:35:31.999Z</time></trkpt><trkpt lat="44.126120888332366" lon="9.891483203212214"><ele>31.25</ele><time>2026-04-06T15:35:32.999Z</time></trkpt><trkpt lat="44.12604491472583" lon="9.891323916286849"><ele>32.0</ele><time>2026-04-06T15:35:33.999Z</time></trkpt><trkpt lat="44.1259702142595" lon="9.891175609100168"><ele>32.0</ele><time>2026-04-06T15:35:34.999Z</time></trkpt><trkpt lat="44.12589772210592" lon="9.891027754159136"><ele>32.0</ele><time>2026-04-06T15:35:35.999Z</time></trkpt><trkpt lat="44.12582928205095" lon="9.890879127327402"><ele>32.0</ele><time>2026-04-06T15:35:36.999Z</time></trkpt><trkpt lat="44.12576119339694" lon="9.890729217477913"><ele>32.0</ele><time>2026-04-06T15:35:37.999Z</time></trkpt><trkpt lat="44.12569633067471" lon="9.890579666616809"><ele>36.0</ele><time>2026-04-06T15:35:38.999Z</time></trkpt><trkpt lat="44.12563283645826" lon="9.890428763263383"><ele>40.0</ele><time>2026-04-06T15:35:39.999Z</time></trkpt><trkpt lat="44.12557567278623" lon="9.890274226273156"><ele>44.0</ele><time>2026-04-06T15:35:40.999Z</time></trkpt><trkpt lat="44.12551452589449" lon="9.890118688193146"><ele>48.0</ele><time>2026-04-06T15:35:41.999Z</time></trkpt><trkpt lat="44.12545431011312" lon="9.889957935563814"><ele>48.25</ele><time>2026-04-06T15:35:42.999Z</time></trkpt><trkpt lat="44.12540131039376" lon="9.889797688143146"><ele>48.5</ele><time>2026-04-06T15:35:43.999Z</time></trkpt><trkpt lat="44.125361039340014" lon="9.88962792559802"><ele>48.75</ele><time>2026-04-06T15:35:44.999Z</time></trkpt><trkpt lat="44.12532878525142" lon="9.889452401959966"><ele>49.0</ele><time>2026-04-06T15:35:45.999Z</time></trkpt><trkpt lat="44.12530176404059" lon="9.889277011632494"><ele>49.5</ele><time>2026-04-06T15:35:46.999Z</time></trkpt><trkpt lat="44.12527710066762" lon="9.889106564645969"><ele>50.0</ele><time>2026-04-06T15:35:47.999Z</time></trkpt><trkpt lat="44.1252556637127" lon="9.88895298988295"><ele>50.5</ele><time>2026-04-06T15:35:48.999Z</time></trkpt><trkpt lat="44.12524433562871" lon="9.888788062867292"><ele>51.0</ele><time>2026-04-06T15:35:49.999Z</time></trkpt><trkpt lat="44.125254745762014" lon="9.888629969160501"><ele>51.0</ele><time>2026-04-06T15:35:50.999Z</time></trkpt><trkpt lat="44.12528690186177" lon="9.888470048457938"><ele>51.0</ele><time>2026-04-06T15:35:51.999Z</time></trkpt><trkpt lat="44.12534715496791" lon="9.888315773134055"><ele>51.0</ele><time>2026-04-06T15:35:52.999Z</time></trkpt><trkpt lat="44.12542262655102" lon="9.888160372912461"><ele>51.0</ele><time>2026-04-06T15:35:53.999Z</time></trkpt><trkpt lat="44.125497685693595" lon="9.888027202463359"><ele>50.66666666666667</ele><time>2026-04-06T15:35:54.999Z</time></trkpt><trkpt lat="44.125557944078956" lon="9.887895655625133"><ele>50.333333333333336</ele><time>2026-04-06T15:35:55.999Z</time></trkpt><trkpt lat="44.12561145206124" lon="9.887758320680248"><ele>50.0</ele><time>2026-04-06T15:35:56.999Z</time></trkpt><trkpt lat="44.12091127083751" lon="9.88313847044443"><ele>50.0</ele><time>2026-04-06T15:36:57.999Z</time></trkpt><trkpt lat="44.12078339861648" lon="9.88311103455505"><ele>50.0</ele><time>2026-04-06T15:36:58.999Z</time></trkpt><trkpt lat="44.12064619791632" lon="9.883124584196672"><ele>50.0</ele><time>2026-04-06T15:36:59.999Z</time></trkpt><trkpt lat="44.120507941139884" lon="9.883105180474834"><ele>50.0</ele><time>2026-04-06T15:37:00.999Z</time></trkpt><trkpt lat="44.12036924989747" lon="9.883075926884608"><ele>46.66666666666667</ele><time>2026-04-06T15:37:01.999Z</time></trkpt><trkpt lat="44.120223633680965" lon="9.883015352669787"><ele>43.333333333333336</ele><time>2026-04-06T15:37:02.999Z</time></trkpt><trkpt lat="44.12008091809706" lon="9.88291834116422"><ele>40.0</ele><time>2026-04-06T15:37:03.999Z</time></trkpt><trkpt lat="44.11994175874808" lon="9.882850905323767"><ele>38.75</ele><time>2026-04-06T15:37:04.999Z</time></trkpt><trkpt lat="44.11980492051862" lon="9.882783258133523"><ele>37.5</ele><time>2026-04-06T15:37:05.999Z</time></trkpt><trkpt lat="44.119676160448584" lon="9.88271903423623"><ele>36.25</ele><time>2026-04-06T15:37:06.999Z</time></trkpt><trkpt lat="44.119544893076494" lon="9.882654629679289"><ele>35.0</ele><time>2026-04-06T15:37:07.999Z</time></trkpt><trkpt lat="44.11941939728695" lon="9.882589677212902"><ele>35.0</ele><time>2026-04-06T15:37:08.999Z</time></trkpt><trkpt lat="44.11929450293102" lon="9.882506554433128"><ele>35.0</ele><time>2026-04-06T15:37:09.999Z</time></trkpt><trkpt lat="44.11916536812212" lon="9.882401171606066"><ele>35.0</ele><time>2026-04-06T15:37:10.999Z</time></trkpt><trkpt lat="44.11903134875167" lon="9.882303649244477"><ele>35.0</ele><time>2026-04-06T15:37:11.999Z</time></trkpt><trkpt lat="44.118912752223224" lon="9.882175245252427"><ele>33.75</ele><time>2026-04-06T15:37:12.999Z</time></trkpt><trkpt lat="44.11879952913518" lon="9.88205962811311"><ele>32.5</ele><time>2026-04-06T15:37:13.999Z</time></trkpt><trkpt lat="44.11870417337803" lon="9.881928279278513"><ele>31.25</ele><time>2026-04-06T15:37:14.999Z</time></trkpt><trkpt lat="44.118595581904735" lon="9.881830741709813"><ele>30.0</ele><time>2026-04-06T15:37:15.999Z</time></trkpt><trkpt lat="44.1185222925323" lon="9.88169624829555"><ele>30.0</ele><time>2026-04-06T15:37:16.999Z</time></trkpt><trkpt lat="44.11844398294485" lon="9.881567672114539"><ele>30.0</ele><time>2026-04-06T15:37:17.999Z</time></trkpt><trkpt lat="44.11836766575833" lon="9.881439487246004"><ele>30.0</ele><time>2026-04-06T15:37:18.999Z</time></trkpt><trkpt lat="44.1182995726307" lon="9.881327832681915"><ele>30.0</ele><time>2026-04-06T15:37:19.999Z</time></trkpt><trkpt lat="44.11822765166556" lon="9.88120904708272"><ele>29.0</ele><time>2026-04-06T15:37:20.999Z</time></trkpt><trkpt lat="44.11816028073612" lon="9.881097776553576"><ele>28.0</ele><time>2026-04-06T15:37:21.999Z</time></trkpt><trkpt lat="44.11809877046372" lon="9.880996185503909"><ele>27.0</ele><time>2026-04-06T15:37:22.999Z</time></trkpt><trkpt lat="44.11803724188903" lon="9.880894605599176"><ele>26.0</ele><time>2026-04-06T15:37:23.999Z</time></trkpt><trkpt lat="44.11797195967902" lon="9.880787018169514"><ele>25.0</ele><time>2026-04-06T15:37:24.999Z</time></trkpt><trkpt lat="44.11789662541765" lon="9.880662864396376"><ele>24.6</ele><time>2026-04-06T15:37:25.999Z</time></trkpt><trkpt lat="44.117829667170945" lon="9.88055251467962"><ele>24.2</ele><time>2026-04-06T15:37:26.999Z</time></trkpt><trkpt lat="44.117763427713285" lon="9.880443347549038"><ele>23.799999999999997</ele><time>2026-04-06T15:37:27.999Z</time></trkpt><trkpt lat="44.11768807824245" lon="9.880320884355548"><ele>23.4</ele><time>2026-04-06T15:37:28.999Z</time></trkpt><trkpt lat="44.11761380846395" lon="9.880199658747083"><ele>23.0</ele><time>2026-04-06T15:37:29.999Z</time></trkpt><trkpt lat="44.117546413358724" lon="9.880087881238168"><ele>23.0</ele><time>2026-04-06T15:37:30.999Z</time></trkpt><trkpt lat="44.117486377679434" lon="9.87998825678112"><ele>23.0</ele><time>2026-04-06T15:37:31.999Z</time></trkpt><trkpt lat="44.11742635296457" lon="9.879888506210504"><ele>23.0</ele><time>2026-04-06T15:37:32.999Z</time></trkpt><trkpt lat="44.11737095548601" lon="9.879797707682421"><ele>23.0</ele><time>2026-04-06T15:37:33.999Z</time></trkpt><trkpt lat="44.11731334223829" lon="9.879704375872812"><ele>23.0</ele><time>2026-04-06T15:37:34.999Z</time></trkpt><trkpt lat="44.11725282715523" lon="9.879606444952737"><ele>23.0</ele><time>2026-04-06T15:37:35.999Z</time></trkpt><trkpt lat="44.11718928358513" lon="9.879503778294476"><ele>23.0</ele><time>2026-04-06T15:37:36.999Z</time></trkpt><trkpt lat="44.11712625242402" lon="9.879401316219873"><ele>23.0</ele><time>2026-04-06T15:37:37.999Z</time></trkpt><trkpt lat="44.11705965807544" lon="9.879291999549139"><ele>23.0</ele><time>2026-04-06T15:37:38.999Z</time></trkpt><trkpt lat="44.116995176218865" lon="9.87918707514998"><ele>23.0</ele><time>2026-04-06T15:37:39.999Z</time></trkpt><trkpt lat="44.11692403670273" lon="9.879070423349175"><ele>22.0</ele><time>2026-04-06T15:37:40.999Z</time></trkpt><trkpt lat="44.11685406248252" lon="9.878955259911356"><ele>21.0</ele><time>2026-04-06T15:37:41.999Z</time></trkpt><trkpt lat="44.11678338194068" lon="9.878840379489635"><ele>20.0</ele><time>2026-04-06T15:37:42.999Z</time></trkpt><trkpt lat="44.11672380462534" lon="9.878742973087421"><ele>19.0</ele><time>2026-04-06T15:37:43.999Z</time></trkpt><trkpt lat="44.116666195246864" lon="9.878635860049325"><ele>18.0</ele><time>2026-04-06T15:37:44.999Z</time></trkpt><trkpt lat="44.116619583371914" lon="9.87854751385878"><ele>17.8</ele><time>2026-04-06T15:37:45.999Z</time></trkpt><trkpt lat="44.11661783973132" lon="9.878413417391297"><ele>17.6</ele><time>2026-04-06T15:37:46.999Z</time></trkpt><trkpt lat="44.11663138858078" lon="9.878264452109136"><ele>17.4</ele><time>2026-04-06T15:37:47.999Z</time></trkpt><trkpt lat="44.11665364143291" lon="9.878126249464081"><ele>17.2</ele><time>2026-04-06T15:37:48.999Z</time></trkpt><trkpt lat="44.1166685700673" lon="9.877957570967336"><ele>17.0</ele><time>2026-04-06T15:37:49.999Z</time></trkpt><trkpt lat="44.11668105850105" lon="9.877810344272737"><ele>17.0</ele><time>2026-04-06T15:37:50.999Z</time></trkpt><trkpt lat="44.116696553589094" lon="9.877680621682442"><ele>17.0</ele><time>2026-04-06T15:37:51.999Z</time></trkpt><trkpt lat="44.11670619771301" lon="9.877554951218961"><ele>17.0</ele><time>2026-04-06T15:37:52.999Z</time></trkpt><trkpt lat="44.11671622481803" lon="9.87742533225004"><ele>17.0</ele><time>2026-04-06T15:37:53.999Z</time></trkpt><trkpt lat="44.11671442636619" lon="9.877277377925944"><ele>17.0</ele><time>2026-04-06T15:37:54.999Z</time></trkpt><trkpt lat="44.116697920855245" lon="9.877123076662022"><ele>15.5</ele><time>2026-04-06T15:37:55.999Z</time></trkpt><trkpt lat="44.11666981550505" lon="9.87698056947262"><ele>14.0</ele><time>2026-04-06T15:37:56.999Z</time></trkpt><trkpt lat="44.11593244797303" lon="9.87097502316039"><ele>15.399999999999999</ele><time>2026-04-06T15:38:58.001Z</time></trkpt><trkpt lat="44.11601918053198" lon="9.87097151567759"><ele>16.799999999999997</ele><time>2026-04-06T15:38:59.001Z</time></trkpt><trkpt lat="44.11610853928743" lon="9.870975429029112"><ele>18.200000000000003</ele><time>2026-04-06T15:39:00.001Z</time></trkpt><trkpt lat="44.116196933116186" lon="9.870974185314987"><ele>19.6</ele><time>2026-04-06T15:39:01Z</time></trkpt><trkpt lat="44.11628360521874" lon="9.870968470803689"><ele>21.0</ele><time>2026-04-06T15:39:02Z</time></trkpt><trkpt lat="44.11639369973158" lon="9.87092090964574"><ele>21.0</ele><time>2026-04-06T15:39:04Z</time></trkpt><trkpt lat="44.11640752563214" lon="9.870799354773649"><ele>21.0</ele><time>2026-04-06T15:39:06Z</time></trkpt><trkpt lat="44.11633009089393" lon="9.870675709945685"><ele>21.0</ele><time>2026-04-06T15:39:08Z</time></trkpt><trkpt lat="44.11626647370247" lon="9.870648196523625"><ele>21.0</ele><time>2026-04-06T15:39:09Z</time></trkpt><trkpt lat="44.116162747881276" lon="9.870581386661003"><ele>21.0</ele><time>2026-04-06T15:39:11Z</time></trkpt><trkpt lat="44.11611413275013" lon="9.87050290520002"><ele>21.0</ele><time>2026-04-06T15:39:13Z</time></trkpt><trkpt lat="44.11613538866052" lon="9.870367356349167"><ele>21.0</ele><time>2026-04-06T15:39:15Z</time></trkpt><trkpt lat="44.11618011588683" lon="9.870255259154286"><ele>21.0</ele><time>2026-04-06T15:39:17Z</time></trkpt><trkpt lat="44.116106042006045" lon="9.870260122851485"><ele>21.0</ele><time>2026-04-06T15:39:20Z</time></trkpt><trkpt lat="44.11601144160441" lon="9.870169379483766"><ele>21.0</ele><time>2026-04-06T15:39:21Z</time></trkpt><trkpt lat="44.115926613315594" lon="9.870236317204256"><ele>21.0</ele><time>2026-04-06T15:39:22Z</time></trkpt><trkpt lat="44.11588962359591" lon="9.87032952688059"><ele>21.0</ele><time>2026-04-06T15:39:24Z</time></trkpt><trkpt lat="44.11585764726102" lon="9.870410102342689"><ele>21.0</ele><time>2026-04-06T15:39:26Z</time></trkpt><trkpt lat="44.11617057372707" lon="9.870662103000596"><ele>21.0</ele><time>2026-04-06T15:39:30Z</time></trkpt></trkseg></trk></gpx>